<?xml version="1.0" encoding="UTF-8"?>
<gpx version="1.1" creator=" " xmlns="http://www.topografix.com/GPX/1/1" xmlns:xsi="http://www.w3.org/2001/XMLSchema-instance" xsi:schemaLocation="http://www.topografix.com/GPX/1/1 http://www.topografix.com/GPX/1/1/gpx.xsd">
<metadata>
<name>Bartholomä - Sindringen</name>
<desc></desc>
<link href="">
<text>  </text>
</link>
<time>2024-05-07T08:22:06Z</time>
</metadata>
<trk>
<trkseg>
<trkpt lat="48.754060000000000" lon="9.98677000000000">
<ele>644.4</ele>
<time>2024-05-07T08:24:35Z</time>
</trkpt>
<trkpt lat="48.754268595948815" lon="9.9859800003469">
<ele>644.4</ele>
<time>2024-05-07T08:24:36Z</time>
</trkpt>
<trkpt lat="48.754249569028616" lon="9.986046720296144">
<ele>644.6</ele>
<time>2024-05-07T08:24:37Z</time>
</trkpt>
<trkpt lat="48.754230458289385" lon="9.98611444607377">
<ele>644.6</ele>
<time>2024-05-07T08:24:38Z</time>
</trkpt>
<trkpt lat="48.75421520322561" lon="9.986181249842048">
<ele>644.6</ele>
<time>2024-05-07T08:24:39Z</time>
</trkpt>
<trkpt lat="48.75419994816184" lon="9.986249897629024">
<ele>644.6</ele>
<time>2024-05-07T08:24:40Z</time>
</trkpt>
<trkpt lat="48.75418083742261" lon="9.98631477355957">
<ele>644.4</ele>
<time>2024-05-07T08:24:41Z</time>
</trkpt>
<trkpt lat="48.75416181050241" lon="9.986381493508816">
<ele>644.4</ele>
<time>2024-05-07T08:24:42Z</time>
</trkpt>
<trkpt lat="48.75414269976318" lon="9.986446369439363">
<ele>644.4</ele>
<time>2024-05-07T08:24:43Z</time>
</trkpt>
<trkpt lat="48.75412744469941" lon="9.9865083117038">
<ele>644.4</ele>
<time>2024-05-07T08:24:44Z</time>
</trkpt>
<trkpt lat="48.75411604531109" lon="9.98656840994954">
<ele>644.2</ele>
<time>2024-05-07T08:24:45Z</time>
</trkpt>
<trkpt lat="48.75410841777921" lon="9.986626580357552">
<ele>644</ele>
<time>2024-05-07T08:24:46Z</time>
</trkpt>
<trkpt lat="48.75409693457186" lon="9.986677123233676">
<ele>644</ele>
<time>2024-05-07T08:24:47Z</time>
</trkpt>
<trkpt lat="48.75408553518355" lon="9.986722888424993">
<ele>643.8</ele>
<time>2024-05-07T08:24:48Z</time>
</trkpt>
<trkpt lat="48.75407790765166" lon="9.986762031912804">
<ele>643.6</ele>
<time>2024-05-07T08:24:49Z</time>
</trkpt>
<trkpt lat="48.75407405197621" lon="9.98678868636489">
<ele>643.4</ele>
<time>2024-05-07T08:24:50Z</time>
</trkpt>
<trkpt lat="48.75407028011978" lon="9.986811568960547">
<ele>643.2</ele>
<time>2024-05-07T08:24:51Z</time>
</trkpt>
<trkpt lat="48.75407028011978" lon="9.986833529546857">
<ele>643</ele>
<time>2024-05-07T08:24:52Z</time>
</trkpt>
<trkpt lat="48.75407405197621" lon="9.9868468567729">
<ele>642.8</ele>
<time>2024-05-07T08:24:53Z</time>
</trkpt>
<trkpt lat="48.75408553518355" lon="9.986856412142515">
<ele>642.4</ele>
<time>2024-05-07T08:24:54Z</time>
</trkpt>
<trkpt lat="48.75408553518355" lon="9.986854484304786">
<ele>642</ele>
<time>2024-05-07T08:24:55Z</time>
</trkpt>
<trkpt lat="48.754089307039976" lon="9.986853562295437">
<ele>641.6</ele>
<time>2024-05-07T08:24:56Z</time>
</trkpt>
<trkpt lat="48.754089307039976" lon="9.986856412142515">
<ele>641.6</ele>
<time>2024-05-07T08:24:57Z</time>
</trkpt>
<trkpt lat="48.754089307039976" lon="9.986860267817974">
<ele>641.4</ele>
<time>2024-05-07T08:24:59Z</time>
</trkpt>
<trkpt lat="48.754089307039976" lon="9.986861189827325">
<ele>641.4</ele>
<time>2024-05-07T08:25:02Z</time>
</trkpt>
<trkpt lat="48.754089307039976" lon="9.986863117665052">
<ele>641.2</ele>
<time>2024-05-07T08:25:04Z</time>
</trkpt>
<trkpt lat="48.754089307039976" lon="9.98686496168375">
<ele>641.2</ele>
<time>2024-05-07T08:25:05Z</time>
</trkpt>
<trkpt lat="48.754089307039976" lon="9.98686688952148">
<ele>641.2</ele>
<time>2024-05-07T08:25:07Z</time>
</trkpt>
<trkpt lat="48.754093162715435" lon="9.98686688952148">
<ele>641</ele>
<time>2024-05-07T08:25:08Z</time>
</trkpt>
<trkpt lat="48.754093162715435" lon="9.98686789534986">
<ele>641</ele>
<time>2024-05-07T08:25:09Z</time>
</trkpt>
<trkpt lat="48.754089307039976" lon="9.98686789534986">
<ele>641</ele>
<time>2024-05-07T08:25:12Z</time>
</trkpt>
<trkpt lat="48.754089307039976" lon="9.986869739368558">
<ele>641</ele>
<time>2024-05-07T08:25:13Z</time>
</trkpt>
<trkpt lat="48.754089307039976" lon="9.986871667206287">
<ele>641</ele>
<time>2024-05-07T08:25:17Z</time>
</trkpt>
<trkpt lat="48.754089307039976" lon="9.986873595044017">
<ele>641</ele>
<time>2024-05-07T08:25:25Z</time>
</trkpt>
<trkpt lat="48.754089307039976" lon="9.986871667206287">
<ele>641</ele>
<time>2024-05-07T08:25:26Z</time>
</trkpt>
<trkpt lat="48.754093162715435" lon="9.986871667206287">
<ele>641</ele>
<time>2024-05-07T08:25:39Z</time>
</trkpt>
<trkpt lat="48.754089307039976" lon="9.986871667206287">
<ele>641</ele>
<time>2024-05-07T08:25:43Z</time>
</trkpt>
<trkpt lat="48.754093162715435" lon="9.986871667206287">
<ele>641</ele>
<time>2024-05-07T08:25:45Z</time>
</trkpt>
<trkpt lat="48.754093162715435" lon="9.986869739368558">
<ele>641</ele>
<time>2024-05-07T08:25:47Z</time>
</trkpt>
<trkpt lat="48.754093162715435" lon="9.98686789534986">
<ele>641</ele>
<time>2024-05-07T08:25:50Z</time>
</trkpt>
<trkpt lat="48.754093162715435" lon="9.98686688952148">
<ele>641</ele>
<time>2024-05-07T08:25:54Z</time>
</trkpt>
<trkpt lat="48.754093162715435" lon="9.98686496168375">
<ele>641</ele>
<time>2024-05-07T08:25:57Z</time>
</trkpt>
<trkpt lat="48.754093162715435" lon="9.986863117665052">
<ele>641</ele>
<time>2024-05-07T08:25:59Z</time>
</trkpt>
<trkpt lat="48.754093162715435" lon="9.986861189827325">
<ele>641</ele>
<time>2024-05-07T08:26:01Z</time>
</trkpt>
<trkpt lat="48.754093162715435" lon="9.986860267817974">
<ele>641</ele>
<time>2024-05-07T08:26:04Z</time>
</trkpt>
<trkpt lat="48.754093162715435" lon="9.986858339980245">
<ele>641.2</ele>
<time>2024-05-07T08:26:08Z</time>
</trkpt>
<trkpt lat="48.754093162715435" lon="9.986856412142515">
<ele>641.2</ele>
<time>2024-05-07T08:26:13Z</time>
</trkpt>
<trkpt lat="48.754089307039976" lon="9.986856412142515">
<ele>641.2</ele>
<time>2024-05-07T08:26:16Z</time>
</trkpt>
<trkpt lat="48.754093162715435" lon="9.986856412142515">
<ele>641.2</ele>
<time>2024-05-07T08:26:31Z</time>
</trkpt>
<trkpt lat="48.754093162715435" lon="9.986854484304786">
<ele>641.2</ele>
<time>2024-05-07T08:26:34Z</time>
</trkpt>
<trkpt lat="48.754093162715435" lon="9.986853562295437">
<ele>641</ele>
<time>2024-05-07T08:26:41Z</time>
</trkpt>
<trkpt lat="48.754093162715435" lon="9.986851634457707">
<ele>641</ele>
<time>2024-05-07T08:26:54Z</time>
</trkpt>
<trkpt lat="48.75409693457186" lon="9.986851634457707">
<ele>641</ele>
<time>2024-05-07T08:26:55Z</time>
</trkpt>
<trkpt lat="48.75409693457186" lon="9.986849706619978">
<ele>640.8</ele>
<time>2024-05-07T08:26:58Z</time>
</trkpt>
<trkpt lat="48.75409693457186" lon="9.986848784610627">
<ele>640.8</ele>
<time>2024-05-07T08:27:00Z</time>
</trkpt>
<trkpt lat="48.75409693457186" lon="9.9868468567729">
<ele>640.6</ele>
<time>2024-05-07T08:27:02Z</time>
</trkpt>
<trkpt lat="48.754093162715435" lon="9.9868468567729">
<ele>640.6</ele>
<time>2024-05-07T08:27:04Z</time>
</trkpt>
<trkpt lat="48.754093162715435" lon="9.986845012754202">
<ele>640.6</ele>
<time>2024-05-07T08:27:05Z</time>
</trkpt>
<trkpt lat="48.754093162715435" lon="9.986843084916472">
<ele>640.6</ele>
<time>2024-05-07T08:27:09Z</time>
</trkpt>
<trkpt lat="48.754093162715435" lon="9.986841157078745">
<ele>640.6</ele>
<time>2024-05-07T08:27:15Z</time>
</trkpt>
<trkpt lat="48.754093162715435" lon="9.986840235069394">
<ele>640.6</ele>
<time>2024-05-07T08:27:21Z</time>
</trkpt>
<trkpt lat="48.75409693457186" lon="9.986840235069394">
<ele>640.6</ele>
<time>2024-05-07T08:27:27Z</time>
</trkpt>
<trkpt lat="48.754093162715435" lon="9.986840235069394">
<ele>640.8</ele>
<time>2024-05-07T08:27:28Z</time>
</trkpt>
<trkpt lat="48.75409693457186" lon="9.986840235069394">
<ele>640.8</ele>
<time>2024-05-07T08:27:29Z</time>
</trkpt>
<trkpt lat="48.754093162715435" lon="9.986840235069394">
<ele>640.8</ele>
<time>2024-05-07T08:27:31Z</time>
</trkpt>
<trkpt lat="48.754093162715435" lon="9.986841157078745">
<ele>640.8</ele>
<time>2024-05-07T08:27:37Z</time>
</trkpt>
<trkpt lat="48.75409693457186" lon="9.986840235069394">
<ele>640.8</ele>
<time>2024-05-07T08:27:39Z</time>
</trkpt>
<trkpt lat="48.75409693457186" lon="9.986838307231665">
<ele>640.8</ele>
<time>2024-05-07T08:27:45Z</time>
</trkpt>
<trkpt lat="48.75410079024732" lon="9.986836379393935">
<ele>640.8</ele>
<time>2024-05-07T08:27:48Z</time>
</trkpt>
<trkpt lat="48.75410079024732" lon="9.986838307231665">
<ele>640.8</ele>
<time>2024-05-07T08:27:53Z</time>
</trkpt>
<trkpt lat="48.75410456210375" lon="9.986840235069394">
<ele>641</ele>
<time>2024-05-07T08:27:56Z</time>
</trkpt>
<trkpt lat="48.75410456210375" lon="9.986841157078745">
<ele>640.8</ele>
<time>2024-05-07T08:28:00Z</time>
</trkpt>
<trkpt lat="48.75410456210375" lon="9.986843084916472">
<ele>640.8</ele>
<time>2024-05-07T08:28:03Z</time>
</trkpt>
<trkpt lat="48.75410841777921" lon="9.986843084916472">
<ele>640.8</ele>
<time>2024-05-07T08:28:06Z</time>
</trkpt>
<trkpt lat="48.75410841777921" lon="9.986845012754202">
<ele>640.6</ele>
<time>2024-05-07T08:28:07Z</time>
</trkpt>
<trkpt lat="48.75410841777921" lon="9.9868468567729">
<ele>640.6</ele>
<time>2024-05-07T08:28:11Z</time>
</trkpt>
<trkpt lat="48.75410841777921" lon="9.986845012754202">
<ele>640.6</ele>
<time>2024-05-07T08:28:12Z</time>
</trkpt>
<trkpt lat="48.75410841777921" lon="9.9868468567729">
<ele>640.4</ele>
<time>2024-05-07T08:28:13Z</time>
</trkpt>
<trkpt lat="48.75410841777921" lon="9.986848784610627">
<ele>640.4</ele>
<time>2024-05-07T08:28:16Z</time>
</trkpt>
<trkpt lat="48.75410841777921" lon="9.986849706619978">
<ele>640.4</ele>
<time>2024-05-07T08:28:20Z</time>
</trkpt>
<trkpt lat="48.75410841777921" lon="9.986848784610627">
<ele>640.4</ele>
<time>2024-05-07T08:28:31Z</time>
</trkpt>
<trkpt lat="48.75410841777921" lon="9.9868468567729">
<ele>640.4</ele>
<time>2024-05-07T08:28:36Z</time>
</trkpt>
<trkpt lat="48.75410841777921" lon="9.986845012754202">
<ele>640.4</ele>
<time>2024-05-07T08:28:45Z</time>
</trkpt>
<trkpt lat="48.75410841777921" lon="9.986843084916472">
<ele>640.4</ele>
<time>2024-05-07T08:28:49Z</time>
</trkpt>
<trkpt lat="48.75410841777921" lon="9.986845012754202">
<ele>640.4</ele>
<time>2024-05-07T08:28:52Z</time>
</trkpt>
<trkpt lat="48.75410841777921" lon="9.986843084916472">
<ele>640.4</ele>
<time>2024-05-07T08:28:53Z</time>
</trkpt>
<trkpt lat="48.75410841777921" lon="9.986845012754202">
<ele>640.4</ele>
<time>2024-05-07T08:28:54Z</time>
</trkpt>
<trkpt lat="48.75410841777921" lon="9.986843084916472">
<ele>640.4</ele>
<time>2024-05-07T08:28:59Z</time>
</trkpt>
<trkpt lat="48.75410456210375" lon="9.986843084916472">
<ele>640.4</ele>
<time>2024-05-07T08:29:01Z</time>
</trkpt>
<trkpt lat="48.75410456210375" lon="9.986841157078745">
<ele>640.6</ele>
<time>2024-05-07T08:29:03Z</time>
</trkpt>
<trkpt lat="48.75410456210375" lon="9.986840235069394">
<ele>640.6</ele>
<time>2024-05-07T08:29:07Z</time>
</trkpt>
<trkpt lat="48.75410079024732" lon="9.986840235069394">
<ele>640.6</ele>
<time>2024-05-07T08:29:08Z</time>
</trkpt>
<trkpt lat="48.75409693457186" lon="9.986840235069394">
<ele>640.6</ele>
<time>2024-05-07T08:29:17Z</time>
</trkpt>
<trkpt lat="48.75409693457186" lon="9.986838307231665">
<ele>640.6</ele>
<time>2024-05-07T08:29:21Z</time>
</trkpt>
<trkpt lat="48.75409693457186" lon="9.986840235069394">
<ele>640.6</ele>
<time>2024-05-07T08:29:27Z</time>
</trkpt>
<trkpt lat="48.754093162715435" lon="9.986840235069394">
<ele>640.4</ele>
<time>2024-05-07T08:29:28Z</time>
</trkpt>
<trkpt lat="48.754093162715435" lon="9.986841157078745">
<ele>640.4</ele>
<time>2024-05-07T08:29:35Z</time>
</trkpt>
<trkpt lat="48.754093162715435" lon="9.986843084916472">
<ele>640.4</ele>
<time>2024-05-07T08:29:41Z</time>
</trkpt>
<trkpt lat="48.75409693457186" lon="9.986843084916472">
<ele>640.4</ele>
<time>2024-05-07T08:29:42Z</time>
</trkpt>
<trkpt lat="48.75409693457186" lon="9.986841157078745">
<ele>640.4</ele>
<time>2024-05-07T08:30:01Z</time>
</trkpt>
<trkpt lat="48.75409693457186" lon="9.986843084916472">
<ele>640.4</ele>
<time>2024-05-07T08:30:08Z</time>
</trkpt>
<trkpt lat="48.75409693457186" lon="9.986845012754202">
<ele>640.2</ele>
<time>2024-05-07T08:30:16Z</time>
</trkpt>
<trkpt lat="48.75409693457186" lon="9.9868468567729">
<ele>640.2</ele>
<time>2024-05-07T08:30:22Z</time>
</trkpt>
<trkpt lat="48.75409693457186" lon="9.986848784610627">
<ele>640.2</ele>
<time>2024-05-07T08:30:26Z</time>
</trkpt>
<trkpt lat="48.75409693457186" lon="9.986849706619978">
<ele>640.2</ele>
<time>2024-05-07T08:30:29Z</time>
</trkpt>
<trkpt lat="48.75409693457186" lon="9.986851634457707">
<ele>640.2</ele>
<time>2024-05-07T08:30:39Z</time>
</trkpt>
<trkpt lat="48.75410079024732" lon="9.986851634457707">
<ele>640.2</ele>
<time>2024-05-07T08:30:45Z</time>
</trkpt>
<trkpt lat="48.75410079024732" lon="9.986849706619978">
<ele>640.2</ele>
<time>2024-05-07T08:31:00Z</time>
</trkpt>
<trkpt lat="48.75410079024732" lon="9.986848784610627">
<ele>640.2</ele>
<time>2024-05-07T08:31:06Z</time>
</trkpt>
<trkpt lat="48.75410079024732" lon="9.9868468567729">
<ele>640.2</ele>
<time>2024-05-07T08:31:11Z</time>
</trkpt>
<trkpt lat="48.75410079024732" lon="9.986845012754202">
<ele>640.2</ele>
<time>2024-05-07T08:31:16Z</time>
</trkpt>
<trkpt lat="48.75410079024732" lon="9.9868468567729">
<ele>640.2</ele>
<time>2024-05-07T08:31:17Z</time>
</trkpt>
<trkpt lat="48.75410079024732" lon="9.986848784610627">
<ele>640.2</ele>
<time>2024-05-07T08:31:22Z</time>
</trkpt>
<trkpt lat="48.75410079024732" lon="9.986849706619978">
<ele>640.2</ele>
<time>2024-05-07T08:31:24Z</time>
</trkpt>
<trkpt lat="48.75410079024732" lon="9.986851634457707">
<ele>640.2</ele>
<time>2024-05-07T08:31:27Z</time>
</trkpt>
<trkpt lat="48.75410079024732" lon="9.986853562295437">
<ele>640.2</ele>
<time>2024-05-07T08:31:30Z</time>
</trkpt>
<trkpt lat="48.75409693457186" lon="9.986853562295437">
<ele>640.2</ele>
<time>2024-05-07T08:31:34Z</time>
</trkpt>
<trkpt lat="48.75409693457186" lon="9.986851634457707">
<ele>640.2</ele>
<time>2024-05-07T08:31:48Z</time>
</trkpt>
<trkpt lat="48.754093162715435" lon="9.986851634457707">
<ele>640.2</ele>
<time>2024-05-07T08:31:57Z</time>
</trkpt>
<trkpt lat="48.754093162715435" lon="9.986849706619978">
<ele>640.2</ele>
<time>2024-05-07T08:32:00Z</time>
</trkpt>
<trkpt lat="48.754093162715435" lon="9.986851634457707">
<ele>640.2</ele>
<time>2024-05-07T08:32:01Z</time>
</trkpt>
<trkpt lat="48.754093162715435" lon="9.986849706619978">
<ele>640.2</ele>
<time>2024-05-07T08:32:02Z</time>
</trkpt>
<trkpt lat="48.754089307039976" lon="9.986849706619978">
<ele>640.2</ele>
<time>2024-05-07T08:32:06Z</time>
</trkpt>
<trkpt lat="48.754089307039976" lon="9.986851634457707">
<ele>640.2</ele>
<time>2024-05-07T08:32:08Z</time>
</trkpt>
<trkpt lat="48.75408553518355" lon="9.986851634457707">
<ele>640.2</ele>
<time>2024-05-07T08:32:17Z</time>
</trkpt>
<trkpt lat="48.75408553518355" lon="9.986853562295437">
<ele>640.2</ele>
<time>2024-05-07T08:32:20Z</time>
</trkpt>
<trkpt lat="48.75408553518355" lon="9.986854484304786">
<ele>640.2</ele>
<time>2024-05-07T08:32:25Z</time>
</trkpt>
<trkpt lat="48.75408553518355" lon="9.986856412142515">
<ele>640.2</ele>
<time>2024-05-07T08:32:29Z</time>
</trkpt>
<trkpt lat="48.75408553518355" lon="9.986858339980245">
<ele>640.2</ele>
<time>2024-05-07T08:32:34Z</time>
</trkpt>
<trkpt lat="48.75408167950809" lon="9.986858339980245">
<ele>640.2</ele>
<time>2024-05-07T08:32:41Z</time>
</trkpt>
<trkpt lat="48.75408167950809" lon="9.986856412142515">
<ele>640.2</ele>
<time>2024-05-07T08:32:42Z</time>
</trkpt>
<trkpt lat="48.75407790765166" lon="9.986851634457707">
<ele>640.2</ele>
<time>2024-05-07T08:32:43Z</time>
</trkpt>
<trkpt lat="48.75407405197621" lon="9.986845012754202">
<ele>640.2</ele>
<time>2024-05-07T08:32:44Z</time>
</trkpt>
<trkpt lat="48.75407028011978" lon="9.986840235069394">
<ele>640.2</ele>
<time>2024-05-07T08:32:45Z</time>
</trkpt>
<trkpt lat="48.75406642444432" lon="9.986836379393935">
<ele>640.2</ele>
<time>2024-05-07T08:32:46Z</time>
</trkpt>
<trkpt lat="48.75406642444432" lon="9.986833529546857">
<ele>640.2</ele>
<time>2024-05-07T08:32:47Z</time>
</trkpt>
<trkpt lat="48.75406642444432" lon="9.98682975769043">
<ele>640.2</ele>
<time>2024-05-07T08:32:48Z</time>
</trkpt>
<trkpt lat="48.75406642444432" lon="9.98682682402432">
<ele>640.2</ele>
<time>2024-05-07T08:32:49Z</time>
</trkpt>
<trkpt lat="48.75407028011978" lon="9.986822046339512">
<ele>640.2</ele>
<time>2024-05-07T08:32:50Z</time>
</trkpt>
<trkpt lat="48.75407405197621" lon="9.986813496798275">
<ele>640.2</ele>
<time>2024-05-07T08:32:51Z</time>
</trkpt>
<trkpt lat="48.75407405197621" lon="9.98680871911347">
<ele>640.2</ele>
<time>2024-05-07T08:32:52Z</time>
</trkpt>
<trkpt lat="48.75407790765166" lon="9.986802097409964">
<ele>640.2</ele>
<time>2024-05-07T08:32:53Z</time>
</trkpt>
<trkpt lat="48.75407790765166" lon="9.986796313896775">
<ele>640.2</ele>
<time>2024-05-07T08:32:54Z</time>
</trkpt>
<trkpt lat="48.75407790765166" lon="9.986793464049695">
<ele>640.2</ele>
<time>2024-05-07T08:32:55Z</time>
</trkpt>
<trkpt lat="48.75407790765166" lon="9.986791536211967">
<ele>640.2</ele>
<time>2024-05-07T08:32:58Z</time>
</trkpt>
<trkpt lat="48.75407405197621" lon="9.98678969219327">
<ele>640.2</ele>
<time>2024-05-07T08:33:00Z</time>
</trkpt>
<trkpt lat="48.75407405197621" lon="9.98678868636489">
<ele>640.2</ele>
<time>2024-05-07T08:33:01Z</time>
</trkpt>
<trkpt lat="48.75407405197621" lon="9.986786842346191">
<ele>640.2</ele>
<time>2024-05-07T08:33:09Z</time>
</trkpt>
<trkpt lat="48.75407790765166" lon="9.986782064661384">
<ele>640.2</ele>
<time>2024-05-07T08:33:10Z</time>
</trkpt>
<trkpt lat="48.75408167950809" lon="9.986773431301115">
<ele>640.2</ele>
<time>2024-05-07T08:33:11Z</time>
</trkpt>
<trkpt lat="48.75408167950809" lon="9.986764881759882">
<ele>640.2</ele>
<time>2024-05-07T08:33:12Z</time>
</trkpt>
<trkpt lat="48.75408167950809" lon="9.986762953922153">
<ele>640.2</ele>
<time>2024-05-07T08:33:15Z</time>
</trkpt>
<trkpt lat="48.75408553518355" lon="9.986762953922153">
<ele>640.2</ele>
<time>2024-05-07T08:33:17Z</time>
</trkpt>
<trkpt lat="48.75408553518355" lon="9.986760104075074">
<ele>640.2</ele>
<time>2024-05-07T08:33:20Z</time>
</trkpt>
<trkpt lat="48.75408553518355" lon="9.986756248399615">
<ele>640.2</ele>
<time>2024-05-07T08:33:21Z</time>
</trkpt>
<trkpt lat="48.75408553518355" lon="9.986753398552535">
<ele>640.2</ele>
<time>2024-05-07T08:33:22Z</time>
</trkpt>
<trkpt lat="48.75408553518355" lon="9.98675155453384">
<ele>640.2</ele>
<time>2024-05-07T08:33:23Z</time>
</trkpt>
<trkpt lat="48.75408553518355" lon="9.986753398552535">
<ele>640.2</ele>
<time>2024-05-07T08:33:25Z</time>
</trkpt>
<trkpt lat="48.75408553518355" lon="9.98675155453384">
<ele>640.2</ele>
<time>2024-05-07T08:33:28Z</time>
</trkpt>
<trkpt lat="48.754089307039976" lon="9.986742921173573">
<ele>640.2</ele>
<time>2024-05-07T08:33:29Z</time>
</trkpt>
<trkpt lat="48.754093162715435" lon="9.986738143488765">
<ele>640.2</ele>
<time>2024-05-07T08:33:30Z</time>
</trkpt>
<trkpt lat="48.754093162715435" lon="9.986735293641686">
<ele>640.2</ele>
<time>2024-05-07T08:33:31Z</time>
</trkpt>
<trkpt lat="48.754093162715435" lon="9.986733365803955">
<ele>640.2</ele>
<time>2024-05-07T08:33:32Z</time>
</trkpt>
<trkpt lat="48.754093162715435" lon="9.98673152178526">
<ele>640.2</ele>
<time>2024-05-07T08:33:33Z</time>
</trkpt>
<trkpt lat="48.754093162715435" lon="9.986733365803955">
<ele>640.2</ele>
<time>2024-05-07T08:33:34Z</time>
</trkpt>
<trkpt lat="48.75409693457186" lon="9.98673152178526">
<ele>640.2</ele>
<time>2024-05-07T08:33:35Z</time>
</trkpt>
<trkpt lat="48.75409693457186" lon="9.98672959394753">
<ele>640.2</ele>
<time>2024-05-07T08:33:37Z</time>
</trkpt>
<trkpt lat="48.75409693457186" lon="9.98672858811915">
<ele>640.2</ele>
<time>2024-05-07T08:33:49Z</time>
</trkpt>
<trkpt lat="48.75410079024732" lon="9.986722888424993">
<ele>640.2</ele>
<time>2024-05-07T08:33:54Z</time>
</trkpt>
<trkpt lat="48.75410456210375" lon="9.986715260893106">
<ele>640.2</ele>
<time>2024-05-07T08:33:55Z</time>
</trkpt>
<trkpt lat="48.75410841777921" lon="9.986706711351871">
<ele>640.2</ele>
<time>2024-05-07T08:33:56Z</time>
</trkpt>
<trkpt lat="48.754112189635634" lon="9.986700005829334">
<ele>640.2</ele>
<time>2024-05-07T08:33:57Z</time>
</trkpt>
<trkpt lat="48.75411981716752" lon="9.9866914562881">
<ele>640.2</ele>
<time>2024-05-07T08:33:58Z</time>
</trkpt>
<trkpt lat="48.75411981716752" lon="9.986684750765562">
<ele>640.2</ele>
<time>2024-05-07T08:33:59Z</time>
</trkpt>
<trkpt lat="48.75412367284298" lon="9.986681900918484">
<ele>640.2</ele>
<time>2024-05-07T08:34:00Z</time>
</trkpt>
<trkpt lat="48.75412367284298" lon="9.986679973080754">
<ele>640.2</ele>
<time>2024-05-07T08:34:13Z</time>
</trkpt>
<trkpt lat="48.75412367284298" lon="9.986678045243025">
<ele>640.2</ele>
<time>2024-05-07T08:34:18Z</time>
</trkpt>
<trkpt lat="48.75412367284298" lon="9.986677123233676">
<ele>640.2</ele>
<time>2024-05-07T08:34:27Z</time>
</trkpt>
<trkpt lat="48.75412367284298" lon="9.986675195395948">
<ele>640.2</ele>
<time>2024-05-07T08:34:29Z</time>
</trkpt>
<trkpt lat="48.75411981716752" lon="9.986673351377249">
<ele>640.2</ele>
<time>2024-05-07T08:34:32Z</time>
</trkpt>
<trkpt lat="48.75411981716752" lon="9.98667142353952">
<ele>640.2</ele>
<time>2024-05-07T08:34:34Z</time>
</trkpt>
<trkpt lat="48.75411981716752" lon="9.98666949570179">
<ele>640.2</ele>
<time>2024-05-07T08:34:37Z</time>
</trkpt>
<trkpt lat="48.75411981716752" lon="9.98666857369244">
<ele>640.2</ele>
<time>2024-05-07T08:34:39Z</time>
</trkpt>
<trkpt lat="48.75411981716752" lon="9.986666645854712">
<ele>640.2</ele>
<time>2024-05-07T08:34:41Z</time>
</trkpt>
<trkpt lat="48.75411981716752" lon="9.986658096313477">
<ele>640.2</ele>
<time>2024-05-07T08:34:42Z</time>
</trkpt>
<trkpt lat="48.75412367284298" lon="9.986646613106132">
<ele>640.2</ele>
<time>2024-05-07T08:34:43Z</time>
</trkpt>
<trkpt lat="48.75412367284298" lon="9.98662850819528">
<ele>640.2</ele>
<time>2024-05-07T08:34:44Z</time>
</trkpt>
<trkpt lat="48.754131300374866" lon="9.986604619771242">
<ele>640.2</ele>
<time>2024-05-07T08:34:45Z</time>
</trkpt>
<trkpt lat="48.75413507223129" lon="9.986579893156886">
<ele>640.2</ele>
<time>2024-05-07T08:34:46Z</time>
</trkpt>
<trkpt lat="48.75414269976318" lon="9.98655030503869">
<ele>640.2</ele>
<time>2024-05-07T08:34:47Z</time>
</trkpt>
<trkpt lat="48.754150327295065" lon="9.986516945064068">
<ele>640.2</ele>
<time>2024-05-07T08:34:48Z</time>
</trkpt>
<trkpt lat="48.75416181050241" lon="9.986476879566908">
<ele>640.2</ele>
<time>2024-05-07T08:34:49Z</time>
</trkpt>
<trkpt lat="48.75417320989072" lon="9.986432958394287">
<ele>640.2</ele>
<time>2024-05-07T08:34:50Z</time>
</trkpt>
<trkpt lat="48.75418083742261" lon="9.986388199031351">
<ele>640.2</ele>
<time>2024-05-07T08:34:51Z</time>
</trkpt>
<trkpt lat="48.754192320629954" lon="9.986341428011656">
<ele>640.2</ele>
<time>2024-05-07T08:34:52Z</time>
</trkpt>
<trkpt lat="48.75420372001827" lon="9.986298512667418">
<ele>640.2</ele>
<time>2024-05-07T08:34:53Z</time>
</trkpt>
<trkpt lat="48.75421520322561" lon="9.986256519332528">
<ele>640.2</ele>
<time>2024-05-07T08:34:54Z</time>
</trkpt>
<trkpt lat="48.754226602613926" lon="9.98621360398829">
<ele>640.2</ele>
<time>2024-05-07T08:34:55Z</time>
</trkpt>
<trkpt lat="48.75423808582127" lon="9.98617454431951">
<ele>640.2</ele>
<time>2024-05-07T08:34:56Z</time>
</trkpt>
<trkpt lat="48.75425334088504" lon="9.986133556813002">
<ele>640.2</ele>
<time>2024-05-07T08:34:57Z</time>
</trkpt>
<trkpt lat="48.75426482409239" lon="9.986091563478112">
<ele>640.2</ele>
<time>2024-05-07T08:34:58Z</time>
</trkpt>
<trkpt lat="48.75428007915616" lon="9.986049570143225">
<ele>640.2</ele>
<time>2024-05-07T08:34:59Z</time>
</trkpt>
<trkpt lat="48.754291478544474" lon="9.986004810780289">
<ele>640.2</ele>
<time>2024-05-07T08:35:00Z</time>
</trkpt>
<trkpt lat="48.75430296175182" lon="9.98595611192286">
<ele>640.2</ele>
<time>2024-05-07T08:35:01Z</time>
</trkpt>
<trkpt lat="48.75431821681559" lon="9.985913196578622">
<ele>640.2</ele>
<time>2024-05-07T08:35:02Z</time>
</trkpt>
<trkpt lat="48.754329616203904" lon="9.985871287062764">
<ele>640.2</ele>
<time>2024-05-07T08:35:03Z</time>
</trkpt>
<trkpt lat="48.75434487126768" lon="9.985831221565604">
<ele>640.2</ele>
<time>2024-05-07T08:35:04Z</time>
</trkpt>
<trkpt lat="48.75435635447502" lon="9.985793083906174">
<ele>640.2</ele>
<time>2024-05-07T08:35:05Z</time>
</trkpt>
<trkpt lat="48.754371609538794" lon="9.985752096399665">
<ele>640.2</ele>
<time>2024-05-07T08:35:06Z</time>
</trkpt>
<trkpt lat="48.754386864602566" lon="9.985708175227046">
<ele>640.2</ele>
<time>2024-05-07T08:35:07Z</time>
</trkpt>
<trkpt lat="48.7544059753418" lon="9.985666265711188">
<ele>640.2</ele>
<time>2024-05-07T08:35:08Z</time>
</trkpt>
<trkpt lat="48.75442123040557" lon="9.98562335036695">
<ele>640.2</ele>
<time>2024-05-07T08:35:09Z</time>
</trkpt>
<trkpt lat="48.75444025732577" lon="9.985580435022712">
<ele>640.2</ele>
<time>2024-05-07T08:35:10Z</time>
</trkpt>
<trkpt lat="48.75445551238954" lon="9.985536513850093">
<ele>640.2</ele>
<time>2024-05-07T08:35:11Z</time>
</trkpt>
<trkpt lat="48.75447462312877" lon="9.985494604334235">
<ele>640.2</ele>
<time>2024-05-07T08:35:12Z</time>
</trkpt>
<trkpt lat="48.754489878192544" lon="9.985453533008696">
<ele>640.2</ele>
<time>2024-05-07T08:35:13Z</time>
</trkpt>
<trkpt lat="48.75450890511274" lon="9.985409695655107">
<ele>640.2</ele>
<time>2024-05-07T08:35:14Z</time>
</trkpt>
<trkpt lat="48.754528015851974" lon="9.98536678031087">
<ele>640.4</ele>
<time>2024-05-07T08:35:15Z</time>
</trkpt>
<trkpt lat="48.75454327091575" lon="9.985322942957282">
<ele>640.4</ele>
<time>2024-05-07T08:35:16Z</time>
</trkpt>
<trkpt lat="48.754562297835946" lon="9.985278099775314">
<ele>640.6</ele>
<time>2024-05-07T08:35:17Z</time>
</trkpt>
<trkpt lat="48.75458140857518" lon="9.985235184431076">
<ele>640.6</ele>
<time>2024-05-07T08:35:18Z</time>
</trkpt>
<trkpt lat="48.75459666363895" lon="9.985193191096188">
<ele>640.8</ele>
<time>2024-05-07T08:35:19Z</time>
</trkpt>
<trkpt lat="48.75461577437818" lon="9.985151281580327">
<ele>641</ele>
<time>2024-05-07T08:35:20Z</time>
</trkpt>
<trkpt lat="48.75463480129838" lon="9.985110210254788">
<ele>641.2</ele>
<time>2024-05-07T08:35:21Z</time>
</trkpt>
<trkpt lat="48.75465768389404" lon="9.9850663729012">
<ele>641.4</ele>
<time>2024-05-07T08:35:22Z</time>
</trkpt>
<trkpt lat="48.75467679463327" lon="9.985025385394692">
<ele>641.6</ele>
<time>2024-05-07T08:35:23Z</time>
</trkpt>
<trkpt lat="48.75469967722893" lon="9.984985319897532">
<ele>641.8</ele>
<time>2024-05-07T08:35:24Z</time>
</trkpt>
<trkpt lat="48.75471870414913" lon="9.984945254400373">
<ele>642</ele>
<time>2024-05-07T08:35:25Z</time>
</trkpt>
<trkpt lat="48.754741586744785" lon="9.984907116740942">
<ele>642.2</ele>
<time>2024-05-07T08:35:26Z</time>
</trkpt>
<trkpt lat="48.754760697484016" lon="9.984867973253133">
<ele>642.2</ele>
<time>2024-05-07T08:35:27Z</time>
</trkpt>
<trkpt lat="48.754783580079675" lon="9.9848298355937">
<ele>642.4</ele>
<time>2024-05-07T08:35:28Z</time>
</trkpt>
<trkpt lat="48.754802690818906" lon="9.98479169793427">
<ele>642.6</ele>
<time>2024-05-07T08:35:29Z</time>
</trkpt>
<trkpt lat="48.75482557341456" lon="9.98475163243711">
<ele>642.8</ele>
<time>2024-05-07T08:35:30Z</time>
</trkpt>
<trkpt lat="48.75484845601022" lon="9.98471349477768">
<ele>643</ele>
<time>2024-05-07T08:35:31Z</time>
</trkpt>
<trkpt lat="48.75487133860588" lon="9.984678206965327">
<ele>643.2</ele>
<time>2024-05-07T08:35:32Z</time>
</trkpt>
<trkpt lat="48.75489422120154" lon="9.984646774828434">
<ele>643.2</ele>
<time>2024-05-07T08:35:33Z</time>
</trkpt>
<trkpt lat="48.75491324812174" lon="9.984611487016082">
<ele>643.4</ele>
<time>2024-05-07T08:35:34Z</time>
</trkpt>
<trkpt lat="48.75493621453643" lon="9.984575193375347">
<ele>643.4</ele>
<time>2024-05-07T08:35:35Z</time>
</trkpt>
<trkpt lat="48.75495909713209" lon="9.9845380615443">
<ele>643.6</ele>
<time>2024-05-07T08:35:36Z</time>
</trkpt>
<trkpt lat="48.754981979727745" lon="9.984503695741296">
<ele>643.6</ele>
<time>2024-05-07T08:35:37Z</time>
</trkpt>
<trkpt lat="48.7550048623234" lon="9.984470335766671">
<ele>643.6</ele>
<time>2024-05-07T08:35:38Z</time>
</trkpt>
<trkpt lat="48.75502774491906" lon="9.98443697579205">
<ele>643.8</ele>
<time>2024-05-07T08:35:39Z</time>
</trkpt>
<trkpt lat="48.75505062751472" lon="9.984401687979698">
<ele>643.8</ele>
<time>2024-05-07T08:35:40Z</time>
</trkpt>
<trkpt lat="48.75506965443492" lon="9.984366400167346">
<ele>644</ele>
<time>2024-05-07T08:35:41Z</time>
</trkpt>
<trkpt lat="48.75508490949869" lon="9.984330106526611">
<ele>644.2</ele>
<time>2024-05-07T08:35:42Z</time>
</trkpt>
<trkpt lat="48.75510787591338" lon="9.98429867438972">
<ele>644.2</ele>
<time>2024-05-07T08:35:43Z</time>
</trkpt>
<trkpt lat="48.755123130977154" lon="9.984266236424446">
<ele>644.4</ele>
<time>2024-05-07T08:35:44Z</time>
</trkpt>
<trkpt lat="48.75514215789735" lon="9.984234804287553">
<ele>644.4</ele>
<time>2024-05-07T08:35:45Z</time>
</trkpt>
<trkpt lat="48.75516504049301" lon="9.98419851064682">
<ele>644.4</ele>
<time>2024-05-07T08:35:46Z</time>
</trkpt>
<trkpt lat="48.75518415123224" lon="9.984161294996738">
<ele>644.6</ele>
<time>2024-05-07T08:35:47Z</time>
</trkpt>
<trkpt lat="48.7552070338279" lon="9.98412131331861">
<ele>644.6</ele>
<time>2024-05-07T08:35:48Z</time>
</trkpt>
<trkpt lat="48.755233688279986" lon="9.98408124782145">
<ele>644.6</ele>
<time>2024-05-07T08:35:49Z</time>
</trkpt>
<trkpt lat="48.755256570875645" lon="9.98404118232429">
<ele>644.8</ele>
<time>2024-05-07T08:35:50Z</time>
</trkpt>
<trkpt lat="48.75527568161488" lon="9.98400203883648">
<ele>645</ele>
<time>2024-05-07T08:35:51Z</time>
</trkpt>
<trkpt lat="48.75529479235411" lon="9.983956273645164">
<ele>645</ele>
<time>2024-05-07T08:35:52Z</time>
</trkpt>
<trkpt lat="48.755317674949765" lon="9.983911514282228">
<ele>645.2</ele>
<time>2024-05-07T08:35:53Z</time>
</trkpt>
<trkpt lat="48.755336701869965" lon="9.983868598937988">
<ele>645.4</ele>
<time>2024-05-07T08:35:54Z</time>
</trkpt>
<trkpt lat="48.75535958446562" lon="9.983828533440828">
<ele>645.6</ele>
<time>2024-05-07T08:35:55Z</time>
</trkpt>
<trkpt lat="48.755378695204854" lon="9.98378654010594">
<ele>645.8</ele>
<time>2024-05-07T08:35:56Z</time>
</trkpt>
<trkpt lat="48.75540157780051" lon="9.98374454677105">
<ele>646</ele>
<time>2024-05-07T08:35:57Z</time>
</trkpt>
<trkpt lat="48.75542060472071" lon="9.983699787408112">
<ele>646.2</ele>
<time>2024-05-07T08:35:58Z</time>
</trkpt>
<trkpt lat="48.75543971545994" lon="9.983654944226146">
<ele>646.4</ele>
<time>2024-05-07T08:35:59Z</time>
</trkpt>
<trkpt lat="48.755458826199174" lon="9.983612950891256">
<ele>646.6</ele>
<time>2024-05-07T08:36:00Z</time>
</trkpt>
<trkpt lat="48.75547785311937" lon="9.983570035547018">
<ele>646.6</ele>
<time>2024-05-07T08:36:01Z</time>
</trkpt>
<trkpt lat="48.75549696385861" lon="9.98352812603116">
<ele>646.8</ele>
<time>2024-05-07T08:36:02Z</time>
</trkpt>
<trkpt lat="48.7555159907788" lon="9.983485210686922">
<ele>646.8</ele>
<time>2024-05-07T08:36:03Z</time>
</trkpt>
<trkpt lat="48.755531245842576" lon="9.983440367504954">
<ele>647</ele>
<time>2024-05-07T08:36:04Z</time>
</trkpt>
<trkpt lat="48.75554650090635" lon="9.983393596485255">
<ele>647.2</ele>
<time>2024-05-07T08:36:05Z</time>
</trkpt>
<trkpt lat="48.75556561164558" lon="9.983346909284592">
<ele>647.2</ele>
<time>2024-05-07T08:36:06Z</time>
</trkpt>
<trkpt lat="48.75558086670935" lon="9.983298294246197">
<ele>647.4</ele>
<time>2024-05-07T08:36:07Z</time>
</trkpt>
<trkpt lat="48.75559612177312" lon="9.98324959538877">
<ele>647.6</ele>
<time>2024-05-07T08:36:08Z</time>
</trkpt>
<trkpt lat="48.755615232512355" lon="9.983201902359724">
<ele>647.6</ele>
<time>2024-05-07T08:36:09Z</time>
</trkpt>
<trkpt lat="48.75563048757613" lon="9.98315328732133">
<ele>647.8</ele>
<time>2024-05-07T08:36:10Z</time>
</trkpt>
<trkpt lat="48.7556457426399" lon="9.983104672282934">
<ele>647.8</ele>
<time>2024-05-07T08:36:11Z</time>
</trkpt>
<trkpt lat="48.75566099770367" lon="9.983056979253888">
<ele>648</ele>
<time>2024-05-07T08:36:12Z</time>
</trkpt>
<trkpt lat="48.75567625276744" lon="9.983008364215491">
<ele>648</ele>
<time>2024-05-07T08:36:13Z</time>
</trkpt>
<trkpt lat="48.755691507831216" lon="9.982961593195796">
<ele>648</ele>
<time>2024-05-07T08:36:14Z</time>
</trkpt>
<trkpt lat="48.75570676289499" lon="9.982912056148052">
<ele>648.2</ele>
<time>2024-05-07T08:36:15Z</time>
</trkpt>
<trkpt lat="48.75572201795876" lon="9.982861513271928">
<ele>648.2</ele>
<time>2024-05-07T08:36:16Z</time>
</trkpt>
<trkpt lat="48.75573727302253" lon="9.982809964567425">
<ele>648.4</ele>
<time>2024-05-07T08:36:17Z</time>
</trkpt>
<trkpt lat="48.755748672410846" lon="9.98276042751968">
<ele>648.4</ele>
<time>2024-05-07T08:36:18Z</time>
</trkpt>
<trkpt lat="48.75576015561819" lon="9.982707956805823">
<ele>648.4</ele>
<time>2024-05-07T08:36:19Z</time>
</trkpt>
<trkpt lat="48.75577541068196" lon="9.982654564082624">
<ele>648.4</ele>
<time>2024-05-07T08:36:20Z</time>
</trkpt>
<trkpt lat="48.75578689388931" lon="9.982603015378118">
<ele>648.4</ele>
<time>2024-05-07T08:36:21Z</time>
</trkpt>
<trkpt lat="48.75579829327762" lon="9.982551550492644">
<ele>648.4</ele>
<time>2024-05-07T08:36:22Z</time>
</trkpt>
<trkpt lat="48.75581354834139" lon="9.98250000178814">
<ele>648.4</ele>
<time>2024-05-07T08:36:23Z</time>
</trkpt>
<trkpt lat="48.75582503154874" lon="9.982446609064937">
<ele>648.4</ele>
<time>2024-05-07T08:36:24Z</time>
</trkpt>
<trkpt lat="48.75583643093705" lon="9.982393216341734">
<ele>648.4</ele>
<time>2024-05-07T08:36:25Z</time>
</trkpt>
<trkpt lat="48.755851686000824" lon="9.982337895780802">
<ele>648.6</ele>
<time>2024-05-07T08:36:26Z</time>
</trkpt>
<trkpt lat="48.75586316920817" lon="9.982286430895329">
<ele>648.6</ele>
<time>2024-05-07T08:36:27Z</time>
</trkpt>
<trkpt lat="48.75587842427194" lon="9.982234882190824">
<ele>648.8</ele>
<time>2024-05-07T08:36:28Z</time>
</trkpt>
<trkpt lat="48.755889823660254" lon="9.98218148946762">
<ele>648.8</ele>
<time>2024-05-07T08:36:29Z</time>
</trkpt>
<trkpt lat="48.75590507872403" lon="9.982131952419875">
<ele>649</ele>
<time>2024-05-07T08:36:30Z</time>
</trkpt>
<trkpt lat="48.75591656193137" lon="9.982080403715372">
<ele>649.2</ele>
<time>2024-05-07T08:36:31Z</time>
</trkpt>
<trkpt lat="48.755927961319685" lon="9.98202701099217">
<ele>649.2</ele>
<time>2024-05-07T08:36:32Z</time>
</trkpt>
<trkpt lat="48.75593944452703" lon="9.981971690431235">
<ele>649.4</ele>
<time>2024-05-07T08:36:33Z</time>
</trkpt>
<trkpt lat="48.755950927734375" lon="9.981916369870303">
<ele>649.4</ele>
<time>2024-05-07T08:36:34Z</time>
</trkpt>
<trkpt lat="48.75596232712269" lon="9.981862055137752">
<ele>649.4</ele>
<time>2024-05-07T08:36:35Z</time>
</trkpt>
<trkpt lat="48.75597381033003" lon="9.98180673457682">
<ele>649.6</ele>
<time>2024-05-07T08:36:36Z</time>
</trkpt>
<trkpt lat="48.75598520971835" lon="9.981750408187509">
<ele>649.6</ele>
<time>2024-05-07T08:36:37Z</time>
</trkpt>
<trkpt lat="48.75599669292569" lon="9.981697015464306">
<ele>649.6</ele>
<time>2024-05-07T08:36:38Z</time>
</trkpt>
<trkpt lat="48.756011947989464" lon="9.981643622741103">
<ele>649.6</ele>
<time>2024-05-07T08:36:39Z</time>
</trkpt>
<trkpt lat="48.75602334737778" lon="9.981588302180173">
<ele>649.6</ele>
<time>2024-05-07T08:36:40Z</time>
</trkpt>
<trkpt lat="48.75603483058512" lon="9.98153298161924">
<ele>649.6</ele>
<time>2024-05-07T08:36:41Z</time>
</trkpt>
<trkpt lat="48.756050085648894" lon="9.981478666886687">
<ele>649.6</ele>
<time>2024-05-07T08:36:42Z</time>
</trkpt>
<trkpt lat="48.75606148503721" lon="9.981423346325755">
<ele>649.6</ele>
<time>2024-05-07T08:36:43Z</time>
</trkpt>
<trkpt lat="48.75607296824455" lon="9.981369953602552">
<ele>649.6</ele>
<time>2024-05-07T08:36:44Z</time>
</trkpt>
<trkpt lat="48.756084367632866" lon="9.98131463304162">
<ele>649.6</ele>
<time>2024-05-07T08:36:45Z</time>
</trkpt>
<trkpt lat="48.75609585084021" lon="9.981261240318418">
<ele>649.6</ele>
<time>2024-05-07T08:36:46Z</time>
</trkpt>
<trkpt lat="48.75610725022853" lon="9.981209691613913">
<ele>649.8</ele>
<time>2024-05-07T08:36:47Z</time>
</trkpt>
<trkpt lat="48.75611487776041" lon="9.98115629889071">
<ele>649.8</ele>
<time>2024-05-07T08:36:48Z</time>
</trkpt>
<trkpt lat="48.756126360967755" lon="9.981101984158158">
<ele>650</ele>
<time>2024-05-07T08:36:49Z</time>
</trkpt>
<trkpt lat="48.75613398849964" lon="9.981042807921767">
<ele>650.2</ele>
<time>2024-05-07T08:36:50Z</time>
</trkpt>
<trkpt lat="48.756145471706986" lon="9.980986565351486">
<ele>650.2</ele>
<time>2024-05-07T08:36:51Z</time>
</trkpt>
<trkpt lat="48.75615309923887" lon="9.980930322781203">
<ele>650.4</ele>
<time>2024-05-07T08:36:52Z</time>
</trkpt>
<trkpt lat="48.75616072677076" lon="9.980870224535463">
<ele>650.4</ele>
<time>2024-05-07T08:36:53Z</time>
</trkpt>
<trkpt lat="48.756168354302645" lon="9.980812976136804">
<ele>650.4</ele>
<time>2024-05-07T08:36:54Z</time>
</trkpt>
<trkpt lat="48.75617212615907" lon="9.980756733566524">
<ele>650.6</ele>
<time>2024-05-07T08:36:55Z</time>
</trkpt>
<trkpt lat="48.75617598183453" lon="9.98070334084332">
<ele>650.6</ele>
<time>2024-05-07T08:36:56Z</time>
</trkpt>
<trkpt lat="48.75617975369096" lon="9.980656569823624">
<ele>650.8</ele>
<time>2024-05-07T08:36:57Z</time>
</trkpt>
<trkpt lat="48.75618360936642" lon="9.980611726641657">
<ele>650.8</ele>
<time>2024-05-07T08:36:58Z</time>
</trkpt>
<trkpt lat="48.75619500875473" lon="9.980571744963529">
<ele>650.8</ele>
<time>2024-05-07T08:36:59Z</time>
</trkpt>
<trkpt lat="48.756206491962075" lon="9.980536457151176">
<ele>650.8</ele>
<time>2024-05-07T08:37:00Z</time>
</trkpt>
<trkpt lat="48.75622174702585" lon="9.980500163510442">
<ele>650.8</ele>
<time>2024-05-07T08:37:01Z</time>
</trkpt>
<trkpt lat="48.75623314641416" lon="9.980456326156856">
<ele>650.8</ele>
<time>2024-05-07T08:37:02Z</time>
</trkpt>
<trkpt lat="48.75624840147793" lon="9.98040670529008">
<ele>650.8</ele>
<time>2024-05-07T08:37:03Z</time>
</trkpt>
<trkpt lat="48.756263656541705" lon="9.980358090251684">
<ele>651</ele>
<time>2024-05-07T08:37:04Z</time>
</trkpt>
<trkpt lat="48.75627513974905" lon="9.980311319231989">
<ele>651</ele>
<time>2024-05-07T08:37:05Z</time>
</trkpt>
<trkpt lat="48.75628653913736" lon="9.980264632031322">
<ele>651</ele>
<time>2024-05-07T08:37:06Z</time>
</trkpt>
<trkpt lat="48.75629802234471" lon="9.980216939002275">
<ele>651.2</ele>
<time>2024-05-07T08:37:07Z</time>
</trkpt>
<trkpt lat="48.756305649876595" lon="9.980170167982578">
<ele>651.2</ele>
<time>2024-05-07T08:37:08Z</time>
</trkpt>
<trkpt lat="48.75631327740848" lon="9.980123480781913">
<ele>651.4</ele>
<time>2024-05-07T08:37:09Z</time>
</trkpt>
<trkpt lat="48.756324760615826" lon="9.980078637599943">
<ele>651.4</ele>
<time>2024-05-07T08:37:10Z</time>
</trkpt>
<trkpt lat="48.75633616000414" lon="9.98003195039928">
<ele>651.6</ele>
<time>2024-05-07T08:37:11Z</time>
</trkpt>
<trkpt lat="48.756343787536025" lon="9.979980401694776">
<ele>651.6</ele>
<time>2024-05-07T08:37:12Z</time>
</trkpt>
<trkpt lat="48.75635527074337" lon="9.97992985881865">
<ele>651.8</ele>
<time>2024-05-07T08:37:13Z</time>
</trkpt>
<trkpt lat="48.75636667013168" lon="9.979878393933175">
<ele>651.8</ele>
<time>2024-05-07T08:37:14Z</time>
</trkpt>
<trkpt lat="48.75637429766357" lon="9.979827851057053">
<ele>651.8</ele>
<time>2024-05-07T08:37:15Z</time>
</trkpt>
<trkpt lat="48.756381925195456" lon="9.979776302352548">
<ele>651.8</ele>
<time>2024-05-07T08:37:16Z</time>
</trkpt>
<trkpt lat="48.7563934084028" lon="9.979728693142532">
<ele>652</ele>
<time>2024-05-07T08:37:17Z</time>
</trkpt>
<trkpt lat="48.75640103593469" lon="9.979682844132183">
<ele>652.2</ele>
<time>2024-05-07T08:37:18Z</time>
</trkpt>
<trkpt lat="48.75640866346657" lon="9.979638084769247">
<ele>652.2</ele>
<time>2024-05-07T08:37:19Z</time>
</trkpt>
<trkpt lat="48.75641629099846" lon="9.979591313749552">
<ele>652.4</ele>
<time>2024-05-07T08:37:20Z</time>
</trkpt>
<trkpt lat="48.756420062854886" lon="9.979543620720506">
<ele>652.6</ele>
<time>2024-05-07T08:37:21Z</time>
</trkpt>
<trkpt lat="48.75642769038677" lon="9.97949307784438">
<ele>652.8</ele>
<time>2024-05-07T08:37:22Z</time>
</trkpt>
<trkpt lat="48.75643154606223" lon="9.979446390643716">
<ele>653</ele>
<time>2024-05-07T08:37:23Z</time>
</trkpt>
<trkpt lat="48.75643917359412" lon="9.97939961962402">
<ele>653.2</ele>
<time>2024-05-07T08:37:24Z</time>
</trkpt>
<trkpt lat="48.756446801126" lon="9.979351926594973">
<ele>653.6</ele>
<time>2024-05-07T08:37:25Z</time>
</trkpt>
<trkpt lat="48.75645442865789" lon="9.979305239394307">
<ele>654</ele>
<time>2024-05-07T08:37:26Z</time>
</trkpt>
<trkpt lat="48.756462056189775" lon="9.97925846837461">
<ele>654.2</ele>
<time>2024-05-07T08:37:27Z</time>
</trkpt>
<trkpt lat="48.75646968372166" lon="9.97921840287745">
<ele>654.4</ele>
<time>2024-05-07T08:37:28Z</time>
</trkpt>
<trkpt lat="48.75647731125355" lon="9.979176493361592">
<ele>654.8</ele>
<time>2024-05-07T08:37:29Z</time>
</trkpt>
<trkpt lat="48.75648116692901" lon="9.979131650179625">
<ele>655</ele>
<time>2024-05-07T08:37:30Z</time>
</trkpt>
<trkpt lat="48.756484938785434" lon="9.979087812826036">
<ele>655.2</ele>
<time>2024-05-07T08:37:31Z</time>
</trkpt>
<trkpt lat="48.756484938785434" lon="9.979040119796991">
<ele>655.4</ele>
<time>2024-05-07T08:37:32Z</time>
</trkpt>
<trkpt lat="48.75648116692901" lon="9.978989576920869">
<ele>655.6</ele>
<time>2024-05-07T08:37:33Z</time>
</trkpt>
<trkpt lat="48.75647731125355" lon="9.978938028216362">
<ele>655.8</ele>
<time>2024-05-07T08:37:34Z</time>
</trkpt>
<trkpt lat="48.75647353939712" lon="9.978886563330889">
<ele>656</ele>
<time>2024-05-07T08:37:35Z</time>
</trkpt>
<trkpt lat="48.756465911865234" lon="9.978833170607686">
<ele>656.2</ele>
<time>2024-05-07T08:37:36Z</time>
</trkpt>
<trkpt lat="48.756462056189775" lon="9.97878162190318">
<ele>656.2</ele>
<time>2024-05-07T08:37:37Z</time>
</trkpt>
<trkpt lat="48.75645820051432" lon="9.978730157017708">
<ele>656.4</ele>
<time>2024-05-07T08:37:38Z</time>
</trkpt>
<trkpt lat="48.756446801126" lon="9.978679614141583">
<ele>656.4</ele>
<time>2024-05-07T08:37:39Z</time>
</trkpt>
<trkpt lat="48.75643917359412" lon="9.978623371571302">
<ele>656.6</ele>
<time>2024-05-07T08:37:40Z</time>
</trkpt>
<trkpt lat="48.75643154606223" lon="9.97856805101037">
<ele>656.6</ele>
<time>2024-05-07T08:37:41Z</time>
</trkpt>
<trkpt lat="48.75643154606223" lon="9.978514658287168">
<ele>656.6</ele>
<time>2024-05-07T08:37:42Z</time>
</trkpt>
<trkpt lat="48.75642769038677" lon="9.978460259735584">
<ele>656.6</ele>
<time>2024-05-07T08:37:43Z</time>
</trkpt>
<trkpt lat="48.75642769038677" lon="9.97841164469719">
<ele>656.6</ele>
<time>2024-05-07T08:37:44Z</time>
</trkpt>
<trkpt lat="48.756420062854886" lon="9.978356324136255">
<ele>656.6</ele>
<time>2024-05-07T08:37:45Z</time>
</trkpt>
<trkpt lat="48.756420062854886" lon="9.978301925584674">
<ele>656.8</ele>
<time>2024-05-07T08:37:46Z</time>
</trkpt>
<trkpt lat="48.756412435323" lon="9.978248532861471">
<ele>656.8</ele>
<time>2024-05-07T08:37:47Z</time>
</trkpt>
<trkpt lat="48.75640866346657" lon="9.978195140138268">
<ele>657</ele>
<time>2024-05-07T08:37:48Z</time>
</trkpt>
<trkpt lat="48.756404807791114" lon="9.978136969730258">
<ele>657</ele>
<time>2024-05-07T08:37:49Z</time>
</trkpt>
<trkpt lat="48.756404807791114" lon="9.978076871484518">
<ele>657</ele>
<time>2024-05-07T08:37:50Z</time>
</trkpt>
<trkpt lat="48.756404807791114" lon="9.978018701076508">
<ele>657</ele>
<time>2024-05-07T08:37:51Z</time>
</trkpt>
<trkpt lat="48.756404807791114" lon="9.977959608659148">
<ele>657.2</ele>
<time>2024-05-07T08:37:52Z</time>
</trkpt>
<trkpt lat="48.75640103593469" lon="9.977901438251138">
<ele>657.2</ele>
<time>2024-05-07T08:37:53Z</time>
</trkpt>
<trkpt lat="48.756404807791114" lon="9.97783849015832">
<ele>657.4</ele>
<time>2024-05-07T08:37:54Z</time>
</trkpt>
<trkpt lat="48.756404807791114" lon="9.977774620056152">
<ele>657.4</ele>
<time>2024-05-07T08:37:55Z</time>
</trkpt>
<trkpt lat="48.75640103593469" lon="9.977713515982032">
<ele>657.4</ele>
<time>2024-05-07T08:37:56Z</time>
</trkpt>
<trkpt lat="48.75639718025923" lon="9.97765534557402">
<ele>657.4</ele>
<time>2024-05-07T08:37:57Z</time>
</trkpt>
<trkpt lat="48.75639718025923" lon="9.97759524732828">
<ele>657.6</ele>
<time>2024-05-07T08:37:58Z</time>
</trkpt>
<trkpt lat="48.7563934084028" lon="9.977535232901571">
<ele>657.6</ele>
<time>2024-05-07T08:37:59Z</time>
</trkpt>
<trkpt lat="48.7563934084028" lon="9.977477062493564">
<ele>657.6</ele>
<time>2024-05-07T08:38:00Z</time>
</trkpt>
<trkpt lat="48.75638955272734" lon="9.9774198140949">
<ele>657.6</ele>
<time>2024-05-07T08:38:01Z</time>
</trkpt>
<trkpt lat="48.75638955272734" lon="9.97736357152462">
<ele>657.6</ele>
<time>2024-05-07T08:38:02Z</time>
</trkpt>
<trkpt lat="48.756385780870914" lon="9.977306323125958">
<ele>657.6</ele>
<time>2024-05-07T08:38:03Z</time>
</trkpt>
<trkpt lat="48.756385780870914" lon="9.977250080555676">
<ele>657.6</ele>
<time>2024-05-07T08:38:04Z</time>
</trkpt>
<trkpt lat="48.756385780870914" lon="9.977193754166365">
<ele>657.6</ele>
<time>2024-05-07T08:38:05Z</time>
</trkpt>
<trkpt lat="48.756385780870914" lon="9.977136589586737">
<ele>657.6</ele>
<time>2024-05-07T08:38:06Z</time>
</trkpt>
<trkpt lat="48.756385780870914" lon="9.977081269025804">
<ele>657.4</ele>
<time>2024-05-07T08:38:07Z</time>
</trkpt>
<trkpt lat="48.756385780870914" lon="9.977025026455522">
<ele>657.4</ele>
<time>2024-05-07T08:38:08Z</time>
</trkpt>
<trkpt lat="48.756385780870914" lon="9.976966856047513">
<ele>657.4</ele>
<time>2024-05-07T08:38:09Z</time>
</trkpt>
<trkpt lat="48.756381925195456" lon="9.97690960764885">
<ele>657.4</ele>
<time>2024-05-07T08:38:10Z</time>
</trkpt>
<trkpt lat="48.756381925195456" lon="9.97685143724084">
<ele>657.4</ele>
<time>2024-05-07T08:38:11Z</time>
</trkpt>
<trkpt lat="48.756381925195456" lon="9.976793266832829">
<ele>657.6</ele>
<time>2024-05-07T08:38:12Z</time>
</trkpt>
<trkpt lat="48.756381925195456" lon="9.976736940443516">
<ele>657.6</ele>
<time>2024-05-07T08:38:13Z</time>
</trkpt>
<trkpt lat="48.756381925195456" lon="9.976677848026156">
<ele>657.6</ele>
<time>2024-05-07T08:38:14Z</time>
</trkpt>
<trkpt lat="48.756381925195456" lon="9.976623533293605">
<ele>657.8</ele>
<time>2024-05-07T08:38:15Z</time>
</trkpt>
<trkpt lat="48.756381925195456" lon="9.976566284894943">
<ele>657.6</ele>
<time>2024-05-07T08:38:16Z</time>
</trkpt>
<trkpt lat="48.75637815333903" lon="9.976510042324662">
<ele>657.6</ele>
<time>2024-05-07T08:38:17Z</time>
</trkpt>
<trkpt lat="48.75637815333903" lon="9.97645371593535">
<ele>657.8</ele>
<time>2024-05-07T08:38:18Z</time>
</trkpt>
<trkpt lat="48.756381925195456" lon="9.97639462351799">
<ele>657.8</ele>
<time>2024-05-07T08:38:19Z</time>
</trkpt>
<trkpt lat="48.756385780870914" lon="9.97633645310998">
<ele>657.6</ele>
<time>2024-05-07T08:38:20Z</time>
</trkpt>
<trkpt lat="48.756385780870914" lon="9.97627828270197">
<ele>657.6</ele>
<time>2024-05-07T08:38:21Z</time>
</trkpt>
<trkpt lat="48.75638955272734" lon="9.976221956312656">
<ele>657.6</ele>
<time>2024-05-07T08:38:22Z</time>
</trkpt>
<trkpt lat="48.75638955272734" lon="9.976164791733028">
<ele>657.6</ele>
<time>2024-05-07T08:38:23Z</time>
</trkpt>
<trkpt lat="48.7563934084028" lon="9.976110393181443">
<ele>657.6</ele>
<time>2024-05-07T08:38:24Z</time>
</trkpt>
<trkpt lat="48.7563934084028" lon="9.976055072620513">
<ele>657.6</ele>
<time>2024-05-07T08:38:25Z</time>
</trkpt>
<trkpt lat="48.75639718025923" lon="9.97599975205958">
<ele>657.6</ele>
<time>2024-05-07T08:38:26Z</time>
</trkpt>
<trkpt lat="48.75639718025923" lon="9.975944515317678">
<ele>657.4</ele>
<time>2024-05-07T08:38:27Z</time>
</trkpt>
<trkpt lat="48.75640103593469" lon="9.975892044603825">
<ele>657.4</ele>
<time>2024-05-07T08:38:28Z</time>
</trkpt>
<trkpt lat="48.756404807791114" lon="9.975836724042892">
<ele>657.6</ele>
<time>2024-05-07T08:38:29Z</time>
</trkpt>
<trkpt lat="48.75640866346657" lon="9.97578333131969">
<ele>657.6</ele>
<time>2024-05-07T08:38:30Z</time>
</trkpt>
<trkpt lat="48.75641629099846" lon="9.975729938596489">
<ele>657.8</ele>
<time>2024-05-07T08:38:31Z</time>
</trkpt>
<trkpt lat="48.756420062854886" lon="9.975676462054253">
<ele>658</ele>
<time>2024-05-07T08:38:32Z</time>
</trkpt>
<trkpt lat="48.756423918530345" lon="9.97562499716878">
<ele>658.2</ele>
<time>2024-05-07T08:38:33Z</time>
</trkpt>
<trkpt lat="48.75643154606223" lon="9.975574454292657">
<ele>658.2</ele>
<time>2024-05-07T08:38:34Z</time>
</trkpt>
<trkpt lat="48.75643917359412" lon="9.975526761263607">
<ele>658.4</ele>
<time>2024-05-07T08:38:35Z</time>
</trkpt>
<trkpt lat="48.756446801126" lon="9.975476218387485">
<ele>658.6</ele>
<time>2024-05-07T08:38:36Z</time>
</trkpt>
<trkpt lat="48.75645820051432" lon="9.975428525358438">
<ele>658.6</ele>
<time>2024-05-07T08:38:37Z</time>
</trkpt>
<trkpt lat="48.756465911865234" lon="9.975379910320044">
<ele>658.8</ele>
<time>2024-05-07T08:38:38Z</time>
</trkpt>
<trkpt lat="48.75648116692901" lon="9.975333139300346">
<ele>658.8</ele>
<time>2024-05-07T08:38:39Z</time>
</trkpt>
<trkpt lat="48.75649642199278" lon="9.975290223956108">
<ele>658.8</ele>
<time>2024-05-07T08:38:40Z</time>
</trkpt>
<trkpt lat="48.75651167705655" lon="9.97524831444025">
<ele>659</ele>
<time>2024-05-07T08:38:41Z</time>
</trkpt>
<trkpt lat="48.75653070397675" lon="9.975203471258284">
<ele>658.8</ele>
<time>2024-05-07T08:38:42Z</time>
</trkpt>
<trkpt lat="48.75654981471598" lon="9.975161477923391">
<ele>658.8</ele>
<time>2024-05-07T08:38:43Z</time>
</trkpt>
<trkpt lat="48.75656884163618" lon="9.975123340263965">
<ele>658.8</ele>
<time>2024-05-07T08:38:44Z</time>
</trkpt>
<trkpt lat="48.75659172423184" lon="9.975083274766805">
<ele>658.8</ele>
<time>2024-05-07T08:38:45Z</time>
</trkpt>
<trkpt lat="48.7566146068275" lon="9.975043293088676">
<ele>659</ele>
<time>2024-05-07T08:38:46Z</time>
</trkpt>
<trkpt lat="48.75663757324219" lon="9.975005071610212">
<ele>659</ele>
<time>2024-05-07T08:38:47Z</time>
</trkpt>
<trkpt lat="48.75665660016239" lon="9.974967939779162">
<ele>659</ele>
<time>2024-05-07T08:38:48Z</time>
</trkpt>
<trkpt lat="48.756679482758045" lon="9.97493357397616">
<ele>659.2</ele>
<time>2024-05-07T08:38:49Z</time>
</trkpt>
<trkpt lat="48.7567023653537" lon="9.974898286163809">
<ele>659.2</ele>
<time>2024-05-07T08:38:50Z</time>
</trkpt>
<trkpt lat="48.756721476092935" lon="9.974864926189184">
<ele>659.2</ele>
<time>2024-05-07T08:38:51Z</time>
</trkpt>
<trkpt lat="48.75673673115671" lon="9.97483634389937">
<ele>659.4</ele>
<time>2024-05-07T08:38:52Z</time>
</trkpt>
<trkpt lat="48.75675198622048" lon="9.974809605628252">
<ele>659.4</ele>
<time>2024-05-07T08:38:53Z</time>
</trkpt>
<trkpt lat="48.75676338560879" lon="9.974781945347786">
<ele>659.4</ele>
<time>2024-05-07T08:38:54Z</time>
</trkpt>
<trkpt lat="48.756778640672565" lon="9.974751435220242">
<ele>659.4</ele>
<time>2024-05-07T08:38:55Z</time>
</trkpt>
<trkpt lat="48.75679389573634" lon="9.974731402471662">
<ele>659.6</ele>
<time>2024-05-07T08:38:56Z</time>
</trkpt>
<trkpt lat="48.75680923461914" lon="9.97471614740789">
<ele>659.6</ele>
<time>2024-05-07T08:38:57Z</time>
</trkpt>
<trkpt lat="48.75682448968291" lon="9.974711369723082">
<ele>659.8</ele>
<time>2024-05-07T08:38:58Z</time>
</trkpt>
<trkpt lat="48.756839744746685" lon="9.97471522539854">
<ele>660</ele>
<time>2024-05-07T08:38:59Z</time>
</trkpt>
<trkpt lat="48.756851144135" lon="9.974721847102046">
<ele>660</ele>
<time>2024-05-07T08:39:00Z</time>
</trkpt>
<trkpt lat="48.75686639919877" lon="9.974726624786854">
<ele>660.2</ele>
<time>2024-05-07T08:39:01Z</time>
</trkpt>
<trkpt lat="48.756877882406116" lon="9.974733330309393">
<ele>660.2</ele>
<time>2024-05-07T08:39:02Z</time>
</trkpt>
<trkpt lat="48.75689313746989" lon="9.974746657535434">
<ele>660.4</ele>
<time>2024-05-07T08:39:03Z</time>
</trkpt>
<trkpt lat="48.756916020065546" lon="9.974762834608557">
<ele>660.6</ele>
<time>2024-05-07T08:39:04Z</time>
</trkpt>
<trkpt lat="48.75694653019309" lon="9.97475814074278">
<ele>660.6</ele>
<time>2024-05-07T08:39:05Z</time>
</trkpt>
<trkpt lat="48.756973184645176" lon="9.974749507382512">
<ele>660.8</ele>
<time>2024-05-07T08:39:06Z</time>
</trkpt>
<trkpt lat="48.75698852352798" lon="9.974731402471662">
<ele>660.8</ele>
<time>2024-05-07T08:39:07Z</time>
</trkpt>
<trkpt lat="48.75700377859175" lon="9.974702820181848">
<ele>660.8</ele>
<time>2024-05-07T08:39:08Z</time>
</trkpt>
<trkpt lat="48.75701903365552" lon="9.974671304225922">
<ele>661</ele>
<time>2024-05-07T08:39:09Z</time>
</trkpt>
<trkpt lat="48.75703806057573" lon="9.974646493792534">
<ele>661</ele>
<time>2024-05-07T08:39:10Z</time>
</trkpt>
<trkpt lat="48.75704568810761" lon="9.97461698949337">
<ele>661</ele>
<time>2024-05-07T08:39:11Z</time>
</trkpt>
<trkpt lat="48.757057171314955" lon="9.974584551528096">
<ele>660.8</ele>
<time>2024-05-07T08:39:12Z</time>
</trkpt>
<trkpt lat="48.75707242637873" lon="9.974553035572171">
<ele>661</ele>
<time>2024-05-07T08:39:13Z</time>
</trkpt>
<trkpt lat="48.75708005391061" lon="9.97451489791274">
<ele>661</ele>
<time>2024-05-07T08:39:14Z</time>
</trkpt>
<trkpt lat="48.757091453298926" lon="9.97447868809104">
<ele>661</ele>
<time>2024-05-07T08:39:15Z</time>
</trkpt>
<trkpt lat="48.7571067083627" lon="9.97443862259388">
<ele>661</ele>
<time>2024-05-07T08:39:16Z</time>
</trkpt>
<trkpt lat="48.75712196342647" lon="9.9743995629251">
<ele>661.2</ele>
<time>2024-05-07T08:39:17Z</time>
</trkpt>
<trkpt lat="48.75713721849024" lon="9.97435949742794">
<ele>661.4</ele>
<time>2024-05-07T08:39:18Z</time>
</trkpt>
<trkpt lat="48.75716018490493" lon="9.9743184261024">
<ele>661.6</ele>
<time>2024-05-07T08:39:19Z</time>
</trkpt>
<trkpt lat="48.75718306750059" lon="9.97428129427135">
<ele>661.8</ele>
<time>2024-05-07T08:39:20Z</time>
</trkpt>
<trkpt lat="48.75720595009625" lon="9.974246928468348">
<ele>661.8</ele>
<time>2024-05-07T08:39:21Z</time>
</trkpt>
<trkpt lat="48.75722497701645" lon="9.974206862971188">
<ele>662</ele>
<time>2024-05-07T08:39:22Z</time>
</trkpt>
<trkpt lat="48.75724408775568" lon="9.974166797474028">
<ele>662</ele>
<time>2024-05-07T08:39:23Z</time>
</trkpt>
<trkpt lat="48.75726697035134" lon="9.974128659814596">
<ele>662.2</ele>
<time>2024-05-07T08:39:24Z</time>
</trkpt>
<trkpt lat="48.757289852947" lon="9.974089600145817">
<ele>662.2</ele>
<time>2024-05-07T08:39:25Z</time>
</trkpt>
<trkpt lat="48.7573088798672" lon="9.974049534648657">
<ele>662.2</ele>
<time>2024-05-07T08:39:26Z</time>
</trkpt>
<trkpt lat="48.75732421875" lon="9.974010391160846">
<ele>662.2</ele>
<time>2024-05-07T08:39:27Z</time>
</trkpt>
<trkpt lat="48.7573432456702" lon="9.973975103348494">
<ele>662.2</ele>
<time>2024-05-07T08:39:28Z</time>
</trkpt>
<trkpt lat="48.757354728877544" lon="9.97392456047237">
<ele>662.2</ele>
<time>2024-05-07T08:39:29Z</time>
</trkpt>
<trkpt lat="48.757373755797744" lon="9.973888350650668">
<ele>662.4</ele>
<time>2024-05-07T08:39:30Z</time>
</trkpt>
<trkpt lat="48.75738901086152" lon="9.973841663450004">
<ele>662.4</ele>
<time>2024-05-07T08:39:31Z</time>
</trkpt>
<trkpt lat="48.7573966383934" lon="9.97378634288907">
<ele>662.4</ele>
<time>2024-05-07T08:39:32Z</time>
</trkpt>
<trkpt lat="48.75740426592529" lon="9.973730016499758">
<ele>662.4</ele>
<time>2024-05-07T08:39:33Z</time>
</trkpt>
<trkpt lat="48.75741574913263" lon="9.973674695938826">
<ele>662.4</ele>
<time>2024-05-07T08:39:34Z</time>
</trkpt>
<trkpt lat="48.757431004196405" lon="9.973627086728811">
<ele>662.4</ele>
<time>2024-05-07T08:39:35Z</time>
</trkpt>
<trkpt lat="48.75744625926018" lon="9.973581237718465">
<ele>662.4</ele>
<time>2024-05-07T08:39:36Z</time>
</trkpt>
<trkpt lat="48.75746151432395" lon="9.97353170067072">
<ele>662.4</ele>
<time>2024-05-07T08:39:37Z</time>
</trkpt>
<trkpt lat="48.75747676938772" lon="9.973480151966214">
<ele>662.4</ele>
<time>2024-05-07T08:39:38Z</time>
</trkpt>
<trkpt lat="48.757488168776035" lon="9.97343153692782">
<ele>662.4</ele>
<time>2024-05-07T08:39:39Z</time>
</trkpt>
<trkpt lat="48.75750350765884" lon="9.973382921889424">
<ele>662.4</ele>
<time>2024-05-07T08:39:40Z</time>
</trkpt>
<trkpt lat="48.75751490704715" lon="9.973336150869727">
<ele>662.4</ele>
<time>2024-05-07T08:39:41Z</time>
</trkpt>
<trkpt lat="48.757530162110925" lon="9.973291391506791">
<ele>662.6</ele>
<time>2024-05-07T08:39:42Z</time>
</trkpt>
<trkpt lat="48.7575454171747" lon="9.973255097866058">
<ele>662.6</ele>
<time>2024-05-07T08:39:43Z</time>
</trkpt>
<trkpt lat="48.75755690038204" lon="9.973221737891436">
<ele>662.8</ele>
<time>2024-05-07T08:39:44Z</time>
</trkpt>
<trkpt lat="48.757568299770355" lon="9.973188377916811">
<ele>662.8</ele>
<time>2024-05-07T08:39:45Z</time>
</trkpt>
<trkpt lat="48.75757592730224" lon="9.973146384581923">
<ele>663</ele>
<time>2024-05-07T08:39:46Z</time>
</trkpt>
<trkpt lat="48.75759118236601" lon="9.973112102597952">
<ele>663</ele>
<time>2024-05-07T08:39:47Z</time>
</trkpt>
<trkpt lat="48.75760266557336" lon="9.9730768147856">
<ele>663</ele>
<time>2024-05-07T08:39:48Z</time>
</trkpt>
<trkpt lat="48.757606437429786" lon="9.973050076514482">
<ele>663.2</ele>
<time>2024-05-07T08:39:49Z</time>
</trkpt>
<trkpt lat="48.757606437429786" lon="9.973011938855052">
<ele>663.2</ele>
<time>2024-05-07T08:39:50Z</time>
</trkpt>
<trkpt lat="48.7575988098979" lon="9.972983356565235">
<ele>663.2</ele>
<time>2024-05-07T08:39:51Z</time>
</trkpt>
<trkpt lat="48.75759503804147" lon="9.972946140915155">
<ele>663.4</ele>
<time>2024-05-07T08:39:52Z</time>
</trkpt>
<trkpt lat="48.75759503804147" lon="9.972913702949882">
<ele>663.6</ele>
<time>2024-05-07T08:39:53Z</time>
</trkpt>
<trkpt lat="48.75760266557336" lon="9.972866931930184">
<ele>663.8</ele>
<time>2024-05-07T08:39:54Z</time>
</trkpt>
<trkpt lat="48.75761792063713" lon="9.97281831689179">
<ele>664</ele>
<time>2024-05-07T08:39:55Z</time>
</trkpt>
<trkpt lat="48.757644575089216" lon="9.972771629691124">
<ele>664.2</ele>
<time>2024-05-07T08:39:56Z</time>
</trkpt>
<trkpt lat="48.75768279656768" lon="9.972709603607656">
<ele>664.2</ele>
<time>2024-05-07T08:39:57Z</time>
</trkpt>
<trkpt lat="48.75770945101976" lon="9.972648583352566">
<ele>664.2</ele>
<time>2024-05-07T08:39:58Z</time>
</trkpt>
<trkpt lat="48.75773618929088" lon="9.972588485106826">
<ele>664.2</ele>
<time>2024-05-07T08:39:59Z</time>
</trkpt>
<trkpt lat="48.75775144435465" lon="9.97252461500466">
<ele>664.2</ele>
<time>2024-05-07T08:40:00Z</time>
</trkpt>
<trkpt lat="48.75777432695031" lon="9.97246359474957">
<ele>664.2</ele>
<time>2024-05-07T08:40:01Z</time>
</trkpt>
<trkpt lat="48.75779335387051" lon="9.972413051873446">
<ele>664.2</ele>
<time>2024-05-07T08:40:02Z</time>
</trkpt>
<trkpt lat="48.757804837077856" lon="9.972372986376286">
<ele>664.2</ele>
<time>2024-05-07T08:40:03Z</time>
</trkpt>
<trkpt lat="48.757827719673514" lon="9.972328143194318">
<ele>664</ele>
<time>2024-05-07T08:40:04Z</time>
</trkpt>
<trkpt lat="48.75783920288086" lon="9.972286149859428">
<ele>664</ele>
<time>2024-05-07T08:40:05Z</time>
</trkpt>
<trkpt lat="48.75785445794463" lon="9.9722461681813">
<ele>664</ele>
<time>2024-05-07T08:40:06Z</time>
</trkpt>
<trkpt lat="48.757865857332945" lon="9.97220509685576">
<ele>664</ele>
<time>2024-05-07T08:40:07Z</time>
</trkpt>
<trkpt lat="48.75787348486483" lon="9.972163187339902">
<ele>664</ele>
<time>2024-05-07T08:40:08Z</time>
</trkpt>
<trkpt lat="48.75787734054029" lon="9.972123121842742">
<ele>664</ele>
<time>2024-05-07T08:40:09Z</time>
</trkpt>
<trkpt lat="48.7578887399286" lon="9.972078278660774">
<ele>664</ele>
<time>2024-05-07T08:40:10Z</time>
</trkpt>
<trkpt lat="48.75789636746049" lon="9.972038213163614">
<ele>664.2</ele>
<time>2024-05-07T08:40:11Z</time>
</trkpt>
<trkpt lat="48.75791162252426" lon="9.971982892602682">
<ele>664.4</ele>
<time>2024-05-07T08:40:12Z</time>
</trkpt>
<trkpt lat="48.75793450511992" lon="9.97192857787013">
<ele>664.4</ele>
<time>2024-05-07T08:40:13Z</time>
</trkpt>
<trkpt lat="48.75795361585915" lon="9.97187040746212">
<ele>664.6</ele>
<time>2024-05-07T08:40:14Z</time>
</trkpt>
<trkpt lat="48.757965015247464" lon="9.97183034196496">
<ele>664.8</ele>
<time>2024-05-07T08:40:15Z</time>
</trkpt>
<trkpt lat="48.75796887092292" lon="9.971793126314878">
<ele>665</ele>
<time>2024-05-07T08:40:16Z</time>
</trkpt>
<trkpt lat="48.75797264277935" lon="9.971741661429403">
<ele>665.2</ele>
<time>2024-05-07T08:40:17Z</time>
</trkpt>
<trkpt lat="48.757984125986695" lon="9.971694890409708">
<ele>665.2</ele>
<time>2024-05-07T08:40:18Z</time>
</trkpt>
<trkpt lat="48.75799938105047" lon="9.971641497686504">
<ele>665.4</ele>
<time>2024-05-07T08:40:19Z</time>
</trkpt>
<trkpt lat="48.7580184917897" lon="9.97159187681973">
<ele>665.6</ele>
<time>2024-05-07T08:40:20Z</time>
</trkpt>
<trkpt lat="48.75803374685347" lon="9.971548039466144">
<ele>665.6</ele>
<time>2024-05-07T08:40:21Z</time>
</trkpt>
<trkpt lat="48.75804900191724" lon="9.97149364091456">
<ele>665.4</ele>
<time>2024-05-07T08:40:22Z</time>
</trkpt>
<trkpt lat="48.758064256981015" lon="9.971441254019735">
<ele>665.4</ele>
<time>2024-05-07T08:40:23Z</time>
</trkpt>
<trkpt lat="48.75807951204479" lon="9.97139641083777">
<ele>665.4</ele>
<time>2024-05-07T08:40:24Z</time>
</trkpt>
<trkpt lat="48.75809853896499" lon="9.971342012286186">
<ele>665.6</ele>
<time>2024-05-07T08:40:25Z</time>
</trkpt>
<trkpt lat="48.75811379402876" lon="9.971288619562984">
<ele>665.6</ele>
<time>2024-05-07T08:40:26Z</time>
</trkpt>
<trkpt lat="48.758125277236104" lon="9.971233299002051">
<ele>665.8</ele>
<time>2024-05-07T08:40:27Z</time>
</trkpt>
<trkpt lat="48.75814815983176" lon="9.97117797844112">
<ele>665.8</ele>
<time>2024-05-07T08:40:28Z</time>
</trkpt>
<trkpt lat="48.75817104242742" lon="9.971117964014413">
<ele>665.8</ele>
<time>2024-05-07T08:40:29Z</time>
</trkpt>
<trkpt lat="48.75818629749119" lon="9.971075048670173">
<ele>665.8</ele>
<time>2024-05-07T08:40:30Z</time>
</trkpt>
<trkpt lat="48.75820918008685" lon="9.971023499965668">
<ele>665.8</ele>
<time>2024-05-07T08:40:31Z</time>
</trkpt>
<trkpt lat="48.75822829082608" lon="9.970976812765002">
<ele>665.8</ele>
<time>2024-05-07T08:40:32Z</time>
</trkpt>
<trkpt lat="48.758243545889854" lon="9.970931969583036">
<ele>666</ele>
<time>2024-05-07T08:40:33Z</time>
</trkpt>
<trkpt lat="48.758262572810054" lon="9.970885198563336">
<ele>666</ele>
<time>2024-05-07T08:40:34Z</time>
</trkpt>
<trkpt lat="48.758277827873826" lon="9.9708404392004">
<ele>666</ele>
<time>2024-05-07T08:40:35Z</time>
</trkpt>
<trkpt lat="48.75829693861306" lon="9.970793668180704">
<ele>666</ele>
<time>2024-05-07T08:40:36Z</time>
</trkpt>
<trkpt lat="48.758319821208715" lon="9.970749830827115">
<ele>666.2</ele>
<time>2024-05-07T08:40:37Z</time>
</trkpt>
<trkpt lat="48.75833507627249" lon="9.970709765329955">
<ele>666.4</ele>
<time>2024-05-07T08:40:38Z</time>
</trkpt>
<trkpt lat="48.758357958868146" lon="9.970668777823448">
<ele>666.6</ele>
<time>2024-05-07T08:40:39Z</time>
</trkpt>
<trkpt lat="48.75838084146381" lon="9.970628712326288">
<ele>666.6</ele>
<time>2024-05-07T08:40:40Z</time>
</trkpt>
<trkpt lat="48.758399952203035" lon="9.970589568838475">
<ele>666.8</ele>
<time>2024-05-07T08:40:41Z</time>
</trkpt>
<trkpt lat="48.758422834798694" lon="9.970549503341315">
<ele>666.8</ele>
<time>2024-05-07T08:40:42Z</time>
</trkpt>
<trkpt lat="48.75844186171889" lon="9.970510443672538">
<ele>666.8</ele>
<time>2024-05-07T08:40:43Z</time>
</trkpt>
<trkpt lat="48.75846474431455" lon="9.970468450337648">
<ele>667</ele>
<time>2024-05-07T08:40:44Z</time>
</trkpt>
<trkpt lat="48.75848385505378" lon="9.97042654082179">
<ele>667</ele>
<time>2024-05-07T08:40:45Z</time>
</trkpt>
<trkpt lat="48.75850673764944" lon="9.970383625477552">
<ele>667</ele>
<time>2024-05-07T08:40:46Z</time>
</trkpt>
<trkpt lat="48.7585296202451" lon="9.970341632142665">
<ele>667</ele>
<time>2024-05-07T08:40:47Z</time>
</trkpt>
<trkpt lat="48.75855250284076" lon="9.970303494483232">
<ele>667.2</ele>
<time>2024-05-07T08:40:48Z</time>
</trkpt>
<trkpt lat="48.75857161357999" lon="9.97026820667088">
<ele>667.2</ele>
<time>2024-05-07T08:40:49Z</time>
</trkpt>
<trkpt lat="48.758598268032074" lon="9.97022814117372">
<ele>667.2</ele>
<time>2024-05-07T08:40:50Z</time>
</trkpt>
<trkpt lat="48.75862115062773" lon="9.97018807567656">
<ele>667.2</ele>
<time>2024-05-07T08:40:51Z</time>
</trkpt>
<trkpt lat="48.75864403322339" lon="9.97014993801713">
<ele>667.2</ele>
<time>2024-05-07T08:40:52Z</time>
</trkpt>
<trkpt lat="48.75866314396262" lon="9.970113728195429">
<ele>667.4</ele>
<time>2024-05-07T08:40:53Z</time>
</trkpt>
<trkpt lat="48.75868602655828" lon="9.970078440383077">
<ele>667.4</ele>
<time>2024-05-07T08:40:54Z</time>
</trkpt>
<trkpt lat="48.75870513729751" lon="9.970043152570724">
<ele>667.4</ele>
<time>2024-05-07T08:40:55Z</time>
</trkpt>
<trkpt lat="48.7587317917496" lon="9.9700116366148">
<ele>667.4</ele>
<time>2024-05-07T08:40:56Z</time>
</trkpt>
<trkpt lat="48.758754674345255" lon="9.969982132315636">
<ele>667.4</ele>
<time>2024-05-07T08:40:57Z</time>
</trkpt>
<trkpt lat="48.75877755694091" lon="9.969949694350362">
<ele>667.4</ele>
<time>2024-05-07T08:40:58Z</time>
</trkpt>
<trkpt lat="48.75880429521203" lon="9.969918178394437">
<ele>667.4</ele>
<time>2024-05-07T08:40:59Z</time>
</trkpt>
<trkpt lat="48.75882717780769" lon="9.969882890582085">
<ele>667.4</ele>
<time>2024-05-07T08:41:00Z</time>
</trkpt>
<trkpt lat="48.75885006040335" lon="9.969849530607462">
<ele>667.4</ele>
<time>2024-05-07T08:41:01Z</time>
</trkpt>
<trkpt lat="48.75886531546712" lon="9.96981617063284">
<ele>667.4</ele>
<time>2024-05-07T08:41:02Z</time>
</trkpt>
<trkpt lat="48.75888442620635" lon="9.969784654676914">
<ele>667.6</ele>
<time>2024-05-07T08:41:03Z</time>
</trkpt>
<trkpt lat="48.75890345312655" lon="9.96975322254002">
<ele>667.6</ele>
<time>2024-05-07T08:41:04Z</time>
</trkpt>
<trkpt lat="48.75892633572221" lon="9.96971701271832">
<ele>667.8</ele>
<time>2024-05-07T08:41:05Z</time>
</trkpt>
<trkpt lat="48.75894159078598" lon="9.969679797068238">
<ele>668</ele>
<time>2024-05-07T08:41:06Z</time>
</trkpt>
<trkpt lat="48.758953073993325" lon="9.969641659408808">
<ele>668</ele>
<time>2024-05-07T08:41:07Z</time>
</trkpt>
<trkpt lat="48.75896447338164" lon="9.969592038542032">
<ele>668</ele>
<time>2024-05-07T08:41:08Z</time>
</trkpt>
<trkpt lat="48.75897972844541" lon="9.969548201188443">
<ele>668</ele>
<time>2024-05-07T08:41:09Z</time>
</trkpt>
<trkpt lat="48.75899883918464" lon="9.96949858032167">
<ele>668</ele>
<time>2024-05-07T08:41:10Z</time>
</trkpt>
<trkpt lat="48.7590217217803" lon="9.969456670805812">
<ele>668</ele>
<time>2024-05-07T08:41:11Z</time>
</trkpt>
<trkpt lat="48.75904460437596" lon="9.9694003444165">
<ele>668</ele>
<time>2024-05-07T08:41:12Z</time>
</trkpt>
<trkpt lat="48.7590751145035" lon="9.96934317983687">
<ele>668</ele>
<time>2024-05-07T08:41:13Z</time>
</trkpt>
<trkpt lat="48.75910185277462" lon="9.969287859275935">
<ele>668</ele>
<time>2024-05-07T08:41:14Z</time>
</trkpt>
<trkpt lat="48.759128507226706" lon="9.969218205660582">
<ele>667.8</ele>
<time>2024-05-07T08:41:15Z</time>
</trkpt>
<trkpt lat="48.75915901735425" lon="9.969151485711336">
<ele>667.6</ele>
<time>2024-05-07T08:41:16Z</time>
</trkpt>
<trkpt lat="48.759189527481794" lon="9.96908183209598">
<ele>667.4</ele>
<time>2024-05-07T08:41:17Z</time>
</trkpt>
<trkpt lat="48.7592238932848" lon="9.969010334461927">
<ele>667.2</ele>
<time>2024-05-07T08:41:18Z</time>
</trkpt>
<trkpt lat="48.75925440341234" lon="9.968934981152415">
<ele>666.8</ele>
<time>2024-05-07T08:41:19Z</time>
</trkpt>
<trkpt lat="48.75928491353989" lon="9.968861555680633">
<ele>666.6</ele>
<time>2024-05-07T08:41:20Z</time>
</trkpt>
<trkpt lat="48.75932305119932" lon="9.96878620237112">
<ele>666.6</ele>
<time>2024-05-07T08:41:21Z</time>
</trkpt>
<trkpt lat="48.75936118885875" lon="9.96870992705226">
<ele>666.4</ele>
<time>2024-05-07T08:41:22Z</time>
</trkpt>
<trkpt lat="48.75939941033721" lon="9.968638345599174">
<ele>666</ele>
<time>2024-05-07T08:41:23Z</time>
</trkpt>
<trkpt lat="48.75944131985307" lon="9.968564920127392">
<ele>665.8</ele>
<time>2024-05-07T08:41:24Z</time>
</trkpt>
<trkpt lat="48.75948331318796" lon="9.96849342249334">
<ele>665.6</ele>
<time>2024-05-07T08:41:25Z</time>
</trkpt>
<trkpt lat="48.75952145084739" lon="9.96843139640987">
<ele>665.4</ele>
<time>2024-05-07T08:41:26Z</time>
</trkpt>
<trkpt lat="48.75955581665039" lon="9.968377081677318">
<ele>665.2</ele>
<time>2024-05-07T08:41:27Z</time>
</trkpt>
<trkpt lat="48.75959009863436" lon="9.968323688954117">
<ele>664.8</ele>
<time>2024-05-07T08:41:28Z</time>
</trkpt>
<trkpt lat="48.75961683690548" lon="9.968261662870646">
<ele>664.6</ele>
<time>2024-05-07T08:41:29Z</time>
</trkpt>
<trkpt lat="48.759643491357565" lon="9.968206342309712">
<ele>664.4</ele>
<time>2024-05-07T08:41:30Z</time>
</trkpt>
<trkpt lat="48.75966637395322" lon="9.968152027577162">
<ele>664.2</ele>
<time>2024-05-07T08:41:31Z</time>
</trkpt>
<trkpt lat="48.75969311222434" lon="9.968099556863308">
<ele>664.2</ele>
<time>2024-05-07T08:41:32Z</time>
</trkpt>
<trkpt lat="48.759719766676426" lon="9.968043314293029">
<ele>664.2</ele>
<time>2024-05-07T08:41:33Z</time>
</trkpt>
<trkpt lat="48.75974650494754" lon="9.967981288209558">
<ele>664.2</ele>
<time>2024-05-07T08:41:34Z</time>
</trkpt>
<trkpt lat="48.7597693875432" lon="9.967925045639277">
<ele>664.2</ele>
<time>2024-05-07T08:41:35Z</time>
</trkpt>
<trkpt lat="48.75978849828243" lon="9.967866875231266">
<ele>664.2</ele>
<time>2024-05-07T08:41:36Z</time>
</trkpt>
<trkpt lat="48.75980752520263" lon="9.967806776985526">
<ele>664.4</ele>
<time>2024-05-07T08:41:37Z</time>
</trkpt>
<trkpt lat="48.75983426347375" lon="9.967753384262323">
<ele>664.4</ele>
<time>2024-05-07T08:41:38Z</time>
</trkpt>
<trkpt lat="48.75985329039395" lon="9.967693286016583">
<ele>664.2</ele>
<time>2024-05-07T08:41:39Z</time>
</trkpt>
<trkpt lat="48.75987240113318" lon="9.967637043446302">
<ele>664.2</ele>
<time>2024-05-07T08:41:40Z</time>
</trkpt>
<trkpt lat="48.75989528372884" lon="9.96757979504764">
<ele>664.2</ele>
<time>2024-05-07T08:41:41Z</time>
</trkpt>
<trkpt lat="48.75991053879261" lon="9.96752162463963">
<ele>664.4</ele>
<time>2024-05-07T08:41:42Z</time>
</trkpt>
<trkpt lat="48.75992964953184" lon="9.96745959855616">
<ele>664.6</ele>
<time>2024-05-07T08:41:43Z</time>
</trkpt>
<trkpt lat="48.75994490459561" lon="9.967398578301072">
<ele>664.8</ele>
<time>2024-05-07T08:41:44Z</time>
</trkpt>
<trkpt lat="48.75996778719127" lon="9.96734619140625">
<ele>664.8</ele>
<time>2024-05-07T08:41:45Z</time>
</trkpt>
<trkpt lat="48.75998681411147" lon="9.967291792854668">
<ele>665</ele>
<time>2024-05-07T08:41:46Z</time>
</trkpt>
<trkpt lat="48.76000969670713" lon="9.967240327969192">
<ele>665</ele>
<time>2024-05-07T08:41:47Z</time>
</trkpt>
<trkpt lat="48.76002880744636" lon="9.967189785093067">
<ele>665</ele>
<time>2024-05-07T08:41:48Z</time>
</trkpt>
<trkpt lat="48.76004783436656" lon="9.967136308550836">
<ele>665.2</ele>
<time>2024-05-07T08:41:49Z</time>
</trkpt>
<trkpt lat="48.76006694510579" lon="9.967081993818285">
<ele>665.4</ele>
<time>2024-05-07T08:41:50Z</time>
</trkpt>
<trkpt lat="48.76008982770145" lon="9.96702860109508">
<ele>665.4</ele>
<time>2024-05-07T08:41:51Z</time>
</trkpt>
<trkpt lat="48.76011271029711" lon="9.966978058218956">
<ele>665.6</ele>
<time>2024-05-07T08:41:52Z</time>
</trkpt>
<trkpt lat="48.760135592892766" lon="9.966935142874718">
<ele>665.8</ele>
<time>2024-05-07T08:41:53Z</time>
</trkpt>
<trkpt lat="48.760158475488424" lon="9.966895077377558">
<ele>665.8</ele>
<time>2024-05-07T08:41:54Z</time>
</trkpt>
<trkpt lat="48.76018135808408" lon="9.96685023419559">
<ele>665.8</ele>
<time>2024-05-07T08:41:55Z</time>
</trkpt>
<trkpt lat="48.760196613147855" lon="9.966801619157197">
<ele>666</ele>
<time>2024-05-07T08:41:56Z</time>
</trkpt>
<trkpt lat="48.7602080963552" lon="9.966754848137498">
<ele>666</ele>
<time>2024-05-07T08:41:57Z</time>
</trkpt>
<trkpt lat="48.76022335141897" lon="9.96671293862164">
<ele>666.2</ele>
<time>2024-05-07T08:41:58Z</time>
</trkpt>
<trkpt lat="48.7602424621582" lon="9.966676644980907">
<ele>666.2</ele>
<time>2024-05-07T08:41:59Z</time>
</trkpt>
<trkpt lat="48.7602614890784" lon="9.966636579483747">
<ele>666.4</ele>
<time>2024-05-07T08:42:00Z</time>
</trkpt>
<trkpt lat="48.76028437167406" lon="9.96659659780562">
<ele>666.4</ele>
<time>2024-05-07T08:42:01Z</time>
</trkpt>
<trkpt lat="48.76030348241329" lon="9.96655460447073">
<ele>666.6</ele>
<time>2024-05-07T08:42:02Z</time>
</trkpt>
<trkpt lat="48.76032250933349" lon="9.966511689126492">
<ele>666.8</ele>
<time>2024-05-07T08:42:03Z</time>
</trkpt>
<trkpt lat="48.76034539192915" lon="9.966464918106794">
<ele>667</ele>
<time>2024-05-07T08:42:04Z</time>
</trkpt>
<trkpt lat="48.76037213020027" lon="9.966422002762556">
<ele>667.2</ele>
<time>2024-05-07T08:42:05Z</time>
</trkpt>
<trkpt lat="48.760395012795925" lon="9.966384870931506">
<ele>667.2</ele>
<time>2024-05-07T08:42:06Z</time>
</trkpt>
<trkpt lat="48.76041789539158" lon="9.966346733272076">
<ele>667.4</ele>
<time>2024-05-07T08:42:07Z</time>
</trkpt>
<trkpt lat="48.760437006130815" lon="9.966308511793612">
<ele>667.4</ele>
<time>2024-05-07T08:42:08Z</time>
</trkpt>
<trkpt lat="48.760456033051014" lon="9.966273307800291">
<ele>667.4</ele>
<time>2024-05-07T08:42:09Z</time>
</trkpt>
<trkpt lat="48.760475143790245" lon="9.966231314465404">
<ele>667.4</ele>
<time>2024-05-07T08:42:10Z</time>
</trkpt>
<trkpt lat="48.7604980263859" lon="9.966191248968244">
<ele>667.6</ele>
<time>2024-05-07T08:42:11Z</time>
</trkpt>
<trkpt lat="48.76052090898156" lon="9.966148333624004">
<ele>667.6</ele>
<time>2024-05-07T08:42:12Z</time>
</trkpt>
<trkpt lat="48.76054756343365" lon="9.966103490442038">
<ele>667.8</ele>
<time>2024-05-07T08:42:13Z</time>
</trkpt>
<trkpt lat="48.76057430170477" lon="9.966065352782609">
<ele>667.8</ele>
<time>2024-05-07T08:42:14Z</time>
</trkpt>
<trkpt lat="48.76060481183231" lon="9.966026293113828">
<ele>667.8</ele>
<time>2024-05-07T08:42:15Z</time>
</trkpt>
<trkpt lat="48.76063917763531" lon="9.965991927310824">
<ele>667.6</ele>
<time>2024-05-07T08:42:16Z</time>
</trkpt>
<trkpt lat="48.76067345961928" lon="9.965954711660745">
<ele>667.6</ele>
<time>2024-05-07T08:42:17Z</time>
</trkpt>
<trkpt lat="48.76070782542229" lon="9.965916574001312">
<ele>667.4</ele>
<time>2024-05-07T08:42:18Z</time>
</trkpt>
<trkpt lat="48.76074596308172" lon="9.965878436341882">
<ele>667.4</ele>
<time>2024-05-07T08:42:19Z</time>
</trkpt>
<trkpt lat="48.76078795641661" lon="9.965840298682451">
<ele>667.4</ele>
<time>2024-05-07T08:42:20Z</time>
</trkpt>
<trkpt lat="48.76082609407604" lon="9.965796461328864">
<ele>667.2</ele>
<time>2024-05-07T08:42:21Z</time>
</trkpt>
<trkpt lat="48.760871859267354" lon="9.96574298478663">
<ele>667.2</ele>
<time>2024-05-07T08:42:22Z</time>
</trkpt>
<trkpt lat="48.76091762445867" lon="9.965691519901156">
<ele>667</ele>
<time>2024-05-07T08:42:23Z</time>
</trkpt>
<trkpt lat="48.7609557621181" lon="9.96564290486276">
<ele>666.6</ele>
<time>2024-05-07T08:42:24Z</time>
</trkpt>
<trkpt lat="48.76099775545299" lon="9.965598061680794">
<ele>666.4</ele>
<time>2024-05-07T08:42:25Z</time>
</trkpt>
<trkpt lat="48.76103966496885" lon="9.965553218498826">
<ele>666.2</ele>
<time>2024-05-07T08:42:26Z</time>
</trkpt>
<trkpt lat="48.76107780262828" lon="9.965510303154588">
<ele>666</ele>
<time>2024-05-07T08:42:27Z</time>
</trkpt>
<trkpt lat="48.76111979596317" lon="9.965471243485808">
<ele>666</ele>
<time>2024-05-07T08:42:28Z</time>
</trkpt>
<trkpt lat="48.76116178929806" lon="9.965436877682803">
<ele>665.8</ele>
<time>2024-05-07T08:42:29Z</time>
</trkpt>
<trkpt lat="48.761203698813915" lon="9.965403517708182">
<ele>665.6</ele>
<time>2024-05-07T08:42:30Z</time>
</trkpt>
<trkpt lat="48.761241836473346" lon="9.96537015773356">
<ele>665.6</ele>
<time>2024-05-07T08:42:31Z</time>
</trkpt>
<trkpt lat="48.76127620227635" lon="9.965336797758937">
<ele>665.6</ele>
<time>2024-05-07T08:42:32Z</time>
</trkpt>
<trkpt lat="48.76131433993578" lon="9.96530620381236">
<ele>665.6</ele>
<time>2024-05-07T08:42:33Z</time>
</trkpt>
<trkpt lat="48.76134870573878" lon="9.965272843837738">
<ele>665.4</ele>
<time>2024-05-07T08:42:34Z</time>
</trkpt>
<trkpt lat="48.761382987722754" lon="9.965241411700845">
<ele>665.4</ele>
<time>2024-05-07T08:42:35Z</time>
</trkpt>
<trkpt lat="48.76140972599387" lon="9.96520989574492">
<ele>665.4</ele>
<time>2024-05-07T08:42:36Z</time>
</trkpt>
<trkpt lat="48.76143638044596" lon="9.96517175808549">
<ele>665.4</ele>
<time>2024-05-07T08:42:37Z</time>
</trkpt>
<trkpt lat="48.761463118717074" lon="9.96513169258833">
<ele>665.4</ele>
<time>2024-05-07T08:42:38Z</time>
</trkpt>
<trkpt lat="48.76148600131273" lon="9.965087855234742">
<ele>665.2</ele>
<time>2024-05-07T08:42:39Z</time>
</trkpt>
<trkpt lat="48.76150511205197" lon="9.965036390349267">
<ele>665.2</ele>
<time>2024-05-07T08:42:40Z</time>
</trkpt>
<trkpt lat="48.76152799464762" lon="9.964981991797686">
<ele>665.2</ele>
<time>2024-05-07T08:42:41Z</time>
</trkpt>
<trkpt lat="48.761543249711394" lon="9.964929521083832">
<ele>665.2</ele>
<time>2024-05-07T08:42:42Z</time>
</trkpt>
<trkpt lat="48.761562276631594" lon="9.964879984036088">
<ele>665.2</ele>
<time>2024-05-07T08:42:43Z</time>
</trkpt>
<trkpt lat="48.761577531695366" lon="9.964830363169312">
<ele>665</ele>
<time>2024-05-07T08:42:44Z</time>
</trkpt>
<trkpt lat="48.76158515922725" lon="9.96477789245546">
<ele>665</ele>
<time>2024-05-07T08:42:45Z</time>
</trkpt>
<trkpt lat="48.76158515922725" lon="9.964731205254791">
<ele>664.8</ele>
<time>2024-05-07T08:42:46Z</time>
</trkpt>
<trkpt lat="48.76157375983894" lon="9.96469491161406">
<ele>664.8</ele>
<time>2024-05-07T08:42:47Z</time>
</trkpt>
<trkpt lat="48.76155087724328" lon="9.964670101180673">
<ele>664.6</ele>
<time>2024-05-07T08:42:48Z</time>
</trkpt>
<trkpt lat="48.76152413897216" lon="9.9646548461169">
<ele>664.4</ele>
<time>2024-05-07T08:42:49Z</time>
</trkpt>
<trkpt lat="48.76148985698819" lon="9.964643446728587">
<ele>664.2</ele>
<time>2024-05-07T08:42:50Z</time>
</trkpt>
<trkpt lat="48.76145934686065" lon="9.964626263827084">
<ele>664</ele>
<time>2024-05-07T08:42:51Z</time>
</trkpt>
<trkpt lat="48.76142875291407" lon="9.964603381231427">
<ele>664</ele>
<time>2024-05-07T08:42:52Z</time>
</trkpt>
<trkpt lat="48.76140587031841" lon="9.964574798941612">
<ele>663.8</ele>
<time>2024-05-07T08:42:53Z</time>
</trkpt>
<trkpt lat="48.7613944709301" lon="9.964540433138607">
<ele>663.6</ele>
<time>2024-05-07T08:42:54Z</time>
</trkpt>
<trkpt lat="48.76139824278653" lon="9.964496595785022">
<ele>663.6</ele>
<time>2024-05-07T08:42:55Z</time>
</trkpt>
<trkpt lat="48.76141735352576" lon="9.964453680440784">
<ele>663.4</ele>
<time>2024-05-07T08:42:56Z</time>
</trkpt>
<trkpt lat="48.761440236121416" lon="9.964409759268165">
<ele>663.4</ele>
<time>2024-05-07T08:42:57Z</time>
</trkpt>
<trkpt lat="48.76146697439253" lon="9.964364999905229">
<ele>663.4</ele>
<time>2024-05-07T08:42:58Z</time>
</trkpt>
<trkpt lat="48.76149362884462" lon="9.964316301047802">
<ele>663.2</ele>
<time>2024-05-07T08:42:59Z</time>
</trkpt>
<trkpt lat="48.76151651144028" lon="9.964266764000058">
<ele>663.2</ele>
<time>2024-05-07T08:43:00Z</time>
</trkpt>
<trkpt lat="48.761543249711394" lon="9.964216221123934">
<ele>663.2</ele>
<time>2024-05-07T08:43:01Z</time>
</trkpt>
<trkpt lat="48.76156990416348" lon="9.96416375041008">
<ele>663.2</ele>
<time>2024-05-07T08:43:02Z</time>
</trkpt>
<trkpt lat="48.7615966424346" lon="9.964110357686875">
<ele>663.2</ele>
<time>2024-05-07T08:43:03Z</time>
</trkpt>
<trkpt lat="48.761619525030255" lon="9.964056964963676">
<ele>663.2</ele>
<time>2024-05-07T08:43:04Z</time>
</trkpt>
<trkpt lat="48.76164626330137" lon="9.96400449424982">
<ele>663.2</ele>
<time>2024-05-07T08:43:05Z</time>
</trkpt>
<trkpt lat="48.76167291775346" lon="9.963952023535969">
<ele>663.2</ele>
<time>2024-05-07T08:43:06Z</time>
</trkpt>
<trkpt lat="48.761699656024575" lon="9.963899552822111">
<ele>663.2</ele>
<time>2024-05-07T08:43:07Z</time>
</trkpt>
<trkpt lat="48.76172631047666" lon="9.96384616009891">
<ele>663.4</ele>
<time>2024-05-07T08:43:08Z</time>
</trkpt>
<trkpt lat="48.76175304874778" lon="9.963794695213435">
<ele>663.4</ele>
<time>2024-05-07T08:43:09Z</time>
</trkpt>
<trkpt lat="48.76177970319986" lon="9.963741302490234">
<ele>663.4</ele>
<time>2024-05-07T08:43:10Z</time>
</trkpt>
<trkpt lat="48.76180644147098" lon="9.963686903938653">
<ele>663.6</ele>
<time>2024-05-07T08:43:11Z</time>
</trkpt>
<trkpt lat="48.7618331797421" lon="9.96363158337772">
<ele>663.6</ele>
<time>2024-05-07T08:43:12Z</time>
</trkpt>
<trkpt lat="48.76186368986964" lon="9.963576262816789">
<ele>663.6</ele>
<time>2024-05-07T08:43:13Z</time>
</trkpt>
<trkpt lat="48.76189034432173" lon="9.963521948084235">
<ele>663.8</ele>
<time>2024-05-07T08:43:14Z</time>
</trkpt>
<trkpt lat="48.761917082592845" lon="9.963466627523305">
<ele>664</ele>
<time>2024-05-07T08:43:15Z</time>
</trkpt>
<trkpt lat="48.76194373704493" lon="9.96341130696237">
<ele>664.2</ele>
<time>2024-05-07T08:43:16Z</time>
</trkpt>
<trkpt lat="48.76197047531605" lon="9.963356908410788">
<ele>664.2</ele>
<time>2024-05-07T08:43:17Z</time>
</trkpt>
<trkpt lat="48.761997213587165" lon="9.963299743831158">
<ele>664.4</ele>
<time>2024-05-07T08:43:18Z</time>
</trkpt>
<trkpt lat="48.76202386803925" lon="9.963243417441843">
<ele>664.6</ele>
<time>2024-05-07T08:43:19Z</time>
</trkpt>
<trkpt lat="48.76205060631037" lon="9.963188096880913">
<ele>664.6</ele>
<time>2024-05-07T08:43:20Z</time>
</trkpt>
<trkpt lat="48.76207726076245" lon="9.96313277631998">
<ele>664.8</ele>
<time>2024-05-07T08:43:21Z</time>
</trkpt>
<trkpt lat="48.76210399903357" lon="9.9630765337497">
<ele>664.8</ele>
<time>2024-05-07T08:43:22Z</time>
</trkpt>
<trkpt lat="48.76213073730469" lon="9.963021213188767">
<ele>665</ele>
<time>2024-05-07T08:43:23Z</time>
</trkpt>
<trkpt lat="48.76215739175677" lon="9.962966898456216">
<ele>665</ele>
<time>2024-05-07T08:43:24Z</time>
</trkpt>
<trkpt lat="48.76218790188432" lon="9.962913505733011">
<ele>665</ele>
<time>2024-05-07T08:43:25Z</time>
</trkpt>
<trkpt lat="48.762214640155435" lon="9.96286002919078">
<ele>665.2</ele>
<time>2024-05-07T08:43:26Z</time>
</trkpt>
<trkpt lat="48.76224129460752" lon="9.962806636467576">
<ele>665.2</ele>
<time>2024-05-07T08:43:27Z</time>
</trkpt>
<trkpt lat="48.76226417720318" lon="9.962753243744372">
<ele>665.2</ele>
<time>2024-05-07T08:43:28Z</time>
</trkpt>
<trkpt lat="48.762290915474296" lon="9.9627017788589">
<ele>665.4</ele>
<time>2024-05-07T08:43:29Z</time>
</trkpt>
<trkpt lat="48.76231765374541" lon="9.962648386135696">
<ele>665.4</ele>
<time>2024-05-07T08:43:30Z</time>
</trkpt>
<trkpt lat="48.7623443081975" lon="9.962596837431192">
<ele>665.6</ele>
<time>2024-05-07T08:43:31Z</time>
</trkpt>
<trkpt lat="48.76236719079316" lon="9.962546294555068">
<ele>665.8</ele>
<time>2024-05-07T08:43:32Z</time>
</trkpt>
<trkpt lat="48.762393929064274" lon="9.962494829669597">
<ele>665.8</ele>
<time>2024-05-07T08:43:33Z</time>
</trkpt>
<trkpt lat="48.76241681165993" lon="9.96244520880282">
<ele>666</ele>
<time>2024-05-07T08:43:34Z</time>
</trkpt>
<trkpt lat="48.76244346611202" lon="9.962393743917346">
<ele>666</ele>
<time>2024-05-07T08:43:35Z</time>
</trkpt>
<trkpt lat="48.76246634870768" lon="9.96234504505992">
<ele>666</ele>
<time>2024-05-07T08:43:36Z</time>
</trkpt>
<trkpt lat="48.76249308697879" lon="9.962293580174446">
<ele>666</ele>
<time>2024-05-07T08:43:37Z</time>
</trkpt>
<trkpt lat="48.76251596957445" lon="9.962243037298322">
<ele>666.2</ele>
<time>2024-05-07T08:43:38Z</time>
</trkpt>
<trkpt lat="48.76254270784557" lon="9.96218964457512">
<ele>666.2</ele>
<time>2024-05-07T08:43:39Z</time>
</trkpt>
<trkpt lat="48.762569362297654" lon="9.962136251851916">
<ele>666.4</ele>
<time>2024-05-07T08:43:40Z</time>
</trkpt>
<trkpt lat="48.76259224489331" lon="9.962083781138062">
<ele>666.4</ele>
<time>2024-05-07T08:43:41Z</time>
</trkpt>
<trkpt lat="48.76261898316443" lon="9.962031310424209">
<ele>666.6</ele>
<time>2024-05-07T08:43:42Z</time>
</trkpt>
<trkpt lat="48.76264572143555" lon="9.961981773376465">
<ele>666.8</ele>
<time>2024-05-07T08:43:43Z</time>
</trkpt>
<trkpt lat="48.762668604031205" lon="9.961931146681309">
<ele>666.8</ele>
<time>2024-05-07T08:43:44Z</time>
</trkpt>
<trkpt lat="48.76269525848329" lon="9.961881609633563">
<ele>667</ele>
<time>2024-05-07T08:43:45Z</time>
</trkpt>
<trkpt lat="48.76271814107895" lon="9.96183299459517">
<ele>667.2</ele>
<time>2024-05-07T08:43:46Z</time>
</trkpt>
<trkpt lat="48.762744879350066" lon="9.961785301566124">
<ele>667.4</ele>
<time>2024-05-07T08:43:47Z</time>
</trkpt>
<trkpt lat="48.762767761945724" lon="9.961738530546429">
<ele>667.4</ele>
<time>2024-05-07T08:43:48Z</time>
</trkpt>
<trkpt lat="48.76279064454138" lon="9.961689915508032">
<ele>667.6</ele>
<time>2024-05-07T08:43:49Z</time>
</trkpt>
<trkpt lat="48.76281352713704" lon="9.961643144488336">
<ele>667.8</ele>
<time>2024-05-07T08:43:50Z</time>
</trkpt>
<trkpt lat="48.7628364097327" lon="9.96159645728767">
<ele>667.8</ele>
<time>2024-05-07T08:43:51Z</time>
</trkpt>
<trkpt lat="48.76285929232836" lon="9.961549686267972">
<ele>667.8</ele>
<time>2024-05-07T08:43:52Z</time>
</trkpt>
<trkpt lat="48.762882174924016" lon="9.961502999067308">
<ele>668</ele>
<time>2024-05-07T08:43:53Z</time>
</trkpt>
<trkpt lat="48.762905057519674" lon="9.96145622804761">
<ele>668</ele>
<time>2024-05-07T08:43:54Z</time>
</trkpt>
<trkpt lat="48.76293179579079" lon="9.961411468684672">
<ele>668</ele>
<time>2024-05-07T08:43:55Z</time>
</trkpt>
<trkpt lat="48.76295467838645" lon="9.961362769827248">
<ele>668</ele>
<time>2024-05-07T08:43:56Z</time>
</trkpt>
<trkpt lat="48.76297756098211" lon="9.9613150767982">
<ele>668</ele>
<time>2024-05-07T08:43:57Z</time>
</trkpt>
<trkpt lat="48.763000443577766" lon="9.961268389597535">
<ele>668.2</ele>
<time>2024-05-07T08:43:58Z</time>
</trkpt>
<trkpt lat="48.763023326173425" lon="9.96121977455914">
<ele>668.4</ele>
<time>2024-05-07T08:43:59Z</time>
</trkpt>
<trkpt lat="48.76304620876908" lon="9.961176859214902">
<ele>668.4</ele>
<time>2024-05-07T08:44:00Z</time>
</trkpt>
<trkpt lat="48.763065319508314" lon="9.961130088195205">
<ele>668.6</ele>
<time>2024-05-07T08:44:01Z</time>
</trkpt>
<trkpt lat="48.76308820210397" lon="9.96108340099454">
<ele>668.6</ele>
<time>2024-05-07T08:44:02Z</time>
</trkpt>
<trkpt lat="48.76311108469963" lon="9.961034702137113">
<ele>668.8</ele>
<time>2024-05-07T08:44:03Z</time>
</trkpt>
<trkpt lat="48.76313396729529" lon="9.960985165089369">
<ele>668.8</ele>
<time>2024-05-07T08:44:04Z</time>
</trkpt>
<trkpt lat="48.763160705566406" lon="9.960938394069672">
<ele>669</ele>
<time>2024-05-07T08:44:05Z</time>
</trkpt>
<trkpt lat="48.763183588162065" lon="9.960889779031277">
<ele>669</ele>
<time>2024-05-07T08:44:06Z</time>
</trkpt>
<trkpt lat="48.76320647075772" lon="9.9608401581645">
<ele>669</ele>
<time>2024-05-07T08:44:07Z</time>
</trkpt>
<trkpt lat="48.76323312520981" lon="9.960789615288377">
<ele>669</ele>
<time>2024-05-07T08:44:08Z</time>
</trkpt>
<trkpt lat="48.76325600780547" lon="9.960740078240631">
<ele>669.2</ele>
<time>2024-05-07T08:44:09Z</time>
</trkpt>
<trkpt lat="48.763278890401125" lon="9.960693307220936">
<ele>669.2</ele>
<time>2024-05-07T08:44:10Z</time>
</trkpt>
<trkpt lat="48.76330177299678" lon="9.96064469218254">
<ele>669.2</ele>
<time>2024-05-07T08:44:11Z</time>
</trkpt>
<trkpt lat="48.7633285112679" lon="9.960597921162844">
<ele>669.4</ele>
<time>2024-05-07T08:44:12Z</time>
</trkpt>
<trkpt lat="48.76335139386356" lon="9.960551233962178">
<ele>669.6</ele>
<time>2024-05-07T08:44:13Z</time>
</trkpt>
<trkpt lat="48.76337427645922" lon="9.96050446294248">
<ele>669.6</ele>
<time>2024-05-07T08:44:14Z</time>
</trkpt>
<trkpt lat="48.763401014730334" lon="9.960456769913437">
<ele>669.8</ele>
<time>2024-05-07T08:44:15Z</time>
</trkpt>
<trkpt lat="48.76342389732599" lon="9.96041008271277">
<ele>670</ele>
<time>2024-05-07T08:44:16Z</time>
</trkpt>
<trkpt lat="48.76344677992165" lon="9.960361467674376">
<ele>670.2</ele>
<time>2024-05-07T08:44:17Z</time>
</trkpt>
<trkpt lat="48.76346966251731" lon="9.960314696654676">
<ele>670.2</ele>
<time>2024-05-07T08:44:18Z</time>
</trkpt>
<trkpt lat="48.76349254511297" lon="9.960268009454012">
<ele>670.4</ele>
<time>2024-05-07T08:44:19Z</time>
</trkpt>
<trkpt lat="48.763519283384085" lon="9.960220316424966">
<ele>670.4</ele>
<time>2024-05-07T08:44:20Z</time>
</trkpt>
<trkpt lat="48.76354216597974" lon="9.96017161756754">
<ele>670.6</ele>
<time>2024-05-07T08:44:21Z</time>
</trkpt>
<trkpt lat="48.7635650485754" lon="9.960123002529144">
<ele>670.6</ele>
<time>2024-05-07T08:44:22Z</time>
</trkpt>
<trkpt lat="48.76359170302749" lon="9.960075309500098">
<ele>670.6</ele>
<time>2024-05-07T08:44:23Z</time>
</trkpt>
<trkpt lat="48.763614585623145" lon="9.960026694461703">
<ele>670.6</ele>
<time>2024-05-07T08:44:24Z</time>
</trkpt>
<trkpt lat="48.7636374682188" lon="9.959980007261038">
<ele>670.8</ele>
<time>2024-05-07T08:44:25Z</time>
</trkpt>
<trkpt lat="48.76366035081446" lon="9.95993323624134">
<ele>670.8</ele>
<time>2024-05-07T08:44:26Z</time>
</trkpt>
<trkpt lat="48.76368331722915" lon="9.959886549040675">
<ele>671</ele>
<time>2024-05-07T08:44:27Z</time>
</trkpt>
<trkpt lat="48.76370997168124" lon="9.959839778020978">
<ele>671</ele>
<time>2024-05-07T08:44:28Z</time>
</trkpt>
<trkpt lat="48.76372908242047" lon="9.959793090820313">
<ele>671.2</ele>
<time>2024-05-07T08:44:29Z</time>
</trkpt>
<trkpt lat="48.763755736872554" lon="9.959745397791266">
<ele>671.2</ele>
<time>2024-05-07T08:44:30Z</time>
</trkpt>
<trkpt lat="48.76377861946821" lon="9.95969669893384">
<ele>671.4</ele>
<time>2024-05-07T08:44:31Z</time>
</trkpt>
<trkpt lat="48.76380150206387" lon="9.959646156057715">
<ele>671.4</ele>
<time>2024-05-07T08:44:32Z</time>
</trkpt>
<trkpt lat="48.76382438465953" lon="9.95959846302867">
<ele>671.4</ele>
<time>2024-05-07T08:44:33Z</time>
</trkpt>
<trkpt lat="48.763851122930646" lon="9.959549847990274">
<ele>671.6</ele>
<time>2024-05-07T08:44:34Z</time>
</trkpt>
<trkpt lat="48.763874005526304" lon="9.959503160789607">
<ele>671.6</ele>
<time>2024-05-07T08:44:35Z</time>
</trkpt>
<trkpt lat="48.76389688812196" lon="9.959455467760565">
<ele>671.8</ele>
<time>2024-05-07T08:44:36Z</time>
</trkpt>
<trkpt lat="48.76392362639308" lon="9.959406852722168">
<ele>672</ele>
<time>2024-05-07T08:44:37Z</time>
</trkpt>
<trkpt lat="48.76394650898874" lon="9.9593620095402">
<ele>672.2</ele>
<time>2024-05-07T08:44:38Z</time>
</trkpt>
<trkpt lat="48.763973163440824" lon="9.959315238520505">
<ele>672.4</ele>
<time>2024-05-07T08:44:39Z</time>
</trkpt>
<trkpt lat="48.76399604603648" lon="9.959266623482108">
<ele>672.4</ele>
<time>2024-05-07T08:44:40Z</time>
</trkpt>
<trkpt lat="48.76401901245117" lon="9.959218008443711">
<ele>672.6</ele>
<time>2024-05-07T08:44:41Z</time>
</trkpt>
<trkpt lat="48.76404189504683" lon="9.959168387576938">
<ele>672.6</ele>
<time>2024-05-07T08:44:42Z</time>
</trkpt>
<trkpt lat="48.76406854949891" lon="9.959119772538545">
<ele>672.8</ele>
<time>2024-05-07T08:44:43Z</time>
</trkpt>
<trkpt lat="48.764091432094574" lon="9.959070151671767">
<ele>672.8</ele>
<time>2024-05-07T08:44:44Z</time>
</trkpt>
<trkpt lat="48.76411817036569" lon="9.959018686786294">
<ele>672.8</ele>
<time>2024-05-07T08:44:45Z</time>
</trkpt>
<trkpt lat="48.76414105296135" lon="9.95896814391017">
<ele>673</ele>
<time>2024-05-07T08:44:46Z</time>
</trkpt>
<trkpt lat="48.764167707413435" lon="9.958919445052745">
<ele>673</ele>
<time>2024-05-07T08:44:47Z</time>
</trkpt>
<trkpt lat="48.76419444568455" lon="9.95886798016727">
<ele>673</ele>
<time>2024-05-07T08:44:48Z</time>
</trkpt>
<trkpt lat="48.76421732828021" lon="9.958814587444069">
<ele>673</ele>
<time>2024-05-07T08:44:49Z</time>
</trkpt>
<trkpt lat="48.76424021087587" lon="9.958763122558594">
<ele>673.2</ele>
<time>2024-05-07T08:44:50Z</time>
</trkpt>
<trkpt lat="48.764266949146986" lon="9.958711573854089">
<ele>673.2</ele>
<time>2024-05-07T08:44:51Z</time>
</trkpt>
<trkpt lat="48.76428983174264" lon="9.958661952987311">
<ele>673.4</ele>
<time>2024-05-07T08:44:52Z</time>
</trkpt>
<trkpt lat="48.76431648619473" lon="9.958611410111187">
<ele>673.4</ele>
<time>2024-05-07T08:44:53Z</time>
</trkpt>
<trkpt lat="48.76434322446585" lon="9.958561873063443">
<ele>673.6</ele>
<time>2024-05-07T08:44:54Z</time>
</trkpt>
<trkpt lat="48.764366107061505" lon="9.95851133018732">
<ele>673.6</ele>
<time>2024-05-07T08:44:55Z</time>
</trkpt>
<trkpt lat="48.76438898965717" lon="9.958461709320543">
<ele>673.8</ele>
<time>2024-05-07T08:44:56Z</time>
</trkpt>
<trkpt lat="48.76441572792828" lon="9.95841208845377">
<ele>673.8</ele>
<time>2024-05-07T08:44:57Z</time>
</trkpt>
<trkpt lat="48.76443861052394" lon="9.958365401253104">
<ele>674</ele>
<time>2024-05-07T08:44:58Z</time>
</trkpt>
<trkpt lat="48.764465264976025" lon="9.95831485837698">
<ele>674</ele>
<time>2024-05-07T08:44:59Z</time>
</trkpt>
<trkpt lat="48.76448814757168" lon="9.958268087357284">
<ele>674.2</ele>
<time>2024-05-07T08:45:00Z</time>
</trkpt>
<trkpt lat="48.76451103016734" lon="9.958221400156615">
<ele>674.4</ele>
<time>2024-05-07T08:45:01Z</time>
</trkpt>
<trkpt lat="48.76453399658203" lon="9.958173707127573">
<ele>674.4</ele>
<time>2024-05-07T08:45:02Z</time>
</trkpt>
<trkpt lat="48.76455687917769" lon="9.958125092089176">
<ele>674.6</ele>
<time>2024-05-07T08:45:03Z</time>
</trkpt>
<trkpt lat="48.76457976177335" lon="9.958080248907208">
<ele>674.6</ele>
<time>2024-05-07T08:45:04Z</time>
</trkpt>
<trkpt lat="48.764602644369006" lon="9.958033561706545">
<ele>674.8</ele>
<time>2024-05-07T08:45:05Z</time>
</trkpt>
<trkpt lat="48.76462929882109" lon="9.957984862849116">
<ele>675</ele>
<time>2024-05-07T08:45:06Z</time>
</trkpt>
<trkpt lat="48.76465218141675" lon="9.95793624781072">
<ele>675.2</ele>
<time>2024-05-07T08:45:07Z</time>
</trkpt>
<trkpt lat="48.76467506401241" lon="9.957888554781675">
<ele>675.2</ele>
<time>2024-05-07T08:45:08Z</time>
</trkpt>
<trkpt lat="48.764701802283525" lon="9.957838011905553">
<ele>675.4</ele>
<time>2024-05-07T08:45:09Z</time>
</trkpt>
<trkpt lat="48.764724684879184" lon="9.957790318876503">
<ele>675.6</ele>
<time>2024-05-07T08:45:10Z</time>
</trkpt>
<trkpt lat="48.7647514231503" lon="9.95774363167584">
<ele>675.6</ele>
<time>2024-05-07T08:45:11Z</time>
</trkpt>
<trkpt lat="48.76477430574596" lon="9.957696860656142">
<ele>675.8</ele>
<time>2024-05-07T08:45:12Z</time>
</trkpt>
<trkpt lat="48.76479718834162" lon="9.957646317780018">
<ele>675.8</ele>
<time>2024-05-07T08:45:13Z</time>
</trkpt>
<trkpt lat="48.76482007093728" lon="9.957598624750972">
<ele>676</ele>
<time>2024-05-07T08:45:14Z</time>
</trkpt>
<trkpt lat="48.764842953532934" lon="9.957551937550306">
<ele>676</ele>
<time>2024-05-07T08:45:15Z</time>
</trkpt>
<trkpt lat="48.76486583612859" lon="9.95750516653061">
<ele>676.2</ele>
<time>2024-05-07T08:45:16Z</time>
</trkpt>
<trkpt lat="48.764884946867824" lon="9.957456551492214">
<ele>676.2</ele>
<time>2024-05-07T08:45:17Z</time>
</trkpt>
<trkpt lat="48.76491160131991" lon="9.95740793645382">
<ele>676.2</ele>
<time>2024-05-07T08:45:18Z</time>
</trkpt>
<trkpt lat="48.76493448391557" lon="9.957360243424771">
<ele>676.4</ele>
<time>2024-05-07T08:45:19Z</time>
</trkpt>
<trkpt lat="48.764957366511226" lon="9.957315400242804">
<ele>676.6</ele>
<time>2024-05-07T08:45:20Z</time>
</trkpt>
<trkpt lat="48.76498024910688" lon="9.95726871304214">
<ele>676.6</ele>
<time>2024-05-07T08:45:21Z</time>
</trkpt>
<trkpt lat="48.76500313170254" lon="9.957222864031792">
<ele>676.8</ele>
<time>2024-05-07T08:45:22Z</time>
</trkpt>
<trkpt lat="48.7650260142982" lon="9.957176176831126">
<ele>677</ele>
<time>2024-05-07T08:45:23Z</time>
</trkpt>
<trkpt lat="48.76504898071289" lon="9.95712655596435">
<ele>677.2</ele>
<time>2024-05-07T08:45:24Z</time>
</trkpt>
<trkpt lat="48.76507186330855" lon="9.957079868763683">
<ele>677.2</ele>
<time>2024-05-07T08:45:25Z</time>
</trkpt>
<trkpt lat="48.76509474590421" lon="9.957033097743988">
<ele>677.4</ele>
<time>2024-05-07T08:45:26Z</time>
</trkpt>
<trkpt lat="48.765117628499866" lon="9.95698825456202">
<ele>677.4</ele>
<time>2024-05-07T08:45:27Z</time>
</trkpt>
<trkpt lat="48.76514051109552" lon="9.956941567361357">
<ele>677.6</ele>
<time>2024-05-07T08:45:28Z</time>
</trkpt>
<trkpt lat="48.76516339369118" lon="9.956894796341658">
<ele>677.6</ele>
<time>2024-05-07T08:45:29Z</time>
</trkpt>
<trkpt lat="48.76518627628684" lon="9.956848109140992">
<ele>677.8</ele>
<time>2024-05-07T08:45:30Z</time>
</trkpt>
<trkpt lat="48.7652091588825" lon="9.956801338121297">
<ele>678</ele>
<time>2024-05-07T08:45:31Z</time>
</trkpt>
<trkpt lat="48.76522826962173" lon="9.95675657875836">
<ele>678</ele>
<time>2024-05-07T08:45:32Z</time>
</trkpt>
<trkpt lat="48.76525115221739" lon="9.95671458542347">
<ele>678.2</ele>
<time>2024-05-07T08:45:33Z</time>
</trkpt>
<trkpt lat="48.76527017913759" lon="9.956671670079231">
<ele>678.4</ele>
<time>2024-05-07T08:45:34Z</time>
</trkpt>
<trkpt lat="48.765296917408705" lon="9.956628754734991">
<ele>678.6</ele>
<time>2024-05-07T08:45:35Z</time>
</trkpt>
<trkpt lat="48.765315944328904" lon="9.956582989543676">
<ele>678.8</ele>
<time>2024-05-07T08:45:36Z</time>
</trkpt>
<trkpt lat="48.765335055068135" lon="9.956538146361709">
<ele>678.8</ele>
<time>2024-05-07T08:45:37Z</time>
</trkpt>
<trkpt lat="48.76536170952022" lon="9.95649523101747">
<ele>679.2</ele>
<time>2024-05-07T08:45:38Z</time>
</trkpt>
<trkpt lat="48.76538082025945" lon="9.956453321501613">
<ele>679.4</ele>
<time>2024-05-07T08:45:39Z</time>
</trkpt>
<trkpt lat="48.765396075323224" lon="9.956410406157374">
<ele>679.6</ele>
<time>2024-05-07T08:45:40Z</time>
</trkpt>
<trkpt lat="48.765415186062455" lon="9.956364557147026">
<ele>679.8</ele>
<time>2024-05-07T08:45:41Z</time>
</trkpt>
<trkpt lat="48.765434212982655" lon="9.956321641802788">
<ele>680</ele>
<time>2024-05-07T08:45:42Z</time>
</trkpt>
<trkpt lat="48.76545709557831" lon="9.956276882439852">
<ele>680.2</ele>
<time>2024-05-07T08:45:43Z</time>
</trkpt>
<trkpt lat="48.76547997817397" lon="9.956232039257884">
<ele>680.4</ele>
<time>2024-05-07T08:45:44Z</time>
</trkpt>
<trkpt lat="48.7654990889132" lon="9.956186274066567">
<ele>680.6</ele>
<time>2024-05-07T08:45:45Z</time>
</trkpt>
<trkpt lat="48.76552197150886" lon="9.9561414308846">
<ele>680.6</ele>
<time>2024-05-07T08:45:46Z</time>
</trkpt>
<trkpt lat="48.76554485410452" lon="9.95609851554036">
<ele>680.8</ele>
<time>2024-05-07T08:45:47Z</time>
</trkpt>
<trkpt lat="48.76556396484375" lon="9.956056522205472">
<ele>681</ele>
<time>2024-05-07T08:45:48Z</time>
</trkpt>
<trkpt lat="48.76558684743941" lon="9.956013606861234">
<ele>681.2</ele>
<time>2024-05-07T08:45:49Z</time>
</trkpt>
<trkpt lat="48.76560587435961" lon="9.955971697345376">
<ele>681.4</ele>
<time>2024-05-07T08:45:50Z</time>
</trkpt>
<trkpt lat="48.76562498509884" lon="9.955928782001138">
<ele>681.6</ele>
<time>2024-05-07T08:45:51Z</time>
</trkpt>
<trkpt lat="48.7656478676945" lon="9.955888716503978">
<ele>681.8</ele>
<time>2024-05-07T08:45:52Z</time>
</trkpt>
<trkpt lat="48.7656668946147" lon="9.955848651006818">
<ele>682</ele>
<time>2024-05-07T08:45:53Z</time>
</trkpt>
<trkpt lat="48.76568600535393" lon="9.955806657671928">
<ele>682.2</ele>
<time>2024-05-07T08:45:54Z</time>
</trkpt>
<trkpt lat="48.76570503227413" lon="9.9557666759938">
<ele>682.4</ele>
<time>2024-05-07T08:45:55Z</time>
</trkpt>
<trkpt lat="48.7657202873379" lon="9.955728454515338">
<ele>682.8</ele>
<time>2024-05-07T08:45:56Z</time>
</trkpt>
<trkpt lat="48.76573939807713" lon="9.955690316855907">
<ele>683</ele>
<time>2024-05-07T08:45:57Z</time>
</trkpt>
<trkpt lat="48.76575850881636" lon="9.95564840734005">
<ele>683.2</ele>
<time>2024-05-07T08:45:58Z</time>
</trkpt>
<trkpt lat="48.76578139141202" lon="9.95561026968062">
<ele>683.6</ele>
<time>2024-05-07T08:45:59Z</time>
</trkpt>
<trkpt lat="48.76579664647579" lon="9.95557020418346">
<ele>683.8</ele>
<time>2024-05-07T08:46:00Z</time>
</trkpt>
<trkpt lat="48.76581952907145" lon="9.9555301386863">
<ele>684</ele>
<time>2024-05-07T08:46:01Z</time>
</trkpt>
<trkpt lat="48.76583855599165" lon="9.95549007318914">
<ele>684.2</ele>
<time>2024-05-07T08:46:02Z</time>
</trkpt>
<trkpt lat="48.76586143858731" lon="9.955451935529709">
<ele>684.4</ele>
<time>2024-05-07T08:46:03Z</time>
</trkpt>
<trkpt lat="48.76588054932654" lon="9.955416647717357">
<ele>684.6</ele>
<time>2024-05-07T08:46:04Z</time>
</trkpt>
<trkpt lat="48.7659034319222" lon="9.955378510057926">
<ele>684.8</ele>
<time>2024-05-07T08:46:05Z</time>
</trkpt>
<trkpt lat="48.76591868698597" lon="9.955338444560766">
<ele>685</ele>
<time>2024-05-07T08:46:06Z</time>
</trkpt>
<trkpt lat="48.7659377977252" lon="9.955300306901336">
<ele>685.4</ele>
<time>2024-05-07T08:46:07Z</time>
</trkpt>
<trkpt lat="48.7659568246454" lon="9.955263091251254">
<ele>685.6</ele>
<time>2024-05-07T08:46:08Z</time>
</trkpt>
<trkpt lat="48.76597970724106" lon="9.955229731276631">
<ele>686</ele>
<time>2024-05-07T08:46:09Z</time>
</trkpt>
<trkpt lat="48.76599496230483" lon="9.9551934376359">
<ele>686.2</ele>
<time>2024-05-07T08:46:10Z</time>
</trkpt>
<trkpt lat="48.76601407304406" lon="9.955156305804849">
<ele>686.6</ele>
<time>2024-05-07T08:46:11Z</time>
</trkpt>
<trkpt lat="48.76603309996426" lon="9.955121940001844">
<ele>686.8</ele>
<time>2024-05-07T08:46:12Z</time>
</trkpt>
<trkpt lat="48.76604835502803" lon="9.955084724351764">
<ele>687.2</ele>
<time>2024-05-07T08:46:13Z</time>
</trkpt>
<trkpt lat="48.766067465767264" lon="9.955049436539412">
<ele>687.6</ele>
<time>2024-05-07T08:46:14Z</time>
</trkpt>
<trkpt lat="48.766086576506495" lon="9.95501129887998">
<ele>687.8</ele>
<time>2024-05-07T08:46:15Z</time>
</trkpt>
<trkpt lat="48.76610183157027" lon="9.95497701689601">
<ele>688.2</ele>
<time>2024-05-07T08:46:16Z</time>
</trkpt>
<trkpt lat="48.76612085849047" lon="9.954941729083655">
<ele>688.4</ele>
<time>2024-05-07T08:46:17Z</time>
</trkpt>
<trkpt lat="48.7661399692297" lon="9.954908369109036">
<ele>688.8</ele>
<time>2024-05-07T08:46:18Z</time>
</trkpt>
<trkpt lat="48.76615522429347" lon="9.954873081296682">
<ele>689.2</ele>
<time>2024-05-07T08:46:19Z</time>
</trkpt>
<trkpt lat="48.76617425121367" lon="9.95483678765595">
<ele>689.4</ele>
<time>2024-05-07T08:46:20Z</time>
</trkpt>
<trkpt lat="48.76618950627744" lon="9.954801499843596">
<ele>689.8</ele>
<time>2024-05-07T08:46:21Z</time>
</trkpt>
<trkpt lat="48.766204761341214" lon="9.95475665666163">
<ele>690.2</ele>
<time>2024-05-07T08:46:22Z</time>
</trkpt>
<trkpt lat="48.76622764393687" lon="9.95471952483058">
<ele>690.4</ele>
<time>2024-05-07T08:46:23Z</time>
</trkpt>
<trkpt lat="48.766246754676104" lon="9.954683231189849">
<ele>690.8</ele>
<time>2024-05-07T08:46:24Z</time>
</trkpt>
<trkpt lat="48.76626200973987" lon="9.954647021368146">
<ele>691.2</ele>
<time>2024-05-07T08:46:25Z</time>
</trkpt>
<trkpt lat="48.76628112047911" lon="9.954609805718064">
<ele>691.6</ele>
<time>2024-05-07T08:46:26Z</time>
</trkpt>
<trkpt lat="48.76629637554288" lon="9.954571668058634">
<ele>691.8</ele>
<time>2024-05-07T08:46:27Z</time>
</trkpt>
<trkpt lat="48.76631163060665" lon="9.954534452408552">
<ele>692.2</ele>
<time>2024-05-07T08:46:28Z</time>
</trkpt>
<trkpt lat="48.76633065752685" lon="9.954498242586851">
<ele>692.4</ele>
<time>2024-05-07T08:46:29Z</time>
</trkpt>
<trkpt lat="48.76634976826608" lon="9.954464882612228">
<ele>692.6</ele>
<time>2024-05-07T08:46:30Z</time>
</trkpt>
<trkpt lat="48.76636879518628" lon="9.954429594799876">
<ele>692.8</ele>
<time>2024-05-07T08:46:31Z</time>
</trkpt>
<trkpt lat="48.76638790592551" lon="9.954395228996871">
<ele>693</ele>
<time>2024-05-07T08:46:32Z</time>
</trkpt>
<trkpt lat="48.766403160989285" lon="9.95435994118452">
<ele>693.2</ele>
<time>2024-05-07T08:46:33Z</time>
</trkpt>
<trkpt lat="48.76642227172851" lon="9.954328509047627">
<ele>693.4</ele>
<time>2024-05-07T08:46:34Z</time>
</trkpt>
<trkpt lat="48.76643752679229" lon="9.954296993091702">
<ele>693.6</ele>
<time>2024-05-07T08:46:35Z</time>
</trkpt>
<trkpt lat="48.7664489261806" lon="9.95426363311708">
<ele>694</ele>
<time>2024-05-07T08:46:36Z</time>
</trkpt>
<trkpt lat="48.76646418124437" lon="9.954230273142455">
<ele>694.2</ele>
<time>2024-05-07T08:46:37Z</time>
</trkpt>
<trkpt lat="48.7664832919836" lon="9.954198757186532">
<ele>694.4</ele>
<time>2024-05-07T08:46:38Z</time>
</trkpt>
<trkpt lat="48.76649469137192" lon="9.95416447520256">
<ele>694.6</ele>
<time>2024-05-07T08:46:39Z</time>
</trkpt>
<trkpt lat="48.76651380211115" lon="9.954132037237288">
<ele>694.8</ele>
<time>2024-05-07T08:46:40Z</time>
</trkpt>
<trkpt lat="48.76653282903135" lon="9.954098677262664">
<ele>695</ele>
<time>2024-05-07T08:46:41Z</time>
</trkpt>
<trkpt lat="48.76654808409512" lon="9.95406531728804">
<ele>695.2</ele>
<time>2024-05-07T08:46:42Z</time>
</trkpt>
<trkpt lat="48.76656333915889" lon="9.954031873494388">
<ele>695.4</ele>
<time>2024-05-07T08:46:43Z</time>
</trkpt>
<trkpt lat="48.76658622175455" lon="9.953998513519764">
<ele>695.8</ele>
<time>2024-05-07T08:46:44Z</time>
</trkpt>
<trkpt lat="48.766601560637355" lon="9.953961297869682">
<ele>696</ele>
<time>2024-05-07T08:46:45Z</time>
</trkpt>
<trkpt lat="48.76662444323301" lon="9.95392701588571">
<ele>696.4</ele>
<time>2024-05-07T08:46:46Z</time>
</trkpt>
<trkpt lat="48.76664347015321" lon="9.953889800235627">
<ele>696.6</ele>
<time>2024-05-07T08:46:47Z</time>
</trkpt>
<trkpt lat="48.76666258089245" lon="9.953856440261006">
<ele>697</ele>
<time>2024-05-07T08:46:48Z</time>
</trkpt>
<trkpt lat="48.76668160781264" lon="9.953823080286384">
<ele>697.2</ele>
<time>2024-05-07T08:46:49Z</time>
</trkpt>
<trkpt lat="48.766696862876415" lon="9.95378871448338">
<ele>697.6</ele>
<time>2024-05-07T08:46:50Z</time>
</trkpt>
<trkpt lat="48.766715973615646" lon="9.9537514988333">
<ele>697.8</ele>
<time>2024-05-07T08:46:51Z</time>
</trkpt>
<trkpt lat="48.76673122867942" lon="9.953715289011598">
<ele>698</ele>
<time>2024-05-07T08:46:52Z</time>
</trkpt>
<trkpt lat="48.76675025559962" lon="9.953680001199244">
<ele>698.2</ele>
<time>2024-05-07T08:46:53Z</time>
</trkpt>
<trkpt lat="48.76677322201431" lon="9.953646641224625">
<ele>698.4</ele>
<time>2024-05-07T08:46:54Z</time>
</trkpt>
<trkpt lat="48.76678847707808" lon="9.953608503565192">
<ele>698.6</ele>
<time>2024-05-07T08:46:55Z</time>
</trkpt>
<trkpt lat="48.76680373214185" lon="9.95357128791511">
<ele>698.8</ele>
<time>2024-05-07T08:46:56Z</time>
</trkpt>
<trkpt lat="48.76682275906205" lon="9.953536922112107">
<ele>699</ele>
<time>2024-05-07T08:46:57Z</time>
</trkpt>
<trkpt lat="48.766838014125824" lon="9.953499790281056">
<ele>699.2</ele>
<time>2024-05-07T08:46:58Z</time>
</trkpt>
<trkpt lat="48.766857124865055" lon="9.953464502468703">
<ele>699.6</ele>
<time>2024-05-07T08:46:59Z</time>
</trkpt>
<trkpt lat="48.76687237992883" lon="9.953428208827972">
<ele>699.8</ele>
<time>2024-05-07T08:47:00Z</time>
</trkpt>
<trkpt lat="48.76689140684903" lon="9.95339484885335">
<ele>700</ele>
<time>2024-05-07T08:47:01Z</time>
</trkpt>
<trkpt lat="48.7669066619128" lon="9.953359561040998">
<ele>700.4</ele>
<time>2024-05-07T08:47:02Z</time>
</trkpt>
<trkpt lat="48.76692577265203" lon="9.953325195237994">
<ele>700.6</ele>
<time>2024-05-07T08:47:03Z</time>
</trkpt>
<trkpt lat="48.7669410277158" lon="9.953291835263371">
<ele>700.8</ele>
<time>2024-05-07T08:47:04Z</time>
</trkpt>
<trkpt lat="48.76696013845503" lon="9.953258475288749">
<ele>701</ele>
<time>2024-05-07T08:47:05Z</time>
</trkpt>
<trkpt lat="48.766975393518806" lon="9.953223187476397">
<ele>701.4</ele>
<time>2024-05-07T08:47:06Z</time>
</trkpt>
<trkpt lat="48.766994420439005" lon="9.953189827501774">
<ele>701.6</ele>
<time>2024-05-07T08:47:07Z</time>
</trkpt>
<trkpt lat="48.76701353117824" lon="9.953154539689422">
<ele>701.8</ele>
<time>2024-05-07T08:47:08Z</time>
</trkpt>
<trkpt lat="48.767032558098435" lon="9.953118246048687">
<ele>702</ele>
<time>2024-05-07T08:47:09Z</time>
</trkpt>
<trkpt lat="48.76705166883767" lon="9.953082036226988">
<ele>702.2</ele>
<time>2024-05-07T08:47:10Z</time>
</trkpt>
<trkpt lat="48.76706692390144" lon="9.953044820576906">
<ele>702.4</ele>
<time>2024-05-07T08:47:11Z</time>
</trkpt>
<trkpt lat="48.76708595082164" lon="9.953009532764554">
<ele>702.6</ele>
<time>2024-05-07T08:47:12Z</time>
</trkpt>
<trkpt lat="48.76710506156087" lon="9.952973322942851">
<ele>703</ele>
<time>2024-05-07T08:47:13Z</time>
</trkpt>
<trkpt lat="48.76712031662464" lon="9.9529380351305">
<ele>703.2</ele>
<time>2024-05-07T08:47:14Z</time>
</trkpt>
<trkpt lat="48.7671431992203" lon="9.9529018253088">
<ele>703.4</ele>
<time>2024-05-07T08:47:15Z</time>
</trkpt>
<trkpt lat="48.76716230995953" lon="9.952866537496448">
<ele>703.6</ele>
<time>2024-05-07T08:47:16Z</time>
</trkpt>
<trkpt lat="48.76718133687973" lon="9.952831249684095">
<ele>703.8</ele>
<time>2024-05-07T08:47:17Z</time>
</trkpt>
<trkpt lat="48.76720044761896" lon="9.952794956043364">
<ele>704</ele>
<time>2024-05-07T08:47:18Z</time>
</trkpt>
<trkpt lat="48.76721947453916" lon="9.95275966823101">
<ele>704.2</ele>
<time>2024-05-07T08:47:19Z</time>
</trkpt>
<trkpt lat="48.76723472960293" lon="9.95272538624704">
<ele>704.4</ele>
<time>2024-05-07T08:47:20Z</time>
</trkpt>
<trkpt lat="48.76725384034216" lon="9.952692026272416">
<ele>704.6</ele>
<time>2024-05-07T08:47:21Z</time>
</trkpt>
<trkpt lat="48.76727286726236" lon="9.952658582478762">
<ele>704.8</ele>
<time>2024-05-07T08:47:22Z</time>
</trkpt>
<trkpt lat="48.767291978001595" lon="9.952621450647712">
<ele>705</ele>
<time>2024-05-07T08:47:23Z</time>
</trkpt>
<trkpt lat="48.767311088740826" lon="9.952587084844708">
<ele>705.2</ele>
<time>2024-05-07T08:47:24Z</time>
</trkpt>
<trkpt lat="48.767330115661025" lon="9.952553724870086">
<ele>705.4</ele>
<time>2024-05-07T08:47:25Z</time>
</trkpt>
<trkpt lat="48.76735299825668" lon="9.952518437057734">
<ele>705.6</ele>
<time>2024-05-07T08:47:26Z</time>
</trkpt>
<trkpt lat="48.767368253320456" lon="9.952480299398305">
<ele>705.8</ele>
<time>2024-05-07T08:47:27Z</time>
</trkpt>
<trkpt lat="48.767391135916114" lon="9.95244308374822">
<ele>705.8</ele>
<time>2024-05-07T08:47:28Z</time>
</trkpt>
<trkpt lat="48.767410246655345" lon="9.952404946088793">
<ele>706</ele>
<time>2024-05-07T08:47:29Z</time>
</trkpt>
<trkpt lat="48.767433129251" lon="9.95236965827644">
<ele>706.2</ele>
<time>2024-05-07T08:47:30Z</time>
</trkpt>
<trkpt lat="48.767452239990234" lon="9.952335292473435">
<ele>706.4</ele>
<time>2024-05-07T08:47:31Z</time>
</trkpt>
<trkpt lat="48.767471266910434" lon="9.952296232804656">
<ele>706.4</ele>
<time>2024-05-07T08:47:32Z</time>
</trkpt>
<trkpt lat="48.767490377649665" lon="9.952258095145226">
<ele>706.6</ele>
<time>2024-05-07T08:47:33Z</time>
</trkpt>
<trkpt lat="48.767509404569864" lon="9.952219957485797">
<ele>706.8</ele>
<time>2024-05-07T08:47:34Z</time>
</trkpt>
<trkpt lat="48.767528515309095" lon="9.952179891988637">
<ele>707</ele>
<time>2024-05-07T08:47:35Z</time>
</trkpt>
<trkpt lat="48.767551397904754" lon="9.952139826491477">
<ele>707.2</ele>
<time>2024-05-07T08:47:36Z</time>
</trkpt>
<trkpt lat="48.76757428050041" lon="9.952101688832045">
<ele>707.4</ele>
<time>2024-05-07T08:47:37Z</time>
</trkpt>
<trkpt lat="48.76759330742061" lon="9.952058773487806">
<ele>707.6</ele>
<time>2024-05-07T08:47:38Z</time>
</trkpt>
<trkpt lat="48.76761619001627" lon="9.95201007463038">
<ele>707.8</ele>
<time>2024-05-07T08:47:39Z</time>
</trkpt>
<trkpt lat="48.76763915643096" lon="9.951959531754255">
<ele>707.8</ele>
<time>2024-05-07T08:47:40Z</time>
</trkpt>
<trkpt lat="48.76766203902662" lon="9.951908066868782">
<ele>708</ele>
<time>2024-05-07T08:47:41Z</time>
</trkpt>
<trkpt lat="48.76768492162227" lon="9.951856601983309">
<ele>708.2</ele>
<time>2024-05-07T08:47:42Z</time>
</trkpt>
<trkpt lat="48.767707804217935" lon="9.951803125441074">
<ele>708.2</ele>
<time>2024-05-07T08:47:43Z</time>
</trkpt>
<trkpt lat="48.76773445867002" lon="9.9517516605556">
<ele>708.4</ele>
<time>2024-05-07T08:47:44Z</time>
</trkpt>
<trkpt lat="48.76776119694114" lon="9.951700195670128">
<ele>708.4</ele>
<time>2024-05-07T08:47:45Z</time>
</trkpt>
<trkpt lat="48.7677840795368" lon="9.951649652794003">
<ele>708.4</ele>
<time>2024-05-07T08:47:46Z</time>
</trkpt>
<trkpt lat="48.76781081780791" lon="9.951602881774306">
<ele>708.6</ele>
<time>2024-05-07T08:47:47Z</time>
</trkpt>
<trkpt lat="48.76783747226" lon="9.951553344726563">
<ele>708.6</ele>
<time>2024-05-07T08:47:48Z</time>
</trkpt>
<trkpt lat="48.76786421053112" lon="9.951503723859789">
<ele>708.8</ele>
<time>2024-05-07T08:47:49Z</time>
</trkpt>
<trkpt lat="48.7678908649832" lon="9.951450331136584">
<ele>708.8</ele>
<time>2024-05-07T08:47:50Z</time>
</trkpt>
<trkpt lat="48.76791760325432" lon="9.951395010575652">
<ele>709</ele>
<time>2024-05-07T08:47:51Z</time>
</trkpt>
<trkpt lat="48.7679442577064" lon="9.95133969001472">
<ele>709</ele>
<time>2024-05-07T08:47:52Z</time>
</trkpt>
<trkpt lat="48.76797099597752" lon="9.95127959176898">
<ele>708.8</ele>
<time>2024-05-07T08:47:53Z</time>
</trkpt>
<trkpt lat="48.768001506105065" lon="9.951214715838432">
<ele>708.8</ele>
<time>2024-05-07T08:47:54Z</time>
</trkpt>
<trkpt lat="48.76803201623261" lon="9.951145146042109">
<ele>708.8</ele>
<time>2024-05-07T08:47:55Z</time>
</trkpt>
<trkpt lat="48.76806638203561" lon="9.951066942885518">
<ele>708.6</ele>
<time>2024-05-07T08:47:56Z</time>
</trkpt>
<trkpt lat="48.76809689216316" lon="9.95098203420639">
<ele>708.6</ele>
<time>2024-05-07T08:47:57Z</time>
</trkpt>
<trkpt lat="48.7681274022907" lon="9.950895281508563">
<ele>708.4</ele>
<time>2024-05-07T08:47:58Z</time>
</trkpt>
<trkpt lat="48.768161768093705" lon="9.950799895450473">
<ele>708.4</ele>
<time>2024-05-07T08:47:59Z</time>
</trkpt>
<trkpt lat="48.76819227822125" lon="9.950701659545302">
<ele>708.4</ele>
<time>2024-05-07T08:48:00Z</time>
</trkpt>
<trkpt lat="48.76822656020522" lon="9.950603423640132">
<ele>708.2</ele>
<time>2024-05-07T08:48:01Z</time>
</trkpt>
<trkpt lat="48.768257070332766" lon="9.950503343716264">
<ele>707.8</ele>
<time>2024-05-07T08:48:02Z</time>
</trkpt>
<trkpt lat="48.76829520799219" lon="9.950400330126286">
<ele>707.6</ele>
<time>2024-05-07T08:48:03Z</time>
</trkpt>
<trkpt lat="48.7683295737952" lon="9.950300166383386">
<ele>707.2</ele>
<time>2024-05-07T08:48:04Z</time>
</trkpt>
<trkpt lat="48.76836771145463" lon="9.950206708163025">
<ele>706.8</ele>
<time>2024-05-07T08:48:05Z</time>
</trkpt>
<trkpt lat="48.768398221582174" lon="9.950103694573045">
<ele>706.4</ele>
<time>2024-05-07T08:48:06Z</time>
</trkpt>
<trkpt lat="48.768440214917064" lon="9.950006464496257">
<ele>706</ele>
<time>2024-05-07T08:48:07Z</time>
</trkpt>
<trkpt lat="48.76848220825195" lon="9.949912000447512">
<ele>705.6</ele>
<time>2024-05-07T08:48:08Z</time>
</trkpt>
<trkpt lat="48.768520345911384" lon="9.949816698208451">
<ele>705</ele>
<time>2024-05-07T08:48:09Z</time>
</trkpt>
<trkpt lat="48.76856225542724" lon="9.949714606627822">
<ele>704.6</ele>
<time>2024-05-07T08:48:10Z</time>
</trkpt>
<trkpt lat="48.76860039308667" lon="9.949625004082918">
<ele>704</ele>
<time>2024-05-07T08:48:11Z</time>
</trkpt>
<trkpt lat="48.7686385307461" lon="9.949536323547363">
<ele>703.4</ele>
<time>2024-05-07T08:48:12Z</time>
</trkpt>
<trkpt lat="48.76868052408099" lon="9.949435153976085">
<ele>702.8</ele>
<time>2024-05-07T08:48:13Z</time>
</trkpt>
<trkpt lat="48.768714889883995" lon="9.949321746826172">
<ele>702.2</ele>
<time>2024-05-07T08:48:14Z</time>
</trkpt>
<trkpt lat="48.76875679939985" lon="9.949223510921">
<ele>701.4</ele>
<time>2024-05-07T08:48:15Z</time>
</trkpt>
<trkpt lat="48.76879493705928" lon="9.949132902547715">
<ele>700.8</ele>
<time>2024-05-07T08:48:16Z</time>
</trkpt>
<trkpt lat="48.76882553100586" lon="9.949043216183782">
<ele>700</ele>
<time>2024-05-07T08:48:17Z</time>
</trkpt>
<trkpt lat="48.76884841360152" lon="9.948940202593803">
<ele>699.4</ele>
<time>2024-05-07T08:48:18Z</time>
</trkpt>
<trkpt lat="48.768871296197176" lon="9.948836266994476">
<ele>698.6</ele>
<time>2024-05-07T08:48:19Z</time>
</trkpt>
<trkpt lat="48.768894178792834" lon="9.948736187070608">
<ele>697.8</ele>
<time>2024-05-07T08:48:20Z</time>
</trkpt>
<trkpt lat="48.76891706138849" lon="9.948644572868943">
<ele>697</ele>
<time>2024-05-07T08:48:21Z</time>
</trkpt>
<trkpt lat="48.76894371584058" lon="9.94855497032404">
<ele>696.2</ele>
<time>2024-05-07T08:48:22Z</time>
</trkpt>
<trkpt lat="48.76897808164358" lon="9.948478695005178">
<ele>695.4</ele>
<time>2024-05-07T08:48:23Z</time>
</trkpt>
<trkpt lat="48.76902007497847" lon="9.9484118912369">
<ele>694.8</ele>
<time>2024-05-07T08:48:24Z</time>
</trkpt>
<trkpt lat="48.76906198449433" lon="9.948366126045585">
<ele>694</ele>
<time>2024-05-07T08:48:25Z</time>
</trkpt>
<trkpt lat="48.76911537721753" lon="9.94835372082889">
<ele>693.2</ele>
<time>2024-05-07T08:48:26Z</time>
</trkpt>
<trkpt lat="48.76916499808431" lon="9.94837375357747">
<ele>692.4</ele>
<time>2024-05-07T08:48:27Z</time>
</trkpt>
<trkpt lat="48.76920313574374" lon="9.948443407192826">
<ele>691.8</ele>
<time>2024-05-07T08:48:28Z</time>
</trkpt>
<trkpt lat="48.769229874014854" lon="9.948539715260267">
<ele>691.2</ele>
<time>2024-05-07T08:48:29Z</time>
</trkpt>
<trkpt lat="48.76924512907863" lon="9.948650356382132">
<ele>690.6</ele>
<time>2024-05-07T08:48:30Z</time>
</trkpt>
<trkpt lat="48.76924512907863" lon="9.94876954704523">
<ele>689.8</ele>
<time>2024-05-07T08:48:31Z</time>
</trkpt>
<trkpt lat="48.769229874014854" lon="9.948898293077946">
<ele>689.2</ele>
<time>2024-05-07T08:48:32Z</time>
</trkpt>
<trkpt lat="48.76921076327562" lon="9.94902703911066">
<ele>688.6</ele>
<time>2024-05-07T08:48:33Z</time>
</trkpt>
<trkpt lat="48.76918025314808" lon="9.949141452088952">
<ele>687.8</ele>
<time>2024-05-07T08:48:34Z</time>
</trkpt>
<trkpt lat="48.76915351487696" lon="9.949253015220163">
<ele>687.2</ele>
<time>2024-05-07T08:48:35Z</time>
</trkpt>
<trkpt lat="48.76914588734507" lon="9.949395172297956">
<ele>686.4</ele>
<time>2024-05-07T08:48:36Z</time>
</trkpt>
<trkpt lat="48.769149743020535" lon="9.94952006265521">
<ele>685.6</ele>
<time>2024-05-07T08:48:37Z</time>
</trkpt>
<trkpt lat="48.76916499808431" lon="9.949647886678576">
<ele>685</ele>
<time>2024-05-07T08:48:38Z</time>
</trkpt>
<trkpt lat="48.769187880679965" lon="9.94977948255837">
<ele>684.2</ele>
<time>2024-05-07T08:48:39Z</time>
</trkpt>
<trkpt lat="48.76921076327562" lon="9.949912000447512">
<ele>683.6</ele>
<time>2024-05-07T08:48:40Z</time>
</trkpt>
<trkpt lat="48.769248900935054" lon="9.95005700737238">
<ele>682.8</ele>
<time>2024-05-07T08:48:41Z</time>
</trkpt>
<trkpt lat="48.7692603841424" lon="9.950184747576714">
<ele>682</ele>
<time>2024-05-07T08:48:42Z</time>
</trkpt>
<trkpt lat="48.76929852180183" lon="9.950303016230464">
<ele>681.2</ele>
<time>2024-05-07T08:48:43Z</time>
</trkpt>
<trkpt lat="48.769329031929374" lon="9.950434612110255">
<ele>680.4</ele>
<time>2024-05-07T08:48:44Z</time>
</trkpt>
<trkpt lat="48.76936339773238" lon="9.950561514124274">
<ele>679.6</ele>
<time>2024-05-07T08:48:45Z</time>
</trkpt>
<trkpt lat="48.76939767971635" lon="9.95068833231926">
<ele>678.8</ele>
<time>2024-05-07T08:48:46Z</time>
</trkpt>
<trkpt lat="48.769409162923694" lon="9.950799895450473">
<ele>678</ele>
<time>2024-05-07T08:48:47Z</time>
</trkpt>
<trkpt lat="48.76943967305124" lon="9.950928641483188">
<ele>677.2</ele>
<time>2024-05-07T08:48:48Z</time>
</trkpt>
<trkpt lat="48.769462555646896" lon="9.951058309525251">
<ele>676.4</ele>
<time>2024-05-07T08:48:49Z</time>
</trkpt>
<trkpt lat="48.76948921009898" lon="9.95117942802608">
<ele>675.8</ele>
<time>2024-05-07T08:48:50Z</time>
</trkpt>
<trkpt lat="48.76951980404556" lon="9.95130348019302">
<ele>675</ele>
<time>2024-05-07T08:48:51Z</time>
</trkpt>
<trkpt lat="48.7695503141731" lon="9.951423592865469">
<ele>674.4</ele>
<time>2024-05-07T08:48:52Z</time>
</trkpt>
<trkpt lat="48.76958845183253" lon="9.95153515599668">
<ele>673.6</ele>
<time>2024-05-07T08:48:53Z</time>
</trkpt>
<trkpt lat="48.76962658949196" lon="9.95163531973958">
<ele>672.8</ele>
<time>2024-05-07T08:48:54Z</time>
</trkpt>
<trkpt lat="48.76967612653971" lon="9.951725006103516">
<ele>672</ele>
<time>2024-05-07T08:48:55Z</time>
</trkpt>
<trkpt lat="48.76972960308194" lon="9.951807903125882">
<ele>671.2</ele>
<time>2024-05-07T08:48:56Z</time>
</trkpt>
<trkpt lat="48.76979825086892" lon="9.951876634731889">
<ele>670.4</ele>
<time>2024-05-07T08:48:57Z</time>
</trkpt>
<trkpt lat="48.76988978125155" lon="9.951926171779633">
<ele>669.6</ele>
<time>2024-05-07T08:48:58Z</time>
</trkpt>
<trkpt lat="48.76997753977776" lon="9.951958609744906">
<ele>668.8</ele>
<time>2024-05-07T08:48:59Z</time>
</trkpt>
<trkpt lat="48.77006529830396" lon="9.951985348016024">
<ele>668</ele>
<time>2024-05-07T08:49:00Z</time>
</trkpt>
<trkpt lat="48.770156828686595" lon="9.95201007463038">
<ele>667.4</ele>
<time>2024-05-07T08:49:01Z</time>
</trkpt>
<trkpt lat="48.77029035240412" lon="9.952052989974618">
<ele>666.6</ele>
<time>2024-05-07T08:49:02Z</time>
</trkpt>
<trkpt lat="48.77037811093032" lon="9.952079728245735">
<ele>665.8</ele>
<time>2024-05-07T08:49:03Z</time>
</trkpt>
<trkpt lat="48.77045815810561" lon="9.952104538679125">
<ele>664.8</ele>
<time>2024-05-07T08:49:04Z</time>
</trkpt>
<trkpt lat="48.77056879922747" lon="9.952179891988637">
<ele>664</ele>
<time>2024-05-07T08:49:05Z</time>
</trkpt>
<trkpt lat="48.77066418528557" lon="9.952179891988637">
<ele>663</ele>
<time>2024-05-07T08:49:06Z</time>
</trkpt>
<trkpt lat="48.77072906121611" lon="9.952164636924865">
<ele>662.2</ele>
<time>2024-05-07T08:49:07Z</time>
</trkpt>
<trkpt lat="48.77080148085952" lon="9.952126499265432">
<ele>661.4</ele>
<time>2024-05-07T08:49:08Z</time>
</trkpt>
<trkpt lat="48.77087012864649" lon="9.952064473181965">
<ele>660.4</ele>
<time>2024-05-07T08:49:09Z</time>
</trkpt>
<trkpt lat="48.7709578871727" lon="9.951965315267444">
<ele>659.6</ele>
<time>2024-05-07T08:49:10Z</time>
</trkpt>
<trkpt lat="48.77102276310325" lon="9.951856601983309">
<ele>658.8</ele>
<time>2024-05-07T08:49:11Z</time>
</trkpt>
<trkpt lat="48.77107238397002" lon="9.951758366078138">
<ele>658</ele>
<time>2024-05-07T08:49:12Z</time>
</trkpt>
<trkpt lat="48.77113340422511" lon="9.951666751876472">
<ele>657</ele>
<time>2024-05-07T08:49:13Z</time>
</trkpt>
<trkpt lat="48.771202052012086" lon="9.95157329365611">
<ele>656.2</ele>
<time>2024-05-07T08:49:14Z</time>
</trkpt>
<trkpt lat="48.771266927942634" lon="9.951459802687168">
<ele>655.2</ele>
<time>2024-05-07T08:49:15Z</time>
</trkpt>
<trkpt lat="48.77136985771358" lon="9.951423592865469">
<ele>654.4</ele>
<time>2024-05-07T08:49:16Z</time>
</trkpt>
<trkpt lat="48.771442361176014" lon="9.951328206807377">
<ele>653.4</ele>
<time>2024-05-07T08:49:17Z</time>
</trkpt>
<trkpt lat="48.77151486463845" lon="9.951252937316896">
<ele>652.4</ele>
<time>2024-05-07T08:49:18Z</time>
</trkpt>
<trkpt lat="48.77158351242542" lon="9.95114129036665">
<ele>651.4</ele>
<time>2024-05-07T08:49:19Z</time>
</trkpt>
<trkpt lat="48.77166741527617" lon="9.95106023736298">
<ele>650.6</ele>
<time>2024-05-07T08:49:20Z</time>
</trkpt>
<trkpt lat="48.771759029477835" lon="9.950966779142618">
<ele>649.6</ele>
<time>2024-05-07T08:49:21Z</time>
</trkpt>
<trkpt lat="48.77184670418501" lon="9.950900059193373">
<ele>648.6</ele>
<time>2024-05-07T08:49:22Z</time>
</trkpt>
<trkpt lat="48.771915435791016" lon="9.950797967612743">
<ele>647.8</ele>
<time>2024-05-07T08:49:23Z</time>
</trkpt>
<trkpt lat="48.77198785543442" lon="9.950713142752647">
<ele>646.6</ele>
<time>2024-05-07T08:49:24Z</time>
</trkpt>
<trkpt lat="48.77206798642874" lon="9.950639717280865">
<ele>645.6</ele>
<time>2024-05-07T08:49:25Z</time>
</trkpt>
<trkpt lat="48.77214811742306" lon="9.950559586286545">
<ele>644.6</ele>
<time>2024-05-07T08:49:26Z</time>
</trkpt>
<trkpt lat="48.772232020273805" lon="9.950473755598068">
<ele>643.4</ele>
<time>2024-05-07T08:49:27Z</time>
</trkpt>
<trkpt lat="48.77233503386378" lon="9.950421284884214">
<ele>642.2</ele>
<time>2024-05-07T08:49:28Z</time>
</trkpt>
<trkpt lat="48.77242270857096" lon="9.950365042313932">
<ele>641</ele>
<time>2024-05-07T08:49:29Z</time>
</trkpt>
<trkpt lat="48.772525722160935" lon="9.95032975450158">
<ele>640</ele>
<time>2024-05-07T08:49:30Z</time>
</trkpt>
<trkpt lat="48.772624963894486" lon="9.95029161684215">
<ele>638.8</ele>
<time>2024-05-07T08:49:31Z</time>
</trkpt>
<trkpt lat="48.772743148729205" lon="9.950278205797076">
<ele>637.6</ele>
<time>2024-05-07T08:49:32Z</time>
</trkpt>
<trkpt lat="48.77283090725541" lon="9.950248701497912">
<ele>636.6</ele>
<time>2024-05-07T08:49:33Z</time>
</trkpt>
<trkpt lat="48.77292243763805" lon="9.95025155134499">
<ele>635.6</ele>
<time>2024-05-07T08:49:34Z</time>
</trkpt>
<trkpt lat="48.77300642430782" lon="9.950248701497912">
<ele>634.4</ele>
<time>2024-05-07T08:49:35Z</time>
</trkpt>
<trkpt lat="48.77308269962669" lon="9.950240068137646">
<ele>633.2</ele>
<time>2024-05-07T08:49:36Z</time>
</trkpt>
<trkpt lat="48.77316283062101" lon="9.950220035389066">
<ele>632.2</ele>
<time>2024-05-07T08:49:37Z</time>
</trkpt>
<trkpt lat="48.77324287779629" lon="9.950204780325294">
<ele>631</ele>
<time>2024-05-07T08:49:38Z</time>
</trkpt>
<trkpt lat="48.773319236934185" lon="9.95018952526152">
<ele>630</ele>
<time>2024-05-07T08:49:39Z</time>
</trkpt>
<trkpt lat="48.7733840290457" lon="9.950157087296247">
<ele>629</ele>
<time>2024-05-07T08:49:40Z</time>
</trkpt>
<trkpt lat="48.77344127744436" lon="9.95011517778039">
<ele>627.8</ele>
<time>2024-05-07T08:49:41Z</time>
</trkpt>
<trkpt lat="48.77348704263568" lon="9.950051307678224">
<ele>626.8</ele>
<time>2024-05-07T08:49:42Z</time>
</trkpt>
<trkpt lat="48.77352140843868" lon="9.94997494854033">
<ele>625.8</ele>
<time>2024-05-07T08:49:43Z</time>
</trkpt>
<trkpt lat="48.77354429103434" lon="9.949883418157697">
<ele>625</ele>
<time>2024-05-07T08:49:44Z</time>
</trkpt>
<trkpt lat="48.77354806289077" lon="9.9497814103961">
<ele>624.2</ele>
<time>2024-05-07T08:49:45Z</time>
</trkpt>
<trkpt lat="48.773517552763224" lon="9.94967839680612">
<ele>623.4</ele>
<time>2024-05-07T08:49:46Z</time>
</trkpt>
<trkpt lat="48.77346416004002" lon="9.949589716270566">
<ele>622.6</ele>
<time>2024-05-07T08:49:47Z</time>
</trkpt>
<trkpt lat="48.77340313978493" lon="9.94950002990663">
<ele>621.8</ele>
<time>2024-05-07T08:49:48Z</time>
</trkpt>
<trkpt lat="48.773338263854384" lon="9.94939986616373">
<ele>621</ele>
<time>2024-05-07T08:49:49Z</time>
</trkpt>
<trkpt lat="48.77327338792384" lon="9.949311185628176">
<ele>620.4</ele>
<time>2024-05-07T08:49:50Z</time>
</trkpt>
<trkpt lat="48.773200968280435" lon="9.94920347817242">
<ele>619.6</ele>
<time>2024-05-07T08:49:51Z</time>
</trkpt>
<trkpt lat="48.773128464818" lon="9.949096608906984">
<ele>619</ele>
<time>2024-05-07T08:49:52Z</time>
</trkpt>
<trkpt lat="48.773059817031026" lon="9.948978424072266">
<ele>618.2</ele>
<time>2024-05-07T08:49:53Z</time>
</trkpt>
<trkpt lat="48.77298731356859" lon="9.948863005265594">
<ele>617.6</ele>
<time>2024-05-07T08:49:54Z</time>
</trkpt>
<trkpt lat="48.7729262933135" lon="9.94874951429665">
<ele>616.8</ele>
<time>2024-05-07T08:49:55Z</time>
</trkpt>
<trkpt lat="48.77285764552653" lon="9.948636945337055">
<ele>616</ele>
<time>2024-05-07T08:49:56Z</time>
</trkpt>
<trkpt lat="48.772785142064095" lon="9.948530159890652">
<ele>615.2</ele>
<time>2024-05-07T08:49:57Z</time>
</trkpt>
<trkpt lat="48.772724121809006" lon="9.948423374444246">
<ele>614.4</ele>
<time>2024-05-07T08:49:58Z</time>
</trkpt>
<trkpt lat="48.772666873410344" lon="9.948323210701346">
<ele>613.4</ele>
<time>2024-05-07T08:49:59Z</time>
</trkpt>
<trkpt lat="48.7726173363626" lon="9.948221202939749">
<ele>612.2</ele>
<time>2024-05-07T08:50:00Z</time>
</trkpt>
<trkpt lat="48.77257534302771" lon="9.94811818934977">
<ele>611</ele>
<time>2024-05-07T08:50:01Z</time>
</trkpt>
<trkpt lat="48.77255623228848" lon="9.947988437488675">
<ele>610</ele>
<time>2024-05-07T08:50:02Z</time>
</trkpt>
<trkpt lat="48.77255623228848" lon="9.947846364229918">
<ele>609</ele>
<time>2024-05-07T08:50:03Z</time>
</trkpt>
<trkpt lat="48.77257911488414" lon="9.947694735601544">
<ele>608</ele>
<time>2024-05-07T08:50:04Z</time>
</trkpt>
<trkpt lat="48.772605853155255" lon="9.947549812495708">
<ele>607</ele>
<time>2024-05-07T08:50:05Z</time>
</trkpt>
<trkpt lat="48.7726363632828" lon="9.94740673340857">
<ele>606.2</ele>
<time>2024-05-07T08:50:06Z</time>
</trkpt>
<trkpt lat="48.772666873410344" lon="9.947275137528775">
<ele>605.2</ele>
<time>2024-05-07T08:50:07Z</time>
</trkpt>
<trkpt lat="48.77269361168146" lon="9.947141613811256">
<ele>604.2</ele>
<time>2024-05-07T08:50:08Z</time>
</trkpt>
<trkpt lat="48.77273174934089" lon="9.94699191302061">
<ele>603.4</ele>
<time>2024-05-07T08:50:09Z</time>
</trkpt>
<trkpt lat="48.77276225946843" lon="9.946843134239316">
<ele>602.6</ele>
<time>2024-05-07T08:50:10Z</time>
</trkpt>
<trkpt lat="48.77279276959598" lon="9.946722015738487">
<ele>601.8</ele>
<time>2024-05-07T08:50:11Z</time>
</trkpt>
<trkpt lat="48.7728195078671" lon="9.946581786498427">
<ele>601</ele>
<time>2024-05-07T08:50:12Z</time>
</trkpt>
<trkpt lat="48.772865273058414" lon="9.946445412933826">
<ele>600.2</ele>
<time>2024-05-07T08:50:13Z</time>
</trkpt>
<trkpt lat="48.772903410717845" lon="9.946309961378574">
<ele>599.4</ele>
<time>2024-05-07T08:50:14Z</time>
</trkpt>
<trkpt lat="48.77293392084539" lon="9.946183143183587">
<ele>598.8</ele>
<time>2024-05-07T08:50:15Z</time>
</trkpt>
<trkpt lat="48.77297205850482" lon="9.946060180664063">
<ele>598</ele>
<time>2024-05-07T08:50:16Z</time>
</trkpt>
<trkpt lat="48.77301019616425" lon="9.94592472910881">
<ele>597.4</ele>
<time>2024-05-07T08:50:17Z</time>
</trkpt>
<trkpt lat="48.77305218949914" lon="9.945801682770252">
<ele>596.6</ele>
<time>2024-05-07T08:50:18Z</time>
</trkpt>
<trkpt lat="48.77310172654688" lon="9.945666231215">
<ele>595.8</ele>
<time>2024-05-07T08:50:19Z</time>
</trkpt>
<trkpt lat="48.77314757555723" lon="9.9455298576504">
<ele>595</ele>
<time>2024-05-07T08:50:20Z</time>
</trkpt>
<trkpt lat="48.77319334074855" lon="9.945407817140222">
<ele>594.2</ele>
<time>2024-05-07T08:50:21Z</time>
</trkpt>
<trkpt lat="48.77325050532818" lon="9.945278149098158">
<ele>593.4</ele>
<time>2024-05-07T08:50:22Z</time>
</trkpt>
<trkpt lat="48.7733116094023" lon="9.945170357823372">
<ele>592.4</ele>
<time>2024-05-07T08:50:23Z</time>
</trkpt>
<trkpt lat="48.77335351891816" lon="9.945039683952928">
<ele>591.8</ele>
<time>2024-05-07T08:50:24Z</time>
</trkpt>
<trkpt lat="48.773418394848704" lon="9.944930048659444">
<ele>590.8</ele>
<time>2024-05-07T08:50:25Z</time>
</trkpt>
<trkpt lat="48.77346416004002" lon="9.9448165576905">
<ele>590</ele>
<time>2024-05-07T08:50:26Z</time>
</trkpt>
<trkpt lat="48.7735137809068" lon="9.94469828903675">
<ele>589.2</ele>
<time>2024-05-07T08:50:27Z</time>
</trkpt>
<trkpt lat="48.77356717363" lon="9.944591503590344">
<ele>588.4</ele>
<time>2024-05-07T08:50:28Z</time>
</trkpt>
<trkpt lat="48.77361671067774" lon="9.94448178447783">
<ele>587.6</ele>
<time>2024-05-07T08:50:29Z</time>
</trkpt>
<trkpt lat="48.77367018721998" lon="9.94438354857266">
<ele>586.6</ele>
<time>2024-05-07T08:50:30Z</time>
</trkpt>
<trkpt lat="48.77372357994318" lon="9.944292018190026">
<ele>585.8</ele>
<time>2024-05-07T08:50:31Z</time>
</trkpt>
<trkpt lat="48.773788372054696" lon="9.94420618750155">
<ele>584.8</ele>
<time>2024-05-07T08:50:32Z</time>
</trkpt>
<trkpt lat="48.7738571036607" lon="9.944134689867496">
<ele>584</ele>
<time>2024-05-07T08:50:33Z</time>
</trkpt>
<trkpt lat="48.77394477836788" lon="9.9440879188478">
<ele>583.2</ele>
<time>2024-05-07T08:50:34Z</time>
</trkpt>
<trkpt lat="48.77403639256954" lon="9.944076519459486">
<ele>582.4</ele>
<time>2024-05-07T08:50:35Z</time>
</trkpt>
<trkpt lat="48.77411643974483" lon="9.94402782060206">
<ele>581.4</ele>
<time>2024-05-07T08:50:36Z</time>
</trkpt>
<trkpt lat="48.77419657073915" lon="9.943993538618088">
<ele>580.6</ele>
<time>2024-05-07T08:50:37Z</time>
</trkpt>
<trkpt lat="48.774269074201584" lon="9.943944923579693">
<ele>579.6</ele>
<time>2024-05-07T08:50:38Z</time>
</trkpt>
<trkpt lat="48.77433009445667" lon="9.943876191973686">
<ele>578.8</ele>
<time>2024-05-07T08:50:39Z</time>
</trkpt>
<trkpt lat="48.774383487179875" lon="9.943797988817096">
<ele>577.8</ele>
<time>2024-05-07T08:50:40Z</time>
</trkpt>
<trkpt lat="48.77441785298288" lon="9.943703608587384">
<ele>577</ele>
<time>2024-05-07T08:50:41Z</time>
</trkpt>
<trkpt lat="48.77441785298288" lon="9.94359489530325">
<ele>576.2</ele>
<time>2024-05-07T08:50:42Z</time>
</trkpt>
<trkpt lat="48.77440259791911" lon="9.943489953875542">
<ele>575.4</ele>
<time>2024-05-07T08:50:43Z</time>
</trkpt>
<trkpt lat="48.77437208779156" lon="9.943387946113944">
<ele>574.8</ele>
<time>2024-05-07T08:50:44Z</time>
</trkpt>
<trkpt lat="48.77431098371744" lon="9.943293565884233">
<ele>574</ele>
<time>2024-05-07T08:50:45Z</time>
</trkpt>
<trkpt lat="48.77423856407404" lon="9.94321821257472">
<ele>573.4</ele>
<time>2024-05-07T08:50:46Z</time>
</trkpt>
<trkpt lat="48.774169916287065" lon="9.943130454048514">
<ele>572.8</ele>
<time>2024-05-07T08:50:47Z</time>
</trkpt>
<trkpt lat="48.77411643974483" lon="9.943016963079572">
<ele>572</ele>
<time>2024-05-07T08:50:48Z</time>
</trkpt>
<trkpt lat="48.7740783020854" lon="9.942879667505622">
<ele>571.4</ele>
<time>2024-05-07T08:50:49Z</time>
</trkpt>
<trkpt lat="48.77406304702163" lon="9.942733738571404">
<ele>570.6</ele>
<time>2024-05-07T08:50:50Z</time>
</trkpt>
<trkpt lat="48.774051647633314" lon="9.942569704726338">
<ele>570</ele>
<time>2024-05-07T08:50:51Z</time>
</trkpt>
<trkpt lat="48.7740592751652" lon="9.942417070269585">
<ele>569.2</ele>
<time>2024-05-07T08:50:52Z</time>
</trkpt>
<trkpt lat="48.7740592751652" lon="9.942248342558742">
<ele>568.6</ele>
<time>2024-05-07T08:50:53Z</time>
</trkpt>
<trkpt lat="48.77406304702163" lon="9.942090008407831">
<ele>568</ele>
<time>2024-05-07T08:50:54Z</time>
</trkpt>
<trkpt lat="48.774066902697086" lon="9.941929746419191">
<ele>567.4</ele>
<time>2024-05-07T08:50:55Z</time>
</trkpt>
<trkpt lat="48.7740783020854" lon="9.941769568249583">
<ele>566.6</ele>
<time>2024-05-07T08:50:56Z</time>
</trkpt>
<trkpt lat="48.77407453022897" lon="9.94159790687263">
<ele>566</ele>
<time>2024-05-07T08:50:57Z</time>
</trkpt>
<trkpt lat="48.774089785292745" lon="9.94144150055945">
<ele>565.4</ele>
<time>2024-05-07T08:50:58Z</time>
</trkpt>
<trkpt lat="48.77411643974483" lon="9.94128316640854">
<ele>564.6</ele>
<time>2024-05-07T08:50:59Z</time>
</trkpt>
<trkpt lat="48.774147033691406" lon="9.94112491607666">
<ele>564</ele>
<time>2024-05-07T08:51:00Z</time>
</trkpt>
<trkpt lat="48.77417754381895" lon="9.940971359610558">
<ele>563.2</ele>
<time>2024-05-07T08:51:01Z</time>
</trkpt>
<trkpt lat="48.774208053946495" lon="9.940830208361149">
<ele>562.6</ele>
<time>2024-05-07T08:51:02Z</time>
</trkpt>
<trkpt lat="48.774246191605926" lon="9.94068805128336">
<ele>562.2</ele>
<time>2024-05-07T08:51:03Z</time>
</trkpt>
<trkpt lat="48.77428810112178" lon="9.940543128177524">
<ele>561.6</ele>
<time>2024-05-07T08:51:04Z</time>
</trkpt>
<trkpt lat="48.77431098371744" lon="9.940420081838964">
<ele>561</ele>
<time>2024-05-07T08:51:05Z</time>
</trkpt>
<trkpt lat="48.77436446025968" lon="9.940290413796902">
<ele>560.6</ele>
<time>2024-05-07T08:51:06Z</time>
</trkpt>
<trkpt lat="48.774406369775534" lon="9.94015689007938">
<ele>560.2</ele>
<time>2024-05-07T08:51:07Z</time>
</trkpt>
<trkpt lat="48.77444450743496" lon="9.940032921731472">
<ele>559.8</ele>
<time>2024-05-07T08:51:08Z</time>
</trkpt>
<trkpt lat="48.77447501756251" lon="9.939914653077722">
<ele>559.6</ele>
<time>2024-05-07T08:51:09Z</time>
</trkpt>
<trkpt lat="48.77450938336551" lon="9.93980024009943">
<ele>559.2</ele>
<time>2024-05-07T08:51:10Z</time>
</trkpt>
<trkpt lat="48.774539893493056" lon="9.939684821292758">
<ele>558.8</ele>
<time>2024-05-07T08:51:11Z</time>
</trkpt>
<trkpt lat="48.7745704036206" lon="9.939571330323815">
<ele>558.6</ele>
<time>2024-05-07T08:51:12Z</time>
</trkpt>
<trkpt lat="48.774600913748145" lon="9.93946454487741">
<ele>558.2</ele>
<time>2024-05-07T08:51:13Z</time>
</trkpt>
<trkpt lat="48.77463142387569" lon="9.939361531287432">
<ele>558</ele>
<time>2024-05-07T08:51:14Z</time>
</trkpt>
<trkpt lat="48.774662017822266" lon="9.939260445535185">
<ele>557.8</ele>
<time>2024-05-07T08:51:15Z</time>
</trkpt>
<trkpt lat="48.77468867227435" lon="9.939154582098126">
<ele>557.4</ele>
<time>2024-05-07T08:51:16Z</time>
</trkpt>
<trkpt lat="48.774719182401896" lon="9.939051568508148">
<ele>557.2</ele>
<time>2024-05-07T08:51:17Z</time>
</trkpt>
<trkpt lat="48.77474592067301" lon="9.93894855491817">
<ele>556.8</ele>
<time>2024-05-07T08:51:18Z</time>
</trkpt>
<trkpt lat="48.77477643080056" lon="9.938844619318845">
<ele>556.6</ele>
<time>2024-05-07T08:51:19Z</time>
</trkpt>
<trkpt lat="48.77480308525264" lon="9.938743533566594">
<ele>556.4</ele>
<time>2024-05-07T08:51:20Z</time>
</trkpt>
<trkpt lat="48.77483367919922" lon="9.938639597967269">
<ele>556.2</ele>
<time>2024-05-07T08:51:21Z</time>
</trkpt>
<trkpt lat="48.77486418932676" lon="9.93853465653956">
<ele>556</ele>
<time>2024-05-07T08:51:22Z</time>
</trkpt>
<trkpt lat="48.774898471310735" lon="9.938425021246076">
<ele>555.6</ele>
<time>2024-05-07T08:51:23Z</time>
</trkpt>
<trkpt lat="48.77493283711374" lon="9.93831630796194">
<ele>555.6</ele>
<time>2024-05-07T08:51:24Z</time>
</trkpt>
<trkpt lat="48.77496711909771" lon="9.938206672668455">
<ele>555.2</ele>
<time>2024-05-07T08:51:25Z</time>
</trkpt>
<trkpt lat="48.77500534057617" lon="9.93809787556529">
<ele>555</ele>
<time>2024-05-07T08:51:26Z</time>
</trkpt>
<trkpt lat="48.77504725009203" lon="9.937992095947266">
<ele>554.8</ele>
<time>2024-05-07T08:51:27Z</time>
</trkpt>
<trkpt lat="48.77508924342692" lon="9.9378814548254">
<ele>554.6</ele>
<time>2024-05-07T08:51:28Z</time>
</trkpt>
<trkpt lat="48.77513500861824" lon="9.937771735712886">
<ele>554.2</ele>
<time>2024-05-07T08:51:29Z</time>
</trkpt>
<trkpt lat="48.77518077380955" lon="9.937663022428753">
<ele>553.8</ele>
<time>2024-05-07T08:51:30Z</time>
</trkpt>
<trkpt lat="48.77522653900087" lon="9.937556236982346">
<ele>553.4</ele>
<time>2024-05-07T08:51:31Z</time>
</trkpt>
<trkpt lat="48.775272304192185" lon="9.937451295554638">
<ele>553</ele>
<time>2024-05-07T08:51:32Z</time>
</trkpt>
<trkpt lat="48.77532192505896" lon="9.937346437945962">
<ele>552.6</ele>
<time>2024-05-07T08:51:33Z</time>
</trkpt>
<trkpt lat="48.775371545925736" lon="9.937241496518254">
<ele>552.2</ele>
<time>2024-05-07T08:51:34Z</time>
</trkpt>
<trkpt lat="48.77542108297348" lon="9.937138482928276">
<ele>551.6</ele>
<time>2024-05-07T08:51:35Z</time>
</trkpt>
<trkpt lat="48.77547447569668" lon="9.937034547328947">
<ele>551.2</ele>
<time>2024-05-07T08:51:36Z</time>
</trkpt>
<trkpt lat="48.775531724095345" lon="9.936929689720271">
<ele>550.6</ele>
<time>2024-05-07T08:51:37Z</time>
</trkpt>
<trkpt lat="48.775588972494006" lon="9.936822820454836">
<ele>550.2</ele>
<time>2024-05-07T08:51:38Z</time>
</trkpt>
<trkpt lat="48.77564236521721" lon="9.93671796284616">
<ele>549.6</ele>
<time>2024-05-07T08:51:39Z</time>
</trkpt>
<trkpt lat="48.7757033854723" lon="9.936614949256182">
<ele>549</ele>
<time>2024-05-07T08:51:40Z</time>
</trkpt>
<trkpt lat="48.77576063387096" lon="9.936511935666203">
<ele>548.4</ele>
<time>2024-05-07T08:51:41Z</time>
</trkpt>
<trkpt lat="48.775825425982475" lon="9.936407078057528">
<ele>547.8</ele>
<time>2024-05-07T08:51:42Z</time>
</trkpt>
<trkpt lat="48.77588653005659" lon="9.936303058639169">
<ele>547.2</ele>
<time>2024-05-07T08:51:43Z</time>
</trkpt>
<trkpt lat="48.775943694636226" lon="9.936196273192763">
<ele>546.6</ele>
<time>2024-05-07T08:51:44Z</time>
</trkpt>
<trkpt lat="48.776004714891315" lon="9.936090409755709">
<ele>546</ele>
<time>2024-05-07T08:51:45Z</time>
</trkpt>
<trkpt lat="48.776061963289976" lon="9.935975074768066">
<ele>545.4</ele>
<time>2024-05-07T08:51:46Z</time>
</trkpt>
<trkpt lat="48.77614586614072" lon="9.935874911025168">
<ele>544.6</ele>
<time>2024-05-07T08:51:47Z</time>
</trkpt>
<trkpt lat="48.77621074207127" lon="9.935763347893952">
<ele>544</ele>
<time>2024-05-07T08:51:48Z</time>
</trkpt>
<trkpt lat="48.77628701739013" lon="9.935661256313324">
<ele>543.4</ele>
<time>2024-05-07T08:51:49Z</time>
</trkpt>
<trkpt lat="48.77635566517711" lon="9.93555162101984">
<ele>542.6</ele>
<time>2024-05-07T08:51:50Z</time>
</trkpt>
<trkpt lat="48.7764510512352" lon="9.935446679592133">
<ele>542</ele>
<time>2024-05-07T08:51:51Z</time>
</trkpt>
<trkpt lat="48.77650829963386" lon="9.93531508371234">
<ele>541.2</ele>
<time>2024-05-07T08:51:52Z</time>
</trkpt>
<trkpt lat="48.77659605816007" lon="9.935213075950742">
<ele>540.2</ele>
<time>2024-05-07T08:51:53Z</time>
</trkpt>
<trkpt lat="48.77668373286724" lon="9.9351167678833">
<ele>539.2</ele>
<time>2024-05-07T08:51:54Z</time>
</trkpt>
<trkpt lat="48.77678297460079" lon="9.935023225843906">
<ele>538.2</ele>
<time>2024-05-07T08:51:55Z</time>
</trkpt>
<trkpt lat="48.77688213251531" lon="9.934931695461271">
<ele>537.2</ele>
<time>2024-05-07T08:51:56Z</time>
</trkpt>
<trkpt lat="48.77698514610529" lon="9.934846870601175">
<ele>536.4</ele>
<time>2024-05-07T08:51:57Z</time>
</trkpt>
<trkpt lat="48.77708815969527" lon="9.934746706858276">
<ele>535.4</ele>
<time>2024-05-07T08:51:58Z</time>
</trkpt>
<trkpt lat="48.77718731760979" lon="9.934648470953109">
<ele>534.2</ele>
<time>2024-05-07T08:51:59Z</time>
</trkpt>
<trkpt lat="48.777290331199765" lon="9.934555012732744">
<ele>533.4</ele>
<time>2024-05-07T08:52:00Z</time>
</trkpt>
<trkpt lat="48.77739326097071" lon="9.934454848989844">
<ele>532.2</ele>
<time>2024-05-07T08:52:01Z</time>
</trkpt>
<trkpt lat="48.7774886470288" lon="9.934361390769482">
<ele>531.4</ele>
<time>2024-05-07T08:52:02Z</time>
</trkpt>
<trkpt lat="48.77759928815067" lon="9.934278409928083">
<ele>530.4</ele>
<time>2024-05-07T08:52:03Z</time>
</trkpt>
<trkpt lat="48.777702301740646" lon="9.934203140437605">
<ele>529.4</ele>
<time>2024-05-07T08:52:04Z</time>
</trkpt>
<trkpt lat="48.77779768779874" lon="9.934116303920746">
<ele>528.6</ele>
<time>2024-05-07T08:52:05Z</time>
</trkpt>
<trkpt lat="48.77788536250591" lon="9.934033323079348">
<ele>527.8</ele>
<time>2024-05-07T08:52:06Z</time>
</trkpt>
<trkpt lat="48.77795409411192" lon="9.933939864858983">
<ele>527.2</ele>
<time>2024-05-07T08:52:07Z</time>
</trkpt>
<trkpt lat="48.77804562449455" lon="9.933868367224932">
<ele>526.4</ele>
<time>2024-05-07T08:52:08Z</time>
</trkpt>
<trkpt lat="48.778141010552645" lon="9.933794941753147">
<ele>525.6</ele>
<time>2024-05-07T08:52:09Z</time>
</trkpt>
<trkpt lat="48.77821343019605" lon="9.9337128829211">
<ele>525</ele>
<time>2024-05-07T08:52:10Z</time>
</trkpt>
<trkpt lat="48.778297416865826" lon="9.933641385287046">
<ele>524.4</ele>
<time>2024-05-07T08:52:11Z</time>
</trkpt>
<trkpt lat="48.77836983650923" lon="9.933571815490724">
<ele>523.8</ele>
<time>2024-05-07T08:52:12Z</time>
</trkpt>
<trkpt lat="48.77844619564712" lon="9.933501239866018">
<ele>523.4</ele>
<time>2024-05-07T08:52:13Z</time>
</trkpt>
<trkpt lat="48.77851861529052" lon="9.933433514088392">
<ele>523</ele>
<time>2024-05-07T08:52:14Z</time>
</trkpt>
<trkpt lat="48.77859111875296" lon="9.933369560167192">
<ele>522.599</ele>
<time>2024-05-07T08:52:15Z</time>
</trkpt>
<trkpt lat="48.778655994683504" lon="9.933308539912105">
<ele>522.2</ele>
<time>2024-05-07T08:52:16Z</time>
</trkpt>
<trkpt lat="48.77872078679502" lon="9.933250369504094">
<ele>521.8</ele>
<time>2024-05-07T08:52:17Z</time>
</trkpt>
<trkpt lat="48.77877803519368" lon="9.933193204924464">
<ele>521.4</ele>
<time>2024-05-07T08:52:18Z</time>
</trkpt>
<trkpt lat="48.77883528359234" lon="9.933137884363532">
<ele>521.2</ele>
<time>2024-05-07T08:52:19Z</time>
</trkpt>
<trkpt lat="48.77889244817197" lon="9.933086335659029">
<ele>521</ele>
<time>2024-05-07T08:52:20Z</time>
</trkpt>
<trkpt lat="48.778945840895176" lon="9.933034870773554">
<ele>520.8</ele>
<time>2024-05-07T08:52:21Z</time>
</trkpt>
<trkpt lat="48.77899931743741" lon="9.932983322069049">
<ele>520.8</ele>
<time>2024-05-07T08:52:22Z</time>
</trkpt>
<trkpt lat="48.77905271016061" lon="9.932936634868383">
<ele>520.599</ele>
<time>2024-05-07T08:52:23Z</time>
</trkpt>
<trkpt lat="48.779106102883816" lon="9.932888019829988">
<ele>520.599</ele>
<time>2024-05-07T08:52:24Z</time>
</trkpt>
<trkpt lat="48.77915949560702" lon="9.932841248810291">
<ele>520.599</ele>
<time>2024-05-07T08:52:25Z</time>
</trkpt>
<trkpt lat="48.77921288833022" lon="9.932793555781243">
<ele>520.599</ele>
<time>2024-05-07T08:52:26Z</time>
</trkpt>
<trkpt lat="48.779262509197" lon="9.932748712599276">
<ele>520.599</ele>
<time>2024-05-07T08:52:27Z</time>
</trkpt>
<trkpt lat="48.7793159019202" lon="9.932702025398612">
<ele>520.599</ele>
<time>2024-05-07T08:52:28Z</time>
</trkpt>
<trkpt lat="48.7793692946434" lon="9.932658188045025">
<ele>520.8</ele>
<time>2024-05-07T08:52:29Z</time>
</trkpt>
<trkpt lat="48.77943031489849" lon="9.93262474425137">
<ele>520.8</ele>
<time>2024-05-07T08:52:30Z</time>
</trkpt>
<trkpt lat="48.779502818360925" lon="9.932596161961555">
<ele>521</ele>
<time>2024-05-07T08:52:31Z</time>
</trkpt>
<trkpt lat="48.77957532182336" lon="9.93256850168109">
<ele>520.8</ele>
<time>2024-05-07T08:52:32Z</time>
</trkpt>
<trkpt lat="48.77964782528579" lon="9.932533213868735">
<ele>520.599</ele>
<time>2024-05-07T08:52:33Z</time>
</trkpt>
<trkpt lat="48.77972410060465" lon="9.932497926056383">
<ele>520.4</ele>
<time>2024-05-07T08:52:34Z</time>
</trkpt>
<trkpt lat="48.77980414777994" lon="9.932463644072412">
<ele>520.4</ele>
<time>2024-05-07T08:52:35Z</time>
</trkpt>
<trkpt lat="48.77988427877426" lon="9.932423578575252">
<ele>520.2</ele>
<time>2024-05-07T08:52:36Z</time>
</trkpt>
<trkpt lat="48.77997203730047" lon="9.932386362925172">
<ele>519.8</ele>
<time>2024-05-07T08:52:37Z</time>
</trkpt>
<trkpt lat="48.78005979582667" lon="9.932351997122169">
<ele>519.599</ele>
<time>2024-05-07T08:52:38Z</time>
</trkpt>
<trkpt lat="48.78015132620931" lon="9.93231486529112">
<ele>519.2</ele>
<time>2024-05-07T08:52:39Z</time>
</trkpt>
<trkpt lat="48.78024285659194" lon="9.932276643812656">
<ele>519</ele>
<time>2024-05-07T08:52:40Z</time>
</trkpt>
<trkpt lat="48.780334470793605" lon="9.932239511981606">
<ele>518.599</ele>
<time>2024-05-07T08:52:41Z</time>
</trkpt>
<trkpt lat="48.780429773032665" lon="9.932201374322176">
<ele>518</ele>
<time>2024-05-07T08:52:42Z</time>
</trkpt>
<trkpt lat="48.78052138723433" lon="9.932163236662744">
<ele>517.599</ele>
<time>2024-05-07T08:52:43Z</time>
</trkpt>
<trkpt lat="48.78061291761696" lon="9.93213364854455">
<ele>517</ele>
<time>2024-05-07T08:52:44Z</time>
</trkpt>
<trkpt lat="48.7807044479996" lon="9.93209358304739">
<ele>516.4</ele>
<time>2024-05-07T08:52:45Z</time>
</trkpt>
<trkpt lat="48.7807922065258" lon="9.93205443955958">
<ele>515.8</ele>
<time>2024-05-07T08:52:46Z</time>
</trkpt>
<trkpt lat="48.78090284764767" lon="9.932016301900148">
<ele>515.2</ele>
<time>2024-05-07T08:52:47Z</time>
</trkpt>
<trkpt lat="48.78100963309407" lon="9.931989647448065">
<ele>514.599</ele>
<time>2024-05-07T08:52:48Z</time>
</trkpt>
<trkpt lat="48.781101163476706" lon="9.931944804266095">
<ele>514</ele>
<time>2024-05-07T08:52:49Z</time>
</trkpt>
<trkpt lat="48.78120803274214" lon="9.93191622197628">
<ele>513.4</ele>
<time>2024-05-07T08:52:50Z</time>
</trkpt>
<trkpt lat="48.781318590044975" lon="9.931882778182626">
<ele>512.599</ele>
<time>2024-05-07T08:52:51Z</time>
</trkpt>
<trkpt lat="48.781436858698726" lon="9.93189811706543">
<ele>511.8</ele>
<time>2024-05-07T08:52:52Z</time>
</trkpt>
<trkpt lat="48.78155135549605" lon="9.931873306632042">
<ele>511</ele>
<time>2024-05-07T08:52:53Z</time>
</trkpt>
<trkpt lat="48.78167339600623" lon="9.93187515065074">
<ele>510</ele>
<time>2024-05-07T08:52:54Z</time>
</trkpt>
<trkpt lat="48.78179166465998" lon="9.93189811706543">
<ele>509.2</ele>
<time>2024-05-07T08:52:55Z</time>
</trkpt>
<trkpt lat="48.78192133270204" lon="9.931903816759586">
<ele>508.2</ele>
<time>2024-05-07T08:52:56Z</time>
</trkpt>
<trkpt lat="48.782051084563136" lon="9.931903816759586">
<ele>507.4</ele>
<time>2024-05-07T08:52:57Z</time>
</trkpt>
<trkpt lat="48.78216164186597" lon="9.93189518339932">
<ele>506.6</ele>
<time>2024-05-07T08:52:58Z</time>
</trkpt>
<trkpt lat="48.78229516558349" lon="9.93193524889648">
<ele>505.6</ele>
<time>2024-05-07T08:52:59Z</time>
</trkpt>
<trkpt lat="48.782409662380815" lon="9.931980092078447">
<ele>504.6</ele>
<time>2024-05-07T08:53:00Z</time>
</trkpt>
<trkpt lat="48.78253170289099" lon="9.932040190324187">
<ele>503.8</ele>
<time>2024-05-07T08:53:01Z</time>
</trkpt>
<trkpt lat="48.78265759907663" lon="9.93209450505674">
<ele>502.8</ele>
<time>2024-05-07T08:53:02Z</time>
</trkpt>
<trkpt lat="48.782779639586806" lon="9.932180335745215">
<ele>501.6</ele>
<time>2024-05-07T08:53:03Z</time>
</trkpt>
<trkpt lat="48.782901763916016" lon="9.93226809427142">
<ele>500.6</ele>
<time>2024-05-07T08:53:04Z</time>
</trkpt>
<trkpt lat="48.783019948750734" lon="9.932354846969249">
<ele>499.6</ele>
<time>2024-05-07T08:53:05Z</time>
</trkpt>
<trkpt lat="48.7831305898726" lon="9.9324712716043">
<ele>498.6</ele>
<time>2024-05-07T08:53:06Z</time>
</trkpt>
<trkpt lat="48.78323737531901" lon="9.932582834735513">
<ele>497.6</ele>
<time>2024-05-07T08:53:07Z</time>
</trkpt>
<trkpt lat="48.78334424458444" lon="9.932689620181918">
<ele>496.8</ele>
<time>2024-05-07T08:53:08Z</time>
</trkpt>
<trkpt lat="48.78343200311065" lon="9.93280503898859">
<ele>495.8</ele>
<time>2024-05-07T08:53:09Z</time>
</trkpt>
<trkpt lat="48.78353116102517" lon="9.932918529957533">
<ele>495</ele>
<time>2024-05-07T08:53:10Z</time>
</trkpt>
<trkpt lat="48.7836226914078" lon="9.933025315403938">
<ele>494.2</ele>
<time>2024-05-07T08:53:11Z</time>
</trkpt>
<trkpt lat="48.78372184932232" lon="9.933151211589577">
<ele>493.4</ele>
<time>2024-05-07T08:53:12Z</time>
</trkpt>
<trkpt lat="48.78379820846021" lon="9.933266630396249">
<ele>492.8</ele>
<time>2024-05-07T08:53:13Z</time>
</trkpt>
<trkpt lat="48.783889738842845" lon="9.933368638157845">
<ele>492.2</ele>
<time>2024-05-07T08:53:14Z</time>
</trkpt>
<trkpt lat="48.78398126922548" lon="9.933466874063017">
<ele>491.6</ele>
<time>2024-05-07T08:53:15Z</time>
</trkpt>
<trkpt lat="48.78405754454434" lon="9.9335765093565">
<ele>491.2</ele>
<time>2024-05-07T08:53:16Z</time>
</trkpt>
<trkpt lat="48.78413004800677" lon="9.93369477801025">
<ele>490.8</ele>
<time>2024-05-07T08:53:17Z</time>
</trkpt>
<trkpt lat="48.78419492393732" lon="9.933778680860996">
<ele>490.4</ele>
<time>2024-05-07T08:53:18Z</time>
</trkpt>
<trkpt lat="48.78425971604884" lon="9.933868367224932">
<ele>490.2</ele>
<time>2024-05-07T08:53:19Z</time>
</trkpt>
<trkpt lat="48.78433221951127" lon="9.933948498219252">
<ele>489.8</ele>
<time>2024-05-07T08:53:20Z</time>
</trkpt>
<trkpt lat="48.78439323976636" lon="9.934042878448963">
<ele>489.6</ele>
<time>2024-05-07T08:53:21Z</time>
</trkpt>
<trkpt lat="48.78445434384048" lon="9.93412870913744">
<ele>489.6</ele>
<time>2024-05-07T08:53:22Z</time>
</trkpt>
<trkpt lat="48.78451150842011" lon="9.934211689978838">
<ele>489.4</ele>
<time>2024-05-07T08:53:23Z</time>
</trkpt>
<trkpt lat="48.78456490114331" lon="9.934293664991856">
<ele>489.2</ele>
<time>2024-05-07T08:53:24Z</time>
</trkpt>
<trkpt lat="48.78461837768555" lon="9.934374801814556">
<ele>489.2</ele>
<time>2024-05-07T08:53:25Z</time>
</trkpt>
<trkpt lat="48.78467177040875" lon="9.934456776827574">
<ele>489</ele>
<time>2024-05-07T08:53:26Z</time>
</trkpt>
<trkpt lat="48.78472516313195" lon="9.934537829831244">
<ele>488.8</ele>
<time>2024-05-07T08:53:27Z</time>
</trkpt>
<trkpt lat="48.784774700179696" lon="9.93462173268199">
<ele>488.6</ele>
<time>2024-05-07T08:53:28Z</time>
</trkpt>
<trkpt lat="48.78482432104647" lon="9.93470379151404">
<ele>488.6</ele>
<time>2024-05-07T08:53:29Z</time>
</trkpt>
<trkpt lat="48.78487008623779" lon="9.934784844517708">
<ele>488.4</ele>
<time>2024-05-07T08:53:30Z</time>
</trkpt>
<trkpt lat="48.784915851429105" lon="9.934867825359106">
<ele>488.4</ele>
<time>2024-05-07T08:53:31Z</time>
</trkpt>
<trkpt lat="48.784957844763994" lon="9.934947956353426">
<ele>488.2</ele>
<time>2024-05-07T08:53:32Z</time>
</trkpt>
<trkpt lat="48.78499983809888" lon="9.935029931366444">
<ele>488.2</ele>
<time>2024-05-07T08:53:33Z</time>
</trkpt>
<trkpt lat="48.7850456032902" lon="9.935105284675956">
<ele>488</ele>
<time>2024-05-07T08:53:34Z</time>
</trkpt>
<trkpt lat="48.78509136848152" lon="9.935179632157087">
<ele>488</ele>
<time>2024-05-07T08:53:35Z</time>
</trkpt>
<trkpt lat="48.785133361816406" lon="9.935257835313678">
<ele>487.8</ele>
<time>2024-05-07T08:53:36Z</time>
</trkpt>
<trkpt lat="48.785175271332264" lon="9.935337044298649">
<ele>487.8</ele>
<time>2024-05-07T08:53:37Z</time>
</trkpt>
<trkpt lat="48.78521726466715" lon="9.935418097302318">
<ele>487.6</ele>
<time>2024-05-07T08:53:38Z</time>
</trkpt>
<trkpt lat="48.785255402326584" lon="9.935496300458908">
<ele>487.6</ele>
<time>2024-05-07T08:53:39Z</time>
</trkpt>
<trkpt lat="48.7853011675179" lon="9.935578275471926">
<ele>487.4</ele>
<time>2024-05-07T08:53:40Z</time>
</trkpt>
<trkpt lat="48.78533930517733" lon="9.935653628781438">
<ele>487.2</ele>
<time>2024-05-07T08:53:41Z</time>
</trkpt>
<trkpt lat="48.785373670980334" lon="9.935721354559064">
<ele>487</ele>
<time>2024-05-07T08:53:42Z</time>
</trkpt>
<trkpt lat="48.785407952964306" lon="9.93578807450831">
<ele>486.6</ele>
<time>2024-05-07T08:53:43Z</time>
</trkpt>
<trkpt lat="48.78544231876731" lon="9.935856806114316">
<ele>486.4</ele>
<time>2024-05-07T08:53:44Z</time>
</trkpt>
<trkpt lat="48.78547668457031" lon="9.93592444807291">
<ele>486</ele>
<time>2024-05-07T08:53:45Z</time>
</trkpt>
<trkpt lat="48.78550719469786" lon="9.935991251841187">
<ele>485.8</ele>
<time>2024-05-07T08:53:46Z</time>
</trkpt>
<trkpt lat="48.78554147668183" lon="9.93606375530362">
<ele>485.4</ele>
<time>2024-05-07T08:53:47Z</time>
</trkpt>
<trkpt lat="48.78557584248483" lon="9.936129553243518">
<ele>484.8</ele>
<time>2024-05-07T08:53:48Z</time>
</trkpt>
<trkpt lat="48.78561775200069" lon="9.9362029787153">
<ele>484.4</ele>
<time>2024-05-07T08:53:49Z</time>
</trkpt>
<trkpt lat="48.78565974533558" lon="9.936281181871893">
<ele>483.8</ele>
<time>2024-05-07T08:53:50Z</time>
</trkpt>
<trkpt lat="48.785705510526896" lon="9.936365084722638">
<ele>483.2</ele>
<time>2024-05-07T08:53:51Z</time>
</trkpt>
<trkpt lat="48.785743648186326" lon="9.936458542943">
<ele>482.6</ele>
<time>2024-05-07T08:53:52Z</time>
</trkpt>
<trkpt lat="48.7857932690531" lon="9.936546301469209">
<ele>482</ele>
<time>2024-05-07T08:53:53Z</time>
</trkpt>
<trkpt lat="48.78583903424442" lon="9.936636909842491">
<ele>481.4</ele>
<time>2024-05-07T08:53:54Z</time>
</trkpt>
<trkpt lat="48.78588102757931" lon="9.936723662540317">
<ele>480.8</ele>
<time>2024-05-07T08:53:55Z</time>
</trkpt>
<trkpt lat="48.78591916523874" lon="9.936809493228791">
<ele>480.2</ele>
<time>2024-05-07T08:53:56Z</time>
</trkpt>
<trkpt lat="48.78595730289817" lon="9.93689532391727">
<ele>479.8</ele>
<time>2024-05-07T08:53:57Z</time>
</trkpt>
<trkpt lat="48.7859954405576" lon="9.936978304758668">
<ele>479.2</ele>
<time>2024-05-07T08:53:58Z</time>
</trkpt>
<trkpt lat="48.78603357821703" lon="9.937061285600066">
<ele>478.6</ele>
<time>2024-05-07T08:53:59Z</time>
</trkpt>
<trkpt lat="48.786079343408346" lon="9.937147116288545">
<ele>478</ele>
<time>2024-05-07T08:54:00Z</time>
</trkpt>
<trkpt lat="48.78612896427512" lon="9.937226241454482">
<ele>477.4</ele>
<time>2024-05-07T08:54:01Z</time>
</trkpt>
<trkpt lat="48.7861785851419" lon="9.937298744916916">
<ele>477</ele>
<time>2024-05-07T08:54:02Z</time>
</trkpt>
<trkpt lat="48.786239605396986" lon="9.937356915324926">
<ele>476.4</ele>
<time>2024-05-07T08:54:03Z</time>
</trkpt>
<trkpt lat="48.786296769976616" lon="9.937401758506894">
<ele>475.8</ele>
<time>2024-05-07T08:54:04Z</time>
</trkpt>
<trkpt lat="48.786357874050736" lon="9.937424641102552">
<ele>475.2</ele>
<time>2024-05-07T08:54:05Z</time>
</trkpt>
<trkpt lat="48.78642266616225" lon="9.937435118481517">
<ele>474.8</ele>
<time>2024-05-07T08:54:06Z</time>
</trkpt>
<trkpt lat="48.7864875420928" lon="9.937433190643787">
<ele>474.2</ele>
<time>2024-05-07T08:54:07Z</time>
</trkpt>
<trkpt lat="48.786556189879775" lon="9.937413157895207">
<ele>473.6</ele>
<time>2024-05-07T08:54:08Z</time>
</trkpt>
<trkpt lat="48.78662483766675" lon="9.937396980822086">
<ele>473</ele>
<time>2024-05-07T08:54:09Z</time>
</trkpt>
<trkpt lat="48.78669356927276" lon="9.937383569777012">
<ele>472.4</ele>
<time>2024-05-07T08:54:10Z</time>
</trkpt>
<trkpt lat="48.78676221705973" lon="9.93736831471324">
<ele>471.8</ele>
<time>2024-05-07T08:54:11Z</time>
</trkpt>
<trkpt lat="48.786834636703134" lon="9.937339732423425">
<ele>471.2</ele>
<time>2024-05-07T08:54:12Z</time>
</trkpt>
<trkpt lat="48.786910995841026" lon="9.937294889241455">
<ele>470.6</ele>
<time>2024-05-07T08:54:13Z</time>
</trkpt>
<trkpt lat="48.786991043016315" lon="9.937241496518254">
<ele>470.2</ele>
<time>2024-05-07T08:54:14Z</time>
</trkpt>
<trkpt lat="48.78706354647875" lon="9.93717284873128">
<ele>469.6</ele>
<time>2024-05-07T08:54:15Z</time>
</trkpt>
<trkpt lat="48.78713982179761" lon="9.937107050791385">
<ele>469.2</ele>
<time>2024-05-07T08:54:16Z</time>
</trkpt>
<trkpt lat="48.78721995279193" lon="9.937036475166678">
<ele>468.6</ele>
<time>2024-05-07T08:54:17Z</time>
</trkpt>
<trkpt lat="48.78729245625436" lon="9.936960199847816">
<ele>468</ele>
<time>2024-05-07T08:54:18Z</time>
</trkpt>
<trkpt lat="48.78735347650945" lon="9.936866741627457">
<ele>467.4</ele>
<time>2024-05-07T08:54:19Z</time>
</trkpt>
<trkpt lat="48.78741449676454" lon="9.936768505722284">
<ele>467</ele>
<time>2024-05-07T08:54:20Z</time>
</trkpt>
<trkpt lat="48.7874717451632" lon="9.936670269817114">
<ele>466.4</ele>
<time>2024-05-07T08:54:21Z</time>
</trkpt>
<trkpt lat="48.787525137886405" lon="9.936572033911943">
<ele>465.8</ele>
<time>2024-05-07T08:54:22Z</time>
</trkpt>
<trkpt lat="48.78757475875318" lon="9.936470026150346">
<ele>465.2</ele>
<time>2024-05-07T08:54:23Z</time>
</trkpt>
<trkpt lat="48.7876205239445" lon="9.936363156884909">
<ele>464.6</ele>
<time>2024-05-07T08:54:24Z</time>
</trkpt>
<trkpt lat="48.787662433460355" lon="9.936254443600774">
<ele>464</ele>
<time>2024-05-07T08:54:25Z</time>
</trkpt>
<trkpt lat="48.7877082824707" lon="9.936151430010796">
<ele>463.4</ele>
<time>2024-05-07T08:54:26Z</time>
</trkpt>
<trkpt lat="48.78775781951845" lon="9.936050344258549">
<ele>462.8</ele>
<time>2024-05-07T08:54:27Z</time>
</trkpt>
<trkpt lat="48.787799812853336" lon="9.93594833649695">
<ele>462.2</ele>
<time>2024-05-07T08:54:28Z</time>
</trkpt>
<trkpt lat="48.78784557804465" lon="9.93584817275405">
<ele>461.8</ele>
<time>2024-05-07T08:54:29Z</time>
</trkpt>
<trkpt lat="48.78789134323597" lon="9.935752786695955">
<ele>461.2</ele>
<time>2024-05-07T08:54:30Z</time>
</trkpt>
<trkpt lat="48.787940964102745" lon="9.935661256313324">
<ele>460.6</ele>
<time>2024-05-07T08:54:31Z</time>
</trkpt>
<trkpt lat="48.78799050115049" lon="9.93556972593069">
<ele>460</ele>
<time>2024-05-07T08:54:32Z</time>
</trkpt>
<trkpt lat="48.788040122017264" lon="9.935481967404485">
<ele>459.4</ele>
<time>2024-05-07T08:54:33Z</time>
</trkpt>
<trkpt lat="48.78809351474047" lon="9.935396136716008">
<ele>458.8</ele>
<time>2024-05-07T08:54:34Z</time>
</trkpt>
<trkpt lat="48.78814690746367" lon="9.935319861397147">
<ele>458.4</ele>
<time>2024-05-07T08:54:35Z</time>
</trkpt>
<trkpt lat="48.78820030018687" lon="9.935250207781792">
<ele>458.2</ele>
<time>2024-05-07T08:54:36Z</time>
</trkpt>
<trkpt lat="48.788257548585534" lon="9.93519203737378">
<ele>457.8</ele>
<time>2024-05-07T08:54:37Z</time>
</trkpt>
<trkpt lat="48.78831856884062" lon="9.935134872794151">
<ele>457.4</ele>
<time>2024-05-07T08:54:38Z</time>
</trkpt>
<trkpt lat="48.788371961563826" lon="9.935072846710682">
<ele>457.2</ele>
<time>2024-05-07T08:54:39Z</time>
</trkpt>
<trkpt lat="48.78842920996249" lon="9.935013754293324">
<ele>456.8</ele>
<time>2024-05-07T08:54:40Z</time>
</trkpt>
<trkpt lat="48.78848645836115" lon="9.93495843373239">
<ele>456.4</ele>
<time>2024-05-07T08:54:41Z</time>
</trkpt>
<trkpt lat="48.78853599540889" lon="9.934907890856266">
<ele>456.2</ele>
<time>2024-05-07T08:54:42Z</time>
</trkpt>
<trkpt lat="48.78858947195113" lon="9.934866903349755">
<ele>456</ele>
<time>2024-05-07T08:54:43Z</time>
</trkpt>
<trkpt lat="48.78863523714245" lon="9.934816360473633">
<ele>455.6</ele>
<time>2024-05-07T08:54:44Z</time>
</trkpt>
<trkpt lat="48.78868477419019" lon="9.934771517291663">
<ele>455.4</ele>
<time>2024-05-07T08:54:45Z</time>
</trkpt>
<trkpt lat="48.78873825073242" lon="9.934742851182818">
<ele>455</ele>
<time>2024-05-07T08:54:46Z</time>
</trkpt>
<trkpt lat="48.788787787780166" lon="9.934726674109696">
<ele>454.8</ele>
<time>2024-05-07T08:54:47Z</time>
</trkpt>
<trkpt lat="48.78883740864694" lon="9.934731451794503">
<ele>454.6</ele>
<time>2024-05-07T08:54:48Z</time>
</trkpt>
<trkpt lat="48.788886945694685" lon="9.934751484543083">
<ele>454.2</ele>
<time>2024-05-07T08:54:49Z</time>
</trkpt>
<trkpt lat="48.78893656656146" lon="9.93476003408432">
<ele>454</ele>
<time>2024-05-07T08:54:50Z</time>
</trkpt>
<trkpt lat="48.78898618742824" lon="9.934793394058945">
<ele>453.8</ele>
<time>2024-05-07T08:54:51Z</time>
</trkpt>
<trkpt lat="48.789043352007866" lon="9.93482013233006">
<ele>453.6</ele>
<time>2024-05-07T08:54:52Z</time>
</trkpt>
<trkpt lat="48.789104456081986" lon="9.934851564466952">
<ele>453.6</ele>
<time>2024-05-07T08:54:53Z</time>
</trkpt>
<trkpt lat="48.789165476337075" lon="9.93487637490034">
<ele>453.4</ele>
<time>2024-05-07T08:54:54Z</time>
</trkpt>
<trkpt lat="48.789222640916705" lon="9.934881152585149">
<ele>453.4</ele>
<time>2024-05-07T08:54:55Z</time>
</trkpt>
<trkpt lat="48.78929137252271" lon="9.934906885027884">
<ele>453.2</ele>
<time>2024-05-07T08:54:56Z</time>
</trkpt>
<trkpt lat="48.789344765245914" lon="9.934925073757768">
<ele>453</ele>
<time>2024-05-07T08:54:57Z</time>
</trkpt>
<trkpt lat="48.78940955735743" lon="9.934947956353426">
<ele>452.8</ele>
<time>2024-05-07T08:54:58Z</time>
</trkpt>
<trkpt lat="48.78946680575609" lon="9.934965055435896">
<ele>452.8</ele>
<time>2024-05-07T08:54:59Z</time>
</trkpt>
<trkpt lat="48.78953168168664" lon="9.934980310499668">
<ele>452.6</ele>
<time>2024-05-07T08:55:00Z</time>
</trkpt>
<trkpt lat="48.789600329473615" lon="9.934994643554091">
<ele>452.4</ele>
<time>2024-05-07T08:55:01Z</time>
</trkpt>
<trkpt lat="48.78967283293605" lon="9.935009898617864">
<ele>452.2</ele>
<time>2024-05-07T08:55:02Z</time>
</trkpt>
<trkpt lat="48.78974148072302" lon="9.935020375996828">
<ele>452</ele>
<time>2024-05-07T08:55:03Z</time>
</trkpt>
<trkpt lat="48.78981775604189" lon="9.935034709051251">
<ele>451.8</ele>
<time>2024-05-07T08:55:04Z</time>
</trkpt>
<trkpt lat="48.78989025950432" lon="9.93503663688898">
<ele>451.6</ele>
<time>2024-05-07T08:55:05Z</time>
</trkpt>
<trkpt lat="48.78996276296675" lon="9.935034709051251">
<ele>451.6</ele>
<time>2024-05-07T08:55:06Z</time>
</trkpt>
<trkpt lat="48.79002755507827" lon="9.935029931366444">
<ele>451.4</ele>
<time>2024-05-07T08:55:07Z</time>
</trkpt>
<trkpt lat="48.790092431008816" lon="9.935021381825209">
<ele>451.2</ele>
<time>2024-05-07T08:55:08Z</time>
</trkpt>
<trkpt lat="48.79016493447125" lon="9.935011826455591">
<ele>451</ele>
<time>2024-05-07T08:55:09Z</time>
</trkpt>
<trkpt lat="48.79023735411465" lon="9.93499849922955">
<ele>450.8</ele>
<time>2024-05-07T08:55:10Z</time>
</trkpt>
<trkpt lat="48.79031748510897" lon="9.934989865869284">
<ele>450.4</ele>
<time>2024-05-07T08:55:11Z</time>
</trkpt>
<trkpt lat="48.79039376042783" lon="9.934971760958431">
<ele>450</ele>
<time>2024-05-07T08:55:12Z</time>
</trkpt>
<trkpt lat="48.790470119565725" lon="9.934945106506348">
<ele>449.8</ele>
<time>2024-05-07T08:55:13Z</time>
</trkpt>
<trkpt lat="48.7905387673527" lon="9.934906885027884">
<ele>449.4</ele>
<time>2024-05-07T08:55:14Z</time>
</trkpt>
<trkpt lat="48.79061504267156" lon="9.934871597215531">
<ele>449</ele>
<time>2024-05-07T08:55:15Z</time>
</trkpt>
<trkpt lat="48.790683690458536" lon="9.93484209291637">
<ele>448.6</ele>
<time>2024-05-07T08:55:16Z</time>
</trkpt>
<trkpt lat="48.79075619392097" lon="9.934811582788823">
<ele>448.4</ele>
<time>2024-05-07T08:55:17Z</time>
</trkpt>
<trkpt lat="48.79082869738341" lon="9.934784844517708">
<ele>448</ele>
<time>2024-05-07T08:55:18Z</time>
</trkpt>
<trkpt lat="48.790901117026806" lon="9.93475810624659">
<ele>447.4</ele>
<time>2024-05-07T08:55:19Z</time>
</trkpt>
<trkpt lat="48.79096984863281" lon="9.934733379632236">
<ele>447</ele>
<time>2024-05-07T08:55:20Z</time>
</trkpt>
<trkpt lat="48.79103849641979" lon="9.934704713523388">
<ele>446.8</ele>
<time>2024-05-07T08:55:21Z</time>
</trkpt>
<trkpt lat="48.79109951667488" lon="9.934678059071302">
<ele>446.6</ele>
<time>2024-05-07T08:55:22Z</time>
</trkpt>
<trkpt lat="48.791160536929965" lon="9.934646543115376">
<ele>446.2</ele>
<time>2024-05-07T08:55:23Z</time>
</trkpt>
<trkpt lat="48.791221557185054" lon="9.934615110978484">
<ele>446</ele>
<time>2024-05-07T08:55:24Z</time>
</trkpt>
<trkpt lat="48.7912864331156" lon="9.934593150392176">
<ele>445.6</ele>
<time>2024-05-07T08:55:25Z</time>
</trkpt>
<trkpt lat="48.79134745337069" lon="9.934570267796516">
<ele>445.4</ele>
<time>2024-05-07T08:55:26Z</time>
</trkpt>
<trkpt lat="48.79140847362578" lon="9.9345416855067">
<ele>445</ele>
<time>2024-05-07T08:55:27Z</time>
</trkpt>
<trkpt lat="48.79146572202444" lon="9.93452165275812">
<ele>444.8</ele>
<time>2024-05-07T08:55:28Z</time>
</trkpt>
<trkpt lat="48.7915229704231" lon="9.934505391865969">
<ele>444.4</ele>
<time>2024-05-07T08:55:29Z</time>
</trkpt>
<trkpt lat="48.79158013500273" lon="9.934492064639926">
<ele>444.2</ele>
<time>2024-05-07T08:55:30Z</time>
</trkpt>
<trkpt lat="48.79162975586951" lon="9.934479659423232">
<ele>444</ele>
<time>2024-05-07T08:55:31Z</time>
</trkpt>
<trkpt lat="48.791675521060824" lon="9.93446826003492">
<ele>443.8</ele>
<time>2024-05-07T08:55:32Z</time>
</trkpt>
<trkpt lat="48.791713658720255" lon="9.934454848989844">
<ele>443.6</ele>
<time>2024-05-07T08:55:33Z</time>
</trkpt>
<trkpt lat="48.791751796379685" lon="9.934443449601533">
<ele>443.6</ele>
<time>2024-05-07T08:55:34Z</time>
</trkpt>
<trkpt lat="48.79178993403912" lon="9.934434816241264">
<ele>443.4</ele>
<time>2024-05-07T08:55:35Z</time>
</trkpt>
<trkpt lat="48.79182815551758" lon="9.934418639168143">
<ele>443.2</ele>
<time>2024-05-07T08:55:36Z</time>
</trkpt>
<trkpt lat="48.79186629317701" lon="9.9344053119421">
<ele>443</ele>
<time>2024-05-07T08:55:37Z</time>
</trkpt>
<trkpt lat="48.79190443083644" lon="9.934390056878328">
<ele>442.8</ele>
<time>2024-05-07T08:55:38Z</time>
</trkpt>
<trkpt lat="48.79194256849587" lon="9.934372873976828">
<ele>442.6</ele>
<time>2024-05-07T08:55:39Z</time>
</trkpt>
<trkpt lat="48.7919807061553" lon="9.934358540922403">
<ele>442.4</ele>
<time>2024-05-07T08:55:40Z</time>
</trkpt>
<trkpt lat="48.7920150719583" lon="9.93434521369636">
<ele>442.2</ele>
<time>2024-05-07T08:55:41Z</time>
</trkpt>
<trkpt lat="48.792049353942275" lon="9.934334736317396">
<ele>441.8</ele>
<time>2024-05-07T08:55:42Z</time>
</trkpt>
<trkpt lat="48.79207986406982" lon="9.934329958632588">
<ele>441.6</ele>
<time>2024-05-07T08:55:43Z</time>
</trkpt>
<trkpt lat="48.79210660234094" lon="9.934320403262973">
<ele>441.4</ele>
<time>2024-05-07T08:55:44Z</time>
</trkpt>
<trkpt lat="48.79213711246848" lon="9.93432518094778">
<ele>441.4</ele>
<time>2024-05-07T08:55:45Z</time>
</trkpt>
<trkpt lat="48.79215613938868" lon="9.93432518094778">
<ele>441.2</ele>
<time>2024-05-07T08:55:46Z</time>
</trkpt>
<trkpt lat="48.79217525012791" lon="9.934331886470318">
<ele>441.2</ele>
<time>2024-05-07T08:55:47Z</time>
</trkpt>
<trkpt lat="48.79218673333526" lon="9.934329958632588">
<ele>441</ele>
<time>2024-05-07T08:55:48Z</time>
</trkpt>
<trkpt lat="48.79219436086714" lon="9.934333730489016">
<ele>440.8</ele>
<time>2024-05-07T08:55:49Z</time>
</trkpt>
<trkpt lat="48.79220198839903" lon="9.934339514002204">
<ele>440.8</ele>
<time>2024-05-07T08:55:50Z</time>
</trkpt>
<trkpt lat="48.792209615930915" lon="9.93434714153409">
<ele>440.6</ele>
<time>2024-05-07T08:55:51Z</time>
</trkpt>
<trkpt lat="48.79221338778734" lon="9.934352841228248">
<ele>440.4</ele>
<time>2024-05-07T08:55:52Z</time>
</trkpt>
<trkpt lat="48.7922172434628" lon="9.934356613084674">
<ele>440.4</ele>
<time>2024-05-07T08:55:53Z</time>
</trkpt>
<trkpt lat="48.79222487099469" lon="9.934361390769482">
<ele>440.2</ele>
<time>2024-05-07T08:55:54Z</time>
</trkpt>
<trkpt lat="48.79222487099469" lon="9.934363318607211">
<ele>440.2</ele>
<time>2024-05-07T08:55:55Z</time>
</trkpt>
<trkpt lat="48.79222487099469" lon="9.93436524644494">
<ele>440</ele>
<time>2024-05-07T08:55:57Z</time>
</trkpt>
<trkpt lat="48.79223249852657" lon="9.93436809629202">
<ele>440</ele>
<time>2024-05-07T08:55:59Z</time>
</trkpt>
<trkpt lat="48.79224012605846" lon="9.934370024129748">
<ele>440</ele>
<time>2024-05-07T08:56:00Z</time>
</trkpt>
<trkpt lat="48.79225152544677" lon="9.934371868148446">
<ele>439.8</ele>
<time>2024-05-07T08:56:01Z</time>
</trkpt>
<trkpt lat="48.79226300865412" lon="9.934374801814556">
<ele>439.8</ele>
<time>2024-05-07T08:56:02Z</time>
</trkpt>
<trkpt lat="48.792270636186" lon="9.934374801814556">
<ele>439.8</ele>
<time>2024-05-07T08:56:03Z</time>
</trkpt>
<trkpt lat="48.79227826371789" lon="9.934371868148446">
<ele>439.8</ele>
<time>2024-05-07T08:56:04Z</time>
</trkpt>
<trkpt lat="48.79227826371789" lon="9.93436809629202">
<ele>439.8</ele>
<time>2024-05-07T08:56:05Z</time>
</trkpt>
<trkpt lat="48.79228203557432" lon="9.93436524644494">
<ele>439.8</ele>
<time>2024-05-07T08:56:06Z</time>
</trkpt>
<trkpt lat="48.792285891249776" lon="9.934363318607211">
<ele>439.8</ele>
<time>2024-05-07T08:56:07Z</time>
</trkpt>
<trkpt lat="48.7922896631062" lon="9.934361390769482">
<ele>439.8</ele>
<time>2024-05-07T08:56:08Z</time>
</trkpt>
<trkpt lat="48.7922896631062" lon="9.934360468760133">
<ele>439.8</ele>
<time>2024-05-07T08:56:09Z</time>
</trkpt>
<trkpt lat="48.79229351878166" lon="9.934360468760133">
<ele>439.8</ele>
<time>2024-05-07T08:56:10Z</time>
</trkpt>
<trkpt lat="48.79229729063809" lon="9.934363318607211">
<ele>439.6</ele>
<time>2024-05-07T08:56:11Z</time>
</trkpt>
<trkpt lat="48.79229351878166" lon="9.934363318607211">
<ele>439.6</ele>
<time>2024-05-07T08:56:12Z</time>
</trkpt>
<trkpt lat="48.7922896631062" lon="9.934363318607211">
<ele>439.4</ele>
<time>2024-05-07T08:56:14Z</time>
</trkpt>
<trkpt lat="48.7922896631062" lon="9.93436616845429">
<ele>439.4</ele>
<time>2024-05-07T08:56:15Z</time>
</trkpt>
<trkpt lat="48.7922896631062" lon="9.93436809629202">
<ele>439.2</ele>
<time>2024-05-07T08:56:19Z</time>
</trkpt>
<trkpt lat="48.7922896631062" lon="9.93436616845429">
<ele>439.2</ele>
<time>2024-05-07T08:56:22Z</time>
</trkpt>
<trkpt lat="48.792285891249776" lon="9.93436524644494">
<ele>439.2</ele>
<time>2024-05-07T08:56:25Z</time>
</trkpt>
<trkpt lat="48.792285891249776" lon="9.93436616845429">
<ele>439.2</ele>
<time>2024-05-07T08:56:28Z</time>
</trkpt>
<trkpt lat="48.79228203557432" lon="9.93436616845429">
<ele>439.4</ele>
<time>2024-05-07T08:56:34Z</time>
</trkpt>
<trkpt lat="48.79228203557432" lon="9.93436809629202">
<ele>439.4</ele>
<time>2024-05-07T08:56:36Z</time>
</trkpt>
<trkpt lat="48.79228203557432" lon="9.934370024129748">
<ele>439.6</ele>
<time>2024-05-07T08:56:40Z</time>
</trkpt>
<trkpt lat="48.79228203557432" lon="9.93436809629202">
<ele>439.8</ele>
<time>2024-05-07T08:56:41Z</time>
</trkpt>
<trkpt lat="48.79228203557432" lon="9.934370024129748">
<ele>439.8</ele>
<time>2024-05-07T08:56:46Z</time>
</trkpt>
<trkpt lat="48.79227826371789" lon="9.934370024129748">
<ele>439.8</ele>
<time>2024-05-07T08:56:48Z</time>
</trkpt>
<trkpt lat="48.79227826371789" lon="9.934371868148446">
<ele>439.8</ele>
<time>2024-05-07T08:56:50Z</time>
</trkpt>
<trkpt lat="48.79227826371789" lon="9.934372873976828">
<ele>439.8</ele>
<time>2024-05-07T08:56:56Z</time>
</trkpt>
<trkpt lat="48.79227826371789" lon="9.934374801814556">
<ele>439.8</ele>
<time>2024-05-07T08:57:01Z</time>
</trkpt>
<trkpt lat="48.79227826371789" lon="9.934372873976828">
<ele>439.8</ele>
<time>2024-05-07T08:57:08Z</time>
</trkpt>
<trkpt lat="48.79227826371789" lon="9.934371868148446">
<ele>439.8</ele>
<time>2024-05-07T08:57:11Z</time>
</trkpt>
<trkpt lat="48.79227440804243" lon="9.934371868148446">
<ele>439.8</ele>
<time>2024-05-07T08:57:13Z</time>
</trkpt>
<trkpt lat="48.79227440804243" lon="9.934370024129748">
<ele>439.8</ele>
<time>2024-05-07T08:57:17Z</time>
</trkpt>
<trkpt lat="48.79227440804243" lon="9.934371868148446">
<ele>439.8</ele>
<time>2024-05-07T08:57:20Z</time>
</trkpt>
<trkpt lat="48.79227440804243" lon="9.934372873976828">
<ele>439.6</ele>
<time>2024-05-07T08:57:33Z</time>
</trkpt>
<trkpt lat="48.79227826371789" lon="9.934374801814556">
<ele>439.6</ele>
<time>2024-05-07T08:57:53Z</time>
</trkpt>
<trkpt lat="48.79227826371789" lon="9.934376645833254">
<ele>439.6</ele>
<time>2024-05-07T08:57:54Z</time>
</trkpt>
<trkpt lat="48.79227826371789" lon="9.934374801814556">
<ele>439.6</ele>
<time>2024-05-07T08:57:57Z</time>
</trkpt>
<trkpt lat="48.79227826371789" lon="9.934372873976828">
<ele>439.4</ele>
<time>2024-05-07T08:57:59Z</time>
</trkpt>
<trkpt lat="48.79227826371789" lon="9.934371868148446">
<ele>439.4</ele>
<time>2024-05-07T08:58:02Z</time>
</trkpt>
<trkpt lat="48.79227826371789" lon="9.934370024129748">
<ele>439.4</ele>
<time>2024-05-07T08:58:04Z</time>
</trkpt>
<trkpt lat="48.79227826371789" lon="9.93436809629202">
<ele>439.4</ele>
<time>2024-05-07T08:58:12Z</time>
</trkpt>
<trkpt lat="48.79227826371789" lon="9.93436616845429">
<ele>439.4</ele>
<time>2024-05-07T08:58:15Z</time>
</trkpt>
<trkpt lat="48.79227826371789" lon="9.93436524644494">
<ele>439.4</ele>
<time>2024-05-07T08:58:18Z</time>
</trkpt>
<trkpt lat="48.79227826371789" lon="9.934363318607211">
<ele>439.4</ele>
<time>2024-05-07T08:58:22Z</time>
</trkpt>
<trkpt lat="48.79227440804243" lon="9.934363318607211">
<ele>439.4</ele>
<time>2024-05-07T08:58:24Z</time>
</trkpt>
<trkpt lat="48.79227440804243" lon="9.934361390769482">
<ele>439.4</ele>
<time>2024-05-07T08:58:25Z</time>
</trkpt>
<trkpt lat="48.79227440804243" lon="9.934363318607211">
<ele>439.4</ele>
<time>2024-05-07T08:58:28Z</time>
</trkpt>
<trkpt lat="48.79227440804243" lon="9.93436524644494">
<ele>439.4</ele>
<time>2024-05-07T08:58:33Z</time>
</trkpt>
<trkpt lat="48.79227440804243" lon="9.934363318607211">
<ele>439.4</ele>
<time>2024-05-07T08:58:35Z</time>
</trkpt>
<trkpt lat="48.79227440804243" lon="9.93436524644494">
<ele>439.4</ele>
<time>2024-05-07T08:58:36Z</time>
</trkpt>
<trkpt lat="48.79227440804243" lon="9.93436616845429">
<ele>439.4</ele>
<time>2024-05-07T08:58:41Z</time>
</trkpt>
<trkpt lat="48.79227826371789" lon="9.93436616845429">
<ele>439.4</ele>
<time>2024-05-07T08:58:45Z</time>
</trkpt>
<trkpt lat="48.79227826371789" lon="9.934361390769482">
<ele>439.4</ele>
<time>2024-05-07T08:58:47Z</time>
</trkpt>
<trkpt lat="48.79228203557432" lon="9.934356613084674">
<ele>439.4</ele>
<time>2024-05-07T08:58:48Z</time>
</trkpt>
<trkpt lat="48.79227826371789" lon="9.934361390769482">
<ele>439.4</ele>
<time>2024-05-07T08:58:49Z</time>
</trkpt>
<trkpt lat="48.79227826371789" lon="9.934360468760133">
<ele>439.4</ele>
<time>2024-05-07T08:58:50Z</time>
</trkpt>
<trkpt lat="48.79227826371789" lon="9.934361390769482">
<ele>439.4</ele>
<time>2024-05-07T08:58:53Z</time>
</trkpt>
<trkpt lat="48.79227826371789" lon="9.934363318607211">
<ele>439.4</ele>
<time>2024-05-07T08:58:55Z</time>
</trkpt>
<trkpt lat="48.79227826371789" lon="9.93436524644494">
<ele>439.4</ele>
<time>2024-05-07T08:58:58Z</time>
</trkpt>
<trkpt lat="48.79227826371789" lon="9.934363318607211">
<ele>439.4</ele>
<time>2024-05-07T08:59:06Z</time>
</trkpt>
<trkpt lat="48.79227826371789" lon="9.93436524644494">
<ele>439.4</ele>
<time>2024-05-07T08:59:12Z</time>
</trkpt>
<trkpt lat="48.79227826371789" lon="9.93436616845429">
<ele>439.6</ele>
<time>2024-05-07T08:59:17Z</time>
</trkpt>
<trkpt lat="48.79227826371789" lon="9.93436809629202">
<ele>439.6</ele>
<time>2024-05-07T08:59:19Z</time>
</trkpt>
<trkpt lat="48.79227826371789" lon="9.934370024129748">
<ele>439.8</ele>
<time>2024-05-07T08:59:27Z</time>
</trkpt>
<trkpt lat="48.79227440804243" lon="9.934371868148446">
<ele>440</ele>
<time>2024-05-07T08:59:31Z</time>
</trkpt>
<trkpt lat="48.79227440804243" lon="9.934372873976828">
<ele>440</ele>
<time>2024-05-07T08:59:39Z</time>
</trkpt>
<trkpt lat="48.79227440804243" lon="9.934374801814556">
<ele>440</ele>
<time>2024-05-07T08:59:52Z</time>
</trkpt>
<trkpt lat="48.79227440804243" lon="9.934372873976828">
<ele>440</ele>
<time>2024-05-07T08:59:54Z</time>
</trkpt>
<trkpt lat="48.79227440804243" lon="9.934374801814556">
<ele>440</ele>
<time>2024-05-07T08:59:55Z</time>
</trkpt>
<trkpt lat="48.79227440804243" lon="9.934376645833254">
<ele>440</ele>
<time>2024-05-07T08:59:59Z</time>
</trkpt>
<trkpt lat="48.79227440804243" lon="9.934378573670983">
<ele>440</ele>
<time>2024-05-07T09:00:02Z</time>
</trkpt>
<trkpt lat="48.79227440804243" lon="9.934379495680332">
<ele>440</ele>
<time>2024-05-07T09:00:10Z</time>
</trkpt>
<trkpt lat="48.79227826371789" lon="9.934379495680332">
<ele>440</ele>
<time>2024-05-07T09:00:12Z</time>
</trkpt>
<trkpt lat="48.79227826371789" lon="9.934381423518062">
<ele>440</ele>
<time>2024-05-07T09:00:17Z</time>
</trkpt>
<trkpt lat="48.79227826371789" lon="9.934383351355793">
<ele>440</ele>
<time>2024-05-07T09:00:21Z</time>
</trkpt>
<trkpt lat="48.79227826371789" lon="9.93438527919352">
<ele>440</ele>
<time>2024-05-07T09:00:24Z</time>
</trkpt>
<trkpt lat="48.79228203557432" lon="9.93438527919352">
<ele>440</ele>
<time>2024-05-07T09:00:34Z</time>
</trkpt>
<trkpt lat="48.79228203557432" lon="9.934383351355793">
<ele>439.8</ele>
<time>2024-05-07T09:00:39Z</time>
</trkpt>
<trkpt lat="48.79228203557432" lon="9.934381423518062">
<ele>439.8</ele>
<time>2024-05-07T09:00:42Z</time>
</trkpt>
<trkpt lat="48.79228203557432" lon="9.934379495680332">
<ele>439.8</ele>
<time>2024-05-07T09:00:49Z</time>
</trkpt>
<trkpt lat="48.79228203557432" lon="9.934378573670983">
<ele>439.8</ele>
<time>2024-05-07T09:00:54Z</time>
</trkpt>
<trkpt lat="48.79228203557432" lon="9.934376645833254">
<ele>439.8</ele>
<time>2024-05-07T09:01:01Z</time>
</trkpt>
<trkpt lat="48.792285891249776" lon="9.934376645833254">
<ele>439.8</ele>
<time>2024-05-07T09:01:03Z</time>
</trkpt>
<trkpt lat="48.792285891249776" lon="9.934378573670983">
<ele>439.8</ele>
<time>2024-05-07T09:01:04Z</time>
</trkpt>
<trkpt lat="48.792285891249776" lon="9.934376645833254">
<ele>439.8</ele>
<time>2024-05-07T09:01:05Z</time>
</trkpt>
<trkpt lat="48.792285891249776" lon="9.934378573670983">
<ele>439.8</ele>
<time>2024-05-07T09:01:08Z</time>
</trkpt>
<trkpt lat="48.792285891249776" lon="9.934379495680332">
<ele>439.8</ele>
<time>2024-05-07T09:01:13Z</time>
</trkpt>
<trkpt lat="48.79228203557432" lon="9.934379495680332">
<ele>439.8</ele>
<time>2024-05-07T09:01:18Z</time>
</trkpt>
<trkpt lat="48.792285891249776" lon="9.934381423518062">
<ele>439.8</ele>
<time>2024-05-07T09:01:20Z</time>
</trkpt>
<trkpt lat="48.792285891249776" lon="9.934378573670983">
<ele>439.8</ele>
<time>2024-05-07T09:01:22Z</time>
</trkpt>
<trkpt lat="48.792285891249776" lon="9.934376645833254">
<ele>439.8</ele>
<time>2024-05-07T09:01:23Z</time>
</trkpt>
<trkpt lat="48.792285891249776" lon="9.934374801814556">
<ele>439.8</ele>
<time>2024-05-07T09:01:24Z</time>
</trkpt>
<trkpt lat="48.792285891249776" lon="9.934372873976828">
<ele>439.8</ele>
<time>2024-05-07T09:01:26Z</time>
</trkpt>
<trkpt lat="48.792285891249776" lon="9.934378573670983">
<ele>439.8</ele>
<time>2024-05-07T09:01:27Z</time>
</trkpt>
<trkpt lat="48.792285891249776" lon="9.934376645833254">
<ele>439.8</ele>
<time>2024-05-07T09:01:28Z</time>
</trkpt>
<trkpt lat="48.79228203557432" lon="9.934376645833254">
<ele>439.8</ele>
<time>2024-05-07T09:01:30Z</time>
</trkpt>
<trkpt lat="48.79228203557432" lon="9.934374801814556">
<ele>439.8</ele>
<time>2024-05-07T09:01:31Z</time>
</trkpt>
<trkpt lat="48.79228203557432" lon="9.934372873976828">
<ele>439.8</ele>
<time>2024-05-07T09:01:34Z</time>
</trkpt>
<trkpt lat="48.79228203557432" lon="9.934371868148446">
<ele>439.8</ele>
<time>2024-05-07T09:01:38Z</time>
</trkpt>
<trkpt lat="48.79228203557432" lon="9.934370024129748">
<ele>439.8</ele>
<time>2024-05-07T09:01:41Z</time>
</trkpt>
<trkpt lat="48.79228203557432" lon="9.93436809629202">
<ele>439.8</ele>
<time>2024-05-07T09:01:43Z</time>
</trkpt>
<trkpt lat="48.79228203557432" lon="9.93436616845429">
<ele>439.8</ele>
<time>2024-05-07T09:01:48Z</time>
</trkpt>
<trkpt lat="48.79228203557432" lon="9.93436809629202">
<ele>439.8</ele>
<time>2024-05-07T09:01:57Z</time>
</trkpt>
<trkpt lat="48.79228203557432" lon="9.93436616845429">
<ele>439.8</ele>
<time>2024-05-07T09:02:04Z</time>
</trkpt>
<trkpt lat="48.79227826371789" lon="9.93436616845429">
<ele>439.8</ele>
<time>2024-05-07T09:02:06Z</time>
</trkpt>
<trkpt lat="48.79227826371789" lon="9.93436524644494">
<ele>439.8</ele>
<time>2024-05-07T09:02:13Z</time>
</trkpt>
<trkpt lat="48.79227826371789" lon="9.934363318607211">
<ele>439.8</ele>
<time>2024-05-07T09:02:17Z</time>
</trkpt>
<trkpt lat="48.79227826371789" lon="9.934361390769482">
<ele>439.8</ele>
<time>2024-05-07T09:02:19Z</time>
</trkpt>
<trkpt lat="48.79227826371789" lon="9.934360468760133">
<ele>439.8</ele>
<time>2024-05-07T09:02:23Z</time>
</trkpt>
<trkpt lat="48.79227826371789" lon="9.934358540922403">
<ele>439.8</ele>
<time>2024-05-07T09:02:26Z</time>
</trkpt>
<trkpt lat="48.79227826371789" lon="9.934356613084674">
<ele>439.8</ele>
<time>2024-05-07T09:02:29Z</time>
</trkpt>
<trkpt lat="48.79227826371789" lon="9.934354769065976">
<ele>439.8</ele>
<time>2024-05-07T09:02:33Z</time>
</trkpt>
<trkpt lat="48.79227826371789" lon="9.934352841228248">
<ele>439.8</ele>
<time>2024-05-07T09:02:36Z</time>
</trkpt>
<trkpt lat="48.79227826371789" lon="9.934351919218898">
<ele>439.8</ele>
<time>2024-05-07T09:02:40Z</time>
</trkpt>
<trkpt lat="48.79227826371789" lon="9.934349991381168">
<ele>439.8</ele>
<time>2024-05-07T09:02:43Z</time>
</trkpt>
<trkpt lat="48.79227826371789" lon="9.93434806354344">
<ele>439.8</ele>
<time>2024-05-07T09:02:48Z</time>
</trkpt>
<trkpt lat="48.79228203557432" lon="9.93434806354344">
<ele>439.8</ele>
<time>2024-05-07T09:02:49Z</time>
</trkpt>
<trkpt lat="48.79227826371789" lon="9.93434714153409">
<ele>439.8</ele>
<time>2024-05-07T09:02:51Z</time>
</trkpt>
<trkpt lat="48.79227826371789" lon="9.93434521369636">
<ele>439.8</ele>
<time>2024-05-07T09:02:54Z</time>
</trkpt>
<trkpt lat="48.79228203557432" lon="9.93434521369636">
<ele>439.8</ele>
<time>2024-05-07T09:02:58Z</time>
</trkpt>
<trkpt lat="48.79228203557432" lon="9.934343285858631">
<ele>439.8</ele>
<time>2024-05-07T09:03:02Z</time>
</trkpt>
<trkpt lat="48.792285891249776" lon="9.934343285858631">
<ele>439.8</ele>
<time>2024-05-07T09:03:16Z</time>
</trkpt>
<trkpt lat="48.7922896631062" lon="9.93434521369636">
<ele>439.8</ele>
<time>2024-05-07T09:03:18Z</time>
</trkpt>
<trkpt lat="48.7922896631062" lon="9.93434714153409">
<ele>439.8</ele>
<time>2024-05-07T09:03:19Z</time>
</trkpt>
<trkpt lat="48.7922896631062" lon="9.93434806354344">
<ele>439.8</ele>
<time>2024-05-07T09:03:22Z</time>
</trkpt>
<trkpt lat="48.7922896631062" lon="9.934349991381168">
<ele>439.8</ele>
<time>2024-05-07T09:03:25Z</time>
</trkpt>
<trkpt lat="48.7922896631062" lon="9.934351919218898">
<ele>439.8</ele>
<time>2024-05-07T09:03:28Z</time>
</trkpt>
<trkpt lat="48.7922896631062" lon="9.934352841228248">
<ele>439.8</ele>
<time>2024-05-07T09:03:29Z</time>
</trkpt>
<trkpt lat="48.792285891249776" lon="9.934352841228248">
<ele>439.8</ele>
<time>2024-05-07T09:03:30Z</time>
</trkpt>
<trkpt lat="48.792285891249776" lon="9.934354769065976">
<ele>439.8</ele>
<time>2024-05-07T09:03:32Z</time>
</trkpt>
<trkpt lat="48.792285891249776" lon="9.934356613084674">
<ele>439.8</ele>
<time>2024-05-07T09:03:35Z</time>
</trkpt>
<trkpt lat="48.792285891249776" lon="9.934354769065976">
<ele>439.8</ele>
<time>2024-05-07T09:03:37Z</time>
</trkpt>
<trkpt lat="48.79228203557432" lon="9.934354769065976">
<ele>439.8</ele>
<time>2024-05-07T09:03:40Z</time>
</trkpt>
<trkpt lat="48.79228203557432" lon="9.934352841228248">
<ele>439.8</ele>
<time>2024-05-07T09:03:42Z</time>
</trkpt>
<trkpt lat="48.79228203557432" lon="9.934354769065976">
<ele>439.8</ele>
<time>2024-05-07T09:03:43Z</time>
</trkpt>
<trkpt lat="48.79228203557432" lon="9.934352841228248">
<ele>439.8</ele>
<time>2024-05-07T09:03:44Z</time>
</trkpt>
<trkpt lat="48.792285891249776" lon="9.934352841228248">
<ele>439.8</ele>
<time>2024-05-07T09:03:50Z</time>
</trkpt>
<trkpt lat="48.7922896631062" lon="9.934341358020902">
<ele>439.8</ele>
<time>2024-05-07T09:03:52Z</time>
</trkpt>
<trkpt lat="48.79229351878166" lon="9.93432610295713">
<ele>439.8</ele>
<time>2024-05-07T09:03:53Z</time>
</trkpt>
<trkpt lat="48.79230114631355" lon="9.93430799804628">
<ele>439.8</ele>
<time>2024-05-07T09:03:54Z</time>
</trkpt>
<trkpt lat="48.79231640137732" lon="9.934291820973158">
<ele>439.8</ele>
<time>2024-05-07T09:03:55Z</time>
</trkpt>
<trkpt lat="48.79233165644109" lon="9.93426793254912">
<ele>439.8</ele>
<time>2024-05-07T09:03:56Z</time>
</trkpt>
<trkpt lat="48.79235839471221" lon="9.934258460998535">
<ele>439.8</ele>
<time>2024-05-07T09:03:57Z</time>
</trkpt>
<trkpt lat="48.792385049164295" lon="9.934253683313727">
<ele>439.8</ele>
<time>2024-05-07T09:03:58Z</time>
</trkpt>
<trkpt lat="48.7924194149673" lon="9.934258460998535">
<ele>439.8</ele>
<time>2024-05-07T09:03:59Z</time>
</trkpt>
<trkpt lat="48.79245369695127" lon="9.934261310845612">
<ele>439.8</ele>
<time>2024-05-07T09:04:00Z</time>
</trkpt>
<trkpt lat="48.79248043522239" lon="9.934263154864311">
<ele>439.8</ele>
<time>2024-05-07T09:04:01Z</time>
</trkpt>
<trkpt lat="48.79252242855728" lon="9.934271788224578">
<ele>439.8</ele>
<time>2024-05-07T09:04:02Z</time>
</trkpt>
<trkpt lat="48.79256056621671" lon="9.934271788224578">
<ele>439.8</ele>
<time>2024-05-07T09:04:03Z</time>
</trkpt>
<trkpt lat="48.792602475732565" lon="9.93426701053977">
<ele>439.8</ele>
<time>2024-05-07T09:04:04Z</time>
</trkpt>
<trkpt lat="48.792640613391995" lon="9.934258460998535">
<ele>439.8</ele>
<time>2024-05-07T09:04:05Z</time>
</trkpt>
<trkpt lat="48.792678751051426" lon="9.93424789980054">
<ele>439.8</ele>
<time>2024-05-07T09:04:06Z</time>
</trkpt>
<trkpt lat="48.79271311685443" lon="9.934241278097034">
<ele>439.8</ele>
<time>2024-05-07T09:04:07Z</time>
</trkpt>
<trkpt lat="48.79274748265743" lon="9.934233650565147">
<ele>439.8</ele>
<time>2024-05-07T09:04:08Z</time>
</trkpt>
<trkpt lat="48.79278176464141" lon="9.934229794889688">
<ele>439.8</ele>
<time>2024-05-07T09:04:09Z</time>
</trkpt>
<trkpt lat="48.79281227476895" lon="9.934233650565147">
<ele>439.8</ele>
<time>2024-05-07T09:04:10Z</time>
</trkpt>
<trkpt lat="48.792839013040066" lon="9.934240272268651">
<ele>439.8</ele>
<time>2024-05-07T09:04:11Z</time>
</trkpt>
<trkpt lat="48.79286952316761" lon="9.934241278097034">
<ele>439.8</ele>
<time>2024-05-07T09:04:12Z</time>
</trkpt>
<trkpt lat="48.79290388897061" lon="9.934238428249955">
<ele>439.8</ele>
<time>2024-05-07T09:04:13Z</time>
</trkpt>
<trkpt lat="48.792938170954585" lon="9.93422694504261">
<ele>439.8</ele>
<time>2024-05-07T09:04:14Z</time>
</trkpt>
<trkpt lat="48.79297253675759" lon="9.9342049844563">
<ele>439.8</ele>
<time>2024-05-07T09:04:15Z</time>
</trkpt>
<trkpt lat="48.79300681874156" lon="9.934175480157135">
<ele>439.8</ele>
<time>2024-05-07T09:04:16Z</time>
</trkpt>
<trkpt lat="48.79304118454456" lon="9.934138264507055">
<ele>439.6</ele>
<time>2024-05-07T09:04:17Z</time>
</trkpt>
<trkpt lat="48.79307555034757" lon="9.934100126847625">
<ele>439.6</ele>
<time>2024-05-07T09:04:18Z</time>
</trkpt>
<trkpt lat="48.79310983233154" lon="9.934061989188194">
<ele>439.4</ele>
<time>2024-05-07T09:04:19Z</time>
</trkpt>
<trkpt lat="48.79315182566643" lon="9.934026701375842">
<ele>439.4</ele>
<time>2024-05-07T09:04:20Z</time>
</trkpt>
<trkpt lat="48.79318996332586" lon="9.933999963104725">
<ele>439.2</ele>
<time>2024-05-07T09:04:21Z</time>
</trkpt>
<trkpt lat="48.79322810098529" lon="9.933977080509068">
<ele>439.2</ele>
<time>2024-05-07T09:04:22Z</time>
</trkpt>
<trkpt lat="48.79326623864472" lon="9.93395034223795">
<ele>439</ele>
<time>2024-05-07T09:04:23Z</time>
</trkpt>
<trkpt lat="48.79330823197961" lon="9.933924609795213">
<ele>438.8</ele>
<time>2024-05-07T09:04:24Z</time>
</trkpt>
<trkpt lat="48.793350141495466" lon="9.933897955343127">
<ele>438.6</ele>
<time>2024-05-07T09:04:25Z</time>
</trkpt>
<trkpt lat="48.79338836297393" lon="9.93387029506266">
<ele>438.6</ele>
<time>2024-05-07T09:04:26Z</time>
</trkpt>
<trkpt lat="48.793434128165245" lon="9.933848334476352">
<ele>438.6</ele>
<time>2024-05-07T09:04:27Z</time>
</trkpt>
<trkpt lat="48.79347989335656" lon="9.933824529871345">
<ele>438.4</ele>
<time>2024-05-07T09:04:28Z</time>
</trkpt>
<trkpt lat="48.79352565854788" lon="9.933799719437957">
<ele>438.4</ele>
<time>2024-05-07T09:04:29Z</time>
</trkpt>
<trkpt lat="48.793571423739195" lon="9.933779686689377">
<ele>438.2</ele>
<time>2024-05-07T09:04:30Z</time>
</trkpt>
<trkpt lat="48.7936248164624" lon="9.93375680409372">
<ele>438.2</ele>
<time>2024-05-07T09:04:31Z</time>
</trkpt>
<trkpt lat="48.7936782091856" lon="9.933739621192217">
<ele>438.2</ele>
<time>2024-05-07T09:04:32Z</time>
</trkpt>
<trkpt lat="48.79372020252049" lon="9.933719588443635">
<ele>438</ele>
<time>2024-05-07T09:04:33Z</time>
</trkpt>
<trkpt lat="48.793769823387265" lon="9.933705255389214">
<ele>438</ele>
<time>2024-05-07T09:04:34Z</time>
</trkpt>
<trkpt lat="48.793826987966895" lon="9.93369000032544">
<ele>437.8</ele>
<time>2024-05-07T09:04:35Z</time>
</trkpt>
<trkpt lat="48.79387660883367" lon="9.933681450784206">
<ele>437.8</ele>
<time>2024-05-07T09:04:36Z</time>
</trkpt>
<trkpt lat="48.79393762908876" lon="9.933679522946475">
<ele>437.6</ele>
<time>2024-05-07T09:04:37Z</time>
</trkpt>
<trkpt lat="48.79399864934385" lon="9.933679522946475">
<ele>437.6</ele>
<time>2024-05-07T09:04:38Z</time>
</trkpt>
<trkpt lat="48.79405975341797" lon="9.933679522946475">
<ele>437.4</ele>
<time>2024-05-07T09:04:39Z</time>
</trkpt>
<trkpt lat="48.794124545529485" lon="9.933688156306744">
<ele>437.2</ele>
<time>2024-05-07T09:04:40Z</time>
</trkpt>
<trkpt lat="48.79418942146003" lon="9.933699555695055">
<ele>437</ele>
<time>2024-05-07T09:04:41Z</time>
</trkpt>
<trkpt lat="48.79425044171512" lon="9.933708189055324">
<ele>437</ele>
<time>2024-05-07T09:04:42Z</time>
</trkpt>
<trkpt lat="48.79431531764567" lon="9.933718666434288">
<ele>436.6</ele>
<time>2024-05-07T09:04:43Z</time>
</trkpt>
<trkpt lat="48.79438396543264" lon="9.933728137984872">
<ele>436.2</ele>
<time>2024-05-07T09:04:44Z</time>
</trkpt>
<trkpt lat="48.79445261321962" lon="9.933734843507407">
<ele>436</ele>
<time>2024-05-07T09:04:45Z</time>
</trkpt>
<trkpt lat="48.79452511668205" lon="9.933741549029946">
<ele>435.8</ele>
<time>2024-05-07T09:04:46Z</time>
</trkpt>
<trkpt lat="48.794601392000914" lon="9.93375294841826">
<ele>435.6</ele>
<time>2024-05-07T09:04:47Z</time>
</trkpt>
<trkpt lat="48.79468152299523" lon="9.933765353634952">
<ele>435.2</ele>
<time>2024-05-07T09:04:48Z</time>
</trkpt>
<trkpt lat="48.79476542584598" lon="9.9337768368423">
<ele>435</ele>
<time>2024-05-07T09:04:49Z</time>
</trkpt>
<trkpt lat="48.7948455568403" lon="9.933788236230612">
<ele>434.8</ele>
<time>2024-05-07T09:04:50Z</time>
</trkpt>
<trkpt lat="48.79493331536651" lon="9.933796869590878">
<ele>434.6</ele>
<time>2024-05-07T09:04:51Z</time>
</trkpt>
<trkpt lat="48.795013362541795" lon="9.933805419132112">
<ele>434.2</ele>
<time>2024-05-07T09:04:52Z</time>
</trkpt>
<trkpt lat="48.795093493536115" lon="9.933819752186537">
<ele>434</ele>
<time>2024-05-07T09:04:53Z</time>
</trkpt>
<trkpt lat="48.79517739638686" lon="9.933839784935117">
<ele>433.6</ele>
<time>2024-05-07T09:04:54Z</time>
</trkpt>
<trkpt lat="48.79525752738118" lon="9.933863589540124">
<ele>433.4</ele>
<time>2024-05-07T09:04:55Z</time>
</trkpt>
<trkpt lat="48.79532617516816" lon="9.933883622288704">
<ele>433</ele>
<time>2024-05-07T09:04:56Z</time>
</trkpt>
<trkpt lat="48.79539482295513" lon="9.933903655037284">
<ele>432.8</ele>
<time>2024-05-07T09:04:57Z</time>
</trkpt>
<trkpt lat="48.79546355456114" lon="9.933924609795213">
<ele>432.4</ele>
<time>2024-05-07T09:04:58Z</time>
</trkpt>
<trkpt lat="48.79552457481623" lon="9.933944642543793">
<ele>432.2</ele>
<time>2024-05-07T09:04:59Z</time>
</trkpt>
<trkpt lat="48.79558559507131" lon="9.93397138081491">
<ele>431.8</ele>
<time>2024-05-07T09:05:00Z</time>
</trkpt>
<trkpt lat="48.795646615326405" lon="9.933993257582188">
<ele>431.6</ele>
<time>2024-05-07T09:05:01Z</time>
</trkpt>
<trkpt lat="48.795703863725066" lon="9.934006668627262">
<ele>431.4</ele>
<time>2024-05-07T09:05:02Z</time>
</trkpt>
<trkpt lat="48.795761028304696" lon="9.933995185419915">
<ele>431.2</ele>
<time>2024-05-07T09:05:03Z</time>
</trkpt>
<trkpt lat="48.79580687731504" lon="9.933957047760488">
<ele>431.2</ele>
<time>2024-05-07T09:05:04Z</time>
</trkpt>
<trkpt lat="48.795845014974475" lon="9.933906504884362">
<ele>431.2</ele>
<time>2024-05-07T09:05:05Z</time>
</trkpt>
<trkpt lat="48.79587929695845" lon="9.93385118432343">
<ele>431.2</ele>
<time>2024-05-07T09:05:06Z</time>
</trkpt>
<trkpt lat="48.79591366276145" lon="9.933796869590878">
<ele>431.2</ele>
<time>2024-05-07T09:05:07Z</time>
</trkpt>
<trkpt lat="48.795944172888994" lon="9.933739621192217">
<ele>431.2</ele>
<time>2024-05-07T09:05:08Z</time>
</trkpt>
<trkpt lat="48.79597091116011" lon="9.933678600937128">
<ele>431</ele>
<time>2024-05-07T09:05:09Z</time>
</trkpt>
<trkpt lat="48.796001421287656" lon="9.93361657485366">
<ele>431</ele>
<time>2024-05-07T09:05:10Z</time>
</trkpt>
<trkpt lat="48.79602807573974" lon="9.93355463258922">
<ele>431</ele>
<time>2024-05-07T09:05:11Z</time>
</trkpt>
<trkpt lat="48.79605481401086" lon="9.93349453434348">
<ele>431</ele>
<time>2024-05-07T09:05:12Z</time>
</trkpt>
<trkpt lat="48.7960853241384" lon="9.93343636393547">
<ele>431</ele>
<time>2024-05-07T09:05:13Z</time>
</trkpt>
<trkpt lat="48.79611197859049" lon="9.93337626568973">
<ele>431</ele>
<time>2024-05-07T09:05:14Z</time>
</trkpt>
<trkpt lat="48.796138716861606" lon="9.933315245434642">
<ele>431</ele>
<time>2024-05-07T09:05:15Z</time>
</trkpt>
<trkpt lat="48.79616545513272" lon="9.933251375332476">
<ele>431.2</ele>
<time>2024-05-07T09:05:16Z</time>
</trkpt>
<trkpt lat="48.79618833772838" lon="9.933188427239656">
<ele>431.4</ele>
<time>2024-05-07T09:05:17Z</time>
</trkpt>
<trkpt lat="48.79621499218047" lon="9.933123551309109">
<ele>431.4</ele>
<time>2024-05-07T09:05:18Z</time>
</trkpt>
<trkpt lat="48.796237874776125" lon="9.93306152522564">
<ele>431.6</ele>
<time>2024-05-07T09:05:19Z</time>
</trkpt>
<trkpt lat="48.79625698551536" lon="9.93299857713282">
<ele>431.8</ele>
<time>2024-05-07T09:05:20Z</time>
</trkpt>
<trkpt lat="48.796279868111014" lon="9.932934707030654">
<ele>432</ele>
<time>2024-05-07T09:05:21Z</time>
</trkpt>
<trkpt lat="48.796298978850245" lon="9.932874608784914">
<ele>432.2</ele>
<time>2024-05-07T09:05:22Z</time>
</trkpt>
<trkpt lat="48.796321861445904" lon="9.932816438376904">
<ele>432.4</ele>
<time>2024-05-07T09:05:23Z</time>
</trkpt>
<trkpt lat="48.7963408883661" lon="9.932760195806624">
<ele>432.6</ele>
<time>2024-05-07T09:05:24Z</time>
</trkpt>
<trkpt lat="48.796359999105334" lon="9.93270873092115">
<ele>432.8</ele>
<time>2024-05-07T09:05:25Z</time>
</trkpt>
<trkpt lat="48.796379026025534" lon="9.932656260207295">
<ele>432.8</ele>
<time>2024-05-07T09:05:26Z</time>
</trkpt>
<trkpt lat="48.79640190862119" lon="9.93260663934052">
<ele>432.8</ele>
<time>2024-05-07T09:05:27Z</time>
</trkpt>
<trkpt lat="48.79642101936042" lon="9.932557102292776">
<ele>432.8</ele>
<time>2024-05-07T09:05:28Z</time>
</trkpt>
<trkpt lat="48.79644004628062" lon="9.932504631578922">
<ele>433</ele>
<time>2024-05-07T09:05:29Z</time>
</trkpt>
<trkpt lat="48.796459157019854" lon="9.93245123885572">
<ele>433</ele>
<time>2024-05-07T09:05:30Z</time>
</trkpt>
<trkpt lat="48.796478267759085" lon="9.932396840304136">
<ele>433.2</ele>
<time>2024-05-07T09:05:31Z</time>
</trkpt>
<trkpt lat="48.79649729467928" lon="9.932339591905476">
<ele>433.2</ele>
<time>2024-05-07T09:05:32Z</time>
</trkpt>
<trkpt lat="48.796516405418515" lon="9.93229005485773">
<ele>433.4</ele>
<time>2024-05-07T09:05:33Z</time>
</trkpt>
<trkpt lat="48.7965430598706" lon="9.932239511981606">
<ele>433.4</ele>
<time>2024-05-07T09:05:34Z</time>
</trkpt>
<trkpt lat="48.79656594246626" lon="9.93219181895256">
<ele>433.6</ele>
<time>2024-05-07T09:05:35Z</time>
</trkpt>
<trkpt lat="48.796592680737376" lon="9.932143203914164">
<ele>433.8</ele>
<time>2024-05-07T09:05:36Z</time>
</trkpt>
<trkpt lat="48.796615563333035" lon="9.93209358304739">
<ele>434</ele>
<time>2024-05-07T09:05:37Z</time>
</trkpt>
<trkpt lat="48.79664230160415" lon="9.932044968008997">
<ele>434.2</ele>
<time>2024-05-07T09:05:38Z</time>
</trkpt>
<trkpt lat="48.79666895605624" lon="9.932000124827027">
<ele>434.4</ele>
<time>2024-05-07T09:05:39Z</time>
</trkpt>
<trkpt lat="48.796695694327354" lon="9.931951509788632">
<ele>434.6</ele>
<time>2024-05-07T09:05:40Z</time>
</trkpt>
<trkpt lat="48.79672234877944" lon="9.931906666606665">
<ele>434.6</ele>
<time>2024-05-07T09:05:41Z</time>
</trkpt>
<trkpt lat="48.7967452313751" lon="9.931861823424695">
<ele>434.8</ele>
<time>2024-05-07T09:05:42Z</time>
</trkpt>
<trkpt lat="48.79677574150264" lon="9.93181991390884">
<ele>435</ele>
<time>2024-05-07T09:05:43Z</time>
</trkpt>
<trkpt lat="48.79680247977376" lon="9.93177792057395">
<ele>435.2</ele>
<time>2024-05-07T09:05:44Z</time>
</trkpt>
<trkpt lat="48.79682921804488" lon="9.93173693306744">
<ele>435.4</ele>
<time>2024-05-07T09:05:45Z</time>
</trkpt>
<trkpt lat="48.79685972817242" lon="9.93169686757028">
<ele>435.4</ele>
<time>2024-05-07T09:05:46Z</time>
</trkpt>
<trkpt lat="48.796890238299966" lon="9.9316596519202">
<ele>435.6</ele>
<time>2024-05-07T09:05:47Z</time>
</trkpt>
<trkpt lat="48.79692452028394" lon="9.931621514260767">
<ele>435.6</ele>
<time>2024-05-07T09:05:48Z</time>
</trkpt>
<trkpt lat="48.79695503041148" lon="9.93157859891653">
<ele>435.8</ele>
<time>2024-05-07T09:05:49Z</time>
</trkpt>
<trkpt lat="48.79698562435806" lon="9.93153660558164">
<ele>436</ele>
<time>2024-05-07T09:05:50Z</time>
</trkpt>
<trkpt lat="48.79701990634203" lon="9.931491846218703">
<ele>436.2</ele>
<time>2024-05-07T09:05:51Z</time>
</trkpt>
<trkpt lat="48.797050416469574" lon="9.931449852883816">
<ele>436.4</ele>
<time>2024-05-07T09:05:52Z</time>
</trkpt>
<trkpt lat="48.79708478227258" lon="9.931406937539576">
<ele>436.6</ele>
<time>2024-05-07T09:05:53Z</time>
</trkpt>
<trkpt lat="48.79711906425655" lon="9.93136310018599">
<ele>436.6</ele>
<time>2024-05-07T09:05:54Z</time>
</trkpt>
<trkpt lat="48.79715343005955" lon="9.931320184841752">
<ele>436.8</ele>
<time>2024-05-07T09:05:55Z</time>
</trkpt>
<trkpt lat="48.79718779586256" lon="9.931276263669131">
<ele>437</ele>
<time>2024-05-07T09:05:56Z</time>
</trkpt>
<trkpt lat="48.79722207784653" lon="9.931233348324897">
<ele>437</ele>
<time>2024-05-07T09:05:57Z</time>
</trkpt>
<trkpt lat="48.79725644364953" lon="9.931190432980657">
<ele>437.2</ele>
<time>2024-05-07T09:05:58Z</time>
</trkpt>
<trkpt lat="48.79729458130896" lon="9.93114659562707">
<ele>437.2</ele>
<time>2024-05-07T09:05:59Z</time>
</trkpt>
<trkpt lat="48.79732894711197" lon="9.93110460229218">
<ele>437.2</ele>
<time>2024-05-07T09:06:00Z</time>
</trkpt>
<trkpt lat="48.797363229095936" lon="9.931070320308208">
<ele>437.2</ele>
<time>2024-05-07T09:06:01Z</time>
</trkpt>
<trkpt lat="48.797401366755366" lon="9.931030254811049">
<ele>437.2</ele>
<time>2024-05-07T09:06:02Z</time>
</trkpt>
<trkpt lat="48.797443360090256" lon="9.930997816845776">
<ele>437.2</ele>
<time>2024-05-07T09:06:03Z</time>
</trkpt>
<trkpt lat="48.79747764207423" lon="9.930963451042771">
<ele>437.2</ele>
<time>2024-05-07T09:06:04Z</time>
</trkpt>
<trkpt lat="48.79751963540912" lon="9.93092631921172">
<ele>437.2</ele>
<time>2024-05-07T09:06:05Z</time>
</trkpt>
<trkpt lat="48.79755777306855" lon="9.930890025570989">
<ele>437.2</ele>
<time>2024-05-07T09:06:06Z</time>
</trkpt>
<trkpt lat="48.79758828319609" lon="9.93084711022675">
<ele>437.2</ele>
<time>2024-05-07T09:06:07Z</time>
</trkpt>
<trkpt lat="48.79762642085552" lon="9.930809894576669">
<ele>437.2</ele>
<time>2024-05-07T09:06:08Z</time>
</trkpt>
<trkpt lat="48.797660786658525" lon="9.930771756917238">
<ele>437.2</ele>
<time>2024-05-07T09:06:09Z</time>
</trkpt>
<trkpt lat="48.79769892431795" lon="9.930734625086188">
<ele>437.2</ele>
<time>2024-05-07T09:06:10Z</time>
</trkpt>
<trkpt lat="48.79773329012096" lon="9.93068978190422">
<ele>437.2</ele>
<time>2024-05-07T09:06:11Z</time>
</trkpt>
<trkpt lat="48.797763800248504" lon="9.930638233199716">
<ele>437.2</ele>
<time>2024-05-07T09:06:12Z</time>
</trkpt>
<trkpt lat="48.79779431037605" lon="9.930581990629436">
<ele>437.2</ele>
<time>2024-05-07T09:06:13Z</time>
</trkpt>
<trkpt lat="48.79782482050359" lon="9.930520048364995">
<ele>437.2</ele>
<time>2024-05-07T09:06:14Z</time>
</trkpt>
<trkpt lat="48.797843931242824" lon="9.93045324459672">
<ele>437.2</ele>
<time>2024-05-07T09:06:15Z</time>
</trkpt>
<trkpt lat="48.79786681383848" lon="9.930386524647474">
<ele>437.2</ele>
<time>2024-05-07T09:06:16Z</time>
</trkpt>
<trkpt lat="48.79788969643414" lon="9.930319720879195">
<ele>437.2</ele>
<time>2024-05-07T09:06:17Z</time>
</trkpt>
<trkpt lat="48.79790872335434" lon="9.930251995101573">
<ele>437.2</ele>
<time>2024-05-07T09:06:18Z</time>
</trkpt>
<trkpt lat="48.79793160595" lon="9.930185275152326">
<ele>437.2</ele>
<time>2024-05-07T09:06:19Z</time>
</trkpt>
<trkpt lat="48.797958344221115" lon="9.93011469952762">
<ele>437</ele>
<time>2024-05-07T09:06:20Z</time>
</trkpt>
<trkpt lat="48.797977371141315" lon="9.930043201893568">
<ele>437</ele>
<time>2024-05-07T09:06:21Z</time>
</trkpt>
<trkpt lat="48.79800025373697" lon="9.929973548278213">
<ele>436.8</ele>
<time>2024-05-07T09:06:22Z</time>
</trkpt>
<trkpt lat="48.79802322015166" lon="9.9298981949687">
<ele>436.8</ele>
<time>2024-05-07T09:06:23Z</time>
</trkpt>
<trkpt lat="48.79804610274732" lon="9.929822841659188">
<ele>436.6</ele>
<time>2024-05-07T09:06:24Z</time>
</trkpt>
<trkpt lat="48.79807275719941" lon="9.929748494178057">
<ele>436.4</ele>
<time>2024-05-07T09:06:25Z</time>
</trkpt>
<trkpt lat="48.798095639795065" lon="9.929668363183737">
<ele>436.4</ele>
<time>2024-05-07T09:06:26Z</time>
</trkpt>
<trkpt lat="48.79811089485884" lon="9.92958353832364">
<ele>436.2</ele>
<time>2024-05-07T09:06:27Z</time>
</trkpt>
<trkpt lat="48.79811852239072" lon="9.929491924121976">
<ele>436</ele>
<time>2024-05-07T09:06:28Z</time>
</trkpt>
<trkpt lat="48.79811852239072" lon="9.929400393739344">
<ele>435.8</ele>
<time>2024-05-07T09:06:29Z</time>
</trkpt>
<trkpt lat="48.798114750534296" lon="9.929303163662553">
<ele>435.6</ele>
<time>2024-05-07T09:06:30Z</time>
</trkpt>
<trkpt lat="48.79810712300241" lon="9.92920677177608">
<ele>435.4</ele>
<time>2024-05-07T09:06:31Z</time>
</trkpt>
<trkpt lat="48.798095639795065" lon="9.929113313555716">
<ele>435.4</ele>
<time>2024-05-07T09:06:32Z</time>
</trkpt>
<trkpt lat="48.79807275719941" lon="9.929023711010814">
<ele>435.2</ele>
<time>2024-05-07T09:06:33Z</time>
</trkpt>
<trkpt lat="48.79804987460375" lon="9.92893503047526">
<ele>434.8</ele>
<time>2024-05-07T09:06:34Z</time>
</trkpt>
<trkpt lat="48.79801936447621" lon="9.928850121796131">
<ele>434.8</ele>
<time>2024-05-07T09:06:35Z</time>
</trkpt>
<trkpt lat="48.79798885434866" lon="9.928768146783112">
<ele>434.6</ele>
<time>2024-05-07T09:06:36Z</time>
</trkpt>
<trkpt lat="48.797958344221115" lon="9.92869178764522">
<ele>434.4</ele>
<time>2024-05-07T09:06:37Z</time>
</trkpt>
<trkpt lat="48.79793160595" lon="9.928618362173438">
<ele>434.2</ele>
<time>2024-05-07T09:06:38Z</time>
</trkpt>
<trkpt lat="48.797897323966026" lon="9.928549714386463">
<ele>434.2</ele>
<time>2024-05-07T09:06:39Z</time>
</trkpt>
<trkpt lat="48.79786681383848" lon="9.928486766293643">
<ele>434</ele>
<time>2024-05-07T09:06:40Z</time>
</trkpt>
<trkpt lat="48.797840075567365" lon="9.9284200463444">
<ele>433.8</ele>
<time>2024-05-07T09:06:41Z</time>
</trkpt>
<trkpt lat="48.79781333729625" lon="9.928355170413852">
<ele>433.6</ele>
<time>2024-05-07T09:06:42Z</time>
</trkpt>
<trkpt lat="48.7977828271687" lon="9.928288450464606">
<ele>433.4</ele>
<time>2024-05-07T09:06:43Z</time>
</trkpt>
<trkpt lat="48.79774854518473" lon="9.92822357453406">
<ele>433.2</ele>
<time>2024-05-07T09:06:44Z</time>
</trkpt>
<trkpt lat="48.79771803505719" lon="9.928159704431891">
<ele>433</ele>
<time>2024-05-07T09:06:45Z</time>
</trkpt>
<trkpt lat="48.79769129678607" lon="9.928096756339071">
<ele>432.8</ele>
<time>2024-05-07T09:06:46Z</time>
</trkpt>
<trkpt lat="48.797660786658525" lon="9.928038585931064">
<ele>432.6</ele>
<time>2024-05-07T09:06:47Z</time>
</trkpt>
<trkpt lat="48.79762642085552" lon="9.927987037226558">
<ele>432.6</ele>
<time>2024-05-07T09:06:48Z</time>
</trkpt>
<trkpt lat="48.79759976640344" lon="9.927933644503357">
<ele>432.4</ele>
<time>2024-05-07T09:06:49Z</time>
</trkpt>
<trkpt lat="48.79757688380778" lon="9.927876396104692">
<ele>432.2</ele>
<time>2024-05-07T09:06:50Z</time>
</trkpt>
<trkpt lat="48.79755777306855" lon="9.927815375849605">
<ele>432.2</ele>
<time>2024-05-07T09:06:51Z</time>
</trkpt>
<trkpt lat="48.79753489047289" lon="9.927753433585169">
<ele>432.2</ele>
<time>2024-05-07T09:06:52Z</time>
</trkpt>
<trkpt lat="48.79751200787723" lon="9.92768855765462">
<ele>432.2</ele>
<time>2024-05-07T09:06:53Z</time>
</trkpt>
<trkpt lat="48.79748526960611" lon="9.927621837705374">
<ele>432.2</ele>
<time>2024-05-07T09:06:54Z</time>
</trkpt>
<trkpt lat="48.797466242685914" lon="9.927553106099367">
<ele>432</ele>
<time>2024-05-07T09:06:55Z</time>
</trkpt>
<trkpt lat="48.797443360090256" lon="9.927479680627584">
<ele>432</ele>
<time>2024-05-07T09:06:56Z</time>
</trkpt>
<trkpt lat="48.79742810502648" lon="9.927405333146451">
<ele>432</ele>
<time>2024-05-07T09:06:57Z</time>
</trkpt>
<trkpt lat="48.79741284996271" lon="9.927326124161482">
<ele>432.2</ele>
<time>2024-05-07T09:06:58Z</time>
</trkpt>
<trkpt lat="48.79739759489894" lon="9.927246998995544">
<ele>432.2</ele>
<time>2024-05-07T09:06:59Z</time>
</trkpt>
<trkpt lat="48.79737848415971" lon="9.927166868001224">
<ele>432.2</ele>
<time>2024-05-07T09:07:00Z</time>
</trkpt>
<trkpt lat="48.797367084771395" lon="9.927082043141128">
<ele>432.2</ele>
<time>2024-05-07T09:07:01Z</time>
</trkpt>
<trkpt lat="48.797363229095936" lon="9.926989506930113">
<ele>432.2</ele>
<time>2024-05-07T09:07:02Z</time>
</trkpt>
<trkpt lat="48.79735945723951" lon="9.926899904385207">
<ele>432</ele>
<time>2024-05-07T09:07:03Z</time>
</trkpt>
<trkpt lat="48.79735182970762" lon="9.926811140030622">
<ele>431.8</ele>
<time>2024-05-07T09:07:04Z</time>
</trkpt>
<trkpt lat="48.79733657464385" lon="9.92672153748572">
<ele>431.8</ele>
<time>2024-05-07T09:07:05Z</time>
</trkpt>
<trkpt lat="48.797325091436505" lon="9.92663855664432">
<ele>431.6</ele>
<time>2024-05-07T09:07:06Z</time>
</trkpt>
<trkpt lat="48.797305980697274" lon="9.92656035348773">
<ele>431.4</ele>
<time>2024-05-07T09:07:07Z</time>
</trkpt>
<trkpt lat="48.797283098101616" lon="9.926483072340488">
<ele>431.2</ele>
<time>2024-05-07T09:07:08Z</time>
</trkpt>
<trkpt lat="48.79726407118142" lon="9.926409646868706">
<ele>430.8</ele>
<time>2024-05-07T09:07:09Z</time>
</trkpt>
<trkpt lat="48.79724118858576" lon="9.926338149234653">
<ele>430.6</ele>
<time>2024-05-07T09:07:10Z</time>
</trkpt>
<trkpt lat="48.79721445031464" lon="9.926268495619295">
<ele>430.2</ele>
<time>2024-05-07T09:07:11Z</time>
</trkpt>
<trkpt lat="48.79718779586256" lon="9.926196997985244">
<ele>430</ele>
<time>2024-05-07T09:07:12Z</time>
</trkpt>
<trkpt lat="48.79716105759144" lon="9.92612642236054">
<ele>430</ele>
<time>2024-05-07T09:07:13Z</time>
</trkpt>
<trkpt lat="48.79713817499578" lon="9.926054924726486">
<ele>429.8</ele>
<time>2024-05-07T09:07:14Z</time>
</trkpt>
<trkpt lat="48.79711529240012" lon="9.925981499254704">
<ele>429.8</ele>
<time>2024-05-07T09:07:15Z</time>
</trkpt>
<trkpt lat="48.797088554129004" lon="9.92590991780162">
<ele>429.8</ele>
<time>2024-05-07T09:07:16Z</time>
</trkpt>
<trkpt lat="48.797069527208805" lon="9.925836492329836">
<ele>429.6</ele>
<time>2024-05-07T09:07:17Z</time>
</trkpt>
<trkpt lat="48.797050416469574" lon="9.925764994695784">
<ele>429.6</ele>
<time>2024-05-07T09:07:18Z</time>
</trkpt>
<trkpt lat="48.797031389549375" lon="9.925695341080427">
<ele>429.6</ele>
<time>2024-05-07T09:07:19Z</time>
</trkpt>
<trkpt lat="48.79700850695371" lon="9.925621915608644">
<ele>429.6</ele>
<time>2024-05-07T09:07:20Z</time>
</trkpt>
<trkpt lat="48.796989396214485" lon="9.925550417974591">
<ele>429.6</ele>
<time>2024-05-07T09:07:21Z</time>
</trkpt>
<trkpt lat="48.79696651361883" lon="9.925477914512156">
<ele>429.6</ele>
<time>2024-05-07T09:07:22Z</time>
</trkpt>
<trkpt lat="48.79694363102317" lon="9.925408344715834">
<ele>429.6</ele>
<time>2024-05-07T09:07:23Z</time>
</trkpt>
<trkpt lat="48.79692074842751" lon="9.925336763262749">
<ele>429.8</ele>
<time>2024-05-07T09:07:24Z</time>
</trkpt>
<trkpt lat="48.79689786583185" lon="9.925265265628695">
<ele>429.8</ele>
<time>2024-05-07T09:07:25Z</time>
</trkpt>
<trkpt lat="48.796874983236194" lon="9.925194690003991">
<ele>429.8</ele>
<time>2024-05-07T09:07:26Z</time>
</trkpt>
<trkpt lat="48.796852100640535" lon="9.925123192369938">
<ele>429.8</ele>
<time>2024-05-07T09:07:27Z</time>
</trkpt>
<trkpt lat="48.79682921804488" lon="9.925051610916851">
<ele>429.8</ele>
<time>2024-05-07T09:07:28Z</time>
</trkpt>
<trkpt lat="48.79680247977376" lon="9.9249801132828">
<ele>429.8</ele>
<time>2024-05-07T09:07:29Z</time>
</trkpt>
<trkpt lat="48.7967795971781" lon="9.924908615648746">
<ele>429.8</ele>
<time>2024-05-07T09:07:30Z</time>
</trkpt>
<trkpt lat="48.79675671458244" lon="9.924838040024042">
<ele>429.8</ele>
<time>2024-05-07T09:07:31Z</time>
</trkpt>
<trkpt lat="48.796729976311326" lon="9.924770314246416">
<ele>429.8</ele>
<time>2024-05-07T09:07:32Z</time>
</trkpt>
<trkpt lat="48.79670709371567" lon="9.924706444144247">
<ele>429.8</ele>
<time>2024-05-07T09:07:33Z</time>
</trkpt>
<trkpt lat="48.79668421112001" lon="9.9246415682137">
<ele>429.8</ele>
<time>2024-05-07T09:07:34Z</time>
</trkpt>
<trkpt lat="48.79666518419981" lon="9.924572920426726">
<ele>429.8</ele>
<time>2024-05-07T09:07:35Z</time>
</trkpt>
<trkpt lat="48.79664230160415" lon="9.9245051946491">
<ele>429.8</ele>
<time>2024-05-07T09:07:36Z</time>
</trkpt>
<trkpt lat="48.79661933518946" lon="9.924436546862124">
<ele>429.8</ele>
<time>2024-05-07T09:07:37Z</time>
</trkpt>
<trkpt lat="48.7965964525938" lon="9.92436789907515">
<ele>429.8</ele>
<time>2024-05-07T09:07:38Z</time>
</trkpt>
<trkpt lat="48.7965774256736" lon="9.924300173297524">
<ele>429.6</ele>
<time>2024-05-07T09:07:39Z</time>
</trkpt>
<trkpt lat="48.79655831493437" lon="9.92423152551055">
<ele>429.6</ele>
<time>2024-05-07T09:07:40Z</time>
</trkpt>
<trkpt lat="48.7965430598706" lon="9.924163799732924">
<ele>429.4</ele>
<time>2024-05-07T09:07:41Z</time>
</trkpt>
<trkpt lat="48.79652017727494" lon="9.924096995964646">
<ele>429.4</ele>
<time>2024-05-07T09:07:42Z</time>
</trkpt>
<trkpt lat="48.79650115035474" lon="9.9240302760154">
<ele>429.2</ele>
<time>2024-05-07T09:07:43Z</time>
</trkpt>
<trkpt lat="48.79648203961551" lon="9.923966405913234">
<ele>429.2</ele>
<time>2024-05-07T09:07:44Z</time>
</trkpt>
<trkpt lat="48.79646678455174" lon="9.923903457820415">
<ele>429</ele>
<time>2024-05-07T09:07:45Z</time>
</trkpt>
<trkpt lat="48.79644767381251" lon="9.923841431736946">
<ele>428.8</ele>
<time>2024-05-07T09:07:46Z</time>
</trkpt>
<trkpt lat="48.796432418748736" lon="9.9237747117877">
<ele>428.8</ele>
<time>2024-05-07T09:07:47Z</time>
</trkpt>
<trkpt lat="48.79642101936042" lon="9.923711763694882">
<ele>428.8</ele>
<time>2024-05-07T09:07:48Z</time>
</trkpt>
<trkpt lat="48.79641339182854" lon="9.923646887764336">
<ele>428.8</ele>
<time>2024-05-07T09:07:49Z</time>
</trkpt>
<trkpt lat="48.796398136764765" lon="9.92357823997736">
<ele>428.8</ele>
<time>2024-05-07T09:07:50Z</time>
</trkpt>
<trkpt lat="48.79639050923288" lon="9.923511436209084">
<ele>429</ele>
<time>2024-05-07T09:07:51Z</time>
</trkpt>
<trkpt lat="48.79638288170099" lon="9.923448488116264">
<ele>429.2</ele>
<time>2024-05-07T09:07:52Z</time>
</trkpt>
<trkpt lat="48.79637139849365" lon="9.92338176816702">
<ele>429.2</ele>
<time>2024-05-07T09:07:53Z</time>
</trkpt>
<trkpt lat="48.79636762663722" lon="9.923316892236471">
<ele>429.2</ele>
<time>2024-05-07T09:07:54Z</time>
</trkpt>
<trkpt lat="48.796359999105334" lon="9.923252100124955">
<ele>429.2</ele>
<time>2024-05-07T09:07:55Z</time>
</trkpt>
<trkpt lat="48.79635237157345" lon="9.92318630218506">
<ele>429.2</ele>
<time>2024-05-07T09:07:56Z</time>
</trkpt>
<trkpt lat="48.79634851589799" lon="9.92312042042613">
<ele>429.2</ele>
<time>2024-05-07T09:07:57Z</time>
</trkpt>
<trkpt lat="48.7963408883661" lon="9.923049844801426">
<ele>429.2</ele>
<time>2024-05-07T09:07:58Z</time>
</trkpt>
<trkpt lat="48.79633326083422" lon="9.922974575310946">
<ele>429.2</ele>
<time>2024-05-07T09:07:59Z</time>
</trkpt>
<trkpt lat="48.79633326083422" lon="9.922902071848512">
<ele>429.4</ele>
<time>2024-05-07T09:08:00Z</time>
</trkpt>
<trkpt lat="48.79632948897779" lon="9.922826718539">
<ele>429.4</ele>
<time>2024-05-07T09:08:01Z</time>
</trkpt>
<trkpt lat="48.796321861445904" lon="9.92275044322014">
<ele>429.4</ele>
<time>2024-05-07T09:08:02Z</time>
</trkpt>
<trkpt lat="48.796318005770445" lon="9.922673162072895">
<ele>429.4</ele>
<time>2024-05-07T09:08:03Z</time>
</trkpt>
<trkpt lat="48.79630660638213" lon="9.922596886754036">
<ele>429.4</ele>
<time>2024-05-07T09:08:04Z</time>
</trkpt>
<trkpt lat="48.79629135131836" lon="9.922523461282251">
<ele>429.4</ele>
<time>2024-05-07T09:08:05Z</time>
</trkpt>
<trkpt lat="48.79626838490367" lon="9.922452885657547">
<ele>429.4</ele>
<time>2024-05-07T09:08:06Z</time>
</trkpt>
<trkpt lat="48.796241730451584" lon="9.92239379324019">
<ele>429.4</ele>
<time>2024-05-07T09:08:07Z</time>
</trkpt>
<trkpt lat="48.79621122032404" lon="9.922340316697955">
<ele>429.4</ele>
<time>2024-05-07T09:08:08Z</time>
</trkpt>
<trkpt lat="48.79617685452104" lon="9.922298407182096">
<ele>429.2</ele>
<time>2024-05-07T09:08:09Z</time>
</trkpt>
<trkpt lat="48.79614634439349" lon="9.922258341684936">
<ele>429</ele>
<time>2024-05-07T09:08:10Z</time>
</trkpt>
<trkpt lat="48.79611197859049" lon="9.922222131863236">
<ele>429</ele>
<time>2024-05-07T09:08:11Z</time>
</trkpt>
<trkpt lat="48.79607769660652" lon="9.92219153791666">
<ele>429</ele>
<time>2024-05-07T09:08:12Z</time>
</trkpt>
<trkpt lat="48.79604333080351" lon="9.922166811302304">
<ele>429</ele>
<time>2024-05-07T09:08:13Z</time>
</trkpt>
<trkpt lat="48.79601282067597" lon="9.922140073031189">
<ele>429</ele>
<time>2024-05-07T09:08:14Z</time>
</trkpt>
<trkpt lat="48.79598993808031" lon="9.922102857381104">
<ele>429</ele>
<time>2024-05-07T09:08:15Z</time>
</trkpt>
<trkpt lat="48.79597468301654" lon="9.92205617018044">
<ele>429</ele>
<time>2024-05-07T09:08:16Z</time>
</trkpt>
<trkpt lat="48.79596705548465" lon="9.922003699466586">
<ele>429.2</ele>
<time>2024-05-07T09:08:17Z</time>
</trkpt>
<trkpt lat="48.79597091116011" lon="9.921944607049229">
<ele>429.4</ele>
<time>2024-05-07T09:08:18Z</time>
</trkpt>
<trkpt lat="48.79597468301654" lon="9.921888280659914">
<ele>429.4</ele>
<time>2024-05-07T09:08:19Z</time>
</trkpt>
<trkpt lat="48.79598616622389" lon="9.921826338395476">
<ele>429.6</ele>
<time>2024-05-07T09:08:20Z</time>
</trkpt>
<trkpt lat="48.7959975656122" lon="9.921765318140388">
<ele>429.6</ele>
<time>2024-05-07T09:08:21Z</time>
</trkpt>
<trkpt lat="48.79601282067597" lon="9.921701364219189">
<ele>429.6</ele>
<time>2024-05-07T09:08:22Z</time>
</trkpt>
<trkpt lat="48.79602807573974" lon="9.92163841612637">
<ele>429.6</ele>
<time>2024-05-07T09:08:23Z</time>
</trkpt>
<trkpt lat="48.79604718647897" lon="9.921573624014854">
<ele>429.6</ele>
<time>2024-05-07T09:08:24Z</time>
</trkpt>
<trkpt lat="48.796062441542745" lon="9.921504892408848">
<ele>429.4</ele>
<time>2024-05-07T09:08:25Z</time>
</trkpt>
<trkpt lat="48.796081468462944" lon="9.921436244621871">
<ele>429.4</ele>
<time>2024-05-07T09:08:26Z</time>
</trkpt>
<trkpt lat="48.79610820673406" lon="9.921369524672627">
<ele>429.4</ele>
<time>2024-05-07T09:08:27Z</time>
</trkpt>
<trkpt lat="48.796138716861606" lon="9.92130850441754">
<ele>429.4</ele>
<time>2024-05-07T09:08:28Z</time>
</trkpt>
<trkpt lat="48.79616922698915" lon="9.92124455049634">
<ele>429.4</ele>
<time>2024-05-07T09:08:29Z</time>
</trkpt>
<trkpt lat="48.796199737116694" lon="9.921183530241253">
<ele>429.2</ele>
<time>2024-05-07T09:08:30Z</time>
</trkpt>
<trkpt lat="48.7962341029197" lon="9.921116810292006">
<ele>429.2</ele>
<time>2024-05-07T09:08:31Z</time>
</trkpt>
<trkpt lat="48.79626838490367" lon="9.921052856370808">
<ele>429.2</ele>
<time>2024-05-07T09:08:32Z</time>
</trkpt>
<trkpt lat="48.79630275070667" lon="9.920989908277988">
<ele>429.2</ele>
<time>2024-05-07T09:08:33Z</time>
</trkpt>
<trkpt lat="48.79634474404156" lon="9.920927044004202">
<ele>429.2</ele>
<time>2024-05-07T09:08:34Z</time>
</trkpt>
<trkpt lat="48.79638665355742" lon="9.920863090083005">
<ele>429</ele>
<time>2024-05-07T09:08:35Z</time>
</trkpt>
<trkpt lat="48.79642864689231" lon="9.920800141990185">
<ele>428.8</ele>
<time>2024-05-07T09:08:36Z</time>
</trkpt>
<trkpt lat="48.7964706402272" lon="9.92072956636548">
<ele>428.6</ele>
<time>2024-05-07T09:08:37Z</time>
</trkpt>
<trkpt lat="48.79650492221117" lon="9.92065044119954">
<ele>428.4</ele>
<time>2024-05-07T09:08:38Z</time>
</trkpt>
<trkpt lat="48.7965430598706" lon="9.920568466186523">
<ele>428.2</ele>
<time>2024-05-07T09:08:39Z</time>
</trkpt>
<trkpt lat="48.796573569998145" lon="9.920474924147127">
<ele>428</ele>
<time>2024-05-07T09:08:40Z</time>
</trkpt>
<trkpt lat="48.79660030826926" lon="9.920372916385531">
<ele>427.8</ele>
<time>2024-05-07T09:08:41Z</time>
</trkpt>
<trkpt lat="48.79662319086492" lon="9.920271830633284">
<ele>427.6</ele>
<time>2024-05-07T09:08:42Z</time>
</trkpt>
<trkpt lat="48.79663844592869" lon="9.920163117349148">
<ele>427.2</ele>
<time>2024-05-07T09:08:43Z</time>
</trkpt>
<trkpt lat="48.79664607346058" lon="9.920049626380203">
<ele>427</ele>
<time>2024-05-07T09:08:44Z</time>
</trkpt>
<trkpt lat="48.79664992913604" lon="9.919937057420611">
<ele>426.8</ele>
<time>2024-05-07T09:08:45Z</time>
</trkpt>
<trkpt lat="48.79664992913604" lon="9.91982457228005">
<ele>426.4</ele>
<time>2024-05-07T09:08:46Z</time>
</trkpt>
<trkpt lat="48.79664992913604" lon="9.9197234865278">
<ele>426.2</ele>
<time>2024-05-07T09:08:47Z</time>
</trkpt>
<trkpt lat="48.79664992913604" lon="9.919621394947171">
<ele>426.2</ele>
<time>2024-05-07T09:08:48Z</time>
</trkpt>
<trkpt lat="48.79664992913604" lon="9.91952508687973">
<ele>425.8</ele>
<time>2024-05-07T09:08:49Z</time>
</trkpt>
<trkpt lat="48.79664992913604" lon="9.919431628659368">
<ele>425.6</ele>
<time>2024-05-07T09:08:50Z</time>
</trkpt>
<trkpt lat="48.79664992913604" lon="9.91934864781797">
<ele>425.4</ele>
<time>2024-05-07T09:08:51Z</time>
</trkpt>
<trkpt lat="48.79664992913604" lon="9.91926860064268">
<ele>425.2</ele>
<time>2024-05-07T09:08:52Z</time>
</trkpt>
<trkpt lat="48.796653700992465" lon="9.91919039748609">
<ele>425</ele>
<time>2024-05-07T09:08:53Z</time>
</trkpt>
<trkpt lat="48.79666132852435" lon="9.91911026649177">
<ele>425</ele>
<time>2024-05-07T09:08:54Z</time>
</trkpt>
<trkpt lat="48.79666518419981" lon="9.919036841019988">
<ele>424.8</ele>
<time>2024-05-07T09:08:55Z</time>
</trkpt>
<trkpt lat="48.796672811731696" lon="9.918966265395284">
<ele>424.8</ele>
<time>2024-05-07T09:08:56Z</time>
</trkpt>
<trkpt lat="48.79668043926358" lon="9.918898539617658">
<ele>425</ele>
<time>2024-05-07T09:08:57Z</time>
</trkpt>
<trkpt lat="48.79668806679547" lon="9.918829891830685">
<ele>425</ele>
<time>2024-05-07T09:08:58Z</time>
</trkpt>
<trkpt lat="48.796691838651896" lon="9.918760238215327">
<ele>425</ele>
<time>2024-05-07T09:08:59Z</time>
</trkpt>
<trkpt lat="48.79669946618378" lon="9.918691590428352">
<ele>425</ele>
<time>2024-05-07T09:09:00Z</time>
</trkpt>
<trkpt lat="48.79670332185924" lon="9.918621936812997">
<ele>425</ele>
<time>2024-05-07T09:09:01Z</time>
</trkpt>
<trkpt lat="48.79671094939113" lon="9.918553289026022">
<ele>425</ele>
<time>2024-05-07T09:09:02Z</time>
</trkpt>
<trkpt lat="48.79671857692301" lon="9.918488496914506">
<ele>425</ele>
<time>2024-05-07T09:09:03Z</time>
</trkpt>
<trkpt lat="48.796729976311326" lon="9.918421693146229">
<ele>425</ele>
<time>2024-05-07T09:09:04Z</time>
</trkpt>
<trkpt lat="48.79673760384321" lon="9.918354973196983">
<ele>425</ele>
<time>2024-05-07T09:09:05Z</time>
</trkpt>
<trkpt lat="48.79674908705056" lon="9.918290097266436">
<ele>425</ele>
<time>2024-05-07T09:09:06Z</time>
</trkpt>
<trkpt lat="48.79675671458244" lon="9.918225221335888">
<ele>425</ele>
<time>2024-05-07T09:09:07Z</time>
</trkpt>
<trkpt lat="48.79676811397076" lon="9.91816135123372">
<ele>425</ele>
<time>2024-05-07T09:09:08Z</time>
</trkpt>
<trkpt lat="48.7967795971781" lon="9.918098403140904">
<ele>425.2</ele>
<time>2024-05-07T09:09:09Z</time>
</trkpt>
<trkpt lat="48.796794852241874" lon="9.918034533038735">
<ele>425.4</ele>
<time>2024-05-07T09:09:10Z</time>
</trkpt>
<trkpt lat="48.79680633544922" lon="9.917971584945915">
<ele>425.6</ele>
<time>2024-05-07T09:09:11Z</time>
</trkpt>
<trkpt lat="48.79681773483753" lon="9.91790478117764">
<ele>425.6</ele>
<time>2024-05-07T09:09:12Z</time>
</trkpt>
<trkpt lat="48.79682536236942" lon="9.917837139219046">
<ele>425.6</ele>
<time>2024-05-07T09:09:13Z</time>
</trkpt>
<trkpt lat="48.79683684557676" lon="9.91776840761304">
<ele>425.6</ele>
<time>2024-05-07T09:09:14Z</time>
</trkpt>
<trkpt lat="48.79684824496507" lon="9.917697831988336">
<ele>425.8</ele>
<time>2024-05-07T09:09:15Z</time>
</trkpt>
<trkpt lat="48.79685972817242" lon="9.91762633435428">
<ele>425.8</ele>
<time>2024-05-07T09:09:16Z</time>
</trkpt>
<trkpt lat="48.796874983236194" lon="9.917558608576655">
<ele>425.6</ele>
<time>2024-05-07T09:09:17Z</time>
</trkpt>
<trkpt lat="48.796890238299966" lon="9.917488032951953">
<ele>425.6</ele>
<time>2024-05-07T09:09:18Z</time>
</trkpt>
<trkpt lat="48.796913120895624" lon="9.917416535317898">
<ele>425.6</ele>
<time>2024-05-07T09:09:19Z</time>
</trkpt>
<trkpt lat="48.796932147815824" lon="9.917343109846115">
<ele>425.6</ele>
<time>2024-05-07T09:09:20Z</time>
</trkpt>
<trkpt lat="48.796951258555055" lon="9.917264906689525">
<ele>425.6</ele>
<time>2024-05-07T09:09:21Z</time>
</trkpt>
<trkpt lat="48.796970285475254" lon="9.917188631370664">
<ele>425.6</ele>
<time>2024-05-07T09:09:22Z</time>
</trkpt>
<trkpt lat="48.796993251889944" lon="9.917108500376344">
<ele>425.6</ele>
<time>2024-05-07T09:09:23Z</time>
</trkpt>
<trkpt lat="48.7970161344856" lon="9.917024597525597">
<ele>425.6</ele>
<time>2024-05-07T09:09:24Z</time>
</trkpt>
<trkpt lat="48.79704664461315" lon="9.916948238387704">
<ele>425.4</ele>
<time>2024-05-07T09:09:25Z</time>
</trkpt>
<trkpt lat="48.79708478227258" lon="9.916871963068845">
<ele>425.4</ele>
<time>2024-05-07T09:09:26Z</time>
</trkpt>
<trkpt lat="48.79712291993201" lon="9.916793759912252">
<ele>425.2</ele>
<time>2024-05-07T09:09:27Z</time>
</trkpt>
<trkpt lat="48.79716105759144" lon="9.916716562584044">
<ele>425</ele>
<time>2024-05-07T09:09:28Z</time>
</trkpt>
<trkpt lat="48.79719919525087" lon="9.916638359427452">
<ele>425</ele>
<time>2024-05-07T09:09:29Z</time>
</trkpt>
<trkpt lat="48.79724118858576" lon="9.916560156270862">
<ele>424.8</ele>
<time>2024-05-07T09:09:30Z</time>
</trkpt>
<trkpt lat="48.79727932624519" lon="9.916481953114271">
<ele>424.6</ele>
<time>2024-05-07T09:09:31Z</time>
</trkpt>
<trkpt lat="48.797325091436505" lon="9.91640374995768">
<ele>424.4</ele>
<time>2024-05-07T09:09:32Z</time>
</trkpt>
<trkpt lat="48.797363229095936" lon="9.91632454097271">
<ele>424.4</ele>
<time>2024-05-07T09:09:33Z</time>
</trkpt>
<trkpt lat="48.797401366755366" lon="9.916248265653849">
<ele>424</ele>
<time>2024-05-07T09:09:34Z</time>
</trkpt>
<trkpt lat="48.7974395044148" lon="9.916178695857525">
<ele>423.8</ele>
<time>2024-05-07T09:09:35Z</time>
</trkpt>
<trkpt lat="48.7974738702178" lon="9.916114741936326">
<ele>423.6</ele>
<time>2024-05-07T09:09:36Z</time>
</trkpt>
<trkpt lat="48.7975082360208" lon="9.916051793843508">
<ele>423.4</ele>
<time>2024-05-07T09:09:37Z</time>
</trkpt>
<trkpt lat="48.79753874614835" lon="9.915994629263878">
<ele>423</ele>
<time>2024-05-07T09:09:38Z</time>
</trkpt>
<trkpt lat="48.79756925627589" lon="9.915933609008787">
<ele>422.8</ele>
<time>2024-05-07T09:09:39Z</time>
</trkpt>
<trkpt lat="48.79759976640344" lon="9.91587351076305">
<ele>422.4</ele>
<time>2024-05-07T09:09:40Z</time>
</trkpt>
<trkpt lat="48.79763404838741" lon="9.91581148467958">
<ele>422.2</ele>
<time>2024-05-07T09:09:41Z</time>
</trkpt>
<trkpt lat="48.79766841419041" lon="9.915746608749032">
<ele>422</ele>
<time>2024-05-07T09:09:42Z</time>
</trkpt>
<trkpt lat="48.79769892431795" lon="9.915679888799788">
<ele>421.8</ele>
<time>2024-05-07T09:09:43Z</time>
</trkpt>
<trkpt lat="48.79773329012096" lon="9.915608391165732">
<ele>421.8</ele>
<time>2024-05-07T09:09:44Z</time>
</trkpt>
<trkpt lat="48.797763800248504" lon="9.91553303785622">
<ele>421.6</ele>
<time>2024-05-07T09:09:45Z</time>
</trkpt>
<trkpt lat="48.79779431037605" lon="9.91545676253736">
<ele>421.4</ele>
<time>2024-05-07T09:09:46Z</time>
</trkpt>
<trkpt lat="48.79782482050359" lon="9.91537663154304">
<ele>421.2</ele>
<time>2024-05-07T09:09:47Z</time>
</trkpt>
<trkpt lat="48.79785155877471" lon="9.915294572710993">
<ele>421</ele>
<time>2024-05-07T09:09:48Z</time>
</trkpt>
<trkpt lat="48.79787444137037" lon="9.915211675688624">
<ele>420.8</ele>
<time>2024-05-07T09:09:49Z</time>
</trkpt>
<trkpt lat="48.79790109582245" lon="9.915129616856577">
<ele>420.8</ele>
<time>2024-05-07T09:09:50Z</time>
</trkpt>
<trkpt lat="48.797920206561685" lon="9.915046636015177">
<ele>420.6</ele>
<time>2024-05-07T09:09:51Z</time>
</trkpt>
<trkpt lat="48.79793160595" lon="9.91496181115508">
<ele>420.4</ele>
<time>2024-05-07T09:09:52Z</time>
</trkpt>
<trkpt lat="48.79794686101377" lon="9.91488360799849">
<ele>420.2</ele>
<time>2024-05-07T09:09:53Z</time>
</trkpt>
<trkpt lat="48.797954488545656" lon="9.914808254688978">
<ele>420</ele>
<time>2024-05-07T09:09:54Z</time>
</trkpt>
<trkpt lat="48.797958344221115" lon="9.914726195856929">
<ele>419.8</ele>
<time>2024-05-07T09:09:55Z</time>
</trkpt>
<trkpt lat="48.79796211607754" lon="9.91464514285326">
<ele>419.6</ele>
<time>2024-05-07T09:09:56Z</time>
</trkpt>
<trkpt lat="48.79796211607754" lon="9.914561240002511">
<ele>419.4</ele>
<time>2024-05-07T09:09:57Z</time>
</trkpt>
<trkpt lat="48.797954488545656" lon="9.914476331323383">
<ele>419</ele>
<time>2024-05-07T09:09:58Z</time>
</trkpt>
<trkpt lat="48.79794308915734" lon="9.91439150646329">
<ele>418.8</ele>
<time>2024-05-07T09:09:59Z</time>
</trkpt>
<trkpt lat="48.79792783409357" lon="9.914306597784162">
<ele>418.4</ele>
<time>2024-05-07T09:10:00Z</time>
</trkpt>
<trkpt lat="48.79790872335434" lon="9.914221689105034">
<ele>418.2</ele>
<time>2024-05-07T09:10:01Z</time>
</trkpt>
<trkpt lat="48.79789346829057" lon="9.914134936407208">
<ele>418</ele>
<time>2024-05-07T09:10:02Z</time>
</trkpt>
<trkpt lat="48.79787444137037" lon="9.914045333862305">
<ele>417.8</ele>
<time>2024-05-07T09:10:03Z</time>
</trkpt>
<trkpt lat="48.79785918630659" lon="9.913958497345448">
<ele>417.6</ele>
<time>2024-05-07T09:10:04Z</time>
</trkpt>
<trkpt lat="48.79784770309925" lon="9.913869816809893">
<ele>417.4</ele>
<time>2024-05-07T09:10:05Z</time>
</trkpt>
<trkpt lat="48.797843931242824" lon="9.913780130445955">
<ele>417</ele>
<time>2024-05-07T09:10:06Z</time>
</trkpt>
<trkpt lat="48.79784770309925" lon="9.913691449910402">
<ele>416.8</ele>
<time>2024-05-07T09:10:07Z</time>
</trkpt>
<trkpt lat="48.79785533063114" lon="9.913606625050306">
<ele>416.6</ele>
<time>2024-05-07T09:10:08Z</time>
</trkpt>
<trkpt lat="48.79787444137037" lon="9.913526494055986">
<ele>416.6</ele>
<time>2024-05-07T09:10:09Z</time>
</trkpt>
<trkpt lat="48.79788584075868" lon="9.913448290899396">
<ele>416.2</ele>
<time>2024-05-07T09:10:10Z</time>
</trkpt>
<trkpt lat="48.797897323966026" lon="9.913368159905076">
<ele>416</ele>
<time>2024-05-07T09:10:11Z</time>
</trkpt>
<trkpt lat="48.79790495149791" lon="9.913288112729788">
<ele>415.8</ele>
<time>2024-05-07T09:10:12Z</time>
</trkpt>
<trkpt lat="48.79790872335434" lon="9.913206975907087">
<ele>415.6</ele>
<time>2024-05-07T09:10:13Z</time>
</trkpt>
<trkpt lat="48.79790495149791" lon="9.91312114521861">
<ele>415.4</ele>
<time>2024-05-07T09:10:14Z</time>
</trkpt>
<trkpt lat="48.797897323966026" lon="9.913035314530134">
<ele>415.2</ele>
<time>2024-05-07T09:10:15Z</time>
</trkpt>
<trkpt lat="48.79789346829057" lon="9.912948561832309">
<ele>415</ele>
<time>2024-05-07T09:10:16Z</time>
</trkpt>
<trkpt lat="48.797882068902254" lon="9.912857031449676">
<ele>414.8</ele>
<time>2024-05-07T09:10:17Z</time>
</trkpt>
<trkpt lat="48.79787444137037" lon="9.912766423076391">
<ele>414.6</ele>
<time>2024-05-07T09:10:18Z</time>
</trkpt>
<trkpt lat="48.79786681383848" lon="9.912672964856029">
<ele>414.6</ele>
<time>2024-05-07T09:10:19Z</time>
</trkpt>
<trkpt lat="48.79785533063114" lon="9.912578500807284">
<ele>414.4</ele>
<time>2024-05-07T09:10:20Z</time>
</trkpt>
<trkpt lat="48.797843931242824" lon="9.912486970424652">
<ele>414.2</ele>
<time>2024-05-07T09:10:21Z</time>
</trkpt>
<trkpt lat="48.79782859236002" lon="9.912396362051368">
<ele>414.2</ele>
<time>2024-05-07T09:10:22Z</time>
</trkpt>
<trkpt lat="48.79781333729625" lon="9.912308687344192">
<ele>414</ele>
<time>2024-05-07T09:10:23Z</time>
</trkpt>
<trkpt lat="48.79778668284416" lon="9.912224700674416">
<ele>413.8</ele>
<time>2024-05-07T09:10:24Z</time>
</trkpt>
<trkpt lat="48.797759944573045" lon="9.912143647670746">
<ele>413.6</ele>
<time>2024-05-07T09:10:25Z</time>
</trkpt>
<trkpt lat="48.79773329012096" lon="9.912065444514155">
<ele>413.4</ele>
<time>2024-05-07T09:10:26Z</time>
</trkpt>
<trkpt lat="48.79769515246153" lon="9.91199964657426">
<ele>413.2</ele>
<time>2024-05-07T09:10:27Z</time>
</trkpt>
<trkpt lat="48.79765315912664" lon="9.911934770643713">
<ele>413</ele>
<time>2024-05-07T09:10:28Z</time>
</trkpt>
<trkpt lat="48.79760739393532" lon="9.911874756217005">
<ele>413</ele>
<time>2024-05-07T09:10:29Z</time>
</trkpt>
<trkpt lat="48.79756540060043" lon="9.911814657971265">
<ele>413</ele>
<time>2024-05-07T09:10:30Z</time>
</trkpt>
<trkpt lat="48.797527262941" lon="9.911754559725525">
<ele>413</ele>
<time>2024-05-07T09:10:31Z</time>
</trkpt>
<trkpt lat="48.797481497749686" lon="9.911693539470434">
<ele>413</ele>
<time>2024-05-07T09:10:32Z</time>
</trkpt>
<trkpt lat="48.79743187688291" lon="9.91164207458496">
<ele>413.2</ele>
<time>2024-05-07T09:10:33Z</time>
</trkpt>
<trkpt lat="48.79738233983517" lon="9.91160485893488">
<ele>413.2</ele>
<time>2024-05-07T09:10:34Z</time>
</trkpt>
<trkpt lat="48.797325091436505" lon="9.911575270816684">
<ele>413.2</ele>
<time>2024-05-07T09:10:35Z</time>
</trkpt>
<trkpt lat="48.79726407118142" lon="9.911556243896484">
<ele>413.2</ele>
<time>2024-05-07T09:10:36Z</time>
</trkpt>
<trkpt lat="48.79720305092633" lon="9.911539983004332">
<ele>413.2</ele>
<time>2024-05-07T09:10:37Z</time>
</trkpt>
<trkpt lat="48.797145802527666" lon="9.91152380593121">
<ele>413.2</ele>
<time>2024-05-07T09:10:38Z</time>
</trkpt>
<trkpt lat="48.79709240980446" lon="9.911508550867438">
<ele>413</ele>
<time>2024-05-07T09:10:39Z</time>
</trkpt>
<trkpt lat="48.79703901708126" lon="9.911488518118858">
<ele>413</ele>
<time>2024-05-07T09:10:40Z</time>
</trkpt>
<trkpt lat="48.796989396214485" lon="9.911471335217357">
<ele>413</ele>
<time>2024-05-07T09:10:41Z</time>
</trkpt>
<trkpt lat="48.79693977534771" lon="9.911455074325204">
<ele>413.2</ele>
<time>2024-05-07T09:10:42Z</time>
</trkpt>
<trkpt lat="48.79689401015639" lon="9.91144174709916">
<ele>413.4</ele>
<time>2024-05-07T09:10:43Z</time>
</trkpt>
<trkpt lat="48.79684824496507" lon="9.911428419873118">
<ele>413.6</ele>
<time>2024-05-07T09:10:44Z</time>
</trkpt>
<trkpt lat="48.796810107305646" lon="9.911419786512852">
<ele>413.8</ele>
<time>2024-05-07T09:10:45Z</time>
</trkpt>
<trkpt lat="48.796771969646215" lon="9.911415092647076">
<ele>414</ele>
<time>2024-05-07T09:10:46Z</time>
</trkpt>
<trkpt lat="48.79673760384321" lon="9.911408387124538">
<ele>414.2</ele>
<time>2024-05-07T09:10:47Z</time>
</trkpt>
<trkpt lat="48.79670332185924" lon="9.911399837583303">
<ele>414.4</ele>
<time>2024-05-07T09:10:48Z</time>
</trkpt>
<trkpt lat="48.79666518419981" lon="9.911390282213688">
<ele>414.6</ele>
<time>2024-05-07T09:10:49Z</time>
</trkpt>
<trkpt lat="48.79663081839681" lon="9.91138164885342">
<ele>414.8</ele>
<time>2024-05-07T09:10:50Z</time>
</trkpt>
<trkpt lat="48.79660030826926" lon="9.911371171474457">
<ele>415.2</ele>
<time>2024-05-07T09:10:51Z</time>
</trkpt>
<trkpt lat="48.79656594246626" lon="9.911364549770951">
<ele>415.4</ele>
<time>2024-05-07T09:10:52Z</time>
</trkpt>
<trkpt lat="48.79653166048229" lon="9.911352144554256">
<ele>415.8</ele>
<time>2024-05-07T09:10:53Z</time>
</trkpt>
<trkpt lat="48.79649352282286" lon="9.911331105977297">
<ele>416</ele>
<time>2024-05-07T09:10:54Z</time>
</trkpt>
<trkpt lat="48.79645152948797" lon="9.91130822338164">
<ele>416.4</ele>
<time>2024-05-07T09:10:55Z</time>
</trkpt>
<trkpt lat="48.79640953615308" lon="9.91128819063306">
<ele>416.4</ele>
<time>2024-05-07T09:10:56Z</time>
</trkpt>
<trkpt lat="48.79636377096176" lon="9.91126631386578">
<ele>416.6</ele>
<time>2024-05-07T09:10:57Z</time>
</trkpt>
<trkpt lat="48.796318005770445" lon="9.91124527528882">
<ele>416.6</ele>
<time>2024-05-07T09:10:58Z</time>
</trkpt>
<trkpt lat="48.79626838490367" lon="9.91122817620635">
<ele>416.8</ele>
<time>2024-05-07T09:10:59Z</time>
</trkpt>
<trkpt lat="48.79622261971235" lon="9.911218620836737">
<ele>416.8</ele>
<time>2024-05-07T09:11:00Z</time>
</trkpt>
<trkpt lat="48.796180710196495" lon="9.911212921142578">
<ele>416.6</ele>
<time>2024-05-07T09:11:01Z</time>
</trkpt>
<trkpt lat="48.796138716861606" lon="9.911201437935231">
<ele>416.6</ele>
<time>2024-05-07T09:11:02Z</time>
</trkpt>
<trkpt lat="48.79609672352672" lon="9.911176627501844">
<ele>416.6</ele>
<time>2024-05-07T09:11:03Z</time>
</trkpt>
<trkpt lat="48.796058585867286" lon="9.911138489842417">
<ele>416.6</ele>
<time>2024-05-07T09:11:04Z</time>
</trkpt>
<trkpt lat="48.796020448207855" lon="9.911085097119212">
<ele>416.4</ele>
<time>2024-05-07T09:11:05Z</time>
</trkpt>
<trkpt lat="48.795978538692" lon="9.91102784872055">
<ele>416.2</ele>
<time>2024-05-07T09:11:06Z</time>
</trkpt>
<trkpt lat="48.795940317213535" lon="9.910980155691504">
<ele>416.2</ele>
<time>2024-05-07T09:11:07Z</time>
</trkpt>
<trkpt lat="48.795902179554105" lon="9.910938246175649">
<ele>415.8</ele>
<time>2024-05-07T09:11:08Z</time>
</trkpt>
<trkpt lat="48.79586789757013" lon="9.910898180678489">
<ele>415.6</ele>
<time>2024-05-07T09:11:09Z</time>
</trkpt>
<trkpt lat="48.79583738744259" lon="9.910860043019056">
<ele>415.2</ele>
<time>2024-05-07T09:11:10Z</time>
</trkpt>
<trkpt lat="48.79580687731504" lon="9.910819977521896">
<ele>415</ele>
<time>2024-05-07T09:11:11Z</time>
</trkpt>
<trkpt lat="48.795783994719386" lon="9.910783767700195">
<ele>414.8</ele>
<time>2024-05-07T09:11:12Z</time>
</trkpt>
<trkpt lat="48.795764883980155" lon="9.910755101591349">
<ele>414.6</ele>
<time>2024-05-07T09:11:13Z</time>
</trkpt>
<trkpt lat="48.7957420013845" lon="9.910726519301534">
<ele>414.4</ele>
<time>2024-05-07T09:11:14Z</time>
</trkpt>
<trkpt lat="48.79572674632072" lon="9.91069793701172">
<ele>414.2</ele>
<time>2024-05-07T09:11:15Z</time>
</trkpt>
<trkpt lat="48.79571526311338" lon="9.910659715533257">
<ele>414</ele>
<time>2024-05-07T09:11:16Z</time>
</trkpt>
<trkpt lat="48.79570763558149" lon="9.910605400800703">
<ele>414</ele>
<time>2024-05-07T09:11:17Z</time>
</trkpt>
<trkpt lat="48.79569623619318" lon="9.910545302554963">
<ele>413.8</ele>
<time>2024-05-07T09:11:18Z</time>
</trkpt>
<trkpt lat="48.795684752985835" lon="9.910485204309223">
<ele>413.8</ele>
<time>2024-05-07T09:11:19Z</time>
</trkpt>
<trkpt lat="48.79567335359752" lon="9.910421334207058">
<ele>413.6</ele>
<time>2024-05-07T09:11:20Z</time>
</trkpt>
<trkpt lat="48.79566187039018" lon="9.91036031395197">
<ele>413.4</ele>
<time>2024-05-07T09:11:21Z</time>
</trkpt>
<trkpt lat="48.79565047100186" lon="9.91030021570623">
<ele>413.4</ele>
<time>2024-05-07T09:11:22Z</time>
</trkpt>
<trkpt lat="48.79563898779452" lon="9.91023818962276">
<ele>413.4</ele>
<time>2024-05-07T09:11:23Z</time>
</trkpt>
<trkpt lat="48.795627588406205" lon="9.910175241529942">
<ele>413.2</ele>
<time>2024-05-07T09:11:24Z</time>
</trkpt>
<trkpt lat="48.79561610519886" lon="9.910116149112582">
<ele>413.2</ele>
<time>2024-05-07T09:11:25Z</time>
</trkpt>
<trkpt lat="48.79560085013509" lon="9.910057056695225">
<ele>413.2</ele>
<time>2024-05-07T09:11:26Z</time>
</trkpt>
<trkpt lat="48.79558936692774" lon="9.91000173613429">
<ele>413</ele>
<time>2024-05-07T09:11:27Z</time>
</trkpt>
<trkpt lat="48.79557411186397" lon="9.909948343411088">
<ele>413</ele>
<time>2024-05-07T09:11:28Z</time>
</trkpt>
<trkpt lat="48.79556271247566" lon="9.909894866868854">
<ele>413</ele>
<time>2024-05-07T09:11:29Z</time>
</trkpt>
<trkpt lat="48.795547457411885" lon="9.90984340198338">
<ele>413.2</ele>
<time>2024-05-07T09:11:30Z</time>
</trkpt>
<trkpt lat="48.79553220234811" lon="9.909790009260178">
<ele>413.2</ele>
<time>2024-05-07T09:11:31Z</time>
</trkpt>
<trkpt lat="48.79552071914077" lon="9.909731838852167">
<ele>413.2</ele>
<time>2024-05-07T09:11:32Z</time>
</trkpt>
<trkpt lat="48.79550546407699" lon="9.909676518291237">
<ele>413.4</ele>
<time>2024-05-07T09:11:33Z</time>
</trkpt>
<trkpt lat="48.7954864371568" lon="9.909618347883224">
<ele>413.4</ele>
<time>2024-05-07T09:11:34Z</time>
</trkpt>
<trkpt lat="48.79547495394945" lon="9.909564955160022">
<ele>413.4</ele>
<time>2024-05-07T09:11:35Z</time>
</trkpt>
<trkpt lat="48.79546355456114" lon="9.909520111978054">
<ele>413.4</ele>
<time>2024-05-07T09:11:36Z</time>
</trkpt>
<trkpt lat="48.79545207135379" lon="9.909478118643165">
<ele>413.4</ele>
<time>2024-05-07T09:11:37Z</time>
</trkpt>
<trkpt lat="48.795448299497366" lon="9.909441908821464">
<ele>413.4</ele>
<time>2024-05-07T09:11:38Z</time>
</trkpt>
<trkpt lat="48.79544067196548" lon="9.909406621009111">
<ele>413.4</ele>
<time>2024-05-07T09:11:39Z</time>
</trkpt>
<trkpt lat="48.79543681629002" lon="9.909373261034489">
<ele>413.4</ele>
<time>2024-05-07T09:11:40Z</time>
</trkpt>
<trkpt lat="48.79542156122625" lon="9.909343672916291">
<ele>413.2</ele>
<time>2024-05-07T09:11:41Z</time>
</trkpt>
<trkpt lat="48.79541770555079" lon="9.909323640167711">
<ele>413.2</ele>
<time>2024-05-07T09:11:42Z</time>
</trkpt>
<trkpt lat="48.79541393369436" lon="9.909306457266212">
<ele>413.2</ele>
<time>2024-05-07T09:11:43Z</time>
</trkpt>
<trkpt lat="48.795410078018904" lon="9.90929028019309">
<ele>413</ele>
<time>2024-05-07T09:11:44Z</time>
</trkpt>
<trkpt lat="48.79540630616248" lon="9.909276952967048">
<ele>413</ele>
<time>2024-05-07T09:11:45Z</time>
</trkpt>
<trkpt lat="48.79540245048702" lon="9.909263541921971">
<ele>413</ele>
<time>2024-05-07T09:11:46Z</time>
</trkpt>
<trkpt lat="48.79539867863059" lon="9.909254992380738">
<ele>412.8</ele>
<time>2024-05-07T09:11:47Z</time>
</trkpt>
<trkpt lat="48.79539482295513" lon="9.90925021469593">
<ele>412.8</ele>
<time>2024-05-07T09:11:48Z</time>
</trkpt>
<trkpt lat="48.79539482295513" lon="9.9092482868582">
<ele>412.8</ele>
<time>2024-05-07T09:11:49Z</time>
</trkpt>
<trkpt lat="48.79539482295513" lon="9.909244515001774">
<ele>412.8</ele>
<time>2024-05-07T09:11:50Z</time>
</trkpt>
<trkpt lat="48.79539482295513" lon="9.909243509173391">
<ele>412.8</ele>
<time>2024-05-07T09:11:51Z</time>
</trkpt>
<trkpt lat="48.79539482295513" lon="9.909241665154696">
<ele>412.8</ele>
<time>2024-05-07T09:11:53Z</time>
</trkpt>
<trkpt lat="48.79539482295513" lon="9.909239737316966">
<ele>412.6</ele>
<time>2024-05-07T09:11:55Z</time>
</trkpt>
<trkpt lat="48.79539482295513" lon="9.909238815307615">
<ele>412.4</ele>
<time>2024-05-07T09:11:59Z</time>
</trkpt>
<trkpt lat="48.79539482295513" lon="9.909234959632158">
<ele>412.4</ele>
<time>2024-05-07T09:12:00Z</time>
</trkpt>
<trkpt lat="48.79539482295513" lon="9.909233031794429">
<ele>412.2</ele>
<time>2024-05-07T09:12:01Z</time>
</trkpt>
<trkpt lat="48.79539482295513" lon="9.9092311039567">
<ele>412</ele>
<time>2024-05-07T09:12:02Z</time>
</trkpt>
<trkpt lat="48.79539482295513" lon="9.90923018194735">
<ele>412</ele>
<time>2024-05-07T09:12:05Z</time>
</trkpt>
<trkpt lat="48.79539482295513" lon="9.909226410090923">
<ele>411.8</ele>
<time>2024-05-07T09:12:07Z</time>
</trkpt>
<trkpt lat="48.79539482295513" lon="9.909225404262545">
<ele>411.8</ele>
<time>2024-05-07T09:12:09Z</time>
</trkpt>
<trkpt lat="48.79539482295513" lon="9.909223476424811">
<ele>411.8</ele>
<time>2024-05-07T09:12:11Z</time>
</trkpt>
<trkpt lat="48.79539482295513" lon="9.909221632406116">
<ele>411.6</ele>
<time>2024-05-07T09:12:14Z</time>
</trkpt>
<trkpt lat="48.79539482295513" lon="9.909219704568386">
<ele>411.6</ele>
<time>2024-05-07T09:12:16Z</time>
</trkpt>
<trkpt lat="48.79539482295513" lon="9.909216854721308">
<ele>411.6</ele>
<time>2024-05-07T09:12:18Z</time>
</trkpt>
<trkpt lat="48.79539482295513" lon="9.909201599657536">
<ele>411.6</ele>
<time>2024-05-07T09:12:19Z</time>
</trkpt>
<trkpt lat="48.79539482295513" lon="9.909183494746683">
<ele>411.6</ele>
<time>2024-05-07T09:12:20Z</time>
</trkpt>
<trkpt lat="48.795391051098704" lon="9.909154828637838">
<ele>411.4</ele>
<time>2024-05-07T09:12:21Z</time>
</trkpt>
<trkpt lat="48.795387195423245" lon="9.909126246348023">
<ele>411.4</ele>
<time>2024-05-07T09:12:22Z</time>
</trkpt>
<trkpt lat="48.79537956789136" lon="9.909086180850863">
<ele>411.4</ele>
<time>2024-05-07T09:12:23Z</time>
</trkpt>
<trkpt lat="48.79537579603493" lon="9.909043265506623">
<ele>411.4</ele>
<time>2024-05-07T09:12:24Z</time>
</trkpt>
<trkpt lat="48.795368168503046" lon="9.908998422324656">
<ele>411.6</ele>
<time>2024-05-07T09:12:25Z</time>
</trkpt>
<trkpt lat="48.795368168503046" lon="9.908949807286264">
<ele>411.6</ele>
<time>2024-05-07T09:12:26Z</time>
</trkpt>
<trkpt lat="48.79536431282759" lon="9.90889356471598">
<ele>411.6</ele>
<time>2024-05-07T09:12:27Z</time>
</trkpt>
<trkpt lat="48.79536431282759" lon="9.908833466470242">
<ele>411.6</ele>
<time>2024-05-07T09:12:28Z</time>
</trkpt>
<trkpt lat="48.79536054097116" lon="9.908769596368074">
<ele>411.6</ele>
<time>2024-05-07T09:12:29Z</time>
</trkpt>
<trkpt lat="48.7953566852957" lon="9.908706648275256">
<ele>411.6</ele>
<time>2024-05-07T09:12:30Z</time>
</trkpt>
<trkpt lat="48.7953566852957" lon="9.908643700182438">
<ele>411.6</ele>
<time>2024-05-07T09:12:31Z</time>
</trkpt>
<trkpt lat="48.795352913439274" lon="9.90857790224254">
<ele>411.8</ele>
<time>2024-05-07T09:12:32Z</time>
</trkpt>
<trkpt lat="48.795352913439274" lon="9.908512104302645">
<ele>411.8</ele>
<time>2024-05-07T09:12:33Z</time>
</trkpt>
<trkpt lat="48.795352913439274" lon="9.908445300534368">
<ele>412</ele>
<time>2024-05-07T09:12:34Z</time>
</trkpt>
<trkpt lat="48.795352913439274" lon="9.908378580585122">
<ele>412</ele>
<time>2024-05-07T09:12:35Z</time>
</trkpt>
<trkpt lat="48.795349057763815" lon="9.908311776816843">
<ele>412</ele>
<time>2024-05-07T09:12:36Z</time>
</trkpt>
<trkpt lat="48.795349057763815" lon="9.908246984705327">
<ele>412.2</ele>
<time>2024-05-07T09:12:37Z</time>
</trkpt>
<trkpt lat="48.795349057763815" lon="9.908180180937052">
<ele>412.2</ele>
<time>2024-05-07T09:12:38Z</time>
</trkpt>
<trkpt lat="48.795352913439274" lon="9.908113460987806">
<ele>412.2</ele>
<time>2024-05-07T09:12:39Z</time>
</trkpt>
<trkpt lat="48.7953566852957" lon="9.90804858505726">
<ele>412.4</ele>
<time>2024-05-07T09:12:40Z</time>
</trkpt>
<trkpt lat="48.7953566852957" lon="9.907983709126713">
<ele>412.4</ele>
<time>2024-05-07T09:12:41Z</time>
</trkpt>
<trkpt lat="48.79536054097116" lon="9.907921766862271">
<ele>412.4</ele>
<time>2024-05-07T09:12:42Z</time>
</trkpt>
<trkpt lat="48.79536054097116" lon="9.907859740778804">
<ele>412.4</ele>
<time>2024-05-07T09:12:43Z</time>
</trkpt>
<trkpt lat="48.79536054097116" lon="9.907803498208525">
<ele>412.6</ele>
<time>2024-05-07T09:12:44Z</time>
</trkpt>
<trkpt lat="48.79536431282759" lon="9.90774624980986">
<ele>412.8</ele>
<time>2024-05-07T09:12:45Z</time>
</trkpt>
<trkpt lat="48.79536431282759" lon="9.907685229554772">
<ele>413.2</ele>
<time>2024-05-07T09:12:46Z</time>
</trkpt>
<trkpt lat="48.79536054097116" lon="9.907625131309032">
<ele>413.4</ele>
<time>2024-05-07T09:12:47Z</time>
</trkpt>
<trkpt lat="48.79536054097116" lon="9.907563189044597">
<ele>413.6</ele>
<time>2024-05-07T09:12:48Z</time>
</trkpt>
<trkpt lat="48.7953566852957" lon="9.907505018636584">
<ele>413.8</ele>
<time>2024-05-07T09:12:49Z</time>
</trkpt>
<trkpt lat="48.795352913439274" lon="9.907451625913382">
<ele>414</ele>
<time>2024-05-07T09:12:50Z</time>
</trkpt>
<trkpt lat="48.79534528590739" lon="9.907402927055957">
<ele>414.2</ele>
<time>2024-05-07T09:12:51Z</time>
</trkpt>
<trkpt lat="48.79534143023193" lon="9.907355234026909">
<ele>414.4</ele>
<time>2024-05-07T09:12:52Z</time>
</trkpt>
<trkpt lat="48.79534143023193" lon="9.907308546826243">
<ele>414.6</ele>
<time>2024-05-07T09:12:53Z</time>
</trkpt>
<trkpt lat="48.7953566852957" lon="9.907268481329083">
<ele>414.8</ele>
<time>2024-05-07T09:12:54Z</time>
</trkpt>
<trkpt lat="48.79538342356682" lon="9.90723512135446">
<ele>414.8</ele>
<time>2024-05-07T09:12:55Z</time>
</trkpt>
<trkpt lat="48.795410078018904" lon="9.90719698369503">
<ele>414.8</ele>
<time>2024-05-07T09:12:56Z</time>
</trkpt>
<trkpt lat="48.79544067196548" lon="9.907159768044949">
<ele>415</ele>
<time>2024-05-07T09:12:57Z</time>
</trkpt>
<trkpt lat="48.79548258148134" lon="9.907133029773831">
<ele>415</ele>
<time>2024-05-07T09:12:58Z</time>
</trkpt>
<trkpt lat="48.79552071914077" lon="9.907106375321746">
<ele>415</ele>
<time>2024-05-07T09:12:59Z</time>
</trkpt>
<trkpt lat="48.7955588568002" lon="9.907083492726088">
<ele>415</ele>
<time>2024-05-07T09:13:00Z</time>
</trkpt>
<trkpt lat="48.79560085013509" lon="9.907059604302049">
<ele>415</ele>
<time>2024-05-07T09:13:01Z</time>
</trkpt>
<trkpt lat="48.79563898779452" lon="9.90703672170639">
<ele>415</ele>
<time>2024-05-07T09:13:02Z</time>
</trkpt>
<trkpt lat="48.79568098112941" lon="9.907012917101383">
<ele>415</ele>
<time>2024-05-07T09:13:03Z</time>
</trkpt>
<trkpt lat="48.79572674632072" lon="9.906986178830266">
<ele>415</ele>
<time>2024-05-07T09:13:04Z</time>
</trkpt>
<trkpt lat="48.79576865583658" lon="9.906954746693373">
<ele>415.2</ele>
<time>2024-05-07T09:13:05Z</time>
</trkpt>
<trkpt lat="48.79581064917147" lon="9.906923230737448">
<ele>415.2</ele>
<time>2024-05-07T09:13:06Z</time>
</trkpt>
<trkpt lat="48.79585641436279" lon="9.906893726438284">
<ele>415.4</ele>
<time>2024-05-07T09:13:07Z</time>
</trkpt>
<trkpt lat="48.795902179554105" lon="9.906865060329435">
<ele>415.4</ele>
<time>2024-05-07T09:13:08Z</time>
</trkpt>
<trkpt lat="48.79595180042088" lon="9.906834550201893">
<ele>415.4</ele>
<time>2024-05-07T09:13:09Z</time>
</trkpt>
<trkpt lat="48.79600519314408" lon="9.906803118065">
<ele>415.4</ele>
<time>2024-05-07T09:13:10Z</time>
</trkpt>
<trkpt lat="48.796058585867286" lon="9.906764980405567">
<ele>415.4</ele>
<time>2024-05-07T09:13:11Z</time>
</trkpt>
<trkpt lat="48.79611197859049" lon="9.906729692593215">
<ele>415.6</ele>
<time>2024-05-07T09:13:12Z</time>
</trkpt>
<trkpt lat="48.79617308266461" lon="9.906693398952484">
<ele>415.6</ele>
<time>2024-05-07T09:13:13Z</time>
</trkpt>
<trkpt lat="48.79623024724424" lon="9.906653333455324">
<ele>415.6</ele>
<time>2024-05-07T09:13:14Z</time>
</trkpt>
<trkpt lat="48.79629135131836" lon="9.906611423939466">
<ele>415.4</ele>
<time>2024-05-07T09:13:15Z</time>
</trkpt>
<trkpt lat="48.79634851589799" lon="9.906571358442308">
<ele>415.4</ele>
<time>2024-05-07T09:13:16Z</time>
</trkpt>
<trkpt lat="48.79640953615308" lon="9.906528443098068">
<ele>415.2</ele>
<time>2024-05-07T09:13:17Z</time>
</trkpt>
<trkpt lat="48.7964706402272" lon="9.906477900221944">
<ele>415</ele>
<time>2024-05-07T09:13:18Z</time>
</trkpt>
<trkpt lat="48.79652780480683" lon="9.90642635151744">
<ele>414.8</ele>
<time>2024-05-07T09:13:19Z</time>
</trkpt>
<trkpt lat="48.79658505320549" lon="9.906370108947158">
<ele>414.6</ele>
<time>2024-05-07T09:13:20Z</time>
</trkpt>
<trkpt lat="48.79664230160415" lon="9.906310010701418">
<ele>414.2</ele>
<time>2024-05-07T09:13:21Z</time>
</trkpt>
<trkpt lat="48.796695694327354" lon="9.906241362914445">
<ele>414</ele>
<time>2024-05-07T09:13:22Z</time>
</trkpt>
<trkpt lat="48.79674145951867" lon="9.90617179311812">
<ele>413.8</ele>
<time>2024-05-07T09:13:23Z</time>
</trkpt>
<trkpt lat="48.79678722470999" lon="9.9060916621238">
<ele>413.6</ele>
<time>2024-05-07T09:13:24Z</time>
</trkpt>
<trkpt lat="48.79682921804488" lon="9.90601153112948">
<ele>413.4</ele>
<time>2024-05-07T09:13:25Z</time>
</trkpt>
<trkpt lat="48.79686350002885" lon="9.905924778431654">
<ele>413</ele>
<time>2024-05-07T09:13:26Z</time>
</trkpt>
<trkpt lat="48.79689401015639" lon="9.905837019905448">
<ele>412.8</ele>
<time>2024-05-07T09:13:27Z</time>
</trkpt>
<trkpt lat="48.796913120895624" lon="9.905739706009626">
<ele>412.4</ele>
<time>2024-05-07T09:13:28Z</time>
</trkpt>
<trkpt lat="48.796932147815824" lon="9.905638620257378">
<ele>412.2</ele>
<time>2024-05-07T09:13:29Z</time>
</trkpt>
<trkpt lat="48.796951258555055" lon="9.90553661249578">
<ele>411.8</ele>
<time>2024-05-07T09:13:30Z</time>
</trkpt>
<trkpt lat="48.79696651361883" lon="9.905434604734182">
<ele>411.6</ele>
<time>2024-05-07T09:13:31Z</time>
</trkpt>
<trkpt lat="48.7969817686826" lon="9.905336368829012">
<ele>411.4</ele>
<time>2024-05-07T09:13:32Z</time>
</trkpt>
<trkpt lat="48.79699702374637" lon="9.90523813292384">
<ele>411.2</ele>
<time>2024-05-07T09:13:33Z</time>
</trkpt>
<trkpt lat="48.79700850695371" lon="9.905139897018673">
<ele>411</ele>
<time>2024-05-07T09:13:34Z</time>
</trkpt>
<trkpt lat="48.7970161344856" lon="9.9050416611135">
<ele>410.6</ele>
<time>2024-05-07T09:13:35Z</time>
</trkpt>
<trkpt lat="48.79702753387392" lon="9.904946275055408">
<ele>410.4</ele>
<time>2024-05-07T09:13:36Z</time>
</trkpt>
<trkpt lat="48.79703901708126" lon="9.904849966987967">
<ele>410</ele>
<time>2024-05-07T09:13:37Z</time>
</trkpt>
<trkpt lat="48.79705427214503" lon="9.904754580929875">
<ele>409.8</ele>
<time>2024-05-07T09:13:38Z</time>
</trkpt>
<trkpt lat="48.79707329906523" lon="9.904661122709513">
<ele>409.4</ele>
<time>2024-05-07T09:13:39Z</time>
</trkpt>
<trkpt lat="48.79710380919278" lon="9.904573364183308">
<ele>409.2</ele>
<time>2024-05-07T09:13:40Z</time>
</trkpt>
<trkpt lat="48.79713817499578" lon="9.904491389170287">
<ele>409</ele>
<time>2024-05-07T09:13:41Z</time>
</trkpt>
<trkpt lat="48.79718016833067" lon="9.9044131860137">
<ele>408.8</ele>
<time>2024-05-07T09:13:42Z</time>
</trkpt>
<trkpt lat="48.7972183059901" lon="9.904334982857108">
<ele>408.8</ele>
<time>2024-05-07T09:13:43Z</time>
</trkpt>
<trkpt lat="48.79726021550596" lon="9.904261557385324">
<ele>408.6</ele>
<time>2024-05-07T09:13:44Z</time>
</trkpt>
<trkpt lat="48.797305980697274" lon="9.904190059751272">
<ele>408.6</ele>
<time>2024-05-07T09:13:45Z</time>
</trkpt>
<trkpt lat="48.79735182970762" lon="9.90411470644176">
<ele>408.4</ele>
<time>2024-05-07T09:13:46Z</time>
</trkpt>
<trkpt lat="48.79738996736705" lon="9.904038347303867">
<ele>408.4</ele>
<time>2024-05-07T09:13:47Z</time>
</trkpt>
<trkpt lat="48.79743573255837" lon="9.903961149975656">
<ele>408.4</ele>
<time>2024-05-07T09:13:48Z</time>
</trkpt>
<trkpt lat="48.797481497749686" lon="9.903888646513224">
<ele>408.4</ele>
<time>2024-05-07T09:13:49Z</time>
</trkpt>
<trkpt lat="48.797523491084576" lon="9.90381614305079">
<ele>408.2</ele>
<time>2024-05-07T09:13:50Z</time>
</trkpt>
<trkpt lat="48.79756925627589" lon="9.903744645416737">
<ele>408.2</ele>
<time>2024-05-07T09:13:51Z</time>
</trkpt>
<trkpt lat="48.79761116579175" lon="9.903675075620413">
<ele>408</ele>
<time>2024-05-07T09:13:52Z</time>
</trkpt>
<trkpt lat="48.79765315912664" lon="9.903608271852136">
<ele>408</ele>
<time>2024-05-07T09:13:53Z</time>
</trkpt>
<trkpt lat="48.79769129678607" lon="9.903545323759316">
<ele>407.8</ele>
<time>2024-05-07T09:13:54Z</time>
</trkpt>
<trkpt lat="48.79773329012096" lon="9.90348145365715">
<ele>407.6</ele>
<time>2024-05-07T09:13:55Z</time>
</trkpt>
<trkpt lat="48.79777519963682" lon="9.903416577726604">
<ele>407.6</ele>
<time>2024-05-07T09:13:56Z</time>
</trkpt>
<trkpt lat="48.797817192971706" lon="9.903347929939628">
<ele>407.4</ele>
<time>2024-05-07T09:13:57Z</time>
</trkpt>
<trkpt lat="48.79785918630659" lon="9.903278276324272">
<ele>407.2</ele>
<time>2024-05-07T09:13:58Z</time>
</trkpt>
<trkpt lat="48.79790109582245" lon="9.903208706527948">
<ele>407.2</ele>
<time>2024-05-07T09:13:59Z</time>
</trkpt>
<trkpt lat="48.79794308915734" lon="9.903140058740972">
<ele>407</ele>
<time>2024-05-07T09:14:00Z</time>
</trkpt>
<trkpt lat="48.7979849986732" lon="9.903070405125618">
<ele>406.8</ele>
<time>2024-05-07T09:14:01Z</time>
</trkpt>
<trkpt lat="48.79802322015166" lon="9.903001757338645">
<ele>406.6</ele>
<time>2024-05-07T09:14:02Z</time>
</trkpt>
<trkpt lat="48.79806512966752" lon="9.902933109551668">
<ele>406.4</ele>
<time>2024-05-07T09:14:03Z</time>
</trkpt>
<trkpt lat="48.79810712300241" lon="9.902865383774042">
<ele>406.2</ele>
<time>2024-05-07T09:14:04Z</time>
</trkpt>
<trkpt lat="48.79814903251827" lon="9.902796735987067">
<ele>406</ele>
<time>2024-05-07T09:14:05Z</time>
</trkpt>
<trkpt lat="48.798194881528616" lon="9.90272993221879">
<ele>405.8</ele>
<time>2024-05-07T09:14:06Z</time>
</trkpt>
<trkpt lat="48.798236791044474" lon="9.902661284431815">
<ele>405.6</ele>
<time>2024-05-07T09:14:07Z</time>
</trkpt>
<trkpt lat="48.79827878437936" lon="9.90259163081646">
<ele>405.4</ele>
<time>2024-05-07T09:14:08Z</time>
</trkpt>
<trkpt lat="48.79832069389522" lon="9.902522983029485">
<ele>405.2</ele>
<time>2024-05-07T09:14:09Z</time>
</trkpt>
<trkpt lat="48.79836268723011" lon="9.90245341323316">
<ele>405</ele>
<time>2024-05-07T09:14:10Z</time>
</trkpt>
<trkpt lat="48.798404680565" lon="9.902384681627154">
<ele>404.8</ele>
<time>2024-05-07T09:14:11Z</time>
</trkpt>
<trkpt lat="48.79844659008086" lon="9.902317961677907">
<ele>404.6</ele>
<time>2024-05-07T09:14:12Z</time>
</trkpt>
<trkpt lat="48.79848858341575" lon="9.902251241728663">
<ele>404.4</ele>
<time>2024-05-07T09:14:13Z</time>
</trkpt>
<trkpt lat="48.79853057675064" lon="9.902181588113308">
<ele>404.2</ele>
<time>2024-05-07T09:14:14Z</time>
</trkpt>
<trkpt lat="48.798572486266494" lon="9.902111934497952">
<ele>404</ele>
<time>2024-05-07T09:14:15Z</time>
</trkpt>
<trkpt lat="48.79861447960138" lon="9.902041358873248">
<ele>403.8</ele>
<time>2024-05-07T09:14:16Z</time>
</trkpt>
<trkpt lat="48.79865638911724" lon="9.901973716914654">
<ele>403.4</ele>
<time>2024-05-07T09:14:17Z</time>
</trkpt>
<trkpt lat="48.79870223812759" lon="9.901904985308647">
<ele>403.2</ele>
<time>2024-05-07T09:14:18Z</time>
</trkpt>
<trkpt lat="48.79874414764345" lon="9.901835415512323">
<ele>403</ele>
<time>2024-05-07T09:14:19Z</time>
</trkpt>
<trkpt lat="48.79878228530288" lon="9.90176483988762">
<ele>402.8</ele>
<time>2024-05-07T09:14:20Z</time>
</trkpt>
<trkpt lat="48.79882427863777" lon="9.901693342253566">
<ele>402.6</ele>
<time>2024-05-07T09:14:21Z</time>
</trkpt>
<trkpt lat="48.798866271972656" lon="9.90162368863821">
<ele>402.6</ele>
<time>2024-05-07T09:14:22Z</time>
</trkpt>
<trkpt lat="48.798908181488514" lon="9.901553113013506">
<ele>402.4</ele>
<time>2024-05-07T09:14:23Z</time>
</trkpt>
<trkpt lat="48.7989501748234" lon="9.90148639306426">
<ele>402.2</ele>
<time>2024-05-07T09:14:24Z</time>
</trkpt>
<trkpt lat="48.798988312482834" lon="9.901416739448903">
<ele>402</ele>
<time>2024-05-07T09:14:25Z</time>
</trkpt>
<trkpt lat="48.79903022199869" lon="9.9013461638242">
<ele>401.8</ele>
<time>2024-05-07T09:14:26Z</time>
</trkpt>
<trkpt lat="48.799068443477154" lon="9.901278438046576">
<ele>401.6</ele>
<time>2024-05-07T09:14:27Z</time>
</trkpt>
<trkpt lat="48.799106581136584" lon="9.90120694041252">
<ele>401.6</ele>
<time>2024-05-07T09:14:28Z</time>
</trkpt>
<trkpt lat="48.799144718796015" lon="9.901138292625546">
<ele>401.4</ele>
<time>2024-05-07T09:14:29Z</time>
</trkpt>
<trkpt lat="48.79917522892356" lon="9.901062939316034">
<ele>401.4</ele>
<time>2024-05-07T09:14:30Z</time>
</trkpt>
<trkpt lat="48.79920959472656" lon="9.900988508015873">
<ele>401.2</ele>
<time>2024-05-07T09:14:31Z</time>
</trkpt>
<trkpt lat="48.79924010485411" lon="9.90091323852539">
<ele>401.2</ele>
<time>2024-05-07T09:14:32Z</time>
</trkpt>
<trkpt lat="48.79927061498165" lon="9.900836879387498">
<ele>401</ele>
<time>2024-05-07T09:14:33Z</time>
</trkpt>
<trkpt lat="48.7993011251092" lon="9.90075683221221">
<ele>401</ele>
<time>2024-05-07T09:14:34Z</time>
</trkpt>
<trkpt lat="48.799324007704854" lon="9.90067670121789">
<ele>401</ele>
<time>2024-05-07T09:14:35Z</time>
</trkpt>
<trkpt lat="48.79935066215694" lon="9.90059464238584">
<ele>401</ele>
<time>2024-05-07T09:14:36Z</time>
</trkpt>
<trkpt lat="48.79936977289617" lon="9.900511661544442">
<ele>401</ele>
<time>2024-05-07T09:14:37Z</time>
</trkpt>
<trkpt lat="48.79939651116729" lon="9.900431614369154">
<ele>401</ele>
<time>2024-05-07T09:14:38Z</time>
</trkpt>
<trkpt lat="48.79941553808749" lon="9.900348633527756">
<ele>401</ele>
<time>2024-05-07T09:14:39Z</time>
</trkpt>
<trkpt lat="48.799438420683146" lon="9.900266574695706">
<ele>400.8</ele>
<time>2024-05-07T09:14:40Z</time>
</trkpt>
<trkpt lat="48.79945753142238" lon="9.90018174983561">
<ele>400.8</ele>
<time>2024-05-07T09:14:41Z</time>
</trkpt>
<trkpt lat="48.799476558342576" lon="9.900098768994212">
<ele>400.8</ele>
<time>2024-05-07T09:14:42Z</time>
</trkpt>
<trkpt lat="48.799499440938234" lon="9.900016710162165">
<ele>400.6</ele>
<time>2024-05-07T09:14:43Z</time>
</trkpt>
<trkpt lat="48.79951469600201" lon="9.899932807311416">
<ele>400.6</ele>
<time>2024-05-07T09:14:44Z</time>
</trkpt>
<trkpt lat="48.799537578597665" lon="9.899849826470016">
<ele>400.4</ele>
<time>2024-05-07T09:14:45Z</time>
</trkpt>
<trkpt lat="48.799556689336896" lon="9.899768773466349">
<ele>400.4</ele>
<time>2024-05-07T09:14:46Z</time>
</trkpt>
<trkpt lat="48.799579571932554" lon="9.899686798453333">
<ele>400.4</ele>
<time>2024-05-07T09:14:47Z</time>
</trkpt>
<trkpt lat="48.79960245452821" lon="9.899606667459013">
<ele>400.4</ele>
<time>2024-05-07T09:14:48Z</time>
</trkpt>
<trkpt lat="48.79962156526744" lon="9.899519914761186">
<ele>400.2</ele>
<time>2024-05-07T09:14:49Z</time>
</trkpt>
<trkpt lat="48.7996444478631" lon="9.8994311504066">
<ele>400.2</ele>
<time>2024-05-07T09:14:50Z</time>
</trkpt>
<trkpt lat="48.79966733045876" lon="9.899341547861695">
<ele>400</ele>
<time>2024-05-07T09:14:51Z</time>
</trkpt>
<trkpt lat="48.79969021305442" lon="9.899250017479062">
<ele>399.8</ele>
<time>2024-05-07T09:14:52Z</time>
</trkpt>
<trkpt lat="48.79971309565008" lon="9.899158403277395">
<ele>399.6</ele>
<time>2024-05-07T09:14:53Z</time>
</trkpt>
<trkpt lat="48.799735978245735" lon="9.899064945057034">
<ele>399.6</ele>
<time>2024-05-07T09:14:54Z</time>
</trkpt>
<trkpt lat="48.79975886084139" lon="9.898969642817974">
<ele>399.4</ele>
<time>2024-05-07T09:14:55Z</time>
</trkpt>
<trkpt lat="48.79978559911251" lon="9.898871406912804">
<ele>399</ele>
<time>2024-05-07T09:14:56Z</time>
</trkpt>
<trkpt lat="48.79981225356459" lon="9.898773171007631">
<ele>398.8</ele>
<time>2024-05-07T09:14:57Z</time>
</trkpt>
<trkpt lat="48.7998466193676" lon="9.898685412481427">
<ele>398.4</ele>
<time>2024-05-07T09:14:58Z</time>
</trkpt>
<trkpt lat="48.79988852888346" lon="9.898610059171917">
<ele>398</ele>
<time>2024-05-07T09:14:59Z</time>
</trkpt>
<trkpt lat="48.79994200542569" lon="9.898545183241367">
<ele>397.8</ele>
<time>2024-05-07T09:15:00Z</time>
</trkpt>
<trkpt lat="48.80000302568078" lon="9.898493718355894">
<ele>397.4</ele>
<time>2024-05-07T09:15:01Z</time>
</trkpt>
<trkpt lat="48.800071673467755" lon="9.898456502705812">
<ele>397.2</ele>
<time>2024-05-07T09:15:02Z</time>
</trkpt>
<trkpt lat="48.80014417693019" lon="9.898436469957232">
<ele>396.8</ele>
<time>2024-05-07T09:15:03Z</time>
</trkpt>
<trkpt lat="48.80021659657359" lon="9.898434625938537">
<ele>396.6</ele>
<time>2024-05-07T09:15:04Z</time>
</trkpt>
<trkpt lat="48.80029295571149" lon="9.898431776091456">
<ele>396.2</ele>
<time>2024-05-07T09:15:05Z</time>
</trkpt>
<trkpt lat="48.800369231030345" lon="9.898426998406649">
<ele>395.6</ele>
<time>2024-05-07T09:15:06Z</time>
</trkpt>
<trkpt lat="48.800445506349206" lon="9.89842314273119">
<ele>395.2</ele>
<time>2024-05-07T09:15:07Z</time>
</trkpt>
<trkpt lat="48.80052940919995" lon="9.898418365046382">
<ele>394.6</ele>
<time>2024-05-07T09:15:08Z</time>
</trkpt>
<trkpt lat="48.80060954019427" lon="9.898406965658069">
<ele>394.2</ele>
<time>2024-05-07T09:15:09Z</time>
</trkpt>
<trkpt lat="48.80069344304502" lon="9.898387854918838">
<ele>393.8</ele>
<time>2024-05-07T09:15:10Z</time>
</trkpt>
<trkpt lat="48.800781201571226" lon="9.898366900160909">
<ele>393.6</ele>
<time>2024-05-07T09:15:11Z</time>
</trkpt>
<trkpt lat="48.80086510442197" lon="9.898336390033364">
<ele>393.2</ele>
<time>2024-05-07T09:15:12Z</time>
</trkpt>
<trkpt lat="48.80094523541629" lon="9.898291546851397">
<ele>393</ele>
<time>2024-05-07T09:15:13Z</time>
</trkpt>
<trkpt lat="48.801021510735154" lon="9.898229520767927">
<ele>392.6</ele>
<time>2024-05-07T09:15:14Z</time>
</trkpt>
<trkpt lat="48.80109401419759" lon="9.898159950971603">
<ele>392.2</ele>
<time>2024-05-07T09:15:15Z</time>
</trkpt>
<trkpt lat="48.80117028951645" lon="9.89808845333755">
<ele>392</ele>
<time>2024-05-07T09:15:16Z</time>
</trkpt>
<trkpt lat="48.80124279297888" lon="9.898014944046736">
<ele>391.6</ele>
<time>2024-05-07T09:15:17Z</time>
</trkpt>
<trkpt lat="48.801300041377544" lon="9.89792819134891">
<ele>391.2</ele>
<time>2024-05-07T09:15:18Z</time>
</trkpt>
<trkpt lat="48.80134580656886" lon="9.897825177758932">
<ele>391</ele>
<time>2024-05-07T09:15:19Z</time>
</trkpt>
<trkpt lat="48.80138008855283" lon="9.897718392312528">
<ele>390.6</ele>
<time>2024-05-07T09:15:20Z</time>
</trkpt>
<trkpt lat="48.80140682682395" lon="9.897609679028392">
<ele>390.4</ele>
<time>2024-05-07T09:15:21Z</time>
</trkpt>
<trkpt lat="48.801437336951494" lon="9.897502893581986">
<ele>390.2</ele>
<time>2024-05-07T09:15:22Z</time>
</trkpt>
<trkpt lat="48.8014717027545" lon="9.897399879992008">
<ele>390</ele>
<time>2024-05-07T09:15:23Z</time>
</trkpt>
<trkpt lat="48.80150221288204" lon="9.897301644086838">
<ele>390</ele>
<time>2024-05-07T09:15:24Z</time>
</trkpt>
<trkpt lat="48.80153649486601" lon="9.897203408181667">
<ele>389.8</ele>
<time>2024-05-07T09:15:25Z</time>
</trkpt>
<trkpt lat="48.80156700499356" lon="9.897109949961305">
<ele>389.6</ele>
<time>2024-05-07T09:15:26Z</time>
</trkpt>
<trkpt lat="48.8015975151211" lon="9.897018419578671">
<ele>389.6</ele>
<time>2024-05-07T09:15:27Z</time>
</trkpt>
<trkpt lat="48.80162810906768" lon="9.896929739043117">
<ele>389.4</ele>
<time>2024-05-07T09:15:28Z</time>
</trkpt>
<trkpt lat="48.80166239105165" lon="9.896849608048797">
<ele>389.4</ele>
<time>2024-05-07T09:15:29Z</time>
</trkpt>
<trkpt lat="48.801692901179194" lon="9.896773332729936">
<ele>389.4</ele>
<time>2024-05-07T09:15:30Z</time>
</trkpt>
<trkpt lat="48.80172341130674" lon="9.89670175127685">
<ele>389.4</ele>
<time>2024-05-07T09:15:31Z</time>
</trkpt>
<trkpt lat="48.801750149577856" lon="9.896630253642796">
<ele>389.4</ele>
<time>2024-05-07T09:15:32Z</time>
</trkpt>
<trkpt lat="48.80177680402994" lon="9.896558756008744">
<ele>389.4</ele>
<time>2024-05-07T09:15:33Z</time>
</trkpt>
<trkpt lat="48.801811169832945" lon="9.896492958068848">
<ele>389.6</ele>
<time>2024-05-07T09:15:34Z</time>
</trkpt>
<trkpt lat="48.80184167996049" lon="9.89642707630992">
<ele>389.6</ele>
<time>2024-05-07T09:15:35Z</time>
</trkpt>
<trkpt lat="48.80186841823161" lon="9.896363206207752">
<ele>389.8</ele>
<time>2024-05-07T09:15:36Z</time>
</trkpt>
<trkpt lat="48.80190270021558" lon="9.896305035799742">
<ele>389.8</ele>
<time>2024-05-07T09:15:37Z</time>
</trkpt>
<trkpt lat="48.80193706601858" lon="9.89624778740108">
<ele>389.8</ele>
<time>2024-05-07T09:15:38Z</time>
</trkpt>
<trkpt lat="48.801967576146126" lon="9.8961915448308">
<ele>390</ele>
<time>2024-05-07T09:15:39Z</time>
</trkpt>
<trkpt lat="48.80199808627367" lon="9.896133374422789">
<ele>390</ele>
<time>2024-05-07T09:15:40Z</time>
</trkpt>
<trkpt lat="48.80203245207667" lon="9.896078053861856">
<ele>390</ele>
<time>2024-05-07T09:15:41Z</time>
</trkpt>
<trkpt lat="48.80206296220422" lon="9.896023739129305">
<ele>390</ele>
<time>2024-05-07T09:15:42Z</time>
</trkpt>
<trkpt lat="48.80209347233176" lon="9.895966490730643">
<ele>390</ele>
<time>2024-05-07T09:15:43Z</time>
</trkpt>
<trkpt lat="48.80212012678385" lon="9.895910248160362">
<ele>390</ele>
<time>2024-05-07T09:15:44Z</time>
</trkpt>
<trkpt lat="48.80215449258685" lon="9.89585492759943">
<ele>390</ele>
<time>2024-05-07T09:15:45Z</time>
</trkpt>
<trkpt lat="48.8021850027144" lon="9.895801534876227">
<ele>390</ele>
<time>2024-05-07T09:15:46Z</time>
</trkpt>
<trkpt lat="48.80221551284194" lon="9.895751914009452">
<ele>390.2</ele>
<time>2024-05-07T09:15:47Z</time>
</trkpt>
<trkpt lat="48.80224987864494" lon="9.89569852128625">
<ele>390.2</ele>
<time>2024-05-07T09:15:48Z</time>
</trkpt>
<trkpt lat="48.80227653309703" lon="9.895646972581744">
<ele>390.2</ele>
<time>2024-05-07T09:15:49Z</time>
</trkpt>
<trkpt lat="48.802307127043605" lon="9.895594585686922">
<ele>390.4</ele>
<time>2024-05-07T09:15:50Z</time>
</trkpt>
<trkpt lat="48.80233763717115" lon="9.895542114973068">
<ele>390.6</ele>
<time>2024-05-07T09:15:51Z</time>
</trkpt>
<trkpt lat="48.802368147298694" lon="9.895486794412136">
<ele>390.6</ele>
<time>2024-05-07T09:15:52Z</time>
</trkpt>
<trkpt lat="48.80239865742624" lon="9.895436251536012">
<ele>390.8</ele>
<time>2024-05-07T09:15:53Z</time>
</trkpt>
<trkpt lat="48.80242531187832" lon="9.895384786650538">
<ele>391</ele>
<time>2024-05-07T09:15:54Z</time>
</trkpt>
<trkpt lat="48.80245582200587" lon="9.895331310108304">
<ele>391</ele>
<time>2024-05-07T09:15:55Z</time>
</trkpt>
<trkpt lat="48.802482560276985" lon="9.895276995375752">
<ele>391.2</ele>
<time>2024-05-07T09:15:56Z</time>
</trkpt>
<trkpt lat="48.80251307040453" lon="9.8952245246619">
<ele>391.2</ele>
<time>2024-05-07T09:15:57Z</time>
</trkpt>
<trkpt lat="48.802543580532074" lon="9.895174903795125">
<ele>391.2</ele>
<time>2024-05-07T09:15:58Z</time>
</trkpt>
<trkpt lat="48.80257794633508" lon="9.895128216594458">
<ele>391.4</ele>
<time>2024-05-07T09:15:59Z</time>
</trkpt>
<trkpt lat="48.80261608399451" lon="9.895088151097298">
<ele>391.4</ele>
<time>2024-05-07T09:16:00Z</time>
</trkpt>
<trkpt lat="48.80265422165394" lon="9.895052863284944">
<ele>391.4</ele>
<time>2024-05-07T09:16:01Z</time>
</trkpt>
<trkpt lat="48.80269621498883" lon="9.89502520300448">
<ele>391.4</ele>
<time>2024-05-07T09:16:02Z</time>
</trkpt>
<trkpt lat="48.802738124504685" lon="9.89500324241817">
<ele>391.4</ele>
<time>2024-05-07T09:16:03Z</time>
</trkpt>
<trkpt lat="48.802783889696" lon="9.894989915192127">
<ele>391.4</ele>
<time>2024-05-07T09:16:04Z</time>
</trkpt>
<trkpt lat="48.80282973870635" lon="9.89498320966959">
<ele>391.4</ele>
<time>2024-05-07T09:16:05Z</time>
</trkpt>
<trkpt lat="48.80287164822221" lon="9.89498513750732">
<ele>391.4</ele>
<time>2024-05-07T09:16:06Z</time>
</trkpt>
<trkpt lat="48.802917413413525" lon="9.894996620714664">
<ele>391.4</ele>
<time>2024-05-07T09:16:07Z</time>
</trkpt>
<trkpt lat="48.802959406748414" lon="9.895011875778437">
<ele>391.6</ele>
<time>2024-05-07T09:16:08Z</time>
</trkpt>
<trkpt lat="48.8030014000833" lon="9.895029980689287">
<ele>391.6</ele>
<time>2024-05-07T09:16:09Z</time>
</trkpt>
<trkpt lat="48.80304330959916" lon="9.895052863284944">
<ele>391.6</ele>
<time>2024-05-07T09:16:10Z</time>
</trkpt>
<trkpt lat="48.80308144725859" lon="9.89508530125022">
<ele>391.8</ele>
<time>2024-05-07T09:16:11Z</time>
</trkpt>
<trkpt lat="48.80311958491802" lon="9.89512343890965">
<ele>391.8</ele>
<time>2024-05-07T09:16:12Z</time>
</trkpt>
<trkpt lat="48.803153950721025" lon="9.89516157656908">
<ele>392</ele>
<time>2024-05-07T09:16:13Z</time>
</trkpt>
<trkpt lat="48.80318831652403" lon="9.89520164206624">
<ele>392</ele>
<time>2024-05-07T09:16:14Z</time>
</trkpt>
<trkpt lat="48.803222598508" lon="9.89523977972567">
<ele>392.2</ele>
<time>2024-05-07T09:16:15Z</time>
</trkpt>
<trkpt lat="48.803253108635545" lon="9.8952779173851">
<ele>392.2</ele>
<time>2024-05-07T09:16:16Z</time>
</trkpt>
<trkpt lat="48.80328747443855" lon="9.89531991071999">
<ele>392.4</ele>
<time>2024-05-07T09:16:17Z</time>
</trkpt>
<trkpt lat="48.80332175642252" lon="9.89535804837942">
<ele>392.6</ele>
<time>2024-05-07T09:16:18Z</time>
</trkpt>
<trkpt lat="48.803352350369096" lon="9.89539811387658">
<ele>392.6</ele>
<time>2024-05-07T09:16:19Z</time>
</trkpt>
<trkpt lat="48.80338663235307" lon="9.89543817937374">
<ele>392.8</ele>
<time>2024-05-07T09:16:20Z</time>
</trkpt>
<trkpt lat="48.80342099815607" lon="9.895476317033172">
<ele>392.8</ele>
<time>2024-05-07T09:16:21Z</time>
</trkpt>
<trkpt lat="48.80345528014004" lon="9.895516382530332">
<ele>393</ele>
<time>2024-05-07T09:16:22Z</time>
</trkpt>
<trkpt lat="48.80348579026759" lon="9.895556448027492">
<ele>393</ele>
<time>2024-05-07T09:16:23Z</time>
</trkpt>
<trkpt lat="48.80352015607059" lon="9.895594585686922">
<ele>393.2</ele>
<time>2024-05-07T09:16:24Z</time>
</trkpt>
<trkpt lat="48.803550666198134" lon="9.895634651184082">
<ele>393.2</ele>
<time>2024-05-07T09:16:25Z</time>
</trkpt>
<trkpt lat="48.80358503200114" lon="9.89567371085286">
<ele>393.4</ele>
<time>2024-05-07T09:16:26Z</time>
</trkpt>
<trkpt lat="48.80361554212868" lon="9.89571377635002">
<ele>393.4</ele>
<time>2024-05-07T09:16:27Z</time>
</trkpt>
<trkpt lat="48.80364605225623" lon="9.895751914009452">
<ele>393.4</ele>
<time>2024-05-07T09:16:28Z</time>
</trkpt>
<trkpt lat="48.803668934851885" lon="9.895788123831151">
<ele>393.6</ele>
<time>2024-05-07T09:16:29Z</time>
</trkpt>
<trkpt lat="48.80369181744754" lon="9.895821567624807">
<ele>393.6</ele>
<time>2024-05-07T09:16:30Z</time>
</trkpt>
<trkpt lat="48.80372232757509" lon="9.89585492759943">
<ele>393.6</ele>
<time>2024-05-07T09:16:31Z</time>
</trkpt>
<trkpt lat="48.80375669337809" lon="9.895876804366708">
<ele>393.6</ele>
<time>2024-05-07T09:16:32Z</time>
</trkpt>
<trkpt lat="48.80379097536206" lon="9.895888287574053">
<ele>393.6</ele>
<time>2024-05-07T09:16:33Z</time>
</trkpt>
<trkpt lat="48.803825341165066" lon="9.89587496034801">
<ele>393.8</ele>
<time>2024-05-07T09:16:34Z</time>
</trkpt>
<trkpt lat="48.803867334499955" lon="9.8958529997617">
<ele>393.8</ele>
<time>2024-05-07T09:16:35Z</time>
</trkpt>
<trkpt lat="48.803905472159386" lon="9.895823411643503">
<ele>393.8</ele>
<time>2024-05-07T09:16:36Z</time>
</trkpt>
<trkpt lat="48.80393975414336" lon="9.895779574289918">
<ele>393.8</ele>
<time>2024-05-07T09:16:37Z</time>
</trkpt>
<trkpt lat="48.80397411994636" lon="9.895739508792758">
<ele>394</ele>
<time>2024-05-07T09:16:38Z</time>
</trkpt>
<trkpt lat="48.80400840193033" lon="9.89569659344852">
<ele>394</ele>
<time>2024-05-07T09:16:39Z</time>
</trkpt>
<trkpt lat="48.80403899587691" lon="9.89565367810428">
<ele>394</ele>
<time>2024-05-07T09:16:40Z</time>
</trkpt>
<trkpt lat="48.80406950600445" lon="9.895609840750694">
<ele>394</ele>
<time>2024-05-07T09:16:41Z</time>
</trkpt>
<trkpt lat="48.80409616045654" lon="9.895567847415805">
<ele>394.2</ele>
<time>2024-05-07T09:16:42Z</time>
</trkpt>
<trkpt lat="48.8041190430522" lon="9.89552116021514">
<ele>394.2</ele>
<time>2024-05-07T09:16:43Z</time>
</trkpt>
<trkpt lat="48.80413815379143" lon="9.895475311204793">
<ele>394.2</ele>
<time>2024-05-07T09:16:44Z</time>
</trkpt>
<trkpt lat="48.8041534088552" lon="9.895426696166396">
<ele>394.2</ele>
<time>2024-05-07T09:16:45Z</time>
</trkpt>
<trkpt lat="48.80415718071163" lon="9.895375231280925">
<ele>394.4</ele>
<time>2024-05-07T09:16:46Z</time>
</trkpt>
<trkpt lat="48.80415718071163" lon="9.89532183855772">
<ele>394.6</ele>
<time>2024-05-07T09:16:47Z</time>
</trkpt>
<trkpt lat="48.8041534088552" lon="9.89525788463652">
<ele>394.8</ele>
<time>2024-05-07T09:16:48Z</time>
</trkpt>
<trkpt lat="48.80415718071163" lon="9.895196864381433">
<ele>395</ele>
<time>2024-05-07T09:16:49Z</time>
</trkpt>
<trkpt lat="48.80415718071163" lon="9.895131988450885">
<ele>395.2</ele>
<time>2024-05-07T09:16:50Z</time>
</trkpt>
<trkpt lat="48.804161036387086" lon="9.895068118348718">
<ele>395.4</ele>
<time>2024-05-07T09:16:51Z</time>
</trkpt>
<trkpt lat="48.80416480824351" lon="9.8950051702559">
<ele>395.6</ele>
<time>2024-05-07T09:16:52Z</time>
</trkpt>
<trkpt lat="48.80416480824351" lon="9.894941300153732">
<ele>395.8</ele>
<time>2024-05-07T09:16:53Z</time>
</trkpt>
<trkpt lat="48.80416480824351" lon="9.894878352060914">
<ele>396</ele>
<time>2024-05-07T09:16:54Z</time>
</trkpt>
<trkpt lat="48.80416866391897" lon="9.894813476130366">
<ele>396.2</ele>
<time>2024-05-07T09:16:55Z</time>
</trkpt>
<trkpt lat="48.8041724357754" lon="9.8947496060282">
<ele>396.4</ele>
<time>2024-05-07T09:16:56Z</time>
</trkpt>
<trkpt lat="48.8041724357754" lon="9.894684730097651">
<ele>396.4</ele>
<time>2024-05-07T09:16:57Z</time>
</trkpt>
<trkpt lat="48.80417629145086" lon="9.894619937986135">
<ele>396.6</ele>
<time>2024-05-07T09:16:58Z</time>
</trkpt>
<trkpt lat="48.80417629145086" lon="9.894556989893315">
<ele>396.6</ele>
<time>2024-05-07T09:16:59Z</time>
</trkpt>
<trkpt lat="48.80417629145086" lon="9.894493035972118">
<ele>396.8</ele>
<time>2024-05-07T09:17:00Z</time>
</trkpt>
<trkpt lat="48.804180063307285" lon="9.894428243860602">
<ele>396.8</ele>
<time>2024-05-07T09:17:01Z</time>
</trkpt>
<trkpt lat="48.804180063307285" lon="9.894361440092323">
<ele>396.8</ele>
<time>2024-05-07T09:17:02Z</time>
</trkpt>
<trkpt lat="48.804180063307285" lon="9.894298491999509">
<ele>396.8</ele>
<time>2024-05-07T09:17:03Z</time>
</trkpt>
<trkpt lat="48.804180063307285" lon="9.894233699887993">
<ele>396.8</ele>
<time>2024-05-07T09:17:04Z</time>
</trkpt>
<trkpt lat="48.804183918982744" lon="9.894169745966792">
<ele>396.8</ele>
<time>2024-05-07T09:17:05Z</time>
</trkpt>
<trkpt lat="48.804183918982744" lon="9.894106797873974">
<ele>396.8</ele>
<time>2024-05-07T09:17:06Z</time>
</trkpt>
<trkpt lat="48.8041877746582" lon="9.894042005762458">
<ele>396.8</ele>
<time>2024-05-07T09:17:07Z</time>
</trkpt>
<trkpt lat="48.8041877746582" lon="9.89397805184126">
<ele>396.8</ele>
<time>2024-05-07T09:17:08Z</time>
</trkpt>
<trkpt lat="48.8041877746582" lon="9.893913259729745">
<ele>397</ele>
<time>2024-05-07T09:17:09Z</time>
</trkpt>
<trkpt lat="48.80419154651463" lon="9.893848383799195">
<ele>397</ele>
<time>2024-05-07T09:17:10Z</time>
</trkpt>
<trkpt lat="48.80419154651463" lon="9.893785435706375">
<ele>397.2</ele>
<time>2024-05-07T09:17:11Z</time>
</trkpt>
<trkpt lat="48.80419540219009" lon="9.893718715757132">
<ele>397.2</ele>
<time>2024-05-07T09:17:12Z</time>
</trkpt>
<trkpt lat="48.80419917404651" lon="9.893654761835933">
<ele>397.2</ele>
<time>2024-05-07T09:17:13Z</time>
</trkpt>
<trkpt lat="48.804203029721975" lon="9.893591813743114">
<ele>397.4</ele>
<time>2024-05-07T09:17:14Z</time>
</trkpt>
<trkpt lat="48.804203029721975" lon="9.893529871478677">
<ele>397.4</ele>
<time>2024-05-07T09:17:15Z</time>
</trkpt>
<trkpt lat="48.8042068015784" lon="9.893469773232937">
<ele>397.4</ele>
<time>2024-05-07T09:17:16Z</time>
</trkpt>
<trkpt lat="48.8042068015784" lon="9.89340682514012">
<ele>397.6</ele>
<time>2024-05-07T09:17:17Z</time>
</trkpt>
<trkpt lat="48.80421065725386" lon="9.893342955037951">
<ele>397.6</ele>
<time>2024-05-07T09:17:18Z</time>
</trkpt>
<trkpt lat="48.80421065725386" lon="9.893278079107404">
<ele>397.6</ele>
<time>2024-05-07T09:17:19Z</time>
</trkpt>
<trkpt lat="48.80421065725386" lon="9.893213203176856">
<ele>397.6</ele>
<time>2024-05-07T09:17:20Z</time>
</trkpt>
<trkpt lat="48.80421442911029" lon="9.89314648322761">
<ele>397.6</ele>
<time>2024-05-07T09:17:21Z</time>
</trkpt>
<trkpt lat="48.80421828478575" lon="9.893081607297065">
<ele>397.6</ele>
<time>2024-05-07T09:17:22Z</time>
</trkpt>
<trkpt lat="48.80421828478575" lon="9.893016815185549">
<ele>397.6</ele>
<time>2024-05-07T09:17:23Z</time>
</trkpt>
<trkpt lat="48.80421828478575" lon="9.89295001141727">
<ele>397.6</ele>
<time>2024-05-07T09:17:24Z</time>
</trkpt>
<trkpt lat="48.804222056642175" lon="9.892885135486722">
<ele>397.6</ele>
<time>2024-05-07T09:17:25Z</time>
</trkpt>
<trkpt lat="48.804225912317634" lon="9.892818415537477">
<ele>397.6</ele>
<time>2024-05-07T09:17:26Z</time>
</trkpt>
<trkpt lat="48.804225912317634" lon="9.8927516117692">
<ele>397.6</ele>
<time>2024-05-07T09:17:27Z</time>
</trkpt>
<trkpt lat="48.80422968417406" lon="9.892686819657683">
<ele>397.8</ele>
<time>2024-05-07T09:17:28Z</time>
</trkpt>
<trkpt lat="48.80422968417406" lon="9.892621943727136">
<ele>397.8</ele>
<time>2024-05-07T09:17:29Z</time>
</trkpt>
<trkpt lat="48.80422968417406" lon="9.89255522377789">
<ele>397.8</ele>
<time>2024-05-07T09:17:30Z</time>
</trkpt>
<trkpt lat="48.80423353984952" lon="9.892486492171884">
<ele>398</ele>
<time>2024-05-07T09:17:31Z</time>
</trkpt>
<trkpt lat="48.80423353984952" lon="9.892417844384909">
<ele>398</ele>
<time>2024-05-07T09:17:32Z</time>
</trkpt>
<trkpt lat="48.80423731170595" lon="9.892353052273393">
<ele>398</ele>
<time>2024-05-07T09:17:33Z</time>
</trkpt>
<trkpt lat="48.80423731170595" lon="9.892286248505116">
<ele>398.2</ele>
<time>2024-05-07T09:17:34Z</time>
</trkpt>
<trkpt lat="48.804241167381406" lon="9.89221952855587">
<ele>398.2</ele>
<time>2024-05-07T09:17:35Z</time>
</trkpt>
<trkpt lat="48.804241167381406" lon="9.892154652625322">
<ele>398.2</ele>
<time>2024-05-07T09:17:36Z</time>
</trkpt>
<trkpt lat="48.804241167381406" lon="9.892089776694776">
<ele>398.2</ele>
<time>2024-05-07T09:17:37Z</time>
</trkpt>
<trkpt lat="48.80424493923783" lon="9.89202305674553">
<ele>398.2</ele>
<time>2024-05-07T09:17:38Z</time>
</trkpt>
<trkpt lat="48.80424493923783" lon="9.891960108652713">
<ele>398.2</ele>
<time>2024-05-07T09:17:39Z</time>
</trkpt>
<trkpt lat="48.80424879491329" lon="9.891900010406973">
<ele>398.2</ele>
<time>2024-05-07T09:17:40Z</time>
</trkpt>
<trkpt lat="48.80425256676972" lon="9.891836140304804">
<ele>398.2</ele>
<time>2024-05-07T09:17:41Z</time>
</trkpt>
<trkpt lat="48.80425256676972" lon="9.891773192211986">
<ele>398.2</ele>
<time>2024-05-07T09:17:42Z</time>
</trkpt>
<trkpt lat="48.80425642244518" lon="9.891708316281438">
<ele>398.2</ele>
<time>2024-05-07T09:17:43Z</time>
</trkpt>
<trkpt lat="48.80425642244518" lon="9.891641596332192">
<ele>398.2</ele>
<time>2024-05-07T09:17:44Z</time>
</trkpt>
<trkpt lat="48.804260194301605" lon="9.891574792563915">
<ele>398.2</ele>
<time>2024-05-07T09:17:45Z</time>
</trkpt>
<trkpt lat="48.804260194301605" lon="9.8915100004524">
<ele>398.4</ele>
<time>2024-05-07T09:17:46Z</time>
</trkpt>
<trkpt lat="48.804264049977064" lon="9.891445124521852">
<ele>398.4</ele>
<time>2024-05-07T09:17:47Z</time>
</trkpt>
<trkpt lat="48.804264049977064" lon="9.891380248591304">
<ele>398.6</ele>
<time>2024-05-07T09:17:48Z</time>
</trkpt>
<trkpt lat="48.80426782183349" lon="9.891313528642058">
<ele>398.8</ele>
<time>2024-05-07T09:17:49Z</time>
</trkpt>
<trkpt lat="48.80426782183349" lon="9.891244880855083">
<ele>399</ele>
<time>2024-05-07T09:17:50Z</time>
</trkpt>
<trkpt lat="48.80426782183349" lon="9.891176149249077">
<ele>399.2</ele>
<time>2024-05-07T09:17:51Z</time>
</trkpt>
<trkpt lat="48.80427167750895" lon="9.89111035130918">
<ele>399.2</ele>
<time>2024-05-07T09:17:52Z</time>
</trkpt>
<trkpt lat="48.80427167750895" lon="9.891043631359937">
<ele>399.4</ele>
<time>2024-05-07T09:17:53Z</time>
</trkpt>
<trkpt lat="48.80427167750895" lon="9.890976827591658">
<ele>399.6</ele>
<time>2024-05-07T09:17:54Z</time>
</trkpt>
<trkpt lat="48.80427544936538" lon="9.890908179804685">
<ele>399.6</ele>
<time>2024-05-07T09:17:55Z</time>
</trkpt>
<trkpt lat="48.80427544936538" lon="9.890839532017708">
<ele>399.6</ele>
<time>2024-05-07T09:17:56Z</time>
</trkpt>
<trkpt lat="48.80427930504083" lon="9.890769878402352">
<ele>399.8</ele>
<time>2024-05-07T09:17:57Z</time>
</trkpt>
<trkpt lat="48.80428307689726" lon="9.890700308606029">
<ele>399.8</ele>
<time>2024-05-07T09:17:58Z</time>
</trkpt>
<trkpt lat="48.80428307689726" lon="9.890628810971975">
<ele>399.8</ele>
<time>2024-05-07T09:17:59Z</time>
</trkpt>
<trkpt lat="48.80428693257272" lon="9.890560079365969">
<ele>399.8</ele>
<time>2024-05-07T09:18:00Z</time>
</trkpt>
<trkpt lat="48.80428693257272" lon="9.890491431578994">
<ele>400</ele>
<time>2024-05-07T09:18:01Z</time>
</trkpt>
<trkpt lat="48.80429070442915" lon="9.89042186178267">
<ele>400</ele>
<time>2024-05-07T09:18:02Z</time>
</trkpt>
<trkpt lat="48.80429070442915" lon="9.890351286157966">
<ele>400</ele>
<time>2024-05-07T09:18:03Z</time>
</trkpt>
<trkpt lat="48.80429456010461" lon="9.89028163254261">
<ele>399.8</ele>
<time>2024-05-07T09:18:04Z</time>
</trkpt>
<trkpt lat="48.80429456010461" lon="9.890212984755635">
<ele>399.8</ele>
<time>2024-05-07T09:18:05Z</time>
</trkpt>
<trkpt lat="48.80429456010461" lon="9.89014525897801">
<ele>399.8</ele>
<time>2024-05-07T09:18:06Z</time>
</trkpt>
<trkpt lat="48.80429833196104" lon="9.890076611191034">
<ele>399.6</ele>
<time>2024-05-07T09:18:07Z</time>
</trkpt>
<trkpt lat="48.80429833196104" lon="9.890011735260488">
<ele>399.4</ele>
<time>2024-05-07T09:18:08Z</time>
</trkpt>
<trkpt lat="48.80429833196104" lon="9.88994685932994">
<ele>399.4</ele>
<time>2024-05-07T09:18:09Z</time>
</trkpt>
<trkpt lat="48.80429833196104" lon="9.889882989227772">
<ele>399.4</ele>
<time>2024-05-07T09:18:10Z</time>
</trkpt>
<trkpt lat="48.80429833196104" lon="9.889820041134952">
<ele>399.4</ele>
<time>2024-05-07T09:18:11Z</time>
</trkpt>
<trkpt lat="48.804302187636495" lon="9.889755249023438">
<ele>399.4</ele>
<time>2024-05-07T09:18:12Z</time>
</trkpt>
<trkpt lat="48.804302187636495" lon="9.88969037309289">
<ele>399.4</ele>
<time>2024-05-07T09:18:13Z</time>
</trkpt>
<trkpt lat="48.80430595949292" lon="9.889623569324613">
<ele>399.6</ele>
<time>2024-05-07T09:18:14Z</time>
</trkpt>
<trkpt lat="48.80430981516838" lon="9.889558777213097">
<ele>399.6</ele>
<time>2024-05-07T09:18:15Z</time>
</trkpt>
<trkpt lat="48.80430981516838" lon="9.88949197344482">
<ele>399.8</ele>
<time>2024-05-07T09:18:16Z</time>
</trkpt>
<trkpt lat="48.80430981516838" lon="9.889423325657845">
<ele>399.8</ele>
<time>2024-05-07T09:18:17Z</time>
</trkpt>
<trkpt lat="48.80431744270027" lon="9.88935467787087">
<ele>399.8</ele>
<time>2024-05-07T09:18:18Z</time>
</trkpt>
<trkpt lat="48.804321214556694" lon="9.889283180236816">
<ele>399.8</ele>
<time>2024-05-07T09:18:19Z</time>
</trkpt>
<trkpt lat="48.80432507023215" lon="9.889211598783731">
<ele>400</ele>
<time>2024-05-07T09:18:20Z</time>
</trkpt>
<trkpt lat="48.80432884208858" lon="9.88913624547422">
<ele>400</ele>
<time>2024-05-07T09:18:21Z</time>
</trkpt>
<trkpt lat="48.80433269776404" lon="9.889064747840166">
<ele>400</ele>
<time>2024-05-07T09:18:22Z</time>
</trkpt>
<trkpt lat="48.804336469620466" lon="9.888991322368383">
<ele>399.8</ele>
<time>2024-05-07T09:18:23Z</time>
</trkpt>
<trkpt lat="48.804336469620466" lon="9.88891689106822">
<ele>399.8</ele>
<time>2024-05-07T09:18:24Z</time>
</trkpt>
<trkpt lat="48.804340325295925" lon="9.888843465596436">
<ele>399.8</ele>
<time>2024-05-07T09:18:25Z</time>
</trkpt>
<trkpt lat="48.804340325295925" lon="9.888770040124657">
<ele>399.8</ele>
<time>2024-05-07T09:18:26Z</time>
</trkpt>
<trkpt lat="48.804340325295925" lon="9.888698542490602">
<ele>399.8</ele>
<time>2024-05-07T09:18:27Z</time>
</trkpt>
<trkpt lat="48.80434409715235" lon="9.888627044856548">
<ele>399.8</ele>
<time>2024-05-07T09:18:28Z</time>
</trkpt>
<trkpt lat="48.80434409715235" lon="9.888554541394114">
<ele>399.8</ele>
<time>2024-05-07T09:18:29Z</time>
</trkpt>
<trkpt lat="48.80434409715235" lon="9.88848304376006">
<ele>399.8</ele>
<time>2024-05-07T09:18:30Z</time>
</trkpt>
<trkpt lat="48.80434795282781" lon="9.888413390144706">
<ele>399.8</ele>
<time>2024-05-07T09:18:31Z</time>
</trkpt>
<trkpt lat="48.80434795282781" lon="9.88834373652935">
<ele>399.8</ele>
<time>2024-05-07T09:18:32Z</time>
</trkpt>
<trkpt lat="48.80435172468424" lon="9.888275088742375">
<ele>399.8</ele>
<time>2024-05-07T09:18:33Z</time>
</trkpt>
<trkpt lat="48.80435172468424" lon="9.888203591108322">
<ele>400</ele>
<time>2024-05-07T09:18:34Z</time>
</trkpt>
<trkpt lat="48.8043555803597" lon="9.888132093474267">
<ele>400</ele>
<time>2024-05-07T09:18:35Z</time>
</trkpt>
<trkpt lat="48.80435943603515" lon="9.888058584183456">
<ele>400</ele>
<time>2024-05-07T09:18:36Z</time>
</trkpt>
<trkpt lat="48.80435943603515" lon="9.887981386855245">
<ele>400</ele>
<time>2024-05-07T09:18:37Z</time>
</trkpt>
<trkpt lat="48.80436320789158" lon="9.887900333851576">
<ele>400</ele>
<time>2024-05-07T09:18:38Z</time>
</trkpt>
<trkpt lat="48.80436320789158" lon="9.887816347181795">
<ele>399.8</ele>
<time>2024-05-07T09:18:39Z</time>
</trkpt>
<trkpt lat="48.80436706356704" lon="9.88773345015943">
<ele>399.8</ele>
<time>2024-05-07T09:18:40Z</time>
</trkpt>
<trkpt lat="48.80437083542347" lon="9.887648541480305">
<ele>399.6</ele>
<time>2024-05-07T09:18:41Z</time>
</trkpt>
<trkpt lat="48.80437469109893" lon="9.887563632801175">
<ele>399.4</ele>
<time>2024-05-07T09:18:42Z</time>
</trkpt>
<trkpt lat="48.80437846295536" lon="9.88747302442789">
<ele>399.4</ele>
<time>2024-05-07T09:18:43Z</time>
</trkpt>
<trkpt lat="48.804382318630815" lon="9.887386271730064">
<ele>399.2</ele>
<time>2024-05-07T09:18:44Z</time>
</trkpt>
<trkpt lat="48.80438609048724" lon="9.88729851320386">
<ele>399</ele>
<time>2024-05-07T09:18:45Z</time>
</trkpt>
<trkpt lat="48.80438609048724" lon="9.887209832668304">
<ele>399</ele>
<time>2024-05-07T09:18:46Z</time>
</trkpt>
<trkpt lat="48.8043899461627" lon="9.88712115213275">
<ele>398.8</ele>
<time>2024-05-07T09:18:47Z</time>
</trkpt>
<trkpt lat="48.8043899461627" lon="9.887033393606544">
<ele>398.8</ele>
<time>2024-05-07T09:18:48Z</time>
</trkpt>
<trkpt lat="48.80439371801913" lon="9.886946640908718">
<ele>398.6</ele>
<time>2024-05-07T09:18:49Z</time>
</trkpt>
<trkpt lat="48.80439757369459" lon="9.886856954544784">
<ele>398.4</ele>
<time>2024-05-07T09:18:50Z</time>
</trkpt>
<trkpt lat="48.80440520122647" lon="9.886768274009228">
<ele>398.4</ele>
<time>2024-05-07T09:18:51Z</time>
</trkpt>
<trkpt lat="48.80440520122647" lon="9.886678671464324">
<ele>398.2</ele>
<time>2024-05-07T09:18:52Z</time>
</trkpt>
<trkpt lat="48.8044089730829" lon="9.886589990928767">
<ele>398</ele>
<time>2024-05-07T09:18:53Z</time>
</trkpt>
<trkpt lat="48.8044089730829" lon="9.886501310393214">
<ele>397.8</ele>
<time>2024-05-07T09:18:54Z</time>
</trkpt>
<trkpt lat="48.8044089730829" lon="9.886418329551816">
<ele>397.8</ele>
<time>2024-05-07T09:18:55Z</time>
</trkpt>
<trkpt lat="48.8044089730829" lon="9.886335348710418">
<ele>397.6</ele>
<time>2024-05-07T09:18:56Z</time>
</trkpt>
<trkpt lat="48.80441282875836" lon="9.886253289878368">
<ele>397.4</ele>
<time>2024-05-07T09:18:57Z</time>
</trkpt>
<trkpt lat="48.8044089730829" lon="9.88617131486535">
<ele>397.2</ele>
<time>2024-05-07T09:18:58Z</time>
</trkpt>
<trkpt lat="48.80440520122647" lon="9.88609503954649">
<ele>397</ele>
<time>2024-05-07T09:18:59Z</time>
</trkpt>
<trkpt lat="48.804401345551014" lon="9.886023458093405">
<ele>397</ele>
<time>2024-05-07T09:19:00Z</time>
</trkpt>
<trkpt lat="48.80439371801913" lon="9.885948104783893">
<ele>396.8</ele>
<time>2024-05-07T09:19:01Z</time>
</trkpt>
<trkpt lat="48.80438609048724" lon="9.88587375730276">
<ele>396.8</ele>
<time>2024-05-07T09:19:02Z</time>
</trkpt>
<trkpt lat="48.80437469109893" lon="9.885798403993247">
<ele>396.6</ele>
<time>2024-05-07T09:19:03Z</time>
</trkpt>
<trkpt lat="48.80436320789158" lon="9.885706873610616">
<ele>396.6</ele>
<time>2024-05-07T09:19:04Z</time>
</trkpt>
<trkpt lat="48.80434795282781" lon="9.885616265237331">
<ele>396.6</ele>
<time>2024-05-07T09:19:05Z</time>
</trkpt>
<trkpt lat="48.804340325295925" lon="9.885535212233664">
<ele>396.4</ele>
<time>2024-05-07T09:19:06Z</time>
</trkpt>
<trkpt lat="48.804336469620466" lon="9.885455081239344">
<ele>396.4</ele>
<time>2024-05-07T09:19:07Z</time>
</trkpt>
<trkpt lat="48.804340325295925" lon="9.885373106226323">
<ele>396.4</ele>
<time>2024-05-07T09:19:08Z</time>
</trkpt>
<trkpt lat="48.80434409715235" lon="9.885290125384929">
<ele>396.2</ele>
<time>2024-05-07T09:19:09Z</time>
</trkpt>
<trkpt lat="48.80435172468424" lon="9.885209994390609">
<ele>396.2</ele>
<time>2024-05-07T09:19:10Z</time>
</trkpt>
<trkpt lat="48.80437083542347" lon="9.885134641081097">
<ele>396</ele>
<time>2024-05-07T09:19:11Z</time>
</trkpt>
<trkpt lat="48.80439371801913" lon="9.885061215609312">
<ele>395.8</ele>
<time>2024-05-07T09:19:12Z</time>
</trkpt>
<trkpt lat="48.80442808382213" lon="9.88498971797526">
<ele>395.8</ele>
<time>2024-05-07T09:19:13Z</time>
</trkpt>
<trkpt lat="48.80446622148156" lon="9.88492869772017">
<ele>395.6</ele>
<time>2024-05-07T09:19:14Z</time>
</trkpt>
<trkpt lat="48.80450813099742" lon="9.8848666716367">
<ele>395.4</ele>
<time>2024-05-07T09:19:15Z</time>
</trkpt>
<trkpt lat="48.80455012433231" lon="9.88480942323804">
<ele>395.2</ele>
<time>2024-05-07T09:19:16Z</time>
</trkpt>
<trkpt lat="48.804595889523625" lon="9.884757958352566">
<ele>395</ele>
<time>2024-05-07T09:19:17Z</time>
</trkpt>
<trkpt lat="48.80464165471494" lon="9.88470833748579">
<ele>394.8</ele>
<time>2024-05-07T09:19:18Z</time>
</trkpt>
<trkpt lat="48.8046989031136" lon="9.884659722447395">
<ele>394.6</ele>
<time>2024-05-07T09:19:19Z</time>
</trkpt>
<trkpt lat="48.804756151512265" lon="9.88461010158062">
<ele>394.2</ele>
<time>2024-05-07T09:19:20Z</time>
</trkpt>
<trkpt lat="48.804813316091895" lon="9.884556708857415">
<ele>394</ele>
<time>2024-05-07T09:19:21Z</time>
</trkpt>
<trkpt lat="48.80487819202244" lon="9.884503316134214">
<ele>393.6</ele>
<time>2024-05-07T09:19:22Z</time>
</trkpt>
<trkpt lat="48.80494683980942" lon="9.884449923411012">
<ele>393.4</ele>
<time>2024-05-07T09:19:23Z</time>
</trkpt>
<trkpt lat="48.80501548759639" lon="9.884389825165272">
<ele>393</ele>
<time>2024-05-07T09:19:24Z</time>
</trkpt>
<trkpt lat="48.80509561859071" lon="9.88431832753122">
<ele>392.8</ele>
<time>2024-05-07T09:19:25Z</time>
</trkpt>
<trkpt lat="48.805171893909574" lon="9.884229646995664">
<ele>392.4</ele>
<time>2024-05-07T09:19:26Z</time>
</trkpt>
<trkpt lat="48.80525965243578" lon="9.884168542921543">
<ele>392</ele>
<time>2024-05-07T09:19:27Z</time>
</trkpt>
<trkpt lat="48.8053588103503" lon="9.884108528494837">
<ele>391.6</ele>
<time>2024-05-07T09:19:28Z</time>
</trkpt>
<trkpt lat="48.80545419640839" lon="9.884046502411366">
<ele>391.2</ele>
<time>2024-05-07T09:19:29Z</time>
</trkpt>
<trkpt lat="48.805545726791024" lon="9.883986404165626">
<ele>390.8</ele>
<time>2024-05-07T09:19:30Z</time>
</trkpt>
<trkpt lat="48.80563348531723" lon="9.88391968421638">
<ele>390.2</ele>
<time>2024-05-07T09:19:31Z</time>
</trkpt>
<trkpt lat="48.80573649890721" lon="9.883868135511875">
<ele>389.6</ele>
<time>2024-05-07T09:19:32Z</time>
</trkpt>
<trkpt lat="48.805824257433414" lon="9.883798565715551">
<ele>389</ele>
<time>2024-05-07T09:19:33Z</time>
</trkpt>
<trkpt lat="48.80591201595962" lon="9.883729917928576">
<ele>388.4</ele>
<time>2024-05-07T09:19:34Z</time>
</trkpt>
<trkpt lat="48.805999690666795" lon="9.883669819682837">
<ele>388</ele>
<time>2024-05-07T09:19:35Z</time>
</trkpt>
<trkpt lat="48.806087449193" lon="9.88360301591456">
<ele>387.4</ele>
<time>2024-05-07T09:19:36Z</time>
</trkpt>
<trkpt lat="48.80617520771921" lon="9.883544845506549">
<ele>387</ele>
<time>2024-05-07T09:19:37Z</time>
</trkpt>
<trkpt lat="48.80624771118164" lon="9.883462870493531">
<ele>386.6</ele>
<time>2024-05-07T09:19:38Z</time>
</trkpt>
<trkpt lat="48.80633161403239" lon="9.883395144715903">
<ele>386.2</ele>
<time>2024-05-07T09:19:39Z</time>
</trkpt>
<trkpt lat="48.80642314441502" lon="9.883336974307896">
<ele>385.8</ele>
<time>2024-05-07T09:19:40Z</time>
</trkpt>
<trkpt lat="48.80650704726577" lon="9.883273104205728">
<ele>385.2</ele>
<time>2024-05-07T09:19:41Z</time>
</trkpt>
<trkpt lat="48.80658717826009" lon="9.883221555501224">
<ele>384.8</ele>
<time>2024-05-07T09:19:42Z</time>
</trkpt>
<trkpt lat="48.806674936786294" lon="9.883165312930942">
<ele>384.4</ele>
<time>2024-05-07T09:19:43Z</time>
</trkpt>
<trkpt lat="48.806751212105155" lon="9.88310806453228">
<ele>384</ele>
<time>2024-05-07T09:19:44Z</time>
</trkpt>
<trkpt lat="48.806827487424016" lon="9.883048050105572">
<ele>383.8</ele>
<time>2024-05-07T09:19:45Z</time>
</trkpt>
<trkpt lat="48.80689999088645" lon="9.882994573563336">
<ele>383.4</ele>
<time>2024-05-07T09:19:46Z</time>
</trkpt>
<trkpt lat="48.80697249434888" lon="9.882938330993056">
<ele>383</ele>
<time>2024-05-07T09:19:47Z</time>
</trkpt>
<trkpt lat="48.807048769667745" lon="9.882878232747316">
<ele>382.8</ele>
<time>2024-05-07T09:19:48Z</time>
</trkpt>
<trkpt lat="48.807125044986606" lon="9.882818218320608">
<ele>382.4</ele>
<time>2024-05-07T09:19:49Z</time>
</trkpt>
<trkpt lat="48.80719754844904" lon="9.882760047912598">
<ele>382</ele>
<time>2024-05-07T09:19:50Z</time>
</trkpt>
<trkpt lat="48.80728145129979" lon="9.882699949666858">
<ele>381.8</ele>
<time>2024-05-07T09:19:51Z</time>
</trkpt>
<trkpt lat="48.807365354150534" lon="9.882641779258847">
<ele>381.4</ele>
<time>2024-05-07T09:19:52Z</time>
</trkpt>
<trkpt lat="48.80744934082031" lon="9.882586458697917">
<ele>381.2</ele>
<time>2024-05-07T09:19:53Z</time>
</trkpt>
<trkpt lat="48.80752561613917" lon="9.882532060146332">
<ele>380.8</ele>
<time>2024-05-07T09:19:54Z</time>
</trkpt>
<trkpt lat="48.80760566331446" lon="9.882478667423127">
<ele>380.6</ele>
<time>2024-05-07T09:19:55Z</time>
</trkpt>
<trkpt lat="48.80768579430878" lon="9.882423346862195">
<ele>380.4</ele>
<time>2024-05-07T09:19:56Z</time>
</trkpt>
<trkpt lat="48.8077659253031" lon="9.882363248616455">
<ele>380</ele>
<time>2024-05-07T09:19:57Z</time>
</trkpt>
<trkpt lat="48.80784982815385" lon="9.882303234189749">
<ele>379.8</ele>
<time>2024-05-07T09:19:58Z</time>
</trkpt>
<trkpt lat="48.80793373100459" lon="9.882256463170052">
<ele>379.4</ele>
<time>2024-05-07T09:19:59Z</time>
</trkpt>
<trkpt lat="48.8080214895308" lon="9.882188737392426">
<ele>379</ele>
<time>2024-05-07T09:20:00Z</time>
</trkpt>
<trkpt lat="48.80809013731778" lon="9.882096285000443">
<ele>378.8</ele>
<time>2024-05-07T09:20:01Z</time>
</trkpt>
<trkpt lat="48.80818175151944" lon="9.882049513980746">
<ele>378.4</ele>
<time>2024-05-07T09:20:02Z</time>
</trkpt>
<trkpt lat="48.80826179869473" lon="9.881975166499616">
<ele>377.8</ele>
<time>2024-05-07T09:20:03Z</time>
</trkpt>
<trkpt lat="48.808349557220936" lon="9.881910290569069">
<ele>377.4</ele>
<time>2024-05-07T09:20:04Z</time>
</trkpt>
<trkpt lat="48.8084258325398" lon="9.881851114332676">
<ele>377</ele>
<time>2024-05-07T09:20:05Z</time>
</trkpt>
<trkpt lat="48.80850596353412" lon="9.881798727437854">
<ele>376.6</ele>
<time>2024-05-07T09:20:06Z</time>
</trkpt>
<trkpt lat="48.80857846699655" lon="9.881736701354384">
<ele>376.2</ele>
<time>2024-05-07T09:20:07Z</time>
</trkpt>
<trkpt lat="48.80865474231541" lon="9.881676603108644">
<ele>375.8</ele>
<time>2024-05-07T09:20:08Z</time>
</trkpt>
<trkpt lat="48.80873864516616" lon="9.881611810997128">
<ele>375.4</ele>
<time>2024-05-07T09:20:09Z</time>
</trkpt>
<trkpt lat="48.80882263183594" lon="9.881545007228851">
<ele>375</ele>
<time>2024-05-07T09:20:10Z</time>
</trkpt>
<trkpt lat="48.808902679011226" lon="9.881493542343378">
<ele>374.6</ele>
<time>2024-05-07T09:20:11Z</time>
</trkpt>
<trkpt lat="48.80897895433009" lon="9.881440149620175">
<ele>374.2</ele>
<time>2024-05-07T09:20:12Z</time>
</trkpt>
<trkpt lat="48.809043830260634" lon="9.881371418014169">
<ele>374</ele>
<time>2024-05-07T09:20:13Z</time>
</trkpt>
<trkpt lat="48.80913158878684" lon="9.8812903650105">
<ele>373.6</ele>
<time>2024-05-07T09:20:14Z</time>
</trkpt>
<trkpt lat="48.809204092249274" lon="9.88123320043087">
<ele>373.2</ele>
<time>2024-05-07T09:20:15Z</time>
</trkpt>
<trkpt lat="48.809280367568135" lon="9.8811711743474">
<ele>372.6</ele>
<time>2024-05-07T09:20:16Z</time>
</trkpt>
<trkpt lat="48.80934901535511" lon="9.88111208193004">
<ele>372.2</ele>
<time>2024-05-07T09:20:17Z</time>
</trkpt>
<trkpt lat="48.809417663142085" lon="9.881050055846572">
<ele>371.6</ele>
<time>2024-05-07T09:20:18Z</time>
</trkpt>
<trkpt lat="48.809478683397174" lon="9.880981408059595">
<ele>371.2</ele>
<time>2024-05-07T09:20:19Z</time>
</trkpt>
<trkpt lat="48.809535931795835" lon="9.880906976759434">
<ele>370.8</ele>
<time>2024-05-07T09:20:20Z</time>
</trkpt>
<trkpt lat="48.80958555266261" lon="9.880834557116032">
<ele>370.2</ele>
<time>2024-05-07T09:20:21Z</time>
</trkpt>
<trkpt lat="48.80963131785393" lon="9.88075828179717">
<ele>369.8</ele>
<time>2024-05-07T09:20:22Z</time>
</trkpt>
<trkpt lat="48.8096655998379" lon="9.88067815080285">
<ele>369.4</ele>
<time>2024-05-07T09:20:23Z</time>
</trkpt>
<trkpt lat="48.8096999656409" lon="9.8805960919708">
<ele>369</ele>
<time>2024-05-07T09:20:24Z</time>
</trkpt>
<trkpt lat="48.80973810330033" lon="9.880513111129403">
<ele>368.6</ele>
<time>2024-05-07T09:20:25Z</time>
</trkpt>
<trkpt lat="48.809772469103336" lon="9.880430214107037">
<ele>368.2</ele>
<time>2024-05-07T09:20:26Z</time>
</trkpt>
<trkpt lat="48.80981060676277" lon="9.880346227437258">
<ele>367.6</ele>
<time>2024-05-07T09:20:27Z</time>
</trkpt>
<trkpt lat="48.809852600097656" lon="9.88026324659586">
<ele>367.2</ele>
<time>2024-05-07T09:20:28Z</time>
</trkpt>
<trkpt lat="48.80989836528897" lon="9.880183199420571">
<ele>366.8</ele>
<time>2024-05-07T09:20:29Z</time>
</trkpt>
<trkpt lat="48.80994790233672" lon="9.880116395652294">
<ele>366.2</ele>
<time>2024-05-07T09:20:30Z</time>
</trkpt>
<trkpt lat="48.81000129505992" lon="9.880055375397204">
<ele>365.8</ele>
<time>2024-05-07T09:20:31Z</time>
</trkpt>
<trkpt lat="48.81005854345858" lon="9.880000054836271">
<ele>365.4</ele>
<time>2024-05-07T09:20:32Z</time>
</trkpt>
<trkpt lat="48.810111936181784" lon="9.879953367635608">
<ele>365</ele>
<time>2024-05-07T09:20:33Z</time>
</trkpt>
<trkpt lat="48.810169184580445" lon="9.879911374300718">
<ele>364.4</ele>
<time>2024-05-07T09:20:34Z</time>
</trkpt>
<trkpt lat="48.81022643297911" lon="9.879875164479015">
<ele>363.8</ele>
<time>2024-05-07T09:20:35Z</time>
</trkpt>
<trkpt lat="48.81028359755874" lon="9.879839876666663">
<ele>363.4</ele>
<time>2024-05-07T09:20:36Z</time>
</trkpt>
<trkpt lat="48.810344617813826" lon="9.879806516692042">
<ele>363</ele>
<time>2024-05-07T09:20:37Z</time>
</trkpt>
<trkpt lat="48.81040949374437" lon="9.879775000736116">
<ele>362.2</ele>
<time>2024-05-07T09:20:38Z</time>
</trkpt>
<trkpt lat="48.81047051399946" lon="9.879745412617922">
<ele>361.8</ele>
<time>2024-05-07T09:20:39Z</time>
</trkpt>
<trkpt lat="48.81053153425455" lon="9.8797120526433">
<ele>361.2</ele>
<time>2024-05-07T09:20:40Z</time>
</trkpt>
<trkpt lat="48.81059263832867" lon="9.879668215289712">
<ele>360.8</ele>
<time>2024-05-07T09:20:41Z</time>
</trkpt>
<trkpt lat="48.8106498029083" lon="9.879618594422936">
<ele>360.6</ele>
<time>2024-05-07T09:20:42Z</time>
</trkpt>
<trkpt lat="48.81070705130696" lon="9.879558496177197">
<ele>360.2</ele>
<time>2024-05-07T09:20:43Z</time>
</trkpt>
<trkpt lat="48.810764299705625" lon="9.879505103453994">
<ele>359.8</ele>
<time>2024-05-07T09:20:44Z</time>
</trkpt>
<trkpt lat="48.81081769242883" lon="9.879451710730793">
<ele>359.6</ele>
<time>2024-05-07T09:20:45Z</time>
</trkpt>
<trkpt lat="48.81086722947657" lon="9.87939446233213">
<ele>359.2</ele>
<time>2024-05-07T09:20:46Z</time>
</trkpt>
<trkpt lat="48.81091685034335" lon="9.879338219761848">
<ele>358.8</ele>
<time>2024-05-07T09:20:47Z</time>
</trkpt>
<trkpt lat="48.81096647121012" lon="9.879282899200916">
<ele>358.6</ele>
<time>2024-05-07T09:20:48Z</time>
</trkpt>
<trkpt lat="48.811016008257866" lon="9.879228584468365">
<ele>358.2</ele>
<time>2024-05-07T09:20:49Z</time>
</trkpt>
<trkpt lat="48.8110694848001" lon="9.879171336069705">
<ele>357.8</ele>
<time>2024-05-07T09:20:50Z</time>
</trkpt>
<trkpt lat="48.81112664937973" lon="9.87911693751812">
<ele>357.4</ele>
<time>2024-05-07T09:20:51Z</time>
</trkpt>
<trkpt lat="48.81118004210293" lon="9.879063544794915">
<ele>357.2</ele>
<time>2024-05-07T09:20:52Z</time>
</trkpt>
<trkpt lat="48.81122966296971" lon="9.879014929756522">
<ele>356.8</ele>
<time>2024-05-07T09:20:53Z</time>
</trkpt>
<trkpt lat="48.811275428161025" lon="9.878965308889748">
<ele>356.2</ele>
<time>2024-05-07T09:20:54Z</time>
</trkpt>
<trkpt lat="48.81132119335234" lon="9.87892147153616">
<ele>355.8</ele>
<time>2024-05-07T09:20:55Z</time>
</trkpt>
<trkpt lat="48.81136318668723" lon="9.878883333876727">
<ele>355.4</ele>
<time>2024-05-07T09:20:56Z</time>
</trkpt>
<trkpt lat="48.81140518002212" lon="9.878847040235996">
<ele>355.2</ele>
<time>2024-05-07T09:20:57Z</time>
</trkpt>
<trkpt lat="48.81144331768155" lon="9.878803202882407">
<ele>355.2</ele>
<time>2024-05-07T09:20:58Z</time>
</trkpt>
<trkpt lat="48.81148522719741" lon="9.87876506522298">
<ele>355</ele>
<time>2024-05-07T09:20:59Z</time>
</trkpt>
<trkpt lat="48.8115272205323" lon="9.87872307188809">
<ele>354.8</ele>
<time>2024-05-07T09:21:00Z</time>
</trkpt>
<trkpt lat="48.81156921386719" lon="9.878681162372231">
<ele>354.4</ele>
<time>2024-05-07T09:21:01Z</time>
</trkpt>
<trkpt lat="48.811611123383045" lon="9.878638247027991">
<ele>354</ele>
<time>2024-05-07T09:21:02Z</time>
</trkpt>
<trkpt lat="48.811653116717935" lon="9.878600109368564">
<ele>353.8</ele>
<time>2024-05-07T09:21:03Z</time>
</trkpt>
<trkpt lat="48.81169502623379" lon="9.87856482155621">
<ele>353.4</ele>
<time>2024-05-07T09:21:04Z</time>
</trkpt>
<trkpt lat="48.81173316389322" lon="9.878530455753207">
<ele>353</ele>
<time>2024-05-07T09:21:05Z</time>
</trkpt>
<trkpt lat="48.811771385371685" lon="9.878501873463392">
<ele>352.6</ele>
<time>2024-05-07T09:21:06Z</time>
</trkpt>
<trkpt lat="48.81180566735566" lon="9.878473207354546">
<ele>352.2</ele>
<time>2024-05-07T09:21:07Z</time>
</trkpt>
<trkpt lat="48.81184003315866" lon="9.878451330587268">
<ele>352</ele>
<time>2024-05-07T09:21:08Z</time>
</trkpt>
<trkpt lat="48.81188194267452" lon="9.87842844799161">
<ele>351.6</ele>
<time>2024-05-07T09:21:09Z</time>
</trkpt>
<trkpt lat="48.81192016415298" lon="9.878396932035685">
<ele>351.2</ele>
<time>2024-05-07T09:21:10Z</time>
</trkpt>
<trkpt lat="48.811946818605065" lon="9.878351166844368">
<ele>350.8</ele>
<time>2024-05-07T09:21:11Z</time>
</trkpt>
<trkpt lat="48.81196970120072" lon="9.878303473815322">
<ele>350.4</ele>
<time>2024-05-07T09:21:12Z</time>
</trkpt>
<trkpt lat="48.811984956264496" lon="9.878245303407311">
<ele>350.2</ele>
<time>2024-05-07T09:21:13Z</time>
</trkpt>
<trkpt lat="48.81199643947184" lon="9.878181433305144">
<ele>349.8</ele>
<time>2024-05-07T09:21:14Z</time>
</trkpt>
<trkpt lat="48.81201546639204" lon="9.878116557374597">
<ele>349.2</ele>
<time>2024-05-07T09:21:15Z</time>
</trkpt>
<trkpt lat="48.812023093923926" lon="9.87805461511016">
<ele>348.8</ele>
<time>2024-05-07T09:21:16Z</time>
</trkpt>
<trkpt lat="48.81203072145581" lon="9.877998288720846">
<ele>348.6</ele>
<time>2024-05-07T09:21:17Z</time>
</trkpt>
<trkpt lat="48.8120383489877" lon="9.877940118312836">
<ele>348.4</ele>
<time>2024-05-07T09:21:18Z</time>
</trkpt>
<trkpt lat="48.81205745972693" lon="9.877889575436711">
<ele>348.4</ele>
<time>2024-05-07T09:21:19Z</time>
</trkpt>
<trkpt lat="48.81207648664713" lon="9.877846660092471">
<ele>348.2</ele>
<time>2024-05-07T09:21:20Z</time>
</trkpt>
<trkpt lat="48.81209945306182" lon="9.877804750576615">
<ele>348.2</ele>
<time>2024-05-07T09:21:21Z</time>
</trkpt>
<trkpt lat="48.812126107513905" lon="9.877768456935884">
<ele>348.2</ele>
<time>2024-05-07T09:21:22Z</time>
</trkpt>
<trkpt lat="48.81215661764145" lon="9.877737946808338">
<ele>348.2</ele>
<time>2024-05-07T09:21:23Z</time>
</trkpt>
<trkpt lat="48.81219098344445" lon="9.87771699205041">
<ele>348.2</ele>
<time>2024-05-07T09:21:24Z</time>
</trkpt>
<trkpt lat="48.81222912110388" lon="9.8776950314641">
<ele>348</ele>
<time>2024-05-07T09:21:25Z</time>
</trkpt>
<trkpt lat="48.812263486906886" lon="9.877681704238055">
<ele>348</ele>
<time>2024-05-07T09:21:26Z</time>
</trkpt>
<trkpt lat="48.812286369502544" lon="9.877670221030712">
<ele>348</ele>
<time>2024-05-07T09:21:27Z</time>
</trkpt>
<trkpt lat="48.8123092520982" lon="9.877657815814018">
<ele>348</ele>
<time>2024-05-07T09:21:28Z</time>
</trkpt>
<trkpt lat="48.81233213469386" lon="9.877646416425703">
<ele>348</ele>
<time>2024-05-07T09:21:29Z</time>
</trkpt>
<trkpt lat="48.81235116161406" lon="9.87763686105609">
<ele>348</ele>
<time>2024-05-07T09:21:30Z</time>
</trkpt>
<trkpt lat="48.81236641667783" lon="9.877626383677123">
<ele>348</ele>
<time>2024-05-07T09:21:31Z</time>
</trkpt>
<trkpt lat="48.81237789988518" lon="9.877613056451082">
<ele>347.8</ele>
<time>2024-05-07T09:21:32Z</time>
</trkpt>
<trkpt lat="48.81239692680538" lon="9.877590173855424">
<ele>347.8</ele>
<time>2024-05-07T09:21:33Z</time>
</trkpt>
<trkpt lat="48.81241603754461" lon="9.877566285431383">
<ele>347.6</ele>
<time>2024-05-07T09:21:34Z</time>
</trkpt>
<trkpt lat="48.81243514828384" lon="9.877543402835729">
<ele>347.6</ele>
<time>2024-05-07T09:21:35Z</time>
</trkpt>
<trkpt lat="48.812461802735925" lon="9.877514820545912">
<ele>347.4</ele>
<time>2024-05-07T09:21:36Z</time>
</trkpt>
<trkpt lat="48.81248091347515" lon="9.877490010112524">
<ele>347.4</ele>
<time>2024-05-07T09:21:37Z</time>
</trkpt>
<trkpt lat="48.81250756792724" lon="9.877463271841409">
<ele>347.4</ele>
<time>2024-05-07T09:21:38Z</time>
</trkpt>
<trkpt lat="48.81252667866647" lon="9.877431839704514">
<ele>347.4</ele>
<time>2024-05-07T09:21:39Z</time>
</trkpt>
<trkpt lat="48.81254570558667" lon="9.877394624054432">
<ele>347.2</ele>
<time>2024-05-07T09:21:40Z</time>
</trkpt>
<trkpt lat="48.81256096065045" lon="9.877351708710194">
<ele>347.4</ele>
<time>2024-05-07T09:21:41Z</time>
</trkpt>
<trkpt lat="48.812576215714216" lon="9.877305021509528">
<ele>347.4</ele>
<time>2024-05-07T09:21:42Z</time>
</trkpt>
<trkpt lat="48.8125838432461" lon="9.877255400642753">
<ele>347.4</ele>
<time>2024-05-07T09:21:43Z</time>
</trkpt>
<trkpt lat="48.81259147077799" lon="9.87720200791955">
<ele>347.4</ele>
<time>2024-05-07T09:21:44Z</time>
</trkpt>
<trkpt lat="48.81259532645345" lon="9.877146687358618">
<ele>347.4</ele>
<time>2024-05-07T09:21:45Z</time>
</trkpt>
<trkpt lat="48.81259532645345" lon="9.877091366797686">
<ele>347.4</ele>
<time>2024-05-07T09:21:46Z</time>
</trkpt>
<trkpt lat="48.812599182128906" lon="9.877033196389675">
<ele>347.4</ele>
<time>2024-05-07T09:21:47Z</time>
</trkpt>
<trkpt lat="48.812599182128906" lon="9.876973098143935">
<ele>347.4</ele>
<time>2024-05-07T09:21:48Z</time>
</trkpt>
<trkpt lat="48.81259532645345" lon="9.876914927735925">
<ele>347.4</ele>
<time>2024-05-07T09:21:49Z</time>
</trkpt>
<trkpt lat="48.81259147077799" lon="9.876856757327914">
<ele>347.2</ele>
<time>2024-05-07T09:21:50Z</time>
</trkpt>
<trkpt lat="48.81259147077799" lon="9.876794815063477">
<ele>347.2</ele>
<time>2024-05-07T09:21:51Z</time>
</trkpt>
<trkpt lat="48.81259147077799" lon="9.876731866970658">
<ele>347</ele>
<time>2024-05-07T09:21:52Z</time>
</trkpt>
<trkpt lat="48.812599182128906" lon="9.876669840887187">
<ele>347</ele>
<time>2024-05-07T09:21:53Z</time>
</trkpt>
<trkpt lat="48.81260680966079" lon="9.876609742641447">
<ele>347</ele>
<time>2024-05-07T09:21:54Z</time>
</trkpt>
<trkpt lat="48.812618209049106" lon="9.876553500071168">
<ele>347</ele>
<time>2024-05-07T09:21:55Z</time>
</trkpt>
<trkpt lat="48.81264109164477" lon="9.876495329663156">
<ele>347</ele>
<time>2024-05-07T09:21:56Z</time>
</trkpt>
<trkpt lat="48.81266782991588" lon="9.876442858949304">
<ele>347</ele>
<time>2024-05-07T09:21:57Z</time>
</trkpt>
<trkpt lat="48.812698340043426" lon="9.876403799280524">
<ele>347</ele>
<time>2024-05-07T09:21:58Z</time>
</trkpt>
<trkpt lat="48.8127326220274" lon="9.87637328915298">
<ele>347.2</ele>
<time>2024-05-07T09:21:59Z</time>
</trkpt>
<trkpt lat="48.8127669878304" lon="9.87635132856667">
<ele>347.2</ele>
<time>2024-05-07T09:22:00Z</time>
</trkpt>
<trkpt lat="48.81280512548983" lon="9.87633322365582">
<ele>347.4</ele>
<time>2024-05-07T09:22:01Z</time>
</trkpt>
<trkpt lat="48.81284326314926" lon="9.876319812610744">
<ele>347.6</ele>
<time>2024-05-07T09:22:02Z</time>
</trkpt>
<trkpt lat="48.81288140080869" lon="9.876308413222432">
<ele>347.6</ele>
<time>2024-05-07T09:22:03Z</time>
</trkpt>
<trkpt lat="48.812915766611695" lon="9.876303635537624">
<ele>347.6</ele>
<time>2024-05-07T09:22:04Z</time>
</trkpt>
<trkpt lat="48.81294627673924" lon="9.876306485384704">
<ele>347.8</ele>
<time>2024-05-07T09:22:05Z</time>
</trkpt>
<trkpt lat="48.81297301501036" lon="9.876310341060162">
<ele>347.6</ele>
<time>2024-05-07T09:22:06Z</time>
</trkpt>
<trkpt lat="48.81299204193056" lon="9.876310341060162">
<ele>347.6</ele>
<time>2024-05-07T09:22:07Z</time>
</trkpt>
<trkpt lat="48.81301878020167" lon="9.876297935843468">
<ele>347.6</ele>
<time>2024-05-07T09:22:08Z</time>
</trkpt>
<trkpt lat="48.81303780712187" lon="9.876270275563002">
<ele>347.6</ele>
<time>2024-05-07T09:22:09Z</time>
</trkpt>
<trkpt lat="48.813053062185645" lon="9.876226354390385">
<ele>347.8</ele>
<time>2024-05-07T09:22:10Z</time>
</trkpt>
<trkpt lat="48.813056917861104" lon="9.87617681734264">
<ele>347.8</ele>
<time>2024-05-07T09:22:11Z</time>
</trkpt>
<trkpt lat="48.813056917861104" lon="9.876123424619436">
<ele>347.8</ele>
<time>2024-05-07T09:22:12Z</time>
</trkpt>
<trkpt lat="48.813056917861104" lon="9.876066176220776">
<ele>347.8</ele>
<time>2024-05-07T09:22:13Z</time>
</trkpt>
<trkpt lat="48.813053062185645" lon="9.876008005812764">
<ele>347.8</ele>
<time>2024-05-07T09:22:14Z</time>
</trkpt>
<trkpt lat="48.813053062185645" lon="9.875945057719946">
<ele>347.8</ele>
<time>2024-05-07T09:22:15Z</time>
</trkpt>
<trkpt lat="48.81304929032922" lon="9.875880181789398">
<ele>347.8</ele>
<time>2024-05-07T09:22:16Z</time>
</trkpt>
<trkpt lat="48.81304929032922" lon="9.875811534002423">
<ele>347.8</ele>
<time>2024-05-07T09:22:17Z</time>
</trkpt>
<trkpt lat="48.81304543465376" lon="9.875741880387068">
<ele>347.8</ele>
<time>2024-05-07T09:22:18Z</time>
</trkpt>
<trkpt lat="48.81304166279733" lon="9.875666610896587">
<ele>348</ele>
<time>2024-05-07T09:22:19Z</time>
</trkpt>
<trkpt lat="48.81304166279733" lon="9.875593185424805">
<ele>348</ele>
<time>2024-05-07T09:22:20Z</time>
</trkpt>
<trkpt lat="48.813034035265446" lon="9.87552160397172">
<ele>348</ele>
<time>2024-05-07T09:22:21Z</time>
</trkpt>
<trkpt lat="48.81302640773356" lon="9.875452034175396">
<ele>348</ele>
<time>2024-05-07T09:22:22Z</time>
</trkpt>
<trkpt lat="48.81301878020167" lon="9.875381458550692">
<ele>348</ele>
<time>2024-05-07T09:22:23Z</time>
</trkpt>
<trkpt lat="48.81301115266979" lon="9.875313732773066">
<ele>348</ele>
<time>2024-05-07T09:22:24Z</time>
</trkpt>
<trkpt lat="48.8130035251379" lon="9.87524508498609">
<ele>348</ele>
<time>2024-05-07T09:22:25Z</time>
</trkpt>
<trkpt lat="48.81299966946244" lon="9.875171659514308">
<ele>348</ele>
<time>2024-05-07T09:22:26Z</time>
</trkpt>
<trkpt lat="48.81299204193056" lon="9.875100078061225">
<ele>348</ele>
<time>2024-05-07T09:22:27Z</time>
</trkpt>
<trkpt lat="48.81298441439867" lon="9.87502665258944">
<ele>348</ele>
<time>2024-05-07T09:22:28Z</time>
</trkpt>
<trkpt lat="48.812976786866784" lon="9.874951299279928">
<ele>348</ele>
<time>2024-05-07T09:22:29Z</time>
</trkpt>
<trkpt lat="48.812976786866784" lon="9.874877873808146">
<ele>348</ele>
<time>2024-05-07T09:22:30Z</time>
</trkpt>
<trkpt lat="48.812976786866784" lon="9.874801598489285">
<ele>348</ele>
<time>2024-05-07T09:22:31Z</time>
</trkpt>
<trkpt lat="48.81297301501036" lon="9.874725323170424">
<ele>348</ele>
<time>2024-05-07T09:22:32Z</time>
</trkpt>
<trkpt lat="48.81296538747847" lon="9.874647120013831">
<ele>348</ele>
<time>2024-05-07T09:22:33Z</time>
</trkpt>
<trkpt lat="48.812957759946585" lon="9.874567911028862">
<ele>348</ele>
<time>2024-05-07T09:22:34Z</time>
</trkpt>
<trkpt lat="48.8129501324147" lon="9.874489707872272">
<ele>348</ele>
<time>2024-05-07T09:22:35Z</time>
</trkpt>
<trkpt lat="48.81294250488281" lon="9.874409660696983">
<ele>348</ele>
<time>2024-05-07T09:22:36Z</time>
</trkpt>
<trkpt lat="48.812934793531895" lon="9.874326679855583">
<ele>348</ele>
<time>2024-05-07T09:22:37Z</time>
</trkpt>
<trkpt lat="48.81292716600001" lon="9.874248476698996">
<ele>347.8</ele>
<time>2024-05-07T09:22:38Z</time>
</trkpt>
<trkpt lat="48.81291953846812" lon="9.874163568019869">
<ele>347.8</ele>
<time>2024-05-07T09:22:39Z</time>
</trkpt>
<trkpt lat="48.812915766611695" lon="9.874074887484312">
<ele>347.8</ele>
<time>2024-05-07T09:22:40Z</time>
</trkpt>
<trkpt lat="48.812915766611695" lon="9.87398335710168">
<ele>347.6</ele>
<time>2024-05-07T09:22:41Z</time>
</trkpt>
<trkpt lat="48.81291191093624" lon="9.873893670737743">
<ele>347.6</ele>
<time>2024-05-07T09:22:42Z</time>
</trkpt>
<trkpt lat="48.81290813907981" lon="9.87380306236446">
<ele>347.4</ele>
<time>2024-05-07T09:22:43Z</time>
</trkpt>
<trkpt lat="48.81290813907981" lon="9.873713459819555">
<ele>347.2</ele>
<time>2024-05-07T09:22:44Z</time>
</trkpt>
<trkpt lat="48.81290428340435" lon="9.873621929436922">
<ele>347</ele>
<time>2024-05-07T09:22:45Z</time>
</trkpt>
<trkpt lat="48.812896655872464" lon="9.873531321063638">
<ele>346.8</ele>
<time>2024-05-07T09:22:46Z</time>
</trkpt>
<trkpt lat="48.81289288401604" lon="9.873441634699702">
<ele>346.6</ele>
<time>2024-05-07T09:22:47Z</time>
</trkpt>
<trkpt lat="48.81288525648415" lon="9.873356809839606">
<ele>346.6</ele>
<time>2024-05-07T09:22:48Z</time>
</trkpt>
<trkpt lat="48.812873773276806" lon="9.87327190116048">
<ele>346.4</ele>
<time>2024-05-07T09:22:49Z</time>
</trkpt>
<trkpt lat="48.81286237388849" lon="9.873187998309731">
<ele>346.2</ele>
<time>2024-05-07T09:22:50Z</time>
</trkpt>
<trkpt lat="48.81284711882472" lon="9.873105017468331">
<ele>346</ele>
<time>2024-05-07T09:22:51Z</time>
</trkpt>
<trkpt lat="48.81282423622906" lon="9.873028742149472">
<ele>345.6</ele>
<time>2024-05-07T09:22:52Z</time>
</trkpt>
<trkpt lat="48.81279372610152" lon="9.872958166524768">
<ele>345.6</ele>
<time>2024-05-07T09:22:53Z</time>
</trkpt>
<trkpt lat="48.812759360298514" lon="9.872890440747142">
<ele>345.4</ele>
<time>2024-05-07T09:22:54Z</time>
</trkpt>
<trkpt lat="48.81272499449551" lon="9.872824642807243">
<ele>345.4</ele>
<time>2024-05-07T09:22:55Z</time>
</trkpt>
<trkpt lat="48.81268685683608" lon="9.872761694714429">
<ele>345.2</ele>
<time>2024-05-07T09:22:56Z</time>
</trkpt>
<trkpt lat="48.81264871917665" lon="9.87269681878388">
<ele>345.2</ele>
<time>2024-05-07T09:22:57Z</time>
</trkpt>
<trkpt lat="48.81261058151722" lon="9.872626243159177">
<ele>345.2</ele>
<time>2024-05-07T09:22:58Z</time>
</trkpt>
<trkpt lat="48.81257244385779" lon="9.872558517381549">
<ele>345</ele>
<time>2024-05-07T09:22:59Z</time>
</trkpt>
<trkpt lat="48.81253430619836" lon="9.872487941756845">
<ele>345</ele>
<time>2024-05-07T09:23:00Z</time>
</trkpt>
<trkpt lat="48.81249616853893" lon="9.87241837196052">
<ele>344.8</ele>
<time>2024-05-07T09:23:01Z</time>
</trkpt>
<trkpt lat="48.81245417520404" lon="9.872349724173546">
<ele>344.8</ele>
<time>2024-05-07T09:23:02Z</time>
</trkpt>
<trkpt lat="48.81241218186915" lon="9.87227814272046">
<ele>344.6</ele>
<time>2024-05-07T09:23:03Z</time>
</trkpt>
<trkpt lat="48.81237789988518" lon="9.872204717248678">
<ele>344.6</ele>
<time>2024-05-07T09:23:04Z</time>
</trkpt>
<trkpt lat="48.81233976222575" lon="9.872130369767548">
<ele>344.4</ele>
<time>2024-05-07T09:23:05Z</time>
</trkpt>
<trkpt lat="48.812305396422744" lon="9.872053088620303">
<ele>344.2</ele>
<time>2024-05-07T09:23:06Z</time>
</trkpt>
<trkpt lat="48.8122748862952" lon="9.871972957625983">
<ele>344</ele>
<time>2024-05-07T09:23:07Z</time>
</trkpt>
<trkpt lat="48.812244376167655" lon="9.871891904622316">
<ele>343.8</ele>
<time>2024-05-07T09:23:08Z</time>
</trkpt>
<trkpt lat="48.812221493572" lon="9.87180800177157">
<ele>343.6</ele>
<time>2024-05-07T09:23:09Z</time>
</trkpt>
<trkpt lat="48.81219861097634" lon="9.871725020930173">
<ele>343.4</ele>
<time>2024-05-07T09:23:10Z</time>
</trkpt>
<trkpt lat="48.812183355912566" lon="9.871640196070077">
<ele>343.2</ele>
<time>2024-05-07T09:23:11Z</time>
</trkpt>
<trkpt lat="48.812164245173335" lon="9.871551431715488">
<ele>343</ele>
<time>2024-05-07T09:23:12Z</time>
</trkpt>
<trkpt lat="48.81215284578502" lon="9.871464679017665">
<ele>342.8</ele>
<time>2024-05-07T09:23:13Z</time>
</trkpt>
<trkpt lat="48.812145218253136" lon="9.871376920491455">
<ele>342.6</ele>
<time>2024-05-07T09:23:14Z</time>
</trkpt>
<trkpt lat="48.81214136257768" lon="9.87129494547844">
<ele>342.6</ele>
<time>2024-05-07T09:23:15Z</time>
</trkpt>
<trkpt lat="48.81213759072125" lon="9.871206264942884">
<ele>342.4</ele>
<time>2024-05-07T09:23:16Z</time>
</trkpt>
<trkpt lat="48.81213759072125" lon="9.87111465074122">
<ele>342.2</ele>
<time>2024-05-07T09:23:17Z</time>
</trkpt>
<trkpt lat="48.81214136257768" lon="9.871026976034043">
<ele>342</ele>
<time>2024-05-07T09:23:18Z</time>
</trkpt>
<trkpt lat="48.81214899010956" lon="9.870942989364266">
<ele>341.8</ele>
<time>2024-05-07T09:23:19Z</time>
</trkpt>
<trkpt lat="48.81215661764145" lon="9.8708600923419">
<ele>341.6</ele>
<time>2024-05-07T09:23:20Z</time>
</trkpt>
<trkpt lat="48.81215661764145" lon="9.87077803350985">
<ele>341.4</ele>
<time>2024-05-07T09:23:21Z</time>
</trkpt>
<trkpt lat="48.81216047331691" lon="9.870696980506182">
<ele>341.2</ele>
<time>2024-05-07T09:23:22Z</time>
</trkpt>
<trkpt lat="48.812168100848794" lon="9.870618777349591">
<ele>341.2</ele>
<time>2024-05-07T09:23:23Z</time>
</trkpt>
<trkpt lat="48.81217187270522" lon="9.870538646355271">
<ele>341.2</ele>
<time>2024-05-07T09:23:24Z</time>
</trkpt>
<trkpt lat="48.81217187270522" lon="9.870459521189332">
<ele>341.2</ele>
<time>2024-05-07T09:23:25Z</time>
</trkpt>
<trkpt lat="48.81217950023711" lon="9.870381318032742">
<ele>341</ele>
<time>2024-05-07T09:23:26Z</time>
</trkpt>
<trkpt lat="48.812183355912566" lon="9.87030504271388">
<ele>341</ele>
<time>2024-05-07T09:23:27Z</time>
</trkpt>
<trkpt lat="48.81218712776899" lon="9.870229689404368">
<ele>341</ele>
<time>2024-05-07T09:23:28Z</time>
</trkpt>
<trkpt lat="48.81219475530088" lon="9.870155258104203">
<ele>341</ele>
<time>2024-05-07T09:23:29Z</time>
</trkpt>
<trkpt lat="48.81219861097634" lon="9.870082838460805">
<ele>341</ele>
<time>2024-05-07T09:23:30Z</time>
</trkpt>
<trkpt lat="48.812202382832766" lon="9.870011257007718">
<ele>341</ele>
<time>2024-05-07T09:23:31Z</time>
</trkpt>
<trkpt lat="48.81221001036465" lon="9.869941687211394">
<ele>341</ele>
<time>2024-05-07T09:23:32Z</time>
</trkpt>
<trkpt lat="48.81221001036465" lon="9.86987303942442">
<ele>341.2</ele>
<time>2024-05-07T09:23:33Z</time>
</trkpt>
<trkpt lat="48.81221386604011" lon="9.869806235656142">
<ele>341.2</ele>
<time>2024-05-07T09:23:34Z</time>
</trkpt>
<trkpt lat="48.81221763789654" lon="9.869739515706897">
<ele>341.2</ele>
<time>2024-05-07T09:23:35Z</time>
</trkpt>
<trkpt lat="48.812225265428424" lon="9.869678495451808">
<ele>341.2</ele>
<time>2024-05-07T09:23:36Z</time>
</trkpt>
<trkpt lat="48.812244376167655" lon="9.869620241224766">
<ele>341.2</ele>
<time>2024-05-07T09:23:37Z</time>
</trkpt>
<trkpt lat="48.8122748862952" lon="9.869578331708908">
<ele>341.2</ele>
<time>2024-05-07T09:23:38Z</time>
</trkpt>
<trkpt lat="48.8123092520982" lon="9.869546815752985">
<ele>341.2</ele>
<time>2024-05-07T09:23:39Z</time>
</trkpt>
<trkpt lat="48.81233976222575" lon="9.869522089138629">
<ele>341.2</ele>
<time>2024-05-07T09:23:40Z</time>
</trkpt>
<trkpt lat="48.81237789988518" lon="9.869498200714588">
<ele>341.2</ele>
<time>2024-05-07T09:23:41Z</time>
</trkpt>
<trkpt lat="48.81241218186915" lon="9.869469618424771">
<ele>341.2</ele>
<time>2024-05-07T09:23:42Z</time>
</trkpt>
<trkpt lat="48.81245040334761" lon="9.86943625845015">
<ele>341.2</ele>
<time>2024-05-07T09:23:43Z</time>
</trkpt>
<trkpt lat="48.81248854100704" lon="9.869399964809418">
<ele>341.2</ele>
<time>2024-05-07T09:23:44Z</time>
</trkpt>
<trkpt lat="48.81252667866647" lon="9.869361827149987">
<ele>341</ele>
<time>2024-05-07T09:23:45Z</time>
</trkpt>
<trkpt lat="48.81256096065045" lon="9.869319833815098">
<ele>341</ele>
<time>2024-05-07T09:23:46Z</time>
</trkpt>
<trkpt lat="48.81259532645345" lon="9.869286473840477">
<ele>341</ele>
<time>2024-05-07T09:23:47Z</time>
</trkpt>
<trkpt lat="48.81263346411288" lon="9.869251186028125">
<ele>340.8</ele>
<time>2024-05-07T09:23:48Z</time>
</trkpt>
<trkpt lat="48.81266782991588" lon="9.869216904044151">
<ele>341</ele>
<time>2024-05-07T09:23:49Z</time>
</trkpt>
<trkpt lat="48.81270211189985" lon="9.86917876638472">
<ele>341</ele>
<time>2024-05-07T09:23:50Z</time>
</trkpt>
<trkpt lat="48.812736477702856" lon="9.869148172438145">
<ele>341</ele>
<time>2024-05-07T09:23:51Z</time>
</trkpt>
<trkpt lat="48.81277084350586" lon="9.86912151798606">
<ele>341</ele>
<time>2024-05-07T09:23:52Z</time>
</trkpt>
<trkpt lat="48.81280898116529" lon="9.869096707552671">
<ele>341</ele>
<time>2024-05-07T09:23:53Z</time>
</trkpt>
<trkpt lat="48.81284326314926" lon="9.869074746966362">
<ele>341</ele>
<time>2024-05-07T09:23:54Z</time>
</trkpt>
<trkpt lat="48.812877628952265" lon="9.86906141974032">
<ele>341.2</ele>
<time>2024-05-07T09:23:55Z</time>
</trkpt>
<trkpt lat="48.812915766611695" lon="9.869052870199084">
<ele>341.2</ele>
<time>2024-05-07T09:23:56Z</time>
</trkpt>
<trkpt lat="48.812957759946585" lon="9.869045242667198">
<ele>341.4</ele>
<time>2024-05-07T09:23:57Z</time>
</trkpt>
<trkpt lat="48.813014924526215" lon="9.869045242667198">
<ele>341.4</ele>
<time>2024-05-07T09:23:58Z</time>
</trkpt>
<trkpt lat="48.813056917861104" lon="9.869045242667198">
<ele>341.4</ele>
<time>2024-05-07T09:23:59Z</time>
</trkpt>
<trkpt lat="48.81310645490885" lon="9.869047086685896">
<ele>341.4</ele>
<time>2024-05-07T09:24:00Z</time>
</trkpt>
<trkpt lat="48.8131523039192" lon="9.869051864370704">
<ele>341.2</ele>
<time>2024-05-07T09:24:01Z</time>
</trkpt>
<trkpt lat="48.81320184096694" lon="9.869056642055511">
<ele>341.2</ele>
<time>2024-05-07T09:24:02Z</time>
</trkpt>
<trkpt lat="48.81324383430183" lon="9.86906141974032">
<ele>341</ele>
<time>2024-05-07T09:24:03Z</time>
</trkpt>
<trkpt lat="48.813293455168605" lon="9.869071897119284">
<ele>340.8</ele>
<time>2024-05-07T09:24:04Z</time>
</trkpt>
<trkpt lat="48.81334299221635" lon="9.869076674804091">
<ele>340.8</ele>
<time>2024-05-07T09:24:05Z</time>
</trkpt>
<trkpt lat="48.813388757407665" lon="9.86907860264182">
<ele>340.8</ele>
<time>2024-05-07T09:24:06Z</time>
</trkpt>
<trkpt lat="48.81343452259898" lon="9.869070053100586">
<ele>340.8</ele>
<time>2024-05-07T09:24:07Z</time>
</trkpt>
<trkpt lat="48.81347651593387" lon="9.86905856989324">
<ele>340.8</ele>
<time>2024-05-07T09:24:08Z</time>
</trkpt>
<trkpt lat="48.8135146535933" lon="9.86903945915401">
<ele>340.8</ele>
<time>2024-05-07T09:24:09Z</time>
</trkpt>
<trkpt lat="48.81355664692819" lon="9.86902043223381">
<ele>340.8</ele>
<time>2024-05-07T09:24:10Z</time>
</trkpt>
<trkpt lat="48.81359855644405" lon="9.8689984716475">
<ele>341</ele>
<time>2024-05-07T09:24:11Z</time>
</trkpt>
<trkpt lat="48.81363677792251" lon="9.868976511061192">
<ele>341</ele>
<time>2024-05-07T09:24:12Z</time>
</trkpt>
<trkpt lat="48.81367868743837" lon="9.868954634293914">
<ele>341</ele>
<time>2024-05-07T09:24:13Z</time>
</trkpt>
<trkpt lat="48.8137168250978" lon="9.868933595716952">
<ele>341</ele>
<time>2024-05-07T09:24:14Z</time>
</trkpt>
<trkpt lat="48.813766445964575" lon="9.868913646787403">
<ele>341</ele>
<time>2024-05-07T09:24:15Z</time>
</trkpt>
<trkpt lat="48.81381606683135" lon="9.868887830525637">
<ele>341</ele>
<time>2024-05-07T09:24:16Z</time>
</trkpt>
<trkpt lat="48.81385797634721" lon="9.868856398388743">
<ele>341</ele>
<time>2024-05-07T09:24:17Z</time>
</trkpt>
<trkpt lat="48.813903741538525" lon="9.868824882432818">
<ele>341</ele>
<time>2024-05-07T09:24:18Z</time>
</trkpt>
<trkpt lat="48.8139533624053" lon="9.868796300143003">
<ele>341</ele>
<time>2024-05-07T09:24:19Z</time>
</trkpt>
<trkpt lat="48.8140067551285" lon="9.868766712024808">
<ele>341.2</ele>
<time>2024-05-07T09:24:20Z</time>
</trkpt>
<trkpt lat="48.814064003527164" lon="9.868741985410452">
<ele>341.2</ele>
<time>2024-05-07T09:24:21Z</time>
</trkpt>
<trkpt lat="48.81412502378225" lon="9.86872480250895">
<ele>341.2</ele>
<time>2024-05-07T09:24:22Z</time>
</trkpt>
<trkpt lat="48.81418604403734" lon="9.868718096986411">
<ele>341.2</ele>
<time>2024-05-07T09:24:23Z</time>
</trkpt>
<trkpt lat="48.81424706429243" lon="9.868715247139336">
<ele>341.2</ele>
<time>2024-05-07T09:24:24Z</time>
</trkpt>
<trkpt lat="48.81430808454752" lon="9.868713319301603">
<ele>341</ele>
<time>2024-05-07T09:24:25Z</time>
</trkpt>
<trkpt lat="48.814361561089754" lon="9.868709547445178">
<ele>340.8</ele>
<time>2024-05-07T09:24:26Z</time>
</trkpt>
<trkpt lat="48.81442258134484" lon="9.868713319301603">
<ele>340.6</ele>
<time>2024-05-07T09:24:27Z</time>
</trkpt>
<trkpt lat="48.81447974592447" lon="9.868720024824142">
<ele>340.6</ele>
<time>2024-05-07T09:24:28Z</time>
</trkpt>
<trkpt lat="48.814536994323134" lon="9.86872480250895">
<ele>340.4</ele>
<time>2024-05-07T09:24:29Z</time>
</trkpt>
<trkpt lat="48.81459801457822" lon="9.868729580193758">
<ele>340.2</ele>
<time>2024-05-07T09:24:30Z</time>
</trkpt>
<trkpt lat="48.814659118652344" lon="9.868731424212456">
<ele>340</ele>
<time>2024-05-07T09:24:31Z</time>
</trkpt>
<trkpt lat="48.814716283231974" lon="9.868731424212456">
<ele>339.8</ele>
<time>2024-05-07T09:24:32Z</time>
</trkpt>
<trkpt lat="48.814773531630635" lon="9.868728574365376">
<ele>339.6</ele>
<time>2024-05-07T09:24:33Z</time>
</trkpt>
<trkpt lat="48.81482692435384" lon="9.86872480250895">
<ele>339.6</ele>
<time>2024-05-07T09:24:34Z</time>
</trkpt>
<trkpt lat="48.81488031707704" lon="9.86872673034668">
<ele>339.6</ele>
<time>2024-05-07T09:24:35Z</time>
</trkpt>
<trkpt lat="48.81493370980024" lon="9.86872480250895">
<ele>339.4</ele>
<time>2024-05-07T09:24:36Z</time>
</trkpt>
<trkpt lat="48.81498333066702" lon="9.86872480250895">
<ele>339.4</ele>
<time>2024-05-07T09:24:37Z</time>
</trkpt>
<trkpt lat="48.81503672339022" lon="9.868728574365376">
<ele>339.4</ele>
<time>2024-05-07T09:24:38Z</time>
</trkpt>
<trkpt lat="48.815090116113424" lon="9.868728574365376">
<ele>339.2</ele>
<time>2024-05-07T09:24:39Z</time>
</trkpt>
<trkpt lat="48.81513588130474" lon="9.86872480250895">
<ele>339.2</ele>
<time>2024-05-07T09:24:40Z</time>
</trkpt>
<trkpt lat="48.81518173031509" lon="9.86872673034668">
<ele>339</ele>
<time>2024-05-07T09:24:41Z</time>
</trkpt>
<trkpt lat="48.815227495506406" lon="9.868731424212456">
<ele>339</ele>
<time>2024-05-07T09:24:42Z</time>
</trkpt>
<trkpt lat="48.81527326069772" lon="9.868731424212456">
<ele>339</ele>
<time>2024-05-07T09:24:43Z</time>
</trkpt>
<trkpt lat="48.81531902588904" lon="9.868721952661872">
<ele>338.8</ele>
<time>2024-05-07T09:24:44Z</time>
</trkpt>
<trkpt lat="48.81536101922393" lon="9.868698064237831">
<ele>338.8</ele>
<time>2024-05-07T09:24:45Z</time>
</trkpt>
<trkpt lat="48.8153953012079" lon="9.86866378225386">
<ele>339</ele>
<time>2024-05-07T09:24:46Z</time>
</trkpt>
<trkpt lat="48.81543343886733" lon="9.868621788918972">
<ele>339</ele>
<time>2024-05-07T09:24:47Z</time>
</trkpt>
<trkpt lat="48.815467804670334" lon="9.868573173880575">
<ele>339</ele>
<time>2024-05-07T09:24:48Z</time>
</trkpt>
<trkpt lat="48.815502086654305" lon="9.86852640286088">
<ele>339.2</ele>
<time>2024-05-07T09:24:49Z</time>
</trkpt>
<trkpt lat="48.81554030813277" lon="9.868483487516642">
<ele>339.2</ele>
<time>2024-05-07T09:24:50Z</time>
</trkpt>
<trkpt lat="48.815582217648625" lon="9.868441578000784">
<ele>339.4</ele>
<time>2024-05-07T09:24:51Z</time>
</trkpt>
<trkpt lat="48.81562798283994" lon="9.868403356522322">
<ele>339.4</ele>
<time>2024-05-07T09:24:52Z</time>
</trkpt>
<trkpt lat="48.81567374803126" lon="9.868371924385428">
<ele>339.6</ele>
<time>2024-05-07T09:24:53Z</time>
</trkpt>
<trkpt lat="48.81571574136615" lon="9.86834711395204">
<ele>339.6</ele>
<time>2024-05-07T09:24:54Z</time>
</trkpt>
<trkpt lat="48.81575773470104" lon="9.868323309347034">
<ele>339.6</ele>
<time>2024-05-07T09:24:55Z</time>
</trkpt>
<trkpt lat="48.815799644216895" lon="9.868291793391109">
<ele>339.6</ele>
<time>2024-05-07T09:24:56Z</time>
</trkpt>
<trkpt lat="48.81584540940821" lon="9.86825466156006">
<ele>339.8</ele>
<time>2024-05-07T09:24:57Z</time>
</trkpt>
<trkpt lat="48.81589503027499" lon="9.868213590234518">
<ele>339.8</ele>
<time>2024-05-07T09:24:58Z</time>
</trkpt>
<trkpt lat="48.81593702360988" lon="9.868169752880933">
<ele>339.8</ele>
<time>2024-05-07T09:24:59Z</time>
</trkpt>
<trkpt lat="48.81597516126931" lon="9.868126837536693">
<ele>339.8</ele>
<time>2024-05-07T09:25:00Z</time>
</trkpt>
<trkpt lat="48.81601329892874" lon="9.868083000183104">
<ele>339.8</ele>
<time>2024-05-07T09:25:01Z</time>
</trkpt>
<trkpt lat="48.81604380905628" lon="9.868040084838867">
<ele>340</ele>
<time>2024-05-07T09:25:02Z</time>
</trkpt>
<trkpt lat="48.816074319183826" lon="9.867996163666248">
<ele>340</ele>
<time>2024-05-07T09:25:03Z</time>
</trkpt>
<trkpt lat="48.816101057454944" lon="9.86795517615974">
<ele>340.2</ele>
<time>2024-05-07T09:25:04Z</time>
</trkpt>
<trkpt lat="48.81612771190703" lon="9.86791511066258">
<ele>340.4</ele>
<time>2024-05-07T09:25:05Z</time>
</trkpt>
<trkpt lat="48.816158222034574" lon="9.86787311732769">
<ele>340.6</ele>
<time>2024-05-07T09:25:06Z</time>
</trkpt>
<trkpt lat="48.81618110463023" lon="9.867831207811832">
<ele>340.8</ele>
<time>2024-05-07T09:25:07Z</time>
</trkpt>
<trkpt lat="48.81620407104492" lon="9.867790220305324">
<ele>341.2</ele>
<time>2024-05-07T09:25:08Z</time>
</trkpt>
<trkpt lat="48.81623072549701" lon="9.867750154808164">
<ele>341.4</ele>
<time>2024-05-07T09:25:09Z</time>
</trkpt>
<trkpt lat="48.816257463768125" lon="9.867710089311004">
<ele>341.4</ele>
<time>2024-05-07T09:25:10Z</time>
</trkpt>
<trkpt lat="48.81628411822021" lon="9.867670023813844">
<ele>341.8</ele>
<time>2024-05-07T09:25:11Z</time>
</trkpt>
<trkpt lat="48.81631085649133" lon="9.867628030478954">
<ele>342</ele>
<time>2024-05-07T09:25:12Z</time>
</trkpt>
<trkpt lat="48.816333739086986" lon="9.867587042972444">
<ele>342.4</ele>
<time>2024-05-07T09:25:13Z</time>
</trkpt>
<trkpt lat="48.81636039353907" lon="9.867547983303666">
<ele>342.6</ele>
<time>2024-05-07T09:25:14Z</time>
</trkpt>
<trkpt lat="48.81638335995376" lon="9.867513617500665">
<ele>343</ele>
<time>2024-05-07T09:25:15Z</time>
</trkpt>
<trkpt lat="48.81641001440585" lon="9.86747832968831">
<ele>343.2</ele>
<time>2024-05-07T09:25:16Z</time>
</trkpt>
<trkpt lat="48.81644052453339" lon="9.867441114038227">
<ele>343.4</ele>
<time>2024-05-07T09:25:17Z</time>
</trkpt>
<trkpt lat="48.81646726280451" lon="9.867404904216528">
<ele>343.6</ele>
<time>2024-05-07T09:25:18Z</time>
</trkpt>
<trkpt lat="48.816493917256594" lon="9.867368694394829">
<ele>344</ele>
<time>2024-05-07T09:25:19Z</time>
</trkpt>
<trkpt lat="48.81652065552771" lon="9.867333406582476">
<ele>344.2</ele>
<time>2024-05-07T09:25:20Z</time>
</trkpt>
<trkpt lat="48.81654739379883" lon="9.86730189062655">
<ele>344.4</ele>
<time>2024-05-07T09:25:21Z</time>
</trkpt>
<trkpt lat="48.81657790392637" lon="9.867271380499004">
<ele>344.6</ele>
<time>2024-05-07T09:25:22Z</time>
</trkpt>
<trkpt lat="48.81660455837846" lon="9.867239948362112">
<ele>345</ele>
<time>2024-05-07T09:25:23Z</time>
</trkpt>
<trkpt lat="48.816631296649575" lon="9.867210360243917">
<ele>345.2</ele>
<time>2024-05-07T09:25:24Z</time>
</trkpt>
<trkpt lat="48.81665795110166" lon="9.867181777954102">
<ele>345.4</ele>
<time>2024-05-07T09:25:25Z</time>
</trkpt>
<trkpt lat="48.816688461229205" lon="9.867153111845257">
<ele>345.6</ele>
<time>2024-05-07T09:25:26Z</time>
</trkpt>
<trkpt lat="48.81671519950032" lon="9.86712645739317">
<ele>346</ele>
<time>2024-05-07T09:25:27Z</time>
</trkpt>
<trkpt lat="48.81674570962787" lon="9.867103574797513">
<ele>346.2</ele>
<time>2024-05-07T09:25:28Z</time>
</trkpt>
<trkpt lat="48.81677621975541" lon="9.867081614211202">
<ele>346.6</ele>
<time>2024-05-07T09:25:29Z</time>
</trkpt>
<trkpt lat="48.81680672988296" lon="9.867058731615543">
<ele>346.8</ele>
<time>2024-05-07T09:25:30Z</time>
</trkpt>
<trkpt lat="48.8168372400105" lon="9.867036771029234">
<ele>347</ele>
<time>2024-05-07T09:25:31Z</time>
</trkpt>
<trkpt lat="48.8168716058135" lon="9.867018666118383">
<ele>347.2</ele>
<time>2024-05-07T09:25:32Z</time>
</trkpt>
<trkpt lat="48.81690211594105" lon="9.866998633369803">
<ele>347.6</ele>
<time>2024-05-07T09:25:33Z</time>
</trkpt>
<trkpt lat="48.81693648174405" lon="9.866978600621223">
<ele>348</ele>
<time>2024-05-07T09:25:34Z</time>
</trkpt>
<trkpt lat="48.81696313619614" lon="9.866959489881992">
<ele>348.2</ele>
<time>2024-05-07T09:25:35Z</time>
</trkpt>
<trkpt lat="48.81699750199914" lon="9.866939540952444">
<ele>348.6</ele>
<time>2024-05-07T09:25:36Z</time>
</trkpt>
<trkpt lat="48.81703178398311" lon="9.866921352222562">
<ele>348.8</ele>
<time>2024-05-07T09:25:37Z</time>
</trkpt>
<trkpt lat="48.817066149786115" lon="9.86690517514944">
<ele>349.2</ele>
<time>2024-05-07T09:25:38Z</time>
</trkpt>
<trkpt lat="48.81709665991366" lon="9.86688707023859">
<ele>349.4</ele>
<time>2024-05-07T09:25:39Z</time>
</trkpt>
<trkpt lat="48.81713102571666" lon="9.86686795949936">
<ele>349.8</ele>
<time>2024-05-07T09:25:40Z</time>
</trkpt>
<trkpt lat="48.817165307700634" lon="9.866849854588509">
<ele>350</ele>
<time>2024-05-07T09:25:41Z</time>
</trkpt>
<trkpt lat="48.81719967350364" lon="9.866833677515388">
<ele>350.2</ele>
<time>2024-05-07T09:25:42Z</time>
</trkpt>
<trkpt lat="48.81723403930664" lon="9.866816494613886">
<ele>350.4</ele>
<time>2024-05-07T09:25:43Z</time>
</trkpt>
<trkpt lat="48.81726832129061" lon="9.866801239550114">
<ele>350.8</ele>
<time>2024-05-07T09:25:44Z</time>
</trkpt>
<trkpt lat="48.817302687093616" lon="9.86678690649569">
<ele>351</ele>
<time>2024-05-07T09:25:45Z</time>
</trkpt>
<trkpt lat="48.81733319722116" lon="9.866771651431918">
<ele>351.2</ele>
<time>2024-05-07T09:25:46Z</time>
</trkpt>
<trkpt lat="48.81737133488059" lon="9.866754468530416">
<ele>351.4</ele>
<time>2024-05-07T09:25:47Z</time>
</trkpt>
<trkpt lat="48.817405700683594" lon="9.866736363619566">
<ele>351.6</ele>
<time>2024-05-07T09:25:48Z</time>
</trkpt>
<trkpt lat="48.817439982667565" lon="9.866718258708715">
<ele>351.8</ele>
<time>2024-05-07T09:25:49Z</time>
</trkpt>
<trkpt lat="48.81747049279511" lon="9.866700153797863">
<ele>352</ele>
<time>2024-05-07T09:25:50Z</time>
</trkpt>
<trkpt lat="48.81750485859811" lon="9.866682970896363">
<ele>352</ele>
<time>2024-05-07T09:25:51Z</time>
</trkpt>
<trkpt lat="48.817539140582085" lon="9.866666793823242">
<ele>352.2</ele>
<time>2024-05-07T09:25:52Z</time>
</trkpt>
<trkpt lat="48.81756965070963" lon="9.866651454940438">
<ele>352.4</ele>
<time>2024-05-07T09:25:53Z</time>
</trkpt>
<trkpt lat="48.817600244656205" lon="9.866635277867315">
<ele>352.4</ele>
<time>2024-05-07T09:25:54Z</time>
</trkpt>
<trkpt lat="48.81763452664018" lon="9.866616167128086">
<ele>352.6</ele>
<time>2024-05-07T09:25:55Z</time>
</trkpt>
<trkpt lat="48.81766503676772" lon="9.866599990054963">
<ele>352.6</ele>
<time>2024-05-07T09:25:56Z</time>
</trkpt>
<trkpt lat="48.81769177503884" lon="9.866586662828922">
<ele>352.6</ele>
<time>2024-05-07T09:25:57Z</time>
</trkpt>
<trkpt lat="48.81772228516638" lon="9.866566630080342">
<ele>352.8</ele>
<time>2024-05-07T09:25:58Z</time>
</trkpt>
<trkpt lat="48.817756650969386" lon="9.866543747484684">
<ele>352.8</ele>
<time>2024-05-07T09:25:59Z</time>
</trkpt>
<trkpt lat="48.81778716109693" lon="9.866519859060643">
<ele>352.8</ele>
<time>2024-05-07T09:26:00Z</time>
</trkpt>
<trkpt lat="48.8178214430809" lon="9.866497982293367">
<ele>353</ele>
<time>2024-05-07T09:26:01Z</time>
</trkpt>
<trkpt lat="48.817855808883905" lon="9.866477949544787">
<ele>353.2</ele>
<time>2024-05-07T09:26:02Z</time>
</trkpt>
<trkpt lat="48.81789009086788" lon="9.866463616490364">
<ele>353.4</ele>
<time>2024-05-07T09:26:03Z</time>
</trkpt>
<trkpt lat="48.81792831234634" lon="9.866446433588862">
<ele>353.6</ele>
<time>2024-05-07T09:26:04Z</time>
</trkpt>
<trkpt lat="48.81796645000577" lon="9.866428328678012">
<ele>353.8</ele>
<time>2024-05-07T09:26:05Z</time>
</trkpt>
<trkpt lat="48.81800073198974" lon="9.866408295929432">
<ele>354</ele>
<time>2024-05-07T09:26:06Z</time>
</trkpt>
<trkpt lat="48.81803886964917" lon="9.86639019101858">
<ele>354.2</ele>
<time>2024-05-07T09:26:07Z</time>
</trkpt>
<trkpt lat="48.818073235452175" lon="9.86637208610773">
<ele>354.2</ele>
<time>2024-05-07T09:26:08Z</time>
</trkpt>
<trkpt lat="48.818111373111606" lon="9.86635490320623">
<ele>354.4</ele>
<time>2024-05-07T09:26:09Z</time>
</trkpt>
<trkpt lat="48.81814573891461" lon="9.86633679829538">
<ele>354.4</ele>
<time>2024-05-07T09:26:10Z</time>
</trkpt>
<trkpt lat="48.81818002089858" lon="9.866319615393875">
<ele>354.6</ele>
<time>2024-05-07T09:26:11Z</time>
</trkpt>
<trkpt lat="48.81821815855801" lon="9.866303438320756">
<ele>354.6</ele>
<time>2024-05-07T09:26:12Z</time>
</trkpt>
<trkpt lat="48.81825629621744" lon="9.866283405572176">
<ele>354.6</ele>
<time>2024-05-07T09:26:13Z</time>
</trkpt>
<trkpt lat="48.818290662020445" lon="9.866263372823596">
<ele>354.6</ele>
<time>2024-05-07T09:26:14Z</time>
</trkpt>
<trkpt lat="48.81832117214799" lon="9.866239484399555">
<ele>354.8</ele>
<time>2024-05-07T09:26:15Z</time>
</trkpt>
<trkpt lat="48.818351682275534" lon="9.866218529641628">
<ele>354.8</ele>
<time>2024-05-07T09:26:16Z</time>
</trkpt>
<trkpt lat="48.81838604807854" lon="9.86619472503662">
<ele>355</ele>
<time>2024-05-07T09:26:17Z</time>
</trkpt>
<trkpt lat="48.81841655820608" lon="9.86617368645966">
<ele>355.2</ele>
<time>2024-05-07T09:26:18Z</time>
</trkpt>
<trkpt lat="48.8184432964772" lon="9.866141248494388">
<ele>355.2</ele>
<time>2024-05-07T09:26:19Z</time>
</trkpt>
<trkpt lat="48.81846995092928" lon="9.866098333150148">
<ele>355.4</ele>
<time>2024-05-07T09:26:20Z</time>
</trkpt>
<trkpt lat="48.81849283352494" lon="9.866048796102405">
<ele>355.4</ele>
<time>2024-05-07T09:26:21Z</time>
</trkpt>
<trkpt lat="48.81850431673229" lon="9.86599632538855">
<ele>355.4</ele>
<time>2024-05-07T09:26:22Z</time>
</trkpt>
<trkpt lat="48.8185157161206" lon="9.865942932665348">
<ele>355.6</ele>
<time>2024-05-07T09:26:23Z</time>
</trkpt>
<trkpt lat="48.818527199327946" lon="9.865895239636302">
<ele>355.6</ele>
<time>2024-05-07T09:26:24Z</time>
</trkpt>
<trkpt lat="48.81853482685983" lon="9.865848468616605">
<ele>355.6</ele>
<time>2024-05-07T09:26:25Z</time>
</trkpt>
<trkpt lat="48.818546226248145" lon="9.865803709253669">
<ele>355.8</ele>
<time>2024-05-07T09:26:26Z</time>
</trkpt>
<trkpt lat="48.81856148131192" lon="9.86576171591878">
<ele>355.8</ele>
<time>2024-05-07T09:26:27Z</time>
</trkpt>
<trkpt lat="48.81857673637569" lon="9.865723578259349">
<ele>356</ele>
<time>2024-05-07T09:26:28Z</time>
</trkpt>
<trkpt lat="48.81859961897135" lon="9.865688290446997">
<ele>356.2</ele>
<time>2024-05-07T09:26:29Z</time>
</trkpt>
<trkpt lat="48.81861495785415" lon="9.865652080625296">
<ele>356.6</ele>
<time>2024-05-07T09:26:30Z</time>
</trkpt>
<trkpt lat="48.81863784044981" lon="9.86561863683164">
<ele>356.8</ele>
<time>2024-05-07T09:26:31Z</time>
</trkpt>
<trkpt lat="48.81866072304547" lon="9.865583349019287">
<ele>357</ele>
<time>2024-05-07T09:26:32Z</time>
</trkpt>
<trkpt lat="48.81867974996567" lon="9.865549989044666">
<ele>357.2</ele>
<time>2024-05-07T09:26:33Z</time>
</trkpt>
<trkpt lat="48.8186988607049" lon="9.865514701232314">
<ele>357.4</ele>
<time>2024-05-07T09:26:34Z</time>
</trkpt>
<trkpt lat="48.8187178876251" lon="9.865480419248344">
<ele>357.6</ele>
<time>2024-05-07T09:26:35Z</time>
</trkpt>
<trkpt lat="48.81873699836433" lon="9.865446975454688">
<ele>357.8</ele>
<time>2024-05-07T09:26:36Z</time>
</trkpt>
<trkpt lat="48.81875602528453" lon="9.865413615480064">
<ele>358</ele>
<time>2024-05-07T09:26:37Z</time>
</trkpt>
<trkpt lat="48.81877513602376" lon="9.865380255505444">
<ele>358.4</ele>
<time>2024-05-07T09:26:38Z</time>
</trkpt>
<trkpt lat="48.81879424676299" lon="9.86534689553082">
<ele>358.6</ele>
<time>2024-05-07T09:26:39Z</time>
</trkpt>
<trkpt lat="48.81881327368319" lon="9.865313451737164">
<ele>358.8</ele>
<time>2024-05-07T09:26:40Z</time>
</trkpt>
<trkpt lat="48.81883615627885" lon="9.865282019600272">
<ele>359</ele>
<time>2024-05-07T09:26:41Z</time>
</trkpt>
<trkpt lat="48.81885903887451" lon="9.86524865962565">
<ele>359.2</ele>
<time>2024-05-07T09:26:42Z</time>
</trkpt>
<trkpt lat="48.81887814961374" lon="9.865215299651029">
<ele>359.6</ele>
<time>2024-05-07T09:26:43Z</time>
</trkpt>
<trkpt lat="48.81890103220939" lon="9.865180011838676">
<ele>359.8</ele>
<time>2024-05-07T09:26:44Z</time>
</trkpt>
<trkpt lat="48.8189200591296" lon="9.865143718197942">
<ele>360</ele>
<time>2024-05-07T09:26:45Z</time>
</trkpt>
<trkpt lat="48.81893916986883" lon="9.86510843038559">
<ele>360.2</ele>
<time>2024-05-07T09:26:46Z</time>
</trkpt>
<trkpt lat="48.81895828060806" lon="9.865075070410969">
<ele>360.4</ele>
<time>2024-05-07T09:26:47Z</time>
</trkpt>
<trkpt lat="48.81897730752826" lon="9.865043638274074">
<ele>360.6</ele>
<time>2024-05-07T09:26:48Z</time>
</trkpt>
<trkpt lat="48.81900019012392" lon="9.8650112003088">
<ele>361</ele>
<time>2024-05-07T09:26:49Z</time>
</trkpt>
<trkpt lat="48.81901544518769" lon="9.864979684352877">
<ele>361.4</ele>
<time>2024-05-07T09:26:50Z</time>
</trkpt>
<trkpt lat="48.81903455592692" lon="9.864945402368903">
<ele>361.6</ele>
<time>2024-05-07T09:26:51Z</time>
</trkpt>
<trkpt lat="48.81904981099069" lon="9.864908186718822">
<ele>362</ele>
<time>2024-05-07T09:26:52Z</time>
</trkpt>
<trkpt lat="48.81906883791089" lon="9.8648748267442">
<ele>362.2</ele>
<time>2024-05-07T09:26:53Z</time>
</trkpt>
<trkpt lat="48.81908794865012" lon="9.864839538931848">
<ele>362.4</ele>
<time>2024-05-07T09:26:54Z</time>
</trkpt>
<trkpt lat="48.819103203713894" lon="9.864809950813653">
<ele>362.8</ele>
<time>2024-05-07T09:26:55Z</time>
</trkpt>
<trkpt lat="48.81912608630955" lon="9.864783212542534">
<ele>363</ele>
<time>2024-05-07T09:26:56Z</time>
</trkpt>
<trkpt lat="48.81914519704878" lon="9.864758485928178">
<ele>363.2</ele>
<time>2024-05-07T09:26:57Z</time>
</trkpt>
<trkpt lat="48.81916422396898" lon="9.86473174765706">
<ele>363.4</ele>
<time>2024-05-07T09:26:58Z</time>
</trkpt>
<trkpt lat="48.819183334708214" lon="9.864705009385943">
<ele>363.6</ele>
<time>2024-05-07T09:26:59Z</time>
</trkpt>
<trkpt lat="48.819198589771986" lon="9.864666871726511">
<ele>364</ele>
<time>2024-05-07T09:27:00Z</time>
</trkpt>
<trkpt lat="48.819217616692185" lon="9.864627812057734">
<ele>364.2</ele>
<time>2024-05-07T09:27:01Z</time>
</trkpt>
<trkpt lat="48.81923672743142" lon="9.86459344625473">
<ele>364.4</ele>
<time>2024-05-07T09:27:02Z</time>
</trkpt>
<trkpt lat="48.819259610027075" lon="9.864562936127186">
<ele>364.6</ele>
<time>2024-05-07T09:27:03Z</time>
</trkpt>
<trkpt lat="48.81928249262273" lon="9.864531503990293">
<ele>364.8</ele>
<time>2024-05-07T09:27:04Z</time>
</trkpt>
<trkpt lat="48.81930160336197" lon="9.864499988034368">
<ele>365</ele>
<time>2024-05-07T09:27:05Z</time>
</trkpt>
<trkpt lat="48.81932063028216" lon="9.864471405744553">
<ele>365.4</ele>
<time>2024-05-07T09:27:06Z</time>
</trkpt>
<trkpt lat="48.819335885345936" lon="9.864446595311165">
<ele>365.6</ele>
<time>2024-05-07T09:27:07Z</time>
</trkpt>
<trkpt lat="48.81935114040971" lon="9.864421784877775">
<ele>365.8</ele>
<time>2024-05-07T09:27:08Z</time>
</trkpt>
<trkpt lat="48.819374023005366" lon="9.864386497065423">
<ele>366</ele>
<time>2024-05-07T09:27:09Z</time>
</trkpt>
<trkpt lat="48.8193931337446" lon="9.86435984261334">
<ele>366.4</ele>
<time>2024-05-07T09:27:10Z</time>
</trkpt>
<trkpt lat="48.81941978819668" lon="9.864335032179952">
<ele>366.8</ele>
<time>2024-05-07T09:27:11Z</time>
</trkpt>
<trkpt lat="48.8194465264678" lon="9.864314999431372">
<ele>367</ele>
<time>2024-05-07T09:27:12Z</time>
</trkpt>
<trkpt lat="48.81947326473892" lon="9.86429781652987">
<ele>367.4</ele>
<time>2024-05-07T09:27:13Z</time>
</trkpt>
<trkpt lat="48.819499919191" lon="9.86427878960967">
<ele>367.6</ele>
<time>2024-05-07T09:27:14Z</time>
</trkpt>
<trkpt lat="48.81952665746212" lon="9.864261606708167">
<ele>368</ele>
<time>2024-05-07T09:27:15Z</time>
</trkpt>
<trkpt lat="48.81956093944609" lon="9.864246351644397">
<ele>368.2</ele>
<time>2024-05-07T09:27:16Z</time>
</trkpt>
<trkpt lat="48.81958767771721" lon="9.864226318895817">
<ele>368.4</ele>
<time>2024-05-07T09:27:17Z</time>
</trkpt>
<trkpt lat="48.81961056031287" lon="9.8642167635262">
<ele>368.6</ele>
<time>2024-05-07T09:27:18Z</time>
</trkpt>
<trkpt lat="48.81964107044041" lon="9.864192958921194">
<ele>369</ele>
<time>2024-05-07T09:27:19Z</time>
</trkpt>
<trkpt lat="48.819675436243415" lon="9.864174770191312">
<ele>369.2</ele>
<time>2024-05-07T09:27:20Z</time>
</trkpt>
<trkpt lat="48.81970594637096" lon="9.86415666528046">
<ele>369.4</ele>
<time>2024-05-07T09:27:21Z</time>
</trkpt>
<trkpt lat="48.819736456498504" lon="9.86413856036961">
<ele>369.6</ele>
<time>2024-05-07T09:27:22Z</time>
</trkpt>
<trkpt lat="48.81976311095059" lon="9.86412045545876">
<ele>369.8</ele>
<time>2024-05-07T09:27:23Z</time>
</trkpt>
<trkpt lat="48.81979747675359" lon="9.86410134471953">
<ele>370</ele>
<time>2024-05-07T09:27:24Z</time>
</trkpt>
<trkpt lat="48.81982798688114" lon="9.864088017493486">
<ele>370.2</ele>
<time>2024-05-07T09:27:25Z</time>
</trkpt>
<trkpt lat="48.81985849700868" lon="9.864071840420364">
<ele>370.4</ele>
<time>2024-05-07T09:27:26Z</time>
</trkpt>
<trkpt lat="48.8198852352798" lon="9.864053651690485">
<ele>370.6</ele>
<time>2024-05-07T09:27:27Z</time>
</trkpt>
<trkpt lat="48.81991574540734" lon="9.864036552608011">
<ele>370.8</ele>
<time>2024-05-07T09:27:28Z</time>
</trkpt>
<trkpt lat="48.81994239985943" lon="9.86402029171586">
<ele>371</ele>
<time>2024-05-07T09:27:29Z</time>
</trkpt>
<trkpt lat="48.819969138130546" lon="9.86400126479566">
<ele>371.4</ele>
<time>2024-05-07T09:27:30Z</time>
</trkpt>
<trkpt lat="48.81998824886978" lon="9.86398123204708">
<ele>371.6</ele>
<time>2024-05-07T09:27:31Z</time>
</trkpt>
<trkpt lat="48.82001875899732" lon="9.863964971154928">
<ele>371.6</ele>
<time>2024-05-07T09:27:32Z</time>
</trkpt>
<trkpt lat="48.820049269124866" lon="9.863954493775964">
<ele>371.8</ele>
<time>2024-05-07T09:27:33Z</time>
</trkpt>
<trkpt lat="48.82007977925241" lon="9.863946866244078">
<ele>372</ele>
<time>2024-05-07T09:27:34Z</time>
</trkpt>
<trkpt lat="48.820110289379954" lon="9.863936388865111">
<ele>372.2</ele>
<time>2024-05-07T09:27:35Z</time>
</trkpt>
<trkpt lat="48.82013694383204" lon="9.86392205581069">
<ele>372.2</ele>
<time>2024-05-07T09:27:36Z</time>
</trkpt>
<trkpt lat="48.820167537778616" lon="9.863909650593996">
<ele>372.4</ele>
<time>2024-05-07T09:27:37Z</time>
</trkpt>
<trkpt lat="48.8201941922307" lon="9.863896323367952">
<ele>372.6</ele>
<time>2024-05-07T09:27:38Z</time>
</trkpt>
<trkpt lat="48.820224702358246" lon="9.86388492397964">
<ele>372.6</ele>
<time>2024-05-07T09:27:39Z</time>
</trkpt>
<trkpt lat="48.82025144062936" lon="9.863871512934566">
<ele>372.8</ele>
<time>2024-05-07T09:27:40Z</time>
</trkpt>
<trkpt lat="48.82027809508145" lon="9.863856257870792">
<ele>373</ele>
<time>2024-05-07T09:27:41Z</time>
</trkpt>
<trkpt lat="48.82030860520899" lon="9.863838152959945">
<ele>373.2</ele>
<time>2024-05-07T09:27:42Z</time>
</trkpt>
<trkpt lat="48.82033919915557" lon="9.863821975886822">
<ele>373.4</ele>
<time>2024-05-07T09:27:43Z</time>
</trkpt>
<trkpt lat="48.820365853607655" lon="9.86380479298532">
<ele>373.6</ele>
<time>2024-05-07T09:27:44Z</time>
</trkpt>
<trkpt lat="48.8203963637352" lon="9.863788532093167">
<ele>373.8</ele>
<time>2024-05-07T09:27:45Z</time>
</trkpt>
<trkpt lat="48.82042310200632" lon="9.863771433010696">
<ele>374.2</ele>
<time>2024-05-07T09:27:46Z</time>
</trkpt>
<trkpt lat="48.82045361213386" lon="9.863753244280815">
<ele>374.4</ele>
<time>2024-05-07T09:27:47Z</time>
</trkpt>
<trkpt lat="48.820484122261405" lon="9.863737067207694">
<ele>374.6</ele>
<time>2024-05-07T09:27:48Z</time>
</trkpt>
<trkpt lat="48.82051086053252" lon="9.863719884306192">
<ele>374.8</ele>
<time>2024-05-07T09:27:49Z</time>
</trkpt>
<trkpt lat="48.82053751498461" lon="9.86370462924242">
<ele>375</ele>
<time>2024-05-07T09:27:50Z</time>
</trkpt>
<trkpt lat="48.820564253255725" lon="9.863690296187997">
<ele>375.2</ele>
<time>2024-05-07T09:27:51Z</time>
</trkpt>
<trkpt lat="48.82058713585138" lon="9.863676968961954">
<ele>375.6</ele>
<time>2024-05-07T09:27:52Z</time>
</trkpt>
<trkpt lat="48.82061379030347" lon="9.863661713898182">
<ele>375.8</ele>
<time>2024-05-07T09:27:53Z</time>
</trkpt>
<trkpt lat="48.820640528574586" lon="9.86364645883441">
<ele>375.8</ele>
<time>2024-05-07T09:27:54Z</time>
</trkpt>
<trkpt lat="48.82067103870213" lon="9.863633131608369">
<ele>376</ele>
<time>2024-05-07T09:27:55Z</time>
</trkpt>
<trkpt lat="48.820701548829675" lon="9.863621648401022">
<ele>376.2</ele>
<time>2024-05-07T09:27:56Z</time>
</trkpt>
<trkpt lat="48.82073591463268" lon="9.863611171022058">
<ele>376.4</ele>
<time>2024-05-07T09:27:57Z</time>
</trkpt>
<trkpt lat="48.82077019661665" lon="9.86360639333725">
<ele>376.6</ele>
<time>2024-05-07T09:27:58Z</time>
</trkpt>
<trkpt lat="48.820800706744194" lon="9.863601615652442">
<ele>376.8</ele>
<time>2024-05-07T09:27:59Z</time>
</trkpt>
<trkpt lat="48.82083121687174" lon="9.863599771633744">
<ele>377</ele>
<time>2024-05-07T09:28:00Z</time>
</trkpt>
<trkpt lat="48.820861810818315" lon="9.863603543490171">
<ele>377.2</ele>
<time>2024-05-07T09:28:01Z</time>
</trkpt>
<trkpt lat="48.82089232094586" lon="9.86360639333725">
<ele>377.2</ele>
<time>2024-05-07T09:28:02Z</time>
</trkpt>
<trkpt lat="48.82092660292983" lon="9.863611171022058">
<ele>377.4</ele>
<time>2024-05-07T09:28:03Z</time>
</trkpt>
<trkpt lat="48.82095334120095" lon="9.863619804382324">
<ele>377.6</ele>
<time>2024-05-07T09:28:04Z</time>
</trkpt>
<trkpt lat="48.82098762318492" lon="9.86362835392356">
<ele>377.8</ele>
<time>2024-05-07T09:28:05Z</time>
</trkpt>
<trkpt lat="48.821018217131495" lon="9.863635059446096">
<ele>378</ele>
<time>2024-05-07T09:28:06Z</time>
</trkpt>
<trkpt lat="48.82105249911547" lon="9.863637909293177">
<ele>378.2</ele>
<time>2024-05-07T09:28:07Z</time>
</trkpt>
<trkpt lat="48.82108300924301" lon="9.863636903464794">
<ele>378.4</ele>
<time>2024-05-07T09:28:08Z</time>
</trkpt>
<trkpt lat="48.82111351937056" lon="9.863631203770638">
<ele>378.6</ele>
<time>2024-05-07T09:28:09Z</time>
</trkpt>
<trkpt lat="48.82114788517356" lon="9.863616870716214">
<ele>378.6</ele>
<time>2024-05-07T09:28:10Z</time>
</trkpt>
<trkpt lat="48.821174539625645" lon="9.863593066111209">
<ele>378.8</ele>
<time>2024-05-07T09:28:11Z</time>
</trkpt>
<trkpt lat="48.82120127789676" lon="9.863563477993011">
<ele>379</ele>
<time>2024-05-07T09:28:12Z</time>
</trkpt>
<trkpt lat="48.82122416049242" lon="9.863530118018389">
<ele>379.2</ele>
<time>2024-05-07T09:28:13Z</time>
</trkpt>
<trkpt lat="48.82123941555619" lon="9.863490052521229">
<ele>379.4</ele>
<time>2024-05-07T09:28:14Z</time>
</trkpt>
<trkpt lat="48.82125089876354" lon="9.863443365320563">
<ele>379.6</ele>
<time>2024-05-07T09:28:15Z</time>
</trkpt>
<trkpt lat="48.821254670619965" lon="9.863396594300866">
<ele>379.6</ele>
<time>2024-05-07T09:28:16Z</time>
</trkpt>
<trkpt lat="48.82125089876354" lon="9.8633499071002">
<ele>379.8</ele>
<time>2024-05-07T09:28:17Z</time>
</trkpt>
<trkpt lat="48.82123941555619" lon="9.863305063918231">
<ele>380</ele>
<time>2024-05-07T09:28:18Z</time>
</trkpt>
<trkpt lat="48.821231788024306" lon="9.863261142745614">
<ele>380.2</ele>
<time>2024-05-07T09:28:19Z</time>
</trkpt>
<trkpt lat="48.82122038863599" lon="9.863223005086184">
<ele>380.6</ele>
<time>2024-05-07T09:28:20Z</time>
</trkpt>
<trkpt lat="48.821197506040335" lon="9.863196350634098">
<ele>380.6</ele>
<time>2024-05-07T09:28:21Z</time>
</trkpt>
<trkpt lat="48.821174539625645" lon="9.86317154020071">
<ele>380.8</ele>
<time>2024-05-07T09:28:22Z</time>
</trkpt>
<trkpt lat="48.821151657029986" lon="9.86315536312759">
<ele>381</ele>
<time>2024-05-07T09:28:23Z</time>
</trkpt>
<trkpt lat="48.821136401966214" lon="9.863146729767324">
<ele>381.2</ele>
<time>2024-05-07T09:28:24Z</time>
</trkpt>
<trkpt lat="48.82110974751413" lon="9.8631495796144">
<ele>381.4</ele>
<time>2024-05-07T09:28:25Z</time>
</trkpt>
<trkpt lat="48.821079237386584" lon="9.863158212974668">
<ele>381.6</ele>
<time>2024-05-07T09:28:26Z</time>
</trkpt>
<trkpt lat="48.82104487158358" lon="9.863164834678171">
<ele>381.8</ele>
<time>2024-05-07T09:28:27Z</time>
</trkpt>
<trkpt lat="48.82100673392415" lon="9.86316961236298">
<ele>382</ele>
<time>2024-05-07T09:28:28Z</time>
</trkpt>
<trkpt lat="48.82096474058926" lon="9.863180089741943">
<ele>382.2</ele>
<time>2024-05-07T09:28:29Z</time>
</trkpt>
<trkpt lat="48.82093045860529" lon="9.863184867426751">
<ele>382.4</ele>
<time>2024-05-07T09:28:30Z</time>
</trkpt>
<trkpt lat="48.8208884652704" lon="9.86319350078702">
<ele>382.6</ele>
<time>2024-05-07T09:28:31Z</time>
</trkpt>
<trkpt lat="48.82085032761097" lon="9.863198278471828">
<ele>382.8</ele>
<time>2024-05-07T09:28:32Z</time>
</trkpt>
<trkpt lat="48.82081218995154" lon="9.863204900175331">
<ele>383</ele>
<time>2024-05-07T09:28:33Z</time>
</trkpt>
<trkpt lat="48.820777824148536" lon="9.863206828013062">
<ele>383.2</ele>
<time>2024-05-07T09:28:34Z</time>
</trkpt>
<trkpt lat="48.82074354216456" lon="9.863208755850792">
<ele>383.4</ele>
<time>2024-05-07T09:28:35Z</time>
</trkpt>
<trkpt lat="48.820705404505134" lon="9.86320967786014">
<ele>383.4</ele>
<time>2024-05-07T09:28:36Z</time>
</trkpt>
<trkpt lat="48.82067103870213" lon="9.86321160569787">
<ele>383.6</ele>
<time>2024-05-07T09:28:37Z</time>
</trkpt>
<trkpt lat="48.82063667289913" lon="9.86321160569787">
<ele>384</ele>
<time>2024-05-07T09:28:38Z</time>
</trkpt>
<trkpt lat="48.820602390915155" lon="9.86320967786014">
<ele>384.2</ele>
<time>2024-05-07T09:28:39Z</time>
</trkpt>
<trkpt lat="48.82057188078761" lon="9.863204900175331">
<ele>384.2</ele>
<time>2024-05-07T09:28:40Z</time>
</trkpt>
<trkpt lat="48.82054137066007" lon="9.863200122490523">
<ele>384.4</ele>
<time>2024-05-07T09:28:41Z</time>
</trkpt>
<trkpt lat="48.82051086053252" lon="9.863196350634098">
<ele>384.6</ele>
<time>2024-05-07T09:28:42Z</time>
</trkpt>
<trkpt lat="48.82048789411783" lon="9.86319350078702">
<ele>384.6</ele>
<time>2024-05-07T09:28:43Z</time>
</trkpt>
<trkpt lat="48.82045738399029" lon="9.863184867426751">
<ele>384.8</ele>
<time>2024-05-07T09:28:44Z</time>
</trkpt>
<trkpt lat="48.82042310200632" lon="9.863175312057136">
<ele>385</ele>
<time>2024-05-07T09:28:45Z</time>
</trkpt>
<trkpt lat="48.8203963637352" lon="9.86316961236298">
<ele>385</ele>
<time>2024-05-07T09:28:46Z</time>
</trkpt>
<trkpt lat="48.820365853607655" lon="9.863164834678171">
<ele>385.2</ele>
<time>2024-05-07T09:28:47Z</time>
</trkpt>
<trkpt lat="48.82033157162368" lon="9.863164834678171">
<ele>385.4</ele>
<time>2024-05-07T09:28:48Z</time>
</trkpt>
<trkpt lat="48.820304833352566" lon="9.863160056993364">
<ele>385.8</ele>
<time>2024-05-07T09:28:49Z</time>
</trkpt>
<trkpt lat="48.82027809508145" lon="9.863156285136938">
<ele>386</ele>
<time>2024-05-07T09:28:50Z</time>
</trkpt>
<trkpt lat="48.82025521248579" lon="9.8631495796144">
<ele>386.2</ele>
<time>2024-05-07T09:28:51Z</time>
</trkpt>
<trkpt lat="48.82023232989013" lon="9.863144801929591">
<ele>386.4</ele>
<time>2024-05-07T09:28:52Z</time>
</trkpt>
<trkpt lat="48.82021330296993" lon="9.863141952082517">
<ele>386.6</ele>
<time>2024-05-07T09:28:53Z</time>
</trkpt>
<trkpt lat="48.820186564698815" lon="9.863140024244784">
<ele>386.6</ele>
<time>2024-05-07T09:28:54Z</time>
</trkpt>
<trkpt lat="48.82015991024673" lon="9.86313533037901">
<ele>386.8</ele>
<time>2024-05-07T09:28:55Z</time>
</trkpt>
<trkpt lat="48.82013317197561" lon="9.863126697018744">
<ele>387.2</ele>
<time>2024-05-07T09:28:56Z</time>
</trkpt>
<trkpt lat="48.82010266184807" lon="9.8631133697927">
<ele>387.4</ele>
<time>2024-05-07T09:28:57Z</time>
</trkpt>
<trkpt lat="48.820068296045065" lon="9.86311144195497">
<ele>387.6</ele>
<time>2024-05-07T09:28:58Z</time>
</trkpt>
<trkpt lat="48.820030158385634" lon="9.863104820251465">
<ele>387.8</ele>
<time>2024-05-07T09:28:59Z</time>
</trkpt>
<trkpt lat="48.81999964825809" lon="9.86309333704412">
<ele>388</ele>
<time>2024-05-07T09:29:00Z</time>
</trkpt>
<trkpt lat="48.81996528245509" lon="9.863078081980348">
<ele>388.4</ele>
<time>2024-05-07T09:29:01Z</time>
</trkpt>
<trkpt lat="48.819938628003" lon="9.863064754754305">
<ele>388.6</ele>
<time>2024-05-07T09:29:02Z</time>
</trkpt>
<trkpt lat="48.81990811787546" lon="9.863046566024424">
<ele>388.8</ele>
<time>2024-05-07T09:29:03Z</time>
</trkpt>
<trkpt lat="48.81988137960434" lon="9.863028461113572">
<ele>389</ele>
<time>2024-05-07T09:29:04Z</time>
</trkpt>
<trkpt lat="48.819854725152254" lon="9.863006584346294">
<ele>389.2</ele>
<time>2024-05-07T09:29:05Z</time>
</trkpt>
<trkpt lat="48.81982798688114" lon="9.862983701750636">
<ele>389.6</ele>
<time>2024-05-07T09:29:06Z</time>
</trkpt>
<trkpt lat="48.81980124861002" lon="9.862959813326595">
<ele>389.8</ele>
<time>2024-05-07T09:29:07Z</time>
</trkpt>
<trkpt lat="48.819774594157934" lon="9.86293693073094">
<ele>390</ele>
<time>2024-05-07T09:29:08Z</time>
</trkpt>
<trkpt lat="48.81974785588682" lon="9.862908348441124">
<ele>390.2</ele>
<time>2024-05-07T09:29:09Z</time>
</trkpt>
<trkpt lat="48.81972120143473" lon="9.862879682332276">
<ele>390.4</ele>
<time>2024-05-07T09:29:10Z</time>
</trkpt>
<trkpt lat="48.81969831883907" lon="9.862852022051811">
<ele>390.6</ele>
<time>2024-05-07T09:29:11Z</time>
</trkpt>
<trkpt lat="48.81967158056795" lon="9.862821511924269">
<ele>391</ele>
<time>2024-05-07T09:29:12Z</time>
</trkpt>
<trkpt lat="48.8196486979723" lon="9.862790079787374">
<ele>391.2</ele>
<time>2024-05-07T09:29:13Z</time>
</trkpt>
<trkpt lat="48.81962958723307" lon="9.86275671981275">
<ele>391.2</ele>
<time>2024-05-07T09:29:14Z</time>
</trkpt>
<trkpt lat="48.81961056031287" lon="9.862723276019096">
<ele>391.6</ele>
<time>2024-05-07T09:29:15Z</time>
</trkpt>
<trkpt lat="48.81959144957363" lon="9.862689916044474">
<ele>391.8</ele>
<time>2024-05-07T09:29:16Z</time>
</trkpt>
<trkpt lat="48.81956856697798" lon="9.862656556069853">
<ele>392</ele>
<time>2024-05-07T09:29:17Z</time>
</trkpt>
<trkpt lat="48.81954954005778" lon="9.86262034624815">
<ele>392.2</ele>
<time>2024-05-07T09:29:18Z</time>
</trkpt>
<trkpt lat="48.81953042931855" lon="9.862583130598068">
<ele>392.4</ele>
<time>2024-05-07T09:29:19Z</time>
</trkpt>
<trkpt lat="48.81951140239835" lon="9.862546920776367">
<ele>392.8</ele>
<time>2024-05-07T09:29:20Z</time>
</trkpt>
<trkpt lat="48.81948851980269" lon="9.862509705126286">
<ele>393</ele>
<time>2024-05-07T09:29:21Z</time>
</trkpt>
<trkpt lat="48.81947326473892" lon="9.862473411485553">
<ele>393.2</ele>
<time>2024-05-07T09:29:22Z</time>
</trkpt>
<trkpt lat="48.819454153999686" lon="9.862436279654505">
<ele>393.4</ele>
<time>2024-05-07T09:29:23Z</time>
</trkpt>
<trkpt lat="48.819435043260455" lon="9.86239998601377">
<ele>393.6</ele>
<time>2024-05-07T09:29:24Z</time>
</trkpt>
<trkpt lat="48.81941978819668" lon="9.862363776192067">
<ele>393.6</ele>
<time>2024-05-07T09:29:25Z</time>
</trkpt>
<trkpt lat="48.81940076127648" lon="9.862330416217446">
<ele>393.8</ele>
<time>2024-05-07T09:29:26Z</time>
</trkpt>
<trkpt lat="48.81938165053725" lon="9.862293200567365">
<ele>394</ele>
<time>2024-05-07T09:29:27Z</time>
</trkpt>
<trkpt lat="48.81936639547348" lon="9.862256990745664">
<ele>394.2</ele>
<time>2024-05-07T09:29:28Z</time>
</trkpt>
<trkpt lat="48.81935114040971" lon="9.862221702933311">
<ele>394.4</ele>
<time>2024-05-07T09:29:29Z</time>
</trkpt>
<trkpt lat="48.819339741021395" lon="9.86218356527388">
<ele>394.6</ele>
<time>2024-05-07T09:29:30Z</time>
</trkpt>
<trkpt lat="48.81932825781405" lon="9.862141571938992">
<ele>394.8</ele>
<time>2024-05-07T09:29:31Z</time>
</trkpt>
<trkpt lat="48.81932063028216" lon="9.862099578604102">
<ele>395</ele>
<time>2024-05-07T09:29:32Z</time>
</trkpt>
<trkpt lat="48.819316858425736" lon="9.862058591097592">
<ele>395.4</ele>
<time>2024-05-07T09:29:33Z</time>
</trkpt>
<trkpt lat="48.81932063028216" lon="9.862016597762704">
<ele>395.6</ele>
<time>2024-05-07T09:29:34Z</time>
</trkpt>
<trkpt lat="48.81932825781405" lon="9.861976616084576">
<ele>396</ele>
<time>2024-05-07T09:29:35Z</time>
</trkpt>
<trkpt lat="48.81934351287782" lon="9.86194702796638">
<ele>396.2</ele>
<time>2024-05-07T09:29:36Z</time>
</trkpt>
<trkpt lat="48.81936262361705" lon="9.86192506738007">
<ele>396.6</ele>
<time>2024-05-07T09:29:37Z</time>
</trkpt>
<trkpt lat="48.81938550621271" lon="9.86190696246922">
<ele>396.8</ele>
<time>2024-05-07T09:29:38Z</time>
</trkpt>
<trkpt lat="48.8194121606648" lon="9.861891707405448">
<ele>397</ele>
<time>2024-05-07T09:29:39Z</time>
</trkpt>
<trkpt lat="48.81944267079234" lon="9.861881230026484">
<ele>397.2</ele>
<time>2024-05-07T09:29:40Z</time>
</trkpt>
<trkpt lat="48.81947326473892" lon="9.86188500188291">
<ele>397.6</ele>
<time>2024-05-07T09:29:41Z</time>
</trkpt>
<trkpt lat="48.81950377486646" lon="9.861898412927983">
<ele>397.8</ele>
<time>2024-05-07T09:29:42Z</time>
</trkpt>
<trkpt lat="48.819534284994006" lon="9.861918445676563">
<ele>398</ele>
<time>2024-05-07T09:29:43Z</time>
</trkpt>
<trkpt lat="48.81956479512155" lon="9.861940322443845">
<ele>398.2</ele>
<time>2024-05-07T09:29:44Z</time>
</trkpt>
<trkpt lat="48.81959144957363" lon="9.86196513287723">
<ele>398.4</ele>
<time>2024-05-07T09:29:45Z</time>
</trkpt>
<trkpt lat="48.81962195970118" lon="9.861988015472887">
<ele>398.6</ele>
<time>2024-05-07T09:29:46Z</time>
</trkpt>
<trkpt lat="48.81965255364776" lon="9.862011903896928">
<ele>398.6</ele>
<time>2024-05-07T09:29:47Z</time>
</trkpt>
<trkpt lat="48.8196830637753" lon="9.862032858654857">
<ele>398.8</ele>
<time>2024-05-07T09:29:48Z</time>
</trkpt>
<trkpt lat="48.819713573902845" lon="9.862050041556358">
<ele>398.8</ele>
<time>2024-05-07T09:29:49Z</time>
</trkpt>
<trkpt lat="48.81974785588682" lon="9.86206529662013">
<ele>399</ele>
<time>2024-05-07T09:29:50Z</time>
</trkpt>
<trkpt lat="48.81978599354625" lon="9.862079545855522">
<ele>399.2</ele>
<time>2024-05-07T09:29:51Z</time>
</trkpt>
<trkpt lat="48.81982035934925" lon="9.862088179215789">
<ele>399.2</ele>
<time>2024-05-07T09:29:52Z</time>
</trkpt>
<trkpt lat="48.819854725152254" lon="9.862090107053518">
<ele>399.4</ele>
<time>2024-05-07T09:29:53Z</time>
</trkpt>
<trkpt lat="48.819889007136226" lon="9.862091951072216">
<ele>399.6</ele>
<time>2024-05-07T09:29:54Z</time>
</trkpt>
<trkpt lat="48.81992337293923" lon="9.862090107053518">
<ele>399.6</ele>
<time>2024-05-07T09:29:55Z</time>
</trkpt>
<trkpt lat="48.81995388306677" lon="9.86208532936871">
<ele>399.8</ele>
<time>2024-05-07T09:29:56Z</time>
</trkpt>
<trkpt lat="48.81998439319432" lon="9.862078623846172">
<ele>400</ele>
<time>2024-05-07T09:29:57Z</time>
</trkpt>
<trkpt lat="48.82001490332186" lon="9.862068146467209">
<ele>400</ele>
<time>2024-05-07T09:29:58Z</time>
</trkpt>
<trkpt lat="48.82004541344941" lon="9.862058591097592">
<ele>400.2</ele>
<time>2024-05-07T09:29:59Z</time>
</trkpt>
<trkpt lat="48.82007977925241" lon="9.862048113718629">
<ele>400.4</ele>
<time>2024-05-07T09:30:00Z</time>
</trkpt>
<trkpt lat="48.820106433704495" lon="9.862038558349012">
<ele>400.6</ele>
<time>2024-05-07T09:30:01Z</time>
</trkpt>
<trkpt lat="48.8201407995075" lon="9.862030008807778">
<ele>400.8</ele>
<time>2024-05-07T09:30:02Z</time>
</trkpt>
<trkpt lat="48.82017130963504" lon="9.862016597762704">
<ele>401</ele>
<time>2024-05-07T09:30:03Z</time>
</trkpt>
<trkpt lat="48.82020181976259" lon="9.862001342698932">
<ele>401.2</ele>
<time>2024-05-07T09:30:04Z</time>
</trkpt>
<trkpt lat="48.82023618556559" lon="9.861988015472887">
<ele>401.4</ele>
<time>2024-05-07T09:30:05Z</time>
</trkpt>
<trkpt lat="48.820266695693135" lon="9.861973682418466">
<ele>401.4</ele>
<time>2024-05-07T09:30:06Z</time>
</trkpt>
<trkpt lat="48.82029720582068" lon="9.861956583335996">
<ele>401.6</ele>
<time>2024-05-07T09:30:07Z</time>
</trkpt>
<trkpt lat="48.82033157162368" lon="9.861934622749686">
<ele>401.8</ele>
<time>2024-05-07T09:30:08Z</time>
</trkpt>
<trkpt lat="48.82035822607577" lon="9.86190696246922">
<ele>402</ele>
<time>2024-05-07T09:30:09Z</time>
</trkpt>
<trkpt lat="48.82038110867143" lon="9.86186790280044">
<ele>402.4</ele>
<time>2024-05-07T09:30:10Z</time>
</trkpt>
<trkpt lat="48.820403991267085" lon="9.861833536997436">
<ele>402.6</ele>
<time>2024-05-07T09:30:11Z</time>
</trkpt>
<trkpt lat="48.8204307295382" lon="9.861800177022817">
<ele>402.8</ele>
<time>2024-05-07T09:30:12Z</time>
</trkpt>
<trkpt lat="48.82045361213386" lon="9.86176866106689">
<ele>403.2</ele>
<time>2024-05-07T09:30:13Z</time>
</trkpt>
<trkpt lat="48.820480266585946" lon="9.861736223101616">
<ele>403.4</ele>
<time>2024-05-07T09:30:14Z</time>
</trkpt>
<trkpt lat="48.82050323300064" lon="9.861700013279917">
<ele>403.8</ele>
<time>2024-05-07T09:30:15Z</time>
</trkpt>
<trkpt lat="48.820526115596294" lon="9.861659947782757">
<ele>404.2</ele>
<time>2024-05-07T09:30:16Z</time>
</trkpt>
<trkpt lat="48.82054899819195" lon="9.861619882285597">
<ele>404.4</ele>
<time>2024-05-07T09:30:17Z</time>
</trkpt>
<trkpt lat="48.82057188078761" lon="9.861577972769735">
<ele>404.6</ele>
<time>2024-05-07T09:30:18Z</time>
</trkpt>
<trkpt lat="48.82059090770781" lon="9.861539835110309">
<ele>405</ele>
<time>2024-05-07T09:30:19Z</time>
</trkpt>
<trkpt lat="48.82061001844704" lon="9.861499769613149">
<ele>405.2</ele>
<time>2024-05-07T09:30:20Z</time>
</trkpt>
<trkpt lat="48.82062904536724" lon="9.861459704115989">
<ele>405.4</ele>
<time>2024-05-07T09:30:21Z</time>
</trkpt>
<trkpt lat="48.82064815610647" lon="9.861418716609478">
<ele>405.6</ele>
<time>2024-05-07T09:30:22Z</time>
</trkpt>
<trkpt lat="48.8206672668457" lon="9.861376723274589">
<ele>405.8</ele>
<time>2024-05-07T09:30:23Z</time>
</trkpt>
<trkpt lat="48.8206862937659" lon="9.861332885921">
<ele>406</ele>
<time>2024-05-07T09:30:24Z</time>
</trkpt>
<trkpt lat="48.820701548829675" lon="9.861289970576763">
<ele>406.2</ele>
<time>2024-05-07T09:30:25Z</time>
</trkpt>
<trkpt lat="48.82071680389345" lon="9.861247055232525">
<ele>406.4</ele>
<time>2024-05-07T09:30:26Z</time>
</trkpt>
<trkpt lat="48.82072828710079" lon="9.861201206222177">
<ele>406.6</ele>
<time>2024-05-07T09:30:27Z</time>
</trkpt>
<trkpt lat="48.820739686489105" lon="9.861158290877938">
<ele>406.6</ele>
<time>2024-05-07T09:30:28Z</time>
</trkpt>
<trkpt lat="48.82075494155288" lon="9.861109675839543">
<ele>406.8</ele>
<time>2024-05-07T09:30:29Z</time>
</trkpt>
<trkpt lat="48.82076642476022" lon="9.861062988638878">
<ele>407</ele>
<time>2024-05-07T09:30:30Z</time>
</trkpt>
<trkpt lat="48.82077405229211" lon="9.861015295609832">
<ele>407.2</ele>
<time>2024-05-07T09:30:31Z</time>
</trkpt>
<trkpt lat="48.82078545168042" lon="9.860968524590136">
<ele>407.4</ele>
<time>2024-05-07T09:30:32Z</time>
</trkpt>
<trkpt lat="48.82079307921231" lon="9.86092183738947">
<ele>407.6</ele>
<time>2024-05-07T09:30:33Z</time>
</trkpt>
<trkpt lat="48.82080456241965" lon="9.86087791621685">
<ele>407.8</ele>
<time>2024-05-07T09:30:34Z</time>
</trkpt>
<trkpt lat="48.82080833427608" lon="9.860835000872612">
<ele>408</ele>
<time>2024-05-07T09:30:35Z</time>
</trkpt>
<trkpt lat="48.820819817483425" lon="9.860793091356754">
<ele>408.2</ele>
<time>2024-05-07T09:30:36Z</time>
</trkpt>
<trkpt lat="48.82082358933985" lon="9.860750176012516">
<ele>408.6</ele>
<time>2024-05-07T09:30:37Z</time>
</trkpt>
<trkpt lat="48.82082744501531" lon="9.860705332830548">
<ele>408.8</ele>
<time>2024-05-07T09:30:38Z</time>
</trkpt>
<trkpt lat="48.82083121687174" lon="9.860658645629885">
<ele>409</ele>
<time>2024-05-07T09:30:39Z</time>
</trkpt>
<trkpt lat="48.820838928222656" lon="9.860609946772456">
<ele>409.2</ele>
<time>2024-05-07T09:30:40Z</time>
</trkpt>
<trkpt lat="48.82084270007908" lon="9.86056133173406">
<ele>409.4</ele>
<time>2024-05-07T09:30:41Z</time>
</trkpt>
<trkpt lat="48.82084655575454" lon="9.860516488552094">
<ele>409.8</ele>
<time>2024-05-07T09:30:42Z</time>
</trkpt>
<trkpt lat="48.82085418328643" lon="9.860469801351428">
<ele>410.2</ele>
<time>2024-05-07T09:30:43Z</time>
</trkpt>
<trkpt lat="48.820861810818315" lon="9.86042495816946">
<ele>410.4</ele>
<time>2024-05-07T09:30:44Z</time>
</trkpt>
<trkpt lat="48.8208694383502" lon="9.860382042825222">
<ele>410.6</ele>
<time>2024-05-07T09:30:45Z</time>
</trkpt>
<trkpt lat="48.82087706588209" lon="9.860336277633904">
<ele>411</ele>
<time>2024-05-07T09:30:46Z</time>
</trkpt>
<trkpt lat="48.8208884652704" lon="9.860291434451938">
<ele>411.2</ele>
<time>2024-05-07T09:30:47Z</time>
</trkpt>
<trkpt lat="48.820896092802286" lon="9.860244747251272">
<ele>411.4</ele>
<time>2024-05-07T09:30:48Z</time>
</trkpt>
<trkpt lat="48.82090372033417" lon="9.860199904069304">
<ele>411.6</ele>
<time>2024-05-07T09:30:49Z</time>
</trkpt>
<trkpt lat="48.82091134786606" lon="9.860155060887337">
<ele>412</ele>
<time>2024-05-07T09:30:50Z</time>
</trkpt>
<trkpt lat="48.820918975397944" lon="9.86011122353375">
<ele>412.2</ele>
<time>2024-05-07T09:30:51Z</time>
</trkpt>
<trkpt lat="48.82092660292983" lon="9.860066380351782">
<ele>412.4</ele>
<time>2024-05-07T09:30:52Z</time>
</trkpt>
<trkpt lat="48.820938086137176" lon="9.860019609332085">
<ele>412.6</ele>
<time>2024-05-07T09:30:53Z</time>
</trkpt>
<trkpt lat="48.82094948552549" lon="9.859974849969149">
<ele>412.8</ele>
<time>2024-05-07T09:30:54Z</time>
</trkpt>
<trkpt lat="48.820960968732834" lon="9.85993193462491">
<ele>413</ele>
<time>2024-05-07T09:30:55Z</time>
</trkpt>
<trkpt lat="48.82097236812115" lon="9.85988994129002">
<ele>413</ele>
<time>2024-05-07T09:30:56Z</time>
</trkpt>
<trkpt lat="48.82098385132849" lon="9.859847947955132">
<ele>413.2</ele>
<time>2024-05-07T09:30:57Z</time>
</trkpt>
<trkpt lat="48.820995250716805" lon="9.859807966277003">
<ele>413.4</ele>
<time>2024-05-07T09:30:58Z</time>
</trkpt>
<trkpt lat="48.82101058959961" lon="9.859766894951465">
<ele>413.6</ele>
<time>2024-05-07T09:30:59Z</time>
</trkpt>
<trkpt lat="48.82102198898792" lon="9.859724985435603">
<ele>413.8</ele>
<time>2024-05-07T09:31:00Z</time>
</trkpt>
<trkpt lat="48.821037244051695" lon="9.859682070091369">
<ele>414</ele>
<time>2024-05-07T09:31:01Z</time>
</trkpt>
<trkpt lat="48.82104872725904" lon="9.859640076756476">
<ele>414.2</ele>
<time>2024-05-07T09:31:02Z</time>
</trkpt>
<trkpt lat="48.82106398232281" lon="9.859598083421588">
<ele>414.4</ele>
<time>2024-05-07T09:31:03Z</time>
</trkpt>
<trkpt lat="48.82108300924301" lon="9.85955617390573">
<ele>414.4</ele>
<time>2024-05-07T09:31:04Z</time>
</trkpt>
<trkpt lat="48.821098264306784" lon="9.8595180362463">
<ele>414.6</ele>
<time>2024-05-07T09:31:05Z</time>
</trkpt>
<trkpt lat="48.821117375046015" lon="9.85947989858687">
<ele>414.8</ele>
<time>2024-05-07T09:31:06Z</time>
</trkpt>
<trkpt lat="48.821136401966214" lon="9.859443604946136">
<ele>415</ele>
<time>2024-05-07T09:31:07Z</time>
</trkpt>
<trkpt lat="48.821155512705445" lon="9.859406389296057">
<ele>415.2</ele>
<time>2024-05-07T09:31:08Z</time>
</trkpt>
<trkpt lat="48.821174539625645" lon="9.859368251636624">
<ele>415.4</ele>
<time>2024-05-07T09:31:09Z</time>
</trkpt>
<trkpt lat="48.82119365036488" lon="9.859332041814923">
<ele>415.6</ele>
<time>2024-05-07T09:31:10Z</time>
</trkpt>
<trkpt lat="48.82121276110411" lon="9.859292982146144">
<ele>415.8</ele>
<time>2024-05-07T09:31:11Z</time>
</trkpt>
<trkpt lat="48.821231788024306" lon="9.85925861634314">
<ele>416</ele>
<time>2024-05-07T09:31:12Z</time>
</trkpt>
<trkpt lat="48.821254670619965" lon="9.859223328530788">
<ele>416.2</ele>
<time>2024-05-07T09:31:13Z</time>
</trkpt>
<trkpt lat="48.8212737813592" lon="9.859188040718436">
<ele>416.4</ele>
<time>2024-05-07T09:31:14Z</time>
</trkpt>
<trkpt lat="48.821296663954854" lon="9.859154680743814">
<ele>416.6</ele>
<time>2024-05-07T09:31:15Z</time>
</trkpt>
<trkpt lat="48.821311919018626" lon="9.85911838710308">
<ele>416.6</ele>
<time>2024-05-07T09:31:16Z</time>
</trkpt>
<trkpt lat="48.821334801614285" lon="9.85908024944365">
<ele>416.8</ele>
<time>2024-05-07T09:31:17Z</time>
</trkpt>
<trkpt lat="48.82135391235352" lon="9.859044961631298">
<ele>417.2</ele>
<time>2024-05-07T09:31:18Z</time>
</trkpt>
<trkpt lat="48.821376794949174" lon="9.859011601656675">
<ele>417.4</ele>
<time>2024-05-07T09:31:19Z</time>
</trkpt>
<trkpt lat="48.82139582186937" lon="9.858980169519782">
<ele>417.6</ele>
<time>2024-05-07T09:31:20Z</time>
</trkpt>
<trkpt lat="48.82141493260861" lon="9.8589429538697">
<ele>417.8</ele>
<time>2024-05-07T09:31:21Z</time>
</trkpt>
<trkpt lat="48.8214339595288" lon="9.858908588066695">
<ele>418</ele>
<time>2024-05-07T09:31:22Z</time>
</trkpt>
<trkpt lat="48.82145684212446" lon="9.858871456235647">
<ele>418.4</ele>
<time>2024-05-07T09:31:23Z</time>
</trkpt>
<trkpt lat="48.82147595286369" lon="9.858833234757183">
<ele>418.6</ele>
<time>2024-05-07T09:31:24Z</time>
</trkpt>
<trkpt lat="48.82149497978389" lon="9.858795097097754">
<ele>418.8</ele>
<time>2024-05-07T09:31:25Z</time>
</trkpt>
<trkpt lat="48.82151786237955" lon="9.858756959438324">
<ele>419.2</ele>
<time>2024-05-07T09:31:26Z</time>
</trkpt>
<trkpt lat="48.821533201262355" lon="9.858716893941164">
<ele>419.4</ele>
<time>2024-05-07T09:31:27Z</time>
</trkpt>
<trkpt lat="48.821552228182554" lon="9.858676828444004">
<ele>419.6</ele>
<time>2024-05-07T09:31:28Z</time>
</trkpt>
<trkpt lat="48.821567483246326" lon="9.858638690784574">
<ele>420</ele>
<time>2024-05-07T09:31:29Z</time>
</trkpt>
<trkpt lat="48.8215827383101" lon="9.858601558953524">
<ele>420.4</ele>
<time>2024-05-07T09:31:30Z</time>
</trkpt>
<trkpt lat="48.82159799337387" lon="9.858559565618634">
<ele>420.6</ele>
<time>2024-05-07T09:31:31Z</time>
</trkpt>
<trkpt lat="48.82161324843764" lon="9.858519500121474">
<ele>421</ele>
<time>2024-05-07T09:31:32Z</time>
</trkpt>
<trkpt lat="48.82162473164499" lon="9.858476584777236">
<ele>421.2</ele>
<time>2024-05-07T09:31:33Z</time>
</trkpt>
<trkpt lat="48.82163998670876" lon="9.858434675261378">
<ele>421.4</ele>
<time>2024-05-07T09:31:34Z</time>
</trkpt>
<trkpt lat="48.821651386097074" lon="9.85839175991714">
<ele>421.8</ele>
<time>2024-05-07T09:31:35Z</time>
</trkpt>
<trkpt lat="48.821666641160846" lon="9.85834976658225">
<ele>422</ele>
<time>2024-05-07T09:31:36Z</time>
</trkpt>
<trkpt lat="48.82167812436819" lon="9.858306851238012">
<ele>422.2</ele>
<time>2024-05-07T09:31:37Z</time>
</trkpt>
<trkpt lat="48.82168575190008" lon="9.858263013884423">
<ele>422.4</ele>
<time>2024-05-07T09:31:38Z</time>
</trkpt>
<trkpt lat="48.82169337943196" lon="9.858218170702456">
<ele>422.8</ele>
<time>2024-05-07T09:31:39Z</time>
</trkpt>
<trkpt lat="48.82170100696385" lon="9.85817525535822">
<ele>423</ele>
<time>2024-05-07T09:31:40Z</time>
</trkpt>
<trkpt lat="48.821708634495735" lon="9.858129490166904">
<ele>423.2</ele>
<time>2024-05-07T09:31:41Z</time>
</trkpt>
<trkpt lat="48.82171626202762" lon="9.858083724975586">
<ele>423.6</ele>
<time>2024-05-07T09:31:42Z</time>
</trkpt>
<trkpt lat="48.821727745234966" lon="9.858037875965238">
<ele>423.8</ele>
<time>2024-05-07T09:31:43Z</time>
</trkpt>
<trkpt lat="48.82173151709139" lon="9.857993116602302">
<ele>424</ele>
<time>2024-05-07T09:31:44Z</time>
</trkpt>
<trkpt lat="48.82173537276685" lon="9.857946345582604">
<ele>424</ele>
<time>2024-05-07T09:31:45Z</time>
</trkpt>
<trkpt lat="48.82174300029874" lon="9.85789965838194">
<ele>424.4</ele>
<time>2024-05-07T09:31:46Z</time>
</trkpt>
<trkpt lat="48.821750627830625" lon="9.857852887362242">
<ele>424.6</ele>
<time>2024-05-07T09:31:47Z</time>
</trkpt>
<trkpt lat="48.82175439968705" lon="9.857805194333196">
<ele>424.8</ele>
<time>2024-05-07T09:31:48Z</time>
</trkpt>
<trkpt lat="48.82175825536251" lon="9.85775850713253">
<ele>425</ele>
<time>2024-05-07T09:31:49Z</time>
</trkpt>
<trkpt lat="48.82175825536251" lon="9.857711736112831">
<ele>425.2</ele>
<time>2024-05-07T09:31:50Z</time>
</trkpt>
<trkpt lat="48.82175825536251" lon="9.857666892930864">
<ele>425.4</ele>
<time>2024-05-07T09:31:51Z</time>
</trkpt>
<trkpt lat="48.82175825536251" lon="9.85762213356793">
<ele>425.6</ele>
<time>2024-05-07T09:31:52Z</time>
</trkpt>
<trkpt lat="48.82175439968705" lon="9.857571590691805">
<ele>425.8</ele>
<time>2024-05-07T09:31:53Z</time>
</trkpt>
<trkpt lat="48.82175439968705" lon="9.85752196982503">
<ele>425.8</ele>
<time>2024-05-07T09:31:54Z</time>
</trkpt>
<trkpt lat="48.821750627830625" lon="9.857471426948903">
<ele>426</ele>
<time>2024-05-07T09:31:55Z</time>
</trkpt>
<trkpt lat="48.821750627830625" lon="9.857419962063432">
<ele>426.2</ele>
<time>2024-05-07T09:31:56Z</time>
</trkpt>
<trkpt lat="48.821750627830625" lon="9.857370341196656">
<ele>426.2</ele>
<time>2024-05-07T09:31:57Z</time>
</trkpt>
<trkpt lat="48.821750627830625" lon="9.857317870482802">
<ele>426.4</ele>
<time>2024-05-07T09:31:58Z</time>
</trkpt>
<trkpt lat="48.821750627830625" lon="9.85726640559733">
<ele>426.6</ele>
<time>2024-05-07T09:31:59Z</time>
</trkpt>
<trkpt lat="48.821746772155166" lon="9.857214856892824">
<ele>426.8</ele>
<time>2024-05-07T09:32:00Z</time>
</trkpt>
<trkpt lat="48.82174300029874" lon="9.857163392007353">
<ele>426.8</ele>
<time>2024-05-07T09:32:01Z</time>
</trkpt>
<trkpt lat="48.82173914462328" lon="9.857111927121878">
<ele>427</ele>
<time>2024-05-07T09:32:02Z</time>
</trkpt>
<trkpt lat="48.82173914462328" lon="9.857058450579643">
<ele>427.2</ele>
<time>2024-05-07T09:32:03Z</time>
</trkpt>
<trkpt lat="48.82173537276685" lon="9.85700505785644">
<ele>427.2</ele>
<time>2024-05-07T09:32:04Z</time>
</trkpt>
<trkpt lat="48.82173151709139" lon="9.856951665133238">
<ele>427.4</ele>
<time>2024-05-07T09:32:05Z</time>
</trkpt>
<trkpt lat="48.821727745234966" lon="9.856898272410035">
<ele>427.6</ele>
<time>2024-05-07T09:32:06Z</time>
</trkpt>
<trkpt lat="48.82172388955951" lon="9.856846807524562">
<ele>427.8</ele>
<time>2024-05-07T09:32:07Z</time>
</trkpt>
<trkpt lat="48.82172011770308" lon="9.856793330982327">
<ele>428</ele>
<time>2024-05-07T09:32:08Z</time>
</trkpt>
<trkpt lat="48.82171626202762" lon="9.856742788106205">
<ele>428.2</ele>
<time>2024-05-07T09:32:09Z</time>
</trkpt>
<trkpt lat="48.821708634495735" lon="9.85669325105846">
<ele>428.4</ele>
<time>2024-05-07T09:32:10Z</time>
</trkpt>
<trkpt lat="48.82170486263931" lon="9.856641702353954">
<ele>428.6</ele>
<time>2024-05-07T09:32:11Z</time>
</trkpt>
<trkpt lat="48.82169723510742" lon="9.85659115947783">
<ele>428.8</ele>
<time>2024-05-07T09:32:12Z</time>
</trkpt>
<trkpt lat="48.82169337943196" lon="9.856541622430086">
<ele>429</ele>
<time>2024-05-07T09:32:13Z</time>
</trkpt>
<trkpt lat="48.82168575190008" lon="9.85649200156331">
<ele>429</ele>
<time>2024-05-07T09:32:14Z</time>
</trkpt>
<trkpt lat="48.82167812436819" lon="9.856439530849457">
<ele>429.2</ele>
<time>2024-05-07T09:32:15Z</time>
</trkpt>
<trkpt lat="48.821670496836305" lon="9.85639183782041">
<ele>429.4</ele>
<time>2024-05-07T09:32:16Z</time>
</trkpt>
<trkpt lat="48.821666641160846" lon="9.856341294944286">
<ele>429.6</ele>
<time>2024-05-07T09:32:17Z</time>
</trkpt>
<trkpt lat="48.82165524177253" lon="9.85629360191524">
<ele>429.8</ele>
<time>2024-05-07T09:32:18Z</time>
</trkpt>
<trkpt lat="48.821647614240646" lon="9.856244986876844">
<ele>429.8</ele>
<time>2024-05-07T09:32:19Z</time>
</trkpt>
<trkpt lat="48.8216361310333" lon="9.856195449829102">
<ele>430</ele>
<time>2024-05-07T09:32:20Z</time>
</trkpt>
<trkpt lat="48.82162473164499" lon="9.856146750971677">
<ele>430</ele>
<time>2024-05-07T09:32:21Z</time>
</trkpt>
<trkpt lat="48.82161324843764" lon="9.85610006377101">
<ele>430</ele>
<time>2024-05-07T09:32:22Z</time>
</trkpt>
<trkpt lat="48.82160184904933" lon="9.856055220589042">
<ele>430</ele>
<time>2024-05-07T09:32:23Z</time>
</trkpt>
<trkpt lat="48.821590365841985" lon="9.856008449569345">
<ele>430.2</ele>
<time>2024-05-07T09:32:24Z</time>
</trkpt>
<trkpt lat="48.82157896645367" lon="9.855963690206409">
<ele>430.4</ele>
<time>2024-05-07T09:32:25Z</time>
</trkpt>
<trkpt lat="48.8215637113899" lon="9.85592169687152">
<ele>430.6</ele>
<time>2024-05-07T09:32:26Z</time>
</trkpt>
<trkpt lat="48.821552228182554" lon="9.855883559212089">
<ele>430.8</ele>
<time>2024-05-07T09:32:27Z</time>
</trkpt>
<trkpt lat="48.82154460065067" lon="9.8558415658772">
<ele>430.8</ele>
<time>2024-05-07T09:32:28Z</time>
</trkpt>
<trkpt lat="48.82154460065067" lon="9.85579865053296">
<ele>431</ele>
<time>2024-05-07T09:32:29Z</time>
</trkpt>
<trkpt lat="48.82154845632613" lon="9.855756741017103">
<ele>431</ele>
<time>2024-05-07T09:32:30Z</time>
</trkpt>
<trkpt lat="48.8215637113899" lon="9.855719525367022">
<ele>431</ele>
<time>2024-05-07T09:32:31Z</time>
</trkpt>
<trkpt lat="48.821590365841985" lon="9.855693792924283">
<ele>431</ele>
<time>2024-05-07T09:32:32Z</time>
</trkpt>
<trkpt lat="48.82162473164499" lon="9.85568331554532">
<ele>431</ele>
<time>2024-05-07T09:32:33Z</time>
</trkpt>
<trkpt lat="48.82165901362896" lon="9.855685159564018">
<ele>431</ele>
<time>2024-05-07T09:32:34Z</time>
</trkpt>
<trkpt lat="48.82169723510742" lon="9.8556861653924">
<ele>431</ele>
<time>2024-05-07T09:32:35Z</time>
</trkpt>
<trkpt lat="48.82173537276685" lon="9.8556861653924">
<ele>431</ele>
<time>2024-05-07T09:32:36Z</time>
</trkpt>
<trkpt lat="48.82177351042628" lon="9.855678537860513">
<ele>431</ele>
<time>2024-05-07T09:32:37Z</time>
</trkpt>
<trkpt lat="48.82181164808571" lon="9.855672754347324">
<ele>431</ele>
<time>2024-05-07T09:32:38Z</time>
</trkpt>
<trkpt lat="48.82184215821326" lon="9.855671832337976">
<ele>431</ele>
<time>2024-05-07T09:32:39Z</time>
</trkpt>
<trkpt lat="48.821868896484375" lon="9.855668060481548">
<ele>430.8</ele>
<time>2024-05-07T09:32:40Z</time>
</trkpt>
<trkpt lat="48.82189940661192" lon="9.855658505111933">
<ele>430.8</ele>
<time>2024-05-07T09:32:41Z</time>
</trkpt>
<trkpt lat="48.821929916739464" lon="9.855640400201082">
<ele>430.8</ele>
<time>2024-05-07T09:32:42Z</time>
</trkpt>
<trkpt lat="48.82195657119155" lon="9.855614583939314">
<ele>430.8</ele>
<time>2024-05-07T09:32:43Z</time>
</trkpt>
<trkpt lat="48.82198330946267" lon="9.855596479028463">
<ele>430.8</ele>
<time>2024-05-07T09:32:44Z</time>
</trkpt>
<trkpt lat="48.82201381959021" lon="9.855576446279883">
<ele>430.8</ele>
<time>2024-05-07T09:32:45Z</time>
</trkpt>
<trkpt lat="48.822048185393214" lon="9.855553563684223">
<ele>430.8</ele>
<time>2024-05-07T09:32:46Z</time>
</trkpt>
<trkpt lat="48.82207869552076" lon="9.855531686916947">
<ele>430.8</ele>
<time>2024-05-07T09:32:47Z</time>
</trkpt>
<trkpt lat="48.82211297750473" lon="9.85550494864583">
<ele>431</ele>
<time>2024-05-07T09:32:48Z</time>
</trkpt>
<trkpt lat="48.82213971577585" lon="9.85548298805952">
<ele>431</ele>
<time>2024-05-07T09:32:49Z</time>
</trkpt>
<trkpt lat="48.82217399775982" lon="9.855456333607435">
<ele>431.2</ele>
<time>2024-05-07T09:32:50Z</time>
</trkpt>
<trkpt lat="48.82220450788736" lon="9.855429595336318">
<ele>431.2</ele>
<time>2024-05-07T09:32:51Z</time>
</trkpt>
<trkpt lat="48.82223510183394" lon="9.855400007218122">
<ele>431.2</ele>
<time>2024-05-07T09:32:52Z</time>
</trkpt>
<trkpt lat="48.822261756286025" lon="9.855371424928308">
<ele>431.4</ele>
<time>2024-05-07T09:32:53Z</time>
</trkpt>
<trkpt lat="48.82229226641357" lon="9.855338064953685">
<ele>431.4</ele>
<time>2024-05-07T09:32:54Z</time>
</trkpt>
<trkpt lat="48.82231900468469" lon="9.85530654899776">
<ele>431.4</ele>
<time>2024-05-07T09:32:55Z</time>
</trkpt>
<trkpt lat="48.82235328666866" lon="9.855273189023135">
<ele>431.6</ele>
<time>2024-05-07T09:32:56Z</time>
</trkpt>
<trkpt lat="48.822383880615234" lon="9.855244606733322">
<ele>431.6</ele>
<time>2024-05-07T09:32:57Z</time>
</trkpt>
<trkpt lat="48.822418162599206" lon="9.855219796299934">
<ele>431.4</ele>
<time>2024-05-07T09:32:58Z</time>
</trkpt>
<trkpt lat="48.82244490087032" lon="9.855196913704276">
<ele>431.4</ele>
<time>2024-05-07T09:32:59Z</time>
</trkpt>
<trkpt lat="48.82246778346598" lon="9.855176880955696">
<ele>431.4</ele>
<time>2024-05-07T09:33:00Z</time>
</trkpt>
<trkpt lat="48.82248681038618" lon="9.855153076350687">
<ele>431.2</ele>
<time>2024-05-07T09:33:01Z</time>
</trkpt>
<trkpt lat="48.82250592112541" lon="9.855132037773728">
<ele>431.2</ele>
<time>2024-05-07T09:33:02Z</time>
</trkpt>
<trkpt lat="48.822521176189184" lon="9.855112005025148">
<ele>431</ele>
<time>2024-05-07T09:33:03Z</time>
</trkpt>
<trkpt lat="48.82252494804561" lon="9.855086272582412">
<ele>431</ele>
<time>2024-05-07T09:33:04Z</time>
</trkpt>
<trkpt lat="48.82252880372107" lon="9.855056684464216">
<ele>431</ele>
<time>2024-05-07T09:33:05Z</time>
</trkpt>
<trkpt lat="48.82252494804561" lon="9.855023324489594">
<ele>430.8</ele>
<time>2024-05-07T09:33:06Z</time>
</trkpt>
<trkpt lat="48.822521176189184" lon="9.85498803667724">
<ele>430.8</ele>
<time>2024-05-07T09:33:07Z</time>
</trkpt>
<trkpt lat="48.822517320513725" lon="9.854947049170732">
<ele>430.8</ele>
<time>2024-05-07T09:33:08Z</time>
</trkpt>
<trkpt lat="48.822517320513725" lon="9.854906983673573">
<ele>430.8</ele>
<time>2024-05-07T09:33:09Z</time>
</trkpt>
<trkpt lat="48.82250969298184" lon="9.854867924004791">
<ele>430.8</ele>
<time>2024-05-07T09:33:10Z</time>
</trkpt>
<trkpt lat="48.82250592112541" lon="9.85483448021114">
<ele>431</ele>
<time>2024-05-07T09:33:11Z</time>
</trkpt>
<trkpt lat="48.82250206544995" lon="9.854798270389438">
<ele>431</ele>
<time>2024-05-07T09:33:12Z</time>
</trkpt>
<trkpt lat="48.822498293593526" lon="9.854758204892278">
<ele>431</ele>
<time>2024-05-07T09:33:13Z</time>
</trkpt>
<trkpt lat="48.82249066606164" lon="9.854722917079926">
<ele>431</ele>
<time>2024-05-07T09:33:14Z</time>
</trkpt>
<trkpt lat="48.82248681038618" lon="9.854691484943032">
<ele>431</ele>
<time>2024-05-07T09:33:15Z</time>
</trkpt>
<trkpt lat="48.822483038529754" lon="9.854659968987107">
<ele>431</ele>
<time>2024-05-07T09:33:16Z</time>
</trkpt>
<trkpt lat="48.82247541099787" lon="9.854637086391447">
<ele>431</ele>
<time>2024-05-07T09:33:17Z</time>
</trkpt>
<trkpt lat="48.82246778346598" lon="9.854615209624171">
<ele>431</ele>
<time>2024-05-07T09:33:18Z</time>
</trkpt>
<trkpt lat="48.822460155934095" lon="9.854593249037862">
<ele>431</ele>
<time>2024-05-07T09:33:19Z</time>
</trkpt>
<trkpt lat="48.82245630025864" lon="9.854575144127011">
<ele>431</ele>
<time>2024-05-07T09:33:20Z</time>
</trkpt>
<trkpt lat="48.82244867272675" lon="9.854556955397127">
<ele>431</ele>
<time>2024-05-07T09:33:21Z</time>
</trkpt>
<trkpt lat="48.822441045194864" lon="9.854543628171086">
<ele>431</ele>
<time>2024-05-07T09:33:22Z</time>
</trkpt>
<trkpt lat="48.82243341766298" lon="9.854544633999469">
<ele>431</ele>
<time>2024-05-07T09:33:23Z</time>
</trkpt>
<trkpt lat="48.82243341766298" lon="9.854546478018165">
<ele>430.8</ele>
<time>2024-05-07T09:33:24Z</time>
</trkpt>
<trkpt lat="48.82243341766298" lon="9.854550333693624">
<ele>430.8</ele>
<time>2024-05-07T09:33:25Z</time>
</trkpt>
<trkpt lat="48.82242964580655" lon="9.854551255702972">
<ele>430.8</ele>
<time>2024-05-07T09:33:26Z</time>
</trkpt>
<trkpt lat="48.82242964580655" lon="9.854553183540702">
<ele>430.8</ele>
<time>2024-05-07T09:33:27Z</time>
</trkpt>
<trkpt lat="48.82242579013109" lon="9.854555111378431">
<ele>430.8</ele>
<time>2024-05-07T09:33:28Z</time>
</trkpt>
<trkpt lat="48.82242964580655" lon="9.854555111378431">
<ele>430.8</ele>
<time>2024-05-07T09:33:29Z</time>
</trkpt>
<trkpt lat="48.82242964580655" lon="9.854556955397127">
<ele>430.8</ele>
<time>2024-05-07T09:33:31Z</time>
</trkpt>
<trkpt lat="48.82242964580655" lon="9.85455796122551">
<ele>430.8</ele>
<time>2024-05-07T09:33:36Z</time>
</trkpt>
<trkpt lat="48.82242964580655" lon="9.85455988906324">
<ele>430.6</ele>
<time>2024-05-07T09:33:40Z</time>
</trkpt>
<trkpt lat="48.82242579013109" lon="9.85455988906324">
<ele>430.6</ele>
<time>2024-05-07T09:33:41Z</time>
</trkpt>
<trkpt lat="48.82242579013109" lon="9.854561733081937">
<ele>430.6</ele>
<time>2024-05-07T09:33:42Z</time>
</trkpt>
<trkpt lat="48.822422018274665" lon="9.854568438604474">
<ele>430.6</ele>
<time>2024-05-07T09:33:43Z</time>
</trkpt>
<trkpt lat="48.822422018274665" lon="9.854576988145707">
<ele>430.6</ele>
<time>2024-05-07T09:33:44Z</time>
</trkpt>
<trkpt lat="48.822418162599206" lon="9.854588471353054">
<ele>430.6</ele>
<time>2024-05-07T09:33:45Z</time>
</trkpt>
<trkpt lat="48.822418162599206" lon="9.854590399190784">
<ele>430.6</ele>
<time>2024-05-07T09:33:46Z</time>
</trkpt>
<trkpt lat="48.822418162599206" lon="9.854610431939363">
<ele>430.8</ele>
<time>2024-05-07T09:33:47Z</time>
</trkpt>
<trkpt lat="48.82242579013109" lon="9.854628536850214">
<ele>430.8</ele>
<time>2024-05-07T09:33:48Z</time>
</trkpt>
<trkpt lat="48.82242964580655" lon="9.854642786085606">
<ele>430.8</ele>
<time>2024-05-07T09:33:49Z</time>
</trkpt>
<trkpt lat="48.82243727333844" lon="9.85465812496841">
<ele>431</ele>
<time>2024-05-07T09:33:50Z</time>
</trkpt>
<trkpt lat="48.822441045194864" lon="9.85467522405088">
<ele>431</ele>
<time>2024-05-07T09:33:51Z</time>
</trkpt>
<trkpt lat="48.82244867272675" lon="9.854686707258224">
<ele>431</ele>
<time>2024-05-07T09:33:52Z</time>
</trkpt>
<trkpt lat="48.822460155934095" lon="9.854700034484267">
<ele>431</ele>
<time>2024-05-07T09:33:53Z</time>
</trkpt>
<trkpt lat="48.82246778346598" lon="9.85471528954804">
<ele>431</ele>
<time>2024-05-07T09:33:54Z</time>
</trkpt>
<trkpt lat="48.82247155532241" lon="9.854729622602465">
<ele>431</ele>
<time>2024-05-07T09:33:55Z</time>
</trkpt>
<trkpt lat="48.82247541099787" lon="9.854742027819157">
<ele>430.8</ele>
<time>2024-05-07T09:33:56Z</time>
</trkpt>
<trkpt lat="48.82247541099787" lon="9.854742949828506">
<ele>430.8</ele>
<time>2024-05-07T09:33:57Z</time>
</trkpt>
<trkpt lat="48.82247541099787" lon="9.854744877666237">
<ele>430.8</ele>
<time>2024-05-07T09:33:58Z</time>
</trkpt>
<trkpt lat="48.82247541099787" lon="9.854746805503964">
<ele>430.8</ele>
<time>2024-05-07T09:33:59Z</time>
</trkpt>
<trkpt lat="48.822479182854295" lon="9.854746805503964">
<ele>430.8</ele>
<time>2024-05-07T09:34:01Z</time>
</trkpt>
<trkpt lat="48.82247541099787" lon="9.854746805503964">
<ele>430.8</ele>
<time>2024-05-07T09:34:02Z</time>
</trkpt>
<trkpt lat="48.82247541099787" lon="9.854748649522662">
<ele>430.8</ele>
<time>2024-05-07T09:34:08Z</time>
</trkpt>
<trkpt lat="48.82247541099787" lon="9.854746805503964">
<ele>430.8</ele>
<time>2024-05-07T09:34:09Z</time>
</trkpt>
<trkpt lat="48.82247541099787" lon="9.854748649522662">
<ele>430.8</ele>
<time>2024-05-07T09:34:11Z</time>
</trkpt>
<trkpt lat="48.82247541099787" lon="9.854746805503964">
<ele>430.6</ele>
<time>2024-05-07T09:34:12Z</time>
</trkpt>
<trkpt lat="48.82247155532241" lon="9.854746805503964">
<ele>430.6</ele>
<time>2024-05-07T09:34:15Z</time>
</trkpt>
<trkpt lat="48.82247155532241" lon="9.854744877666237">
<ele>430.6</ele>
<time>2024-05-07T09:34:16Z</time>
</trkpt>
<trkpt lat="48.82247155532241" lon="9.854746805503964">
<ele>430.6</ele>
<time>2024-05-07T09:34:18Z</time>
</trkpt>
<trkpt lat="48.82247155532241" lon="9.854744877666237">
<ele>430.6</ele>
<time>2024-05-07T09:34:22Z</time>
</trkpt>
<trkpt lat="48.82247541099787" lon="9.854744877666237">
<ele>430.6</ele>
<time>2024-05-07T09:34:30Z</time>
</trkpt>
<trkpt lat="48.82247155532241" lon="9.854744877666237">
<ele>430.6</ele>
<time>2024-05-07T09:34:33Z</time>
</trkpt>
<trkpt lat="48.82247155532241" lon="9.854746805503964">
<ele>430.4</ele>
<time>2024-05-07T09:35:05Z</time>
</trkpt>
<trkpt lat="48.82247541099787" lon="9.854744877666237">
<ele>430.4</ele>
<time>2024-05-07T09:35:07Z</time>
</trkpt>
<trkpt lat="48.822479182854295" lon="9.854744877666237">
<ele>430.4</ele>
<time>2024-05-07T09:35:29Z</time>
</trkpt>
<trkpt lat="48.822479182854295" lon="9.854746805503964">
<ele>430.4</ele>
<time>2024-05-07T09:35:42Z</time>
</trkpt>
<trkpt lat="48.822483038529754" lon="9.854746805503964">
<ele>430.4</ele>
<time>2024-05-07T09:35:48Z</time>
</trkpt>
<trkpt lat="48.822483038529754" lon="9.854748649522662">
<ele>430.2</ele>
<time>2024-05-07T09:35:54Z</time>
</trkpt>
<trkpt lat="48.822483038529754" lon="9.854749655351045">
<ele>430.2</ele>
<time>2024-05-07T09:35:59Z</time>
</trkpt>
<trkpt lat="48.822483038529754" lon="9.854751583188772">
<ele>430.2</ele>
<time>2024-05-07T09:36:04Z</time>
</trkpt>
<trkpt lat="48.82248681038618" lon="9.854751583188772">
<ele>430.4</ele>
<time>2024-05-07T09:36:05Z</time>
</trkpt>
<trkpt lat="48.82248681038618" lon="9.85475342720747">
<ele>430.4</ele>
<time>2024-05-07T09:36:11Z</time>
</trkpt>
<trkpt lat="48.82248681038618" lon="9.854751583188772">
<ele>430.4</ele>
<time>2024-05-07T09:36:19Z</time>
</trkpt>
<trkpt lat="48.82248681038618" lon="9.854749655351045">
<ele>430.4</ele>
<time>2024-05-07T09:36:26Z</time>
</trkpt>
<trkpt lat="48.82249066606164" lon="9.854749655351045">
<ele>430.4</ele>
<time>2024-05-07T09:36:27Z</time>
</trkpt>
<trkpt lat="48.82249066606164" lon="9.854751583188772">
<ele>430.4</ele>
<time>2024-05-07T09:36:38Z</time>
</trkpt>
<trkpt lat="48.82248681038618" lon="9.854751583188772">
<ele>430.4</ele>
<time>2024-05-07T09:36:39Z</time>
</trkpt>
<trkpt lat="48.82248681038618" lon="9.85475342720747">
<ele>430.6</ele>
<time>2024-05-07T09:36:44Z</time>
</trkpt>
<trkpt lat="48.82248681038618" lon="9.8547553550452">
<ele>430.6</ele>
<time>2024-05-07T09:36:48Z</time>
</trkpt>
<trkpt lat="48.822483038529754" lon="9.8547553550452">
<ele>430.6</ele>
<time>2024-05-07T09:36:54Z</time>
</trkpt>
<trkpt lat="48.822479182854295" lon="9.8547553550452">
<ele>430.6</ele>
<time>2024-05-07T09:37:01Z</time>
</trkpt>
<trkpt lat="48.822479182854295" lon="9.854756277054548">
<ele>430.8</ele>
<time>2024-05-07T09:37:08Z</time>
</trkpt>
<trkpt lat="48.82247541099787" lon="9.854756277054548">
<ele>430.8</ele>
<time>2024-05-07T09:37:10Z</time>
</trkpt>
<trkpt lat="48.82247541099787" lon="9.854758204892278">
<ele>431</ele>
<time>2024-05-07T09:37:14Z</time>
</trkpt>
<trkpt lat="48.82247155532241" lon="9.854758204892278">
<ele>431</ele>
<time>2024-05-07T09:37:20Z</time>
</trkpt>
<trkpt lat="48.82247155532241" lon="9.854760132730007">
<ele>431</ele>
<time>2024-05-07T09:37:34Z</time>
</trkpt>
<trkpt lat="48.82246778346598" lon="9.854760132730007">
<ele>431</ele>
<time>2024-05-07T09:37:38Z</time>
</trkpt>
<trkpt lat="48.82246778346598" lon="9.854762060567737">
<ele>431</ele>
<time>2024-05-07T09:37:39Z</time>
</trkpt>
<trkpt lat="48.82246392779052" lon="9.854762060567737">
<ele>431.2</ele>
<time>2024-05-07T09:37:50Z</time>
</trkpt>
<trkpt lat="48.82246778346598" lon="9.854762060567737">
<ele>431.2</ele>
<time>2024-05-07T09:37:59Z</time>
</trkpt>
<trkpt lat="48.82246778346598" lon="9.854762982577084">
<ele>431.2</ele>
<time>2024-05-07T09:38:03Z</time>
</trkpt>
<trkpt lat="48.82246778346598" lon="9.854766838252544">
<ele>431.2</ele>
<time>2024-05-07T09:38:19Z</time>
</trkpt>
<trkpt lat="48.82246778346598" lon="9.854768682271242">
<ele>431.2</ele>
<time>2024-05-07T09:38:21Z</time>
</trkpt>
<trkpt lat="48.82246778346598" lon="9.854769688099625">
<ele>431.2</ele>
<time>2024-05-07T09:38:22Z</time>
</trkpt>
<trkpt lat="48.82246778346598" lon="9.85477153211832">
<ele>431.2</ele>
<time>2024-05-07T09:38:23Z</time>
</trkpt>
<trkpt lat="48.82247155532241" lon="9.85477345995605">
<ele>431.2</ele>
<time>2024-05-07T09:38:24Z</time>
</trkpt>
<trkpt lat="48.82247541099787" lon="9.854782093316317">
<ele>431.2</ele>
<time>2024-05-07T09:38:25Z</time>
</trkpt>
<trkpt lat="48.822479182854295" lon="9.85479542054236">
<ele>431.2</ele>
<time>2024-05-07T09:38:26Z</time>
</trkpt>
<trkpt lat="48.822483038529754" lon="9.85481444746256">
<ele>431.2</ele>
<time>2024-05-07T09:38:27Z</time>
</trkpt>
<trkpt lat="48.82248681038618" lon="9.85485451295972">
<ele>431.2</ele>
<time>2024-05-07T09:38:28Z</time>
</trkpt>
<trkpt lat="48.82249066606164" lon="9.854898434132338">
<ele>431.2</ele>
<time>2024-05-07T09:38:29Z</time>
</trkpt>
<trkpt lat="48.822498293593526" lon="9.85494989901781">
<ele>431.2</ele>
<time>2024-05-07T09:38:30Z</time>
</trkpt>
<trkpt lat="48.82250592112541" lon="9.85499382019043">
<ele>431.2</ele>
<time>2024-05-07T09:38:31Z</time>
</trkpt>
<trkpt lat="48.8225135486573" lon="9.85503195784986">
<ele>431.2</ele>
<time>2024-05-07T09:38:32Z</time>
</trkpt>
<trkpt lat="48.82252494804561" lon="9.855054840445518">
<ele>431.2</ele>
<time>2024-05-07T09:38:33Z</time>
</trkpt>
<trkpt lat="48.822540203109384" lon="9.855078645050526">
<ele>431.2</ele>
<time>2024-05-07T09:38:34Z</time>
</trkpt>
<trkpt lat="48.822563169524074" lon="9.855083422735332">
<ele>431.2</ele>
<time>2024-05-07T09:38:35Z</time>
</trkpt>
<trkpt lat="48.82259367965162" lon="9.85506816767156">
<ele>431.2</ele>
<time>2024-05-07T09:38:36Z</time>
</trkpt>
<trkpt lat="48.82262418977916" lon="9.855041429400444">
<ele>431.2</ele>
<time>2024-05-07T09:38:37Z</time>
</trkpt>
<trkpt lat="48.82265469990671" lon="9.855007147416472">
<ele>431.2</ele>
<time>2024-05-07T09:38:38Z</time>
</trkpt>
<trkpt lat="48.822677582502365" lon="9.85495182685554">
<ele>431.2</ele>
<time>2024-05-07T09:38:39Z</time>
</trkpt>
<trkpt lat="48.82270423695445" lon="9.854896506294608">
<ele>431.2</ele>
<time>2024-05-07T09:38:40Z</time>
</trkpt>
<trkpt lat="48.82272334769368" lon="9.854841185733676">
<ele>431.2</ele>
<time>2024-05-07T09:38:41Z</time>
</trkpt>
<trkpt lat="48.82274623028934" lon="9.854788715019822">
<ele>431.2</ele>
<time>2024-05-07T09:38:42Z</time>
</trkpt>
<trkpt lat="48.822769112885" lon="9.854728616774082">
<ele>431.2</ele>
<time>2024-05-07T09:38:43Z</time>
</trkpt>
<trkpt lat="48.82278822362423" lon="9.85467522405088">
<ele>431.2</ele>
<time>2024-05-07T09:38:44Z</time>
</trkpt>
<trkpt lat="48.822803478688" lon="9.854626609012485">
<ele>431.4</ele>
<time>2024-05-07T09:38:45Z</time>
</trkpt>
<trkpt lat="48.822818733751774" lon="9.854586543515325">
<ele>431.6</ele>
<time>2024-05-07T09:38:46Z</time>
</trkpt>
<trkpt lat="48.82283013314009" lon="9.854550333693624">
<ele>431.6</ele>
<time>2024-05-07T09:38:47Z</time>
</trkpt>
<trkpt lat="48.82284161634743" lon="9.854515045881271">
<ele>431.8</ele>
<time>2024-05-07T09:38:48Z</time>
</trkpt>
<trkpt lat="48.8228568714112" lon="9.85447975806892">
<ele>432</ele>
<time>2024-05-07T09:38:49Z</time>
</trkpt>
<trkpt lat="48.82287212647498" lon="9.854441620409489">
<ele>432</ele>
<time>2024-05-07T09:38:50Z</time>
</trkpt>
<trkpt lat="48.822891153395176" lon="9.85439677722752">
<ele>432.2</ele>
<time>2024-05-07T09:38:51Z</time>
</trkpt>
<trkpt lat="48.82290649227798" lon="9.854345312342048">
<ele>432.2</ele>
<time>2024-05-07T09:38:52Z</time>
</trkpt>
<trkpt lat="48.82292174734175" lon="9.854281358420849">
<ele>432.2</ele>
<time>2024-05-07T09:38:53Z</time>
</trkpt>
<trkpt lat="48.82294077426195" lon="9.85421841032803">
<ele>432.4</ele>
<time>2024-05-07T09:38:54Z</time>
</trkpt>
<trkpt lat="48.82295988500118" lon="9.854156468063591">
<ele>432.4</ele>
<time>2024-05-07T09:38:55Z</time>
</trkpt>
<trkpt lat="48.822971284389496" lon="9.854098297655582">
<ele>432.6</ele>
<time>2024-05-07T09:38:56Z</time>
</trkpt>
<trkpt lat="48.82298653945327" lon="9.85404490493238">
<ele>432.8</ele>
<time>2024-05-07T09:38:57Z</time>
</trkpt>
<trkpt lat="48.8230056501925" lon="9.853998133912684">
<ele>432.8</ele>
<time>2024-05-07T09:38:58Z</time>
</trkpt>
<trkpt lat="48.82302090525627" lon="9.853950440883636">
<ele>433</ele>
<time>2024-05-07T09:38:59Z</time>
</trkpt>
<trkpt lat="48.82303993217647" lon="9.853903753682973">
<ele>433.2</ele>
<time>2024-05-07T09:39:00Z</time>
</trkpt>
<trkpt lat="48.82306667044759" lon="9.853859832510352">
<ele>433.4</ele>
<time>2024-05-07T09:39:01Z</time>
</trkpt>
<trkpt lat="48.823089553043246" lon="9.853816917166114">
<ele>433.6</ele>
<time>2024-05-07T09:39:02Z</time>
</trkpt>
<trkpt lat="48.823112435638905" lon="9.853771151974795">
<ele>433.8</ele>
<time>2024-05-07T09:39:03Z</time>
</trkpt>
<trkpt lat="48.82313917391002" lon="9.85372630879283">
<ele>433.8</ele>
<time>2024-05-07T09:39:04Z</time>
</trkpt>
<trkpt lat="48.82316582836211" lon="9.8536863271147">
<ele>434</ele>
<time>2024-05-07T09:39:05Z</time>
</trkpt>
<trkpt lat="48.823192566633224" lon="9.85364810563624">
<ele>434.2</ele>
<time>2024-05-07T09:39:06Z</time>
</trkpt>
<trkpt lat="48.82321922108531" lon="9.853614745661616">
<ele>434.2</ele>
<time>2024-05-07T09:39:07Z</time>
</trkpt>
<trkpt lat="48.823249815031886" lon="9.85358809120953">
<ele>434.4</ele>
<time>2024-05-07T09:39:08Z</time>
</trkpt>
<trkpt lat="48.82328032515943" lon="9.85356705263257">
<ele>434.4</ele>
<time>2024-05-07T09:39:09Z</time>
</trkpt>
<trkpt lat="48.823310835286975" lon="9.85354701988399">
<ele>434.6</ele>
<time>2024-05-07T09:39:10Z</time>
</trkpt>
<trkpt lat="48.82334134541452" lon="9.85352698713541">
<ele>434.6</ele>
<time>2024-05-07T09:39:11Z</time>
</trkpt>
<trkpt lat="48.82337562739849" lon="9.853507038205862">
<ele>434.8</ele>
<time>2024-05-07T09:39:12Z</time>
</trkpt>
<trkpt lat="48.823409993201494" lon="9.85348985530436">
<ele>434.8</ele>
<time>2024-05-07T09:39:13Z</time>
</trkpt>
<trkpt lat="48.8234443590045" lon="9.853480299934745">
<ele>435</ele>
<time>2024-05-07T09:39:14Z</time>
</trkpt>
<trkpt lat="48.82347864098847" lon="9.85347175039351">
<ele>435.2</ele>
<time>2024-05-07T09:39:15Z</time>
</trkpt>
<trkpt lat="48.8235167786479" lon="9.853463117033243">
<ele>435.4</ele>
<time>2024-05-07T09:39:16Z</time>
</trkpt>
<trkpt lat="48.8235511444509" lon="9.8534497898072">
<ele>435.6</ele>
<time>2024-05-07T09:39:17Z</time>
</trkpt>
<trkpt lat="48.82358928211033" lon="9.853441156446934">
<ele>435.6</ele>
<time>2024-05-07T09:39:18Z</time>
</trkpt>
<trkpt lat="48.82362364791334" lon="9.85343168489635">
<ele>435.8</ele>
<time>2024-05-07T09:39:19Z</time>
</trkpt>
<trkpt lat="48.82366178557277" lon="9.853420201689003">
<ele>436</ele>
<time>2024-05-07T09:39:20Z</time>
</trkpt>
<trkpt lat="48.82369606755674" lon="9.853408802300692">
<ele>436.2</ele>
<time>2024-05-07T09:39:21Z</time>
</trkpt>
<trkpt lat="48.82373043335974" lon="9.853398241102695">
<ele>436.2</ele>
<time>2024-05-07T09:39:22Z</time>
</trkpt>
<trkpt lat="48.823764799162745" lon="9.853386841714382">
<ele>436.4</ele>
<time>2024-05-07T09:39:23Z</time>
</trkpt>
<trkpt lat="48.82379908114672" lon="9.85337351448834">
<ele>436.6</ele>
<time>2024-05-07T09:39:24Z</time>
</trkpt>
<trkpt lat="48.82383344694972" lon="9.853356331586838">
<ele>436.6</ele>
<time>2024-05-07T09:39:25Z</time>
</trkpt>
<trkpt lat="48.823863957077265" lon="9.853343004360797">
<ele>436.8</ele>
<time>2024-05-07T09:39:26Z</time>
</trkpt>
<trkpt lat="48.82389823906123" lon="9.85332959331572">
<ele>437</ele>
<time>2024-05-07T09:39:27Z</time>
</trkpt>
<trkpt lat="48.82392883300781" lon="9.853316266089678">
<ele>437</ele>
<time>2024-05-07T09:39:28Z</time>
</trkpt>
<trkpt lat="48.82395934313536" lon="9.853302938863637">
<ele>437.2</ele>
<time>2024-05-07T09:39:29Z</time>
</trkpt>
<trkpt lat="48.8239898532629" lon="9.85328952781856">
<ele>437.4</ele>
<time>2024-05-07T09:39:30Z</time>
</trkpt>
<trkpt lat="48.824020363390446" lon="9.853278128430247">
<ele>437.6</ele>
<time>2024-05-07T09:39:31Z</time>
</trkpt>
<trkpt lat="48.82405464537442" lon="9.853266645222902">
<ele>437.8</ele>
<time>2024-05-07T09:39:32Z</time>
</trkpt>
<trkpt lat="48.82408515550196" lon="9.853256167843938">
<ele>438</ele>
<time>2024-05-07T09:39:33Z</time>
</trkpt>
<trkpt lat="48.82411574944854" lon="9.85325139015913">
<ele>438.2</ele>
<time>2024-05-07T09:39:34Z</time>
</trkpt>
<trkpt lat="48.82414625957608" lon="9.853246612474322">
<ele>438.2</ele>
<time>2024-05-07T09:39:35Z</time>
</trkpt>
<trkpt lat="48.824180541560054" lon="9.853241918608546">
<ele>438.4</ele>
<time>2024-05-07T09:39:36Z</time>
</trkpt>
<trkpt lat="48.82421490736306" lon="9.853235213086007">
<ele>438.6</ele>
<time>2024-05-07T09:39:37Z</time>
</trkpt>
<trkpt lat="48.82424918934703" lon="9.853219958022237">
<ele>438.8</ele>
<time>2024-05-07T09:39:38Z</time>
</trkpt>
<trkpt lat="48.82428741082549" lon="9.853197997435927">
<ele>438.8</ele>
<time>2024-05-07T09:39:39Z</time>
</trkpt>
<trkpt lat="48.824317920953035" lon="9.853164637461305">
<ele>438.8</ele>
<time>2024-05-07T09:39:40Z</time>
</trkpt>
<trkpt lat="48.82434843108058" lon="9.853126499801874">
<ele>438.8</ele>
<time>2024-05-07T09:39:41Z</time>
</trkpt>
<trkpt lat="48.824375085532665" lon="9.853084506466985">
<ele>438.8</ele>
<time>2024-05-07T09:39:42Z</time>
</trkpt>
<trkpt lat="48.82440182380378" lon="9.853043518960476">
<ele>438.8</ele>
<time>2024-05-07T09:39:43Z</time>
</trkpt>
<trkpt lat="48.82442847825587" lon="9.852998675778508">
<ele>439</ele>
<time>2024-05-07T09:39:44Z</time>
</trkpt>
<trkpt lat="48.824455216526985" lon="9.85295483842492">
<ele>439</ele>
<time>2024-05-07T09:39:45Z</time>
</trkpt>
<trkpt lat="48.8244819547981" lon="9.852906223386526">
<ele>439</ele>
<time>2024-05-07T09:39:46Z</time>
</trkpt>
<trkpt lat="48.82452009245753" lon="9.852863308042288">
<ele>439</ele>
<time>2024-05-07T09:39:47Z</time>
</trkpt>
<trkpt lat="48.82456200197339" lon="9.852825086563826">
<ele>438.8</ele>
<time>2024-05-07T09:39:48Z</time>
</trkpt>
<trkpt lat="48.82460776716471" lon="9.852791726589205">
<ele>438.8</ele>
<time>2024-05-07T09:39:49Z</time>
</trkpt>
<trkpt lat="48.82466124370694" lon="9.852769849821923">
<ele>438.6</ele>
<time>2024-05-07T09:39:50Z</time>
</trkpt>
<trkpt lat="48.82471840828657" lon="9.85276029445231">
<ele>438.6</ele>
<time>2024-05-07T09:39:51Z</time>
</trkpt>
<trkpt lat="48.82477942854166" lon="9.852741183713078">
<ele>438.4</ele>
<time>2024-05-07T09:39:52Z</time>
</trkpt>
<trkpt lat="48.82482904940843" lon="9.852704973891376">
<ele>438.2</ele>
<time>2024-05-07T09:39:53Z</time>
</trkpt>
<trkpt lat="48.824871042743325" lon="9.852656358852984">
<ele>438</ele>
<time>2024-05-07T09:39:54Z</time>
</trkpt>
<trkpt lat="48.82490155287087" lon="9.852584777399898">
<ele>437.8</ele>
<time>2024-05-07T09:39:55Z</time>
</trkpt>
<trkpt lat="48.824928207322955" lon="9.852510429918766">
<ele>437.6</ele>
<time>2024-05-07T09:39:56Z</time>
</trkpt>
<trkpt lat="48.82495880126953" lon="9.852435076609254">
<ele>437.4</ele>
<time>2024-05-07T09:39:57Z</time>
</trkpt>
<trkpt lat="48.82499693892896" lon="9.852365422993898">
<ele>437.2</ele>
<time>2024-05-07T09:39:58Z</time>
</trkpt>
<trkpt lat="48.82503884844482" lon="9.852298703044651">
<ele>437</ele>
<time>2024-05-07T09:39:59Z</time>
</trkpt>
<trkpt lat="48.82508084177971" lon="9.852234832942486">
<ele>436.8</ele>
<time>2024-05-07T09:40:00Z</time>
</trkpt>
<trkpt lat="48.825126606971025" lon="9.852174734696746">
<ele>436.6</ele>
<time>2024-05-07T09:40:01Z</time>
</trkpt>
<trkpt lat="48.82517237216234" lon="9.85212318599224">
<ele>436.4</ele>
<time>2024-05-07T09:40:02Z</time>
</trkpt>
<trkpt lat="48.82522962056101" lon="9.852081276476383">
<ele>436.2</ele>
<time>2024-05-07T09:40:03Z</time>
</trkpt>
<trkpt lat="48.82529064081609" lon="9.852053616195915">
<ele>436</ele>
<time>2024-05-07T09:40:04Z</time>
</trkpt>
<trkpt lat="48.82534026168287" lon="9.852034505456686">
<ele>435.8</ele>
<time>2024-05-07T09:40:05Z</time>
</trkpt>
<trkpt lat="48.82538979873061" lon="9.852011622861028">
<ele>435.8</ele>
<time>2024-05-07T09:40:06Z</time>
</trkpt>
<trkpt lat="48.825443191453815" lon="9.851983040571213">
<ele>435.6</ele>
<time>2024-05-07T09:40:07Z</time>
</trkpt>
<trkpt lat="48.82549666799605" lon="9.851962085813284">
<ele>435.6</ele>
<time>2024-05-07T09:40:08Z</time>
</trkpt>
<trkpt lat="48.82555006071925" lon="9.851942975074053">
<ele>435.4</ele>
<time>2024-05-07T09:40:09Z</time>
</trkpt>
<trkpt lat="48.825603453442454" lon="9.851933419704435">
<ele>435.4</ele>
<time>2024-05-07T09:40:10Z</time>
</trkpt>
<trkpt lat="48.82566447369754" lon="9.851926798000932">
<ele>435.2</ele>
<time>2024-05-07T09:40:11Z</time>
</trkpt>
<trkpt lat="48.825721722096205" lon="9.851924870163202">
<ele>435.2</ele>
<time>2024-05-07T09:40:12Z</time>
</trkpt>
<trkpt lat="48.82577511481941" lon="9.85192864201963">
<ele>435.2</ele>
<time>2024-05-07T09:40:13Z</time>
</trkpt>
<trkpt lat="48.82582850754261" lon="9.851936269551516">
<ele>435.2</ele>
<time>2024-05-07T09:40:14Z</time>
</trkpt>
<trkpt lat="48.82588190026581" lon="9.851951524615288">
<ele>435</ele>
<time>2024-05-07T09:40:15Z</time>
</trkpt>
<trkpt lat="48.825939148664474" lon="9.851962085813284">
<ele>434.8</ele>
<time>2024-05-07T09:40:16Z</time>
</trkpt>
<trkpt lat="48.825996397063136" lon="9.85196870751679">
<ele>434.8</ele>
<time>2024-05-07T09:40:17Z</time>
</trkpt>
<trkpt lat="48.82604978978634" lon="9.851975413039328">
<ele>434.6</ele>
<time>2024-05-07T09:40:18Z</time>
</trkpt>
<trkpt lat="48.82610318250954" lon="9.851978262886403">
<ele>434.4</ele>
<time>2024-05-07T09:40:19Z</time>
</trkpt>
<trkpt lat="48.8261604309082" lon="9.851983040571213">
<ele>434.2</ele>
<time>2024-05-07T09:40:20Z</time>
</trkpt>
<trkpt lat="48.826213823631406" lon="9.85198974609375">
<ele>434.2</ele>
<time>2024-05-07T09:40:21Z</time>
</trkpt>
<trkpt lat="48.82626721635461" lon="9.851995445787908">
<ele>434</ele>
<time>2024-05-07T09:40:22Z</time>
</trkpt>
<trkpt lat="48.82632060907781" lon="9.851998295634983">
<ele>434</ele>
<time>2024-05-07T09:40:23Z</time>
</trkpt>
<trkpt lat="48.826374001801014" lon="9.852001145482063">
<ele>433.8</ele>
<time>2024-05-07T09:40:24Z</time>
</trkpt>
<trkpt lat="48.82642739452422" lon="9.85200877301395">
<ele>433.8</ele>
<time>2024-05-07T09:40:25Z</time>
</trkpt>
<trkpt lat="48.82648078724742" lon="9.852018328383563">
<ele>433.8</ele>
<time>2024-05-07T09:40:26Z</time>
</trkpt>
<trkpt lat="48.826534263789654" lon="9.852029727771878">
<ele>433.8</ele>
<time>2024-05-07T09:40:27Z</time>
</trkpt>
<trkpt lat="48.82658765651286" lon="9.85204498283565">
<ele>433.8</ele>
<time>2024-05-07T09:40:28Z</time>
</trkpt>
<trkpt lat="48.82664104923606" lon="9.852054538205266">
<ele>433.6</ele>
<time>2024-05-07T09:40:29Z</time>
</trkpt>
<trkpt lat="48.826686814427376" lon="9.85206694342196">
<ele>433.6</ele>
<time>2024-05-07T09:40:30Z</time>
</trkpt>
<trkpt lat="48.82673643529415" lon="9.852078426629305">
<ele>433.6</ele>
<time>2024-05-07T09:40:31Z</time>
</trkpt>
<trkpt lat="48.826785972341895" lon="9.852089826017618">
<ele>433.6</ele>
<time>2024-05-07T09:40:32Z</time>
</trkpt>
<trkpt lat="48.82683559320867" lon="9.85210508108139">
<ele>433.6</ele>
<time>2024-05-07T09:40:33Z</time>
</trkpt>
<trkpt lat="48.82688135839999" lon="9.852121341973543">
<ele>433.6</ele>
<time>2024-05-07T09:40:34Z</time>
</trkpt>
<trkpt lat="48.82693097926676" lon="9.852134669199586">
<ele>433.6</ele>
<time>2024-05-07T09:40:35Z</time>
</trkpt>
<trkpt lat="48.82697674445808" lon="9.85214707441628">
<ele>433.8</ele>
<time>2024-05-07T09:40:36Z</time>
</trkpt>
<trkpt lat="48.82702250964939" lon="9.852158473804591">
<ele>434</ele>
<time>2024-05-07T09:40:37Z</time>
</trkpt>
<trkpt lat="48.82706827484071" lon="9.852169957011938">
<ele>434.2</ele>
<time>2024-05-07T09:40:38Z</time>
</trkpt>
<trkpt lat="48.82711404003203" lon="9.852176662534475">
<ele>434.2</ele>
<time>2024-05-07T09:40:39Z</time>
</trkpt>
<trkpt lat="48.827159805223346" lon="9.85218521207571">
<ele>434.4</ele>
<time>2024-05-07T09:40:40Z</time>
</trkpt>
<trkpt lat="48.827201798558235" lon="9.852193761616943">
<ele>434.4</ele>
<time>2024-05-07T09:40:41Z</time>
</trkpt>
<trkpt lat="48.827243791893125" lon="9.85220331698656">
<ele>434.6</ele>
<time>2024-05-07T09:40:42Z</time>
</trkpt>
<trkpt lat="48.82728955708444" lon="9.852212872356176">
<ele>434.6</ele>
<time>2024-05-07T09:40:43Z</time>
</trkpt>
<trkpt lat="48.8273314666003" lon="9.85222619958222">
<ele>434.8</ele>
<time>2024-05-07T09:40:44Z</time>
</trkpt>
<trkpt lat="48.82737345993519" lon="9.852238604798911">
<ele>435</ele>
<time>2024-05-07T09:40:45Z</time>
</trkpt>
<trkpt lat="48.827419225126505" lon="9.852250088006258">
<ele>435</ele>
<time>2024-05-07T09:40:46Z</time>
</trkpt>
<trkpt lat="48.82746499031782" lon="9.852259559556842">
<ele>435.2</ele>
<time>2024-05-07T09:40:47Z</time>
</trkpt>
<trkpt lat="48.82750698365271" lon="9.852270120754838">
<ele>435.2</ele>
<time>2024-05-07T09:40:48Z</time>
</trkpt>
<trkpt lat="48.8275489769876" lon="9.852279592305422">
<ele>435.4</ele>
<time>2024-05-07T09:40:49Z</time>
</trkpt>
<trkpt lat="48.82759474217892" lon="9.852290153503418">
<ele>435.6</ele>
<time>2024-05-07T09:40:50Z</time>
</trkpt>
<trkpt lat="48.827636651694775" lon="9.852299625054002">
<ele>435.6</ele>
<time>2024-05-07T09:40:51Z</time>
</trkpt>
<trkpt lat="48.82768241688609" lon="9.852310102432966">
<ele>435.6</ele>
<time>2024-05-07T09:40:52Z</time>
</trkpt>
<trkpt lat="48.82772441022098" lon="9.852319657802582">
<ele>435.8</ele>
<time>2024-05-07T09:40:53Z</time>
</trkpt>
<trkpt lat="48.82776640355587" lon="9.852331141009929">
<ele>435.8</ele>
<time>2024-05-07T09:40:54Z</time>
</trkpt>
<trkpt lat="48.82781216874719" lon="9.85234446823597">
<ele>435.8</ele>
<time>2024-05-07T09:40:55Z</time>
</trkpt>
<trkpt lat="48.82785407826304" lon="9.852356873452663">
<ele>436</ele>
<time>2024-05-07T09:40:56Z</time>
</trkpt>
<trkpt lat="48.82789992727339" lon="9.85236642882228">
<ele>436.2</ele>
<time>2024-05-07T09:40:57Z</time>
</trkpt>
<trkpt lat="48.82794183678925" lon="9.852376906201243">
<ele>436.2</ele>
<time>2024-05-07T09:40:58Z</time>
</trkpt>
<trkpt lat="48.82798383012414" lon="9.85238646157086">
<ele>436.2</ele>
<time>2024-05-07T09:40:59Z</time>
</trkpt>
<trkpt lat="48.828029595315456" lon="9.852396938949823">
<ele>436.4</ele>
<time>2024-05-07T09:41:00Z</time>
</trkpt>
<trkpt lat="48.828071588650346" lon="9.852408338338137">
<ele>436.6</ele>
<time>2024-05-07T09:41:01Z</time>
</trkpt>
<trkpt lat="48.8281134981662" lon="9.852419821545482">
<ele>436.8</ele>
<time>2024-05-07T09:41:02Z</time>
</trkpt>
<trkpt lat="48.82815926335752" lon="9.852430298924446">
<ele>436.8</ele>
<time>2024-05-07T09:41:03Z</time>
</trkpt>
<trkpt lat="48.82820125669241" lon="9.852439854294062">
<ele>437</ele>
<time>2024-05-07T09:41:04Z</time>
</trkpt>
<trkpt lat="48.8282432500273" lon="9.852451253682377">
<ele>437.2</ele>
<time>2024-05-07T09:41:05Z</time>
</trkpt>
<trkpt lat="48.82828515954316" lon="9.852463658899069">
<ele>437.4</ele>
<time>2024-05-07T09:41:06Z</time>
</trkpt>
<trkpt lat="48.82833092473447" lon="9.852475142106414">
<ele>437.4</ele>
<time>2024-05-07T09:41:07Z</time>
</trkpt>
<trkpt lat="48.82837291806936" lon="9.852483691647649">
<ele>437.6</ele>
<time>2024-05-07T09:41:08Z</time>
</trkpt>
<trkpt lat="48.82841491140425" lon="9.852493247017264">
<ele>437.6</ele>
<time>2024-05-07T09:41:09Z</time>
</trkpt>
<trkpt lat="48.82845682092011" lon="9.852503724396229">
<ele>437.6</ele>
<time>2024-05-07T09:41:10Z</time>
</trkpt>
<trkpt lat="48.828502586111426" lon="9.852513279765844">
<ele>437.8</ele>
<time>2024-05-07T09:41:11Z</time>
</trkpt>
<trkpt lat="48.82854457944632" lon="9.852523757144809">
<ele>437.8</ele>
<time>2024-05-07T09:41:12Z</time>
</trkpt>
<trkpt lat="48.828586572781205" lon="9.852533312514424">
<ele>438</ele>
<time>2024-05-07T09:41:13Z</time>
</trkpt>
<trkpt lat="48.82862848229706" lon="9.852544711902738">
<ele>438</ele>
<time>2024-05-07T09:41:14Z</time>
</trkpt>
<trkpt lat="48.82866661995649" lon="9.852555273100734">
<ele>438.2</ele>
<time>2024-05-07T09:41:15Z</time>
</trkpt>
<trkpt lat="48.82870861329138" lon="9.85256290063262">
<ele>438.2</ele>
<time>2024-05-07T09:41:16Z</time>
</trkpt>
<trkpt lat="48.82875060662627" lon="9.852571450173857">
<ele>438.4</ele>
<time>2024-05-07T09:41:17Z</time>
</trkpt>
<trkpt lat="48.8287887442857" lon="9.85257999971509">
<ele>438.4</ele>
<time>2024-05-07T09:41:18Z</time>
</trkpt>
<trkpt lat="48.82883065380156" lon="9.852586705237629">
<ele>438.4</ele>
<time>2024-05-07T09:41:19Z</time>
</trkpt>
<trkpt lat="48.82887264713645" lon="9.852593410760164">
<ele>438.6</ele>
<time>2024-05-07T09:41:20Z</time>
</trkpt>
<trkpt lat="48.82891464047134" lon="9.852604810148478">
<ele>438.6</ele>
<time>2024-05-07T09:41:21Z</time>
</trkpt>
<trkpt lat="48.8289565499872" lon="9.85261813737452">
<ele>438.6</ele>
<time>2024-05-07T09:41:22Z</time>
</trkpt>
<trkpt lat="48.82900231517851" lon="9.852631548419597">
<ele>438.6</ele>
<time>2024-05-07T09:41:23Z</time>
</trkpt>
<trkpt lat="48.8290443085134" lon="9.852642947807908">
<ele>438.6</ele>
<time>2024-05-07T09:41:24Z</time>
</trkpt>
<trkpt lat="48.82909007370472" lon="9.852653425186872">
<ele>438.6</ele>
<time>2024-05-07T09:41:25Z</time>
</trkpt>
<trkpt lat="48.82913206703961" lon="9.852662980556488">
<ele>438.6</ele>
<time>2024-05-07T09:41:26Z</time>
</trkpt>
<trkpt lat="48.829177832230926" lon="9.852671613916756">
<ele>438.6</ele>
<time>2024-05-07T09:41:27Z</time>
</trkpt>
<trkpt lat="48.82922736927867" lon="9.852683013305068">
<ele>438.6</ele>
<time>2024-05-07T09:41:28Z</time>
</trkpt>
<trkpt lat="48.82927321828902" lon="9.852695418521762">
<ele>438.8</ele>
<time>2024-05-07T09:41:29Z</time>
</trkpt>
<trkpt lat="48.82932275533676" lon="9.852706901729109">
<ele>438.8</ele>
<time>2024-05-07T09:41:30Z</time>
</trkpt>
<trkpt lat="48.82936852052808" lon="9.85271637327969">
<ele>438.8</ele>
<time>2024-05-07T09:41:31Z</time>
</trkpt>
<trkpt lat="48.829418141394854" lon="9.852729784324763">
<ele>439</ele>
<time>2024-05-07T09:41:32Z</time>
</trkpt>
<trkpt lat="48.82946776226163" lon="9.852743111550808">
<ele>439</ele>
<time>2024-05-07T09:41:33Z</time>
</trkpt>
<trkpt lat="48.82951729930937" lon="9.85275643877685">
<ele>439.2</ele>
<time>2024-05-07T09:41:34Z</time>
</trkpt>
<trkpt lat="48.829570692032576" lon="9.852767921984196">
<ele>439.2</ele>
<time>2024-05-07T09:41:35Z</time>
</trkpt>
<trkpt lat="48.82962031289935" lon="9.85278032720089">
<ele>439.2</ele>
<time>2024-05-07T09:41:36Z</time>
</trkpt>
<trkpt lat="48.82967756129801" lon="9.852793654426932">
<ele>439.2</ele>
<time>2024-05-07T09:41:37Z</time>
</trkpt>
<trkpt lat="48.829730954021215" lon="9.852806981652977">
<ele>439.2</ele>
<time>2024-05-07T09:41:38Z</time>
</trkpt>
<trkpt lat="48.82978820241988" lon="9.85282039269805">
<ele>439.2</ele>
<time>2024-05-07T09:41:39Z</time>
</trkpt>
<trkpt lat="48.82984536699951" lon="9.852831792086365">
<ele>439</ele>
<time>2024-05-07T09:41:40Z</time>
</trkpt>
<trkpt lat="48.82990261539817" lon="9.852841347455978">
<ele>439</ele>
<time>2024-05-07T09:41:41Z</time>
</trkpt>
<trkpt lat="48.82995986379683" lon="9.852853752672672">
<ele>438.8</ele>
<time>2024-05-07T09:41:42Z</time>
</trkpt>
<trkpt lat="48.83002088405192" lon="9.852863308042288">
<ele>438.8</ele>
<time>2024-05-07T09:41:43Z</time>
</trkpt>
<trkpt lat="48.83007804863155" lon="9.852872779592872">
<ele>438.6</ele>
<time>2024-05-07T09:41:44Z</time>
</trkpt>
<trkpt lat="48.8301429245621" lon="9.852883256971836">
<ele>438.4</ele>
<time>2024-05-07T09:41:45Z</time>
</trkpt>
<trkpt lat="48.83020780049264" lon="9.852893818169832">
<ele>438.4</ele>
<time>2024-05-07T09:41:46Z</time>
</trkpt>
<trkpt lat="48.83026882074773" lon="9.85289859585464">
<ele>438.4</ele>
<time>2024-05-07T09:41:47Z</time>
</trkpt>
<trkpt lat="48.83033369667828" lon="9.85289474017918">
<ele>438.4</ele>
<time>2024-05-07T09:41:48Z</time>
</trkpt>
<trkpt lat="48.8303984887898" lon="9.852886190637946">
<ele>438.4</ele>
<time>2024-05-07T09:41:49Z</time>
</trkpt>
<trkpt lat="48.83045959286392" lon="9.85287663526833">
<ele>438.4</ele>
<time>2024-05-07T09:41:50Z</time>
</trkpt>
<trkpt lat="48.83051675744355" lon="9.852869929745792">
<ele>438.4</ele>
<time>2024-05-07T09:41:51Z</time>
</trkpt>
<trkpt lat="48.83056637831032" lon="9.852859452366827">
<ele>438.4</ele>
<time>2024-05-07T09:41:52Z</time>
</trkpt>
<trkpt lat="48.830619771033525" lon="9.852851824834945">
<ele>438.4</ele>
<time>2024-05-07T09:41:53Z</time>
</trkpt>
<trkpt lat="48.8306693919003" lon="9.85283656977117">
<ele>438.2</ele>
<time>2024-05-07T09:41:54Z</time>
</trkpt>
<trkpt lat="48.83071130141616" lon="9.85282039269805">
<ele>438.4</ele>
<time>2024-05-07T09:41:55Z</time>
</trkpt>
<trkpt lat="48.83075329475105" lon="9.852801281958818">
<ele>438.4</ele>
<time>2024-05-07T09:41:56Z</time>
</trkpt>
<trkpt lat="48.83079143241048" lon="9.852785104885696">
<ele>438.6</ele>
<time>2024-05-07T09:41:57Z</time>
</trkpt>
<trkpt lat="48.83083342574537" lon="9.852767921984196">
<ele>438.6</ele>
<time>2024-05-07T09:41:58Z</time>
</trkpt>
<trkpt lat="48.83086770772934" lon="9.852749817073343">
<ele>438.8</ele>
<time>2024-05-07T09:41:59Z</time>
</trkpt>
<trkpt lat="48.83090584538877" lon="9.85273640602827">
<ele>438.8</ele>
<time>2024-05-07T09:42:00Z</time>
</trkpt>
<trkpt lat="48.83094021119177" lon="9.85272022895515">
<ele>438.8</ele>
<time>2024-05-07T09:42:01Z</time>
</trkpt>
<trkpt lat="48.8309783488512" lon="9.85270111821592">
<ele>439</ele>
<time>2024-05-07T09:42:02Z</time>
</trkpt>
<trkpt lat="48.83100885897875" lon="9.852683013305068">
<ele>439.2</ele>
<time>2024-05-07T09:42:03Z</time>
</trkpt>
<trkpt lat="48.83104322478175" lon="9.85266205854714">
<ele>439.4</ele>
<time>2024-05-07T09:42:04Z</time>
</trkpt>
<trkpt lat="48.83107750676572" lon="9.85264009796083">
<ele>439.6</ele>
<time>2024-05-07T09:42:05Z</time>
</trkpt>
<trkpt lat="48.83111187256873" lon="9.852615287527442">
<ele>439.6</ele>
<time>2024-05-07T09:42:06Z</time>
</trkpt>
<trkpt lat="48.83114623837173" lon="9.852589555084704">
<ele>439.8</ele>
<time>2024-05-07T09:42:07Z</time>
</trkpt>
<trkpt lat="48.8311805203557" lon="9.85256290063262">
<ele>440</ele>
<time>2024-05-07T09:42:08Z</time>
</trkpt>
<trkpt lat="48.831214886158705" lon="9.852537084370852">
<ele>440.2</ele>
<time>2024-05-07T09:42:09Z</time>
</trkpt>
<trkpt lat="48.831253023818135" lon="9.852510429918766">
<ele>440.4</ele>
<time>2024-05-07T09:42:10Z</time>
</trkpt>
<trkpt lat="48.83128353394568" lon="9.852477991953492">
<ele>440.6</ele>
<time>2024-05-07T09:42:11Z</time>
</trkpt>
<trkpt lat="48.83131789974868" lon="9.85244463197887">
<ele>440.8</ele>
<time>2024-05-07T09:42:12Z</time>
</trkpt>
<trkpt lat="48.831352181732655" lon="9.852411188185217">
<ele>441</ele>
<time>2024-05-07T09:42:13Z</time>
</trkpt>
<trkpt lat="48.83138654753566" lon="9.852379756048322">
<ele>441.2</ele>
<time>2024-05-07T09:42:14Z</time>
</trkpt>
<trkpt lat="48.83142468519509" lon="9.852348323911428">
<ele>441.2</ele>
<time>2024-05-07T09:42:15Z</time>
</trkpt>
<trkpt lat="48.83145896717906" lon="9.852318735793231">
<ele>441.4</ele>
<time>2024-05-07T09:42:16Z</time>
</trkpt>
<trkpt lat="48.83149333298206" lon="9.85228629782796">
<ele>441.4</ele>
<time>2024-05-07T09:42:17Z</time>
</trkpt>
<trkpt lat="48.831531470641494" lon="9.852252937853336">
<ele>441.6</ele>
<time>2024-05-07T09:42:18Z</time>
</trkpt>
<trkpt lat="48.8315658364445" lon="9.852219577878714">
<ele>441.8</ele>
<time>2024-05-07T09:42:19Z</time>
</trkpt>
<trkpt lat="48.83160011842847" lon="9.852188061922789">
<ele>441.8</ele>
<time>2024-05-07T09:42:20Z</time>
</trkpt>
<trkpt lat="48.8316382560879" lon="9.852156629785895">
<ele>442</ele>
<time>2024-05-07T09:42:21Z</time>
</trkpt>
<trkpt lat="48.8316726218909" lon="9.8521270416677">
<ele>442</ele>
<time>2024-05-07T09:42:22Z</time>
</trkpt>
<trkpt lat="48.831706987693906" lon="9.852096531540155">
<ele>442.2</ele>
<time>2024-05-07T09:42:23Z</time>
</trkpt>
<trkpt lat="48.831745125353336" lon="9.85206694342196">
<ele>442.2</ele>
<time>2024-05-07T09:42:24Z</time>
</trkpt>
<trkpt lat="48.83177940733731" lon="9.852034505456686">
<ele>442.4</ele>
<time>2024-05-07T09:42:25Z</time>
</trkpt>
<trkpt lat="48.83181754499674" lon="9.852001145482063">
<ele>442.4</ele>
<time>2024-05-07T09:42:26Z</time>
</trkpt>
<trkpt lat="48.8318557664752" lon="9.85196677967906">
<ele>442.6</ele>
<time>2024-05-07T09:42:27Z</time>
</trkpt>
<trkpt lat="48.83189004845917" lon="9.851933419704435">
<ele>442.8</ele>
<time>2024-05-07T09:42:28Z</time>
</trkpt>
<trkpt lat="48.831924414262176" lon="9.851901987567544">
<ele>443</ele>
<time>2024-05-07T09:42:29Z</time>
</trkpt>
<trkpt lat="48.831962551921606" lon="9.85187147744">
<ele>443.2</ele>
<time>2024-05-07T09:42:30Z</time>
</trkpt>
<trkpt lat="48.83199691772461" lon="9.851841889321804">
<ele>443.2</ele>
<time>2024-05-07T09:42:31Z</time>
</trkpt>
<trkpt lat="48.83203505538404" lon="9.851813307031987">
<ele>443.4</ele>
<time>2024-05-07T09:42:32Z</time>
</trkpt>
<trkpt lat="48.832065565511584" lon="9.851783718913794">
<ele>443.4</ele>
<time>2024-05-07T09:42:33Z</time>
</trkpt>
<trkpt lat="48.83209984749555" lon="9.85175128094852">
<ele>443.4</ele>
<time>2024-05-07T09:42:34Z</time>
</trkpt>
<trkpt lat="48.83213421329856" lon="9.851719848811626">
<ele>443.6</ele>
<time>2024-05-07T09:42:35Z</time>
</trkpt>
<trkpt lat="48.83216857910156" lon="9.8516883328557">
<ele>443.6</ele>
<time>2024-05-07T09:42:36Z</time>
</trkpt>
<trkpt lat="48.832202861085534" lon="9.851657822728155">
<ele>443.6</ele>
<time>2024-05-07T09:42:37Z</time>
</trkpt>
<trkpt lat="48.832240998744965" lon="9.851626390591264">
<ele>443.8</ele>
<time>2024-05-07T09:42:38Z</time>
</trkpt>
<trkpt lat="48.83227536454797" lon="9.85159487463534">
<ele>443.8</ele>
<time>2024-05-07T09:42:39Z</time>
</trkpt>
<trkpt lat="48.8323135022074" lon="9.851563442498446">
<ele>444</ele>
<time>2024-05-07T09:42:40Z</time>
</trkpt>
<trkpt lat="48.8323478680104" lon="9.851528154686092">
<ele>444</ele>
<time>2024-05-07T09:42:41Z</time>
</trkpt>
<trkpt lat="48.83238214999437" lon="9.85149378888309">
<ele>444.2</ele>
<time>2024-05-07T09:42:42Z</time>
</trkpt>
<trkpt lat="48.83241651579738" lon="9.851456573233008">
<ele>444.4</ele>
<time>2024-05-07T09:42:43Z</time>
</trkpt>
<trkpt lat="48.83244702592492" lon="9.851421285420656">
<ele>444.4</ele>
<time>2024-05-07T09:42:44Z</time>
</trkpt>
<trkpt lat="48.83248130790889" lon="9.851387003436685">
<ele>444.4</ele>
<time>2024-05-07T09:42:45Z</time>
</trkpt>
<trkpt lat="48.832515673711896" lon="9.851349787786605">
<ele>444.6</ele>
<time>2024-05-07T09:42:46Z</time>
</trkpt>
<trkpt lat="48.83254618383944" lon="9.851311650127172">
<ele>444.6</ele>
<time>2024-05-07T09:42:47Z</time>
</trkpt>
<trkpt lat="48.832576693966985" lon="9.851269656792285">
<ele>444.8</ele>
<time>2024-05-07T09:42:48Z</time>
</trkpt>
<trkpt lat="48.83260720409453" lon="9.851228669285774">
<ele>444.8</ele>
<time>2024-05-07T09:42:49Z</time>
</trkpt>
<trkpt lat="48.832637714222074" lon="9.851184831932189">
<ele>445</ele>
<time>2024-05-07T09:42:50Z</time>
</trkpt>
<trkpt lat="48.83266822434962" lon="9.85113998875022">
<ele>445</ele>
<time>2024-05-07T09:42:51Z</time>
</trkpt>
<trkpt lat="48.832694962620735" lon="9.851093217730522">
<ele>445.2</ele>
<time>2024-05-07T09:42:52Z</time>
</trkpt>
<trkpt lat="48.83272547274828" lon="9.851044602692127">
<ele>445.4</ele>
<time>2024-05-07T09:42:53Z</time>
</trkpt>
<trkpt lat="48.8327522110194" lon="9.850994981825352">
<ele>445.6</ele>
<time>2024-05-07T09:42:54Z</time>
</trkpt>
<trkpt lat="48.83277886547148" lon="9.850943516939878">
<ele>445.8</ele>
<time>2024-05-07T09:42:55Z</time>
</trkpt>
<trkpt lat="48.8328056037426" lon="9.850890124216676">
<ele>445.8</ele>
<time>2024-05-07T09:42:56Z</time>
</trkpt>
<trkpt lat="48.83282848633826" lon="9.850834803655744">
<ele>446</ele>
<time>2024-05-07T09:42:57Z</time>
</trkpt>
<trkpt lat="48.83285136893392" lon="9.85078040510416">
<ele>446.2</ele>
<time>2024-05-07T09:42:58Z</time>
</trkpt>
<trkpt lat="48.83287047967315" lon="9.850720390677452">
<ele>446.2</ele>
<time>2024-05-07T09:42:59Z</time>
</trkpt>
<trkpt lat="48.832893362268806" lon="9.850658364593984">
<ele>446.2</ele>
<time>2024-05-07T09:43:00Z</time>
</trkpt>
<trkpt lat="48.832912389189005" lon="9.850598266348245">
<ele>446.2</ele>
<time>2024-05-07T09:43:01Z</time>
</trkpt>
<trkpt lat="48.83293149992824" lon="9.850536324083803">
<ele>446.4</ele>
<time>2024-05-07T09:43:02Z</time>
</trkpt>
<trkpt lat="48.83294675499201" lon="9.850473375990989">
<ele>446.4</ele>
<time>2024-05-07T09:43:03Z</time>
</trkpt>
<trkpt lat="48.83295815438032" lon="9.85040850006044">
<ele>446.4</ele>
<time>2024-05-07T09:43:04Z</time>
</trkpt>
<trkpt lat="48.832973409444094" lon="9.850344629958272">
<ele>446.4</ele>
<time>2024-05-07T09:43:05Z</time>
</trkpt>
<trkpt lat="48.832988664507866" lon="9.850279754027724">
<ele>446.6</ele>
<time>2024-05-07T09:43:06Z</time>
</trkpt>
<trkpt lat="48.83300014771521" lon="9.85021303407848">
<ele>446.6</ele>
<time>2024-05-07T09:43:07Z</time>
</trkpt>
<trkpt lat="48.8330077752471" lon="9.850146230310202">
<ele>446.6</ele>
<time>2024-05-07T09:43:08Z</time>
</trkpt>
<trkpt lat="48.83301540277898" lon="9.850076660513878">
<ele>446.6</ele>
<time>2024-05-07T09:43:09Z</time>
</trkpt>
<trkpt lat="48.83302303031087" lon="9.850005079060791">
<ele>446.6</ele>
<time>2024-05-07T09:43:10Z</time>
</trkpt>
<trkpt lat="48.83302303031087" lon="9.84993165358901">
<ele>446.6</ele>
<time>2024-05-07T09:43:11Z</time>
</trkpt>
<trkpt lat="48.833030657842755" lon="9.849856300279498">
<ele>446.4</ele>
<time>2024-05-07T09:43:12Z</time>
</trkpt>
<trkpt lat="48.833030657842755" lon="9.849780024960635">
<ele>446.4</ele>
<time>2024-05-07T09:43:13Z</time>
</trkpt>
<trkpt lat="48.833030657842755" lon="9.849701821804048">
<ele>446.4</ele>
<time>2024-05-07T09:43:14Z</time>
</trkpt>
<trkpt lat="48.833030657842755" lon="9.849621690809728">
<ele>446.2</ele>
<time>2024-05-07T09:43:15Z</time>
</trkpt>
<trkpt lat="48.83302303031087" lon="9.849539715796707">
<ele>446.2</ele>
<time>2024-05-07T09:43:16Z</time>
</trkpt>
<trkpt lat="48.83301540277898" lon="9.84945673495531">
<ele>446</ele>
<time>2024-05-07T09:43:17Z</time>
</trkpt>
<trkpt lat="48.8330077752471" lon="9.849374759942291">
<ele>445.8</ele>
<time>2024-05-07T09:43:18Z</time>
</trkpt>
<trkpt lat="48.83300014771521" lon="9.849291779100897">
<ele>445.8</ele>
<time>2024-05-07T09:43:19Z</time>
</trkpt>
<trkpt lat="48.832988664507866" lon="9.849208798259497">
<ele>445.6</ele>
<time>2024-05-07T09:43:20Z</time>
</trkpt>
<trkpt lat="48.83297726511955" lon="9.849128667265177">
<ele>445.6</ele>
<time>2024-05-07T09:43:21Z</time>
</trkpt>
<trkpt lat="48.83296578191221" lon="9.84904669225216">
<ele>445.4</ele>
<time>2024-05-07T09:43:22Z</time>
</trkpt>
<trkpt lat="48.832954382523894" lon="9.84896371141076">
<ele>445.4</ele>
<time>2024-05-07T09:43:23Z</time>
</trkpt>
<trkpt lat="48.83294289931655" lon="9.848879808560014">
<ele>445.4</ele>
<time>2024-05-07T09:43:24Z</time>
</trkpt>
<trkpt lat="48.83293149992824" lon="9.848798671737311">
<ele>445.2</ele>
<time>2024-05-07T09:43:25Z</time>
</trkpt>
<trkpt lat="48.83292387239635" lon="9.848721474409103">
<ele>445.2</ele>
<time>2024-05-07T09:43:26Z</time>
</trkpt>
<trkpt lat="48.832912389189005" lon="9.848645199090242">
<ele>445.2</ele>
<time>2024-05-07T09:43:27Z</time>
</trkpt>
<trkpt lat="48.83290476165712" lon="9.84857177361846">
<ele>445.2</ele>
<time>2024-05-07T09:43:28Z</time>
</trkpt>
<trkpt lat="48.832893362268806" lon="9.848496420308948">
<ele>445.2</ele>
<time>2024-05-07T09:43:29Z</time>
</trkpt>
<trkpt lat="48.83287810720503" lon="9.848422994837165">
<ele>445.2</ele>
<time>2024-05-07T09:43:30Z</time>
</trkpt>
<trkpt lat="48.83286662399769" lon="9.848349569365382">
<ele>445.2</ele>
<time>2024-05-07T09:43:31Z</time>
</trkpt>
<trkpt lat="48.8328589964658" lon="9.848277065902948">
<ele>445.2</ele>
<time>2024-05-07T09:43:32Z</time>
</trkpt>
<trkpt lat="48.83284751325846" lon="9.848208418115972">
<ele>445.2</ele>
<time>2024-05-07T09:43:33Z</time>
</trkpt>
<trkpt lat="48.83283988572657" lon="9.848138764500618">
<ele>445.2</ele>
<time>2024-05-07T09:43:34Z</time>
</trkpt>
<trkpt lat="48.83282848633826" lon="9.848068188875914">
<ele>445.2</ele>
<time>2024-05-07T09:43:35Z</time>
</trkpt>
<trkpt lat="48.8328246306628" lon="9.84799954108894">
<ele>445.2</ele>
<time>2024-05-07T09:43:36Z</time>
</trkpt>
<trkpt lat="48.83281700313091" lon="9.847931815311313">
<ele>445.2</ele>
<time>2024-05-07T09:43:37Z</time>
</trkpt>
<trkpt lat="48.83281700313091" lon="9.847869873046877">
<ele>445.2</ele>
<time>2024-05-07T09:43:38Z</time>
</trkpt>
<trkpt lat="48.83281700313091" lon="9.847806924954057">
<ele>445.2</ele>
<time>2024-05-07T09:43:39Z</time>
</trkpt>
<trkpt lat="48.83282085880637" lon="9.847746826708317">
<ele>445.2</ele>
<time>2024-05-07T09:43:40Z</time>
</trkpt>
<trkpt lat="48.83282848633826" lon="9.847689578309655">
<ele>445.2</ele>
<time>2024-05-07T09:43:41Z</time>
</trkpt>
<trkpt lat="48.83283988572657" lon="9.847626630216835">
<ele>445.2</ele>
<time>2024-05-07T09:43:42Z</time>
</trkpt>
<trkpt lat="48.832855224609375" lon="9.84756368212402">
<ele>445.2</ele>
<time>2024-05-07T09:43:43Z</time>
</trkpt>
<trkpt lat="48.83288950659335" lon="9.847511211410165">
<ele>445.2</ele>
<time>2024-05-07T09:43:44Z</time>
</trkpt>
<trkpt lat="48.83292764425278" lon="9.847468296065928">
<ele>445.2</ele>
<time>2024-05-07T09:43:45Z</time>
</trkpt>
<trkpt lat="48.83296963758767" lon="9.847436863929032">
<ele>445.2</ele>
<time>2024-05-07T09:43:46Z</time>
</trkpt>
<trkpt lat="48.83301154710352" lon="9.847410125657916">
<ele>445.2</ele>
<time>2024-05-07T09:43:47Z</time>
</trkpt>
<trkpt lat="48.833053540438414" lon="9.847386321052907">
<ele>445.4</ele>
<time>2024-05-07T09:43:48Z</time>
</trkpt>
<trkpt lat="48.83309167809784" lon="9.84736536629498">
<ele>445.4</ele>
<time>2024-05-07T09:43:49Z</time>
</trkpt>
<trkpt lat="48.833129815757275" lon="9.847346255555747">
<ele>445.4</ele>
<time>2024-05-07T09:43:50Z</time>
</trkpt>
<trkpt lat="48.833167953416705" lon="9.847336700186132">
<ele>445.6</ele>
<time>2024-05-07T09:43:51Z</time>
</trkpt>
<trkpt lat="48.83320231921971" lon="9.84732144512236">
<ele>445.6</ele>
<time>2024-05-07T09:43:52Z</time>
</trkpt>
<trkpt lat="48.83323668502271" lon="9.847311973571776">
<ele>445.6</ele>
<time>2024-05-07T09:43:53Z</time>
</trkpt>
<trkpt lat="48.8332633394748" lon="9.847299568355083">
<ele>445.8</ele>
<time>2024-05-07T09:43:54Z</time>
</trkpt>
<trkpt lat="48.833290077745914" lon="9.847286157310007">
<ele>446</ele>
<time>2024-05-07T09:43:55Z</time>
</trkpt>
<trkpt lat="48.833316732198" lon="9.847274757921696">
<ele>446.2</ele>
<time>2024-05-07T09:43:56Z</time>
</trkpt>
<trkpt lat="48.833347242325544" lon="9.847259502857924">
<ele>446.4</ele>
<time>2024-05-07T09:43:57Z</time>
</trkpt>
<trkpt lat="48.83338160812855" lon="9.847238464280965">
<ele>446.6</ele>
<time>2024-05-07T09:43:58Z</time>
</trkpt>
<trkpt lat="48.83341211825609" lon="9.847218431532385">
<ele>446.8</ele>
<time>2024-05-07T09:43:59Z</time>
</trkpt>
<trkpt lat="48.833446484059095" lon="9.847196554765103">
<ele>447</ele>
<time>2024-05-07T09:44:00Z</time>
</trkpt>
<trkpt lat="48.83348076604307" lon="9.847169816493988">
<ele>447</ele>
<time>2024-05-07T09:44:01Z</time>
</trkpt>
<trkpt lat="48.83351513184607" lon="9.847143162041904">
<ele>447.2</ele>
<time>2024-05-07T09:44:02Z</time>
</trkpt>
<trkpt lat="48.8335532695055" lon="9.847111646085978">
<ele>447.4</ele>
<time>2024-05-07T09:44:03Z</time>
</trkpt>
<trkpt lat="48.83359140716493" lon="9.847071580588818">
<ele>447.4</ele>
<time>2024-05-07T09:44:04Z</time>
</trkpt>
<trkpt lat="48.83362954482436" lon="9.847026821225882">
<ele>447.4</ele>
<time>2024-05-07T09:44:05Z</time>
</trkpt>
<trkpt lat="48.83367153815925" lon="9.846976278349755">
<ele>447.6</ele>
<time>2024-05-07T09:44:06Z</time>
</trkpt>
<trkpt lat="48.83371353149414" lon="9.846918024122717">
<ele>447.6</ele>
<time>2024-05-07T09:44:07Z</time>
</trkpt>
<trkpt lat="48.83375544101" lon="9.846855159848928">
<ele>447.6</ele>
<time>2024-05-07T09:44:08Z</time>
</trkpt>
<trkpt lat="48.833805061876774" lon="9.846781650558114">
<ele>447.4</ele>
<time>2024-05-07T09:44:09Z</time>
</trkpt>
<trkpt lat="48.83385459892452" lon="9.846705375239251">
<ele>447.4</ele>
<time>2024-05-07T09:44:10Z</time>
</trkpt>
<trkpt lat="48.83390421979129" lon="9.846623400226235">
<ele>447.2</ele>
<time>2024-05-07T09:44:11Z</time>
</trkpt>
<trkpt lat="48.833961468189955" lon="9.846541341394186">
<ele>446.8</ele>
<time>2024-05-07T09:44:12Z</time>
</trkpt>
<trkpt lat="48.83402626030147" lon="9.846471771597862">
<ele>446.8</ele>
<time>2024-05-07T09:44:13Z</time>
</trkpt>
<trkpt lat="48.83409499190748" lon="9.846411673352122">
<ele>446.4</ele>
<time>2024-05-07T09:44:14Z</time>
</trkpt>
<trkpt lat="48.83415978401899" lon="9.846361130475998">
<ele>446.2</ele>
<time>2024-05-07T09:44:15Z</time>
</trkpt>
<trkpt lat="48.83423228748143" lon="9.846324920654297">
<ele>445.8</ele>
<time>2024-05-07T09:44:16Z</time>
</trkpt>
<trkpt lat="48.83430479094386" lon="9.84630011022091">
<ele>445.6</ele>
<time>2024-05-07T09:44:17Z</time>
</trkpt>
<trkpt lat="48.83438106626272" lon="9.846284855157135">
<ele>445.2</ele>
<time>2024-05-07T09:44:18Z</time>
</trkpt>
<trkpt lat="48.8344497140497" lon="9.846273371949792">
<ele>444.8</ele>
<time>2024-05-07T09:44:19Z</time>
</trkpt>
<trkpt lat="48.83452598936856" lon="9.846269600093365">
<ele>444.6</ele>
<time>2024-05-07T09:44:20Z</time>
</trkpt>
<trkpt lat="48.83459849283099" lon="9.846271444112062">
<ele>444.4</ele>
<time>2024-05-07T09:44:21Z</time>
</trkpt>
<trkpt lat="48.83467476814985" lon="9.8462781496346">
<ele>444.2</ele>
<time>2024-05-07T09:44:22Z</time>
</trkpt>
<trkpt lat="48.83474727161229" lon="9.84628200531006">
<ele>443.8</ele>
<time>2024-05-07T09:44:23Z</time>
</trkpt>
<trkpt lat="48.83481591939926" lon="9.846286699175836">
<ele>443.6</ele>
<time>2024-05-07T09:44:24Z</time>
</trkpt>
<trkpt lat="48.83488456718624" lon="9.846288627013564">
<ele>443.4</ele>
<time>2024-05-07T09:44:25Z</time>
</trkpt>
<trkpt lat="48.83494567126036" lon="9.846289632841945">
<ele>443.4</ele>
<time>2024-05-07T09:44:26Z</time>
</trkpt>
<trkpt lat="48.835006691515446" lon="9.846286699175836">
<ele>443.2</ele>
<time>2024-05-07T09:44:27Z</time>
</trkpt>
<trkpt lat="48.835067711770535" lon="9.84628007747233">
<ele>443.2</ele>
<time>2024-05-07T09:44:28Z</time>
</trkpt>
<trkpt lat="48.8351249601692" lon="9.846271444112062">
<ele>443</ele>
<time>2024-05-07T09:44:29Z</time>
</trkpt>
<trkpt lat="48.835185980424285" lon="9.84625618904829">
<ele>442.8</ele>
<time>2024-05-07T09:44:30Z</time>
</trkpt>
<trkpt lat="48.835243145003915" lon="9.84624001197517">
<ele>442.8</ele>
<time>2024-05-07T09:44:31Z</time>
</trkpt>
<trkpt lat="48.83529662154615" lon="9.846223751083016">
<ele>442.6</ele>
<time>2024-05-07T09:44:32Z</time>
</trkpt>
<trkpt lat="48.83535378612578" lon="9.846208496019244">
<ele>442.4</ele>
<time>2024-05-07T09:44:33Z</time>
</trkpt>
<trkpt lat="48.835403406992555" lon="9.846191396936774">
<ele>442.4</ele>
<time>2024-05-07T09:44:34Z</time>
</trkpt>
<trkpt lat="48.83545679971576" lon="9.846173208206892">
<ele>442.2</ele>
<time>2024-05-07T09:44:35Z</time>
</trkpt>
<trkpt lat="48.83551019243896" lon="9.846151331439614">
<ele>442.2</ele>
<time>2024-05-07T09:44:36Z</time>
</trkpt>
<trkpt lat="48.835559813305736" lon="9.846126521006228">
<ele>442.2</ele>
<time>2024-05-07T09:44:37Z</time>
</trkpt>
<trkpt lat="48.83560557849705" lon="9.84610171057284">
<ele>442</ele>
<time>2024-05-07T09:44:38Z</time>
</trkpt>
<trkpt lat="48.83565519936383" lon="9.846076900139453">
<ele>442</ele>
<time>2024-05-07T09:44:39Z</time>
</trkpt>
<trkpt lat="48.83570473641157" lon="9.846053095534444">
<ele>442</ele>
<time>2024-05-07T09:44:40Z</time>
</trkpt>
<trkpt lat="48.83575050160289" lon="9.846031134948134">
<ele>442</ele>
<time>2024-05-07T09:44:41Z</time>
</trkpt>
<trkpt lat="48.835800122469664" lon="9.846008252352476">
<ele>442</ele>
<time>2024-05-07T09:44:42Z</time>
</trkpt>
<trkpt lat="48.83584974333644" lon="9.845983441919088">
<ele>442</ele>
<time>2024-05-07T09:44:43Z</time>
</trkpt>
<trkpt lat="48.83589550852776" lon="9.845956787467005">
<ele>442</ele>
<time>2024-05-07T09:44:44Z</time>
</trkpt>
<trkpt lat="48.83594512939453" lon="9.845930049195886">
<ele>442</ele>
<time>2024-05-07T09:44:45Z</time>
</trkpt>
<trkpt lat="48.83599089458585" lon="9.84589953906834">
<ele>442</ele>
<time>2024-05-07T09:44:46Z</time>
</trkpt>
<trkpt lat="48.836036659777164" lon="9.845871878787875">
<ele>442</ele>
<time>2024-05-07T09:44:47Z</time>
</trkpt>
<trkpt lat="48.83608619682491" lon="9.84584136866033">
<ele>442</ele>
<time>2024-05-07T09:44:48Z</time>
</trkpt>
<trkpt lat="48.83613204583526" lon="9.845811780542135">
<ele>442</ele>
<time>2024-05-07T09:44:49Z</time>
</trkpt>
<trkpt lat="48.836181582883" lon="9.84578127041459">
<ele>442</ele>
<time>2024-05-07T09:44:50Z</time>
</trkpt>
<trkpt lat="48.836231203749776" lon="9.845749838277698">
<ele>442</ele>
<time>2024-05-07T09:44:51Z</time>
</trkpt>
<trkpt lat="48.83627696894109" lon="9.845714550465344">
<ele>442</ele>
<time>2024-05-07T09:44:52Z</time>
</trkpt>
<trkpt lat="48.83632273413241" lon="9.845678256824613">
<ele>442</ele>
<time>2024-05-07T09:44:53Z</time>
</trkpt>
<trkpt lat="48.836368499323726" lon="9.845640119165182">
<ele>442</ele>
<time>2024-05-07T09:44:54Z</time>
</trkpt>
<trkpt lat="48.8364181201905" lon="9.845601981505752">
<ele>442</ele>
<time>2024-05-07T09:44:55Z</time>
</trkpt>
<trkpt lat="48.83646388538182" lon="9.845562921836972">
<ele>442</ele>
<time>2024-05-07T09:44:56Z</time>
</trkpt>
<trkpt lat="48.836509650573134" lon="9.84552662819624">
<ele>442</ele>
<time>2024-05-07T09:44:57Z</time>
</trkpt>
<trkpt lat="48.83655541576445" lon="9.845491340383887">
<ele>442.2</ele>
<time>2024-05-07T09:44:58Z</time>
</trkpt>
<trkpt lat="48.83660118095577" lon="9.845457058399916">
<ele>442.2</ele>
<time>2024-05-07T09:44:59Z</time>
</trkpt>
<trkpt lat="48.83664317429066" lon="9.845423698425291">
<ele>442.2</ele>
<time>2024-05-07T09:45:00Z</time>
</trkpt>
<trkpt lat="48.83668516762555" lon="9.84538841061294">
<ele>442.2</ele>
<time>2024-05-07T09:45:01Z</time>
</trkpt>
<trkpt lat="48.83672707714141" lon="9.845356894657016">
<ele>442.2</ele>
<time>2024-05-07T09:45:02Z</time>
</trkpt>
<trkpt lat="48.836769070476294" lon="9.845325462520124">
<ele>442</ele>
<time>2024-05-07T09:45:03Z</time>
</trkpt>
<trkpt lat="48.83680720813573" lon="9.845296796411276">
<ele>442</ele>
<time>2024-05-07T09:45:04Z</time>
</trkpt>
<trkpt lat="48.83684157393873" lon="9.845266286283731">
<ele>442</ele>
<time>2024-05-07T09:45:05Z</time>
</trkpt>
<trkpt lat="48.83687971159816" lon="9.845234854146838">
<ele>442</ele>
<time>2024-05-07T09:45:06Z</time>
</trkpt>
<trkpt lat="48.83691784925759" lon="9.845205266028644">
<ele>442</ele>
<time>2024-05-07T09:45:07Z</time>
</trkpt>
<trkpt lat="48.83695598691702" lon="9.845179533585906">
<ele>442</ele>
<time>2024-05-07T09:45:08Z</time>
</trkpt>
<trkpt lat="48.83699035272002" lon="9.845163272693751">
<ele>442</ele>
<time>2024-05-07T09:45:09Z</time>
</trkpt>
<trkpt lat="48.83702849037945" lon="9.84515380114317">
<ele>442</ele>
<time>2024-05-07T09:45:10Z</time>
</trkpt>
<trkpt lat="48.83706662803888" lon="9.84514994546771">
<ele>442</ele>
<time>2024-05-07T09:45:11Z</time>
</trkpt>
<trkpt lat="48.837104765698314" lon="9.845156650990248">
<ele>442.2</ele>
<time>2024-05-07T09:45:12Z</time>
</trkpt>
<trkpt lat="48.8371467590332" lon="9.84516997821629">
<ele>442.2</ele>
<time>2024-05-07T09:45:13Z</time>
</trkpt>
<trkpt lat="48.83718866854906" lon="9.845185233280064">
<ele>442.4</ele>
<time>2024-05-07T09:45:14Z</time>
</trkpt>
<trkpt lat="48.83722680620849" lon="9.845201410353184">
<ele>442.4</ele>
<time>2024-05-07T09:45:15Z</time>
</trkpt>
<trkpt lat="48.83726494386792" lon="9.845223370939491">
<ele>442.6</ele>
<time>2024-05-07T09:45:16Z</time>
</trkpt>
<trkpt lat="48.837299309670925" lon="9.84525203704834">
<ele>442.6</ele>
<time>2024-05-07T09:45:17Z</time>
</trkpt>
<trkpt lat="48.83733367547393" lon="9.845279613509774">
<ele>442.8</ele>
<time>2024-05-07T09:45:18Z</time>
</trkpt>
<trkpt lat="48.83736418560147" lon="9.84531020745635">
<ele>442.8</ele>
<time>2024-05-07T09:45:19Z</time>
</trkpt>
<trkpt lat="48.83739846758544" lon="9.845344489440322">
<ele>443</ele>
<time>2024-05-07T09:45:20Z</time>
</trkpt>
<trkpt lat="48.83742520585656" lon="9.845377849414945">
<ele>443</ele>
<time>2024-05-07T09:45:21Z</time>
</trkpt>
<trkpt lat="48.83745186030865" lon="9.845413137227297">
<ele>443</ele>
<time>2024-05-07T09:45:22Z</time>
</trkpt>
<trkpt lat="48.83747859857976" lon="9.845444653183222">
<ele>443.2</ele>
<time>2024-05-07T09:45:23Z</time>
</trkpt>
<trkpt lat="48.83750910870731" lon="9.845470385625958">
<ele>443.4</ele>
<time>2024-05-07T09:45:24Z</time>
</trkpt>
<trkpt lat="48.837535846978426" lon="9.845473235473037">
<ele>443.6</ele>
<time>2024-05-07T09:45:25Z</time>
</trkpt>
<trkpt lat="48.83755872957408" lon="9.845450352877378">
<ele>443.6</ele>
<time>2024-05-07T09:45:26Z</time>
</trkpt>
<trkpt lat="48.83758161216974" lon="9.8454112932086">
<ele>443.8</ele>
<time>2024-05-07T09:45:27Z</time>
</trkpt>
<trkpt lat="48.837593011558056" lon="9.845363600179551">
<ele>444</ele>
<time>2024-05-07T09:45:28Z</time>
</trkpt>
<trkpt lat="48.8376044947654" lon="9.845299646258354">
<ele>444.2</ele>
<time>2024-05-07T09:45:29Z</time>
</trkpt>
<trkpt lat="48.83760826662183" lon="9.845238626003264">
<ele>444.2</ele>
<time>2024-05-07T09:45:30Z</time>
</trkpt>
<trkpt lat="48.83760826662183" lon="9.845172828063369">
<ele>444.4</ele>
<time>2024-05-07T09:45:31Z</time>
</trkpt>
<trkpt lat="48.83761212229729" lon="9.845105102285745">
<ele>444.4</ele>
<time>2024-05-07T09:45:32Z</time>
</trkpt>
<trkpt lat="48.837615894153714" lon="9.845043160021303">
<ele>444.4</ele>
<time>2024-05-07T09:45:33Z</time>
</trkpt>
<trkpt lat="48.83761974982917" lon="9.844987839460371">
<ele>444.4</ele>
<time>2024-05-07T09:45:34Z</time>
</trkpt>
<trkpt lat="48.83761974982917" lon="9.844942074269056">
<ele>444.2</ele>
<time>2024-05-07T09:45:35Z</time>
</trkpt>
<trkpt lat="48.837615894153714" lon="9.844902008771896">
<ele>444.2</ele>
<time>2024-05-07T09:45:36Z</time>
</trkpt>
<trkpt lat="48.83761212229729" lon="9.84485624358058">
<ele>444</ele>
<time>2024-05-07T09:45:37Z</time>
</trkpt>
<trkpt lat="48.837615894153714" lon="9.84481332823634">
<ele>443.8</ele>
<time>2024-05-07T09:45:38Z</time>
</trkpt>
<trkpt lat="48.83761974982917" lon="9.844766557216644">
<ele>443.6</ele>
<time>2024-05-07T09:45:39Z</time>
</trkpt>
<trkpt lat="48.83762737736106" lon="9.84471987001598">
<ele>443.4</ele>
<time>2024-05-07T09:45:40Z</time>
</trkpt>
<trkpt lat="48.83764263242483" lon="9.844691203907132">
<ele>443.2</ele>
<time>2024-05-07T09:45:41Z</time>
</trkpt>
<trkpt lat="48.83766174316406" lon="9.844675026834013">
<ele>443</ele>
<time>2024-05-07T09:45:42Z</time>
</trkpt>
<trkpt lat="48.837673142552376" lon="9.844668321311474">
<ele>442.8</ele>
<time>2024-05-07T09:45:43Z</time>
</trkpt>
<trkpt lat="48.83768839761615" lon="9.844668321311474">
<ele>442.4</ele>
<time>2024-05-07T09:45:44Z</time>
</trkpt>
<trkpt lat="48.837696025148034" lon="9.844671171158552">
<ele>442.2</ele>
<time>2024-05-07T09:45:45Z</time>
</trkpt>
<trkpt lat="48.837711280211806" lon="9.844663543626666">
<ele>442</ele>
<time>2024-05-07T09:45:46Z</time>
</trkpt>
<trkpt lat="48.83772653527558" lon="9.844654994085433">
<ele>441.6</ele>
<time>2024-05-07T09:45:47Z</time>
</trkpt>
<trkpt lat="48.83774564601481" lon="9.844644516706468">
<ele>441.4</ele>
<time>2024-05-07T09:45:48Z</time>
</trkpt>
<trkpt lat="48.837776156142354" lon="9.844664549455048">
<ele>441.4</ele>
<time>2024-05-07T09:45:49Z</time>
</trkpt>
<trkpt lat="48.8378066662699" lon="9.844683576375246">
<ele>441.2</ele>
<time>2024-05-07T09:45:50Z</time>
</trkpt>
<trkpt lat="48.8378410320729" lon="9.844695059582593">
<ele>441.2</ele>
<time>2024-05-07T09:45:51Z</time>
</trkpt>
<trkpt lat="48.83786391466856" lon="9.844683576375246">
<ele>441.4</ele>
<time>2024-05-07T09:45:52Z</time>
</trkpt>
<trkpt lat="48.83788679726422" lon="9.844654994085433">
<ele>441.4</ele>
<time>2024-05-07T09:45:53Z</time>
</trkpt>
<trkpt lat="48.83789819665253" lon="9.844616856426">
<ele>441.6</ele>
<time>2024-05-07T09:45:54Z</time>
</trkpt>
<trkpt lat="48.837913451716304" lon="9.844568241387606">
<ele>441.6</ele>
<time>2024-05-07T09:45:55Z</time>
</trkpt>
<trkpt lat="48.83792870678008" lon="9.844512920826674">
<ele>441.8</ele>
<time>2024-05-07T09:45:56Z</time>
</trkpt>
<trkpt lat="48.837932562455535" lon="9.844448044896126">
<ele>442</ele>
<time>2024-05-07T09:45:57Z</time>
</trkpt>
<trkpt lat="48.83793633431196" lon="9.844387024641035">
<ele>442.2</ele>
<time>2024-05-07T09:45:58Z</time>
</trkpt>
<trkpt lat="48.83794396184385" lon="9.844324998557568">
<ele>442.4</ele>
<time>2024-05-07T09:45:59Z</time>
</trkpt>
<trkpt lat="48.83794396184385" lon="9.84426498413086">
<ele>442.6</ele>
<time>2024-05-07T09:46:00Z</time>
</trkpt>
<trkpt lat="48.837951589375734" lon="9.844208657741548">
<ele>442.6</ele>
<time>2024-05-07T09:46:01Z</time>
</trkpt>
<trkpt lat="48.83795921690762" lon="9.844158114865422">
<ele>442.8</ele>
<time>2024-05-07T09:46:02Z</time>
</trkpt>
<trkpt lat="48.83796684443951" lon="9.844110421836376">
<ele>443</ele>
<time>2024-05-07T09:46:03Z</time>
</trkpt>
<trkpt lat="48.837970700114965" lon="9.844058034941554">
<ele>443.2</ele>
<time>2024-05-07T09:46:04Z</time>
</trkpt>
<trkpt lat="48.83797447197139" lon="9.84400363638997">
<ele>443.4</ele>
<time>2024-05-07T09:46:05Z</time>
</trkpt>
<trkpt lat="48.83797832764685" lon="9.84394638799131">
<ele>443.6</ele>
<time>2024-05-07T09:46:06Z</time>
</trkpt>
<trkpt lat="48.83797832764685" lon="9.8438882175833">
<ele>443.8</ele>
<time>2024-05-07T09:46:07Z</time>
</trkpt>
<trkpt lat="48.83798209950328" lon="9.843831975013018">
<ele>444</ele>
<time>2024-05-07T09:46:08Z</time>
</trkpt>
<trkpt lat="48.83798595517874" lon="9.843774726614356">
<ele>444.2</ele>
<time>2024-05-07T09:46:09Z</time>
</trkpt>
<trkpt lat="48.837989727035165" lon="9.843718484044077">
<ele>444.2</ele>
<time>2024-05-07T09:46:10Z</time>
</trkpt>
<trkpt lat="48.837989727035165" lon="9.843663163483145">
<ele>444.4</ele>
<time>2024-05-07T09:46:11Z</time>
</trkpt>
<trkpt lat="48.837993582710624" lon="9.843604993075132">
<ele>444.6</ele>
<time>2024-05-07T09:46:12Z</time>
</trkpt>
<trkpt lat="48.83799735456705" lon="9.843548750504851">
<ele>444.6</ele>
<time>2024-05-07T09:46:13Z</time>
</trkpt>
<trkpt lat="48.83800121024251" lon="9.843496279790998">
<ele>444.8</ele>
<time>2024-05-07T09:46:14Z</time>
</trkpt>
<trkpt lat="48.83800506591797" lon="9.843440037220716">
<ele>444.8</ele>
<time>2024-05-07T09:46:15Z</time>
</trkpt>
<trkpt lat="48.83800506591797" lon="9.843379938974977">
<ele>444.8</ele>
<time>2024-05-07T09:46:16Z</time>
</trkpt>
<trkpt lat="48.838012693449855" lon="9.843321768566966">
<ele>445</ele>
<time>2024-05-07T09:46:17Z</time>
</trkpt>
<trkpt lat="48.83801646530628" lon="9.843256892636418">
<ele>445</ele>
<time>2024-05-07T09:46:18Z</time>
</trkpt>
<trkpt lat="48.83801646530628" lon="9.84319495037198">
<ele>445</ele>
<time>2024-05-07T09:46:19Z</time>
</trkpt>
<trkpt lat="48.83802032098174" lon="9.843143401667476">
<ele>445.2</ele>
<time>2024-05-07T09:46:20Z</time>
</trkpt>
<trkpt lat="48.838031720370054" lon="9.843085231259463">
<ele>445.2</ele>
<time>2024-05-07T09:46:21Z</time>
</trkpt>
<trkpt lat="48.83803557604551" lon="9.843025133013724">
<ele>445.4</ele>
<time>2024-05-07T09:46:22Z</time>
</trkpt>
<trkpt lat="48.8380432035774" lon="9.842966962605717">
<ele>445.4</ele>
<time>2024-05-07T09:46:23Z</time>
</trkpt>
<trkpt lat="48.83805845864117" lon="9.842906948179008">
<ele>445.4</ele>
<time>2024-05-07T09:46:24Z</time>
</trkpt>
<trkpt lat="48.83806608617306" lon="9.84284014441073">
<ele>445.4</ele>
<time>2024-05-07T09:46:25Z</time>
</trkpt>
<trkpt lat="48.838073713704944" lon="9.842775268480182">
<ele>445.4</ele>
<time>2024-05-07T09:46:26Z</time>
</trkpt>
<trkpt lat="48.83808134123683" lon="9.842704692855476">
<ele>445.2</ele>
<time>2024-05-07T09:46:27Z</time>
</trkpt>
<trkpt lat="48.83809274062514" lon="9.842637050896885">
<ele>445.2</ele>
<time>2024-05-07T09:46:28Z</time>
</trkpt>
<trkpt lat="48.83810036815703" lon="9.84256647527218">
<ele>445.2</ele>
<time>2024-05-07T09:46:29Z</time>
</trkpt>
<trkpt lat="48.838111851364374" lon="9.842498749494553">
<ele>445</ele>
<time>2024-05-07T09:46:30Z</time>
</trkpt>
<trkpt lat="48.83811947889626" lon="9.842428173869848">
<ele>445</ele>
<time>2024-05-07T09:46:31Z</time>
</trkpt>
<trkpt lat="48.838127106428146" lon="9.8423632979393">
<ele>445</ele>
<time>2024-05-07T09:46:32Z</time>
</trkpt>
<trkpt lat="48.83813473396003" lon="9.842301355674865">
<ele>445</ele>
<time>2024-05-07T09:46:33Z</time>
</trkpt>
<trkpt lat="48.838146133348346" lon="9.842241257429125">
<ele>444.8</ele>
<time>2024-05-07T09:46:34Z</time>
</trkpt>
<trkpt lat="48.83815761655569" lon="9.842163054272532">
<ele>444.8</ele>
<time>2024-05-07T09:46:35Z</time>
</trkpt>
<trkpt lat="48.838169015944" lon="9.84209155663848">
<ele>444.8</ele>
<time>2024-05-07T09:46:36Z</time>
</trkpt>
<trkpt lat="48.83818435482681" lon="9.842015197500588">
<ele>444.8</ele>
<time>2024-05-07T09:46:37Z</time>
</trkpt>
<trkpt lat="48.83819575421512" lon="9.841944621875882">
<ele>444.8</ele>
<time>2024-05-07T09:46:38Z</time>
</trkpt>
<trkpt lat="48.83820338174701" lon="9.841877901926637">
<ele>444.8</ele>
<time>2024-05-07T09:46:39Z</time>
</trkpt>
<trkpt lat="48.83821486495435" lon="9.841794921085238">
<ele>444.8</ele>
<time>2024-05-07T09:46:40Z</time>
</trkpt>
<trkpt lat="48.838226264342666" lon="9.841719567775726">
<ele>444.8</ele>
<time>2024-05-07T09:46:41Z</time>
</trkpt>
<trkpt lat="48.838230120018125" lon="9.841658547520638">
<ele>445</ele>
<time>2024-05-07T09:46:42Z</time>
</trkpt>
<trkpt lat="48.83824151940644" lon="9.841567939147351">
<ele>445</ele>
<time>2024-05-07T09:46:43Z</time>
</trkpt>
<trkpt lat="48.83824914693832" lon="9.841473558917642">
<ele>445.2</ele>
<time>2024-05-07T09:46:44Z</time>
</trkpt>
<trkpt lat="48.83825677447021" lon="9.841375323012471">
<ele>445.2</ele>
<time>2024-05-07T09:46:45Z</time>
</trkpt>
<trkpt lat="48.838264402002096" lon="9.841275159269571">
<ele>445.4</ele>
<time>2024-05-07T09:46:46Z</time>
</trkpt>
<trkpt lat="48.83827588520944" lon="9.841184550896289">
<ele>445.4</ele>
<time>2024-05-07T09:46:47Z</time>
</trkpt>
<trkpt lat="48.83827965706587" lon="9.841086314991117">
<ele>445.4</ele>
<time>2024-05-07T09:46:48Z</time>
</trkpt>
<trkpt lat="48.838287284597754" lon="9.840996712446213">
<ele>445.6</ele>
<time>2024-05-07T09:46:49Z</time>
</trkpt>
<trkpt lat="48.8382987678051" lon="9.840914653614163">
<ele>445.6</ele>
<time>2024-05-07T09:46:50Z</time>
</trkpt>
<trkpt lat="48.83831016719341" lon="9.840831756591797">
<ele>445.8</ele>
<time>2024-05-07T09:46:51Z</time>
</trkpt>
<trkpt lat="48.83832165040076" lon="9.840753553435206">
<ele>445.8</ele>
<time>2024-05-07T09:46:52Z</time>
</trkpt>
<trkpt lat="48.83833304978907" lon="9.840675350278616">
<ele>445.8</ele>
<time>2024-05-07T09:46:53Z</time>
</trkpt>
<trkpt lat="48.83834067732096" lon="9.840593291446568">
<ele>445.8</ele>
<time>2024-05-07T09:46:54Z</time>
</trkpt>
<trkpt lat="48.8383521605283" lon="9.840517016127706">
<ele>445.8</ele>
<time>2024-05-07T09:46:55Z</time>
</trkpt>
<trkpt lat="48.83835978806019" lon="9.840436885133386">
<ele>445.8</ele>
<time>2024-05-07T09:46:56Z</time>
</trkpt>
<trkpt lat="48.83837127126753" lon="9.840358681976795">
<ele>445.8</ele>
<time>2024-05-07T09:46:57Z</time>
</trkpt>
<trkpt lat="48.83837504312396" lon="9.840285256505013">
<ele>445.8</ele>
<time>2024-05-07T09:46:58Z</time>
</trkpt>
<trkpt lat="48.838386526331306" lon="9.8402099031955">
<ele>445.8</ele>
<time>2024-05-07T09:46:59Z</time>
</trkpt>
<trkpt lat="48.83839415386319" lon="9.840134549885988">
<ele>445.8</ele>
<time>2024-05-07T09:47:00Z</time>
</trkpt>
<trkpt lat="48.83840178139508" lon="9.840056346729398">
<ele>445.8</ele>
<time>2024-05-07T09:47:01Z</time>
</trkpt>
<trkpt lat="48.83841318078339" lon="9.839980071410537">
<ele>445.8</ele>
<time>2024-05-07T09:47:02Z</time>
</trkpt>
<trkpt lat="48.83843606337905" lon="9.839823665097356">
<ele>445.8</ele>
<time>2024-05-07T09:47:04Z</time>
</trkpt>
<trkpt lat="48.83843991905451" lon="9.839746467769146">
<ele>445.8</ele>
<time>2024-05-07T09:47:05Z</time>
</trkpt>
<trkpt lat="48.83845131844282" lon="9.839666336774826">
<ele>445.8</ele>
<time>2024-05-07T09:47:06Z</time>
</trkpt>
<trkpt lat="48.83845894597471" lon="9.839586205780506">
<ele>445.8</ele>
<time>2024-05-07T09:47:07Z</time>
</trkpt>
<trkpt lat="48.838466573506594" lon="9.839509930461643">
<ele>445.8</ele>
<time>2024-05-07T09:47:08Z</time>
</trkpt>
<trkpt lat="48.83847805671394" lon="9.839431727305056">
<ele>445.8</ele>
<time>2024-05-07T09:47:09Z</time>
</trkpt>
<trkpt lat="48.838485684245825" lon="9.839355451986194">
<ele>445.8</ele>
<time>2024-05-07T09:47:10Z</time>
</trkpt>
<trkpt lat="48.83849331177771" lon="9.839280098676682">
<ele>445.8</ele>
<time>2024-05-07T09:47:11Z</time>
</trkpt>
<trkpt lat="48.8385009393096" lon="9.83920281752944">
<ele>445.8</ele>
<time>2024-05-07T09:47:12Z</time>
</trkpt>
<trkpt lat="48.83850856684148" lon="9.839130397886038">
<ele>445.8</ele>
<time>2024-05-07T09:47:13Z</time>
</trkpt>
<trkpt lat="48.83851619437337" lon="9.839055044576526">
<ele>445.8</ele>
<time>2024-05-07T09:47:14Z</time>
</trkpt>
<trkpt lat="48.83852005004883" lon="9.838981619104745">
<ele>445.8</ele>
<time>2024-05-07T09:47:15Z</time>
</trkpt>
<trkpt lat="48.838523821905255" lon="9.83890626579523">
<ele>445.8</ele>
<time>2024-05-07T09:47:16Z</time>
</trkpt>
<trkpt lat="48.83853144943714" lon="9.838832840323448">
<ele>445.8</ele>
<time>2024-05-07T09:47:17Z</time>
</trkpt>
<trkpt lat="48.8385353051126" lon="9.838754637166858">
<ele>445.8</ele>
<time>2024-05-07T09:47:18Z</time>
</trkpt>
<trkpt lat="48.838542932644486" lon="9.838678278028963">
<ele>445.8</ele>
<time>2024-05-07T09:47:19Z</time>
</trkpt>
<trkpt lat="48.838546704500914" lon="9.838602002710104">
<ele>445.8</ele>
<time>2024-05-07T09:47:20Z</time>
</trkpt>
<trkpt lat="48.83855056017637" lon="9.838524805381894">
<ele>445.8</ele>
<time>2024-05-07T09:47:21Z</time>
</trkpt>
<trkpt lat="48.8385543320328" lon="9.838448446244">
<ele>445.8</ele>
<time>2024-05-07T09:47:22Z</time>
</trkpt>
<trkpt lat="48.83855818770826" lon="9.838371248915792">
<ele>445.8</ele>
<time>2024-05-07T09:47:23Z</time>
</trkpt>
<trkpt lat="48.838561959564686" lon="9.83829497359693">
<ele>445.8</ele>
<time>2024-05-07T09:47:24Z</time>
</trkpt>
<trkpt lat="48.838561959564686" lon="9.838218614459038">
<ele>445.8</ele>
<time>2024-05-07T09:47:25Z</time>
</trkpt>
<trkpt lat="48.838561959564686" lon="9.838143344968556">
<ele>445.8</ele>
<time>2024-05-07T09:47:26Z</time>
</trkpt>
<trkpt lat="48.838561959564686" lon="9.838067991659043">
<ele>445.8</ele>
<time>2024-05-07T09:47:27Z</time>
</trkpt>
<trkpt lat="48.838561959564686" lon="9.837993560358882">
<ele>445.8</ele>
<time>2024-05-07T09:47:28Z</time>
</trkpt>
<trkpt lat="48.838561959564686" lon="9.8379201348871">
<ele>445.8</ele>
<time>2024-05-07T09:47:29Z</time>
</trkpt>
<trkpt lat="48.838561959564686" lon="9.837846709415317">
<ele>445.8</ele>
<time>2024-05-07T09:47:30Z</time>
</trkpt>
<trkpt lat="48.83855818770826" lon="9.837771356105804">
<ele>445.8</ele>
<time>2024-05-07T09:47:31Z</time>
</trkpt>
<trkpt lat="48.83855818770826" lon="9.837697930634022">
<ele>445.8</ele>
<time>2024-05-07T09:47:32Z</time>
</trkpt>
<trkpt lat="48.8385543320328" lon="9.83762358315289">
<ele>445.8</ele>
<time>2024-05-07T09:47:33Z</time>
</trkpt>
<trkpt lat="48.83855056017637" lon="9.837548229843378">
<ele>445.8</ele>
<time>2024-05-07T09:47:34Z</time>
</trkpt>
<trkpt lat="48.838546704500914" lon="9.837471954524515">
<ele>445.8</ele>
<time>2024-05-07T09:47:35Z</time>
</trkpt>
<trkpt lat="48.838542932644486" lon="9.837389895692468">
<ele>445.8</ele>
<time>2024-05-07T09:47:36Z</time>
</trkpt>
<trkpt lat="48.83853907696903" lon="9.83730792067945">
<ele>445.8</ele>
<time>2024-05-07T09:47:37Z</time>
</trkpt>
<trkpt lat="48.83853144943714" lon="9.837222089990972">
<ele>445.6</ele>
<time>2024-05-07T09:47:38Z</time>
</trkpt>
<trkpt lat="48.838527677580714" lon="9.83712955377996">
<ele>445.6</ele>
<time>2024-05-07T09:47:39Z</time>
</trkpt>
<trkpt lat="48.838523821905255" lon="9.837038023397326">
<ele>445.4</ele>
<time>2024-05-07T09:47:40Z</time>
</trkpt>
<trkpt lat="48.83852005004883" lon="9.836946409195662">
<ele>445.4</ele>
<time>2024-05-07T09:47:41Z</time>
</trkpt>
<trkpt lat="48.83852005004883" lon="9.8368529509753">
<ele>445.2</ele>
<time>2024-05-07T09:47:42Z</time>
</trkpt>
<trkpt lat="48.83851233869791" lon="9.836761420592666">
<ele>445.2</ele>
<time>2024-05-07T09:47:43Z</time>
</trkpt>
<trkpt lat="48.83850856684148" lon="9.836667962372305">
<ele>445</ele>
<time>2024-05-07T09:47:44Z</time>
</trkpt>
<trkpt lat="48.838504711166024" lon="9.83657450415194">
<ele>445</ele>
<time>2024-05-07T09:47:45Z</time>
</trkpt>
<trkpt lat="48.83849708363414" lon="9.836481967940928">
<ele>445</ele>
<time>2024-05-07T09:47:46Z</time>
</trkpt>
<trkpt lat="48.83849331177771" lon="9.836389515548944">
<ele>445</ele>
<time>2024-05-07T09:47:47Z</time>
</trkpt>
<trkpt lat="48.83848945610225" lon="9.836297985166311">
<ele>444.8</ele>
<time>2024-05-07T09:47:48Z</time>
</trkpt>
<trkpt lat="48.838481828570366" lon="9.836208298802376">
<ele>444.8</ele>
<time>2024-05-07T09:47:49Z</time>
</trkpt>
<trkpt lat="48.83847805671394" lon="9.83611961826682">
<ele>444.8</ele>
<time>2024-05-07T09:47:50Z</time>
</trkpt>
<trkpt lat="48.83847042918205" lon="9.836034709587691">
<ele>444.8</ele>
<time>2024-05-07T09:47:51Z</time>
</trkpt>
<trkpt lat="48.83846280165017" lon="9.835947956889868">
<ele>444.8</ele>
<time>2024-05-07T09:47:52Z</time>
</trkpt>
<trkpt lat="48.83845517411828" lon="9.8358669038862">
<ele>444.8</ele>
<time>2024-05-07T09:47:53Z</time>
</trkpt>
<trkpt lat="48.838443690910935" lon="9.835783001035452">
<ele>444.6</ele>
<time>2024-05-07T09:47:54Z</time>
</trkpt>
<trkpt lat="48.83843991905451" lon="9.835702870041132">
<ele>444.6</ele>
<time>2024-05-07T09:47:55Z</time>
</trkpt>
<trkpt lat="48.83843229152262" lon="9.83562366105616">
<ele>444.4</ele>
<time>2024-05-07T09:47:56Z</time>
</trkpt>
<trkpt lat="48.83842080831528" lon="9.835546463727953">
<ele>444.4</ele>
<time>2024-05-07T09:47:57Z</time>
</trkpt>
<trkpt lat="48.83841318078339" lon="9.835472032427788">
<ele>444.2</ele>
<time>2024-05-07T09:47:58Z</time>
</trkpt>
<trkpt lat="48.838405553251505" lon="9.835396762937307">
<ele>444.2</ele>
<time>2024-05-07T09:47:59Z</time>
</trkpt>
<trkpt lat="48.83839792571962" lon="9.8353280313313">
<ele>444.2</ele>
<time>2024-05-07T09:48:00Z</time>
</trkpt>
<trkpt lat="48.838386526331306" lon="9.835263239219785">
<ele>444.2</ele>
<time>2024-05-07T09:48:01Z</time>
</trkpt>
<trkpt lat="48.83837889879942" lon="9.835198363289235">
<ele>444.2</ele>
<time>2024-05-07T09:48:02Z</time>
</trkpt>
<trkpt lat="48.83837127126753" lon="9.835136337205768">
<ele>444.4</ele>
<time>2024-05-07T09:48:03Z</time>
</trkpt>
<trkpt lat="48.83836364373565" lon="9.835078166797755">
<ele>444.4</ele>
<time>2024-05-07T09:48:04Z</time>
</trkpt>
<trkpt lat="48.83835978806019" lon="9.835021924227476">
<ele>444.6</ele>
<time>2024-05-07T09:48:05Z</time>
</trkpt>
<trkpt lat="48.83835978806019" lon="9.834968531504272">
<ele>444.6</ele>
<time>2024-05-07T09:48:06Z</time>
</trkpt>
<trkpt lat="48.83836364373565" lon="9.83491513878107">
<ele>444.8</ele>
<time>2024-05-07T09:48:07Z</time>
</trkpt>
<trkpt lat="48.838367415592074" lon="9.83485981822014">
<ele>445</ele>
<time>2024-05-07T09:48:08Z</time>
</trkpt>
<trkpt lat="48.83837504312396" lon="9.834806425496936">
<ele>445</ele>
<time>2024-05-07T09:48:09Z</time>
</trkpt>
<trkpt lat="48.83837889879942" lon="9.834750099107625">
<ele>445.2</ele>
<time>2024-05-07T09:48:10Z</time>
</trkpt>
<trkpt lat="48.838386526331306" lon="9.834694862365724">
<ele>445.4</ele>
<time>2024-05-07T09:48:11Z</time>
</trkpt>
<trkpt lat="48.838386526331306" lon="9.83463853597641">
<ele>445.6</ele>
<time>2024-05-07T09:48:12Z</time>
</trkpt>
<trkpt lat="48.83839029818773" lon="9.834587993100286">
<ele>445.8</ele>
<time>2024-05-07T09:48:13Z</time>
</trkpt>
<trkpt lat="48.838386526331306" lon="9.83454030007124">
<ele>446</ele>
<time>2024-05-07T09:48:14Z</time>
</trkpt>
<trkpt lat="48.83837127126753" lon="9.83450023457408">
<ele>446.2</ele>
<time>2024-05-07T09:48:15Z</time>
</trkpt>
<trkpt lat="48.838348388671875" lon="9.83446310274303">
<ele>446.4</ele>
<time>2024-05-07T09:48:16Z</time>
</trkpt>
<trkpt lat="48.8383177947253" lon="9.834434436634185">
<ele>446.6</ele>
<time>2024-05-07T09:48:17Z</time>
</trkpt>
<trkpt lat="48.83828351274133" lon="9.834406776353717">
<ele>446.6</ele>
<time>2024-05-07T09:48:18Z</time>
</trkpt>
<trkpt lat="48.83825677447021" lon="9.834368638694286">
<ele>446.8</ele>
<time>2024-05-07T09:48:19Z</time>
</trkpt>
<trkpt lat="48.83823389187455" lon="9.834315245971084">
<ele>446.8</ele>
<time>2024-05-07T09:48:20Z</time>
</trkpt>
<trkpt lat="48.83822249248624" lon="9.834257997572422">
<ele>447</ele>
<time>2024-05-07T09:48:21Z</time>
</trkpt>
<trkpt lat="48.83821100927889" lon="9.834196977317331">
<ele>447</ele>
<time>2024-05-07T09:48:22Z</time>
</trkpt>
<trkpt lat="48.838207237422466" lon="9.834135035052896">
<ele>447</ele>
<time>2024-05-07T09:48:23Z</time>
</trkpt>
<trkpt lat="48.83820338174701" lon="9.834076864644883">
<ele>447</ele>
<time>2024-05-07T09:48:24Z</time>
</trkpt>
<trkpt lat="48.838207237422466" lon="9.834018694236876">
<ele>447</ele>
<time>2024-05-07T09:48:25Z</time>
</trkpt>
<trkpt lat="48.83821100927889" lon="9.833961445838211">
<ele>447.2</ele>
<time>2024-05-07T09:48:26Z</time>
</trkpt>
<trkpt lat="48.83822249248624" lon="9.83390998095274">
<ele>447.2</ele>
<time>2024-05-07T09:48:27Z</time>
</trkpt>
<trkpt lat="48.83824151940644" lon="9.833856504410504">
<ele>447.2</ele>
<time>2024-05-07T09:48:28Z</time>
</trkpt>
<trkpt lat="48.838264402002096" lon="9.83380788937211">
<ele>447.2</ele>
<time>2024-05-07T09:48:29Z</time>
</trkpt>
<trkpt lat="48.83829491212964" lon="9.83376975171268">
<ele>447.2</ele>
<time>2024-05-07T09:48:30Z</time>
</trkpt>
<trkpt lat="48.838325422257185" lon="9.833738319575788">
<ele>447.2</ele>
<time>2024-05-07T09:48:31Z</time>
</trkpt>
<trkpt lat="48.83835978806019" lon="9.833716358989475">
<ele>447.2</ele>
<time>2024-05-07T09:48:32Z</time>
</trkpt>
<trkpt lat="48.83839792571962" lon="9.833704875782132">
<ele>447</ele>
<time>2024-05-07T09:48:33Z</time>
</trkpt>
<trkpt lat="48.83843229152262" lon="9.833708731457593">
<ele>447</ele>
<time>2024-05-07T09:48:34Z</time>
</trkpt>
<trkpt lat="48.83847420103848" lon="9.833718286827208">
<ele>447.2</ele>
<time>2024-05-07T09:48:35Z</time>
</trkpt>
<trkpt lat="48.83850856684148" lon="9.833743013441564">
<ele>447.2</ele>
<time>2024-05-07T09:48:36Z</time>
</trkpt>
<trkpt lat="48.838546704500914" lon="9.833760196343064">
<ele>447.2</ele>
<time>2024-05-07T09:48:37Z</time>
</trkpt>
<trkpt lat="48.838584842160344" lon="9.833781234920025">
<ele>447.2</ele>
<time>2024-05-07T09:48:38Z</time>
</trkpt>
<trkpt lat="48.83861920796335" lon="9.833803111687304">
<ele>447.2</ele>
<time>2024-05-07T09:48:39Z</time>
</trkpt>
<trkpt lat="48.838661117479205" lon="9.83382700011134">
<ele>447.2</ele>
<time>2024-05-07T09:48:40Z</time>
</trkpt>
<trkpt lat="48.83869548328221" lon="9.83384795486927">
<ele>447.2</ele>
<time>2024-05-07T09:48:41Z</time>
</trkpt>
<trkpt lat="48.83873362094164" lon="9.83386798761785">
<ele>447</ele>
<time>2024-05-07T09:48:42Z</time>
</trkpt>
<trkpt lat="48.83877175860107" lon="9.83388994820416">
<ele>447</ele>
<time>2024-05-07T09:48:43Z</time>
</trkpt>
<trkpt lat="48.8388098962605" lon="9.833913752809169">
<ele>447</ele>
<time>2024-05-07T09:48:44Z</time>
</trkpt>
<trkpt lat="48.83884803391993" lon="9.833932863548398">
<ele>447</ele>
<time>2024-05-07T09:48:45Z</time>
</trkpt>
<trkpt lat="48.83888625539839" lon="9.833951890468596">
<ele>447</ele>
<time>2024-05-07T09:48:46Z</time>
</trkpt>
<trkpt lat="48.83892439305782" lon="9.83396815136075">
<ele>447</ele>
<time>2024-05-07T09:48:47Z</time>
</trkpt>
<trkpt lat="48.838962530717254" lon="9.8339862562716">
<ele>447</ele>
<time>2024-05-07T09:48:48Z</time>
</trkpt>
<trkpt lat="48.83900444023311" lon="9.8340052831918">
<ele>447</ele>
<time>2024-05-07T09:48:49Z</time>
</trkpt>
<trkpt lat="48.839042661711574" lon="9.834021544083951">
<ele>447.2</ele>
<time>2024-05-07T09:48:50Z</time>
</trkpt>
<trkpt lat="48.83908457122743" lon="9.834038726985456">
<ele>447.2</ele>
<time>2024-05-07T09:48:51Z</time>
</trkpt>
<trkpt lat="48.83912270888686" lon="9.834052976220846">
<ele>447.4</ele>
<time>2024-05-07T09:48:52Z</time>
</trkpt>
<trkpt lat="48.83916470222175" lon="9.83406638726592">
<ele>447.4</ele>
<time>2024-05-07T09:48:53Z</time>
</trkpt>
<trkpt lat="48.83920669555664" lon="9.83408348634839">
<ele>447.6</ele>
<time>2024-05-07T09:48:54Z</time>
</trkpt>
<trkpt lat="48.8392486050725" lon="9.834104524925351">
<ele>447.8</ele>
<time>2024-05-07T09:48:55Z</time>
</trkpt>
<trkpt lat="48.83929059840739" lon="9.83412355184555">
<ele>447.8</ele>
<time>2024-05-07T09:48:56Z</time>
</trkpt>
<trkpt lat="48.839332507923245" lon="9.8341416567564">
<ele>447.8</ele>
<time>2024-05-07T09:48:57Z</time>
</trkpt>
<trkpt lat="48.839374501258135" lon="9.834157917648554">
<ele>447.8</ele>
<time>2024-05-07T09:48:58Z</time>
</trkpt>
<trkpt lat="48.839416494593024" lon="9.834170322865248">
<ele>447.8</ele>
<time>2024-05-07T09:48:59Z</time>
</trkpt>
<trkpt lat="48.83945840410888" lon="9.83418365009129">
<ele>447.6</ele>
<time>2024-05-07T09:49:00Z</time>
</trkpt>
<trkpt lat="48.83950039744377" lon="9.834195133298635">
<ele>447.6</ele>
<time>2024-05-07T09:49:01Z</time>
</trkpt>
<trkpt lat="48.83954230695963" lon="9.834211310371757">
<ele>447.6</ele>
<time>2024-05-07T09:49:02Z</time>
</trkpt>
<trkpt lat="48.83958815596998" lon="9.834230421110988">
<ele>447.6</ele>
<time>2024-05-07T09:49:03Z</time>
</trkpt>
<trkpt lat="48.839630065485835" lon="9.834246598184109">
<ele>447.4</ele>
<time>2024-05-07T09:49:04Z</time>
</trkpt>
<trkpt lat="48.83967205882072" lon="9.83426277525723">
<ele>447.4</ele>
<time>2024-05-07T09:49:05Z</time>
</trkpt>
<trkpt lat="48.83971396833658" lon="9.834279958158731">
<ele>447.4</ele>
<time>2024-05-07T09:49:06Z</time>
</trkpt>
<trkpt lat="48.83975596167147" lon="9.834299990907311">
<ele>447.4</ele>
<time>2024-05-07T09:49:07Z</time>
</trkpt>
<trkpt lat="48.83979795500636" lon="9.834316251799464">
<ele>447.2</ele>
<time>2024-05-07T09:49:08Z</time>
</trkpt>
<trkpt lat="48.83983986452222" lon="9.834336200729012">
<ele>447.2</ele>
<time>2024-05-07T09:49:09Z</time>
</trkpt>
<trkpt lat="48.83988185785711" lon="9.834355311468244">
<ele>447.2</ele>
<time>2024-05-07T09:49:10Z</time>
</trkpt>
<trkpt lat="48.83991999551654" lon="9.834373416379094">
<ele>447.2</ele>
<time>2024-05-07T09:49:11Z</time>
</trkpt>
<trkpt lat="48.83996198885143" lon="9.834395376965404">
<ele>447.2</ele>
<time>2024-05-07T09:49:12Z</time>
</trkpt>
<trkpt lat="48.840003898367286" lon="9.834415409713984">
<ele>447.2</ele>
<time>2024-05-07T09:49:13Z</time>
</trkpt>
<trkpt lat="48.84004203602672" lon="9.834434436634185">
<ele>447.2</ele>
<time>2024-05-07T09:49:14Z</time>
</trkpt>
<trkpt lat="48.840084029361606" lon="9.834460252895951">
<ele>447.2</ele>
<time>2024-05-07T09:49:15Z</time>
</trkpt>
<trkpt lat="48.840126022696495" lon="9.834489757195117">
<ele>447.2</ele>
<time>2024-05-07T09:49:16Z</time>
</trkpt>
<trkpt lat="48.840164160355926" lon="9.83452026732266">
<ele>447.2</ele>
<time>2024-05-07T09:49:17Z</time>
</trkpt>
<trkpt lat="48.84020606987178" lon="9.834547927603126">
<ele>447</ele>
<time>2024-05-07T09:49:18Z</time>
</trkpt>
<trkpt lat="48.840244291350245" lon="9.834573743864894">
<ele>447</ele>
<time>2024-05-07T09:49:19Z</time>
</trkpt>
<trkpt lat="48.8402862008661" lon="9.834593692794442">
<ele>447</ele>
<time>2024-05-07T09:49:20Z</time>
</trkpt>
<trkpt lat="48.84032819420099" lon="9.834608025848866">
<ele>447</ele>
<time>2024-05-07T09:49:21Z</time>
</trkpt>
<trkpt lat="48.84036633186042" lon="9.834629986435177">
<ele>447</ele>
<time>2024-05-07T09:49:22Z</time>
</trkpt>
<trkpt lat="48.840400613844395" lon="9.83465957455337">
<ele>447</ele>
<time>2024-05-07T09:49:23Z</time>
</trkpt>
<trkpt lat="48.84043883532286" lon="9.834694862365724">
<ele>447</ele>
<time>2024-05-07T09:49:24Z</time>
</trkpt>
<trkpt lat="48.84047311730683" lon="9.834728222340344">
<ele>447</ele>
<time>2024-05-07T09:49:25Z</time>
</trkpt>
<trkpt lat="48.84051125496626" lon="9.834765354171395">
<ele>447</ele>
<time>2024-05-07T09:49:26Z</time>
</trkpt>
<trkpt lat="48.84054939262569" lon="9.834804497659206">
<ele>447.2</ele>
<time>2024-05-07T09:49:27Z</time>
</trkpt>
<trkpt lat="48.84058761410415" lon="9.834850262850525">
<ele>447</ele>
<time>2024-05-07T09:49:28Z</time>
</trkpt>
<trkpt lat="48.84062189608812" lon="9.83489510603249">
<ele>447</ele>
<time>2024-05-07T09:49:29Z</time>
</trkpt>
<trkpt lat="48.840660033747554" lon="9.834946570917964">
<ele>447</ele>
<time>2024-05-07T09:49:30Z</time>
</trkpt>
<trkpt lat="48.840698171406984" lon="9.83499619178474">
<ele>447</ele>
<time>2024-05-07T09:49:31Z</time>
</trkpt>
<trkpt lat="48.840740164741874" lon="9.835048662498592">
<ele>447</ele>
<time>2024-05-07T09:49:32Z</time>
</trkpt>
<trkpt lat="48.840778302401304" lon="9.835102977231143">
<ele>447</ele>
<time>2024-05-07T09:49:33Z</time>
</trkpt>
<trkpt lat="48.840816440060735" lon="9.835160225629808">
<ele>447</ele>
<time>2024-05-07T09:49:34Z</time>
</trkpt>
<trkpt lat="48.840858433395624" lon="9.835220323875546">
<ele>447</ele>
<time>2024-05-07T09:49:35Z</time>
</trkpt>
<trkpt lat="48.840896571055055" lon="9.835281344130635">
<ele>447</ele>
<time>2024-05-07T09:49:36Z</time>
</trkpt>
<trkpt lat="48.84093093685806" lon="9.835346220061185">
<ele>446.8</ele>
<time>2024-05-07T09:49:37Z</time>
</trkpt>
<trkpt lat="48.84096521884203" lon="9.835412940010428">
<ele>446.8</ele>
<time>2024-05-07T09:49:38Z</time>
</trkpt>
<trkpt lat="48.84100335650146" lon="9.835481587797403">
<ele>446.8</ele>
<time>2024-05-07T09:49:39Z</time>
</trkpt>
<trkpt lat="48.841033866629004" lon="9.835555013269186">
<ele>446.8</ele>
<time>2024-05-07T09:49:40Z</time>
</trkpt>
<trkpt lat="48.84106823243201" lon="9.835630366578698">
<ele>446.8</ele>
<time>2024-05-07T09:49:41Z</time>
</trkpt>
<trkpt lat="48.84110259823501" lon="9.83570479787886">
<ele>446.8</ele>
<time>2024-05-07T09:49:42Z</time>
</trkpt>
<trkpt lat="48.84113310836256" lon="9.835783001035452">
<ele>446.8</ele>
<time>2024-05-07T09:49:43Z</time>
</trkpt>
<trkpt lat="48.8411636184901" lon="9.835860198363662">
<ele>446.8</ele>
<time>2024-05-07T09:49:44Z</time>
</trkpt>
<trkpt lat="48.841190272942185" lon="9.835936473682525">
<ele>446.6</ele>
<time>2024-05-07T09:49:45Z</time>
</trkpt>
<trkpt lat="48.8412170112133" lon="9.836013754829764">
<ele>446.6</ele>
<time>2024-05-07T09:49:46Z</time>
</trkpt>
<trkpt lat="48.84124752134085" lon="9.836091957986357">
<ele>446.6</ele>
<time>2024-05-07T09:49:47Z</time>
</trkpt>
<trkpt lat="48.84127425961197" lon="9.836176866665484">
<ele>446.6</ele>
<time>2024-05-07T09:49:48Z</time>
</trkpt>
<trkpt lat="48.84130091406405" lon="9.836264541372657">
<ele>446.6</ele>
<time>2024-05-07T09:49:49Z</time>
</trkpt>
<trkpt lat="48.84132765233517" lon="9.83635707758367">
<ele>446.6</ele>
<time>2024-05-07T09:49:50Z</time>
</trkpt>
<trkpt lat="48.84135430678725" lon="9.836451457813382">
<ele>446.6</ele>
<time>2024-05-07T09:49:51Z</time>
</trkpt>
<trkpt lat="48.84138104505837" lon="9.836553549394011">
<ele>446.4</ele>
<time>2024-05-07T09:49:52Z</time>
</trkpt>
<trkpt lat="48.841407699510455" lon="9.836658407002687">
<ele>446.2</ele>
<time>2024-05-07T09:49:53Z</time>
</trkpt>
<trkpt lat="48.84143443778157" lon="9.836763348430395">
<ele>446.2</ele>
<time>2024-05-07T09:49:54Z</time>
</trkpt>
<trkpt lat="48.84145732037723" lon="9.836868206039073">
<ele>446</ele>
<time>2024-05-07T09:49:55Z</time>
</trkpt>
<trkpt lat="48.84148405864835" lon="9.836975075304508">
<ele>446</ele>
<time>2024-05-07T09:49:56Z</time>
</trkpt>
<trkpt lat="48.841506941244006" lon="9.83708663843572">
<ele>445.8</ele>
<time>2024-05-07T09:49:57Z</time>
</trkpt>
<trkpt lat="48.84153359569609" lon="9.837198201566936">
<ele>445.8</ele>
<time>2024-05-07T09:49:58Z</time>
</trkpt>
<trkpt lat="48.84156410582363" lon="9.837311692535875">
<ele>445.6</ele>
<time>2024-05-07T09:49:59Z</time>
</trkpt>
<trkpt lat="48.84159461595118" lon="9.83742325566709">
<ele>445.6</ele>
<time>2024-05-07T09:50:00Z</time>
</trkpt>
<trkpt lat="48.8416213542223" lon="9.837539596483111">
<ele>445.4</ele>
<time>2024-05-07T09:50:01Z</time>
</trkpt>
<trkpt lat="48.84165186434984" lon="9.837657865136862">
<ele>445.4</ele>
<time>2024-05-07T09:50:02Z</time>
</trkpt>
<trkpt lat="48.84167860262096" lon="9.837776133790612">
<ele>445.2</ele>
<time>2024-05-07T09:50:03Z</time>
</trkpt>
<trkpt lat="48.84171674028039" lon="9.83789817430079">
<ele>445.2</ele>
<time>2024-05-07T09:50:04Z</time>
</trkpt>
<trkpt lat="48.84175487793982" lon="9.83801837079227">
<ele>445</ele>
<time>2024-05-07T09:50:05Z</time>
</trkpt>
<trkpt lat="48.84179687127471" lon="9.83813471160829">
<ele>444.8</ele>
<time>2024-05-07T09:50:06Z</time>
</trkpt>
<trkpt lat="48.841842636466026" lon="9.838250130414965">
<ele>444.6</ele>
<time>2024-05-07T09:50:07Z</time>
</trkpt>
<trkpt lat="48.84189217351377" lon="9.838361693546176">
<ele>444.4</ele>
<time>2024-05-07T09:50:08Z</time>
</trkpt>
<trkpt lat="48.841941794380546" lon="9.83847040683031">
<ele>444.4</ele>
<time>2024-05-07T09:50:09Z</time>
</trkpt>
<trkpt lat="48.84199518710375" lon="9.838576270267367">
<ele>444.2</ele>
<time>2024-05-07T09:50:10Z</time>
</trkpt>
<trkpt lat="48.84204857982695" lon="9.838678278028963">
<ele>444</ele>
<time>2024-05-07T09:50:11Z</time>
</trkpt>
<trkpt lat="48.84210582822561" lon="9.838780369609594">
<ele>443.8</ele>
<time>2024-05-07T09:50:12Z</time>
</trkpt>
<trkpt lat="48.84217070415616" lon="9.838881455361845">
<ele>443.6</ele>
<time>2024-05-07T09:50:13Z</time>
</trkpt>
<trkpt lat="48.84223549626768" lon="9.838974913582206">
<ele>443.4</ele>
<time>2024-05-07T09:50:14Z</time>
</trkpt>
<trkpt lat="48.84230422787368" lon="9.839061666280031">
<ele>443.2</ele>
<time>2024-05-07T09:50:15Z</time>
</trkpt>
<trkpt lat="48.84237287566066" lon="9.83914372511208">
<ele>443</ele>
<time>2024-05-07T09:50:16Z</time>
</trkpt>
<trkpt lat="48.84244529530406" lon="9.839221928268673">
<ele>442.6</ele>
<time>2024-05-07T09:50:17Z</time>
</trkpt>
<trkpt lat="48.84252165444195" lon="9.83930013142526">
<ele>442.4</ele>
<time>2024-05-07T09:50:18Z</time>
</trkpt>
<trkpt lat="48.84260170161724" lon="9.839373556897044">
<ele>442</ele>
<time>2024-05-07T09:50:19Z</time>
</trkpt>
<trkpt lat="48.84268183261156" lon="9.839445054531096">
<ele>441.6</ele>
<time>2024-05-07T09:50:20Z</time>
</trkpt>
<trkpt lat="48.84276196360588" lon="9.839511858299376">
<ele>441</ele>
<time>2024-05-07T09:50:21Z</time>
</trkpt>
<trkpt lat="48.84284972213209" lon="9.839574806392193">
<ele>440.6</ele>
<time>2024-05-07T09:50:22Z</time>
</trkpt>
<trkpt lat="48.84293739683926" lon="9.8396348208189">
<ele>440.2</ele>
<time>2024-05-07T09:50:23Z</time>
</trkpt>
<trkpt lat="48.84302515536547" lon="9.839685363695024">
<ele>439.6</ele>
<time>2024-05-07T09:50:24Z</time>
</trkpt>
<trkpt lat="48.84314342401922" lon="9.839725429192184">
<ele>439</ele>
<time>2024-05-07T09:50:25Z</time>
</trkpt>
<trkpt lat="48.8432464376092" lon="9.83975786715746">
<ele>438.6</ele>
<time>2024-05-07T09:50:26Z</time>
</trkpt>
<trkpt lat="48.84333034045994" lon="9.83979793265462">
<ele>438</ele>
<time>2024-05-07T09:50:27Z</time>
</trkpt>
<trkpt lat="48.84341424331069" lon="9.8398369923234">
<ele>437.4</ele>
<time>2024-05-07T09:50:28Z</time>
</trkpt>
<trkpt lat="48.84349822998047" lon="9.83985702507198">
<ele>437</ele>
<time>2024-05-07T09:50:29Z</time>
</trkpt>
<trkpt lat="48.843605015426874" lon="9.839906645938754">
<ele>436.4</ele>
<time>2024-05-07T09:50:30Z</time>
</trkpt>
<trkpt lat="48.843700401484966" lon="9.839904718101025">
<ele>436</ele>
<time>2024-05-07T09:50:31Z</time>
</trkpt>
<trkpt lat="48.843799559399486" lon="9.839931456372142">
<ele>435.4</ele>
<time>2024-05-07T09:50:32Z</time>
</trkpt>
<trkpt lat="48.84391397237778" lon="9.839962888509037">
<ele>435</ele>
<time>2024-05-07T09:50:33Z</time>
</trkpt>
<trkpt lat="48.84403224103153" lon="9.839971521869302">
<ele>434.6</ele>
<time>2024-05-07T09:50:34Z</time>
</trkpt>
<trkpt lat="48.84413902647793" lon="9.839982921257617">
<ele>434.2</ele>
<time>2024-05-07T09:50:35Z</time>
</trkpt>
<trkpt lat="48.8442496675998" lon="9.840002031996846">
<ele>433.6</ele>
<time>2024-05-07T09:50:36Z</time>
</trkpt>
<trkpt lat="48.844352681189775" lon="9.840024914592505">
<ele>433.2</ele>
<time>2024-05-07T09:50:37Z</time>
</trkpt>
<trkpt lat="48.84445946663618" lon="9.840043019503357">
<ele>432.6</ele>
<time>2024-05-07T09:50:38Z</time>
</trkpt>
<trkpt lat="48.84456633590162" lon="9.840061124414206">
<ele>431.8</ele>
<time>2024-05-07T09:50:39Z</time>
</trkpt>
<trkpt lat="48.84467312134802" lon="9.840101189911366">
<ele>431.2</ele>
<time>2024-05-07T09:50:40Z</time>
</trkpt>
<trkpt lat="48.844776134938" lon="9.840120300650597">
<ele>430.6</ele>
<time>2024-05-07T09:50:41Z</time>
</trkpt>
<trkpt lat="48.84488292038441" lon="9.840146955102682">
<ele>430</ele>
<time>2024-05-07T09:50:42Z</time>
</trkpt>
<trkpt lat="48.84499356150627" lon="9.840178471058609">
<ele>429.6</ele>
<time>2024-05-07T09:50:43Z</time>
</trkpt>
<trkpt lat="48.84510797448456" lon="9.840234713628888">
<ele>429</ele>
<time>2024-05-07T09:50:44Z</time>
</trkpt>
<trkpt lat="48.84520713239908" lon="9.84028617851436">
<ele>428.4</ele>
<time>2024-05-07T09:50:45Z</time>
</trkpt>
<trkpt lat="48.84531400166452" lon="9.84033294953406">
<ele>427.8</ele>
<time>2024-05-07T09:50:46Z</time>
</trkpt>
<trkpt lat="48.8454170152545" lon="9.840374942868948">
<ele>427</ele>
<time>2024-05-07T09:50:47Z</time>
</trkpt>
<trkpt lat="48.84551994502544" lon="9.840433113276958">
<ele>426.2</ele>
<time>2024-05-07T09:50:48Z</time>
</trkpt>
<trkpt lat="48.845619186758995" lon="9.840484578162432">
<ele>425.4</ele>
<time>2024-05-07T09:50:49Z</time>
</trkpt>
<trkpt lat="48.845718344673514" lon="9.840559931471944">
<ele>424.6</ele>
<time>2024-05-07T09:50:50Z</time>
</trkpt>
<trkpt lat="48.84580987505615" lon="9.840611396357415">
<ele>423.8</ele>
<time>2024-05-07T09:50:51Z</time>
</trkpt>
<trkpt lat="48.84592051617801" lon="9.84066193923354">
<ele>423</ele>
<time>2024-05-07T09:50:52Z</time>
</trkpt>
<trkpt lat="48.846012046560645" lon="9.84072203747928">
<ele>422.4</ele>
<time>2024-05-07T09:50:53Z</time>
</trkpt>
<trkpt lat="48.8461303152144" lon="9.84076880849898">
<ele>421.6</ele>
<time>2024-05-07T09:50:54Z</time>
</trkpt>
<trkpt lat="48.84622570127249" lon="9.84084315598011">
<ele>420.8</ele>
<time>2024-05-07T09:50:55Z</time>
</trkpt>
<trkpt lat="48.84632485918701" lon="9.840911803767083">
<ele>420.2</ele>
<time>2024-05-07T09:50:56Z</time>
</trkpt>
<trkpt lat="48.84643172845245" lon="9.840974751859903">
<ele>419.6</ele>
<time>2024-05-07T09:50:57Z</time>
</trkpt>
<trkpt lat="48.846527030691504" lon="9.841030072420835">
<ele>419.2</ele>
<time>2024-05-07T09:50:58Z</time>
</trkpt>
<trkpt lat="48.84663004428148" lon="9.841103497892618">
<ele>418.6</ele>
<time>2024-05-07T09:50:59Z</time>
</trkpt>
<trkpt lat="48.846729202196" lon="9.841166445985436">
<ele>418.2</ele>
<time>2024-05-07T09:51:00Z</time>
</trkpt>
<trkpt lat="48.84682844392955" lon="9.84121799468994">
<ele>417.6</ele>
<time>2024-05-07T09:51:01Z</time>
</trkpt>
<trkpt lat="48.84693145751953" lon="9.841268537566066">
<ele>417.2</ele>
<time>2024-05-07T09:51:02Z</time>
</trkpt>
<trkpt lat="48.84702675975859" lon="9.84133810736239">
<ele>416.6</ele>
<time>2024-05-07T09:51:03Z</time>
</trkpt>
<trkpt lat="48.84711837396026" lon="9.84137817285955">
<ele>416.2</ele>
<time>2024-05-07T09:51:04Z</time>
</trkpt>
<trkpt lat="48.84720227681101" lon="9.841401977464557">
<ele>415.6</ele>
<time>2024-05-07T09:51:05Z</time>
</trkpt>
<trkpt lat="48.847297662869096" lon="9.84145637601614">
<ele>415</ele>
<time>2024-05-07T09:51:06Z</time>
</trkpt>
<trkpt lat="48.84739296510816" lon="9.841460147872567">
<ele>414.4</ele>
<time>2024-05-07T09:51:07Z</time>
</trkpt>
<trkpt lat="48.847495978698134" lon="9.841442042961717">
<ele>413.8</ele>
<time>2024-05-07T09:51:08Z</time>
</trkpt>
<trkpt lat="48.84757988154888" lon="9.841451598331332">
<ele>413.2</ele>
<time>2024-05-07T09:51:09Z</time>
</trkpt>
<trkpt lat="48.84768289513886" lon="9.84143634326756">
<ele>412.6</ele>
<time>2024-05-07T09:51:10Z</time>
</trkpt>
<trkpt lat="48.84778205305338" lon="9.8413962777704">
<ele>411.8</ele>
<time>2024-05-07T09:51:11Z</time>
</trkpt>
<trkpt lat="48.84787743911147" lon="9.84133810736239">
<ele>411.2</ele>
<time>2024-05-07T09:51:12Z</time>
</trkpt>
<trkpt lat="48.84797668084502" lon="9.841264681890609">
<ele>410.6</ele>
<time>2024-05-07T09:51:13Z</time>
</trkpt>
<trkpt lat="48.84805295616388" lon="9.841193184256554">
<ele>410.2</ele>
<time>2024-05-07T09:51:14Z</time>
</trkpt>
<trkpt lat="48.8481330871582" lon="9.841121602803469">
<ele>409.6</ele>
<time>2024-05-07T09:51:15Z</time>
</trkpt>
<trkpt lat="48.848209362477064" lon="9.841030072420835">
<ele>409</ele>
<time>2024-05-07T09:51:16Z</time>
</trkpt>
<trkpt lat="48.84828940965235" lon="9.840969974175096">
<ele>408.4</ele>
<time>2024-05-07T09:51:17Z</time>
</trkpt>
<trkpt lat="48.848361913114786" lon="9.840873666107656">
<ele>408</ele>
<time>2024-05-07T09:51:18Z</time>
</trkpt>
<trkpt lat="48.84844967164099" lon="9.84080694615841">
<ele>407.4</ele>
<time>2024-05-07T09:51:19Z</time>
</trkpt>
<trkpt lat="48.84851831942797" lon="9.840720109641552">
<ele>406.8</ele>
<time>2024-05-07T09:51:20Z</time>
</trkpt>
<trkpt lat="48.8486098498106" lon="9.840641906484962">
<ele>406.4</ele>
<time>2024-05-07T09:51:21Z</time>
</trkpt>
<trkpt lat="48.848701464012265" lon="9.840570408850908">
<ele>405.8</ele>
<time>2024-05-07T09:51:22Z</time>
</trkpt>
<trkpt lat="48.8487929943949" lon="9.840491283684967">
<ele>405.4</ele>
<time>2024-05-07T09:51:23Z</time>
</trkpt>
<trkpt lat="48.848880752921104" lon="9.840430179610848">
<ele>404.8</ele>
<time>2024-05-07T09:51:24Z</time>
</trkpt>
<trkpt lat="48.84896842762828" lon="9.840345354750752">
<ele>404.2</ele>
<time>2024-05-07T09:51:25Z</time>
</trkpt>
<trkpt lat="48.84904093109071" lon="9.840245191007853">
<ele>403.8</ele>
<time>2024-05-07T09:51:26Z</time>
</trkpt>
<trkpt lat="48.84914008900523" lon="9.84016983769834">
<ele>403.2</ele>
<time>2024-05-07T09:51:27Z</time>
</trkpt>
<trkpt lat="48.84922784753144" lon="9.84007453545928">
<ele>402.6</ele>
<time>2024-05-07T09:51:28Z</time>
</trkpt>
<trkpt lat="48.84932323358953" lon="9.839986776933074">
<ele>402</ele>
<time>2024-05-07T09:51:29Z</time>
</trkpt>
<trkpt lat="48.84940336458385" lon="9.839902874082329">
<ele>401.4</ele>
<time>2024-05-07T09:51:30Z</time>
</trkpt>
<trkpt lat="48.849491039291024" lon="9.8398369923234">
<ele>400.8</ele>
<time>2024-05-07T09:51:31Z</time>
</trkpt>
<trkpt lat="48.84956354275346" lon="9.839731212705374">
<ele>400.4</ele>
<time>2024-05-07T09:51:32Z</time>
</trkpt>
<trkpt lat="48.849609307944775" lon="9.839625349268315">
<ele>400</ele>
<time>2024-05-07T09:51:33Z</time>
</trkpt>
<trkpt lat="48.849647445604205" lon="9.839503224939108">
<ele>399.6</ele>
<time>2024-05-07T09:51:34Z</time>
</trkpt>
<trkpt lat="48.84968566708267" lon="9.839369701221583">
<ele>399.2</ele>
<time>2024-05-07T09:51:35Z</time>
</trkpt>
<trkpt lat="48.8497238047421" lon="9.83924481086433">
<ele>398.8</ele>
<time>2024-05-07T09:51:36Z</time>
</trkpt>
<trkpt lat="48.84974668733776" lon="9.839121764525771">
<ele>398.6</ele>
<time>2024-05-07T09:51:37Z</time>
</trkpt>
<trkpt lat="48.84976194240153" lon="9.83900349587202">
<ele>398.2</ele>
<time>2024-05-07T09:51:38Z</time>
</trkpt>
<trkpt lat="48.8497771974653" lon="9.83888816088438">
<ele>398</ele>
<time>2024-05-07T09:51:39Z</time>
</trkpt>
<trkpt lat="48.84978482499719" lon="9.8387679643929">
<ele>397.8</ele>
<time>2024-05-07T09:51:40Z</time>
</trkpt>
<trkpt lat="48.84979245252907" lon="9.83864969573915">
<ele>397.6</ele>
<time>2024-05-07T09:51:41Z</time>
</trkpt>
<trkpt lat="48.84979245252907" lon="9.838524805381894">
<ele>397.4</ele>
<time>2024-05-07T09:51:42Z</time>
</trkpt>
<trkpt lat="48.84979245252907" lon="9.838404608890414">
<ele>397.4</ele>
<time>2024-05-07T09:51:43Z</time>
</trkpt>
<trkpt lat="48.849788596853614" lon="9.838285418227317">
<ele>397.2</ele>
<time>2024-05-07T09:51:44Z</time>
</trkpt>
<trkpt lat="48.84978096932173" lon="9.838163293898106">
<ele>397.2</ele>
<time>2024-05-07T09:51:45Z</time>
</trkpt>
<trkpt lat="48.84977334178984" lon="9.838043181225656">
<ele>397</ele>
<time>2024-05-07T09:51:46Z</time>
</trkpt>
<trkpt lat="48.84975808672607" lon="9.837928768247366">
<ele>397</ele>
<time>2024-05-07T09:51:47Z</time>
</trkpt>
<trkpt lat="48.8497428316623" lon="9.837821898981929">
<ele>397</ele>
<time>2024-05-07T09:51:48Z</time>
</trkpt>
<trkpt lat="48.849731432273984" lon="9.837723663076758">
<ele>396.8</ele>
<time>2024-05-07T09:51:49Z</time>
</trkpt>
<trkpt lat="48.84971617721021" lon="9.837634982541203">
<ele>396.8</ele>
<time>2024-05-07T09:51:50Z</time>
</trkpt>
<trkpt lat="48.84969706647098" lon="9.837552001699803">
<ele>396.6</ele>
<time>2024-05-07T09:51:51Z</time>
</trkpt>
<trkpt lat="48.84967803955078" lon="9.83746524900198">
<ele>396.4</ele>
<time>2024-05-07T09:51:52Z</time>
</trkpt>
<trkpt lat="48.84965507313609" lon="9.83738319016993">
<ele>396.4</ele>
<time>2024-05-07T09:51:53Z</time>
</trkpt>
<trkpt lat="48.84963604621589" lon="9.837301215156913">
<ele>396.2</ele>
<time>2024-05-07T09:51:54Z</time>
</trkpt>
<trkpt lat="48.84961693547666" lon="9.837224939838052">
<ele>396.2</ele>
<time>2024-05-07T09:51:55Z</time>
</trkpt>
<trkpt lat="48.849609307944775" lon="9.837141958996654">
<ele>396</ele>
<time>2024-05-07T09:51:56Z</time>
</trkpt>
<trkpt lat="48.84961316362023" lon="9.837058056145906">
<ele>396</ele>
<time>2024-05-07T09:51:57Z</time>
</trkpt>
<trkpt lat="48.84962456300855" lon="9.836977925151588">
<ele>396</ele>
<time>2024-05-07T09:51:58Z</time>
</trkpt>
<trkpt lat="48.84964367374778" lon="9.836901649832726">
<ele>395.8</ele>
<time>2024-05-07T09:51:59Z</time>
</trkpt>
<trkpt lat="48.84967418387532" lon="9.83683291822672">
<ele>395.8</ele>
<time>2024-05-07T09:52:00Z</time>
</trkpt>
<trkpt lat="48.849708549678326" lon="9.836770053952932">
<ele>395.8</ele>
<time>2024-05-07T09:52:01Z</time>
</trkpt>
<trkpt lat="48.8497428316623" lon="9.836709955707192">
<ele>395.8</ele>
<time>2024-05-07T09:52:02Z</time>
</trkpt>
<trkpt lat="48.84978096932173" lon="9.83665463514626">
<ele>396</ele>
<time>2024-05-07T09:52:03Z</time>
</trkpt>
<trkpt lat="48.84981910698116" lon="9.836600236594675">
<ele>396</ele>
<time>2024-05-07T09:52:04Z</time>
</trkpt>
<trkpt lat="48.84985732845962" lon="9.836543072015049">
<ele>396</ele>
<time>2024-05-07T09:52:05Z</time>
</trkpt>
<trkpt lat="48.84989923797548" lon="9.836489595472813">
<ele>396</ele>
<time>2024-05-07T09:52:06Z</time>
</trkpt>
<trkpt lat="48.84994123131037" lon="9.836440058425069">
<ele>396</ele>
<time>2024-05-07T09:52:07Z</time>
</trkpt>
<trkpt lat="48.84997551329434" lon="9.836389515548944">
<ele>396</ele>
<time>2024-05-07T09:52:08Z</time>
</trkpt>
<trkpt lat="48.85001750662923" lon="9.83633796684444">
<ele>396</ele>
<time>2024-05-07T09:52:09Z</time>
</trkpt>
<trkpt lat="48.85005564428866" lon="9.836286501958966">
<ele>396</ele>
<time>2024-05-07T09:52:10Z</time>
</trkpt>
<trkpt lat="48.85009378194809" lon="9.83623688109219">
<ele>396</ele>
<time>2024-05-07T09:52:11Z</time>
</trkpt>
<trkpt lat="48.85013191960752" lon="9.836193043738604">
<ele>396.2</ele>
<time>2024-05-07T09:52:12Z</time>
</trkpt>
<trkpt lat="48.85017005726695" lon="9.83614157885313">
<ele>396.2</ele>
<time>2024-05-07T09:52:13Z</time>
</trkpt>
<trkpt lat="48.85021205060184" lon="9.836092879995704">
<ele>396.4</ele>
<time>2024-05-07T09:52:14Z</time>
</trkpt>
<trkpt lat="48.85025404393673" lon="9.836046192795038">
<ele>396.4</ele>
<time>2024-05-07T09:52:15Z</time>
</trkpt>
<trkpt lat="48.85029595345259" lon="9.835998499765992">
<ele>396.6</ele>
<time>2024-05-07T09:52:16Z</time>
</trkpt>
<trkpt lat="48.85033794678748" lon="9.835953656584024">
<ele>396.8</ele>
<time>2024-05-07T09:52:17Z</time>
</trkpt>
<trkpt lat="48.850379940122366" lon="9.83590696938336">
<ele>396.8</ele>
<time>2024-05-07T09:52:18Z</time>
</trkpt>
<trkpt lat="48.8504180777818" lon="9.835858270525932">
<ele>396.8</ele>
<time>2024-05-07T09:52:19Z</time>
</trkpt>
<trkpt lat="48.850459987297654" lon="9.835809655487536">
<ele>397</ele>
<time>2024-05-07T09:52:20Z</time>
</trkpt>
<trkpt lat="48.850501980632544" lon="9.835762968286872">
<ele>397</ele>
<time>2024-05-07T09:52:21Z</time>
</trkpt>
<trkpt lat="48.850540118291974" lon="9.835711419582369">
<ele>397</ele>
<time>2024-05-07T09:52:22Z</time>
</trkpt>
<trkpt lat="48.85058588348329" lon="9.835662804543972">
<ele>397.2</ele>
<time>2024-05-07T09:52:23Z</time>
</trkpt>
<trkpt lat="48.85062787681818" lon="9.835617039352655">
<ele>397.2</ele>
<time>2024-05-07T09:52:24Z</time>
</trkpt>
<trkpt lat="48.85066978633404" lon="9.835566496476533">
<ele>397.2</ele>
<time>2024-05-07T09:52:25Z</time>
</trkpt>
<trkpt lat="48.85070415213704" lon="9.835516875609756">
<ele>397.2</ele>
<time>2024-05-07T09:52:26Z</time>
</trkpt>
<trkpt lat="48.85074614547193" lon="9.835472032427788">
<ele>397.2</ele>
<time>2024-05-07T09:52:27Z</time>
</trkpt>
<trkpt lat="48.85078805498779" lon="9.83543012291193">
<ele>397.2</ele>
<time>2024-05-07T09:52:28Z</time>
</trkpt>
<trkpt lat="48.85083004832268" lon="9.83538812957704">
<ele>397.2</ele>
<time>2024-05-07T09:52:29Z</time>
</trkpt>
<trkpt lat="48.850875813513994" lon="9.83534806407988">
<ele>397.2</ele>
<time>2024-05-07T09:52:30Z</time>
</trkpt>
<trkpt lat="48.85092157870531" lon="9.835305148735642">
<ele>397.2</ele>
<time>2024-05-07T09:52:31Z</time>
</trkpt>
<trkpt lat="48.85096734389663" lon="9.835260389372706">
<ele>397.2</ele>
<time>2024-05-07T09:52:32Z</time>
</trkpt>
<trkpt lat="48.851013109087944" lon="9.83521361835301">
<ele>397.2</ele>
<time>2024-05-07T09:52:33Z</time>
</trkpt>
<trkpt lat="48.85105510242283" lon="9.83516877517104">
<ele>397.2</ele>
<time>2024-05-07T09:52:34Z</time>
</trkpt>
<trkpt lat="48.85110472328961" lon="9.835122087970376">
<ele>397</ele>
<time>2024-05-07T09:52:35Z</time>
</trkpt>
<trkpt lat="48.85115426033735" lon="9.83507531695068">
<ele>396.8</ele>
<time>2024-05-07T09:52:36Z</time>
</trkpt>
<trkpt lat="48.85120002552867" lon="9.835024774074554">
<ele>396.6</ele>
<time>2024-05-07T09:52:37Z</time>
</trkpt>
<trkpt lat="48.851249646395445" lon="9.83497523702681">
<ele>396.4</ele>
<time>2024-05-07T09:52:38Z</time>
</trkpt>
<trkpt lat="48.85129926726222" lon="9.834926538169384">
<ele>396.2</ele>
<time>2024-05-07T09:52:39Z</time>
</trkpt>
<trkpt lat="48.85134880430997" lon="9.834877923130987">
<ele>396.2</ele>
<time>2024-05-07T09:52:40Z</time>
</trkpt>
<trkpt lat="48.85139842517674" lon="9.834828302264214">
<ele>396</ele>
<time>2024-05-07T09:52:41Z</time>
</trkpt>
<trkpt lat="48.85145181789994" lon="9.834781615063548">
<ele>396</ele>
<time>2024-05-07T09:52:42Z</time>
</trkpt>
<trkpt lat="48.85149758309126" lon="9.834734844043853">
<ele>395.8</ele>
<time>2024-05-07T09:52:43Z</time>
</trkpt>
<trkpt lat="48.851543348282576" lon="9.834688156843184">
<ele>395.8</ele>
<time>2024-05-07T09:52:44Z</time>
</trkpt>
<trkpt lat="48.851585341617465" lon="9.834641385823488">
<ele>395.8</ele>
<time>2024-05-07T09:52:45Z</time>
</trkpt>
<trkpt lat="48.85163496248424" lon="9.834601320326328">
<ele>395.8</ele>
<time>2024-05-07T09:52:46Z</time>
</trkpt>
<trkpt lat="48.8516768720001" lon="9.834565110504627">
<ele>395.8</ele>
<time>2024-05-07T09:52:47Z</time>
</trkpt>
<trkpt lat="48.851722637191415" lon="9.834534600377085">
<ele>396</ele>
<time>2024-05-07T09:52:48Z</time>
</trkpt>
<trkpt lat="48.85176848620176" lon="9.834511717781425">
<ele>396</ele>
<time>2024-05-07T09:52:49Z</time>
</trkpt>
<trkpt lat="48.85181425139308" lon="9.834493612870574">
<ele>396.2</ele>
<time>2024-05-07T09:52:50Z</time>
</trkpt>
<trkpt lat="48.8518600165844" lon="9.834474502131345">
<ele>396.2</ele>
<time>2024-05-07T09:52:51Z</time>
</trkpt>
<trkpt lat="48.85189815424383" lon="9.8344611749053">
<ele>396.2</ele>
<time>2024-05-07T09:52:52Z</time>
</trkpt>
<trkpt lat="48.85194014757872" lon="9.834453547373414">
<ele>396.4</ele>
<time>2024-05-07T09:52:53Z</time>
</trkpt>
<trkpt lat="48.85197828523815" lon="9.834456397220492">
<ele>396.4</ele>
<time>2024-05-07T09:52:54Z</time>
</trkpt>
<trkpt lat="48.85201256722212" lon="9.83446310274303">
<ele>396.4</ele>
<time>2024-05-07T09:52:55Z</time>
</trkpt>
<trkpt lat="48.85204307734966" lon="9.834480285644531">
<ele>396.6</ele>
<time>2024-05-07T09:52:56Z</time>
</trkpt>
<trkpt lat="48.85207358747721" lon="9.83450124040246">
<ele>396.6</ele>
<time>2024-05-07T09:52:57Z</time>
</trkpt>
<trkpt lat="48.85210032574832" lon="9.834526972845197">
<ele>396.8</ele>
<time>2024-05-07T09:52:58Z</time>
</trkpt>
<trkpt lat="48.85213083587587" lon="9.834554633125665">
<ele>396.8</ele>
<time>2024-05-07T09:52:59Z</time>
</trkpt>
<trkpt lat="48.852157574146986" lon="9.834589920938017">
<ele>397</ele>
<time>2024-05-07T09:53:00Z</time>
</trkpt>
<trkpt lat="48.85218422859907" lon="9.834623280912638">
<ele>397.2</ele>
<time>2024-05-07T09:53:01Z</time>
</trkpt>
<trkpt lat="48.85220711119473" lon="9.83465957455337">
<ele>397.4</ele>
<time>2024-05-07T09:53:02Z</time>
</trkpt>
<trkpt lat="48.85222999379039" lon="9.83469863422215">
<ele>397.4</ele>
<time>2024-05-07T09:53:03Z</time>
</trkpt>
<trkpt lat="48.852256732061505" lon="9.83473677188158">
<ele>397.6</ele>
<time>2024-05-07T09:53:04Z</time>
</trkpt>
<trkpt lat="48.85228347033262" lon="9.834772059693933">
<ele>397.8</ele>
<time>2024-05-07T09:53:05Z</time>
</trkpt>
<trkpt lat="48.85230635292828" lon="9.834804497659206">
<ele>398</ele>
<time>2024-05-07T09:53:06Z</time>
</trkpt>
<trkpt lat="48.852333007380366" lon="9.83483785763383">
<ele>398.4</ele>
<time>2024-05-07T09:53:07Z</time>
</trkpt>
<trkpt lat="48.85236351750791" lon="9.834870295599105">
<ele>398.6</ele>
<time>2024-05-07T09:53:08Z</time>
</trkpt>
<trkpt lat="48.85239025577903" lon="9.834904661402106">
<ele>398.8</ele>
<time>2024-05-07T09:53:09Z</time>
</trkpt>
<trkpt lat="48.85241691023111" lon="9.834937015548348">
<ele>399</ele>
<time>2024-05-07T09:53:10Z</time>
</trkpt>
<trkpt lat="48.85244364850223" lon="9.834966603666544">
<ele>399.2</ele>
<time>2024-05-07T09:53:11Z</time>
</trkpt>
<trkpt lat="48.85247038677335" lon="9.83499526977539">
<ele>399.4</ele>
<time>2024-05-07T09:53:12Z</time>
</trkpt>
<trkpt lat="48.85250089690089" lon="9.835019996389748">
<ele>399.6</ele>
<time>2024-05-07T09:53:13Z</time>
</trkpt>
<trkpt lat="48.85252755135298" lon="9.835042878985403">
<ele>399.8</ele>
<time>2024-05-07T09:53:14Z</time>
</trkpt>
<trkpt lat="48.85255806148052" lon="9.835064839571714">
<ele>400</ele>
<time>2024-05-07T09:53:15Z</time>
</trkpt>
<trkpt lat="48.85258857160807" lon="9.835082022473216">
<ele>400</ele>
<time>2024-05-07T09:53:16Z</time>
</trkpt>
<trkpt lat="48.85262293741107" lon="9.835098199546335">
<ele>400.4</ele>
<time>2024-05-07T09:53:17Z</time>
</trkpt>
<trkpt lat="48.85265730321407" lon="9.835109682753682">
<ele>400.6</ele>
<time>2024-05-07T09:53:18Z</time>
</trkpt>
<trkpt lat="48.85268781334162" lon="9.835118232294915">
<ele>400.8</ele>
<time>2024-05-07T09:53:19Z</time>
</trkpt>
<trkpt lat="48.85271832346916" lon="9.835124937817454">
<ele>401.2</ele>
<time>2024-05-07T09:53:20Z</time>
</trkpt>
<trkpt lat="48.852752605453134" lon="9.835124937817454">
<ele>401.6</ele>
<time>2024-05-07T09:53:21Z</time>
</trkpt>
<trkpt lat="48.85278319939971" lon="9.835122087970376">
<ele>401.8</ele>
<time>2024-05-07T09:53:22Z</time>
</trkpt>
<trkpt lat="48.85282133705914" lon="9.835116304457188">
<ele>402</ele>
<time>2024-05-07T09:53:23Z</time>
</trkpt>
<trkpt lat="48.852851847186685" lon="9.835108676925302">
<ele>402.4</ele>
<time>2024-05-07T09:53:24Z</time>
</trkpt>
<trkpt lat="48.85288235731423" lon="9.835098199546335">
<ele>402.6</ele>
<time>2024-05-07T09:53:25Z</time>
</trkpt>
<trkpt lat="48.85291286744177" lon="9.835084872320294">
<ele>403</ele>
<time>2024-05-07T09:53:26Z</time>
</trkpt>
<trkpt lat="48.85294337756932" lon="9.835068695247172">
<ele>403.2</ele>
<time>2024-05-07T09:53:27Z</time>
</trkpt>
<trkpt lat="48.852970115840435" lon="9.835046734660864">
<ele>403.4</ele>
<time>2024-05-07T09:53:28Z</time>
</trkpt>
<trkpt lat="48.85299677029252" lon="9.835022846236823">
<ele>403.8</ele>
<time>2024-05-07T09:53:29Z</time>
</trkpt>
<trkpt lat="48.853027280420065" lon="9.834999963641168">
<ele>404</ele>
<time>2024-05-07T09:53:30Z</time>
</trkpt>
<trkpt lat="48.85305401869118" lon="9.83497330918908">
<ele>404.4</ele>
<time>2024-05-07T09:53:31Z</time>
</trkpt>
<trkpt lat="48.85307690128684" lon="9.834944643080236">
<ele>404.6</ele>
<time>2024-05-07T09:53:32Z</time>
</trkpt>
<trkpt lat="48.8530997838825" lon="9.83491513878107">
<ele>405</ele>
<time>2024-05-07T09:53:33Z</time>
</trkpt>
<trkpt lat="48.85311889462173" lon="9.834884628653526">
<ele>405.2</ele>
<time>2024-05-07T09:53:34Z</time>
</trkpt>
<trkpt lat="48.85314177721739" lon="9.8348531126976">
<ele>405.6</ele>
<time>2024-05-07T09:53:35Z</time>
</trkpt>
<trkpt lat="48.85315703228116" lon="9.83481975272298">
<ele>405.8</ele>
<time>2024-05-07T09:53:36Z</time>
</trkpt>
<trkpt lat="48.85317605920136" lon="9.834785386919975">
<ele>406.2</ele>
<time>2024-05-07T09:53:37Z</time>
</trkpt>
<trkpt lat="48.85319516994059" lon="9.834748255088924">
<ele>406.4</ele>
<time>2024-05-07T09:53:38Z</time>
</trkpt>
<trkpt lat="48.853206569328904" lon="9.834710117429497">
<ele>406.8</ele>
<time>2024-05-07T09:53:39Z</time>
</trkpt>
<trkpt lat="48.85321805253625" lon="9.834670051932337">
<ele>407.2</ele>
<time>2024-05-07T09:53:40Z</time>
</trkpt>
<trkpt lat="48.85322945192456" lon="9.834625208750367">
<ele>407.6</ele>
<time>2024-05-07T09:53:41Z</time>
</trkpt>
<trkpt lat="48.85324093513191" lon="9.83458137139678">
<ele>407.8</ele>
<time>2024-05-07T09:53:42Z</time>
</trkpt>
<trkpt lat="48.85325233452022" lon="9.834538456052542">
<ele>408.2</ele>
<time>2024-05-07T09:53:43Z</time>
</trkpt>
<trkpt lat="48.85325996205211" lon="9.834494534879925">
<ele>408.6</ele>
<time>2024-05-07T09:53:44Z</time>
</trkpt>
<trkpt lat="48.853263817727566" lon="9.834449691697955">
<ele>409</ele>
<time>2024-05-07T09:53:45Z</time>
</trkpt>
<trkpt lat="48.85327144525945" lon="9.83440493233502">
<ele>409.4</ele>
<time>2024-05-07T09:53:46Z</time>
</trkpt>
<trkpt lat="48.85327521711588" lon="9.83436293900013">
<ele>409.6</ele>
<time>2024-05-07T09:53:47Z</time>
</trkpt>
<trkpt lat="48.85327907279134" lon="9.834320023655891">
<ele>410</ele>
<time>2024-05-07T09:53:48Z</time>
</trkpt>
<trkpt lat="48.853286700323224" lon="9.834275180473924">
<ele>410.4</ele>
<time>2024-05-07T09:53:49Z</time>
</trkpt>
<trkpt lat="48.853286700323224" lon="9.834230421110988">
<ele>410.8</ele>
<time>2024-05-07T09:53:50Z</time>
</trkpt>
<trkpt lat="48.853286700323224" lon="9.83418365009129">
<ele>411</ele>
<time>2024-05-07T09:53:51Z</time>
</trkpt>
<trkpt lat="48.853286700323224" lon="9.834136962890623">
<ele>411.4</ele>
<time>2024-05-07T09:53:52Z</time>
</trkpt>
<trkpt lat="48.8532829284668" lon="9.834091113880277">
<ele>411.6</ele>
<time>2024-05-07T09:53:53Z</time>
</trkpt>
<trkpt lat="48.85327907279134" lon="9.834048198536038">
<ele>411.8</ele>
<time>2024-05-07T09:53:54Z</time>
</trkpt>
<trkpt lat="48.85327907279134" lon="9.8340052831918">
<ele>412</ele>
<time>2024-05-07T09:53:55Z</time>
</trkpt>
<trkpt lat="48.85327144525945" lon="9.833965301513672">
<ele>412.4</ele>
<time>2024-05-07T09:53:56Z</time>
</trkpt>
<trkpt lat="48.85327144525945" lon="9.833923308178782">
<ele>412.6</ele>
<time>2024-05-07T09:53:57Z</time>
</trkpt>
<trkpt lat="48.85326758958399" lon="9.833880392834544">
<ele>412.8</ele>
<time>2024-05-07T09:53:58Z</time>
</trkpt>
<trkpt lat="48.85325996205211" lon="9.833838399499657">
<ele>413</ele>
<time>2024-05-07T09:53:59Z</time>
</trkpt>
<trkpt lat="48.85325619019568" lon="9.833794562146068">
<ele>413.4</ele>
<time>2024-05-07T09:54:00Z</time>
</trkpt>
<trkpt lat="48.853248562663794" lon="9.83375164680183">
<ele>413.6</ele>
<time>2024-05-07T09:54:01Z</time>
</trkpt>
<trkpt lat="48.853244706988335" lon="9.833708731457593">
<ele>413.8</ele>
<time>2024-05-07T09:54:02Z</time>
</trkpt>
<trkpt lat="48.85323707945645" lon="9.833664894104004">
<ele>414</ele>
<time>2024-05-07T09:54:03Z</time>
</trkpt>
<trkpt lat="48.85322945192456" lon="9.833620050922036">
<ele>414.2</ele>
<time>2024-05-07T09:54:04Z</time>
</trkpt>
<trkpt lat="48.85322182439267" lon="9.833578057587149">
<ele>414.4</ele>
<time>2024-05-07T09:54:05Z</time>
</trkpt>
<trkpt lat="48.85321805253625" lon="9.833539919927716">
<ele>414.8</ele>
<time>2024-05-07T09:54:06Z</time>
</trkpt>
<trkpt lat="48.85321419686079" lon="9.833503710106015">
<ele>415</ele>
<time>2024-05-07T09:54:07Z</time>
</trkpt>
<trkpt lat="48.85321042500436" lon="9.833463644608855">
<ele>415.2</ele>
<time>2024-05-07T09:54:08Z</time>
</trkpt>
<trkpt lat="48.85319894179702" lon="9.833419723436236">
<ele>415.4</ele>
<time>2024-05-07T09:54:09Z</time>
</trkpt>
<trkpt lat="48.85319516994059" lon="9.83337781392038">
<ele>415.8</ele>
<time>2024-05-07T09:54:10Z</time>
</trkpt>
<trkpt lat="48.853183686733246" lon="9.83333489857614">
<ele>416</ele>
<time>2024-05-07T09:54:11Z</time>
</trkpt>
<trkpt lat="48.85317991487682" lon="9.83329676091671">
<ele>416.2</ele>
<time>2024-05-07T09:54:12Z</time>
</trkpt>
<trkpt lat="48.85317228734493" lon="9.833259545266628">
<ele>416.4</ele>
<time>2024-05-07T09:54:13Z</time>
</trkpt>
<trkpt lat="48.85316465981305" lon="9.83321855776012">
<ele>416.6</ele>
<time>2024-05-07T09:54:14Z</time>
</trkpt>
<trkpt lat="48.85315703228116" lon="9.83317849226296">
<ele>416.8</ele>
<time>2024-05-07T09:54:15Z</time>
</trkpt>
<trkpt lat="48.853149404749274" lon="9.83313457109034">
<ele>417.2</ele>
<time>2024-05-07T09:54:16Z</time>
</trkpt>
<trkpt lat="48.85314177721739" lon="9.833094589412212">
<ele>417.4</ele>
<time>2024-05-07T09:54:17Z</time>
</trkpt>
<trkpt lat="48.85313792154193" lon="9.83305636793375">
<ele>417.6</ele>
<time>2024-05-07T09:54:18Z</time>
</trkpt>
<trkpt lat="48.8531341496855" lon="9.83301538042724">
<ele>418</ele>
<time>2024-05-07T09:54:19Z</time>
</trkpt>
<trkpt lat="48.853126522153616" lon="9.832969615235925">
<ele>418.2</ele>
<time>2024-05-07T09:54:20Z</time>
</trkpt>
<trkpt lat="48.853126522153616" lon="9.832929549738765">
<ele>418.6</ele>
<time>2024-05-07T09:54:21Z</time>
</trkpt>
<trkpt lat="48.85312266647816" lon="9.832895267754791">
<ele>419</ele>
<time>2024-05-07T09:54:22Z</time>
</trkpt>
<trkpt lat="48.85311889462173" lon="9.832849502563477">
<ele>419.2</ele>
<time>2024-05-07T09:54:23Z</time>
</trkpt>
<trkpt lat="48.85311889462173" lon="9.832810359075664">
<ele>419.4</ele>
<time>2024-05-07T09:54:24Z</time>
</trkpt>
<trkpt lat="48.85311503894627" lon="9.832766521722078">
<ele>419.6</ele>
<time>2024-05-07T09:54:25Z</time>
</trkpt>
<trkpt lat="48.85311503894627" lon="9.83271975070238">
<ele>420</ele>
<time>2024-05-07T09:54:26Z</time>
</trkpt>
<trkpt lat="48.85311126708984" lon="9.832673063501716">
<ele>420.2</ele>
<time>2024-05-07T09:54:27Z</time>
</trkpt>
<trkpt lat="48.853107411414385" lon="9.83262344263494">
<ele>420.4</ele>
<time>2024-05-07T09:54:28Z</time>
</trkpt>
<trkpt lat="48.8530997838825" lon="9.832572899758816">
<ele>420.8</ele>
<time>2024-05-07T09:54:29Z</time>
</trkpt>
<trkpt lat="48.8530997838825" lon="9.832532834261656">
<ele>421</ele>
<time>2024-05-07T09:54:30Z</time>
</trkpt>
<trkpt lat="48.85309592820704" lon="9.832489918917418">
<ele>421.4</ele>
<time>2024-05-07T09:54:31Z</time>
</trkpt>
<trkpt lat="48.8530997838825" lon="9.83244507573545">
<ele>421.8</ele>
<time>2024-05-07T09:54:32Z</time>
</trkpt>
<trkpt lat="48.853103555738926" lon="9.832396460697057">
<ele>422</ele>
<time>2024-05-07T09:54:33Z</time>
</trkpt>
<trkpt lat="48.85311503894627" lon="9.83234683983028">
<ele>422.2</ele>
<time>2024-05-07T09:54:34Z</time>
</trkpt>
<trkpt lat="48.85311889462173" lon="9.832300152629614">
<ele>422.6</ele>
<time>2024-05-07T09:54:35Z</time>
</trkpt>
<trkpt lat="48.853126522153616" lon="9.832255309447646">
<ele>422.8</ele>
<time>2024-05-07T09:54:36Z</time>
</trkpt>
<trkpt lat="48.85313029401004" lon="9.83220862224698">
<ele>423</ele>
<time>2024-05-07T09:54:37Z</time>
</trkpt>
<trkpt lat="48.8531341496855" lon="9.832158079370856">
<ele>423</ele>
<time>2024-05-07T09:54:38Z</time>
</trkpt>
<trkpt lat="48.853145549073815" lon="9.83211130835116">
<ele>423.2</ele>
<time>2024-05-07T09:54:39Z</time>
</trkpt>
<trkpt lat="48.8531531766057" lon="9.832066465169191">
<ele>423.4</ele>
<time>2024-05-07T09:54:40Z</time>
</trkpt>
<trkpt lat="48.85315703228116" lon="9.832023549824951">
<ele>423.6</ele>
<time>2024-05-07T09:54:41Z</time>
</trkpt>
<trkpt lat="48.85316080413759" lon="9.831985412165524">
<ele>423.8</ele>
<time>2024-05-07T09:54:42Z</time>
</trkpt>
<trkpt lat="48.85316465981305" lon="9.831946352496743">
<ele>424.2</ele>
<time>2024-05-07T09:54:43Z</time>
</trkpt>
<trkpt lat="48.853168431669474" lon="9.831905364990234">
<ele>424.4</ele>
<time>2024-05-07T09:54:44Z</time>
</trkpt>
<trkpt lat="48.85317228734493" lon="9.831861443817616">
<ele>424.6</ele>
<time>2024-05-07T09:54:45Z</time>
</trkpt>
<trkpt lat="48.85317605920136" lon="9.831818528473375">
<ele>424.8</ele>
<time>2024-05-07T09:54:46Z</time>
</trkpt>
<trkpt lat="48.853183686733246" lon="9.831771841272712">
<ele>425</ele>
<time>2024-05-07T09:54:47Z</time>
</trkpt>
<trkpt lat="48.85319131426513" lon="9.831727920100093">
<ele>425.2</ele>
<time>2024-05-07T09:54:48Z</time>
</trkpt>
<trkpt lat="48.85319131426513" lon="9.831686932593584">
<ele>425.4</ele>
<time>2024-05-07T09:54:49Z</time>
</trkpt>
<trkpt lat="48.85319516994059" lon="9.831643095239995">
<ele>425.6</ele>
<time>2024-05-07T09:54:50Z</time>
</trkpt>
<trkpt lat="48.85319894179702" lon="9.83159825205803">
<ele>425.8</ele>
<time>2024-05-07T09:54:51Z</time>
</trkpt>
<trkpt lat="48.85320279747248" lon="9.831551481038332">
<ele>426.2</ele>
<time>2024-05-07T09:54:52Z</time>
</trkpt>
<trkpt lat="48.85320279747248" lon="9.831502865999935">
<ele>426.4</ele>
<time>2024-05-07T09:54:53Z</time>
</trkpt>
<trkpt lat="48.85320279747248" lon="9.83145802281797">
<ele>426.8</ele>
<time>2024-05-07T09:54:54Z</time>
</trkpt>
<trkpt lat="48.85320279747248" lon="9.831411335617304">
<ele>427</ele>
<time>2024-05-07T09:54:55Z</time>
</trkpt>
<trkpt lat="48.853206569328904" lon="9.831363642588258">
<ele>427.4</ele>
<time>2024-05-07T09:54:56Z</time>
</trkpt>
<trkpt lat="48.85320279747248" lon="9.83131980523467">
<ele>427.6</ele>
<time>2024-05-07T09:54:57Z</time>
</trkpt>
<trkpt lat="48.85319894179702" lon="9.831276889890432">
<ele>427.8</ele>
<time>2024-05-07T09:54:58Z</time>
</trkpt>
<trkpt lat="48.85319894179702" lon="9.831232046708465">
<ele>428</ele>
<time>2024-05-07T09:54:59Z</time>
</trkpt>
<trkpt lat="48.85319516994059" lon="9.831186281517148">
<ele>428.2</ele>
<time>2024-05-07T09:55:00Z</time>
</trkpt>
<trkpt lat="48.85319516994059" lon="9.83113951049745">
<ele>428.4</ele>
<time>2024-05-07T09:55:01Z</time>
</trkpt>
<trkpt lat="48.85319516994059" lon="9.831094667315485">
<ele>428.6</ele>
<time>2024-05-07T09:55:02Z</time>
</trkpt>
<trkpt lat="48.85319516994059" lon="9.831051751971245">
<ele>428.8</ele>
<time>2024-05-07T09:55:03Z</time>
</trkpt>
<trkpt lat="48.85319516994059" lon="9.831006992608309">
<ele>428.8</ele>
<time>2024-05-07T09:55:04Z</time>
</trkpt>
<trkpt lat="48.85319894179702" lon="9.830960221588612">
<ele>429</ele>
<time>2024-05-07T09:55:05Z</time>
</trkpt>
<trkpt lat="48.853206569328904" lon="9.830915378406644">
<ele>429.4</ele>
<time>2024-05-07T09:55:06Z</time>
</trkpt>
<trkpt lat="48.85322182439267" lon="9.830873468890786">
<ele>429.6</ele>
<time>2024-05-07T09:55:07Z</time>
</trkpt>
<trkpt lat="48.853244706988335" lon="9.830836253240705">
<ele>429.8</ele>
<time>2024-05-07T09:55:08Z</time>
</trkpt>
<trkpt lat="48.85326758958399" lon="9.830813370645046">
<ele>430</ele>
<time>2024-05-07T09:55:09Z</time>
</trkpt>
<trkpt lat="48.85329432785511" lon="9.830808592960238">
<ele>430.4</ele>
<time>2024-05-07T09:55:10Z</time>
</trkpt>
<trkpt lat="48.853324837982655" lon="9.830816220492125">
<ele>430.6</ele>
<time>2024-05-07T09:55:11Z</time>
</trkpt>
<trkpt lat="48.85335157625377" lon="9.830838181078434">
<ele>430.8</ele>
<time>2024-05-07T09:55:12Z</time>
</trkpt>
<trkpt lat="48.85337060317397" lon="9.83086483553052">
<ele>431</ele>
<time>2024-05-07T09:55:13Z</time>
</trkpt>
<trkpt lat="48.85339348576963" lon="9.830895345658064">
<ele>431.4</ele>
<time>2024-05-07T09:55:14Z</time>
</trkpt>
<trkpt lat="48.85341259650886" lon="9.830928789451718">
<ele>431.6</ele>
<time>2024-05-07T09:55:15Z</time>
</trkpt>
<trkpt lat="48.85343547910452" lon="9.830966927111149">
<ele>432</ele>
<time>2024-05-07T09:55:16Z</time>
</trkpt>
<trkpt lat="48.85345458984375" lon="9.83100506477058">
<ele>432.4</ele>
<time>2024-05-07T09:55:17Z</time>
</trkpt>
<trkpt lat="48.85347361676395" lon="9.831040352582932">
<ele>432.6</ele>
<time>2024-05-07T09:55:18Z</time>
</trkpt>
<trkpt lat="48.85349272750318" lon="9.831074634566903">
<ele>433</ele>
<time>2024-05-07T09:55:19Z</time>
</trkpt>
<trkpt lat="48.85350798256695" lon="9.831114700064065">
<ele>433.4</ele>
<time>2024-05-07T09:55:20Z</time>
</trkpt>
<trkpt lat="48.853523237630725" lon="9.831152837723494">
<ele>433.6</ele>
<time>2024-05-07T09:55:21Z</time>
</trkpt>
<trkpt lat="48.85353463701904" lon="9.831190053373575">
<ele>434</ele>
<time>2024-05-07T09:55:22Z</time>
</trkpt>
<trkpt lat="48.85354989208281" lon="9.831226347014308">
<ele>434.2</ele>
<time>2024-05-07T09:55:23Z</time>
</trkpt>
<trkpt lat="48.853561375290155" lon="9.831264484673738">
<ele>434.4</ele>
<time>2024-05-07T09:55:24Z</time>
</trkpt>
<trkpt lat="48.85357663035393" lon="9.831304550170898">
<ele>434.6</ele>
<time>2024-05-07T09:55:25Z</time>
</trkpt>
<trkpt lat="48.85358802974224" lon="9.831343609839678">
<ele>435</ele>
<time>2024-05-07T09:55:26Z</time>
</trkpt>
<trkpt lat="48.853599512949586" lon="9.831381747499108">
<ele>435.2</ele>
<time>2024-05-07T09:55:27Z</time>
</trkpt>
<trkpt lat="48.8536109123379" lon="9.83141795732081">
<ele>435.4</ele>
<time>2024-05-07T09:55:28Z</time>
</trkpt>
<trkpt lat="48.85362239554525" lon="9.831455172970893">
<ele>435.6</ele>
<time>2024-05-07T09:55:29Z</time>
</trkpt>
<trkpt lat="48.85363387875259" lon="9.831491466611624">
<ele>435.8</ele>
<time>2024-05-07T09:55:30Z</time>
</trkpt>
<trkpt lat="48.85364913381636" lon="9.831529604271054">
<ele>436</ele>
<time>2024-05-07T09:55:31Z</time>
</trkpt>
<trkpt lat="48.853660533204675" lon="9.831566736102104">
<ele>436.2</ele>
<time>2024-05-07T09:55:32Z</time>
</trkpt>
<trkpt lat="48.85367201641202" lon="9.831608729436994">
<ele>436.6</ele>
<time>2024-05-07T09:55:33Z</time>
</trkpt>
<trkpt lat="48.85368341580033" lon="9.831651644781232">
<ele>436.8</ele>
<time>2024-05-07T09:55:34Z</time>
</trkpt>
<trkpt lat="48.853698670864105" lon="9.83169363811612">
<ele>437.2</ele>
<time>2024-05-07T09:55:35Z</time>
</trkpt>
<trkpt lat="48.85371015407145" lon="9.83173370361328">
<ele>437.4</ele>
<time>2024-05-07T09:55:36Z</time>
</trkpt>
<trkpt lat="48.85372540913522" lon="9.831771841272712">
<ele>437.6</ele>
<time>2024-05-07T09:55:37Z</time>
</trkpt>
<trkpt lat="48.85374443605542" lon="9.831808051094413">
<ele>437.8</ele>
<time>2024-05-07T09:55:38Z</time>
</trkpt>
<trkpt lat="48.853759691119194" lon="9.831841411069036">
<ele>438</ele>
<time>2024-05-07T09:55:39Z</time>
</trkpt>
<trkpt lat="48.853778801858425" lon="9.831874771043658">
<ele>438.4</ele>
<time>2024-05-07T09:55:40Z</time>
</trkpt>
<trkpt lat="48.853797912597656" lon="9.83191198669374">
<ele>438.6</ele>
<time>2024-05-07T09:55:41Z</time>
</trkpt>
<trkpt lat="48.85381316766143" lon="9.831943502649665">
<ele>438.8</ele>
<time>2024-05-07T09:55:42Z</time>
</trkpt>
<trkpt lat="48.85383219458163" lon="9.831973006948829">
<ele>439</ele>
<time>2024-05-07T09:55:43Z</time>
</trkpt>
<trkpt lat="48.85385130532086" lon="9.831999745219946">
<ele>439.4</ele>
<time>2024-05-07T09:55:44Z</time>
</trkpt>
<trkpt lat="48.85387033224106" lon="9.832023549824951">
<ele>439.6</ele>
<time>2024-05-07T09:55:45Z</time>
</trkpt>
<trkpt lat="48.85388944298029" lon="9.832046432420611">
<ele>440</ele>
<time>2024-05-07T09:55:46Z</time>
</trkpt>
<trkpt lat="48.85390846990049" lon="9.832064621150494">
<ele>440.2</ele>
<time>2024-05-07T09:55:47Z</time>
</trkpt>
<trkpt lat="48.853935208171606" lon="9.832083648070691">
<ele>440.4</ele>
<time>2024-05-07T09:55:48Z</time>
</trkpt>
<trkpt lat="48.85396186262369" lon="9.832101752981544">
<ele>440.6</ele>
<time>2024-05-07T09:55:49Z</time>
</trkpt>
<trkpt lat="48.85399245657027" lon="9.832119941711426">
<ele>441</ele>
<time>2024-05-07T09:55:50Z</time>
</trkpt>
<trkpt lat="48.85401911102235" lon="9.832135196775198">
<ele>441.2</ele>
<time>2024-05-07T09:55:51Z</time>
</trkpt>
<trkpt lat="48.8540496211499" lon="9.832139890640974">
<ele>441.4</ele>
<time>2024-05-07T09:55:52Z</time>
</trkpt>
<trkpt lat="48.854076359421015" lon="9.832146596163511">
<ele>441.6</ele>
<time>2024-05-07T09:55:53Z</time>
</trkpt>
<trkpt lat="48.8541030138731" lon="9.832144668325782">
<ele>442</ele>
<time>2024-05-07T09:55:54Z</time>
</trkpt>
<trkpt lat="48.85412975214422" lon="9.832139890640974">
<ele>442.2</ele>
<time>2024-05-07T09:55:55Z</time>
</trkpt>
<trkpt lat="48.854156490415335" lon="9.83213134109974">
<ele>442.6</ele>
<time>2024-05-07T09:55:56Z</time>
</trkpt>
<trkpt lat="48.85418314486742" lon="9.832118013873696">
<ele>442.8</ele>
<time>2024-05-07T09:55:57Z</time>
</trkpt>
<trkpt lat="48.85420988313854" lon="9.832103680819271">
<ele>443</ele>
<time>2024-05-07T09:55:58Z</time>
</trkpt>
<trkpt lat="48.85424039326608" lon="9.832083648070691">
<ele>443.2</ele>
<time>2024-05-07T09:55:59Z</time>
</trkpt>
<trkpt lat="48.85426327586174" lon="9.832064621150494">
<ele>443.4</ele>
<time>2024-05-07T09:56:00Z</time>
</trkpt>
<trkpt lat="48.854289930313826" lon="9.832043582573531">
<ele>443.8</ele>
<time>2024-05-07T09:56:01Z</time>
</trkpt>
<trkpt lat="48.85431666858494" lon="9.832015000283718">
<ele>444</ele>
<time>2024-05-07T09:56:02Z</time>
</trkpt>
<trkpt lat="48.85434717871249" lon="9.831985412165524">
<ele>444.4</ele>
<time>2024-05-07T09:56:03Z</time>
</trkpt>
<trkpt lat="48.854370061308146" lon="9.831952974200249">
<ele>444.8</ele>
<time>2024-05-07T09:56:04Z</time>
</trkpt>
<trkpt lat="48.85438917204738" lon="9.831925313919784">
<ele>445.2</ele>
<time>2024-05-07T09:56:05Z</time>
</trkpt>
<trkpt lat="48.854408198967576" lon="9.831886254251003">
<ele>445.4</ele>
<time>2024-05-07T09:56:06Z</time>
</trkpt>
<trkpt lat="48.854431081563234" lon="9.831851888448">
<ele>445.8</ele>
<time>2024-05-07T09:56:07Z</time>
</trkpt>
<trkpt lat="48.85445396415889" lon="9.831816600635648">
<ele>446</ele>
<time>2024-05-07T09:56:08Z</time>
</trkpt>
<trkpt lat="48.85447307489813" lon="9.831780390813949">
<ele>446.4</ele>
<time>2024-05-07T09:56:09Z</time>
</trkpt>
<trkpt lat="48.854492185637355" lon="9.831743175163863">
<ele>446.6</ele>
<time>2024-05-07T09:56:10Z</time>
</trkpt>
<trkpt lat="48.854511212557554" lon="9.831705037504436">
<ele>446.8</ele>
<time>2024-05-07T09:56:11Z</time>
</trkpt>
<trkpt lat="48.854526467621326" lon="9.831664972007276">
<ele>447.2</ele>
<time>2024-05-07T09:56:12Z</time>
</trkpt>
<trkpt lat="48.8545417226851" lon="9.831624906510116">
<ele>447.4</ele>
<time>2024-05-07T09:56:13Z</time>
</trkpt>
<trkpt lat="48.85455697774887" lon="9.831581991165876">
<ele>447.8</ele>
<time>2024-05-07T09:56:14Z</time>
</trkpt>
<trkpt lat="48.854568460956216" lon="9.83153815381229">
<ele>448</ele>
<time>2024-05-07T09:56:15Z</time>
</trkpt>
<trkpt lat="48.85457986034453" lon="9.8314961604774">
<ele>448.2</ele>
<time>2024-05-07T09:56:16Z</time>
</trkpt>
<trkpt lat="48.854587487876415" lon="9.83145710080862">
<ele>448.6</ele>
<time>2024-05-07T09:56:17Z</time>
</trkpt>
<trkpt lat="48.8545951154083" lon="9.831415107473733">
<ele>448.8</ele>
<time>2024-05-07T09:56:18Z</time>
</trkpt>
<trkpt lat="48.85459897108376" lon="9.831371270120144">
<ele>449.2</ele>
<time>2024-05-07T09:56:19Z</time>
</trkpt>
<trkpt lat="48.854606598615646" lon="9.831326426938176">
<ele>449.4</ele>
<time>2024-05-07T09:56:20Z</time>
</trkpt>
<trkpt lat="48.85461422614753" lon="9.831276889890432">
<ele>449.8</ele>
<time>2024-05-07T09:56:21Z</time>
</trkpt>
<trkpt lat="48.85461422614753" lon="9.831230118870735">
<ele>450</ele>
<time>2024-05-07T09:56:22Z</time>
</trkpt>
<trkpt lat="48.85461799800396" lon="9.831190053373575">
<ele>450.2</ele>
<time>2024-05-07T09:56:23Z</time>
</trkpt>
<trkpt lat="48.85461422614753" lon="9.831146216019988">
<ele>450.6</ele>
<time>2024-05-07T09:56:24Z</time>
</trkpt>
<trkpt lat="48.85461422614753" lon="9.831100450828671">
<ele>450.8</ele>
<time>2024-05-07T09:56:25Z</time>
</trkpt>
<trkpt lat="48.854610370472074" lon="9.831058457493782">
<ele>451</ele>
<time>2024-05-07T09:56:26Z</time>
</trkpt>
<trkpt lat="48.854610370472074" lon="9.831016464158893">
<ele>451.2</ele>
<time>2024-05-07T09:56:27Z</time>
</trkpt>
<trkpt lat="48.85461422614753" lon="9.830969776958227">
<ele>451.4</ele>
<time>2024-05-07T09:56:28Z</time>
</trkpt>
<trkpt lat="48.85461422614753" lon="9.83092493377626">
<ele>451.6</ele>
<time>2024-05-07T09:56:29Z</time>
</trkpt>
<trkpt lat="48.85461799800396" lon="9.830883024260402">
<ele>451.8</ele>
<time>2024-05-07T09:56:30Z</time>
</trkpt>
<trkpt lat="48.85461422614753" lon="9.830835331231356">
<ele>452.2</ele>
<time>2024-05-07T09:56:31Z</time>
</trkpt>
<trkpt lat="48.85461799800396" lon="9.830795265734196">
<ele>452.4</ele>
<time>2024-05-07T09:56:32Z</time>
</trkpt>
<trkpt lat="48.85461799800396" lon="9.830758050084114">
<ele>452.6</ele>
<time>2024-05-07T09:56:33Z</time>
</trkpt>
<trkpt lat="48.85462185367942" lon="9.830719912424684">
<ele>452.8</ele>
<time>2024-05-07T09:56:34Z</time>
</trkpt>
<trkpt lat="48.854629481211305" lon="9.830676997080444">
<ele>453</ele>
<time>2024-05-07T09:56:35Z</time>
</trkpt>
<trkpt lat="48.85463710874319" lon="9.830623604357244">
<ele>453.2</ele>
<time>2024-05-07T09:56:36Z</time>
</trkpt>
<trkpt lat="48.85464088059962" lon="9.830576833337544">
<ele>453.4</ele>
<time>2024-05-07T09:56:37Z</time>
</trkpt>
<trkpt lat="48.85464473627508" lon="9.830534923821688">
<ele>453.4</ele>
<time>2024-05-07T09:56:38Z</time>
</trkpt>
<trkpt lat="48.85464473627508" lon="9.83049200847745">
<ele>453.8</ele>
<time>2024-05-07T09:56:39Z</time>
</trkpt>
<trkpt lat="48.85464473627508" lon="9.83044808730483">
<ele>453.8</ele>
<time>2024-05-07T09:56:40Z</time>
</trkpt>
<trkpt lat="48.854648508131504" lon="9.83041187748313">
<ele>454.2</ele>
<time>2024-05-07T09:56:41Z</time>
</trkpt>
<trkpt lat="48.85465999133885" lon="9.8303737398237">
<ele>454.4</ele>
<time>2024-05-07T09:56:42Z</time>
</trkpt>
<trkpt lat="48.85466384701431" lon="9.830340379849076">
<ele>454.6</ele>
<time>2024-05-07T09:56:43Z</time>
</trkpt>
<trkpt lat="48.854671474546194" lon="9.830298386514189">
<ele>454.8</ele>
<time>2024-05-07T09:56:44Z</time>
</trkpt>
<trkpt lat="48.854671474546194" lon="9.83025161549449">
<ele>455</ele>
<time>2024-05-07T09:56:45Z</time>
</trkpt>
<trkpt lat="48.854671474546194" lon="9.830202078446746">
<ele>455.2</ele>
<time>2024-05-07T09:56:46Z</time>
</trkpt>
<trkpt lat="48.85467910207808" lon="9.830149607732892">
<ele>455.4</ele>
<time>2024-05-07T09:56:47Z</time>
</trkpt>
<trkpt lat="48.854686729609966" lon="9.830091437324882">
<ele>455.6</ele>
<time>2024-05-07T09:56:48Z</time>
</trkpt>
<trkpt lat="48.85469435714185" lon="9.830030417069793">
<ele>455.8</ele>
<time>2024-05-07T09:56:49Z</time>
</trkpt>
<trkpt lat="48.854705756530166" lon="9.829968390986323">
<ele>456</ele>
<time>2024-05-07T09:56:50Z</time>
</trkpt>
<trkpt lat="48.85471338406205" lon="9.82991499826312">
<ele>456.2</ele>
<time>2024-05-07T09:56:51Z</time>
</trkpt>
<trkpt lat="48.85471723973751" lon="9.829866383224726">
<ele>456.4</ele>
<time>2024-05-07T09:56:52Z</time>
</trkpt>
<trkpt lat="48.8547248672694" lon="9.82981676235795">
<ele>456.4</ele>
<time>2024-05-07T09:56:53Z</time>
</trkpt>
<trkpt lat="48.85473249480128" lon="9.829765297472475">
<ele>456.6</ele>
<time>2024-05-07T09:56:54Z</time>
</trkpt>
<trkpt lat="48.85473626665771" lon="9.829714754596353">
<ele>456.6</ele>
<time>2024-05-07T09:56:55Z</time>
</trkpt>
<trkpt lat="48.85474012233317" lon="9.82966136187315">
<ele>456.6</ele>
<time>2024-05-07T09:56:56Z</time>
</trkpt>
<trkpt lat="48.8547438941896" lon="9.829609813168643">
<ele>456.8</ele>
<time>2024-05-07T09:56:57Z</time>
</trkpt>
<trkpt lat="48.854747749865055" lon="9.8295602761209">
<ele>456.8</ele>
<time>2024-05-07T09:56:58Z</time>
</trkpt>
<trkpt lat="48.85475152172148" lon="9.829511577263474">
<ele>456.8</ele>
<time>2024-05-07T09:56:59Z</time>
</trkpt>
<trkpt lat="48.85475537739694" lon="9.829456256702542">
<ele>456.8</ele>
<time>2024-05-07T09:57:00Z</time>
</trkpt>
<trkpt lat="48.854766776785254" lon="9.829404791817067">
<ele>457</ele>
<time>2024-05-07T09:57:01Z</time>
</trkpt>
<trkpt lat="48.85477440431714" lon="9.829355170950294">
<ele>457.2</ele>
<time>2024-05-07T09:57:02Z</time>
</trkpt>
<trkpt lat="48.85478203184903" lon="9.82930177822709">
<ele>457.2</ele>
<time>2024-05-07T09:57:03Z</time>
</trkpt>
<trkpt lat="48.85478965938091" lon="9.829250313341618">
<ele>457.4</ele>
<time>2024-05-07T09:57:04Z</time>
</trkpt>
<trkpt lat="48.85478965938091" lon="9.829193064942956">
<ele>457.6</ele>
<time>2024-05-07T09:57:05Z</time>
</trkpt>
<trkpt lat="48.85479351505637" lon="9.829136822372677">
<ele>457.6</ele>
<time>2024-05-07T09:57:06Z</time>
</trkpt>
<trkpt lat="48.85480114258826" lon="9.829078651964664">
<ele>457.8</ele>
<time>2024-05-07T09:57:07Z</time>
</trkpt>
<trkpt lat="48.854808770120144" lon="9.829023331403732">
<ele>457.8</ele>
<time>2024-05-07T09:57:08Z</time>
</trkpt>
<trkpt lat="48.85482016950846" lon="9.828965160995722">
<ele>458</ele>
<time>2024-05-07T09:57:09Z</time>
</trkpt>
<trkpt lat="48.8548316527158" lon="9.828905062749982">
<ele>458.2</ele>
<time>2024-05-07T09:57:10Z</time>
</trkpt>
<trkpt lat="48.854846907779574" lon="9.82885167002678">
<ele>458.4</ele>
<time>2024-05-07T09:57:11Z</time>
</trkpt>
<trkpt lat="48.85485839098692" lon="9.828796349465849">
<ele>458.6</ele>
<time>2024-05-07T09:57:12Z</time>
</trkpt>
<trkpt lat="48.85486979037523" lon="9.828744884580374">
<ele>458.6</ele>
<time>2024-05-07T09:57:13Z</time>
</trkpt>
<trkpt lat="48.85488127358258" lon="9.82868855819106">
<ele>458.6</ele>
<time>2024-05-07T09:57:14Z</time>
</trkpt>
<trkpt lat="48.85489652864635" lon="9.828641870990396">
<ele>458.8</ele>
<time>2024-05-07T09:57:15Z</time>
</trkpt>
<trkpt lat="48.85491178371012" lon="9.828591328114271">
<ele>458.8</ele>
<time>2024-05-07T09:57:16Z</time>
</trkpt>
<trkpt lat="48.854927038773894" lon="9.828539779409766">
<ele>459</ele>
<time>2024-05-07T09:57:17Z</time>
</trkpt>
<trkpt lat="48.85494229383767" lon="9.828488314524291">
<ele>459.2</ele>
<time>2024-05-07T09:57:18Z</time>
</trkpt>
<trkpt lat="48.85495754890144" lon="9.828438693657516">
<ele>459.4</ele>
<time>2024-05-07T09:57:19Z</time>
</trkpt>
<trkpt lat="48.85497657582164" lon="9.828388150781391">
<ele>459.6</ele>
<time>2024-05-07T09:57:20Z</time>
</trkpt>
<trkpt lat="48.85499568656087" lon="9.828346241265535">
<ele>459.8</ele>
<time>2024-05-07T09:57:21Z</time>
</trkpt>
<trkpt lat="48.85501856915653" lon="9.828305169939997">
<ele>460</ele>
<time>2024-05-07T09:57:22Z</time>
</trkpt>
<trkpt lat="48.855041451752186" lon="9.828263260424135">
<ele>460.2</ele>
<time>2024-05-07T09:57:23Z</time>
</trkpt>
<trkpt lat="48.85506433434784" lon="9.828226966783404">
<ele>460.4</ele>
<time>2024-05-07T09:57:24Z</time>
</trkpt>
<trkpt lat="48.85509107261896" lon="9.828194612637162">
<ele>460.6</ele>
<time>2024-05-07T09:57:25Z</time>
</trkpt>
<trkpt lat="48.85511395521462" lon="9.828165024518968">
<ele>460.8</ele>
<time>2024-05-07T09:57:26Z</time>
</trkpt>
<trkpt lat="48.85514446534216" lon="9.828136442229152">
<ele>461</ele>
<time>2024-05-07T09:57:27Z</time>
</trkpt>
<trkpt lat="48.85517120361328" lon="9.828113475814462">
<ele>461.2</ele>
<time>2024-05-07T09:57:28Z</time>
</trkpt>
<trkpt lat="48.855201713740826" lon="9.828088749200106">
<ele>461.6</ele>
<time>2024-05-07T09:57:29Z</time>
</trkpt>
<trkpt lat="48.8552359957248" lon="9.82805823907256">
<ele>461.8</ele>
<time>2024-05-07T09:57:30Z</time>
</trkpt>
<trkpt lat="48.85526650585234" lon="9.828029572963716">
<ele>462</ele>
<time>2024-05-07T09:57:31Z</time>
</trkpt>
<trkpt lat="48.855300871655345" lon="9.82799814082682">
<ele>462.2</ele>
<time>2024-05-07T09:57:32Z</time>
</trkpt>
<trkpt lat="48.85533515363932" lon="9.827973330393434">
<ele>462.6</ele>
<time>2024-05-07T09:57:33Z</time>
</trkpt>
<trkpt lat="48.85537337511778" lon="9.827953297644854">
<ele>462.8</ele>
<time>2024-05-07T09:57:34Z</time>
</trkpt>
<trkpt lat="48.85540765710175" lon="9.827926559373736">
<ele>463</ele>
<time>2024-05-07T09:57:35Z</time>
</trkpt>
<trkpt lat="48.855438167229295" lon="9.82789990492165">
<ele>463.4</ele>
<time>2024-05-07T09:57:36Z</time>
</trkpt>
<trkpt lat="48.8554725330323" lon="9.827877022325993">
<ele>463.6</ele>
<time>2024-05-07T09:57:37Z</time>
</trkpt>
<trkpt lat="48.85550681501627" lon="9.827848356217146">
<ele>463.8</ele>
<time>2024-05-07T09:57:38Z</time>
</trkpt>
<trkpt lat="48.85554118081927" lon="9.827819773927333">
<ele>464.2</ele>
<time>2024-05-07T09:57:39Z</time>
</trkpt>
<trkpt lat="48.85557169094682" lon="9.827793119475244">
<ele>464.4</ele>
<time>2024-05-07T09:57:40Z</time>
</trkpt>
<trkpt lat="48.85560220107436" lon="9.8277644533664">
<ele>464.6</ele>
<time>2024-05-07T09:57:41Z</time>
</trkpt>
<trkpt lat="48.855636566877365" lon="9.82774157077074">
<ele>464.8</ele>
<time>2024-05-07T09:57:42Z</time>
</trkpt>
<trkpt lat="48.85566322132945" lon="9.827712988480926">
<ele>465</ele>
<time>2024-05-07T09:57:43Z</time>
</trkpt>
<trkpt lat="48.85569381527603" lon="9.827690105885267">
<ele>465.2</ele>
<time>2024-05-07T09:57:44Z</time>
</trkpt>
<trkpt lat="48.85572809726" lon="9.82766336761415">
<ele>465.4</ele>
<time>2024-05-07T09:57:45Z</time>
</trkpt>
<trkpt lat="48.855762463063" lon="9.827636713162065">
<ele>465.6</ele>
<time>2024-05-07T09:57:46Z</time>
</trkpt>
<trkpt lat="48.85579674504697" lon="9.827609974890947">
<ele>465.6</ele>
<time>2024-05-07T09:57:47Z</time>
</trkpt>
<trkpt lat="48.85583111084998" lon="9.827579464763405">
<ele>465.8</ele>
<time>2024-05-07T09:57:48Z</time>
</trkpt>
<trkpt lat="48.85586162097752" lon="9.827549876645207">
<ele>465.8</ele>
<time>2024-05-07T09:57:49Z</time>
</trkpt>
<trkpt lat="48.855892131105065" lon="9.827518444508314">
<ele>466</ele>
<time>2024-05-07T09:57:50Z</time>
</trkpt>
<trkpt lat="48.85592264123261" lon="9.827485084533691">
<ele>466.2</ele>
<time>2024-05-07T09:57:51Z</time>
</trkpt>
<trkpt lat="48.85594937950373" lon="9.82744786888361">
<ele>466.2</ele>
<time>2024-05-07T09:57:52Z</time>
</trkpt>
<trkpt lat="48.85597603395581" lon="9.827411575242875">
<ele>466.4</ele>
<time>2024-05-07T09:57:53Z</time>
</trkpt>
<trkpt lat="48.85599891655147" lon="9.827375365421176">
<ele>466.6</ele>
<time>2024-05-07T09:57:54Z</time>
</trkpt>
<trkpt lat="48.85602565482259" lon="9.827338149771094">
<ele>467</ele>
<time>2024-05-07T09:57:55Z</time>
</trkpt>
<trkpt lat="48.856048537418246" lon="9.827300012111664">
<ele>467.2</ele>
<time>2024-05-07T09:57:56Z</time>
</trkpt>
<trkpt lat="48.856071420013905" lon="9.827262796461582">
<ele>467.4</ele>
<time>2024-05-07T09:57:57Z</time>
</trkpt>
<trkpt lat="48.85609815828502" lon="9.82722658663988">
<ele>467.4</ele>
<time>2024-05-07T09:57:58Z</time>
</trkpt>
<trkpt lat="48.85612104088068" lon="9.82718844898045">
<ele>467.6</ele>
<time>2024-05-07T09:57:59Z</time>
</trkpt>
<trkpt lat="48.856147695332766" lon="9.82714838348329">
<ele>467.8</ele>
<time>2024-05-07T09:58:00Z</time>
</trkpt>
<trkpt lat="48.856170577928424" lon="9.827106473967431">
<ele>467.8</ele>
<time>2024-05-07T09:58:01Z</time>
</trkpt>
<trkpt lat="48.85619346052408" lon="9.827066408470271">
<ele>468</ele>
<time>2024-05-07T09:58:02Z</time>
</trkpt>
<trkpt lat="48.85621642693877" lon="9.827026342973111">
<ele>468.2</ele>
<time>2024-05-07T09:58:03Z</time>
</trkpt>
<trkpt lat="48.85624308139086" lon="9.826983427628877">
<ele>468.4</ele>
<time>2024-05-07T09:58:04Z</time>
</trkpt>
<trkpt lat="48.85626596398651" lon="9.826946211978791">
<ele>468.4</ele>
<time>2024-05-07T09:58:05Z</time>
</trkpt>
<trkpt lat="48.856288846582174" lon="9.826908074319364">
<ele>468.6</ele>
<time>2024-05-07T09:58:06Z</time>
</trkpt>
<trkpt lat="48.85631172917783" lon="9.826869936659932">
<ele>468.8</ele>
<time>2024-05-07T09:58:07Z</time>
</trkpt>
<trkpt lat="48.85633846744895" lon="9.826829871162772">
<ele>468.8</ele>
<time>2024-05-07T09:58:08Z</time>
</trkpt>
<trkpt lat="48.85635749436915" lon="9.826793661341071">
<ele>469</ele>
<time>2024-05-07T09:58:09Z</time>
</trkpt>
<trkpt lat="48.85638046078384" lon="9.82675644569099">
<ele>469.2</ele>
<time>2024-05-07T09:58:10Z</time>
</trkpt>
<trkpt lat="48.8564033433795" lon="9.826721157878636">
<ele>469.2</ele>
<time>2024-05-07T09:58:11Z</time>
</trkpt>
<trkpt lat="48.85642999783158" lon="9.826684948056936">
<ele>469.4</ele>
<time>2024-05-07T09:58:12Z</time>
</trkpt>
<trkpt lat="48.85645288042724" lon="9.826648654416203">
<ele>469.6</ele>
<time>2024-05-07T09:58:13Z</time>
</trkpt>
<trkpt lat="48.85647961869836" lon="9.826609594747424">
<ele>469.6</ele>
<time>2024-05-07T09:58:14Z</time>
</trkpt>
<trkpt lat="48.85650627315045" lon="9.826571457087994">
<ele>469.8</ele>
<time>2024-05-07T09:58:15Z</time>
</trkpt>
<trkpt lat="48.85653301142156" lon="9.82653616927564">
<ele>469.8</ele>
<time>2024-05-07T09:58:16Z</time>
</trkpt>
<trkpt lat="48.85655974969268" lon="9.826499875634909">
<ele>470</ele>
<time>2024-05-07T09:58:17Z</time>
</trkpt>
<trkpt lat="48.85658640414477" lon="9.826466515660286">
<ele>470</ele>
<time>2024-05-07T09:58:18Z</time>
</trkpt>
<trkpt lat="48.85661314241588" lon="9.826431227847934">
<ele>470</ele>
<time>2024-05-07T09:58:19Z</time>
</trkpt>
<trkpt lat="48.85663979686797" lon="9.82639979571104">
<ele>470</ele>
<time>2024-05-07T09:58:20Z</time>
</trkpt>
<trkpt lat="48.85666653513909" lon="9.826368279755116">
<ele>470.2</ele>
<time>2024-05-07T09:58:21Z</time>
</trkpt>
<trkpt lat="48.85669318959117" lon="9.826336847618222">
<ele>470.2</ele>
<time>2024-05-07T09:58:22Z</time>
</trkpt>
<trkpt lat="48.856723783537745" lon="9.826306337490678">
<ele>470.4</ele>
<time>2024-05-07T09:58:23Z</time>
</trkpt>
<trkpt lat="48.85675429366529" lon="9.826276749372482">
<ele>470.4</ele>
<time>2024-05-07T09:58:24Z</time>
</trkpt>
<trkpt lat="48.856780948117375" lon="9.826250011101363">
<ele>470.6</ele>
<time>2024-05-07T09:58:25Z</time>
</trkpt>
<trkpt lat="48.85681145824492" lon="9.82622142881155">
<ele>470.6</ele>
<time>2024-05-07T09:58:26Z</time>
</trkpt>
<trkpt lat="48.856841968372464" lon="9.826196618378162">
<ele>470.8</ele>
<time>2024-05-07T09:58:27Z</time>
</trkpt>
<trkpt lat="48.85687247850001" lon="9.826171807944776">
<ele>471</ele>
<time>2024-05-07T09:58:28Z</time>
</trkpt>
<trkpt lat="48.856903072446585" lon="9.826148003339767">
<ele>471.2</ele>
<time>2024-05-07T09:58:29Z</time>
</trkpt>
<trkpt lat="48.85693358257413" lon="9.82612512074411">
<ele>471.2</ele>
<time>2024-05-07T09:58:30Z</time>
</trkpt>
<trkpt lat="48.85696409270167" lon="9.8261031601578">
<ele>471.4</ele>
<time>2024-05-07T09:58:31Z</time>
</trkpt>
<trkpt lat="48.85699460282922" lon="9.82608027756214">
<ele>471.6</ele>
<time>2024-05-07T09:58:32Z</time>
</trkpt>
<trkpt lat="48.857059478759766" lon="9.826033590361476">
<ele>471.6</ele>
<time>2024-05-07T09:58:34Z</time>
</trkpt>
<trkpt lat="48.85709376074374" lon="9.826007774099708">
<ele>471.8</ele>
<time>2024-05-07T09:58:35Z</time>
</trkpt>
<trkpt lat="48.85712812654674" lon="9.82598681934178">
<ele>471.8</ele>
<time>2024-05-07T09:58:36Z</time>
</trkpt>
<trkpt lat="48.857158636674285" lon="9.82596485875547">
<ele>471.8</ele>
<time>2024-05-07T09:58:37Z</time>
</trkpt>
<trkpt lat="48.857196774333715" lon="9.82594482600689">
<ele>472</ele>
<time>2024-05-07T09:58:38Z</time>
</trkpt>
<trkpt lat="48.85722728446126" lon="9.825928648933768">
<ele>472</ele>
<time>2024-05-07T09:58:39Z</time>
</trkpt>
<trkpt lat="48.85726165026426" lon="9.82590668834746">
<ele>472.2</ele>
<time>2024-05-07T09:58:40Z</time>
</trkpt>
<trkpt lat="48.857295932248235" lon="9.82588481158018">
<ele>472.2</ele>
<time>2024-05-07T09:58:41Z</time>
</trkpt>
<trkpt lat="48.85732644237578" lon="9.825861928984525">
<ele>472.4</ele>
<time>2024-05-07T09:58:42Z</time>
</trkpt>
<trkpt lat="48.85736080817878" lon="9.825839968398212">
<ele>472.6</ele>
<time>2024-05-07T09:58:43Z</time>
</trkpt>
<trkpt lat="48.857395090162754" lon="9.825821863487365">
<ele>472.6</ele>
<time>2024-05-07T09:58:44Z</time>
</trkpt>
<trkpt lat="48.85742945596576" lon="9.825799902901052">
<ele>472.6</ele>
<time>2024-05-07T09:58:45Z</time>
</trkpt>
<trkpt lat="48.85746382176876" lon="9.825777942314744">
<ele>472.8</ele>
<time>2024-05-07T09:58:46Z</time>
</trkpt>
<trkpt lat="48.85749810375273" lon="9.825755059719086">
<ele>473</ele>
<time>2024-05-07T09:58:47Z</time>
</trkpt>
<trkpt lat="48.85752484202385" lon="9.825730249285698">
<ele>473</ele>
<time>2024-05-07T09:58:48Z</time>
</trkpt>
<trkpt lat="48.85755912400782" lon="9.82570451684296">
<ele>473.2</ele>
<time>2024-05-07T09:58:49Z</time>
</trkpt>
<trkpt lat="48.857593489810824" lon="9.825677862390876">
<ele>473.4</ele>
<time>2024-05-07T09:58:50Z</time>
</trkpt>
<trkpt lat="48.85762399993837" lon="9.825653051957488">
<ele>473.4</ele>
<time>2024-05-07T09:58:51Z</time>
</trkpt>
<trkpt lat="48.85765836574137" lon="9.825625391677022">
<ele>473.6</ele>
<time>2024-05-07T09:58:52Z</time>
</trkpt>
<trkpt lat="48.85768887586892" lon="9.825598653405905">
<ele>473.8</ele>
<time>2024-05-07T09:58:53Z</time>
</trkpt>
<trkpt lat="48.85771938599646" lon="9.82557007111609">
<ele>474</ele>
<time>2024-05-07T09:58:54Z</time>
</trkpt>
<trkpt lat="48.857749896124005" lon="9.825541488826277">
<ele>474.4</ele>
<time>2024-05-07T09:58:55Z</time>
</trkpt>
<trkpt lat="48.85777663439512" lon="9.825513828545809">
<ele>474.6</ele>
<time>2024-05-07T09:58:56Z</time>
</trkpt>
<trkpt lat="48.85780714452267" lon="9.825487090274692">
<ele>474.6</ele>
<time>2024-05-07T09:58:57Z</time>
</trkpt>
<trkpt lat="48.85783379897475" lon="9.825458507984877">
<ele>474.8</ele>
<time>2024-05-07T09:58:58Z</time>
</trkpt>
<trkpt lat="48.8578643091023" lon="9.825427997857332">
<ele>475</ele>
<time>2024-05-07T09:58:59Z</time>
</trkpt>
<trkpt lat="48.857891047373414" lon="9.825398409739137">
<ele>475.2</ele>
<time>2024-05-07T09:59:00Z</time>
</trkpt>
<trkpt lat="48.85792155750096" lon="9.825366893783212">
<ele>475.4</ele>
<time>2024-05-07T09:59:01Z</time>
</trkpt>
<trkpt lat="48.85794829577208" lon="9.82533453963697">
<ele>475.6</ele>
<time>2024-05-07T09:59:02Z</time>
</trkpt>
<trkpt lat="48.85797495022416" lon="9.825302101671696">
<ele>475.8</ele>
<time>2024-05-07T09:59:03Z</time>
</trkpt>
<trkpt lat="48.85800168849528" lon="9.825266813859344">
<ele>476</ele>
<time>2024-05-07T09:59:04Z</time>
</trkpt>
<trkpt lat="48.85802834294736" lon="9.825231526046991">
<ele>476.2</ele>
<time>2024-05-07T09:59:05Z</time>
</trkpt>
<trkpt lat="48.85805508121848" lon="9.82519523240626">
<ele>476.4</ele>
<time>2024-05-07T09:59:06Z</time>
</trkpt>
<trkpt lat="48.858085591346025" lon="9.825157094746828">
<ele>476.6</ele>
<time>2024-05-07T09:59:07Z</time>
</trkpt>
<trkpt lat="48.85811232961714" lon="9.825118035078049">
<ele>476.8</ele>
<time>2024-05-07T09:59:08Z</time>
</trkpt>
<trkpt lat="48.85813898406923" lon="9.825079897418618">
<ele>477.2</ele>
<time>2024-05-07T09:59:09Z</time>
</trkpt>
<trkpt lat="48.858165722340345" lon="9.825041759759188">
<ele>477.4</ele>
<time>2024-05-07T09:59:10Z</time>
</trkpt>
<trkpt lat="48.858188604936" lon="9.825003622099755">
<ele>477.6</ele>
<time>2024-05-07T09:59:11Z</time>
</trkpt>
<trkpt lat="48.85821525938809" lon="9.824964478611946">
<ele>477.8</ele>
<time>2024-05-07T09:59:12Z</time>
</trkpt>
<trkpt lat="48.85823814198375" lon="9.824926340952516">
<ele>478.2</ele>
<time>2024-05-07T09:59:13Z</time>
</trkpt>
<trkpt lat="48.85825725272298" lon="9.824879569932818">
<ele>478.4</ele>
<time>2024-05-07T09:59:14Z</time>
</trkpt>
<trkpt lat="48.85828013531864" lon="9.824834810569882">
<ele>478.6</ele>
<time>2024-05-07T09:59:15Z</time>
</trkpt>
<trkpt lat="48.858303017914295" lon="9.824791895225644">
<ele>478.8</ele>
<time>2024-05-07T09:59:16Z</time>
</trkpt>
<trkpt lat="48.858322128653526" lon="9.824745124205949">
<ele>479</ele>
<time>2024-05-07T09:59:17Z</time>
</trkpt>
<trkpt lat="48.858345011249185" lon="9.82469843700528">
<ele>479.2</ele>
<time>2024-05-07T09:59:18Z</time>
</trkpt>
<trkpt lat="48.85836789384484" lon="9.824649738147857">
<ele>479.4</ele>
<time>2024-05-07T09:59:19Z</time>
</trkpt>
<trkpt lat="48.8583907764405" lon="9.82460305094719">
<ele>479.6</ele>
<time>2024-05-07T09:59:20Z</time>
</trkpt>
<trkpt lat="48.85841365903616" lon="9.824556279927492">
<ele>479.6</ele>
<time>2024-05-07T09:59:21Z</time>
</trkpt>
<trkpt lat="48.85843654163182" lon="9.824511520564556">
<ele>479.8</ele>
<time>2024-05-07T09:59:22Z</time>
</trkpt>
<trkpt lat="48.85845942422747" lon="9.82446474954486">
<ele>479.8</ele>
<time>2024-05-07T09:59:23Z</time>
</trkpt>
<trkpt lat="48.858482306823134" lon="9.824419906362891">
<ele>480</ele>
<time>2024-05-07T09:59:24Z</time>
</trkpt>
<trkpt lat="48.85850518941879" lon="9.824375146999955">
<ele>480.2</ele>
<time>2024-05-07T09:59:25Z</time>
</trkpt>
<trkpt lat="48.85853192768991" lon="9.824331225827336">
<ele>480.2</ele>
<time>2024-05-07T09:59:26Z</time>
</trkpt>
<trkpt lat="48.85855481028557" lon="9.824288310483098">
<ele>480.4</ele>
<time>2024-05-07T09:59:27Z</time>
</trkpt>
<trkpt lat="48.85857769288123" lon="9.82424640096724">
<ele>480.4</ele>
<time>2024-05-07T09:59:28Z</time>
</trkpt>
<trkpt lat="48.858604431152344" lon="9.824203485623002">
<ele>480.6</ele>
<time>2024-05-07T09:59:29Z</time>
</trkpt>
<trkpt lat="48.858627313748" lon="9.824161492288113">
<ele>480.6</ele>
<time>2024-05-07T09:59:30Z</time>
</trkpt>
<trkpt lat="48.85865396820009" lon="9.824121426790953">
<ele>480.6</ele>
<time>2024-05-07T09:59:31Z</time>
</trkpt>
<trkpt lat="48.858680706471205" lon="9.824083289131522">
<ele>480.8</ele>
<time>2024-05-07T09:59:32Z</time>
</trkpt>
<trkpt lat="48.85871121659875" lon="9.82404707930982">
<ele>480.8</ele>
<time>2024-05-07T09:59:33Z</time>
</trkpt>
<trkpt lat="48.858741726726294" lon="9.82400701381266">
<ele>481</ele>
<time>2024-05-07T09:59:34Z</time>
</trkpt>
<trkpt lat="48.85876838117838" lon="9.823965020477772">
<ele>481</ele>
<time>2024-05-07T09:59:35Z</time>
</trkpt>
<trkpt lat="48.858795119449496" lon="9.823924954980612">
<ele>481.2</ele>
<time>2024-05-07T09:59:36Z</time>
</trkpt>
<trkpt lat="48.85882562957704" lon="9.82388874515891">
<ele>481.4</ele>
<time>2024-05-07T09:59:37Z</time>
</trkpt>
<trkpt lat="48.858856139704585" lon="9.82385152950883">
<ele>481.4</ele>
<time>2024-05-07T09:59:38Z</time>
</trkpt>
<trkpt lat="48.85888664983213" lon="9.8238133918494">
<ele>481.6</ele>
<time>2024-05-07T09:59:39Z</time>
</trkpt>
<trkpt lat="48.858917159959674" lon="9.823778104037046">
<ele>481.6</ele>
<time>2024-05-07T09:59:40Z</time>
</trkpt>
<trkpt lat="48.85894775390625" lon="9.823739966377616">
<ele>481.8</ele>
<time>2024-05-07T09:59:41Z</time>
</trkpt>
<trkpt lat="48.858978264033794" lon="9.823699900880456">
<ele>481.8</ele>
<time>2024-05-07T09:59:42Z</time>
</trkpt>
<trkpt lat="48.85900491848588" lon="9.823661763221024">
<ele>482</ele>
<time>2024-05-07T09:59:43Z</time>
</trkpt>
<trkpt lat="48.85903928428888" lon="9.823623625561597">
<ele>482.2</ele>
<time>2024-05-07T09:59:44Z</time>
</trkpt>
<trkpt lat="48.85906593874097" lon="9.823584482073784">
<ele>482.2</ele>
<time>2024-05-07T09:59:45Z</time>
</trkpt>
<trkpt lat="48.85909644886851" lon="9.823545422405005">
<ele>482.4</ele>
<time>2024-05-07T09:59:46Z</time>
</trkpt>
<trkpt lat="48.85912318713963" lon="9.823506278917192">
<ele>482.4</ele>
<time>2024-05-07T09:59:47Z</time>
</trkpt>
<trkpt lat="48.85914992541075" lon="9.823466297239063">
<ele>482.6</ele>
<time>2024-05-07T09:59:48Z</time>
</trkpt>
<trkpt lat="48.85918043553829" lon="9.823428075760605">
<ele>482.6</ele>
<time>2024-05-07T09:59:49Z</time>
</trkpt>
<trkpt lat="48.85921094566584" lon="9.823388094082476">
<ele>482.6</ele>
<time>2024-05-07T09:59:50Z</time>
</trkpt>
<trkpt lat="48.85924145579338" lon="9.823349872604012">
<ele>482.6</ele>
<time>2024-05-07T09:59:51Z</time>
</trkpt>
<trkpt lat="48.859268110245466" lon="9.823311734944582">
<ele>482.8</ele>
<time>2024-05-07T09:59:52Z</time>
</trkpt>
<trkpt lat="48.85929870419204" lon="9.823273597285151">
<ele>482.8</ele>
<time>2024-05-07T09:59:53Z</time>
</trkpt>
<trkpt lat="48.85932921431959" lon="9.823236465454102">
<ele>482.8</ele>
<time>2024-05-07T09:59:54Z</time>
</trkpt>
<trkpt lat="48.85935972444713" lon="9.823196399956942">
<ele>482.8</ele>
<time>2024-05-07T09:59:55Z</time>
</trkpt>
<trkpt lat="48.85938637889922" lon="9.823158262297513">
<ele>483</ele>
<time>2024-05-07T09:59:56Z</time>
</trkpt>
<trkpt lat="48.85941688902676" lon="9.823120040819049">
<ele>483</ele>
<time>2024-05-07T09:59:57Z</time>
</trkpt>
<trkpt lat="48.85944362729788" lon="9.823078131303191">
<ele>483.2</ele>
<time>2024-05-07T09:59:58Z</time>
</trkpt>
<trkpt lat="48.85947413742542" lon="9.82303999364376">
<ele>483.4</ele>
<time>2024-05-07T09:59:59Z</time>
</trkpt>
<trkpt lat="48.85950464755297" lon="9.823003700003028">
<ele>483.4</ele>
<time>2024-05-07T10:00:00Z</time>
</trkpt>
<trkpt lat="48.85953515768051" lon="9.822964640334249">
<ele>483.6</ele>
<time>2024-05-07T10:00:01Z</time>
</trkpt>
<trkpt lat="48.85955804027617" lon="9.822928346693516">
<ele>483.8</ele>
<time>2024-05-07T10:00:02Z</time>
</trkpt>
<trkpt lat="48.859588550403714" lon="9.822891214862466">
<ele>484</ele>
<time>2024-05-07T10:00:03Z</time>
</trkpt>
<trkpt lat="48.85961528867483" lon="9.822854921221731">
<ele>484.2</ele>
<time>2024-05-07T10:00:04Z</time>
</trkpt>
<trkpt lat="48.85964202694595" lon="9.822816783562304">
<ele>484.2</ele>
<time>2024-05-07T10:00:05Z</time>
</trkpt>
<trkpt lat="48.85967253707349" lon="9.822778645902872">
<ele>484.2</ele>
<time>2024-05-07T10:00:06Z</time>
</trkpt>
<trkpt lat="48.85970304720104" lon="9.822739586234093">
<ele>484.4</ele>
<time>2024-05-07T10:00:07Z</time>
</trkpt>
<trkpt lat="48.85973355732858" lon="9.822700442746282">
<ele>484.2</ele>
<time>2024-05-07T10:00:08Z</time>
</trkpt>
<trkpt lat="48.85976021178067" lon="9.822660377249122">
<ele>484.2</ele>
<time>2024-05-07T10:00:09Z</time>
</trkpt>
<trkpt lat="48.85979072190821" lon="9.822620311751962">
<ele>484.2</ele>
<time>2024-05-07T10:00:10Z</time>
</trkpt>
<trkpt lat="48.859825087711215" lon="9.822583179920912">
<ele>484.2</ele>
<time>2024-05-07T10:00:11Z</time>
</trkpt>
<trkpt lat="48.85985559783876" lon="9.82254688628018">
<ele>484.2</ele>
<time>2024-05-07T10:00:12Z</time>
</trkpt>
<trkpt lat="48.859886107966304" lon="9.82250690460205">
<ele>484.2</ele>
<time>2024-05-07T10:00:13Z</time>
</trkpt>
<trkpt lat="48.85991661809385" lon="9.82246683910489">
<ele>484.2</ele>
<time>2024-05-07T10:00:14Z</time>
</trkpt>
<trkpt lat="48.85995098389685" lon="9.82242677360773">
<ele>484.2</ele>
<time>2024-05-07T10:00:15Z</time>
</trkpt>
<trkpt lat="48.8599814940244" lon="9.82238478027284">
<ele>484.2</ele>
<time>2024-05-07T10:00:16Z</time>
</trkpt>
<trkpt lat="48.86001200415194" lon="9.822343792766333">
<ele>484.4</ele>
<time>2024-05-07T10:00:17Z</time>
</trkpt>
<trkpt lat="48.860046369954944" lon="9.822301799431443">
<ele>484.4</ele>
<time>2024-05-07T10:00:18Z</time>
</trkpt>
<trkpt lat="48.86007688008249" lon="9.822257962077856">
<ele>484.4</ele>
<time>2024-05-07T10:00:19Z</time>
</trkpt>
<trkpt lat="48.86011116206646" lon="9.822213118895888">
<ele>484.4</ele>
<time>2024-05-07T10:00:20Z</time>
</trkpt>
<trkpt lat="48.860141672194" lon="9.82216827571392">
<ele>484.6</ele>
<time>2024-05-07T10:00:21Z</time>
</trkpt>
<trkpt lat="48.860179893672466" lon="9.822123516350985">
<ele>484.6</ele>
<time>2024-05-07T10:00:22Z</time>
</trkpt>
<trkpt lat="48.86021417565644" lon="9.822076745331287">
<ele>484.6</ele>
<time>2024-05-07T10:00:23Z</time>
</trkpt>
<trkpt lat="48.86025231331587" lon="9.82203190214932">
<ele>484.8</ele>
<time>2024-05-07T10:00:24Z</time>
</trkpt>
<trkpt lat="48.86028667911887" lon="9.821985214948654">
<ele>484.8</ele>
<time>2024-05-07T10:00:25Z</time>
</trkpt>
<trkpt lat="48.8603248167783" lon="9.82193366624415">
<ele>485</ele>
<time>2024-05-07T10:00:26Z</time>
</trkpt>
<trkpt lat="48.86036295443773" lon="9.821883123368025">
<ele>485</ele>
<time>2024-05-07T10:00:27Z</time>
</trkpt>
<trkpt lat="48.86040109209716" lon="9.82183358632028">
<ele>485</ele>
<time>2024-05-07T10:00:28Z</time>
</trkpt>
<trkpt lat="48.860439229756594" lon="9.821784971281886">
<ele>485</ele>
<time>2024-05-07T10:00:29Z</time>
</trkpt>
<trkpt lat="48.860477367416024" lon="9.821738200262187">
<ele>485</ele>
<time>2024-05-07T10:00:30Z</time>
</trkpt>
<trkpt lat="48.86052321642637" lon="9.82169335708022">
<ele>485</ele>
<time>2024-05-07T10:00:31Z</time>
</trkpt>
<trkpt lat="48.86056512594223" lon="9.821648597717283">
<ele>485</ele>
<time>2024-05-07T10:00:32Z</time>
</trkpt>
<trkpt lat="48.86061089113355" lon="9.821604676544666">
<ele>485</ele>
<time>2024-05-07T10:00:33Z</time>
</trkpt>
<trkpt lat="48.86065288446843" lon="9.821563689038156">
<ele>485</ele>
<time>2024-05-07T10:00:34Z</time>
</trkpt>
<trkpt lat="48.86069864965975" lon="9.82151792384684">
<ele>485</ele>
<time>2024-05-07T10:00:35Z</time>
</trkpt>
<trkpt lat="48.86074441485107" lon="9.821475008502604">
<ele>485</ele>
<time>2024-05-07T10:00:36Z</time>
</trkpt>
<trkpt lat="48.860794035717845" lon="9.821433015167711">
<ele>485</ele>
<time>2024-05-07T10:00:37Z</time>
</trkpt>
<trkpt lat="48.86083980090916" lon="9.821396805346012">
<ele>485</ele>
<time>2024-05-07T10:00:38Z</time>
</trkpt>
<trkpt lat="48.86088556610048" lon="9.821356739848852">
<ele>484.8</ele>
<time>2024-05-07T10:00:39Z</time>
</trkpt>
<trkpt lat="48.860931331291795" lon="9.82131952419877">
<ele>484.8</ele>
<time>2024-05-07T10:00:40Z</time>
</trkpt>
<trkpt lat="48.86098095215857" lon="9.82128331437707">
<ele>484.8</ele>
<time>2024-05-07T10:00:41Z</time>
</trkpt>
<trkpt lat="48.86102671734989" lon="9.821248026564716">
<ele>484.8</ele>
<time>2024-05-07T10:00:42Z</time>
</trkpt>
<trkpt lat="48.8610724825412" lon="9.821216510608792">
<ele>484.6</ele>
<time>2024-05-07T10:00:43Z</time>
</trkpt>
<trkpt lat="48.86111824773252" lon="9.821187006309628">
<ele>484.6</ele>
<time>2024-05-07T10:00:44Z</time>
</trkpt>
<trkpt lat="48.86117164045572" lon="9.821156496182084">
<ele>484.4</ele>
<time>2024-05-07T10:00:45Z</time>
</trkpt>
<trkpt lat="48.8612212613225" lon="9.82112498022616">
<ele>484.2</ele>
<time>2024-05-07T10:00:46Z</time>
</trkpt>
<trkpt lat="48.861270882189274" lon="9.821096397936344">
<ele>484.2</ele>
<time>2024-05-07T10:00:47Z</time>
</trkpt>
<trkpt lat="48.86132427491248" lon="9.821068737655878">
<ele>484</ele>
<time>2024-05-07T10:00:48Z</time>
</trkpt>
<trkpt lat="48.86137766763568" lon="9.82104300521314">
<ele>484</ele>
<time>2024-05-07T10:00:49Z</time>
</trkpt>
<trkpt lat="48.86143491603434" lon="9.82102196663618">
<ele>483.8</ele>
<time>2024-05-07T10:00:50Z</time>
</trkpt>
<trkpt lat="48.861488308757544" lon="9.821000089868903">
<ele>483.8</ele>
<time>2024-05-07T10:00:51Z</time>
</trkpt>
<trkpt lat="48.861545557156205" lon="9.820980057120323">
<ele>483.6</ele>
<time>2024-05-07T10:00:52Z</time>
</trkpt>
<trkpt lat="48.861602721735835" lon="9.820961952209473">
<ele>483.4</ele>
<time>2024-05-07T10:00:53Z</time>
</trkpt>
<trkpt lat="48.8616599701345" lon="9.820941919460893">
<ele>483.2</ele>
<time>2024-05-07T10:00:54Z</time>
</trkpt>
<trkpt lat="48.86171721853316" lon="9.820919958874583">
<ele>482.8</ele>
<time>2024-05-07T10:00:55Z</time>
</trkpt>
<trkpt lat="48.86177823878825" lon="9.820897076278923">
<ele>482.6</ele>
<time>2024-05-07T10:00:56Z</time>
</trkpt>
<trkpt lat="48.861839259043336" lon="9.820879893377423">
<ele>482.4</ele>
<time>2024-05-07T10:00:57Z</time>
</trkpt>
<trkpt lat="48.861900279298425" lon="9.820863716304302">
<ele>482</ele>
<time>2024-05-07T10:00:58Z</time>
</trkpt>
<trkpt lat="48.86196515522897" lon="9.8208465334028">
<ele>481.8</ele>
<time>2024-05-07T10:00:59Z</time>
</trkpt>
<trkpt lat="48.86202617548406" lon="9.82082650065422">
<ele>481.4</ele>
<time>2024-05-07T10:01:00Z</time>
</trkpt>
<trkpt lat="48.86209105141461" lon="9.82080839574337">
<ele>481</ele>
<time>2024-05-07T10:01:01Z</time>
</trkpt>
<trkpt lat="48.862159699201584" lon="9.820791212841868">
<ele>480.8</ele>
<time>2024-05-07T10:01:02Z</time>
</trkpt>
<trkpt lat="48.86222457513213" lon="9.820774951949716">
<ele>480.6</ele>
<time>2024-05-07T10:01:03Z</time>
</trkpt>
<trkpt lat="48.86228936724365" lon="9.820751147344708">
<ele>480.4</ele>
<time>2024-05-07T10:01:04Z</time>
</trkpt>
<trkpt lat="48.86235801503062" lon="9.82072633691132">
<ele>480.2</ele>
<time>2024-05-07T10:01:05Z</time>
</trkpt>
<trkpt lat="48.86241911910474" lon="9.820698676630856">
<ele>480</ele>
<time>2024-05-07T10:01:06Z</time>
</trkpt>
<trkpt lat="48.86248391121626" lon="9.82067009434104">
<ele>479.8</ele>
<time>2024-05-07T10:01:07Z</time>
</trkpt>
<trkpt lat="48.86254878714681" lon="9.820641512051225">
<ele>479.8</ele>
<time>2024-05-07T10:01:08Z</time>
</trkpt>
<trkpt lat="48.862613663077354" lon="9.8206099960953">
<ele>479.6</ele>
<time>2024-05-07T10:01:09Z</time>
</trkpt>
<trkpt lat="48.86267468333244" lon="9.820578563958406">
<ele>479.6</ele>
<time>2024-05-07T10:01:10Z</time>
</trkpt>
<trkpt lat="48.86273570358753" lon="9.82054989784956">
<ele>479.4</ele>
<time>2024-05-07T10:01:11Z</time>
</trkpt>
<trkpt lat="48.862792951986194" lon="9.820525087416172">
<ele>479.2</ele>
<time>2024-05-07T10:01:12Z</time>
</trkpt>
<trkpt lat="48.862850116565824" lon="9.820498432964088">
<ele>479.2</ele>
<time>2024-05-07T10:01:13Z</time>
</trkpt>
<trkpt lat="48.862907364964485" lon="9.820474544540048">
<ele>479</ele>
<time>2024-05-07T10:01:14Z</time>
</trkpt>
<trkpt lat="48.86296075768769" lon="9.82045358978212">
<ele>479</ele>
<time>2024-05-07T10:01:15Z</time>
</trkpt>
<trkpt lat="48.86301037855446" lon="9.82043162919581">
<ele>478.8</ele>
<time>2024-05-07T10:01:16Z</time>
</trkpt>
<trkpt lat="48.86305991560221" lon="9.820407824590802">
<ele>478.8</ele>
<time>2024-05-07T10:01:17Z</time>
</trkpt>
<trkpt lat="48.86310576461256" lon="9.820380164310336">
<ele>478.8</ele>
<time>2024-05-07T10:01:18Z</time>
</trkpt>
<trkpt lat="48.86314767412841" lon="9.820349654182792">
<ele>478.8</ele>
<time>2024-05-07T10:01:19Z</time>
</trkpt>
<trkpt lat="48.8631896674633" lon="9.820321993902326">
<ele>478.8</ele>
<time>2024-05-07T10:01:20Z</time>
</trkpt>
<trkpt lat="48.86322780512273" lon="9.820286706089972">
<ele>479</ele>
<time>2024-05-07T10:01:21Z</time>
</trkpt>
<trkpt lat="48.863262170925736" lon="9.820246640592812">
<ele>479</ele>
<time>2024-05-07T10:01:22Z</time>
</trkpt>
<trkpt lat="48.86329645290971" lon="9.820199953392148">
<ele>479.2</ele>
<time>2024-05-07T10:01:23Z</time>
</trkpt>
<trkpt lat="48.86332696303725" lon="9.820150332525373">
<ele>479.2</ele>
<time>2024-05-07T10:01:24Z</time>
</trkpt>
<trkpt lat="48.86334984563291" lon="9.82009693980217">
<ele>479.2</ele>
<time>2024-05-07T10:01:25Z</time>
</trkpt>
<trkpt lat="48.86337272822857" lon="9.82003776356578">
<ele>479.2</ele>
<time>2024-05-07T10:01:26Z</time>
</trkpt>
<trkpt lat="48.86338798329234" lon="9.81997674331069">
<ele>479.2</ele>
<time>2024-05-07T10:01:27Z</time>
</trkpt>
<trkpt lat="48.86340323835611" lon="9.819911951199174">
<ele>479.2</ele>
<time>2024-05-07T10:01:28Z</time>
</trkpt>
<trkpt lat="48.86341857723892" lon="9.819845147430897">
<ele>479</ele>
<time>2024-05-07T10:01:29Z</time>
</trkpt>
<trkpt lat="48.86343760415912" lon="9.81978127732873">
<ele>479</ele>
<time>2024-05-07T10:01:30Z</time>
</trkpt>
<trkpt lat="48.86345285922289" lon="9.819716401398182">
<ele>479</ele>
<time>2024-05-07T10:01:31Z</time>
</trkpt>
<trkpt lat="48.86346811428666" lon="9.819651525467634">
<ele>478.8</ele>
<time>2024-05-07T10:01:32Z</time>
</trkpt>
<trkpt lat="48.863479597494006" lon="9.819588661193848">
<ele>478.8</ele>
<time>2024-05-07T10:01:33Z</time>
</trkpt>
<trkpt lat="48.86349485255778" lon="9.819533340632915">
<ele>478.6</ele>
<time>2024-05-07T10:01:34Z</time>
</trkpt>
<trkpt lat="48.86351773515344" lon="9.819488497450948">
<ele>478.2</ele>
<time>2024-05-07T10:01:35Z</time>
</trkpt>
<trkpt lat="48.86355201713741" lon="9.819457987323403">
<ele>477.8</ele>
<time>2024-05-07T10:01:36Z</time>
</trkpt>
<trkpt lat="48.86358638294041" lon="9.819444576278327">
<ele>477.6</ele>
<time>2024-05-07T10:01:37Z</time>
</trkpt>
<trkpt lat="48.86363600380719" lon="9.819444576278327">
<ele>477.4</ele>
<time>2024-05-07T10:01:38Z</time>
</trkpt>
<trkpt lat="48.863681768998504" lon="9.819448431953788">
<ele>477.2</ele>
<time>2024-05-07T10:01:39Z</time>
</trkpt>
<trkpt lat="48.863719906657934" lon="9.819457987323403">
<ele>477.2</ele>
<time>2024-05-07T10:01:40Z</time>
</trkpt>
<trkpt lat="48.86376567184925" lon="9.819464609026909">
<ele>477.2</ele>
<time>2024-05-07T10:01:41Z</time>
</trkpt>
<trkpt lat="48.86380766518414" lon="9.819468464702368">
<ele>477</ele>
<time>2024-05-07T10:01:42Z</time>
</trkpt>
<trkpt lat="48.86384580284357" lon="9.819466536864638">
<ele>477</ele>
<time>2024-05-07T10:01:43Z</time>
</trkpt>
<trkpt lat="48.86388771235943" lon="9.819456981495025">
<ele>477</ele>
<time>2024-05-07T10:01:44Z</time>
</trkpt>
<trkpt lat="48.86392593383789" lon="9.819444576278327">
<ele>477</ele>
<time>2024-05-07T10:01:45Z</time>
</trkpt>
<trkpt lat="48.86396407149732" lon="9.819428399205208">
<ele>477</ele>
<time>2024-05-07T10:01:46Z</time>
</trkpt>
<trkpt lat="48.86400220915675" lon="9.819411216303706">
<ele>477</ele>
<time>2024-05-07T10:01:47Z</time>
</trkpt>
<trkpt lat="48.86404034681618" lon="9.81940166093409">
<ele>477</ele>
<time>2024-05-07T10:01:48Z</time>
</trkpt>
<trkpt lat="48.86408225633204" lon="9.819390261545776">
<ele>477</ele>
<time>2024-05-07T10:01:49Z</time>
</trkpt>
<trkpt lat="48.8641204778105" lon="9.819376934319736">
<ele>477</ele>
<time>2024-05-07T10:01:50Z</time>
</trkpt>
<trkpt lat="48.86416624300182" lon="9.819359751418231">
<ele>477</ele>
<time>2024-05-07T10:01:51Z</time>
</trkpt>
<trkpt lat="48.86420438066125" lon="9.81934349052608">
<ele>477.2</ele>
<time>2024-05-07T10:01:52Z</time>
</trkpt>
<trkpt lat="48.86424629017711" lon="9.819328235462308">
<ele>477.4</ele>
<time>2024-05-07T10:01:53Z</time>
</trkpt>
<trkpt lat="48.864288283512" lon="9.819312980398536">
<ele>477.6</ele>
<time>2024-05-07T10:01:54Z</time>
</trkpt>
<trkpt lat="48.86432642117143" lon="9.819310130551456">
<ele>477.8</ele>
<time>2024-05-07T10:01:55Z</time>
</trkpt>
<trkpt lat="48.86436455883086" lon="9.81930535286665">
<ele>478</ele>
<time>2024-05-07T10:01:56Z</time>
</trkpt>
<trkpt lat="48.86440655216575" lon="9.819296803325416">
<ele>478.2</ele>
<time>2024-05-07T10:01:57Z</time>
</trkpt>
<trkpt lat="48.86444854550064" lon="9.819292947649956">
<ele>478.2</ele>
<time>2024-05-07T10:01:58Z</time>
</trkpt>
<trkpt lat="48.86448668316007" lon="9.819296803325416">
<ele>478.2</ele>
<time>2024-05-07T10:01:59Z</time>
</trkpt>
<trkpt lat="48.8645248208195" lon="9.819299653172491">
<ele>478.4</ele>
<time>2024-05-07T10:02:00Z</time>
</trkpt>
<trkpt lat="48.864566730335355" lon="9.81930635869503">
<ele>478.6</ele>
<time>2024-05-07T10:02:01Z</time>
</trkpt>
<trkpt lat="48.864604867994785" lon="9.819312980398536">
<ele>478.6</ele>
<time>2024-05-07T10:02:02Z</time>
</trkpt>
<trkpt lat="48.864646861329675" lon="9.819319685921071">
<ele>478.8</ele>
<time>2024-05-07T10:02:03Z</time>
</trkpt>
<trkpt lat="48.86468885466456" lon="9.81932639144361">
<ele>478.8</ele>
<time>2024-05-07T10:02:04Z</time>
</trkpt>
<trkpt lat="48.86473076418042" lon="9.819336868822576">
<ele>479</ele>
<time>2024-05-07T10:02:05Z</time>
</trkpt>
<trkpt lat="48.86477275751531" lon="9.819348268210888">
<ele>479</ele>
<time>2024-05-07T10:02:06Z</time>
</trkpt>
<trkpt lat="48.86481852270663" lon="9.819361679255962">
<ele>479.2</ele>
<time>2024-05-07T10:02:07Z</time>
</trkpt>
<trkpt lat="48.86486051604152" lon="9.819376934319736">
<ele>479.4</ele>
<time>2024-05-07T10:02:08Z</time>
</trkpt>
<trkpt lat="48.86489865370095" lon="9.819386405870318">
<ele>479.6</ele>
<time>2024-05-07T10:02:09Z</time>
</trkpt>
<trkpt lat="48.864944418892264" lon="9.819397889077663">
<ele>479.8</ele>
<time>2024-05-07T10:02:10Z</time>
</trkpt>
<trkpt lat="48.864986412227154" lon="9.819411216303706">
<ele>480</ele>
<time>2024-05-07T10:02:11Z</time>
</trkpt>
<trkpt lat="48.86502832174301" lon="9.819428399205208">
<ele>480.2</ele>
<time>2024-05-07T10:02:12Z</time>
</trkpt>
<trkpt lat="48.86506645940244" lon="9.819450359791515">
<ele>480.4</ele>
<time>2024-05-07T10:02:13Z</time>
</trkpt>
<trkpt lat="48.86510845273733" lon="9.81946368701756">
<ele>480.6</ele>
<time>2024-05-07T10:02:14Z</time>
</trkpt>
<trkpt lat="48.86514659039676" lon="9.819484641775489">
<ele>480.8</ele>
<time>2024-05-07T10:02:15Z</time>
</trkpt>
<trkpt lat="48.86518858373165" lon="9.819511380046606">
<ele>481</ele>
<time>2024-05-07T10:02:16Z</time>
</trkpt>
<trkpt lat="48.86522286571562" lon="9.819535184651611">
<ele>481.2</ele>
<time>2024-05-07T10:02:17Z</time>
</trkpt>
<trkpt lat="48.865257231518626" lon="9.81956192292273">
<ele>481.4</ele>
<time>2024-05-07T10:02:18Z</time>
</trkpt>
<trkpt lat="48.8652915135026" lon="9.819588661193848">
<ele>481.6</ele>
<time>2024-05-07T10:02:19Z</time>
</trkpt>
<trkpt lat="48.86532973498106" lon="9.819615315645931">
<ele>481.8</ele>
<time>2024-05-07T10:02:20Z</time>
</trkpt>
<trkpt lat="48.86536401696503" lon="9.819638198241591">
<ele>482</ele>
<time>2024-05-07T10:02:21Z</time>
</trkpt>
<trkpt lat="48.865394527092576" lon="9.81966300867498">
<ele>482</ele>
<time>2024-05-07T10:02:22Z</time>
</trkpt>
<trkpt lat="48.86542503722012" lon="9.819689746946096">
<ele>482.2</ele>
<time>2024-05-07T10:02:23Z</time>
</trkpt>
<trkpt lat="48.865455547347665" lon="9.819715479388831">
<ele>482.4</ele>
<time>2024-05-07T10:02:24Z</time>
</trkpt>
<trkpt lat="48.86548991315067" lon="9.819738361984491">
<ele>482.4</ele>
<time>2024-05-07T10:02:25Z</time>
</trkpt>
<trkpt lat="48.86552042327821" lon="9.819765016436577">
<ele>482.8</ele>
<time>2024-05-07T10:02:26Z</time>
</trkpt>
<trkpt lat="48.86555093340576" lon="9.819793682545424">
<ele>482.8</ele>
<time>2024-05-07T10:02:27Z</time>
</trkpt>
<trkpt lat="48.8655814435333" lon="9.819825114682317">
<ele>483</ele>
<time>2024-05-07T10:02:28Z</time>
</trkpt>
<trkpt lat="48.865611953660846" lon="9.819856630638242">
<ele>483.2</ele>
<time>2024-05-07T10:02:29Z</time>
</trkpt>
<trkpt lat="48.86563869193196" lon="9.819888062775137">
<ele>483.4</ele>
<time>2024-05-07T10:02:30Z</time>
</trkpt>
<trkpt lat="48.86566920205951" lon="9.81991957873106">
<ele>483.4</ele>
<time>2024-05-07T10:02:31Z</time>
</trkpt>
<trkpt lat="48.86569971218705" lon="9.819952938705685">
<ele>483.6</ele>
<time>2024-05-07T10:02:32Z</time>
</trkpt>
<trkpt lat="48.86572645045817" lon="9.819990154355764">
<ele>483.6</ele>
<time>2024-05-07T10:02:33Z</time>
</trkpt>
<trkpt lat="48.865753104910254" lon="9.820025442168117">
<ele>483.6</ele>
<time>2024-05-07T10:02:34Z</time>
</trkpt>
<trkpt lat="48.86577984318137" lon="9.820059724152088">
<ele>483.6</ele>
<time>2024-05-07T10:02:35Z</time>
</trkpt>
<trkpt lat="48.86580649763346" lon="9.82009501196444">
<ele>483.6</ele>
<time>2024-05-07T10:02:36Z</time>
</trkpt>
<trkpt lat="48.865833235904574" lon="9.820128371939065">
<ele>483.6</ele>
<time>2024-05-07T10:02:37Z</time>
</trkpt>
<trkpt lat="48.86586760170758" lon="9.820159887894988">
<ele>483.8</ele>
<time>2024-05-07T10:02:38Z</time>
</trkpt>
<trkpt lat="48.86589811183512" lon="9.82019517570734">
<ele>483.8</ele>
<time>2024-05-07T10:02:39Z</time>
</trkpt>
<trkpt lat="48.86592476628721" lon="9.820230463519692">
<ele>484</ele>
<time>2024-05-07T10:02:40Z</time>
</trkpt>
<trkpt lat="48.86595527641475" lon="9.820266673341392">
<ele>484</ele>
<time>2024-05-07T10:02:41Z</time>
</trkpt>
<trkpt lat="48.86598587036133" lon="9.820301961153746">
<ele>484.2</ele>
<time>2024-05-07T10:02:42Z</time>
</trkpt>
<trkpt lat="48.8660201523453" lon="9.820338170975448">
<ele>484.2</ele>
<time>2024-05-07T10:02:43Z</time>
</trkpt>
<trkpt lat="48.86605066247285" lon="9.820375386625528">
<ele>484.2</ele>
<time>2024-05-07T10:02:44Z</time>
</trkpt>
<trkpt lat="48.86608117260039" lon="9.82041352428496">
<ele>484.4</ele>
<time>2024-05-07T10:02:45Z</time>
</trkpt>
<trkpt lat="48.866107910871506" lon="9.82045166194439">
<ele>484.4</ele>
<time>2024-05-07T10:02:46Z</time>
</trkpt>
<trkpt lat="48.86613842099905" lon="9.820489883422852">
<ele>484.4</ele>
<time>2024-05-07T10:02:47Z</time>
</trkpt>
<trkpt lat="48.86616515927017" lon="9.8205270152539">
<ele>484.4</ele>
<time>2024-05-07T10:02:48Z</time>
</trkpt>
<trkpt lat="48.86619566939771" lon="9.820563308894634">
<ele>484.6</ele>
<time>2024-05-07T10:02:49Z</time>
</trkpt>
<trkpt lat="48.866226179525256" lon="9.820601446554065">
<ele>484.8</ele>
<time>2024-05-07T10:02:50Z</time>
</trkpt>
<trkpt lat="48.8662566896528" lon="9.820636734366415">
<ele>484.8</ele>
<time>2024-05-07T10:02:51Z</time>
</trkpt>
<trkpt lat="48.866287199780345" lon="9.820672944188118">
<ele>485</ele>
<time>2024-05-07T10:02:52Z</time>
</trkpt>
<trkpt lat="48.86631770990789" lon="9.820712087675927">
<ele>485.2</ele>
<time>2024-05-07T10:02:53Z</time>
</trkpt>
<trkpt lat="48.86635207571089" lon="9.8207463696599">
<ele>485.2</ele>
<time>2024-05-07T10:02:54Z</time>
</trkpt>
<trkpt lat="48.86638258583844" lon="9.820781657472253">
<ele>485.4</ele>
<time>2024-05-07T10:02:55Z</time>
</trkpt>
<trkpt lat="48.86641686782241" lon="9.820815017446876">
<ele>485.4</ele>
<time>2024-05-07T10:02:56Z</time>
</trkpt>
<trkpt lat="48.86645500548184" lon="9.820843683555722">
<ele>485.4</ele>
<time>2024-05-07T10:02:57Z</time>
</trkpt>
<trkpt lat="48.86649314314127" lon="9.820868410170078">
<ele>485.6</ele>
<time>2024-05-07T10:02:58Z</time>
</trkpt>
<trkpt lat="48.86653136461973" lon="9.820891376584768">
<ele>485.6</ele>
<time>2024-05-07T10:02:59Z</time>
</trkpt>
<trkpt lat="48.8665656466037" lon="9.820913253352046">
<ele>485.8</ele>
<time>2024-05-07T10:03:00Z</time>
</trkpt>
<trkpt lat="48.86660763993859" lon="9.820935213938355">
<ele>485.8</ele>
<time>2024-05-07T10:03:01Z</time>
</trkpt>
<trkpt lat="48.86664577759802" lon="9.820955246686935">
<ele>486</ele>
<time>2024-05-07T10:03:02Z</time>
</trkpt>
<trkpt lat="48.86668014340103" lon="9.820973351597786">
<ele>486</ele>
<time>2024-05-07T10:03:03Z</time>
</trkpt>
<trkpt lat="48.86671828106046" lon="9.820989528670909">
<ele>486.2</ele>
<time>2024-05-07T10:03:04Z</time>
</trkpt>
<trkpt lat="48.86675641871989" lon="9.821006711572409">
<ele>486.2</ele>
<time>2024-05-07T10:03:05Z</time>
</trkpt>
<trkpt lat="48.86679455637932" lon="9.821026744320989">
<ele>486.4</ele>
<time>2024-05-07T10:03:06Z</time>
</trkpt>
<trkpt lat="48.86683269403875" lon="9.82104484923184">
<ele>486.4</ele>
<time>2024-05-07T10:03:07Z</time>
</trkpt>
<trkpt lat="48.86687083169818" lon="9.82106488198042">
<ele>486.4</ele>
<time>2024-05-07T10:03:08Z</time>
</trkpt>
<trkpt lat="48.86690896935761" lon="9.821084914729">
<ele>486.4</ele>
<time>2024-05-07T10:03:09Z</time>
</trkpt>
<trkpt lat="48.86694710701704" lon="9.82110301963985">
<ele>486.6</ele>
<time>2024-05-07T10:03:10Z</time>
</trkpt>
<trkpt lat="48.86698524467647" lon="9.82112305238843">
<ele>486.6</ele>
<time>2024-05-07T10:03:11Z</time>
</trkpt>
<trkpt lat="48.86702346615493" lon="9.82114308513701">
<ele>486.8</ele>
<time>2024-05-07T10:03:12Z</time>
</trkpt>
<trkpt lat="48.867057748138905" lon="9.82116311788559">
<ele>486.8</ele>
<time>2024-05-07T10:03:13Z</time>
</trkpt>
<trkpt lat="48.867095885798335" lon="9.821180300787091">
<ele>487</ele>
<time>2024-05-07T10:03:14Z</time>
</trkpt>
<trkpt lat="48.867137879133224" lon="9.821196477860212">
<ele>487</ele>
<time>2024-05-07T10:03:15Z</time>
</trkpt>
<trkpt lat="48.867176016792655" lon="9.821213660761714">
<ele>487</ele>
<time>2024-05-07T10:03:16Z</time>
</trkpt>
<trkpt lat="48.867218010127544" lon="9.821227993816136">
<ele>487.2</ele>
<time>2024-05-07T10:03:17Z</time>
</trkpt>
<trkpt lat="48.8672599196434" lon="9.82124517671764">
<ele>487.2</ele>
<time>2024-05-07T10:03:18Z</time>
</trkpt>
<trkpt lat="48.86729805730283" lon="9.82126135379076">
<ele>487.4</ele>
<time>2024-05-07T10:03:19Z</time>
</trkpt>
<trkpt lat="48.86734005063772" lon="9.82127945870161">
<ele>487.6</ele>
<time>2024-05-07T10:03:20Z</time>
</trkpt>
<trkpt lat="48.86737818829715" lon="9.821296641603112">
<ele>487.6</ele>
<time>2024-05-07T10:03:21Z</time>
</trkpt>
<trkpt lat="48.86742018163204" lon="9.821311896666884">
<ele>487.8</ele>
<time>2024-05-07T10:03:22Z</time>
</trkpt>
<trkpt lat="48.8674620911479" lon="9.821328157559035">
<ele>487.8</ele>
<time>2024-05-07T10:03:23Z</time>
</trkpt>
<trkpt lat="48.867507856339216" lon="9.82134341262281">
<ele>487.8</ele>
<time>2024-05-07T10:03:24Z</time>
</trkpt>
<trkpt lat="48.867549849674106" lon="9.821358667686582">
<ele>488</ele>
<time>2024-05-07T10:03:25Z</time>
</trkpt>
<trkpt lat="48.867591843008995" lon="9.821370067074897">
<ele>488</ele>
<time>2024-05-07T10:03:26Z</time>
</trkpt>
<trkpt lat="48.86767189018428" lon="9.82140158303082">
<ele>488</ele>
<time>2024-05-07T10:03:28Z</time>
</trkpt>
<trkpt lat="48.86771388351917" lon="9.82141968794167">
<ele>488.2</ele>
<time>2024-05-07T10:03:29Z</time>
</trkpt>
<trkpt lat="48.86775587685406" lon="9.821434943005444">
<ele>488.2</ele>
<time>2024-05-07T10:03:30Z</time>
</trkpt>
<trkpt lat="48.86779401451349" lon="9.821451120078564">
<ele>488.4</ele>
<time>2024-05-07T10:03:31Z</time>
</trkpt>
<trkpt lat="48.86783592402935" lon="9.821470230817797">
<ele>488.6</ele>
<time>2024-05-07T10:03:32Z</time>
</trkpt>
<trkpt lat="48.86791991069913" lon="9.82149688526988">
<ele>488.8</ele>
<time>2024-05-07T10:03:34Z</time>
</trkpt>
<trkpt lat="48.867965675890446" lon="9.821504512801766">
<ele>489</ele>
<time>2024-05-07T10:03:35Z</time>
</trkpt>
<trkpt lat="48.8680075854063" lon="9.821510296314957">
<ele>489.2</ele>
<time>2024-05-07T10:03:36Z</time>
</trkpt>
<trkpt lat="48.86805343441665" lon="9.821511218324304">
<ele>489.4</ele>
<time>2024-05-07T10:03:37Z</time>
</trkpt>
<trkpt lat="48.86809534393251" lon="9.821510296314957">
<ele>489.6</ele>
<time>2024-05-07T10:03:38Z</time>
</trkpt>
<trkpt lat="48.868141109123826" lon="9.821501662954688">
<ele>489.6</ele>
<time>2024-05-07T10:03:39Z</time>
</trkpt>
<trkpt lat="48.86817924678326" lon="9.821490263566377">
<ele>489.8</ele>
<time>2024-05-07T10:03:40Z</time>
</trkpt>
<trkpt lat="48.868221240118146" lon="9.821476936340332">
<ele>489.8</ele>
<time>2024-05-07T10:03:41Z</time>
</trkpt>
<trkpt lat="48.868259377777576" lon="9.82145975343883">
<ele>490</ele>
<time>2024-05-07T10:03:42Z</time>
</trkpt>
<trkpt lat="48.868301371112466" lon="9.82144164852798">
<ele>490</ele>
<time>2024-05-07T10:03:43Z</time>
</trkpt>
<trkpt lat="48.868339508771896" lon="9.821425387635829">
<ele>490.2</ele>
<time>2024-05-07T10:03:44Z</time>
</trkpt>
<trkpt lat="48.86837764643133" lon="9.821410132572057">
<ele>490.2</ele>
<time>2024-05-07T10:03:45Z</time>
</trkpt>
<trkpt lat="48.868419639766216" lon="9.821394877508284">
<ele>490.4</ele>
<time>2024-05-07T10:03:46Z</time>
</trkpt>
<trkpt lat="48.86845777742565" lon="9.82137962244451">
<ele>490.6</ele>
<time>2024-05-07T10:03:47Z</time>
</trkpt>
<trkpt lat="48.868499686941504" lon="9.821365289390087">
<ele>490.8</ele>
<time>2024-05-07T10:03:48Z</time>
</trkpt>
<trkpt lat="48.868537824600935" lon="9.821350034326317">
<ele>491</ele>
<time>2024-05-07T10:03:49Z</time>
</trkpt>
<trkpt lat="48.8685760460794" lon="9.821336707100272">
<ele>491.2</ele>
<time>2024-05-07T10:03:50Z</time>
</trkpt>
<trkpt lat="48.868617955595255" lon="9.82132337987423">
<ele>491.4</ele>
<time>2024-05-07T10:03:51Z</time>
</trkpt>
<trkpt lat="48.868656093254685" lon="9.821309968829157">
<ele>491.4</ele>
<time>2024-05-07T10:03:52Z</time>
</trkpt>
<trkpt lat="48.86869423091411" lon="9.821296641603112">
<ele>491.6</ele>
<time>2024-05-07T10:03:53Z</time>
</trkpt>
<trkpt lat="48.868736224249005" lon="9.82128331437707">
<ele>491.6</ele>
<time>2024-05-07T10:03:54Z</time>
</trkpt>
<trkpt lat="48.86877436190843" lon="9.821269987151029">
<ele>491.6</ele>
<time>2024-05-07T10:03:55Z</time>
</trkpt>
<trkpt lat="48.868812499567866" lon="9.821258503943682">
<ele>491.8</ele>
<time>2024-05-07T10:03:56Z</time>
</trkpt>
<trkpt lat="48.8688506372273" lon="9.82124517671764">
<ele>491.8</ele>
<time>2024-05-07T10:03:57Z</time>
</trkpt>
<trkpt lat="48.8688850030303" lon="9.821233693510294">
<ele>492</ele>
<time>2024-05-07T10:03:58Z</time>
</trkpt>
<trkpt lat="48.86892314068973" lon="9.821220366284251">
<ele>492.2</ele>
<time>2024-05-07T10:03:59Z</time>
</trkpt>
<trkpt lat="48.86896513402462" lon="9.82120511122048">
<ele>492.4</ele>
<time>2024-05-07T10:04:00Z</time>
</trkpt>
<trkpt lat="48.86900327168405" lon="9.821191783994436">
<ele>492.6</ele>
<time>2024-05-07T10:04:01Z</time>
</trkpt>
<trkpt lat="48.86904140934348" lon="9.821178372949362">
<ele>492.6</ele>
<time>2024-05-07T10:04:02Z</time>
</trkpt>
<trkpt lat="48.86908340267837" lon="9.821166973561049">
<ele>492.8</ele>
<time>2024-05-07T10:04:03Z</time>
</trkpt>
<trkpt lat="48.8691215403378" lon="9.821151718497276">
<ele>493</ele>
<time>2024-05-07T10:04:04Z</time>
</trkpt>
<trkpt lat="48.86915967799723" lon="9.821134535595776">
<ele>493</ele>
<time>2024-05-07T10:04:05Z</time>
</trkpt>
<trkpt lat="48.86919781565666" lon="9.821120202541351">
<ele>493.2</ele>
<time>2024-05-07T10:04:06Z</time>
</trkpt>
<trkpt lat="48.86923972517252" lon="9.821106875315309">
<ele>493.2</ele>
<time>2024-05-07T10:04:07Z</time>
</trkpt>
<trkpt lat="48.86927794665098" lon="9.821093548089266">
<ele>493.2</ele>
<time>2024-05-07T10:04:08Z</time>
</trkpt>
<trkpt lat="48.86931985616684" lon="9.821078293025494">
<ele>493.2</ele>
<time>2024-05-07T10:04:09Z</time>
</trkpt>
<trkpt lat="48.86935799382627" lon="9.82106488198042">
<ele>493.2</ele>
<time>2024-05-07T10:04:10Z</time>
</trkpt>
<trkpt lat="48.86939235962927" lon="9.821049626916649">
<ele>493.4</ele>
<time>2024-05-07T10:04:11Z</time>
</trkpt>
<trkpt lat="48.869430497288704" lon="9.821036299690604">
<ele>493.6</ele>
<time>2024-05-07T10:04:12Z</time>
</trkpt>
<trkpt lat="48.869468634948134" lon="9.82102297246456">
<ele>493.8</ele>
<time>2024-05-07T10:04:13Z</time>
</trkpt>
<trkpt lat="48.869506772607565" lon="9.821009561419489">
<ele>494</ele>
<time>2024-05-07T10:04:14Z</time>
</trkpt>
<trkpt lat="48.869544910266995" lon="9.820996234193444">
<ele>494.2</ele>
<time>2024-05-07T10:04:15Z</time>
</trkpt>
<trkpt lat="48.869583047926426" lon="9.820982906967402">
<ele>494.4</ele>
<time>2024-05-07T10:04:16Z</time>
</trkpt>
<trkpt lat="48.86962126940489" lon="9.820971423760056">
<ele>494.6</ele>
<time>2024-05-07T10:04:17Z</time>
</trkpt>
<trkpt lat="48.86965940706432" lon="9.820960024371743">
<ele>494.8</ele>
<time>2024-05-07T10:04:18Z</time>
</trkpt>
<trkpt lat="48.86969754472375" lon="9.820944769307973">
<ele>495</ele>
<time>2024-05-07T10:04:19Z</time>
</trkpt>
<trkpt lat="48.86973568238318" lon="9.820930436253548">
<ele>495.4</ele>
<time>2024-05-07T10:04:20Z</time>
</trkpt>
<trkpt lat="48.86977382004261" lon="9.820915181189775">
<ele>495.6</ele>
<time>2024-05-07T10:04:21Z</time>
</trkpt>
<trkpt lat="48.86981195770204" lon="9.820897998288274">
<ele>495.8</ele>
<time>2024-05-07T10:04:22Z</time>
</trkpt>
<trkpt lat="48.86985009536147" lon="9.820884671062233">
<ele>496</ele>
<time>2024-05-07T10:04:23Z</time>
</trkpt>
<trkpt lat="48.8698882330209" lon="9.820873187854886">
<ele>496</ele>
<time>2024-05-07T10:04:24Z</time>
</trkpt>
<trkpt lat="48.86992637068033" lon="9.820861788466573">
<ele>496.2</ele>
<time>2024-05-07T10:04:25Z</time>
</trkpt>
<trkpt lat="48.86996836401522" lon="9.820850305259228">
<ele>496</ele>
<time>2024-05-07T10:04:26Z</time>
</trkpt>
<trkpt lat="48.87000650167465" lon="9.820837900042534">
<ele>496</ele>
<time>2024-05-07T10:04:27Z</time>
</trkpt>
<trkpt lat="48.87004849500954" lon="9.820824572816491">
<ele>496</ele>
<time>2024-05-07T10:04:28Z</time>
</trkpt>
<trkpt lat="48.87008663266897" lon="9.820811245590448">
<ele>496</ele>
<time>2024-05-07T10:04:29Z</time>
</trkpt>
<trkpt lat="48.8701247703284" lon="9.820797918364406">
<ele>496</ele>
<time>2024-05-07T10:04:30Z</time>
</trkpt>
<trkpt lat="48.87016676366329" lon="9.820783585309982">
<ele>496</ele>
<time>2024-05-07T10:04:31Z</time>
</trkpt>
<trkpt lat="48.87020490132272" lon="9.82076833024621">
<ele>496</ele>
<time>2024-05-07T10:04:32Z</time>
</trkpt>
<trkpt lat="48.87024303898215" lon="9.820753075182438">
<ele>496</ele>
<time>2024-05-07T10:04:33Z</time>
</trkpt>
<trkpt lat="48.87028503231704" lon="9.820741591975093">
<ele>496.2</ele>
<time>2024-05-07T10:04:34Z</time>
</trkpt>
<trkpt lat="48.87032316997647" lon="9.82073019258678">
<ele>496.2</ele>
<time>2024-05-07T10:04:35Z</time>
</trkpt>
<trkpt lat="48.8703613076359" lon="9.820718709379436">
<ele>496.4</ele>
<time>2024-05-07T10:04:36Z</time>
</trkpt>
<trkpt lat="48.870399445295334" lon="9.820705382153392">
<ele>496.6</ele>
<time>2024-05-07T10:04:37Z</time>
</trkpt>
<trkpt lat="48.87043758295477" lon="9.82069012708962">
<ele>496.8</ele>
<time>2024-05-07T10:04:38Z</time>
</trkpt>
<trkpt lat="48.870475720614195" lon="9.820674872025847">
<ele>496.8</ele>
<time>2024-05-07T10:04:39Z</time>
</trkpt>
<trkpt lat="48.870513858273625" lon="9.820659616962075">
<ele>497</ele>
<time>2024-05-07T10:04:40Z</time>
</trkpt>
<trkpt lat="48.870551995933056" lon="9.820646205917">
<ele>497.2</ele>
<time>2024-05-07T10:04:41Z</time>
</trkpt>
<trkpt lat="48.870590133592486" lon="9.820634806528687">
<ele>497.4</ele>
<time>2024-05-07T10:04:42Z</time>
</trkpt>
<trkpt lat="48.87062835507095" lon="9.820623323321342">
<ele>497.6</ele>
<time>2024-05-07T10:04:43Z</time>
</trkpt>
<trkpt lat="48.87066649273038" lon="9.8206099960953">
<ele>497.6</ele>
<time>2024-05-07T10:04:44Z</time>
</trkpt>
<trkpt lat="48.87070463038981" lon="9.820599518716335">
<ele>497.8</ele>
<time>2024-05-07T10:04:45Z</time>
</trkpt>
<trkpt lat="48.87074276804924" lon="9.82058996334672">
<ele>498</ele>
<time>2024-05-07T10:04:46Z</time>
</trkpt>
<trkpt lat="48.87078090570867" lon="9.820576636120675">
<ele>498</ele>
<time>2024-05-07T10:04:47Z</time>
</trkpt>
<trkpt lat="48.8708190433681" lon="9.820563308894634">
<ele>498</ele>
<time>2024-05-07T10:04:48Z</time>
</trkpt>
<trkpt lat="48.87085718102753" lon="9.82054989784956">
<ele>498.2</ele>
<time>2024-05-07T10:04:49Z</time>
</trkpt>
<trkpt lat="48.87089531868696" lon="9.820536570623515">
<ele>498.2</ele>
<time>2024-05-07T10:04:50Z</time>
</trkpt>
<trkpt lat="48.87093731202185" lon="9.820523243397474">
<ele>498.2</ele>
<time>2024-05-07T10:04:51Z</time>
</trkpt>
<trkpt lat="48.87097544968128" lon="9.8205098323524">
<ele>498.2</ele>
<time>2024-05-07T10:04:52Z</time>
</trkpt>
<trkpt lat="48.87101358734071" lon="9.82049365527928">
<ele>498.4</ele>
<time>2024-05-07T10:04:53Z</time>
</trkpt>
<trkpt lat="48.8710555806756" lon="9.820476472377775">
<ele>498.2</ele>
<time>2024-05-07T10:04:54Z</time>
</trkpt>
<trkpt lat="48.87109749019146" lon="9.820463145151734">
<ele>498.2</ele>
<time>2024-05-07T10:04:55Z</time>
</trkpt>
<trkpt lat="48.87113948352635" lon="9.820449817925692">
<ele>498.4</ele>
<time>2024-05-07T10:04:56Z</time>
</trkpt>
<trkpt lat="48.87118147686124" lon="9.82043456286192">
<ele>498.4</ele>
<time>2024-05-07T10:04:57Z</time>
</trkpt>
<trkpt lat="48.871223386377096" lon="9.820420229807496">
<ele>498.4</ele>
<time>2024-05-07T10:04:58Z</time>
</trkpt>
<trkpt lat="48.871265379711986" lon="9.820404974743724">
<ele>498.4</ele>
<time>2024-05-07T10:04:59Z</time>
</trkpt>
<trkpt lat="48.871307373046875" lon="9.82039164751768">
<ele>498.4</ele>
<time>2024-05-07T10:05:00Z</time>
</trkpt>
<trkpt lat="48.871345510706306" lon="9.820376392453907">
<ele>498.4</ele>
<time>2024-05-07T10:05:01Z</time>
</trkpt>
<trkpt lat="48.87138742022216" lon="9.820362981408834">
<ele>498.2</ele>
<time>2024-05-07T10:05:02Z</time>
</trkpt>
<trkpt lat="48.87142941355705" lon="9.82035158202052">
<ele>498.2</ele>
<time>2024-05-07T10:05:03Z</time>
</trkpt>
<trkpt lat="48.87147132307291" lon="9.820338170975448">
<ele>498.2</ele>
<time>2024-05-07T10:05:04Z</time>
</trkpt>
<trkpt lat="48.8715133164078" lon="9.820321993902326">
<ele>498.2</ele>
<time>2024-05-07T10:05:05Z</time>
</trkpt>
<trkpt lat="48.87155145406723" lon="9.820304811000824">
<ele>498.2</ele>
<time>2024-05-07T10:05:06Z</time>
</trkpt>
<trkpt lat="48.87159344740212" lon="9.82029148377478">
<ele>498.4</ele>
<time>2024-05-07T10:05:07Z</time>
</trkpt>
<trkpt lat="48.87163921259344" lon="9.820276228711007">
<ele>498.4</ele>
<time>2024-05-07T10:05:08Z</time>
</trkpt>
<trkpt lat="48.871681205928326" lon="9.820259967818856">
<ele>498.4</ele>
<time>2024-05-07T10:05:09Z</time>
</trkpt>
<trkpt lat="48.87172311544418" lon="9.820243790745735">
<ele>498.4</ele>
<time>2024-05-07T10:05:10Z</time>
</trkpt>
<trkpt lat="48.8717688806355" lon="9.820228535681965">
<ele>498.4</ele>
<time>2024-05-07T10:05:11Z</time>
</trkpt>
<trkpt lat="48.87181464582682" lon="9.82021520845592">
<ele>498.4</ele>
<time>2024-05-07T10:05:12Z</time>
</trkpt>
<trkpt lat="48.871856639161706" lon="9.820201797410846">
<ele>498.4</ele>
<time>2024-05-07T10:05:13Z</time>
</trkpt>
<trkpt lat="48.87190240435302" lon="9.82019517570734">
<ele>498.6</ele>
<time>2024-05-07T10:05:14Z</time>
</trkpt>
<trkpt lat="48.87194816954434" lon="9.82019132003188">
<ele>498.6</ele>
<time>2024-05-07T10:05:15Z</time>
</trkpt>
<trkpt lat="48.87199016287923" lon="9.82019132003188">
<ele>498.6</ele>
<time>2024-05-07T10:05:16Z</time>
</trkpt>
<trkpt lat="48.87203215621412" lon="9.820199953392148">
<ele>498.6</ele>
<time>2024-05-07T10:05:17Z</time>
</trkpt>
<trkpt lat="48.872077921405435" lon="9.820209424942732">
<ele>498.6</ele>
<time>2024-05-07T10:05:18Z</time>
</trkpt>
<trkpt lat="48.87211983092129" lon="9.820222835987806">
<ele>498.4</ele>
<time>2024-05-07T10:05:19Z</time>
</trkpt>
<trkpt lat="48.87216182425618" lon="9.8202352412045">
<ele>498.4</ele>
<time>2024-05-07T10:05:20Z</time>
</trkpt>
<trkpt lat="48.8722075894475" lon="9.820246640592812">
<ele>498.4</ele>
<time>2024-05-07T10:05:21Z</time>
</trkpt>
<trkpt lat="48.872253354638815" lon="9.82025812380016">
<ele>498.4</ele>
<time>2024-05-07T10:05:22Z</time>
</trkpt>
<trkpt lat="48.872295347973704" lon="9.820268601179125">
<ele>498.4</ele>
<time>2024-05-07T10:05:23Z</time>
</trkpt>
<trkpt lat="48.872337341308594" lon="9.820278156548738">
<ele>498.4</ele>
<time>2024-05-07T10:05:24Z</time>
</trkpt>
<trkpt lat="48.87237925082445" lon="9.820288633927705">
<ele>498.4</ele>
<time>2024-05-07T10:05:25Z</time>
</trkpt>
<trkpt lat="48.87242501601577" lon="9.820298189297318">
<ele>498.4</ele>
<time>2024-05-07T10:05:26Z</time>
</trkpt>
<trkpt lat="48.87246700935066" lon="9.820306738838552">
<ele>498.6</ele>
<time>2024-05-07T10:05:27Z</time>
</trkpt>
<trkpt lat="48.87250900268555" lon="9.820316294208167">
<ele>498.6</ele>
<time>2024-05-07T10:05:28Z</time>
</trkpt>
<trkpt lat="48.87255476787686" lon="9.820326771587132">
<ele>498.8</ele>
<time>2024-05-07T10:05:29Z</time>
</trkpt>
<trkpt lat="48.87259667739272" lon="9.820336326956747">
<ele>499</ele>
<time>2024-05-07T10:05:30Z</time>
</trkpt>
<trkpt lat="48.87263867072761" lon="9.820344876497984">
<ele>499</ele>
<time>2024-05-07T10:05:31Z</time>
</trkpt>
<trkpt lat="48.8726806640625" lon="9.82035158202052">
<ele>499</ele>
<time>2024-05-07T10:05:32Z</time>
</trkpt>
<trkpt lat="48.87272257357836" lon="9.820362981408834">
<ele>499</ele>
<time>2024-05-07T10:05:33Z</time>
</trkpt>
<trkpt lat="48.87276456691325" lon="9.8203734587878">
<ele>499</ele>
<time>2024-05-07T10:05:34Z</time>
</trkpt>
<trkpt lat="48.872806476429105" lon="9.820384941995144">
<ele>499</ele>
<time>2024-05-07T10:05:35Z</time>
</trkpt>
<trkpt lat="48.872848469763994" lon="9.82039449736476">
<ele>499.2</ele>
<time>2024-05-07T10:05:36Z</time>
</trkpt>
<trkpt lat="48.872886607423425" lon="9.820403046905994">
<ele>499.2</ele>
<time>2024-05-07T10:05:37Z</time>
</trkpt>
<trkpt lat="48.872928600758314" lon="9.82041168026626">
<ele>499.2</ele>
<time>2024-05-07T10:05:38Z</time>
</trkpt>
<trkpt lat="48.872966738417745" lon="9.820418301969768">
<ele>499</ele>
<time>2024-05-07T10:05:39Z</time>
</trkpt>
<trkpt lat="48.8730086479336" lon="9.820427857339382">
<ele>499</ele>
<time>2024-05-07T10:05:40Z</time>
</trkpt>
<trkpt lat="48.87305064126849" lon="9.82043456286192">
<ele>499</ele>
<time>2024-05-07T10:05:41Z</time>
</trkpt>
<trkpt lat="48.87309263460338" lon="9.820446968078612">
<ele>499</ele>
<time>2024-05-07T10:05:42Z</time>
</trkpt>
<trkpt lat="48.8731383997947" lon="9.820456439629195">
<ele>499.2</ele>
<time>2024-05-07T10:05:43Z</time>
</trkpt>
<trkpt lat="48.87317653745413" lon="9.820466917008162">
<ele>499.2</ele>
<time>2024-05-07T10:05:44Z</time>
</trkpt>
<trkpt lat="48.873222302645445" lon="9.820474544540048">
<ele>499.2</ele>
<time>2024-05-07T10:05:45Z</time>
</trkpt>
<trkpt lat="48.873264295980334" lon="9.820485105738044">
<ele>499.2</ele>
<time>2024-05-07T10:05:46Z</time>
</trkpt>
<trkpt lat="48.87331006117165" lon="9.82049172744155">
<ele>499.4</ele>
<time>2024-05-07T10:05:47Z</time>
</trkpt>
<trkpt lat="48.87335197068751" lon="9.820501282811165">
<ele>499.4</ele>
<time>2024-05-07T10:05:48Z</time>
</trkpt>
<trkpt lat="48.8733939640224" lon="9.8205098323524">
<ele>499.4</ele>
<time>2024-05-07T10:05:49Z</time>
</trkpt>
<trkpt lat="48.87343595735729" lon="9.820520393550396">
<ele>499.2</ele>
<time>2024-05-07T10:05:50Z</time>
</trkpt>
<trkpt lat="48.873477866873145" lon="9.820528021082282">
<ele>499.2</ele>
<time>2024-05-07T10:05:51Z</time>
</trkpt>
<trkpt lat="48.873519860208035" lon="9.820538498461246">
<ele>499.2</ele>
<time>2024-05-07T10:05:52Z</time>
</trkpt>
<trkpt lat="48.87356562539935" lon="9.82054704800248">
<ele>499.2</ele>
<time>2024-05-07T10:05:53Z</time>
</trkpt>
<trkpt lat="48.87360761873424" lon="9.820554675534368">
<ele>499</ele>
<time>2024-05-07T10:05:54Z</time>
</trkpt>
<trkpt lat="48.87365338392556" lon="9.820563308894634">
<ele>499</ele>
<time>2024-05-07T10:05:55Z</time>
</trkpt>
<trkpt lat="48.873695293441415" lon="9.82057185843587">
<ele>499</ele>
<time>2024-05-07T10:05:56Z</time>
</trkpt>
<trkpt lat="48.87374114245176" lon="9.820579485967755">
<ele>498.8</ele>
<time>2024-05-07T10:05:57Z</time>
</trkpt>
<trkpt lat="48.87378305196762" lon="9.82058996334672">
<ele>498.8</ele>
<time>2024-05-07T10:05:58Z</time>
</trkpt>
<trkpt lat="48.87382504530251" lon="9.820601446554065">
<ele>499</ele>
<time>2024-05-07T10:05:59Z</time>
</trkpt>
<trkpt lat="48.87387081049383" lon="9.8206099960953">
<ele>499</ele>
<time>2024-05-07T10:06:00Z</time>
</trkpt>
<trkpt lat="48.87391657568514" lon="9.820621479302645">
<ele>499.2</ele>
<time>2024-05-07T10:06:01Z</time>
</trkpt>
<trkpt lat="48.87396234087646" lon="9.820632878690958">
<ele>499.2</ele>
<time>2024-05-07T10:06:02Z</time>
</trkpt>
<trkpt lat="48.87400810606778" lon="9.820643356069922">
<ele>499.4</ele>
<time>2024-05-07T10:06:03Z</time>
</trkpt>
<trkpt lat="48.874053955078125" lon="9.82065198943019">
<ele>499.6</ele>
<time>2024-05-07T10:06:04Z</time>
</trkpt>
<trkpt lat="48.87409972026944" lon="9.820661544799805">
<ele>499.6</ele>
<time>2024-05-07T10:06:05Z</time>
</trkpt>
<trkpt lat="48.8741416297853" lon="9.820672944188118">
<ele>499.8</ele>
<time>2024-05-07T10:06:06Z</time>
</trkpt>
<trkpt lat="48.874187394976616" lon="9.820683421567082">
<ele>499.8</ele>
<time>2024-05-07T10:06:07Z</time>
</trkpt>
<trkpt lat="48.87423324398696" lon="9.820692976936698">
<ele>499.8</ele>
<time>2024-05-07T10:06:08Z</time>
</trkpt>
<trkpt lat="48.87427515350282" lon="9.820703454315662">
<ele>499.8</ele>
<time>2024-05-07T10:06:09Z</time>
</trkpt>
<trkpt lat="48.87431329116225" lon="9.820712087675927">
<ele>499.8</ele>
<time>2024-05-07T10:06:10Z</time>
</trkpt>
<trkpt lat="48.87435905635357" lon="9.820721559226511">
<ele>499.8</ele>
<time>2024-05-07T10:06:11Z</time>
</trkpt>
<trkpt lat="48.87440104968846" lon="9.82073019258678">
<ele>499.8</ele>
<time>2024-05-07T10:06:12Z</time>
</trkpt>
<trkpt lat="48.87444304302335" lon="9.820739664137363">
<ele>499.8</ele>
<time>2024-05-07T10:06:13Z</time>
</trkpt>
<trkpt lat="48.874484952539206" lon="9.82074829749763">
<ele>499.8</ele>
<time>2024-05-07T10:06:14Z</time>
</trkpt>
<trkpt lat="48.87452309019864" lon="9.820758774876596">
<ele>500</ele>
<time>2024-05-07T10:06:15Z</time>
</trkpt>
<trkpt lat="48.874568939208984" lon="9.820764474570751">
<ele>500</ele>
<time>2024-05-07T10:06:16Z</time>
</trkpt>
<trkpt lat="48.87461084872484" lon="9.820772102102636">
<ele>500</ele>
<time>2024-05-07T10:06:17Z</time>
</trkpt>
<trkpt lat="48.87465284205973" lon="9.820777885615826">
<ele>500</ele>
<time>2024-05-07T10:06:18Z</time>
</trkpt>
<trkpt lat="48.87469097971916" lon="9.82078643515706">
<ele>500.2</ele>
<time>2024-05-07T10:06:19Z</time>
</trkpt>
<trkpt lat="48.87473288923502" lon="9.820794984698296">
<ele>500.2</ele>
<time>2024-05-07T10:06:20Z</time>
</trkpt>
<trkpt lat="48.87477111071348" lon="9.820804540067911">
<ele>500.2</ele>
<time>2024-05-07T10:06:21Z</time>
</trkpt>
<trkpt lat="48.87481302022934" lon="9.820815017446876">
<ele>500.2</ele>
<time>2024-05-07T10:06:22Z</time>
</trkpt>
<trkpt lat="48.87485501356423" lon="9.820824572816491">
<ele>500.2</ele>
<time>2024-05-07T10:06:23Z</time>
</trkpt>
<trkpt lat="48.87489315122366" lon="9.820835050195456">
<ele>500.4</ele>
<time>2024-05-07T10:06:24Z</time>
</trkpt>
<trkpt lat="48.87493514455855" lon="9.820844605565073">
<ele>500.4</ele>
<time>2024-05-07T10:06:25Z</time>
</trkpt>
<trkpt lat="48.87497705407441" lon="9.820855082944036">
<ele>500.4</ele>
<time>2024-05-07T10:06:26Z</time>
</trkpt>
<trkpt lat="48.87501519173384" lon="9.820863716304302">
<ele>500.4</ele>
<time>2024-05-07T10:06:27Z</time>
</trkpt>
<trkpt lat="48.87505718506873" lon="9.820871343836188">
<ele>500.4</ele>
<time>2024-05-07T10:06:28Z</time>
</trkpt>
<trkpt lat="48.87509532272816" lon="9.820881821215153">
<ele>500.6</ele>
<time>2024-05-07T10:06:29Z</time>
</trkpt>
<trkpt lat="48.87513731606305" lon="9.820890370756388">
<ele>500.8</ele>
<time>2024-05-07T10:06:30Z</time>
</trkpt>
<trkpt lat="48.875179225578904" lon="9.820897998288274">
<ele>500.8</ele>
<time>2024-05-07T10:06:31Z</time>
</trkpt>
<trkpt lat="48.875221218913794" lon="9.820908475667238">
<ele>500.8</ele>
<time>2024-05-07T10:06:32Z</time>
</trkpt>
<trkpt lat="48.875259356573224" lon="9.820918031036854">
<ele>501</ele>
<time>2024-05-07T10:06:33Z</time>
</trkpt>
<trkpt lat="48.87530134990811" lon="9.820928508415818">
<ele>501</ele>
<time>2024-05-07T10:06:34Z</time>
</trkpt>
<trkpt lat="48.87534325942397" lon="9.820936135947704">
<ele>501</ele>
<time>2024-05-07T10:06:35Z</time>
</trkpt>
<trkpt lat="48.8753813970834" lon="9.820944769307973">
<ele>501.2</ele>
<time>2024-05-07T10:06:36Z</time>
</trkpt>
<trkpt lat="48.87542339041829" lon="9.820953318849206">
<ele>501.2</ele>
<time>2024-05-07T10:06:37Z</time>
</trkpt>
<trkpt lat="48.87546538375318" lon="9.820960024371743">
<ele>501.4</ele>
<time>2024-05-07T10:06:38Z</time>
</trkpt>
<trkpt lat="48.8755111489445" lon="9.820966646075249">
<ele>501.6</ele>
<time>2024-05-07T10:06:39Z</time>
</trkpt>
<trkpt lat="48.875553058460355" lon="9.820973351597786">
<ele>501.6</ele>
<time>2024-05-07T10:06:40Z</time>
</trkpt>
<trkpt lat="48.8755989074707" lon="9.82098190113902">
<ele>501.8</ele>
<time>2024-05-07T10:06:41Z</time>
</trkpt>
<trkpt lat="48.87564467266202" lon="9.820993384346366">
<ele>501.8</ele>
<time>2024-05-07T10:06:42Z</time>
</trkpt>
<trkpt lat="48.87568658217788" lon="9.821006711572409">
<ele>502</ele>
<time>2024-05-07T10:06:43Z</time>
</trkpt>
<trkpt lat="48.875732347369194" lon="9.821016266942024">
<ele>502</ele>
<time>2024-05-07T10:06:44Z</time>
</trkpt>
<trkpt lat="48.87577819637954" lon="9.82102481648326">
<ele>501.8</ele>
<time>2024-05-07T10:06:45Z</time>
</trkpt>
<trkpt lat="48.8758201058954" lon="9.821033449843526">
<ele>501.6</ele>
<time>2024-05-07T10:06:46Z</time>
</trkpt>
<trkpt lat="48.87586587108672" lon="9.82104199938476">
<ele>501.6</ele>
<time>2024-05-07T10:06:47Z</time>
</trkpt>
<trkpt lat="48.87591163627803" lon="9.821049626916649">
<ele>501.4</ele>
<time>2024-05-07T10:06:48Z</time>
</trkpt>
<trkpt lat="48.87595748528838" lon="9.821056332439184">
<ele>501.2</ele>
<time>2024-05-07T10:06:49Z</time>
</trkpt>
<trkpt lat="48.8760032504797" lon="9.821060104295611">
<ele>501</ele>
<time>2024-05-07T10:06:50Z</time>
</trkpt>
<trkpt lat="48.87605278752744" lon="9.821051554754376">
<ele>501</ele>
<time>2024-05-07T10:06:51Z</time>
</trkpt>
<trkpt lat="48.87609855271876" lon="9.821026744320989">
<ele>500.8</ele>
<time>2024-05-07T10:06:52Z</time>
</trkpt>
<trkpt lat="48.87614054605365" lon="9.820991456508636">
<ele>500.6</ele>
<time>2024-05-07T10:06:53Z</time>
</trkpt>
<trkpt lat="48.876186311244965" lon="9.820944769307973">
<ele>500.6</ele>
<time>2024-05-07T10:06:54Z</time>
</trkpt>
<trkpt lat="48.876228304579854" lon="9.820899926126003">
<ele>500.4</ele>
<time>2024-05-07T10:06:55Z</time>
</trkpt>
<trkpt lat="48.87627021409571" lon="9.820853155106306">
<ele>500.2</ele>
<time>2024-05-07T10:06:56Z</time>
</trkpt>
<trkpt lat="48.8763122074306" lon="9.82080646790564">
<ele>500</ele>
<time>2024-05-07T10:06:57Z</time>
</trkpt>
<trkpt lat="48.87635420076549" lon="9.820761624723673">
<ele>500</ele>
<time>2024-05-07T10:06:58Z</time>
</trkpt>
<trkpt lat="48.87639611028135" lon="9.820718709379436">
<ele>499.8</ele>
<time>2024-05-07T10:06:59Z</time>
</trkpt>
<trkpt lat="48.87643810361624" lon="9.820674872025847">
<ele>499.8</ele>
<time>2024-05-07T10:07:00Z</time>
</trkpt>
<trkpt lat="48.87648009695113" lon="9.82063002884388">
<ele>499.6</ele>
<time>2024-05-07T10:07:01Z</time>
</trkpt>
<trkpt lat="48.87651823461056" lon="9.820585185661912">
<ele>499.6</ele>
<time>2024-05-07T10:07:02Z</time>
</trkpt>
<trkpt lat="48.876563999801874" lon="9.820540426298976">
<ele>499.4</ele>
<time>2024-05-07T10:07:03Z</time>
</trkpt>
<trkpt lat="48.87660976499319" lon="9.820494577288628">
<ele>499.4</ele>
<time>2024-05-07T10:07:04Z</time>
</trkpt>
<trkpt lat="48.876659385859966" lon="9.8204545956105">
<ele>499.4</ele>
<time>2024-05-07T10:07:05Z</time>
</trkpt>
<trkpt lat="48.87670515105128" lon="9.820427857339382">
<ele>499.2</ele>
<time>2024-05-07T10:07:06Z</time>
</trkpt>
<trkpt lat="48.87675468809903" lon="9.820409752428532">
<ele>499.2</ele>
<time>2024-05-07T10:07:07Z</time>
</trkpt>
<trkpt lat="48.876800537109375" lon="9.820398269221188">
<ele>499</ele>
<time>2024-05-07T10:07:08Z</time>
</trkpt>
<trkpt lat="48.87685392983258" lon="9.82039449736476">
<ele>499</ele>
<time>2024-05-07T10:07:09Z</time>
</trkpt>
<trkpt lat="48.87690346688032" lon="9.82039164751768">
<ele>499</ele>
<time>2024-05-07T10:07:10Z</time>
</trkpt>
<trkpt lat="48.8769530877471" lon="9.820389719679952">
<ele>499</ele>
<time>2024-05-07T10:07:11Z</time>
</trkpt>
<trkpt lat="48.87700270861387" lon="9.82039164751768">
<ele>499</ele>
<time>2024-05-07T10:07:12Z</time>
</trkpt>
<trkpt lat="48.877052245661616" lon="9.820396341383455">
<ele>499</ele>
<time>2024-05-07T10:07:13Z</time>
</trkpt>
<trkpt lat="48.87710186652839" lon="9.820403046905994">
<ele>499</ele>
<time>2024-05-07T10:07:14Z</time>
</trkpt>
<trkpt lat="48.87715148739517" lon="9.820415452122688">
<ele>499</ele>
<time>2024-05-07T10:07:15Z</time>
</trkpt>
<trkpt lat="48.87720102444291" lon="9.820427857339382">
<ele>499</ele>
<time>2024-05-07T10:07:16Z</time>
</trkpt>
<trkpt lat="48.87725064530969" lon="9.820443112403154">
<ele>499</ele>
<time>2024-05-07T10:07:17Z</time>
</trkpt>
<trkpt lat="48.87730018235743" lon="9.820458367466928">
<ele>499</ele>
<time>2024-05-07T10:07:18Z</time>
</trkpt>
<trkpt lat="48.877349803224206" lon="9.82047169469297">
<ele>499</ele>
<time>2024-05-07T10:07:19Z</time>
</trkpt>
<trkpt lat="48.87739942409098" lon="9.820485105738044">
<ele>499</ele>
<time>2024-05-07T10:07:20Z</time>
</trkpt>
<trkpt lat="48.8774451892823" lon="9.820500360801816">
<ele>499</ele>
<time>2024-05-07T10:07:21Z</time>
</trkpt>
<trkpt lat="48.877494810149074" lon="9.82051176019013">
<ele>499</ele>
<time>2024-05-07T10:07:22Z</time>
</trkpt>
<trkpt lat="48.87754434719682" lon="9.820514610037208">
<ele>499</ele>
<time>2024-05-07T10:07:23Z</time>
</trkpt>
<trkpt lat="48.877590112388134" lon="9.820518465712668">
<ele>499</ele>
<time>2024-05-07T10:07:24Z</time>
</trkpt>
<trkpt lat="48.87763973325491" lon="9.820514610037208">
<ele>498.8</ele>
<time>2024-05-07T10:07:25Z</time>
</trkpt>
<trkpt lat="48.877685498446226" lon="9.820505138486624">
<ele>498.8</ele>
<time>2024-05-07T10:07:26Z</time>
</trkpt>
<trkpt lat="48.87773126363754" lon="9.820485105738044">
<ele>498.8</ele>
<time>2024-05-07T10:07:27Z</time>
</trkpt>
<trkpt lat="48.87777325697243" lon="9.820458367466928">
<ele>498.8</ele>
<time>2024-05-07T10:07:28Z</time>
</trkpt>
<trkpt lat="48.87781516648829" lon="9.82043162919581">
<ele>498.8</ele>
<time>2024-05-07T10:07:29Z</time>
</trkpt>
<trkpt lat="48.87785715982318" lon="9.820404974743724">
<ele>498.8</ele>
<time>2024-05-07T10:07:30Z</time>
</trkpt>
<trkpt lat="48.87789915315807" lon="9.8203734587878">
<ele>498.8</ele>
<time>2024-05-07T10:07:31Z</time>
</trkpt>
<trkpt lat="48.8779372908175" lon="9.820338170975448">
<ele>498.8</ele>
<time>2024-05-07T10:07:32Z</time>
</trkpt>
<trkpt lat="48.87797542847693" lon="9.820302883163096">
<ele>498.8</ele>
<time>2024-05-07T10:07:33Z</time>
</trkpt>
<trkpt lat="48.87801356613636" lon="9.8202714510262">
<ele>498.8</ele>
<time>2024-05-07T10:07:34Z</time>
</trkpt>
<trkpt lat="48.87804793193936" lon="9.820236163213847">
<ele>498.8</ele>
<time>2024-05-07T10:07:35Z</time>
</trkpt>
<trkpt lat="48.87807844206691" lon="9.820199953392148">
<ele>498.8</ele>
<time>2024-05-07T10:07:36Z</time>
</trkpt>
<trkpt lat="48.87811272405088" lon="9.820161815732718">
<ele>499</ele>
<time>2024-05-07T10:07:37Z</time>
</trkpt>
<trkpt lat="48.878143234178424" lon="9.820123594254255">
<ele>499.2</ele>
<time>2024-05-07T10:07:38Z</time>
</trkpt>
<trkpt lat="48.87817759998143" lon="9.820084534585476">
<ele>499.2</ele>
<time>2024-05-07T10:07:39Z</time>
</trkpt>
<trkpt lat="48.87820811010897" lon="9.820043547078969">
<ele>499.6</ele>
<time>2024-05-07T10:07:40Z</time>
</trkpt>
<trkpt lat="48.87823862023651" lon="9.819999625906348">
<ele>499.8</ele>
<time>2024-05-07T10:07:41Z</time>
</trkpt>
<trkpt lat="48.87827298603952" lon="9.81995671056211">
<ele>500</ele>
<time>2024-05-07T10:07:42Z</time>
</trkpt>
<trkpt lat="48.878303496167064" lon="9.819912873208525">
<ele>500.4</ele>
<time>2024-05-07T10:07:43Z</time>
</trkpt>
<trkpt lat="48.878337778151035" lon="9.819871885702014">
<ele>500.6</ele>
<time>2024-05-07T10:07:44Z</time>
</trkpt>
<trkpt lat="48.87837214395404" lon="9.819827964529397">
<ele>500.8</ele>
<time>2024-05-07T10:07:45Z</time>
</trkpt>
<trkpt lat="48.87840650975704" lon="9.819787899032235">
<ele>501</ele>
<time>2024-05-07T10:07:46Z</time>
</trkpt>
<trkpt lat="48.878437019884586" lon="9.819746911525726">
<ele>501.4</ele>
<time>2024-05-07T10:07:47Z</time>
</trkpt>
<trkpt lat="48.87847130186856" lon="9.819706846028566">
<ele>501.4</ele>
<time>2024-05-07T10:07:48Z</time>
</trkpt>
<trkpt lat="48.8785018119961" lon="9.819668708369136">
<ele>501.6</ele>
<time>2024-05-07T10:07:49Z</time>
</trkpt>
<trkpt lat="48.87853240594268" lon="9.819628642871976">
<ele>501.8</ele>
<time>2024-05-07T10:07:50Z</time>
</trkpt>
<trkpt lat="48.87856668792665" lon="9.819586733356118">
<ele>502</ele>
<time>2024-05-07T10:07:51Z</time>
</trkpt>
<trkpt lat="48.878597198054194" lon="9.819546667858958">
<ele>502.2</ele>
<time>2024-05-07T10:07:52Z</time>
</trkpt>
<trkpt lat="48.8786315638572" lon="9.819508530199528">
<ele>502.4</ele>
<time>2024-05-07T10:07:53Z</time>
</trkpt>
<trkpt lat="48.87866584584117" lon="9.819470392540095">
<ele>502.6</ele>
<time>2024-05-07T10:07:54Z</time>
</trkpt>
<trkpt lat="48.878696439787745" lon="9.819430327042936">
<ele>502.6</ele>
<time>2024-05-07T10:07:55Z</time>
</trkpt>
<trkpt lat="48.87872694991529" lon="9.819388333708048">
<ele>502.8</ele>
<time>2024-05-07T10:07:56Z</time>
</trkpt>
<trkpt lat="48.87876123189926" lon="9.819351118057966">
<ele>502.8</ele>
<time>2024-05-07T10:07:57Z</time>
</trkpt>
<trkpt lat="48.878795597702265" lon="9.819316836073996">
<ele>502.8</ele>
<time>2024-05-07T10:07:58Z</time>
</trkpt>
<trkpt lat="48.87882987968624" lon="9.819281548261642">
<ele>503</ele>
<time>2024-05-07T10:07:59Z</time>
</trkpt>
<trkpt lat="48.8788681011647" lon="9.819250032305716">
<ele>503</ele>
<time>2024-05-07T10:08:00Z</time>
</trkpt>
<trkpt lat="48.87891001068056" lon="9.819219522178171">
<ele>503.2</ele>
<time>2024-05-07T10:08:01Z</time>
</trkpt>
<trkpt lat="48.87894814833999" lon="9.819199489429591">
<ele>503.4</ele>
<time>2024-05-07T10:08:02Z</time>
</trkpt>
<trkpt lat="48.8789939135313" lon="9.819183312356472">
<ele>503.4</ele>
<time>2024-05-07T10:08:03Z</time>
</trkpt>
<trkpt lat="48.87903590686619" lon="9.81916998513043">
<ele>503.6</ele>
<time>2024-05-07T10:08:04Z</time>
</trkpt>
<trkpt lat="48.87907790020108" lon="9.819160429760814">
<ele>503.6</ele>
<time>2024-05-07T10:08:05Z</time>
</trkpt>
<trkpt lat="48.87911980971694" lon="9.819151796400549">
<ele>503.6</ele>
<time>2024-05-07T10:08:06Z</time>
</trkpt>
<trkpt lat="48.87916180305183" lon="9.81914802454412">
<ele>503.6</ele>
<time>2024-05-07T10:08:07Z</time>
</trkpt>
<trkpt lat="48.879207568243146" lon="9.819147102534773">
<ele>503.6</ele>
<time>2024-05-07T10:08:08Z</time>
</trkpt>
<trkpt lat="48.87925333343446" lon="9.819147102534773">
<ele>503.6</ele>
<time>2024-05-07T10:08:09Z</time>
</trkpt>
<trkpt lat="48.87929532676935" lon="9.819143246859312">
<ele>503.6</ele>
<time>2024-05-07T10:08:10Z</time>
</trkpt>
<trkpt lat="48.87934109196067" lon="9.819138469174504">
<ele>503.4</ele>
<time>2024-05-07T10:08:11Z</time>
</trkpt>
<trkpt lat="48.87938308529556" lon="9.819134697318075">
<ele>503.4</ele>
<time>2024-05-07T10:08:12Z</time>
</trkpt>
<trkpt lat="48.879424994811416" lon="9.819133691489697">
<ele>503.4</ele>
<time>2024-05-07T10:08:13Z</time>
</trkpt>
<trkpt lat="48.87947076000273" lon="9.81912991963327">
<ele>503.4</ele>
<time>2024-05-07T10:08:14Z</time>
</trkpt>
<trkpt lat="48.87951275333762" lon="9.819127069786193">
<ele>503.4</ele>
<time>2024-05-07T10:08:15Z</time>
</trkpt>
<trkpt lat="48.87955851852894" lon="9.819121286273004">
<ele>503.4</ele>
<time>2024-05-07T10:08:16Z</time>
</trkpt>
<trkpt lat="48.87960051186383" lon="9.819116592407228">
<ele>503.4</ele>
<time>2024-05-07T10:08:17Z</time>
</trkpt>
<trkpt lat="48.879642421379685" lon="9.81910988688469">
<ele>503.4</ele>
<time>2024-05-07T10:08:18Z</time>
</trkpt>
<trkpt lat="48.879684414714575" lon="9.819103181362152">
<ele>503.4</ele>
<time>2024-05-07T10:08:19Z</time>
</trkpt>
<trkpt lat="48.87973017990589" lon="9.819096559658648">
<ele>503.6</ele>
<time>2024-05-07T10:08:20Z</time>
</trkpt>
<trkpt lat="48.87977217324078" lon="9.81908792629838">
<ele>503.6</ele>
<time>2024-05-07T10:08:21Z</time>
</trkpt>
<trkpt lat="48.8798179384321" lon="9.819080298766494">
<ele>503.6</ele>
<time>2024-05-07T10:08:22Z</time>
</trkpt>
<trkpt lat="48.879859847947955" lon="9.819074599072335">
<ele>503.8</ele>
<time>2024-05-07T10:08:23Z</time>
</trkpt>
<trkpt lat="48.879901841282845" lon="9.819066971540453">
<ele>503.8</ele>
<time>2024-05-07T10:08:24Z</time>
</trkpt>
<trkpt lat="48.87994760647416" lon="9.819058338180184">
<ele>503.8</ele>
<time>2024-05-07T10:08:25Z</time>
</trkpt>
<trkpt lat="48.87998959980905" lon="9.81904786080122">
<ele>504</ele>
<time>2024-05-07T10:08:26Z</time>
</trkpt>
<trkpt lat="48.88003150932491" lon="9.819040233269334">
<ele>504</ele>
<time>2024-05-07T10:08:27Z</time>
</trkpt>
<trkpt lat="48.8800735026598" lon="9.81902975589037">
<ele>504</ele>
<time>2024-05-07T10:08:28Z</time>
</trkpt>
<trkpt lat="48.880119267851114" lon="9.819018356502056">
<ele>504</ele>
<time>2024-05-07T10:08:29Z</time>
</trkpt>
<trkpt lat="48.880161261186" lon="9.819004945456982">
<ele>504</ele>
<time>2024-05-07T10:08:30Z</time>
</trkpt>
<trkpt lat="48.88020317070186" lon="9.818994468078015">
<ele>504</ele>
<time>2024-05-07T10:08:31Z</time>
</trkpt>
<trkpt lat="48.88024139218032" lon="9.818986840546131">
<ele>504</ele>
<time>2024-05-07T10:08:32Z</time>
</trkpt>
<trkpt lat="48.88028330169618" lon="9.818976363167168">
<ele>504</ele>
<time>2024-05-07T10:08:33Z</time>
</trkpt>
<trkpt lat="48.88032529503107" lon="9.81896965764463">
<ele>504</ele>
<time>2024-05-07T10:08:34Z</time>
</trkpt>
<trkpt lat="48.88037106022239" lon="9.818963035941124">
<ele>504</ele>
<time>2024-05-07T10:08:35Z</time>
</trkpt>
<trkpt lat="48.88042068108916" lon="9.818953480571508">
<ele>504</ele>
<time>2024-05-07T10:08:36Z</time>
</trkpt>
<trkpt lat="48.88046644628048" lon="9.818943003192544">
<ele>504</ele>
<time>2024-05-07T10:08:37Z</time>
</trkpt>
<trkpt lat="48.88051983900368" lon="9.818935375660658">
<ele>504.2</ele>
<time>2024-05-07T10:08:38Z</time>
</trkpt>
<trkpt lat="48.880569376051426" lon="9.818926742300391">
<ele>504.2</ele>
<time>2024-05-07T10:08:39Z</time>
</trkpt>
<trkpt lat="48.88062285259366" lon="9.818918192759156">
<ele>504.2</ele>
<time>2024-05-07T10:08:40Z</time>
</trkpt>
<trkpt lat="48.88067624531686" lon="9.81890964321792">
<ele>504.2</ele>
<time>2024-05-07T10:08:41Z</time>
</trkpt>
<trkpt lat="48.88072578236461" lon="9.818900087848306">
<ele>504.2</ele>
<time>2024-05-07T10:08:42Z</time>
</trkpt>
<trkpt lat="48.88077925890684" lon="9.81888860464096">
<ele>504</ele>
<time>2024-05-07T10:08:43Z</time>
</trkpt>
<trkpt lat="48.88083265163005" lon="9.818881982937455">
<ele>504</ele>
<time>2024-05-07T10:08:44Z</time>
</trkpt>
<trkpt lat="48.880889816209674" lon="9.818876199424269">
<ele>504</ele>
<time>2024-05-07T10:08:45Z</time>
</trkpt>
<trkpt lat="48.88094329275191" lon="9.818873349577188">
<ele>504</ele>
<time>2024-05-07T10:08:46Z</time>
</trkpt>
<trkpt lat="48.881004313007" lon="9.818876199424269">
<ele>504</ele>
<time>2024-05-07T10:08:47Z</time>
</trkpt>
<trkpt lat="48.88106147758663" lon="9.818873349577188">
<ele>504</ele>
<time>2024-05-07T10:08:48Z</time>
</trkpt>
<trkpt lat="48.88111495412886" lon="9.81886857189238">
<ele>504</ele>
<time>2024-05-07T10:08:49Z</time>
</trkpt>
<trkpt lat="48.88117211870849" lon="9.818864800035954">
<ele>504</ele>
<time>2024-05-07T10:08:50Z</time>
</trkpt>
<trkpt lat="48.88122173957527" lon="9.81887142173946">
<ele>504</ele>
<time>2024-05-07T10:08:51Z</time>
</trkpt>
<trkpt lat="48.88126750476658" lon="9.818884832784534">
<ele>503.8</ele>
<time>2024-05-07T10:08:52Z</time>
</trkpt>
<trkpt lat="48.881305642426014" lon="9.81890964321792">
<ele>503.8</ele>
<time>2024-05-07T10:08:53Z</time>
</trkpt>
<trkpt lat="48.88134000822902" lon="9.818943003192544">
<ele>503.6</ele>
<time>2024-05-07T10:08:54Z</time>
</trkpt>
<trkpt lat="48.88137429021299" lon="9.818973513320088">
<ele>503.4</ele>
<time>2024-05-07T10:08:55Z</time>
</trkpt>
<trkpt lat="48.88140480034053" lon="9.818986840546131">
<ele>503.2</ele>
<time>2024-05-07T10:08:56Z</time>
</trkpt>
<trkpt lat="48.88143916614354" lon="9.81899161823094">
<ele>502.8</ele>
<time>2024-05-07T10:08:57Z</time>
</trkpt>
<trkpt lat="48.88146967627108" lon="9.818986840546131">
<ele>502.6</ele>
<time>2024-05-07T10:08:58Z</time>
</trkpt>
<trkpt lat="48.88150404207408" lon="9.818975441157818">
<ele>502.4</ele>
<time>2024-05-07T10:08:59Z</time>
</trkpt>
<trkpt lat="48.881538324058056" lon="9.818960186094046">
<ele>502.2</ele>
<time>2024-05-07T10:09:00Z</time>
</trkpt>
<trkpt lat="48.881576461717486" lon="9.8189315199852">
<ele>502</ele>
<time>2024-05-07T10:09:01Z</time>
</trkpt>
<trkpt lat="48.881618455052376" lon="9.818906709551811">
<ele>501.8</ele>
<time>2024-05-07T10:09:02Z</time>
</trkpt>
<trkpt lat="48.881656592711806" lon="9.818882904946804">
<ele>501.6</ele>
<time>2024-05-07T10:09:03Z</time>
</trkpt>
<trkpt lat="48.88169473037124" lon="9.818860022351146">
<ele>501.6</ele>
<time>2024-05-07T10:09:04Z</time>
</trkpt>
<trkpt lat="48.88174049556255" lon="9.818839989602566">
<ele>501.4</ele>
<time>2024-05-07T10:09:05Z</time>
</trkpt>
<trkpt lat="48.88178248889744" lon="9.818817107006907">
<ele>501.2</ele>
<time>2024-05-07T10:09:06Z</time>
</trkpt>
<trkpt lat="48.88182825408876" lon="9.818788524717093">
<ele>501</ele>
<time>2024-05-07T10:09:07Z</time>
</trkpt>
<trkpt lat="48.88187024742365" lon="9.818759858608246">
<ele>500.8</ele>
<time>2024-05-07T10:09:08Z</time>
</trkpt>
<trkpt lat="48.881916012614965" lon="9.818731276318433">
<ele>500.8</ele>
<time>2024-05-07T10:09:09Z</time>
</trkpt>
<trkpt lat="48.88196177780628" lon="9.818699760362506">
<ele>500.6</ele>
<time>2024-05-07T10:09:10Z</time>
</trkpt>
<trkpt lat="48.88200377114117" lon="9.818664472550154">
<ele>500.6</ele>
<time>2024-05-07T10:09:11Z</time>
</trkpt>
<trkpt lat="48.88204953633249" lon="9.818632118403912">
<ele>500.4</ele>
<time>2024-05-07T10:09:12Z</time>
</trkpt>
<trkpt lat="48.882095301523805" lon="9.818599680438638">
<ele>500.4</ele>
<time>2024-05-07T10:09:13Z</time>
</trkpt>
<trkpt lat="48.88214492239058" lon="9.818561542779207">
<ele>500.2</ele>
<time>2024-05-07T10:09:14Z</time>
</trkpt>
<trkpt lat="48.88218683190644" lon="9.818521477282047">
<ele>500.2</ele>
<time>2024-05-07T10:09:15Z</time>
</trkpt>
<trkpt lat="48.882232597097754" lon="9.818479483947158">
<ele>500</ele>
<time>2024-05-07T10:09:16Z</time>
</trkpt>
<trkpt lat="48.88227836228907" lon="9.818440424278378">
<ele>499.8</ele>
<time>2024-05-07T10:09:17Z</time>
</trkpt>
<trkpt lat="48.882331838831306" lon="9.81839650310576">
<ele>499.6</ele>
<time>2024-05-07T10:09:18Z</time>
</trkpt>
<trkpt lat="48.88237760402262" lon="9.818351743742824">
<ele>499.4</ele>
<time>2024-05-07T10:09:19Z</time>
</trkpt>
<trkpt lat="48.882430996745825" lon="9.818304972723126">
<ele>499.2</ele>
<time>2024-05-07T10:09:20Z</time>
</trkpt>
<trkpt lat="48.8824806176126" lon="9.818262979388235">
<ele>499</ele>
<time>2024-05-07T10:09:21Z</time>
</trkpt>
<trkpt lat="48.88252252712846" lon="9.818226769566536">
<ele>498.8</ele>
<time>2024-05-07T10:09:22Z</time>
</trkpt>
<trkpt lat="48.88255689293146" lon="9.818196259438992">
<ele>498.4</ele>
<time>2024-05-07T10:09:23Z</time>
</trkpt>
<trkpt lat="48.882587403059006" lon="9.818166671320796">
<ele>498.2</ele>
<time>2024-05-07T10:09:24Z</time>
</trkpt>
<trkpt lat="48.88261791318655" lon="9.818135239183905">
<ele>498</ele>
<time>2024-05-07T10:09:25Z</time>
</trkpt>
<trkpt lat="48.882648423314095" lon="9.81810187920928">
<ele>497.8</ele>
<time>2024-05-07T10:09:26Z</time>
</trkpt>
<trkpt lat="48.8826827891171" lon="9.81805795803666">
<ele>497.8</ele>
<time>2024-05-07T10:09:27Z</time>
</trkpt>
<trkpt lat="48.88271329924464" lon="9.818011270835996">
<ele>497.6</ele>
<time>2024-05-07T10:09:28Z</time>
</trkpt>
<trkpt lat="48.88275143690407" lon="9.817968355491756">
<ele>497.4</ele>
<time>2024-05-07T10:09:29Z</time>
</trkpt>
<trkpt lat="48.88278571888805" lon="9.817928289994596">
<ele>497.4</ele>
<time>2024-05-07T10:09:30Z</time>
</trkpt>
<trkpt lat="48.88282394036651" lon="9.817888224497436">
<ele>497.2</ele>
<time>2024-05-07T10:09:31Z</time>
</trkpt>
<trkpt lat="48.88286584988237" lon="9.817854864522817">
<ele>497.2</ele>
<time>2024-05-07T10:09:32Z</time>
</trkpt>
<trkpt lat="48.88291161507368" lon="9.817828126251698">
<ele>497.2</ele>
<time>2024-05-07T10:09:33Z</time>
</trkpt>
<trkpt lat="48.88295360840857" lon="9.817801471799612">
<ele>497.2</ele>
<time>2024-05-07T10:09:34Z</time>
</trkpt>
<trkpt lat="48.88299937359989" lon="9.817773811519146">
<ele>497.2</ele>
<time>2024-05-07T10:09:35Z</time>
</trkpt>
<trkpt lat="48.883041366934776" lon="9.817741373553872">
<ele>497.2</ele>
<time>2024-05-07T10:09:36Z</time>
</trkpt>
<trkpt lat="48.883083276450634" lon="9.817707007750869">
<ele>497</ele>
<time>2024-05-07T10:09:37Z</time>
</trkpt>
<trkpt lat="48.883121414110065" lon="9.81766794808209">
<ele>497</ele>
<time>2024-05-07T10:09:38Z</time>
</trkpt>
<trkpt lat="48.88315963558853" lon="9.817634504288437">
<ele>496.8</ele>
<time>2024-05-07T10:09:39Z</time>
</trkpt>
<trkpt lat="48.88319777324796" lon="9.817596366629004">
<ele>496.8</ele>
<time>2024-05-07T10:09:40Z</time>
</trkpt>
<trkpt lat="48.88323591090739" lon="9.817560156807303">
<ele>496.6</ele>
<time>2024-05-07T10:09:41Z</time>
</trkpt>
<trkpt lat="48.883277820423245" lon="9.817522019147871">
<ele>496.6</ele>
<time>2024-05-07T10:09:42Z</time>
</trkpt>
<trkpt lat="48.88331595808267" lon="9.817482875660062">
<ele>496.6</ele>
<time>2024-05-07T10:09:43Z</time>
</trkpt>
<trkpt lat="48.88335417956114" lon="9.817451443523169">
<ele>496.6</ele>
<time>2024-05-07T10:09:44Z</time>
</trkpt>
<trkpt lat="48.88339231722057" lon="9.817419927567244">
<ele>496.6</ele>
<time>2024-05-07T10:09:45Z</time>
</trkpt>
<trkpt lat="48.88342659920454" lon="9.81739042326808">
<ele>496.8</ele>
<time>2024-05-07T10:09:46Z</time>
</trkpt>
<trkpt lat="48.88346473686397" lon="9.817357063293455">
<ele>496.8</ele>
<time>2024-05-07T10:09:47Z</time>
</trkpt>
<trkpt lat="48.88350295834243" lon="9.817324625328183">
<ele>497</ele>
<time>2024-05-07T10:09:48Z</time>
</trkpt>
<trkpt lat="48.88353346846998" lon="9.81728833168745">
<ele>497</ele>
<time>2024-05-07T10:09:49Z</time>
</trkpt>
<trkpt lat="48.88356775045395" lon="9.817253043875098">
<ele>497</ele>
<time>2024-05-07T10:09:50Z</time>
</trkpt>
<trkpt lat="48.88359826058149" lon="9.817221611738203">
<ele>497.2</ele>
<time>2024-05-07T10:09:51Z</time>
</trkpt>
<trkpt lat="48.8836326263845" lon="9.81719302944839">
<ele>497.4</ele>
<time>2024-05-07T10:09:52Z</time>
</trkpt>
<trkpt lat="48.8836669921875" lon="9.8171700630337">
<ele>497.6</ele>
<time>2024-05-07T10:09:53Z</time>
</trkpt>
<trkpt lat="48.88369750231504" lon="9.817145336419344">
<ele>497.6</ele>
<time>2024-05-07T10:09:54Z</time>
</trkpt>
<trkpt lat="48.88372801244259" lon="9.817118598148229">
<ele>497.8</ele>
<time>2024-05-07T10:09:55Z</time>
</trkpt>
<trkpt lat="48.88375852257013" lon="9.81709185987711">
<ele>498</ele>
<time>2024-05-07T10:09:56Z</time>
</trkpt>
<trkpt lat="48.883792804554105" lon="9.817060427740216">
<ele>498.2</ele>
<time>2024-05-07T10:09:57Z</time>
</trkpt>
<trkpt lat="48.88382331468165" lon="9.817023212090136">
<ele>498.2</ele>
<time>2024-05-07T10:09:58Z</time>
</trkpt>
<trkpt lat="48.88384628109634" lon="9.816981302574275">
<ele>498.4</ele>
<time>2024-05-07T10:09:59Z</time>
</trkpt>
<trkpt lat="48.883872935548425" lon="9.81693453155458">
<ele>498.6</ele>
<time>2024-05-07T10:10:00Z</time>
</trkpt>
<trkpt lat="48.88389581814408" lon="9.816884994506836">
<ele>498.8</ele>
<time>2024-05-07T10:10:01Z</time>
</trkpt>
<trkpt lat="48.883914928883314" lon="9.816833445802333">
<ele>499</ele>
<time>2024-05-07T10:10:02Z</time>
</trkpt>
<trkpt lat="48.883930183947086" lon="9.8167781252414">
<ele>499</ele>
<time>2024-05-07T10:10:03Z</time>
</trkpt>
<trkpt lat="48.8839415833354" lon="9.81671802699566">
<ele>499.2</ele>
<time>2024-05-07T10:10:04Z</time>
</trkpt>
<trkpt lat="48.883953066542745" lon="9.81665801256895">
<ele>499.4</ele>
<time>2024-05-07T10:10:05Z</time>
</trkpt>
<trkpt lat="48.88395683839917" lon="9.81659690849483">
<ele>499.6</ele>
<time>2024-05-07T10:10:06Z</time>
</trkpt>
<trkpt lat="48.883953066542745" lon="9.816534966230392">
<ele>499.8</ele>
<time>2024-05-07T10:10:07Z</time>
</trkpt>
<trkpt lat="48.88394543901086" lon="9.816472940146925">
<ele>500</ele>
<time>2024-05-07T10:10:08Z</time>
</trkpt>
<trkpt lat="48.8839415833354" lon="9.816412925720217">
<ele>500.2</ele>
<time>2024-05-07T10:10:09Z</time>
</trkpt>
<trkpt lat="48.88393395580351" lon="9.816354671493173">
<ele>500.4</ele>
<time>2024-05-07T10:10:10Z</time>
</trkpt>
<trkpt lat="48.88392632827163" lon="9.816294657066464">
<ele>500.6</ele>
<time>2024-05-07T10:10:11Z</time>
</trkpt>
<trkpt lat="48.88391870073974" lon="9.816229781135917">
<ele>500.8</ele>
<time>2024-05-07T10:10:12Z</time>
</trkpt>
<trkpt lat="48.883911073207855" lon="9.816166833043098">
<ele>500.8</ele>
<time>2024-05-07T10:10:13Z</time>
</trkpt>
<trkpt lat="48.88389967381954" lon="9.81610673479736">
<ele>501</ele>
<time>2024-05-07T10:10:14Z</time>
</trkpt>
<trkpt lat="48.8838881906122" lon="9.816042864695191">
<ele>501.2</ele>
<time>2024-05-07T10:10:15Z</time>
</trkpt>
<trkpt lat="48.88388056308031" lon="9.815975138917564">
<ele>501.2</ele>
<time>2024-05-07T10:10:16Z</time>
</trkpt>
<trkpt lat="48.883872935548425" lon="9.815910262987018">
<ele>501.2</ele>
<time>2024-05-07T10:10:17Z</time>
</trkpt>
<trkpt lat="48.883869163692" lon="9.815841615200045">
<ele>501.2</ele>
<time>2024-05-07T10:10:18Z</time>
</trkpt>
<trkpt lat="48.883872935548425" lon="9.815776823088529">
<ele>501.2</ele>
<time>2024-05-07T10:10:19Z</time>
</trkpt>
<trkpt lat="48.88388056308031" lon="9.815714797005056">
<ele>501.2</ele>
<time>2024-05-07T10:10:20Z</time>
</trkpt>
<trkpt lat="48.883892046287656" lon="9.815658554434776">
<ele>501</ele>
<time>2024-05-07T10:10:21Z</time>
</trkpt>
<trkpt lat="48.88389967381954" lon="9.815600384026766">
<ele>501</ele>
<time>2024-05-07T10:10:22Z</time>
</trkpt>
<trkpt lat="48.88390730135143" lon="9.815541207790377">
<ele>500.8</ele>
<time>2024-05-07T10:10:23Z</time>
</trkpt>
<trkpt lat="48.88391870073974" lon="9.815483037382364">
<ele>500.8</ele>
<time>2024-05-07T10:10:24Z</time>
</trkpt>
<trkpt lat="48.8839415833354" lon="9.815428722649813">
<ele>500.8</ele>
<time>2024-05-07T10:10:25Z</time>
</trkpt>
<trkpt lat="48.883972093462944" lon="9.81539343483746">
<ele>500.8</ele>
<time>2024-05-07T10:10:26Z</time>
</trkpt>
<trkpt lat="48.88400645926595" lon="9.815369546413422">
<ele>500.6</ele>
<time>2024-05-07T10:10:27Z</time>
</trkpt>
<trkpt lat="48.88403696939349" lon="9.815346663817763">
<ele>500.6</ele>
<time>2024-05-07T10:10:28Z</time>
</trkpt>
<trkpt lat="48.884071335196495" lon="9.815318081527948">
<ele>500.8</ele>
<time>2024-05-07T10:10:29Z</time>
</trkpt>
<trkpt lat="48.88410184532404" lon="9.81529327109456">
<ele>500.8</ele>
<time>2024-05-07T10:10:30Z</time>
</trkpt>
<trkpt lat="48.88413612730801" lon="9.815283715724943">
<ele>500.8</ele>
<time>2024-05-07T10:10:31Z</time>
</trkpt>
<trkpt lat="48.884170493111014" lon="9.815271310508251">
<ele>500.8</ele>
<time>2024-05-07T10:10:32Z</time>
</trkpt>
<trkpt lat="48.88420485891402" lon="9.815259911119938">
<ele>500.8</ele>
<time>2024-05-07T10:10:33Z</time>
</trkpt>
<trkpt lat="48.88424299657345" lon="9.815243650227783">
<ele>500.8</ele>
<time>2024-05-07T10:10:34Z</time>
</trkpt>
<trkpt lat="48.88427350670099" lon="9.815221773460507">
<ele>500.8</ele>
<time>2024-05-07T10:10:35Z</time>
</trkpt>
<trkpt lat="48.88430401682854" lon="9.815197885036469">
<ele>500.8</ele>
<time>2024-05-07T10:10:36Z</time>
</trkpt>
<trkpt lat="48.88433452695608" lon="9.815179780125618">
<ele>501</ele>
<time>2024-05-07T10:10:37Z</time>
</trkpt>
<trkpt lat="48.884368892759085" lon="9.815157819539309">
<ele>501</ele>
<time>2024-05-07T10:10:38Z</time>
</trkpt>
<trkpt lat="48.884403174743056" lon="9.815141642466187">
<ele>501.2</ele>
<time>2024-05-07T10:10:39Z</time>
</trkpt>
<trkpt lat="48.88444131240249" lon="9.815128315240145">
<ele>501.4</ele>
<time>2024-05-07T10:10:40Z</time>
</trkpt>
<trkpt lat="48.88447567820549" lon="9.81511875987053">
<ele>501.6</ele>
<time>2024-05-07T10:10:41Z</time>
</trkpt>
<trkpt lat="48.88451381586492" lon="9.815103504806755">
<ele>501.6</ele>
<time>2024-05-07T10:10:42Z</time>
</trkpt>
<trkpt lat="48.88455195352435" lon="9.815088249742985">
<ele>501.8</ele>
<time>2024-05-07T10:10:43Z</time>
</trkpt>
<trkpt lat="48.88459009118378" lon="9.815071988850832">
<ele>502</ele>
<time>2024-05-07T10:10:44Z</time>
</trkpt>
<trkpt lat="48.88463208451867" lon="9.815054889768362">
<ele>502.2</ele>
<time>2024-05-07T10:10:45Z</time>
</trkpt>
<trkpt lat="48.88467399403453" lon="9.81503963470459">
<ele>502.4</ele>
<time>2024-05-07T10:10:46Z</time>
</trkpt>
<trkpt lat="48.88471221551299" lon="9.815026223659515">
<ele>502.6</ele>
<time>2024-05-07T10:10:47Z</time>
</trkpt>
<trkpt lat="48.88475412502885" lon="9.815010046586394">
<ele>502.8</ele>
<time>2024-05-07T10:10:48Z</time>
</trkpt>
<trkpt lat="48.88479226268828" lon="9.814990013837814">
<ele>502.8</ele>
<time>2024-05-07T10:10:49Z</time>
</trkpt>
<trkpt lat="48.88483040034771" lon="9.814966125413775">
<ele>503</ele>
<time>2024-05-07T10:10:50Z</time>
</trkpt>
<trkpt lat="48.88486476615071" lon="9.81493947096169">
<ele>503</ele>
<time>2024-05-07T10:10:51Z</time>
</trkpt>
<trkpt lat="48.88490290381014" lon="9.814914660528302">
<ele>503</ele>
<time>2024-05-07T10:10:52Z</time>
</trkpt>
<trkpt lat="48.88493726961315" lon="9.814887922257183">
<ele>503.2</ele>
<time>2024-05-07T10:10:53Z</time>
</trkpt>
<trkpt lat="48.88497540727258" lon="9.8148612678051">
<ele>503.2</ele>
<time>2024-05-07T10:10:54Z</time>
</trkpt>
<trkpt lat="48.88500968925655" lon="9.814831679686904">
<ele>503.2</ele>
<time>2024-05-07T10:10:55Z</time>
</trkpt>
<trkpt lat="48.88504791073501" lon="9.814802091568708">
<ele>503.2</ele>
<time>2024-05-07T10:10:56Z</time>
</trkpt>
<trkpt lat="48.88507842086256" lon="9.814773509278892">
<ele>503.2</ele>
<time>2024-05-07T10:10:57Z</time>
</trkpt>
<trkpt lat="48.88511270284653" lon="9.814749704673886">
<ele>503.2</ele>
<time>2024-05-07T10:10:58Z</time>
</trkpt>
<trkpt lat="48.88515084050596" lon="9.814728666096926">
<ele>503</ele>
<time>2024-05-07T10:10:59Z</time>
</trkpt>
<trkpt lat="48.88518520630896" lon="9.814706789329648">
<ele>503</ele>
<time>2024-05-07T10:11:00Z</time>
</trkpt>
<trkpt lat="48.88522334396839" lon="9.814689606428146">
<ele>503.2</ele>
<time>2024-05-07T10:11:01Z</time>
</trkpt>
<trkpt lat="48.885257709771395" lon="9.814669573679566">
<ele>503.2</ele>
<time>2024-05-07T10:11:02Z</time>
</trkpt>
<trkpt lat="48.885291991755366" lon="9.814646691083908">
<ele>503.2</ele>
<time>2024-05-07T10:11:03Z</time>
</trkpt>
<trkpt lat="48.8853301294148" lon="9.8146247304976">
<ele>503.4</ele>
<time>2024-05-07T10:11:04Z</time>
</trkpt>
<trkpt lat="48.8853644952178" lon="9.814599920064213">
<ele>503.4</ele>
<time>2024-05-07T10:11:05Z</time>
</trkpt>
<trkpt lat="48.8853988610208" lon="9.814571337774396">
<ele>503.6</ele>
<time>2024-05-07T10:11:06Z</time>
</trkpt>
<trkpt lat="48.88544077053666" lon="9.81454367749393">
<ele>503.6</ele>
<time>2024-05-07T10:11:07Z</time>
</trkpt>
<trkpt lat="48.885475136339664" lon="9.814515095204117">
<ele>503.6</ele>
<time>2024-05-07T10:11:08Z</time>
</trkpt>
<trkpt lat="48.885513273999095" lon="9.814488356932998">
<ele>503.6</ele>
<time>2024-05-07T10:11:09Z</time>
</trkpt>
<trkpt lat="48.88554755598307" lon="9.814456924796104">
<ele>503.8</ele>
<time>2024-05-07T10:11:10Z</time>
</trkpt>
<trkpt lat="48.88558192178607" lon="9.81442641466856">
<ele>503.8</ele>
<time>2024-05-07T10:11:11Z</time>
</trkpt>
<trkpt lat="48.8856200594455" lon="9.814401604235172">
<ele>504</ele>
<time>2024-05-07T10:11:12Z</time>
</trkpt>
<trkpt lat="48.88565819710493" lon="9.814372016116977">
<ele>504</ele>
<time>2024-05-07T10:11:13Z</time>
</trkpt>
<trkpt lat="48.88569633476436" lon="9.81434527784586">
<ele>504.2</ele>
<time>2024-05-07T10:11:14Z</time>
</trkpt>
<trkpt lat="48.885730700567365" lon="9.814318623393774">
<ele>504.2</ele>
<time>2024-05-07T10:11:15Z</time>
</trkpt>
<trkpt lat="48.88576506637037" lon="9.8142861854285">
<ele>504.4</ele>
<time>2024-05-07T10:11:16Z</time>
</trkpt>
<trkpt lat="48.885806975886226" lon="9.814254753291609">
<ele>504.4</ele>
<time>2024-05-07T10:11:17Z</time>
</trkpt>
<trkpt lat="48.885845113545656" lon="9.814223237335682">
<ele>504.4</ele>
<time>2024-05-07T10:11:18Z</time>
</trkpt>
<trkpt lat="48.88587947934866" lon="9.81418987736106">
<ele>504.4</ele>
<time>2024-05-07T10:11:19Z</time>
</trkpt>
<trkpt lat="48.88591384515166" lon="9.814153667539358">
<ele>504.4</ele>
<time>2024-05-07T10:11:20Z</time>
</trkpt>
<trkpt lat="48.885948127135634" lon="9.814113602042198">
<ele>504.2</ele>
<time>2024-05-07T10:11:21Z</time>
</trkpt>
<trkpt lat="48.88598249293864" lon="9.814071608707309">
<ele>504.2</ele>
<time>2024-05-07T10:11:22Z</time>
</trkpt>
<trkpt lat="48.88601677492261" lon="9.81402676552534">
<ele>504.2</ele>
<time>2024-05-07T10:11:23Z</time>
</trkpt>
<trkpt lat="48.886047285050154" lon="9.813978150486946">
<ele>504.2</ele>
<time>2024-05-07T10:11:24Z</time>
</trkpt>
<trkpt lat="48.88607787899673" lon="9.81393146328628">
<ele>504.4</ele>
<time>2024-05-07T10:11:25Z</time>
</trkpt>
<trkpt lat="48.88610076159239" lon="9.813879914581776">
<ele>504.4</ele>
<time>2024-05-07T10:11:26Z</time>
</trkpt>
<trkpt lat="48.88612364418805" lon="9.813824594020844">
<ele>504.4</ele>
<time>2024-05-07T10:11:27Z</time>
</trkpt>
<trkpt lat="48.886142671108246" lon="9.813766423612831">
<ele>504.4</ele>
<time>2024-05-07T10:11:28Z</time>
</trkpt>
<trkpt lat="48.88616178184748" lon="9.813710181042552">
<ele>504.4</ele>
<time>2024-05-07T10:11:29Z</time>
</trkpt>
<trkpt lat="48.88618080876768" lon="9.813652010634542">
<ele>504.6</ele>
<time>2024-05-07T10:11:30Z</time>
</trkpt>
<trkpt lat="48.88619991950691" lon="9.813591912388802">
<ele>504.6</ele>
<time>2024-05-07T10:11:31Z</time>
</trkpt>
<trkpt lat="48.88621517457068" lon="9.813531814143062">
<ele>504.6</ele>
<time>2024-05-07T10:11:32Z</time>
</trkpt>
<trkpt lat="48.88623420149088" lon="9.813471715897322">
<ele>504.8</ele>
<time>2024-05-07T10:11:33Z</time>
</trkpt>
<trkpt lat="48.88625331223011" lon="9.813409773632884">
<ele>504.8</ele>
<time>2024-05-07T10:11:34Z</time>
</trkpt>
<trkpt lat="48.88626856729388" lon="9.813348753377795">
<ele>505</ele>
<time>2024-05-07T10:11:35Z</time>
</trkpt>
<trkpt lat="48.88628767803311" lon="9.813286727294326">
<ele>505</ele>
<time>2024-05-07T10:11:36Z</time>
</trkpt>
<trkpt lat="48.88630670495331" lon="9.813226629048586">
<ele>505</ele>
<time>2024-05-07T10:11:37Z</time>
</trkpt>
<trkpt lat="48.886321960017085" lon="9.813164686784148">
<ele>505</ele>
<time>2024-05-07T10:11:38Z</time>
</trkpt>
<trkpt lat="48.88633721508086" lon="9.81310366652906">
<ele>505.2</ele>
<time>2024-05-07T10:11:39Z</time>
</trkpt>
<trkpt lat="48.88635247014463" lon="9.81304356828332">
<ele>505.2</ele>
<time>2024-05-07T10:11:40Z</time>
</trkpt>
<trkpt lat="48.8863677252084" lon="9.81298154219985">
<ele>505.2</ele>
<time>2024-05-07T10:11:41Z</time>
</trkpt>
<trkpt lat="48.88638683594763" lon="9.81292144395411">
<ele>505.2</ele>
<time>2024-05-07T10:11:42Z</time>
</trkpt>
<trkpt lat="48.886398235335946" lon="9.812861429527402">
<ele>505.2</ele>
<time>2024-05-07T10:11:43Z</time>
</trkpt>
<trkpt lat="48.88641357421875" lon="9.812798481434584">
<ele>505.2</ele>
<time>2024-05-07T10:11:44Z</time>
</trkpt>
<trkpt lat="48.88642497360706" lon="9.812738383188844">
<ele>505.2</ele>
<time>2024-05-07T10:11:45Z</time>
</trkpt>
<trkpt lat="48.886440228670835" lon="9.812678284943104">
<ele>505.2</ele>
<time>2024-05-07T10:11:46Z</time>
</trkpt>
<trkpt lat="48.88645548373461" lon="9.812618186697364">
<ele>505.2</ele>
<time>2024-05-07T10:11:47Z</time>
</trkpt>
<trkpt lat="48.88647073879838" lon="9.812558172270656">
<ele>505.2</ele>
<time>2024-05-07T10:11:48Z</time>
</trkpt>
<trkpt lat="48.88648599386215" lon="9.812498074024916">
<ele>505.2</ele>
<time>2024-05-07T10:11:49Z</time>
</trkpt>
<trkpt lat="48.88650124892592" lon="9.812437975779176">
<ele>505.2</ele>
<time>2024-05-07T10:11:50Z</time>
</trkpt>
<trkpt lat="48.88651273213327" lon="9.812376955524089">
<ele>505.2</ele>
<time>2024-05-07T10:11:51Z</time>
</trkpt>
<trkpt lat="48.88652413152158" lon="9.812316857278349">
<ele>505.2</ele>
<time>2024-05-07T10:11:52Z</time>
</trkpt>
<trkpt lat="48.886539386585355" lon="9.812259608879684">
<ele>505.2</ele>
<time>2024-05-07T10:11:53Z</time>
</trkpt>
<trkpt lat="48.886558497324586" lon="9.812199510633944">
<ele>505.4</ele>
<time>2024-05-07T10:11:54Z</time>
</trkpt>
<trkpt lat="48.8865698967129" lon="9.812139496207235">
<ele>505.6</ele>
<time>2024-05-07T10:11:55Z</time>
</trkpt>
<trkpt lat="48.8865852355957" lon="9.812080319970846">
<ele>505.6</ele>
<time>2024-05-07T10:11:56Z</time>
</trkpt>
<trkpt lat="48.8866042625159" lon="9.812021227553489">
<ele>505.6</ele>
<time>2024-05-07T10:11:57Z</time>
</trkpt>
<trkpt lat="48.886619517579675" lon="9.811964984983206">
<ele>505.6</ele>
<time>2024-05-07T10:11:58Z</time>
</trkpt>
<trkpt lat="48.88663477264345" lon="9.811911508440971">
<ele>505.6</ele>
<time>2024-05-07T10:11:59Z</time>
</trkpt>
<trkpt lat="48.88665002770722" lon="9.811858115717769">
<ele>505.6</ele>
<time>2024-05-07T10:12:00Z</time>
</trkpt>
<trkpt lat="48.88666151091456" lon="9.811799945309758">
<ele>505.6</ele>
<time>2024-05-07T10:12:01Z</time>
</trkpt>
<trkpt lat="48.886676765978336" lon="9.811743702739475">
<ele>505.6</ele>
<time>2024-05-07T10:12:02Z</time>
</trkpt>
<trkpt lat="48.88669202104211" lon="9.811683604493735">
<ele>505.6</ele>
<time>2024-05-07T10:12:03Z</time>
</trkpt>
<trkpt lat="48.88670727610588" lon="9.811624512076378">
<ele>505.6</ele>
<time>2024-05-07T10:12:04Z</time>
</trkpt>
<trkpt lat="48.88672253116965" lon="9.811566341668367">
<ele>505.6</ele>
<time>2024-05-07T10:12:05Z</time>
</trkpt>
<trkpt lat="48.886737786233425" lon="9.811508171260355">
<ele>505.6</ele>
<time>2024-05-07T10:12:06Z</time>
</trkpt>
<trkpt lat="48.8867530412972" lon="9.811450000852346">
<ele>505.6</ele>
<time>2024-05-07T10:12:07Z</time>
</trkpt>
<trkpt lat="48.88676829636097" lon="9.811389902606606">
<ele>505.6</ele>
<time>2024-05-07T10:12:08Z</time>
</trkpt>
<trkpt lat="48.886779779568315" lon="9.811327876523135">
<ele>505.6</ele>
<time>2024-05-07T10:12:09Z</time>
</trkpt>
<trkpt lat="48.88679503463209" lon="9.811269706115128">
<ele>505.6</ele>
<time>2024-05-07T10:12:10Z</time>
</trkpt>
<trkpt lat="48.8868064340204" lon="9.811208685860038">
<ele>505.6</ele>
<time>2024-05-07T10:12:11Z</time>
</trkpt>
<trkpt lat="48.88682168908417" lon="9.811148587614298">
<ele>505.6</ele>
<time>2024-05-07T10:12:12Z</time>
</trkpt>
<trkpt lat="48.886836944147944" lon="9.811088489368558">
<ele>505.6</ele>
<time>2024-05-07T10:12:13Z</time>
</trkpt>
<trkpt lat="48.88685219921172" lon="9.811030318960547">
<ele>505.4</ele>
<time>2024-05-07T10:12:14Z</time>
</trkpt>
<trkpt lat="48.88687130995095" lon="9.810971226543188">
<ele>505.4</ele>
<time>2024-05-07T10:12:15Z</time>
</trkpt>
<trkpt lat="48.88688656501472" lon="9.8109102062881">
<ele>505.4</ele>
<time>2024-05-07T10:12:16Z</time>
</trkpt>
<trkpt lat="48.88689796440303" lon="9.810852035880089">
<ele>505.4</ele>
<time>2024-05-07T10:12:17Z</time>
</trkpt>
<trkpt lat="48.88690944761038" lon="9.810794787481427">
<ele>505.4</ele>
<time>2024-05-07T10:12:18Z</time>
</trkpt>
<trkpt lat="48.88692470267415" lon="9.810734689235687">
<ele>505.4</ele>
<time>2024-05-07T10:12:19Z</time>
</trkpt>
<trkpt lat="48.88693995773792" lon="9.810678446665406">
<ele>505.4</ele>
<time>2024-05-07T10:12:20Z</time>
</trkpt>
<trkpt lat="48.886955212801695" lon="9.810623126104474">
<ele>505.4</ele>
<time>2024-05-07T10:12:21Z</time>
</trkpt>
<trkpt lat="48.88697046786547" lon="9.810566883534191">
<ele>505.4</ele>
<time>2024-05-07T10:12:22Z</time>
</trkpt>
<trkpt lat="48.8869895786047" lon="9.810509635135531">
<ele>505.4</ele>
<time>2024-05-07T10:12:23Z</time>
</trkpt>
<trkpt lat="48.8870086055249" lon="9.81045339256525">
<ele>505.4</ele>
<time>2024-05-07T10:12:24Z</time>
</trkpt>
<trkpt lat="48.88703148812056" lon="9.810398072004318">
<ele>505.4</ele>
<time>2024-05-07T10:12:25Z</time>
</trkpt>
<trkpt lat="48.887054370716214" lon="9.810344679281116">
<ele>505.4</ele>
<time>2024-05-07T10:12:26Z</time>
</trkpt>
<trkpt lat="48.88707725331187" lon="9.81029505841434">
<ele>505.4</ele>
<time>2024-05-07T10:12:27Z</time>
</trkpt>
<trkpt lat="48.88710399158299" lon="9.810246443375943">
<ele>505.4</ele>
<time>2024-05-07T10:12:28Z</time>
</trkpt>
<trkpt lat="48.88713072985411" lon="9.810199672356248">
<ele>505.4</ele>
<time>2024-05-07T10:12:29Z</time>
</trkpt>
<trkpt lat="48.88716501183808" lon="9.810154912993312">
<ele>505.4</ele>
<time>2024-05-07T10:12:30Z</time>
</trkpt>
<trkpt lat="48.88719937764108" lon="9.810111997649074">
<ele>505.4</ele>
<time>2024-05-07T10:12:31Z</time>
</trkpt>
<trkpt lat="48.88723751530051" lon="9.810063298791649">
<ele>505.4</ele>
<time>2024-05-07T10:12:32Z</time>
</trkpt>
<trkpt lat="48.88727188110352" lon="9.81001661159098">
<ele>505.4</ele>
<time>2024-05-07T10:12:33Z</time>
</trkpt>
<trkpt lat="48.88731379061937" lon="9.809971768409014">
<ele>505.4</ele>
<time>2024-05-07T10:12:34Z</time>
</trkpt>
<trkpt lat="48.8873519282788" lon="9.809926925227046">
<ele>505.4</ele>
<time>2024-05-07T10:12:35Z</time>
</trkpt>
<trkpt lat="48.88739392161369" lon="9.80988023802638">
<ele>505.4</ele>
<time>2024-05-07T10:12:36Z</time>
</trkpt>
<trkpt lat="48.88743968680501" lon="9.809829695150256">
<ele>505.2</ele>
<time>2024-05-07T10:12:37Z</time>
</trkpt>
<trkpt lat="48.8874816801399" lon="9.809776302427052">
<ele>505.2</ele>
<time>2024-05-07T10:12:38Z</time>
</trkpt>
<trkpt lat="48.887527445331216" lon="9.809724753722548">
<ele>505</ele>
<time>2024-05-07T10:12:39Z</time>
</trkpt>
<trkpt lat="48.88757321052253" lon="9.809671360999346">
<ele>505</ele>
<time>2024-05-07T10:12:40Z</time>
</trkpt>
<trkpt lat="48.88761897571385" lon="9.809615118429065">
<ele>504.8</ele>
<time>2024-05-07T10:12:41Z</time>
</trkpt>
<trkpt lat="48.887664740905166" lon="9.809559797868133">
<ele>504.8</ele>
<time>2024-05-07T10:12:42Z</time>
</trkpt>
<trkpt lat="48.88771436177194" lon="9.80950539931655">
<ele>504.6</ele>
<time>2024-05-07T10:12:43Z</time>
</trkpt>
<trkpt lat="48.88776012696326" lon="9.809450078755615">
<ele>504.4</ele>
<time>2024-05-07T10:12:44Z</time>
</trkpt>
<trkpt lat="48.88780212029815" lon="9.809398613870144">
<ele>504.2</ele>
<time>2024-05-07T10:12:45Z</time>
</trkpt>
<trkpt lat="48.887844029814005" lon="9.809341365471482">
<ele>504</ele>
<time>2024-05-07T10:12:46Z</time>
</trkpt>
<trkpt lat="48.887882167473435" lon="9.809278417378664">
<ele>503.8</ele>
<time>2024-05-07T10:12:47Z</time>
</trkpt>
<trkpt lat="48.887920305132866" lon="9.809213625267148">
<ele>503.6</ele>
<time>2024-05-07T10:12:48Z</time>
</trkpt>
<trkpt lat="48.88795081526041" lon="9.809138271957636">
<ele>503.2</ele>
<time>2024-05-07T10:12:49Z</time>
</trkpt>
<trkpt lat="48.887981409206986" lon="9.809058140963316">
<ele>503</ele>
<time>2024-05-07T10:12:50Z</time>
</trkpt>
<trkpt lat="48.88800806365907" lon="9.80897138826549">
<ele>502.6</ele>
<time>2024-05-07T10:12:51Z</time>
</trkpt>
<trkpt lat="48.88803094625473" lon="9.808877930045128">
<ele>502.2</ele>
<time>2024-05-07T10:12:52Z</time>
</trkpt>
<trkpt lat="48.888042429462075" lon="9.808786315843465">
<ele>502</ele>
<time>2024-05-07T10:12:53Z</time>
</trkpt>
<trkpt lat="48.88805005699396" lon="9.808686235919597">
<ele>501.6</ele>
<time>2024-05-07T10:12:54Z</time>
</trkpt>
<trkpt lat="48.88805005699396" lon="9.808583222329617">
<ele>501.2</ele>
<time>2024-05-07T10:12:55Z</time>
</trkpt>
<trkpt lat="48.88805005699396" lon="9.80848121456802">
<ele>500.8</ele>
<time>2024-05-07T10:12:56Z</time>
</trkpt>
<trkpt lat="48.88805005699396" lon="9.808376273140311">
<ele>500.4</ele>
<time>2024-05-07T10:12:57Z</time>
</trkpt>
<trkpt lat="48.88805005699396" lon="9.808268481865523">
<ele>500</ele>
<time>2024-05-07T10:12:58Z</time>
</trkpt>
<trkpt lat="48.88805382885039" lon="9.808153146877885">
<ele>499.6</ele>
<time>2024-05-07T10:12:59Z</time>
</trkpt>
<trkpt lat="48.88805768452585" lon="9.808034878224134">
<ele>499.2</ele>
<time>2024-05-07T10:13:00Z</time>
</trkpt>
<trkpt lat="48.88805768452585" lon="9.807916609570384">
<ele>498.8</ele>
<time>2024-05-07T10:13:01Z</time>
</trkpt>
<trkpt lat="48.88805768452585" lon="9.807801190763712">
<ele>498.4</ele>
<time>2024-05-07T10:13:02Z</time>
</trkpt>
<trkpt lat="48.888061456382275" lon="9.80768677778542">
<ele>497.8</ele>
<time>2024-05-07T10:13:03Z</time>
</trkpt>
<trkpt lat="48.888061456382275" lon="9.80756943114102">
<ele>497.2</ele>
<time>2024-05-07T10:13:04Z</time>
</trkpt>
<trkpt lat="48.88806531205773" lon="9.8074512463063">
<ele>496.2</ele>
<time>2024-05-07T10:13:05Z</time>
</trkpt>
<trkpt lat="48.88806908391416" lon="9.80733297765255">
<ele>495.4</ele>
<time>2024-05-07T10:13:06Z</time>
</trkpt>
<trkpt lat="48.88807293958962" lon="9.807203225791454">
<ele>494.6</ele>
<time>2024-05-07T10:13:07Z</time>
</trkpt>
<trkpt lat="48.888080567121506" lon="9.807065008208156">
<ele>493.8</ele>
<time>2024-05-07T10:13:08Z</time>
</trkpt>
<trkpt lat="48.888099594041705" lon="9.806921929121016">
<ele>492.8</ele>
<time>2024-05-07T10:13:09Z</time>
</trkpt>
<trkpt lat="48.888141587376595" lon="9.806813215836884">
<ele>492</ele>
<time>2024-05-07T10:13:10Z</time>
</trkpt>
<trkpt lat="48.888160698115826" lon="9.806690169498324">
<ele>491</ele>
<time>2024-05-07T10:13:11Z</time>
</trkpt>
<trkpt lat="48.88815307058394" lon="9.806534685194492">
<ele>490</ele>
<time>2024-05-07T10:13:12Z</time>
</trkpt>
<trkpt lat="48.88814544305205" lon="9.806375429034231">
<ele>489</ele>
<time>2024-05-07T10:13:13Z</time>
</trkpt>
<trkpt lat="48.88815307058394" lon="9.806199995800853">
<ele>488.2</ele>
<time>2024-05-07T10:13:14Z</time>
</trkpt>
<trkpt lat="48.88814921490848" lon="9.806061694398522">
<ele>487</ele>
<time>2024-05-07T10:13:15Z</time>
</trkpt>
<trkpt lat="48.88814921490848" lon="9.80593009851873">
<ele>485.8</ele>
<time>2024-05-07T10:13:16Z</time>
</trkpt>
<trkpt lat="48.88817209750414" lon="9.8057917971164">
<ele>484.6</ele>
<time>2024-05-07T10:13:17Z</time>
</trkpt>
<trkpt lat="48.88818735256791" lon="9.805666906759145">
<ele>483.4</ele>
<time>2024-05-07T10:13:18Z</time>
</trkpt>
<trkpt lat="48.88820646330714" lon="9.805520055815578">
<ele>482.2</ele>
<time>2024-05-07T10:13:19Z</time>
</trkpt>
<trkpt lat="48.88822549022734" lon="9.805364571511744">
<ele>481</ele>
<time>2024-05-07T10:13:20Z</time>
</trkpt>
<trkpt lat="48.88824460096657" lon="9.80521964840591">
<ele>479.6</ele>
<time>2024-05-07T10:13:21Z</time>
</trkpt>
<trkpt lat="48.888282738626" lon="9.805067935958505">
<ele>478.4</ele>
<time>2024-05-07T10:13:22Z</time>
</trkpt>
<trkpt lat="48.88831710442901" lon="9.804913457483051">
<ele>477</ele>
<time>2024-05-07T10:13:23Z</time>
</trkpt>
<trkpt lat="48.888359013944864" lon="9.80475990101695">
<ele>475.8</ele>
<time>2024-05-07T10:13:24Z</time>
</trkpt>
<trkpt lat="48.88840477913618" lon="9.80460642836988">
<ele>474.4</ele>
<time>2024-05-07T10:13:25Z</time>
</trkpt>
<trkpt lat="48.88846202753484" lon="9.804443316534162">
<ele>473</ele>
<time>2024-05-07T10:13:26Z</time>
</trkpt>
<trkpt lat="48.88850402086973" lon="9.804298393428326">
<ele>471.4</ele>
<time>2024-05-07T10:13:27Z</time>
</trkpt>
<trkpt lat="48.8885383028537" lon="9.804156236350536">
<ele>470.2</ele>
<time>2024-05-07T10:13:28Z</time>
</trkpt>
<trkpt lat="48.88858792372048" lon="9.804021790623665">
<ele>468.8</ele>
<time>2024-05-07T10:13:29Z</time>
</trkpt>
<trkpt lat="48.88863368891179" lon="9.803896900266407">
<ele>467.6</ele>
<time>2024-05-07T10:13:30Z</time>
</trkpt>
<trkpt lat="48.888687081635" lon="9.80377863161266">
<ele>466.4</ele>
<time>2024-05-07T10:13:31Z</time>
</trkpt>
<trkpt lat="48.888732846826315" lon="9.80365650728345">
<ele>465</ele>
<time>2024-05-07T10:13:32Z</time>
</trkpt>
<trkpt lat="48.8887748401612" lon="9.803543016314508">
<ele>463.6</ele>
<time>2024-05-07T10:13:33Z</time>
</trkpt>
<trkpt lat="48.888809122145176" lon="9.803424831479788">
<ele>462.2</ele>
<time>2024-05-07T10:13:34Z</time>
</trkpt>
<trkpt lat="48.88885497115552" lon="9.803308406844735">
<ele>461</ele>
<time>2024-05-07T10:13:35Z</time>
</trkpt>
<trkpt lat="48.888893108814955" lon="9.803186366334558">
<ele>459.6</ele>
<time>2024-05-07T10:13:36Z</time>
</trkpt>
<trkpt lat="48.88893501833081" lon="9.803061475977302">
<ele>458.2</ele>
<time>2024-05-07T10:13:37Z</time>
</trkpt>
<trkpt lat="48.88898463919759" lon="9.802929796278477">
<ele>456.8</ele>
<time>2024-05-07T10:13:38Z</time>
</trkpt>
<trkpt lat="48.88903803192079" lon="9.802811611443758">
<ele>455.6</ele>
<time>2024-05-07T10:13:39Z</time>
</trkpt>
<trkpt lat="48.889087652787566" lon="9.80266853235662">
<ele>454.4</ele>
<time>2024-05-07T10:13:40Z</time>
</trkpt>
<trkpt lat="48.88915630057454" lon="9.802581779658794">
<ele>453.2</ele>
<time>2024-05-07T10:13:41Z</time>
</trkpt>
<trkpt lat="48.88919443823397" lon="9.802448255941272">
<ele>452</ele>
<time>2024-05-07T10:13:42Z</time>
</trkpt>
<trkpt lat="48.88924405910075" lon="9.80235194787383">
<ele>450.6</ele>
<time>2024-05-07T10:13:43Z</time>
</trkpt>
<trkpt lat="48.88930885121226" lon="9.80222982354462">
<ele>449.2</ele>
<time>2024-05-07T10:13:44Z</time>
</trkpt>
<trkpt lat="48.8893623277545" lon="9.802104933187366">
<ele>448</ele>
<time>2024-05-07T10:13:45Z</time>
</trkpt>
<trkpt lat="48.889404237270355" lon="9.801973337307572">
<ele>446.6</ele>
<time>2024-05-07T10:13:46Z</time>
</trkpt>
<trkpt lat="48.88945000246167" lon="9.801843585446475">
<ele>445.2</ele>
<time>2024-05-07T10:13:47Z</time>
</trkpt>
<trkpt lat="48.88949576765299" lon="9.801710061728954">
<ele>443.8</ele>
<time>2024-05-07T10:13:48Z</time>
</trkpt>
<trkpt lat="48.88956827111542" lon="9.801588021218777">
<ele>442.4</ele>
<time>2024-05-07T10:13:49Z</time>
</trkpt>
<trkpt lat="48.889621663838625" lon="9.801487857475877">
<ele>441</ele>
<time>2024-05-07T10:13:50Z</time>
</trkpt>
<trkpt lat="48.889659801498055" lon="9.801375372335317">
<ele>439.8</ele>
<time>2024-05-07T10:13:51Z</time>
</trkpt>
<trkpt lat="48.889701794832945" lon="9.801263809204102">
<ele>438.4</ele>
<time>2024-05-07T10:13:52Z</time>
</trkpt>
<trkpt lat="48.88973616063595" lon="9.8011464625597">
<ele>437.2</ele>
<time>2024-05-07T10:13:53Z</time>
</trkpt>
<trkpt lat="48.88977044261992" lon="9.801034899428489">
<ele>435.8</ele>
<time>2024-05-07T10:13:54Z</time>
</trkpt>
<trkpt lat="48.88980480842292" lon="9.800925180315971">
<ele>434.6</ele>
<time>2024-05-07T10:13:55Z</time>
</trkpt>
<trkpt lat="48.88983531855047" lon="9.800823172554374">
<ele>433.6</ele>
<time>2024-05-07T10:13:56Z</time>
</trkpt>
<trkpt lat="48.88986968435347" lon="9.800722086802123">
<ele>432.4</ele>
<time>2024-05-07T10:13:57Z</time>
</trkpt>
<trkpt lat="48.889900194481015" lon="9.80063147842884">
<ele>431.4</ele>
<time>2024-05-07T10:13:58Z</time>
</trkpt>
<trkpt lat="48.889919221401215" lon="9.80055520310998">
<ele>430.6</ele>
<time>2024-05-07T10:13:59Z</time>
</trkpt>
<trkpt lat="48.88994210399687" lon="9.80047314427793">
<ele>429.8</ele>
<time>2024-05-07T10:14:00Z</time>
</trkpt>
<trkpt lat="48.88997261412442" lon="9.80039209127426">
<ele>429.2</ele>
<time>2024-05-07T10:14:01Z</time>
</trkpt>
<trkpt lat="48.889999352395535" lon="9.800310116261244">
<ele>428.6</ele>
<time>2024-05-07T10:14:02Z</time>
</trkpt>
<trkpt lat="48.89002223499119" lon="9.800231913104652">
<ele>428</ele>
<time>2024-05-07T10:14:03Z</time>
</trkpt>
<trkpt lat="48.89004511758685" lon="9.800151782110332">
<ele>427.4</ele>
<time>2024-05-07T10:14:04Z</time>
</trkpt>
<trkpt lat="48.89006800018251" lon="9.80008028447628">
<ele>426.8</ele>
<time>2024-05-07T10:14:05Z</time>
</trkpt>
<trkpt lat="48.89009088277817" lon="9.800013480708005">
<ele>426.4</ele>
<time>2024-05-07T10:14:06Z</time>
</trkpt>
<trkpt lat="48.89012139290571" lon="9.799948688596489">
<ele>426</ele>
<time>2024-05-07T10:14:07Z</time>
</trkpt>
<trkpt lat="48.89015190303326" lon="9.799886662513018">
<ele>425.4</ele>
<time>2024-05-07T10:14:08Z</time>
</trkpt>
<trkpt lat="48.89019012451172" lon="9.799830419942737">
<ele>425</ele>
<time>2024-05-07T10:14:09Z</time>
</trkpt>
<trkpt lat="48.890232034027576" lon="9.799777949228885">
<ele>424.6</ele>
<time>2024-05-07T10:14:10Z</time>
</trkpt>
<trkpt lat="48.890274027362466" lon="9.799737883731725">
<ele>424.4</ele>
<time>2024-05-07T10:14:11Z</time>
</trkpt>
<trkpt lat="48.89031979255378" lon="9.799699746072292">
<ele>424</ele>
<time>2024-05-07T10:14:12Z</time>
</trkpt>
<trkpt lat="48.89036941342056" lon="9.799670157954097">
<ele>423.8</ele>
<time>2024-05-07T10:14:13Z</time>
</trkpt>
<trkpt lat="48.8904189504683" lon="9.79964635334909">
<ele>423.6</ele>
<time>2024-05-07T10:14:14Z</time>
</trkpt>
<trkpt lat="48.89046857133508" lon="9.799619615077972">
<ele>423.4</ele>
<time>2024-05-07T10:14:15Z</time>
</trkpt>
<trkpt lat="48.89051810838282" lon="9.79958818294108">
<ele>423.2</ele>
<time>2024-05-07T10:14:16Z</time>
</trkpt>
<trkpt lat="48.8905677292496" lon="9.799558594822884">
<ele>423</ele>
<time>2024-05-07T10:14:17Z</time>
</trkpt>
<trkpt lat="48.89061735011637" lon="9.79952615685761">
<ele>422.8</ele>
<time>2024-05-07T10:14:18Z</time>
</trkpt>
<trkpt lat="48.89066688716411" lon="9.799493718892336">
<ele>422.6</ele>
<time>2024-05-07T10:14:19Z</time>
</trkpt>
<trkpt lat="48.89071650803089" lon="9.799453653395176">
<ele>422.4</ele>
<time>2024-05-07T10:14:20Z</time>
</trkpt>
<trkpt lat="48.890769900754094" lon="9.79940696619451">
<ele>422.2</ele>
<time>2024-05-07T10:14:21Z</time>
</trkpt>
<trkpt lat="48.8908232934773" lon="9.799360195174811">
<ele>422.2</ele>
<time>2024-05-07T10:14:22Z</time>
</trkpt>
<trkpt lat="48.89087677001953" lon="9.799314429983497">
<ele>422.2</ele>
<time>2024-05-07T10:14:23Z</time>
</trkpt>
<trkpt lat="48.890926307067275" lon="9.79926967062056">
<ele>422.4</ele>
<time>2024-05-07T10:14:24Z</time>
</trkpt>
<trkpt lat="48.89096830040216" lon="9.799215272068976">
<ele>422.4</ele>
<time>2024-05-07T10:14:25Z</time>
</trkpt>
<trkpt lat="48.891006438061595" lon="9.799158023670316">
<ele>422.4</ele>
<time>2024-05-07T10:14:26Z</time>
</trkpt>
<trkpt lat="48.89104843139648" lon="9.799106558784842">
<ele>422.4</ele>
<time>2024-05-07T10:14:27Z</time>
</trkpt>
<trkpt lat="48.891086569055915" lon="9.79905509389937">
<ele>422.2</ele>
<time>2024-05-07T10:14:28Z</time>
</trkpt>
<trkpt lat="48.89112085103989" lon="9.799008322879672">
<ele>422.4</ele>
<time>2024-05-07T10:14:29Z</time>
</trkpt>
<trkpt lat="48.89115136116743" lon="9.798963479697704">
<ele>422.4</ele>
<time>2024-05-07T10:14:30Z</time>
</trkpt>
<trkpt lat="48.89118949882686" lon="9.798921570181848">
<ele>422.6</ele>
<time>2024-05-07T10:14:31Z</time>
</trkpt>
<trkpt lat="48.89122772030533" lon="9.798878654837608">
<ele>422.6</ele>
<time>2024-05-07T10:14:32Z</time>
</trkpt>
<trkpt lat="48.891262002289295" lon="9.79883473366499">
<ele>423</ele>
<time>2024-05-07T10:14:33Z</time>
</trkpt>
<trkpt lat="48.891303995624185" lon="9.79879374615848">
<ele>423.2</ele>
<time>2024-05-07T10:14:34Z</time>
</trkpt>
<trkpt lat="48.891342133283615" lon="9.7987546864897">
<ele>423.4</ele>
<time>2024-05-07T10:14:35Z</time>
</trkpt>
<trkpt lat="48.891380270943046" lon="9.79871361516416">
<ele>423.8</ele>
<time>2024-05-07T10:14:36Z</time>
</trkpt>
<trkpt lat="48.89141840860248" lon="9.798671705648305">
<ele>424.2</ele>
<time>2024-05-07T10:14:37Z</time>
</trkpt>
<trkpt lat="48.89145654626191" lon="9.79863641783595">
<ele>424.4</ele>
<time>2024-05-07T10:14:38Z</time>
</trkpt>
<trkpt lat="48.89149468392134" lon="9.798608757555485">
<ele>424.4</ele>
<time>2024-05-07T10:14:39Z</time>
</trkpt>
<trkpt lat="48.89153667725623" lon="9.798580091446638">
<ele>424.6</ele>
<time>2024-05-07T10:14:40Z</time>
</trkpt>
<trkpt lat="48.89157481491566" lon="9.798549581319094">
<ele>424.6</ele>
<time>2024-05-07T10:14:41Z</time>
</trkpt>
<trkpt lat="48.89161680825055" lon="9.79852007701993">
<ele>424.6</ele>
<time>2024-05-07T10:14:42Z</time>
</trkpt>
<trkpt lat="48.89166257344186" lon="9.798491410911083">
<ele>424.6</ele>
<time>2024-05-07T10:14:43Z</time>
</trkpt>
<trkpt lat="48.891700711101294" lon="9.798464756458998">
<ele>424.6</ele>
<time>2024-05-07T10:14:44Z</time>
</trkpt>
<trkpt lat="48.89173884876072" lon="9.798433240503073">
<ele>424.4</ele>
<time>2024-05-07T10:14:45Z</time>
</trkpt>
<trkpt lat="48.89177321456373" lon="9.798395102843642">
<ele>424.2</ele>
<time>2024-05-07T10:14:46Z</time>
</trkpt>
<trkpt lat="48.89180372469127" lon="9.798356965184212">
<ele>424.2</ele>
<time>2024-05-07T10:14:47Z</time>
</trkpt>
<trkpt lat="48.891834234818816" lon="9.798311199992895">
<ele>424.2</ele>
<time>2024-05-07T10:14:48Z</time>
</trkpt>
<trkpt lat="48.89186851680279" lon="9.79826543480158">
<ele>424.2</ele>
<time>2024-05-07T10:14:49Z</time>
</trkpt>
<trkpt lat="48.891895255073905" lon="9.798214891925454">
<ele>424</ele>
<time>2024-05-07T10:14:50Z</time>
</trkpt>
<trkpt lat="48.89192576520145" lon="9.798161499202251">
<ele>424</ele>
<time>2024-05-07T10:14:51Z</time>
</trkpt>
<trkpt lat="48.89195250347257" lon="9.798107100650668">
<ele>424</ele>
<time>2024-05-07T10:14:52Z</time>
</trkpt>
<trkpt lat="48.89197915792465" lon="9.798053707927464">
<ele>424</ele>
<time>2024-05-07T10:14:53Z</time>
</trkpt>
<trkpt lat="48.89200204052031" lon="9.797996459528804">
<ele>424</ele>
<time>2024-05-07T10:14:54Z</time>
</trkpt>
<trkpt lat="48.89202492311597" lon="9.797936361283064">
<ele>424</ele>
<time>2024-05-07T10:14:55Z</time>
</trkpt>
<trkpt lat="48.892051661387086" lon="9.797876346856356">
<ele>424.2</ele>
<time>2024-05-07T10:14:56Z</time>
</trkpt>
<trkpt lat="48.892074543982744" lon="9.797816248610616">
<ele>424.2</ele>
<time>2024-05-07T10:14:57Z</time>
</trkpt>
<trkpt lat="48.8920974265784" lon="9.797758078202603">
<ele>424.2</ele>
<time>2024-05-07T10:14:58Z</time>
</trkpt>
<trkpt lat="48.89212030917406" lon="9.797701835632324">
<ele>424.2</ele>
<time>2024-05-07T10:14:59Z</time>
</trkpt>
<trkpt lat="48.89214319176972" lon="9.797646515071392">
<ele>424.2</ele>
<time>2024-05-07T10:15:00Z</time>
</trkpt>
<trkpt lat="48.89216607436538" lon="9.79759018868208">
<ele>424.4</ele>
<time>2024-05-07T10:15:01Z</time>
</trkpt>
<trkpt lat="48.89218518510461" lon="9.797530174255373">
<ele>424.4</ele>
<time>2024-05-07T10:15:02Z</time>
</trkpt>
<trkpt lat="48.89220421202481" lon="9.797471920028327">
<ele>424.4</ele>
<time>2024-05-07T10:15:03Z</time>
</trkpt>
<trkpt lat="48.89222332276404" lon="9.797408049926162">
<ele>424.4</ele>
<time>2024-05-07T10:15:04Z</time>
</trkpt>
<trkpt lat="48.89223857782781" lon="9.797347029671071">
<ele>424.4</ele>
<time>2024-05-07T10:15:05Z</time>
</trkpt>
<trkpt lat="48.89225768856704" lon="9.797280309721828">
<ele>424.6</ele>
<time>2024-05-07T10:15:06Z</time>
</trkpt>
<trkpt lat="48.89227671548724" lon="9.79721350595355">
<ele>424.8</ele>
<time>2024-05-07T10:15:07Z</time>
</trkpt>
<trkpt lat="48.892291970551014" lon="9.797144858166575">
<ele>424.8</ele>
<time>2024-05-07T10:15:08Z</time>
</trkpt>
<trkpt lat="48.892311081290245" lon="9.797073360532522">
<ele>425</ele>
<time>2024-05-07T10:15:09Z</time>
</trkpt>
<trkpt lat="48.892330108210444" lon="9.796999851241708">
<ele>425</ele>
<time>2024-05-07T10:15:10Z</time>
</trkpt>
<trkpt lat="48.89234536327422" lon="9.796928353607656">
<ele>425</ele>
<time>2024-05-07T10:15:11Z</time>
</trkpt>
<trkpt lat="48.89235684648156" lon="9.796852078288794">
<ele>425</ele>
<time>2024-05-07T10:15:12Z</time>
</trkpt>
<trkpt lat="48.892368245869875" lon="9.79677865281701">
<ele>425</ele>
<time>2024-05-07T10:15:13Z</time>
</trkpt>
<trkpt lat="48.892372101545334" lon="9.796705227345228">
<ele>425</ele>
<time>2024-05-07T10:15:14Z</time>
</trkpt>
<trkpt lat="48.89237972907722" lon="9.796631801873446">
<ele>425</ele>
<time>2024-05-07T10:15:15Z</time>
</trkpt>
<trkpt lat="48.89239112846553" lon="9.79656022042036">
<ele>425</ele>
<time>2024-05-07T10:15:16Z</time>
</trkpt>
<trkpt lat="48.89239498414099" lon="9.796488722786307">
<ele>425</ele>
<time>2024-05-07T10:15:17Z</time>
</trkpt>
<trkpt lat="48.892406383529305" lon="9.796416219323874">
<ele>425</ele>
<time>2024-05-07T10:15:18Z</time>
</trkpt>
<trkpt lat="48.89241023920477" lon="9.79634279385209">
<ele>425</ele>
<time>2024-05-07T10:15:19Z</time>
</trkpt>
<trkpt lat="48.89241401106119" lon="9.796271296218038">
<ele>425</ele>
<time>2024-05-07T10:15:20Z</time>
</trkpt>
<trkpt lat="48.89241786673665" lon="9.796203570440412">
<ele>424.8</ele>
<time>2024-05-07T10:15:21Z</time>
</trkpt>
<trkpt lat="48.89242172241211" lon="9.796136850491166">
<ele>424.8</ele>
<time>2024-05-07T10:15:22Z</time>
</trkpt>
<trkpt lat="48.89242549426854" lon="9.796071974560618">
<ele>424.8</ele>
<time>2024-05-07T10:15:23Z</time>
</trkpt>
<trkpt lat="48.892429349943995" lon="9.79600709863007">
<ele>424.8</ele>
<time>2024-05-07T10:15:24Z</time>
</trkpt>
<trkpt lat="48.89243312180042" lon="9.795940378680823">
<ele>424.6</ele>
<time>2024-05-07T10:15:25Z</time>
</trkpt>
<trkpt lat="48.89244074933231" lon="9.79586980305612">
<ele>424.6</ele>
<time>2024-05-07T10:15:26Z</time>
</trkpt>
<trkpt lat="48.89244460500777" lon="9.795800149440764">
<ele>424.6</ele>
<time>2024-05-07T10:15:27Z</time>
</trkpt>
<trkpt lat="48.892452232539654" lon="9.795726723968984">
<ele>424.6</ele>
<time>2024-05-07T10:15:28Z</time>
</trkpt>
<trkpt lat="48.89246363192797" lon="9.79565522633493">
<ele>424.6</ele>
<time>2024-05-07T10:15:29Z</time>
</trkpt>
<trkpt lat="48.89247511513531" lon="9.795581800863149">
<ele>424.6</ele>
<time>2024-05-07T10:15:30Z</time>
</trkpt>
<trkpt lat="48.89249037019909" lon="9.795508375391364">
<ele>424.6</ele>
<time>2024-05-07T10:15:31Z</time>
</trkpt>
<trkpt lat="48.89250562526286" lon="9.79543679393828">
<ele>424.6</ele>
<time>2024-05-07T10:15:32Z</time>
</trkpt>
<trkpt lat="48.892524652183056" lon="9.795365296304226">
<ele>424.6</ele>
<time>2024-05-07T10:15:33Z</time>
</trkpt>
<trkpt lat="48.89254376292229" lon="9.795294720679522">
<ele>424.4</ele>
<time>2024-05-07T10:15:34Z</time>
</trkpt>
<trkpt lat="48.892566645517945" lon="9.795225067064166">
<ele>424.4</ele>
<time>2024-05-07T10:15:35Z</time>
</trkpt>
<trkpt lat="48.89259338378906" lon="9.795156419277191">
<ele>424.2</ele>
<time>2024-05-07T10:15:36Z</time>
</trkpt>
<trkpt lat="48.89262003824115" lon="9.795088693499563">
<ele>424.2</ele>
<time>2024-05-07T10:15:37Z</time>
</trkpt>
<trkpt lat="48.892646776512265" lon="9.79502197355032">
<ele>424</ele>
<time>2024-05-07T10:15:38Z</time>
</trkpt>
<trkpt lat="48.89267343096435" lon="9.794955253601074">
<ele>424</ele>
<time>2024-05-07T10:15:39Z</time>
</trkpt>
<trkpt lat="48.89270016923547" lon="9.794888449832795">
<ele>424</ele>
<time>2024-05-07T10:15:40Z</time>
</trkpt>
<trkpt lat="48.892723051831126" lon="9.794821729883552">
<ele>424</ele>
<time>2024-05-07T10:15:41Z</time>
</trkpt>
<trkpt lat="48.89274970628321" lon="9.794754926115274">
<ele>423.8</ele>
<time>2024-05-07T10:15:42Z</time>
</trkpt>
<trkpt lat="48.8927726726979" lon="9.7946862783283">
<ele>423.8</ele>
<time>2024-05-07T10:15:43Z</time>
</trkpt>
<trkpt lat="48.89279932714999" lon="9.794618552550672">
<ele>423.8</ele>
<time>2024-05-07T10:15:44Z</time>
</trkpt>
<trkpt lat="48.892826065421104" lon="9.794553676620126">
<ele>423.8</ele>
<time>2024-05-07T10:15:45Z</time>
</trkpt>
<trkpt lat="48.89284894801676" lon="9.79448695667088">
<ele>423.8</ele>
<time>2024-05-07T10:15:46Z</time>
</trkpt>
<trkpt lat="48.89287183061242" lon="9.794422080740333">
<ele>423.8</ele>
<time>2024-05-07T10:15:47Z</time>
</trkpt>
<trkpt lat="48.89289848506451" lon="9.794356282800436">
<ele>423.8</ele>
<time>2024-05-07T10:15:48Z</time>
</trkpt>
<trkpt lat="48.892925223335624" lon="9.794293334707618">
<ele>423.8</ele>
<time>2024-05-07T10:15:49Z</time>
</trkpt>
<trkpt lat="48.89294810593128" lon="9.794228542596102">
<ele>423.8</ele>
<time>2024-05-07T10:15:50Z</time>
</trkpt>
<trkpt lat="48.8929748442024" lon="9.794164588674905">
<ele>423.8</ele>
<time>2024-05-07T10:15:51Z</time>
</trkpt>
<trkpt lat="48.893001498654485" lon="9.794101640582085">
<ele>423.8</ele>
<time>2024-05-07T10:15:52Z</time>
</trkpt>
<trkpt lat="48.8930282369256" lon="9.794038692489266">
<ele>423.8</ele>
<time>2024-05-07T10:15:53Z</time>
</trkpt>
<trkpt lat="48.89305111952126" lon="9.7939748223871">
<ele>423.8</ele>
<time>2024-05-07T10:15:54Z</time>
</trkpt>
<trkpt lat="48.893077773973346" lon="9.79391187429428">
<ele>423.8</ele>
<time>2024-05-07T10:15:55Z</time>
</trkpt>
<trkpt lat="48.89310451224446" lon="9.793847082182763">
<ele>423.8</ele>
<time>2024-05-07T10:15:56Z</time>
</trkpt>
<trkpt lat="48.89312739484012" lon="9.793783128261566">
<ele>423.8</ele>
<time>2024-05-07T10:15:57Z</time>
</trkpt>
<trkpt lat="48.89315027743578" lon="9.793720180168748">
<ele>423.8</ele>
<time>2024-05-07T10:15:58Z</time>
</trkpt>
<trkpt lat="48.8931770157069" lon="9.79365631006658">
<ele>423.8</ele>
<time>2024-05-07T10:15:59Z</time>
</trkpt>
<trkpt lat="48.893199898302555" lon="9.793591434136031">
<ele>423.8</ele>
<time>2024-05-07T10:16:00Z</time>
</trkpt>
<trkpt lat="48.89322655275464" lon="9.793526642024515">
<ele>423.8</ele>
<time>2024-05-07T10:16:01Z</time>
</trkpt>
<trkpt lat="48.89325329102576" lon="9.79346176609397">
<ele>423.8</ele>
<time>2024-05-07T10:16:02Z</time>
</trkpt>
<trkpt lat="48.893280029296875" lon="9.7933997400105">
<ele>423.8</ele>
<time>2024-05-07T10:16:03Z</time>
</trkpt>
<trkpt lat="48.89330668374896" lon="9.793336791917682">
<ele>423.8</ele>
<time>2024-05-07T10:16:04Z</time>
</trkpt>
<trkpt lat="48.89333342202008" lon="9.793272921815516">
<ele>423.8</ele>
<time>2024-05-07T10:16:05Z</time>
</trkpt>
<trkpt lat="48.89336393214762" lon="9.793211901560426">
<ele>423.8</ele>
<time>2024-05-07T10:16:06Z</time>
</trkpt>
<trkpt lat="48.89339058659971" lon="9.793151803314686">
<ele>423.8</ele>
<time>2024-05-07T10:16:07Z</time>
</trkpt>
<trkpt lat="48.89342109672725" lon="9.793091705068946">
<ele>423.8</ele>
<time>2024-05-07T10:16:08Z</time>
</trkpt>
<trkpt lat="48.89345169067383" lon="9.793031690642238">
<ele>423.8</ele>
<time>2024-05-07T10:16:09Z</time>
</trkpt>
<trkpt lat="48.893478345125914" lon="9.792975364252923">
<ele>423.8</ele>
<time>2024-05-07T10:16:10Z</time>
</trkpt>
<trkpt lat="48.89351271092892" lon="9.792918199673297">
<ele>423.8</ele>
<time>2024-05-07T10:16:11Z</time>
</trkpt>
<trkpt lat="48.89354699291289" lon="9.792861873283982">
<ele>423.8</ele>
<time>2024-05-07T10:16:12Z</time>
</trkpt>
<trkpt lat="48.89358135871589" lon="9.79280655272305">
<ele>423.8</ele>
<time>2024-05-07T10:16:13Z</time>
</trkpt>
<trkpt lat="48.89361564069986" lon="9.792751232162118">
<ele>423.8</ele>
<time>2024-05-07T10:16:14Z</time>
</trkpt>
<trkpt lat="48.89365000650287" lon="9.792697839438915">
<ele>423.8</ele>
<time>2024-05-07T10:16:15Z</time>
</trkpt>
<trkpt lat="48.89368437230587" lon="9.792644446715713">
<ele>423.8</ele>
<time>2024-05-07T10:16:16Z</time>
</trkpt>
<trkpt lat="48.8937225099653" lon="9.792594909667969">
<ele>423.8</ele>
<time>2024-05-07T10:16:17Z</time>
</trkpt>
<trkpt lat="48.89375679194927" lon="9.792546210810542">
<ele>423.8</ele>
<time>2024-05-07T10:16:18Z</time>
</trkpt>
<trkpt lat="48.893795013427734" lon="9.792501367628574">
<ele>423.8</ele>
<time>2024-05-07T10:16:19Z</time>
</trkpt>
<trkpt lat="48.893833151087165" lon="9.792454680427907">
<ele>423.8</ele>
<time>2024-05-07T10:16:20Z</time>
</trkpt>
<trkpt lat="48.893871288746595" lon="9.79240983724594">
<ele>423.8</ele>
<time>2024-05-07T10:16:21Z</time>
</trkpt>
<trkpt lat="48.893909426406026" lon="9.792366921901705">
<ele>423.8</ele>
<time>2024-05-07T10:16:22Z</time>
</trkpt>
<trkpt lat="48.893947564065456" lon="9.792323084548116">
<ele>423.8</ele>
<time>2024-05-07T10:16:23Z</time>
</trkpt>
<trkpt lat="48.893989557400346" lon="9.792282097041609">
<ele>423.8</ele>
<time>2024-05-07T10:16:24Z</time>
</trkpt>
<trkpt lat="48.8940314669162" lon="9.792242031544449">
<ele>423.8</ele>
<time>2024-05-07T10:16:25Z</time>
</trkpt>
<trkpt lat="48.89407346025109" lon="9.792201966047289">
<ele>423.8</ele>
<time>2024-05-07T10:16:26Z</time>
</trkpt>
<trkpt lat="48.89411922544241" lon="9.792161900550129">
<ele>423.8</ele>
<time>2024-05-07T10:16:27Z</time>
</trkpt>
<trkpt lat="48.8941612187773" lon="9.792123762890697">
<ele>424</ele>
<time>2024-05-07T10:16:28Z</time>
</trkpt>
<trkpt lat="48.89420312829316" lon="9.792084619402884">
<ele>424</ele>
<time>2024-05-07T10:16:29Z</time>
</trkpt>
<trkpt lat="48.894245121628046" lon="9.792046481743457">
<ele>424.2</ele>
<time>2024-05-07T10:16:30Z</time>
</trkpt>
<trkpt lat="48.89429088681936" lon="9.792011193931105">
<ele>424.2</ele>
<time>2024-05-07T10:16:31Z</time>
</trkpt>
<trkpt lat="48.89433665201068" lon="9.791973056271672">
<ele>424.2</ele>
<time>2024-05-07T10:16:32Z</time>
</trkpt>
<trkpt lat="48.89437864534557" lon="9.791936846449971">
<ele>424.2</ele>
<time>2024-05-07T10:16:33Z</time>
</trkpt>
<trkpt lat="48.894420554861426" lon="9.79190155863762">
<ele>424.2</ele>
<time>2024-05-07T10:16:34Z</time>
</trkpt>
<trkpt lat="48.89446254819632" lon="9.791865348815918">
<ele>424.4</ele>
<time>2024-05-07T10:16:35Z</time>
</trkpt>
<trkpt lat="48.894504541531205" lon="9.791826205328109">
<ele>424.4</ele>
<time>2024-05-07T10:16:36Z</time>
</trkpt>
<trkpt lat="48.89454645104706" lon="9.791788067668676">
<ele>424.6</ele>
<time>2024-05-07T10:16:37Z</time>
</trkpt>
<trkpt lat="48.89458844438195" lon="9.791751857846975">
<ele>424.6</ele>
<time>2024-05-07T10:16:38Z</time>
</trkpt>
<trkpt lat="48.89463035389781" lon="9.791713636368511">
<ele>424.6</ele>
<time>2024-05-07T10:16:39Z</time>
</trkpt>
<trkpt lat="48.89466857537627" lon="9.791673654690385">
<ele>424.4</ele>
<time>2024-05-07T10:16:40Z</time>
</trkpt>
<trkpt lat="48.8947067130357" lon="9.791631661355495">
<ele>424.4</ele>
<time>2024-05-07T10:16:41Z</time>
</trkpt>
<trkpt lat="48.89474485069513" lon="9.791587824001908">
<ele>424.6</ele>
<time>2024-05-07T10:16:42Z</time>
</trkpt>
<trkpt lat="48.89478298835456" lon="9.79154490865767">
<ele>424.6</ele>
<time>2024-05-07T10:16:43Z</time>
</trkpt>
<trkpt lat="48.894821126013994" lon="9.791500065475702">
<ele>424.6</ele>
<time>2024-05-07T10:16:44Z</time>
</trkpt>
<trkpt lat="48.894859263673425" lon="9.791456144303083">
<ele>424.6</ele>
<time>2024-05-07T10:16:45Z</time>
</trkpt>
<trkpt lat="48.89489362947643" lon="9.791410379111769">
<ele>424.8</ele>
<time>2024-05-07T10:16:46Z</time>
</trkpt>
<trkpt lat="48.89493176713586" lon="9.791357992216945">
<ele>424.8</ele>
<time>2024-05-07T10:16:47Z</time>
</trkpt>
<trkpt lat="48.89496990479529" lon="9.79130837135017">
<ele>424.8</ele>
<time>2024-05-07T10:16:48Z</time>
</trkpt>
<trkpt lat="48.89500804245472" lon="9.791256822645664">
<ele>424.8</ele>
<time>2024-05-07T10:16:49Z</time>
</trkpt>
<trkpt lat="48.89504618011415" lon="9.791203429922462">
<ele>424.8</ele>
<time>2024-05-07T10:16:50Z</time>
</trkpt>
<trkpt lat="48.89508054591715" lon="9.79115003719926">
<ele>424.8</ele>
<time>2024-05-07T10:16:51Z</time>
</trkpt>
<trkpt lat="48.895114827901125" lon="9.791094716638328">
<ele>425</ele>
<time>2024-05-07T10:16:52Z</time>
</trkpt>
<trkpt lat="48.89514919370413" lon="9.791041323915124">
<ele>425</ele>
<time>2024-05-07T10:16:53Z</time>
</trkpt>
<trkpt lat="48.89518733136356" lon="9.790991703048348">
<ele>425</ele>
<time>2024-05-07T10:16:54Z</time>
</trkpt>
<trkpt lat="48.89522546902299" lon="9.790938310325146">
<ele>425</ele>
<time>2024-05-07T10:16:55Z</time>
</trkpt>
<trkpt lat="48.89526360668242" lon="9.790884917601945">
<ele>425.2</ele>
<time>2024-05-07T10:16:56Z</time>
</trkpt>
<trkpt lat="48.89530174434185" lon="9.79083152487874">
<ele>425</ele>
<time>2024-05-07T10:16:57Z</time>
</trkpt>
<trkpt lat="48.89533996582031" lon="9.790780059993269">
<ele>425</ele>
<time>2024-05-07T10:16:58Z</time>
</trkpt>
<trkpt lat="48.89537424780429" lon="9.790728511288762">
<ele>425</ele>
<time>2024-05-07T10:16:59Z</time>
</trkpt>
<trkpt lat="48.895412385463715" lon="9.790677046403289">
<ele>425.2</ele>
<time>2024-05-07T10:17:00Z</time>
</trkpt>
<trkpt lat="48.895450523123145" lon="9.790628431364894">
<ele>425.2</ele>
<time>2024-05-07T10:17:01Z</time>
</trkpt>
<trkpt lat="48.895488660782576" lon="9.79057788848877">
<ele>425.2</ele>
<time>2024-05-07T10:17:02Z</time>
</trkpt>
<trkpt lat="48.89552688226104" lon="9.790530195459723">
<ele>425.2</ele>
<time>2024-05-07T10:17:03Z</time>
</trkpt>
<trkpt lat="48.89556501992047" lon="9.790483424440026">
<ele>425.4</ele>
<time>2024-05-07T10:17:04Z</time>
</trkpt>
<trkpt lat="48.8956031575799" lon="9.790434809401631">
<ele>425.4</ele>
<time>2024-05-07T10:17:05Z</time>
</trkpt>
<trkpt lat="48.89564506709576" lon="9.790389966219664">
<ele>425.4</ele>
<time>2024-05-07T10:17:06Z</time>
</trkpt>
<trkpt lat="48.89568328857422" lon="9.790347050875424">
<ele>425.4</ele>
<time>2024-05-07T10:17:07Z</time>
</trkpt>
<trkpt lat="48.89572142623365" lon="9.790305057540536">
<ele>425.4</ele>
<time>2024-05-07T10:17:08Z</time>
</trkpt>
<trkpt lat="48.89575956389308" lon="9.790263148024678">
<ele>425.4</ele>
<time>2024-05-07T10:17:09Z</time>
</trkpt>
<trkpt lat="48.89579770155251" lon="9.79022023268044">
<ele>425.4</ele>
<time>2024-05-07T10:17:10Z</time>
</trkpt>
<trkpt lat="48.89583583921194" lon="9.79017631150782">
<ele>425.6</ele>
<time>2024-05-07T10:17:11Z</time>
</trkpt>
<trkpt lat="48.895870205014944" lon="9.790129624307156">
<ele>425.6</ele>
<time>2024-05-07T10:17:12Z</time>
</trkpt>
<trkpt lat="48.895908342674375" lon="9.790082853287458">
<ele>425.6</ele>
<time>2024-05-07T10:17:13Z</time>
</trkpt>
<trkpt lat="48.895946480333805" lon="9.790038093924522">
<ele>425.6</ele>
<time>2024-05-07T10:17:14Z</time>
</trkpt>
<trkpt lat="48.89598461799323" lon="9.789997022598982">
<ele>425.6</ele>
<time>2024-05-07T10:17:15Z</time>
</trkpt>
<trkpt lat="48.896026611328125" lon="9.789955113083124">
<ele>425.6</ele>
<time>2024-05-07T10:17:16Z</time>
</trkpt>
<trkpt lat="48.896064748987556" lon="9.789913119748237">
<ele>425.6</ele>
<time>2024-05-07T10:17:17Z</time>
</trkpt>
<trkpt lat="48.89611051417887" lon="9.789873054251077">
<ele>425.6</ele>
<time>2024-05-07T10:17:18Z</time>
</trkpt>
<trkpt lat="48.8961486518383" lon="9.789836844429374">
<ele>425.8</ele>
<time>2024-05-07T10:17:19Z</time>
</trkpt>
<trkpt lat="48.89619056135416" lon="9.789803484454753">
<ele>425.6</ele>
<time>2024-05-07T10:17:20Z</time>
</trkpt>
<trkpt lat="48.89623255468905" lon="9.78976626880467">
<ele>425.4</ele>
<time>2024-05-07T10:17:21Z</time>
</trkpt>
<trkpt lat="48.89627069234848" lon="9.78972620330751">
<ele>425.4</ele>
<time>2024-05-07T10:17:22Z</time>
</trkpt>
<trkpt lat="48.89631268568337" lon="9.78968806564808">
<ele>425.2</ele>
<time>2024-05-07T10:17:23Z</time>
</trkpt>
<trkpt lat="48.8963508233428" lon="9.78964800015092">
<ele>425.2</ele>
<time>2024-05-07T10:17:24Z</time>
</trkpt>
<trkpt lat="48.89639658853412" lon="9.789609862491488">
<ele>425.2</ele>
<time>2024-05-07T10:17:25Z</time>
</trkpt>
<trkpt lat="48.896438581869006" lon="9.7895678691566">
<ele>425.2</ele>
<time>2024-05-07T10:17:26Z</time>
</trkpt>
<trkpt lat="48.896480491384864" lon="9.78952688165009">
<ele>425.2</ele>
<time>2024-05-07T10:17:27Z</time>
</trkpt>
<trkpt lat="48.89652625657618" lon="9.78948782198131">
<ele>425.2</ele>
<time>2024-05-07T10:17:28Z</time>
</trkpt>
<trkpt lat="48.89656447805464" lon="9.789451528340578">
<ele>425.2</ele>
<time>2024-05-07T10:17:29Z</time>
</trkpt>
<trkpt lat="48.89660261571407" lon="9.789413390681148">
<ele>425.4</ele>
<time>2024-05-07T10:17:30Z</time>
</trkpt>
<trkpt lat="48.89664452522993" lon="9.789375253021715">
<ele>425.4</ele>
<time>2024-05-07T10:17:31Z</time>
</trkpt>
<trkpt lat="48.89668266288936" lon="9.789335187524555">
<ele>425.4</ele>
<time>2024-05-07T10:17:32Z</time>
</trkpt>
<trkpt lat="48.896720884367824" lon="9.7892932780087">
<ele>425.4</ele>
<time>2024-05-07T10:17:33Z</time>
</trkpt>
<trkpt lat="48.896759022027254" lon="9.78925128467381">
<ele>425.4</ele>
<time>2024-05-07T10:17:34Z</time>
</trkpt>
<trkpt lat="48.896793304011226" lon="9.789208369329572">
<ele>425.4</ele>
<time>2024-05-07T10:17:35Z</time>
</trkpt>
<trkpt lat="48.896831441670656" lon="9.789165453985332">
<ele>425.6</ele>
<time>2024-05-07T10:17:36Z</time>
</trkpt>
<trkpt lat="48.89686957933009" lon="9.789121616631746">
<ele>425.6</ele>
<time>2024-05-07T10:17:37Z</time>
</trkpt>
<trkpt lat="48.89690394513309" lon="9.789074845612047">
<ele>425.8</ele>
<time>2024-05-07T10:17:38Z</time>
</trkpt>
<trkpt lat="48.89694208279252" lon="9.78903000243008">
<ele>425.8</ele>
<time>2024-05-07T10:17:39Z</time>
</trkpt>
<trkpt lat="48.89697644859552" lon="9.788980465382338">
<ele>426</ele>
<time>2024-05-07T10:17:40Z</time>
</trkpt>
<trkpt lat="48.89701835811138" lon="9.788927994668484">
<ele>426</ele>
<time>2024-05-07T10:17:41Z</time>
</trkpt>
<trkpt lat="48.897052723914385" lon="9.78887652978301">
<ele>426.2</ele>
<time>2024-05-07T10:17:42Z</time>
</trkpt>
<trkpt lat="48.897090861573815" lon="9.788827830925584">
<ele>426.2</ele>
<time>2024-05-07T10:17:43Z</time>
</trkpt>
<trkpt lat="48.897128999233246" lon="9.788773516193032">
<ele>426.4</ele>
<time>2024-05-07T10:17:44Z</time>
</trkpt>
<trkpt lat="48.89716336503625" lon="9.78872012346983">
<ele>426.4</ele>
<time>2024-05-07T10:17:45Z</time>
</trkpt>
<trkpt lat="48.89720150269568" lon="9.788666646927595">
<ele>426.4</ele>
<time>2024-05-07T10:17:46Z</time>
</trkpt>
<trkpt lat="48.89723586849868" lon="9.788611410185696">
<ele>426.4</ele>
<time>2024-05-07T10:17:47Z</time>
</trkpt>
<trkpt lat="48.89727400615811" lon="9.78855793364346">
<ele>426.4</ele>
<time>2024-05-07T10:17:48Z</time>
</trkpt>
<trkpt lat="48.897312143817544" lon="9.788506468757989">
<ele>426.4</ele>
<time>2024-05-07T10:17:49Z</time>
</trkpt>
<trkpt lat="48.8973540533334" lon="9.788456847891212">
<ele>426.4</ele>
<time>2024-05-07T10:17:50Z</time>
</trkpt>
<trkpt lat="48.89739219099283" lon="9.788410160690546">
<ele>426.2</ele>
<time>2024-05-07T10:17:51Z</time>
</trkpt>
<trkpt lat="48.89743418432772" lon="9.788366239517927">
<ele>426</ele>
<time>2024-05-07T10:17:52Z</time>
</trkpt>
<trkpt lat="48.89747617766261" lon="9.788328101858497">
<ele>426</ele>
<time>2024-05-07T10:17:53Z</time>
</trkpt>
<trkpt lat="48.89751431532204" lon="9.788289964199066">
<ele>425.8</ele>
<time>2024-05-07T10:17:54Z</time>
</trkpt>
<trkpt lat="48.89755245298147" lon="9.788253754377363">
<ele>425.6</ele>
<time>2024-05-07T10:17:55Z</time>
</trkpt>
<trkpt lat="48.89759821817279" lon="9.788216538727283">
<ele>425.6</ele>
<time>2024-05-07T10:17:56Z</time>
</trkpt>
<trkpt lat="48.89764021150768" lon="9.788178401067851">
<ele>425.6</ele>
<time>2024-05-07T10:17:57Z</time>
</trkpt>
<trkpt lat="48.89768974855542" lon="9.788154596462846">
<ele>425.6</ele>
<time>2024-05-07T10:17:58Z</time>
</trkpt>
<trkpt lat="48.897743225097656" lon="9.788138335570691">
<ele>425.8</ele>
<time>2024-05-07T10:17:59Z</time>
</trkpt>
<trkpt lat="48.8977927621454" lon="9.78812693618238">
<ele>425.8</ele>
<time>2024-05-07T10:18:00Z</time>
</trkpt>
<trkpt lat="48.8978461548686" lon="9.788116374984384">
<ele>426</ele>
<time>2024-05-07T10:18:01Z</time>
</trkpt>
<trkpt lat="48.89789577573538" lon="9.788111681118608">
<ele>426</ele>
<time>2024-05-07T10:18:02Z</time>
</trkpt>
<trkpt lat="48.897945396602154" lon="9.78810304775834">
<ele>426</ele>
<time>2024-05-07T10:18:03Z</time>
</trkpt>
<trkpt lat="48.8979949336499" lon="9.788100197911264">
<ele>426.2</ele>
<time>2024-05-07T10:18:04Z</time>
</trkpt>
<trkpt lat="48.8980483263731" lon="9.788096426054835">
<ele>426.2</ele>
<time>2024-05-07T10:18:05Z</time>
</trkpt>
<trkpt lat="48.89809794723987" lon="9.788093492388724">
<ele>426.2</ele>
<time>2024-05-07T10:18:06Z</time>
</trkpt>
<trkpt lat="48.89814756810665" lon="9.78808494284749">
<ele>426.4</ele>
<time>2024-05-07T10:18:07Z</time>
</trkpt>
<trkpt lat="48.89819333329797" lon="9.788080165162684">
<ele>426.4</ele>
<time>2024-05-07T10:18:08Z</time>
</trkpt>
<trkpt lat="48.898239098489285" lon="9.788080165162684">
<ele>426.4</ele>
<time>2024-05-07T10:18:09Z</time>
</trkpt>
<trkpt lat="48.89828871935606" lon="9.788076393306255">
<ele>426.4</ele>
<time>2024-05-07T10:18:10Z</time>
</trkpt>
<trkpt lat="48.89833448454738" lon="9.788074465468526">
<ele>426.4</ele>
<time>2024-05-07T10:18:11Z</time>
</trkpt>
<trkpt lat="48.89838024973869" lon="9.788074465468526">
<ele>426.4</ele>
<time>2024-05-07T10:18:12Z</time>
</trkpt>
<trkpt lat="48.89842987060547" lon="9.788074465468526">
<ele>426.4</ele>
<time>2024-05-07T10:18:13Z</time>
</trkpt>
<trkpt lat="48.898475635796785" lon="9.788078237324951">
<ele>426.4</ele>
<time>2024-05-07T10:18:14Z</time>
</trkpt>
<trkpt lat="48.8985214009881" lon="9.788074465468526">
<ele>426.4</ele>
<time>2024-05-07T10:18:15Z</time>
</trkpt>
<trkpt lat="48.898570938035846" lon="9.788080165162684">
<ele>426.4</ele>
<time>2024-05-07T10:18:16Z</time>
</trkpt>
<trkpt lat="48.898616787046194" lon="9.788073459640144">
<ele>426.6</ele>
<time>2024-05-07T10:18:17Z</time>
</trkpt>
<trkpt lat="48.89866632409394" lon="9.78806683793664">
<ele>426.6</ele>
<time>2024-05-07T10:18:18Z</time>
</trkpt>
<trkpt lat="48.898712089285254" lon="9.788056360557675">
<ele>426.6</ele>
<time>2024-05-07T10:18:19Z</time>
</trkpt>
<trkpt lat="48.89876171015203" lon="9.788035321980717">
<ele>426.6</ele>
<time>2024-05-07T10:18:20Z</time>
</trkpt>
<trkpt lat="48.89880747534335" lon="9.788013445213435">
<ele>426.4</ele>
<time>2024-05-07T10:18:21Z</time>
</trkpt>
<trkpt lat="48.89885709621012" lon="9.787998190149665">
<ele>426.4</ele>
<time>2024-05-07T10:18:22Z</time>
</trkpt>
<trkpt lat="48.89890286140144" lon="9.787978157401083">
<ele>426.4</ele>
<time>2024-05-07T10:18:23Z</time>
</trkpt>
<trkpt lat="48.898948626592755" lon="9.787958124652503">
<ele>426.4</ele>
<time>2024-05-07T10:18:24Z</time>
</trkpt>
<trkpt lat="48.89899439178407" lon="9.787935242056848">
<ele>426.6</ele>
<time>2024-05-07T10:18:25Z</time>
</trkpt>
<trkpt lat="48.89904015697539" lon="9.787902804091573">
<ele>426.6</ele>
<time>2024-05-07T10:18:26Z</time>
</trkpt>
<trkpt lat="48.89907829463482" lon="9.78786651045084">
<ele>426.8</ele>
<time>2024-05-07T10:18:27Z</time>
</trkpt>
<trkpt lat="48.89912028796971" lon="9.787826528772712">
<ele>426.8</ele>
<time>2024-05-07T10:18:28Z</time>
</trkpt>
<trkpt lat="48.8991622813046" lon="9.787786463275552">
<ele>427</ele>
<time>2024-05-07T10:18:29Z</time>
</trkpt>
<trkpt lat="48.899204190820456" lon="9.787739692255856">
<ele>427</ele>
<time>2024-05-07T10:18:30Z</time>
</trkpt>
<trkpt lat="48.899246184155345" lon="9.78769300505519">
<ele>427</ele>
<time>2024-05-07T10:18:31Z</time>
</trkpt>
<trkpt lat="48.899288177490234" lon="9.787646234035492">
<ele>427.2</ele>
<time>2024-05-07T10:18:32Z</time>
</trkpt>
<trkpt lat="48.89933008700609" lon="9.787599546834826">
<ele>427</ele>
<time>2024-05-07T10:18:33Z</time>
</trkpt>
<trkpt lat="48.89937208034098" lon="9.787556631490588">
<ele>427</ele>
<time>2024-05-07T10:18:34Z</time>
</trkpt>
<trkpt lat="48.89941021800041" lon="9.78751178830862">
<ele>427</ele>
<time>2024-05-07T10:18:35Z</time>
</trkpt>
<trkpt lat="48.89945212751627" lon="9.787465017288923">
<ele>427</ele>
<time>2024-05-07T10:18:36Z</time>
</trkpt>
<trkpt lat="48.89949412085116" lon="9.78741355240345">
<ele>426.8</ele>
<time>2024-05-07T10:18:37Z</time>
</trkpt>
<trkpt lat="48.89953225851059" lon="9.78735538199544">
<ele>426.8</ele>
<time>2024-05-07T10:18:38Z</time>
</trkpt>
<trkpt lat="48.89956662431359" lon="9.787304839119315">
<ele>426.8</ele>
<time>2024-05-07T10:18:39Z</time>
</trkpt>
<trkpt lat="48.89960476197302" lon="9.78725521825254">
<ele>426.8</ele>
<time>2024-05-07T10:18:40Z</time>
</trkpt>
<trkpt lat="48.89964675530791" lon="9.787202831357718">
<ele>427</ele>
<time>2024-05-07T10:18:41Z</time>
</trkpt>
<trkpt lat="48.89968489296734" lon="9.787153210490942">
<ele>427</ele>
<time>2024-05-07T10:18:42Z</time>
</trkpt>
<trkpt lat="48.8997268024832" lon="9.787106439471245">
<ele>427</ele>
<time>2024-05-07T10:18:43Z</time>
</trkpt>
<trkpt lat="48.89976494014263" lon="9.787061680108309">
<ele>427.2</ele>
<time>2024-05-07T10:18:44Z</time>
</trkpt>
<trkpt lat="48.899803161621094" lon="9.78701683692634">
<ele>427.2</ele>
<time>2024-05-07T10:18:45Z</time>
</trkpt>
<trkpt lat="48.89984507113695" lon="9.786970065906644">
<ele>427.2</ele>
<time>2024-05-07T10:18:46Z</time>
</trkpt>
<trkpt lat="48.89988320879638" lon="9.78691952303052">
<ele>427.2</ele>
<time>2024-05-07T10:18:47Z</time>
</trkpt>
<trkpt lat="48.89992134645581" lon="9.786871830001472">
<ele>427.4</ele>
<time>2024-05-07T10:18:48Z</time>
</trkpt>
<trkpt lat="48.8999633397907" lon="9.786825142800808">
<ele>427.4</ele>
<time>2024-05-07T10:18:49Z</time>
</trkpt>
<trkpt lat="48.90000147745013" lon="9.78677837178111">
<ele>427.4</ele>
<time>2024-05-07T10:18:50Z</time>
</trkpt>
<trkpt lat="48.90004347078502" lon="9.786731684580444">
<ele>427.4</ele>
<time>2024-05-07T10:18:51Z</time>
</trkpt>
<trkpt lat="48.90008160844445" lon="9.786684913560748">
<ele>427.4</ele>
<time>2024-05-07T10:18:52Z</time>
</trkpt>
<trkpt lat="48.90011974610388" lon="9.786638226360084">
<ele>427.2</ele>
<time>2024-05-07T10:18:53Z</time>
</trkpt>
<trkpt lat="48.90016173943877" lon="9.786593383178117">
<ele>427.2</ele>
<time>2024-05-07T10:18:54Z</time>
</trkpt>
<trkpt lat="48.90020364895463" lon="9.786549545824528">
<ele>427.2</ele>
<time>2024-05-07T10:18:55Z</time>
</trkpt>
<trkpt lat="48.90024564228952" lon="9.786501852795482">
<ele>427.2</ele>
<time>2024-05-07T10:18:56Z</time>
</trkpt>
<trkpt lat="48.90028755180538" lon="9.786457009613514">
<ele>427</ele>
<time>2024-05-07T10:18:57Z</time>
</trkpt>
<trkpt lat="48.900329545140266" lon="9.786413172259929">
<ele>427</ele>
<time>2024-05-07T10:18:58Z</time>
</trkpt>
<trkpt lat="48.90037153847515" lon="9.786370256915689">
<ele>427</ele>
<time>2024-05-07T10:18:59Z</time>
</trkpt>
<trkpt lat="48.90041344799101" lon="9.78632541373372">
<ele>427</ele>
<time>2024-05-07T10:19:00Z</time>
</trkpt>
<trkpt lat="48.90045921318233" lon="9.78628819808364">
<ele>427</ele>
<time>2024-05-07T10:19:01Z</time>
</trkpt>
<trkpt lat="48.90050120651722" lon="9.786254838109016">
<ele>427</ele>
<time>2024-05-07T10:19:02Z</time>
</trkpt>
<trkpt lat="48.90054319985211" lon="9.7862262558192">
<ele>427</ele>
<time>2024-05-07T10:19:03Z</time>
</trkpt>
<trkpt lat="48.90058510936797" lon="9.786198595538735">
<ele>427</ele>
<time>2024-05-07T10:19:04Z</time>
</trkpt>
<trkpt lat="48.900627102702856" lon="9.786172863096">
<ele>427</ele>
<time>2024-05-07T10:19:05Z</time>
</trkpt>
<trkpt lat="48.900669096037745" lon="9.786151824519038">
<ele>427</ele>
<time>2024-05-07T10:19:06Z</time>
</trkpt>
<trkpt lat="48.90071863308549" lon="9.786131791770458">
<ele>427.2</ele>
<time>2024-05-07T10:19:07Z</time>
</trkpt>
<trkpt lat="48.900768253952265" lon="9.786118464544415">
<ele>427.2</ele>
<time>2024-05-07T10:19:08Z</time>
</trkpt>
<trkpt lat="48.90081779100001" lon="9.786111759021878">
<ele>427.2</ele>
<time>2024-05-07T10:19:09Z</time>
</trkpt>
<trkpt lat="48.90086364001036" lon="9.78610698133707">
<ele>427.2</ele>
<time>2024-05-07T10:19:10Z</time>
</trkpt>
<trkpt lat="48.9009131770581" lon="9.786098431795835">
<ele>427.4</ele>
<time>2024-05-07T10:19:11Z</time>
</trkpt>
<trkpt lat="48.90095894224942" lon="9.786093654111028">
<ele>427.4</ele>
<time>2024-05-07T10:19:12Z</time>
</trkpt>
<trkpt lat="48.901004791259766" lon="9.7860898822546">
<ele>427.4</ele>
<time>2024-05-07T10:19:13Z</time>
</trkpt>
<trkpt lat="48.90105432830751" lon="9.786091726273298">
<ele>427.4</ele>
<time>2024-05-07T10:19:14Z</time>
</trkpt>
<trkpt lat="48.901100093498826" lon="9.786093654111028">
<ele>427.6</ele>
<time>2024-05-07T10:19:15Z</time>
</trkpt>
<trkpt lat="48.9011497143656" lon="9.786096503958106">
<ele>427.6</ele>
<time>2024-05-07T10:19:16Z</time>
</trkpt>
<trkpt lat="48.90119547955692" lon="9.786101281642914">
<ele>427.6</ele>
<time>2024-05-07T10:19:17Z</time>
</trkpt>
<trkpt lat="48.901245100423694" lon="9.786100359633563">
<ele>427.6</ele>
<time>2024-05-07T10:19:18Z</time>
</trkpt>
<trkpt lat="48.90129463747144" lon="9.786096503958106">
<ele>427.6</ele>
<time>2024-05-07T10:19:19Z</time>
</trkpt>
<trkpt lat="48.901340402662754" lon="9.7860898822546">
<ele>427.6</ele>
<time>2024-05-07T10:19:20Z</time>
</trkpt>
<trkpt lat="48.90139002352953" lon="9.786085104569793">
<ele>427.6</ele>
<time>2024-05-07T10:19:21Z</time>
</trkpt>
<trkpt lat="48.901439644396305" lon="9.786076471209526">
<ele>427.6</ele>
<time>2024-05-07T10:19:22Z</time>
</trkpt>
<trkpt lat="48.90148540958762" lon="9.786066999658942">
<ele>427.4</ele>
<time>2024-05-07T10:19:23Z</time>
</trkpt>
<trkpt lat="48.9015350304544" lon="9.786053588613868">
<ele>427.4</ele>
<time>2024-05-07T10:19:24Z</time>
</trkpt>
<trkpt lat="48.90158456750214" lon="9.786040261387823">
<ele>427.4</ele>
<time>2024-05-07T10:19:25Z</time>
</trkpt>
<trkpt lat="48.90163033269346" lon="9.786026934161782">
<ele>427.4</ele>
<time>2024-05-07T10:19:26Z</time>
</trkpt>
<trkpt lat="48.90167995356023" lon="9.78601167909801">
<ele>427.6</ele>
<time>2024-05-07T10:19:27Z</time>
</trkpt>
<trkpt lat="48.90172571875155" lon="9.785996424034238">
<ele>427.6</ele>
<time>2024-05-07T10:19:28Z</time>
</trkpt>
<trkpt lat="48.901771483942866" lon="9.785978235304356">
<ele>427.6</ele>
<time>2024-05-07T10:19:29Z</time>
</trkpt>
<trkpt lat="48.90181347727776" lon="9.785960130393503">
<ele>427.8</ele>
<time>2024-05-07T10:19:30Z</time>
</trkpt>
<trkpt lat="48.90186309814453" lon="9.785938253626227">
<ele>427.8</ele>
<time>2024-05-07T10:19:31Z</time>
</trkpt>
<trkpt lat="48.90190500766039" lon="9.785916293039918">
<ele>427.8</ele>
<time>2024-05-07T10:19:32Z</time>
</trkpt>
<trkpt lat="48.90194700099528" lon="9.78589341044426">
<ele>427.8</ele>
<time>2024-05-07T10:19:33Z</time>
</trkpt>
<trkpt lat="48.901992766186595" lon="9.78586952202022">
<ele>428</ele>
<time>2024-05-07T10:19:34Z</time>
</trkpt>
<trkpt lat="48.90203475952149" lon="9.785844795405865">
<ele>428</ele>
<time>2024-05-07T10:19:35Z</time>
</trkpt>
<trkpt lat="48.90207666903734" lon="9.785818057134748">
<ele>428</ele>
<time>2024-05-07T10:19:36Z</time>
</trkpt>
<trkpt lat="48.90212243422866" lon="9.78579039685428">
<ele>428</ele>
<time>2024-05-07T10:19:37Z</time>
</trkpt>
<trkpt lat="48.90216057188809" lon="9.785759886726735">
<ele>428</ele>
<time>2024-05-07T10:19:38Z</time>
</trkpt>
<trkpt lat="48.90220256522298" lon="9.78573029860854">
<ele>428</ele>
<time>2024-05-07T10:19:39Z</time>
</trkpt>
<trkpt lat="48.90223693102598" lon="9.785701716318728">
<ele>428</ele>
<time>2024-05-07T10:19:40Z</time>
</trkpt>
<trkpt lat="48.90227506868541" lon="9.78567690588534">
<ele>428</ele>
<time>2024-05-07T10:19:41Z</time>
</trkpt>
<trkpt lat="48.90231320634484" lon="9.785659722983835">
<ele>428</ele>
<time>2024-05-07T10:19:42Z</time>
</trkpt>
<trkpt lat="48.90235134400427" lon="9.785664500668643">
<ele>428</ele>
<time>2024-05-07T10:19:43Z</time>
</trkpt>
<trkpt lat="48.90238185413182" lon="9.785683611407876">
<ele>428</ele>
<time>2024-05-07T10:19:44Z</time>
</trkpt>
<trkpt lat="48.90240473672747" lon="9.785703644156456">
<ele>428</ele>
<time>2024-05-07T10:19:45Z</time>
</trkpt>
<trkpt lat="48.90241999179125" lon="9.785723676905036">
<ele>428</ele>
<time>2024-05-07T10:19:46Z</time>
</trkpt>
<trkpt lat="48.90243524685502" lon="9.78573700413108">
<ele>428</ele>
<time>2024-05-07T10:19:47Z</time>
</trkpt>
<trkpt lat="48.90245435759425" lon="9.785739853978155">
<ele>428</ele>
<time>2024-05-07T10:19:48Z</time>
</trkpt>
<trkpt lat="48.902465756982565" lon="9.78573507629335">
<ele>428</ele>
<time>2024-05-07T10:19:49Z</time>
</trkpt>
<trkpt lat="48.90248101204634" lon="9.785723676905036">
<ele>428</ele>
<time>2024-05-07T10:19:50Z</time>
</trkpt>
<trkpt lat="48.90249249525368" lon="9.785711271688342">
<ele>428</ele>
<time>2024-05-07T10:19:51Z</time>
</trkpt>
<trkpt lat="48.90250012278557" lon="9.785699788480995">
<ele>428</ele>
<time>2024-05-07T10:19:52Z</time>
</trkpt>
<trkpt lat="48.90250012278557" lon="9.785697860643268">
<ele>428</ele>
<time>2024-05-07T10:19:53Z</time>
</trkpt>
<trkpt lat="48.90250012278557" lon="9.78569501079619">
<ele>428</ele>
<time>2024-05-07T10:19:54Z</time>
</trkpt>
<trkpt lat="48.90250012278557" lon="9.785693166777492">
<ele>428</ele>
<time>2024-05-07T10:19:55Z</time>
</trkpt>
<trkpt lat="48.902503894641995" lon="9.785693166777492">
<ele>428.2</ele>
<time>2024-05-07T10:19:56Z</time>
</trkpt>
<trkpt lat="48.902503894641995" lon="9.785691238939762">
<ele>428.2</ele>
<time>2024-05-07T10:19:59Z</time>
</trkpt>
<trkpt lat="48.902503894641995" lon="9.785693166777492">
<ele>428.4</ele>
<time>2024-05-07T10:20:00Z</time>
</trkpt>
<trkpt lat="48.902503894641995" lon="9.785691238939762">
<ele>428.6</ele>
<time>2024-05-07T10:20:05Z</time>
</trkpt>
<trkpt lat="48.902503894641995" lon="9.785690233111382">
<ele>428.6</ele>
<time>2024-05-07T10:20:09Z</time>
</trkpt>
<trkpt lat="48.902507750317454" lon="9.785690233111382">
<ele>428.8</ele>
<time>2024-05-07T10:20:10Z</time>
</trkpt>
<trkpt lat="48.902503894641995" lon="9.785690233111382">
<ele>428.8</ele>
<time>2024-05-07T10:20:11Z</time>
</trkpt>
<trkpt lat="48.902507750317454" lon="9.785688389092684">
<ele>428.8</ele>
<time>2024-05-07T10:20:12Z</time>
</trkpt>
<trkpt lat="48.902507750317454" lon="9.785690233111382">
<ele>429</ele>
<time>2024-05-07T10:20:13Z</time>
</trkpt>
<trkpt lat="48.90251152217388" lon="9.785690233111382">
<ele>429</ele>
<time>2024-05-07T10:20:14Z</time>
</trkpt>
<trkpt lat="48.90251152217388" lon="9.785691238939762">
<ele>429</ele>
<time>2024-05-07T10:20:18Z</time>
</trkpt>
<trkpt lat="48.90251152217388" lon="9.785693166777492">
<ele>429</ele>
<time>2024-05-07T10:20:21Z</time>
</trkpt>
<trkpt lat="48.902507750317454" lon="9.785693166777492">
<ele>428.8</ele>
<time>2024-05-07T10:20:24Z</time>
</trkpt>
<trkpt lat="48.902507750317454" lon="9.785691238939762">
<ele>428.8</ele>
<time>2024-05-07T10:20:29Z</time>
</trkpt>
<trkpt lat="48.902507750317454" lon="9.785693166777492">
<ele>428.8</ele>
<time>2024-05-07T10:20:32Z</time>
</trkpt>
<trkpt lat="48.902507750317454" lon="9.785691238939762">
<ele>428.6</ele>
<time>2024-05-07T10:20:36Z</time>
</trkpt>
<trkpt lat="48.90251152217388" lon="9.785691238939762">
<ele>428.6</ele>
<time>2024-05-07T10:20:38Z</time>
</trkpt>
<trkpt lat="48.902507750317454" lon="9.785691238939762">
<ele>428.4</ele>
<time>2024-05-07T10:20:47Z</time>
</trkpt>
<trkpt lat="48.90251152217388" lon="9.785691238939762">
<ele>428.6</ele>
<time>2024-05-07T10:20:48Z</time>
</trkpt>
<trkpt lat="48.90251152217388" lon="9.785693166777492">
<ele>428.6</ele>
<time>2024-05-07T10:20:54Z</time>
</trkpt>
<trkpt lat="48.902507750317454" lon="9.78569501079619">
<ele>428.6</ele>
<time>2024-05-07T10:20:57Z</time>
</trkpt>
<trkpt lat="48.902507750317454" lon="9.785693166777492">
<ele>428.6</ele>
<time>2024-05-07T10:20:59Z</time>
</trkpt>
<trkpt lat="48.90251152217388" lon="9.785693166777492">
<ele>428.6</ele>
<time>2024-05-07T10:21:00Z</time>
</trkpt>
<trkpt lat="48.90251152217388" lon="9.785691238939762">
<ele>428.6</ele>
<time>2024-05-07T10:21:04Z</time>
</trkpt>
<trkpt lat="48.90251152217388" lon="9.785693166777492">
<ele>428.8</ele>
<time>2024-05-07T10:21:06Z</time>
</trkpt>
<trkpt lat="48.90251152217388" lon="9.78569501079619">
<ele>428.6</ele>
<time>2024-05-07T10:21:15Z</time>
</trkpt>
<trkpt lat="48.90251152217388" lon="9.785693166777492">
<ele>428.6</ele>
<time>2024-05-07T10:21:17Z</time>
</trkpt>
<trkpt lat="48.90251152217388" lon="9.785691238939762">
<ele>428.6</ele>
<time>2024-05-07T10:21:22Z</time>
</trkpt>
<trkpt lat="48.90251152217388" lon="9.785693166777492">
<ele>428.6</ele>
<time>2024-05-07T10:21:28Z</time>
</trkpt>
<trkpt lat="48.90251152217388" lon="9.785691238939762">
<ele>428.4</ele>
<time>2024-05-07T10:21:31Z</time>
</trkpt>
<trkpt lat="48.90251152217388" lon="9.785693166777492">
<ele>428.4</ele>
<time>2024-05-07T10:21:34Z</time>
</trkpt>
<trkpt lat="48.90251152217388" lon="9.785691238939762">
<ele>428.4</ele>
<time>2024-05-07T10:21:38Z</time>
</trkpt>
<trkpt lat="48.90251152217388" lon="9.785690233111382">
<ele>428.2</ele>
<time>2024-05-07T10:21:46Z</time>
</trkpt>
<trkpt lat="48.90251152217388" lon="9.785688389092684">
<ele>428.2</ele>
<time>2024-05-07T10:21:49Z</time>
</trkpt>
<trkpt lat="48.90251152217388" lon="9.785690233111382">
<ele>428.2</ele>
<time>2024-05-07T10:21:57Z</time>
</trkpt>
<trkpt lat="48.90251152217388" lon="9.785691238939762">
<ele>428.4</ele>
<time>2024-05-07T10:22:00Z</time>
</trkpt>
<trkpt lat="48.90251152217388" lon="9.785693166777492">
<ele>428.4</ele>
<time>2024-05-07T10:22:02Z</time>
</trkpt>
<trkpt lat="48.90251152217388" lon="9.78569501079619">
<ele>428.4</ele>
<time>2024-05-07T10:22:06Z</time>
</trkpt>
<trkpt lat="48.902507750317454" lon="9.78569693863392">
<ele>428.2</ele>
<time>2024-05-07T10:22:12Z</time>
</trkpt>
<trkpt lat="48.902507750317454" lon="9.785697860643268">
<ele>428</ele>
<time>2024-05-07T10:22:17Z</time>
</trkpt>
<trkpt lat="48.902507750317454" lon="9.78569693863392">
<ele>428</ele>
<time>2024-05-07T10:22:22Z</time>
</trkpt>
<trkpt lat="48.902507750317454" lon="9.78569501079619">
<ele>427.8</ele>
<time>2024-05-07T10:22:25Z</time>
</trkpt>
<trkpt lat="48.902507750317454" lon="9.785693166777492">
<ele>427.8</ele>
<time>2024-05-07T10:22:28Z</time>
</trkpt>
<trkpt lat="48.902507750317454" lon="9.785691238939762">
<ele>427.6</ele>
<time>2024-05-07T10:22:33Z</time>
</trkpt>
<trkpt lat="48.902507750317454" lon="9.785690233111382">
<ele>427.6</ele>
<time>2024-05-07T10:22:49Z</time>
</trkpt>
<trkpt lat="48.902507750317454" lon="9.785688389092684">
<ele>427.4</ele>
<time>2024-05-07T10:22:56Z</time>
</trkpt>
<trkpt lat="48.902503894641995" lon="9.785688389092684">
<ele>427.4</ele>
<time>2024-05-07T10:22:57Z</time>
</trkpt>
<trkpt lat="48.902503894641995" lon="9.785686461254954">
<ele>427.4</ele>
<time>2024-05-07T10:22:59Z</time>
</trkpt>
<trkpt lat="48.902507750317454" lon="9.785686461254954">
<ele>427.2</ele>
<time>2024-05-07T10:23:02Z</time>
</trkpt>
<trkpt lat="48.902503894641995" lon="9.785686461254954">
<ele>427.2</ele>
<time>2024-05-07T10:23:04Z</time>
</trkpt>
<trkpt lat="48.902507750317454" lon="9.785686461254954">
<ele>427.2</ele>
<time>2024-05-07T10:23:06Z</time>
</trkpt>
<trkpt lat="48.902507750317454" lon="9.785688389092684">
<ele>427.2</ele>
<time>2024-05-07T10:23:07Z</time>
</trkpt>
<trkpt lat="48.902503894641995" lon="9.785688389092684">
<ele>427</ele>
<time>2024-05-07T10:23:09Z</time>
</trkpt>
<trkpt lat="48.902507750317454" lon="9.785688389092684">
<ele>427</ele>
<time>2024-05-07T10:23:10Z</time>
</trkpt>
<trkpt lat="48.902507750317454" lon="9.785690233111382">
<ele>427</ele>
<time>2024-05-07T10:23:11Z</time>
</trkpt>
<trkpt lat="48.902507750317454" lon="9.785688389092684">
<ele>427</ele>
<time>2024-05-07T10:23:23Z</time>
</trkpt>
<trkpt lat="48.902507750317454" lon="9.785690233111382">
<ele>427.2</ele>
<time>2024-05-07T10:23:25Z</time>
</trkpt>
<trkpt lat="48.902507750317454" lon="9.785688389092684">
<ele>427.2</ele>
<time>2024-05-07T10:23:27Z</time>
</trkpt>
<trkpt lat="48.902507750317454" lon="9.785690233111382">
<ele>427.2</ele>
<time>2024-05-07T10:23:29Z</time>
</trkpt>
<trkpt lat="48.902507750317454" lon="9.785688389092684">
<ele>427.2</ele>
<time>2024-05-07T10:23:30Z</time>
</trkpt>
<trkpt lat="48.902507750317454" lon="9.785686461254954">
<ele>427.2</ele>
<time>2024-05-07T10:23:38Z</time>
</trkpt>
<trkpt lat="48.902507750317454" lon="9.785684533417225">
<ele>427.2</ele>
<time>2024-05-07T10:23:45Z</time>
</trkpt>
<trkpt lat="48.902507750317454" lon="9.785686461254954">
<ele>427.2</ele>
<time>2024-05-07T10:23:49Z</time>
</trkpt>
<trkpt lat="48.902507750317454" lon="9.785688389092684">
<ele>427.2</ele>
<time>2024-05-07T10:23:56Z</time>
</trkpt>
<trkpt lat="48.902507750317454" lon="9.785690233111382">
<ele>427.2</ele>
<time>2024-05-07T10:23:59Z</time>
</trkpt>
<trkpt lat="48.902507750317454" lon="9.785691238939762">
<ele>427.2</ele>
<time>2024-05-07T10:24:02Z</time>
</trkpt>
<trkpt lat="48.902507750317454" lon="9.785693166777492">
<ele>427.2</ele>
<time>2024-05-07T10:24:08Z</time>
</trkpt>
<trkpt lat="48.902507750317454" lon="9.78569501079619">
<ele>427.2</ele>
<time>2024-05-07T10:24:18Z</time>
</trkpt>
<trkpt lat="48.902507750317454" lon="9.785693166777492">
<ele>427.2</ele>
<time>2024-05-07T10:24:20Z</time>
</trkpt>
<trkpt lat="48.902507750317454" lon="9.785691238939762">
<ele>427.4</ele>
<time>2024-05-07T10:24:26Z</time>
</trkpt>
<trkpt lat="48.90251152217388" lon="9.785691238939762">
<ele>427.4</ele>
<time>2024-05-07T10:24:40Z</time>
</trkpt>
<trkpt lat="48.90251152217388" lon="9.785693166777492">
<ele>427.6</ele>
<time>2024-05-07T10:24:52Z</time>
</trkpt>
<trkpt lat="48.90251152217388" lon="9.78569501079619">
<ele>427.8</ele>
<time>2024-05-07T10:24:56Z</time>
</trkpt>
<trkpt lat="48.902507750317454" lon="9.78569501079619">
<ele>427.8</ele>
<time>2024-05-07T10:24:57Z</time>
</trkpt>
<trkpt lat="48.902507750317454" lon="9.78569693863392">
<ele>428</ele>
<time>2024-05-07T10:24:59Z</time>
</trkpt>
<trkpt lat="48.902503894641995" lon="9.78569693863392">
<ele>428</ele>
<time>2024-05-07T10:25:00Z</time>
</trkpt>
<trkpt lat="48.902503894641995" lon="9.785697860643268">
<ele>428.2</ele>
<time>2024-05-07T10:25:01Z</time>
</trkpt>
<trkpt lat="48.902503894641995" lon="9.78569693863392">
<ele>428.2</ele>
<time>2024-05-07T10:25:02Z</time>
</trkpt>
<trkpt lat="48.902503894641995" lon="9.785697860643268">
<ele>428.4</ele>
<time>2024-05-07T10:25:03Z</time>
</trkpt>
<trkpt lat="48.902503894641995" lon="9.785699788480995">
<ele>428.4</ele>
<time>2024-05-07T10:25:06Z</time>
</trkpt>
<trkpt lat="48.902503894641995" lon="9.785701716318728">
<ele>428.4</ele>
<time>2024-05-07T10:25:07Z</time>
</trkpt>
<trkpt lat="48.902503894641995" lon="9.785699788480995">
<ele>428.6</ele>
<time>2024-05-07T10:25:08Z</time>
</trkpt>
<trkpt lat="48.902507750317454" lon="9.785697860643268">
<ele>428.6</ele>
<time>2024-05-07T10:25:11Z</time>
</trkpt>
<trkpt lat="48.902507750317454" lon="9.78569693863392">
<ele>428.6</ele>
<time>2024-05-07T10:25:12Z</time>
</trkpt>
<trkpt lat="48.902507750317454" lon="9.78569501079619">
<ele>428.6</ele>
<time>2024-05-07T10:25:15Z</time>
</trkpt>
<trkpt lat="48.902507750317454" lon="9.785693166777492">
<ele>428.6</ele>
<time>2024-05-07T10:25:19Z</time>
</trkpt>
<trkpt lat="48.90251152217388" lon="9.785693166777492">
<ele>428.6</ele>
<time>2024-05-07T10:25:21Z</time>
</trkpt>
<trkpt lat="48.902507750317454" lon="9.785693166777492">
<ele>428.6</ele>
<time>2024-05-07T10:25:23Z</time>
</trkpt>
<trkpt lat="48.90251152217388" lon="9.785691238939762">
<ele>428.6</ele>
<time>2024-05-07T10:25:24Z</time>
</trkpt>
<trkpt lat="48.90251152217388" lon="9.785693166777492">
<ele>428.6</ele>
<time>2024-05-07T10:25:26Z</time>
</trkpt>
<trkpt lat="48.902507750317454" lon="9.785693166777492">
<ele>428.6</ele>
<time>2024-05-07T10:25:29Z</time>
</trkpt>
<trkpt lat="48.902507750317454" lon="9.785691238939762">
<ele>428.6</ele>
<time>2024-05-07T10:25:41Z</time>
</trkpt>
<trkpt lat="48.90251152217388" lon="9.785691238939762">
<ele>428.6</ele>
<time>2024-05-07T10:25:45Z</time>
</trkpt>
<trkpt lat="48.90251152217388" lon="9.785693166777492">
<ele>428.6</ele>
<time>2024-05-07T10:25:55Z</time>
</trkpt>
<trkpt lat="48.90251152217388" lon="9.785691238939762">
<ele>428.6</ele>
<time>2024-05-07T10:26:00Z</time>
</trkpt>
<trkpt lat="48.90251152217388" lon="9.785690233111382">
<ele>428.6</ele>
<time>2024-05-07T10:26:03Z</time>
</trkpt>
<trkpt lat="48.902507750317454" lon="9.785690233111382">
<ele>428.6</ele>
<time>2024-05-07T10:26:04Z</time>
</trkpt>
<trkpt lat="48.90251152217388" lon="9.785690233111382">
<ele>428.6</ele>
<time>2024-05-07T10:26:05Z</time>
</trkpt>
<trkpt lat="48.90251152217388" lon="9.785688389092684">
<ele>428.6</ele>
<time>2024-05-07T10:26:06Z</time>
</trkpt>
<trkpt lat="48.90251152217388" lon="9.785686461254954">
<ele>428.6</ele>
<time>2024-05-07T10:26:08Z</time>
</trkpt>
<trkpt lat="48.90251152217388" lon="9.785688389092684">
<ele>428.6</ele>
<time>2024-05-07T10:26:17Z</time>
</trkpt>
<trkpt lat="48.90251537784934" lon="9.785691238939762">
<ele>428.6</ele>
<time>2024-05-07T10:26:18Z</time>
</trkpt>
<trkpt lat="48.90251152217388" lon="9.785693166777492">
<ele>428.6</ele>
<time>2024-05-07T10:26:19Z</time>
</trkpt>
<trkpt lat="48.90251152217388" lon="9.78569501079619">
<ele>428.6</ele>
<time>2024-05-07T10:26:20Z</time>
</trkpt>
<trkpt lat="48.902507750317454" lon="9.785699788480995">
<ele>428.6</ele>
<time>2024-05-07T10:26:21Z</time>
</trkpt>
<trkpt lat="48.902507750317454" lon="9.785701716318728">
<ele>428.6</ele>
<time>2024-05-07T10:26:22Z</time>
</trkpt>
<trkpt lat="48.902503894641995" lon="9.785706494003534">
<ele>428.6</ele>
<time>2024-05-07T10:26:23Z</time>
</trkpt>
<trkpt lat="48.902503894641995" lon="9.785710265859962">
<ele>428.6</ele>
<time>2024-05-07T10:26:25Z</time>
</trkpt>
<trkpt lat="48.902503894641995" lon="9.785711271688342">
<ele>428.6</ele>
<time>2024-05-07T10:26:27Z</time>
</trkpt>
<trkpt lat="48.902507750317454" lon="9.785711271688342">
<ele>428.6</ele>
<time>2024-05-07T10:26:30Z</time>
</trkpt>
<trkpt lat="48.902503894641995" lon="9.78571311570704">
<ele>428.6</ele>
<time>2024-05-07T10:26:37Z</time>
</trkpt>
<trkpt lat="48.902503894641995" lon="9.78571504354477">
<ele>428.6</ele>
<time>2024-05-07T10:26:39Z</time>
</trkpt>
<trkpt lat="48.90250012278557" lon="9.785717893391848">
<ele>428.6</ele>
<time>2024-05-07T10:26:40Z</time>
</trkpt>
<trkpt lat="48.90249626711011" lon="9.785717893391848">
<ele>428.6</ele>
<time>2024-05-07T10:26:43Z</time>
</trkpt>
<trkpt lat="48.90248486772179" lon="9.785719821229575">
<ele>428.6</ele>
<time>2024-05-07T10:26:44Z</time>
</trkpt>
<trkpt lat="48.90247338451445" lon="9.785726526752114">
<ele>428.6</ele>
<time>2024-05-07T10:26:45Z</time>
</trkpt>
<trkpt lat="48.90245435759425" lon="9.785726526752114">
<ele>428.6</ele>
<time>2024-05-07T10:26:46Z</time>
</trkpt>
<trkpt lat="48.90243524685502" lon="9.785723676905036">
<ele>428.6</ele>
<time>2024-05-07T10:26:47Z</time>
</trkpt>
<trkpt lat="48.90241621993482" lon="9.785710265859962">
<ele>428.6</ele>
<time>2024-05-07T10:26:48Z</time>
</trkpt>
<trkpt lat="48.90240473672747" lon="9.785683611407876">
<ele>428.6</ele>
<time>2024-05-07T10:26:49Z</time>
</trkpt>
<trkpt lat="48.90240096487105" lon="9.78565687313676">
<ele>428.6</ele>
<time>2024-05-07T10:26:50Z</time>
</trkpt>
<trkpt lat="48.90240096487105" lon="9.785631140694022">
<ele>428.6</ele>
<time>2024-05-07T10:26:51Z</time>
</trkpt>
<trkpt lat="48.902408592402935" lon="9.785605408251286">
<ele>428.6</ele>
<time>2024-05-07T10:26:52Z</time>
</trkpt>
<trkpt lat="48.90242384746671" lon="9.785578669980168">
<ele>428.6</ele>
<time>2024-05-07T10:26:53Z</time>
</trkpt>
<trkpt lat="48.90243910253048" lon="9.78555679321289">
<ele>428.6</ele>
<time>2024-05-07T10:26:54Z</time>
</trkpt>
<trkpt lat="48.90245812945068" lon="9.785541454330088">
<ele>428.6</ele>
<time>2024-05-07T10:26:55Z</time>
</trkpt>
<trkpt lat="48.90247338451445" lon="9.785528127104044">
<ele>428.6</ele>
<time>2024-05-07T10:26:56Z</time>
</trkpt>
<trkpt lat="48.90249249525368" lon="9.785511950030925">
<ele>428.6</ele>
<time>2024-05-07T10:26:57Z</time>
</trkpt>
<trkpt lat="48.90251152217388" lon="9.78549669496715">
<ele>428.6</ele>
<time>2024-05-07T10:26:58Z</time>
</trkpt>
<trkpt lat="48.90253063291311" lon="9.785488061606884">
<ele>428.6</ele>
<time>2024-05-07T10:26:59Z</time>
</trkpt>
<trkpt lat="48.90255351550877" lon="9.78547666221857">
<ele>428.6</ele>
<time>2024-05-07T10:27:00Z</time>
</trkpt>
<trkpt lat="48.90257639810443" lon="9.785465179011226">
<ele>428.6</ele>
<time>2024-05-07T10:27:01Z</time>
</trkpt>
<trkpt lat="48.90259550884366" lon="9.785446152091026">
<ele>428.6</ele>
<time>2024-05-07T10:27:02Z</time>
</trkpt>
<trkpt lat="48.90261839143932" lon="9.785429891198874">
<ele>428.6</ele>
<time>2024-05-07T10:27:03Z</time>
</trkpt>
<trkpt lat="48.90264127403498" lon="9.78541656397283">
<ele>428.6</ele>
<time>2024-05-07T10:27:04Z</time>
</trkpt>
<trkpt lat="48.90266792848706" lon="9.785407008603215">
<ele>428.8</ele>
<time>2024-05-07T10:27:05Z</time>
</trkpt>
<trkpt lat="48.90269466675818" lon="9.785389825701714">
<ele>428.8</ele>
<time>2024-05-07T10:27:06Z</time>
</trkpt>
<trkpt lat="48.90272903256118" lon="9.785369792953134">
<ele>429</ele>
<time>2024-05-07T10:27:07Z</time>
</trkpt>
<trkpt lat="48.90275954268873" lon="9.785347916185856">
<ele>429</ele>
<time>2024-05-07T10:27:08Z</time>
</trkpt>
<trkpt lat="48.90279768034816" lon="9.785323105752468">
<ele>429</ele>
<time>2024-05-07T10:27:09Z</time>
</trkpt>
<trkpt lat="48.90283581800759" lon="9.785293517634273">
<ele>429.2</ele>
<time>2024-05-07T10:27:10Z</time>
</trkpt>
<trkpt lat="48.902877727523446" lon="9.785266863182189">
<ele>429.2</ele>
<time>2024-05-07T10:27:11Z</time>
</trkpt>
<trkpt lat="48.90291594900191" lon="9.78524012491107">
<ele>429.2</ele>
<time>2024-05-07T10:27:12Z</time>
</trkpt>
<trkpt lat="48.90295408666134" lon="9.785213470458984">
<ele>429.4</ele>
<time>2024-05-07T10:27:13Z</time>
</trkpt>
<trkpt lat="48.902999851852655" lon="9.785184804350138">
<ele>429.4</ele>
<time>2024-05-07T10:27:14Z</time>
</trkpt>
<trkpt lat="48.90304176136851" lon="9.785151444375517">
<ele>429.4</ele>
<time>2024-05-07T10:27:15Z</time>
</trkpt>
<trkpt lat="48.90308761037886" lon="9.785118084400892">
<ele>429.4</ele>
<time>2024-05-07T10:27:16Z</time>
</trkpt>
<trkpt lat="48.90313337557018" lon="9.78508472442627">
<ele>429.6</ele>
<time>2024-05-07T10:27:17Z</time>
</trkpt>
<trkpt lat="48.903179140761495" lon="9.785053208470345">
<ele>429.8</ele>
<time>2024-05-07T10:27:18Z</time>
</trkpt>
<trkpt lat="48.90322490595281" lon="9.785023620352147">
<ele>430</ele>
<time>2024-05-07T10:27:19Z</time>
</trkpt>
<trkpt lat="48.9032668992877" lon="9.784990260377526">
<ele>430</ele>
<time>2024-05-07T10:27:20Z</time>
</trkpt>
<trkpt lat="48.90331266447902" lon="9.784959750249982">
<ele>430.2</ele>
<time>2024-05-07T10:27:21Z</time>
</trkpt>
<trkpt lat="48.903358429670334" lon="9.784928318113089">
<ele>430.4</ele>
<time>2024-05-07T10:27:22Z</time>
</trkpt>
<trkpt lat="48.90340033918619" lon="9.784896802157164">
<ele>430.4</ele>
<time>2024-05-07T10:27:23Z</time>
</trkpt>
<trkpt lat="48.90344233252108" lon="9.78486629202962">
<ele>430.6</ele>
<time>2024-05-07T10:27:24Z</time>
</trkpt>
<trkpt lat="48.90348432585597" lon="9.784839553758502">
<ele>430.6</ele>
<time>2024-05-07T10:27:25Z</time>
</trkpt>
<trkpt lat="48.9035224635154" lon="9.784811893478036">
<ele>430.6</ele>
<time>2024-05-07T10:27:26Z</time>
</trkpt>
<trkpt lat="48.90356060117483" lon="9.784788088873029">
<ele>430.8</ele>
<time>2024-05-07T10:27:27Z</time>
</trkpt>
<trkpt lat="48.903594966977835" lon="9.78476327843964">
<ele>430.8</ele>
<time>2024-05-07T10:27:28Z</time>
</trkpt>
<trkpt lat="48.903633104637265" lon="9.784738468006251">
<ele>430.8</ele>
<time>2024-05-07T10:27:29Z</time>
</trkpt>
<trkpt lat="48.90366738662124" lon="9.784716591238976">
<ele>431</ele>
<time>2024-05-07T10:27:30Z</time>
</trkpt>
<trkpt lat="48.90370175242424" lon="9.784691780805588">
<ele>431</ele>
<time>2024-05-07T10:27:31Z</time>
</trkpt>
<trkpt lat="48.90373989008367" lon="9.78466504253447">
<ele>431.2</ele>
<time>2024-05-07T10:27:32Z</time>
</trkpt>
<trkpt lat="48.903770400211215" lon="9.784638388082383">
<ele>431.2</ele>
<time>2024-05-07T10:27:33Z</time>
</trkpt>
<trkpt lat="48.90380476601422" lon="9.784613577648996">
<ele>431.4</ele>
<time>2024-05-07T10:27:34Z</time>
</trkpt>
<trkpt lat="48.90383904799819" lon="9.784584995359182">
<ele>431.4</ele>
<time>2024-05-07T10:27:35Z</time>
</trkpt>
<trkpt lat="48.90387341380119" lon="9.784558257088063">
<ele>431.6</ele>
<time>2024-05-07T10:27:36Z</time>
</trkpt>
<trkpt lat="48.903907695785165" lon="9.784535374492409">
<ele>431.6</ele>
<time>2024-05-07T10:27:37Z</time>
</trkpt>
<trkpt lat="48.90394206158817" lon="9.784513413906096">
<ele>431.6</ele>
<time>2024-05-07T10:27:38Z</time>
</trkpt>
<trkpt lat="48.90397642739117" lon="9.784486759454012">
<ele>431.8</ele>
<time>2024-05-07T10:27:39Z</time>
</trkpt>
<trkpt lat="48.90401070937514" lon="9.784466726705432">
<ele>431.8</ele>
<time>2024-05-07T10:27:40Z</time>
</trkpt>
<trkpt lat="48.904045075178146" lon="9.78445147164166">
<ele>431.8</ele>
<time>2024-05-07T10:27:41Z</time>
</trkpt>
<trkpt lat="48.90408321283758" lon="9.784433282911776">
<ele>431.8</ele>
<time>2024-05-07T10:27:42Z</time>
</trkpt>
<trkpt lat="48.90412135049701" lon="9.784419955685737">
<ele>431.8</ele>
<time>2024-05-07T10:27:43Z</time>
</trkpt>
<trkpt lat="48.90415948815644" lon="9.784402772784231">
<ele>431.8</ele>
<time>2024-05-07T10:27:44Z</time>
</trkpt>
<trkpt lat="48.90419762581587" lon="9.784386595711112">
<ele>431.8</ele>
<time>2024-05-07T10:27:45Z</time>
</trkpt>
<trkpt lat="48.90423199161887" lon="9.784366562962532">
<ele>431.8</ele>
<time>2024-05-07T10:27:46Z</time>
</trkpt>
<trkpt lat="48.9042701292783" lon="9.784348458051682">
<ele>431.8</ele>
<time>2024-05-07T10:27:47Z</time>
</trkpt>
<trkpt lat="48.90430826693773" lon="9.784337980672715">
<ele>431.8</ele>
<time>2024-05-07T10:27:48Z</time>
</trkpt>
<trkpt lat="48.90435026027262" lon="9.78433320298791">
<ele>431.8</ele>
<time>2024-05-07T10:27:49Z</time>
</trkpt>
<trkpt lat="48.90439216978848" lon="9.784330353140833">
<ele>431.8</ele>
<time>2024-05-07T10:27:50Z</time>
</trkpt>
<trkpt lat="48.90443030744791" lon="9.784326497465372">
<ele>431.6</ele>
<time>2024-05-07T10:27:51Z</time>
</trkpt>
<trkpt lat="48.9044723007828" lon="9.784328425303102">
<ele>431.6</ele>
<time>2024-05-07T10:27:52Z</time>
</trkpt>
<trkpt lat="48.90451043844223" lon="9.784328425303102">
<ele>431.6</ele>
<time>2024-05-07T10:27:53Z</time>
</trkpt>
<trkpt lat="48.90454857610166" lon="9.784330353140833">
<ele>431.4</ele>
<time>2024-05-07T10:27:54Z</time>
</trkpt>
<trkpt lat="48.90459056943655" lon="9.784336974844337">
<ele>431.4</ele>
<time>2024-05-07T10:27:55Z</time>
</trkpt>
<trkpt lat="48.90462870709598" lon="9.784344602376224">
<ele>431.4</ele>
<time>2024-05-07T10:27:56Z</time>
</trkpt>
<trkpt lat="48.90466684475541" lon="9.784348458051682">
<ele>431.4</ele>
<time>2024-05-07T10:27:57Z</time>
</trkpt>
<trkpt lat="48.9047088380903" lon="9.784357007592916">
<ele>431.4</ele>
<time>2024-05-07T10:27:58Z</time>
</trkpt>
<trkpt lat="48.90474697574973" lon="9.784366562962532">
<ele>431.4</ele>
<time>2024-05-07T10:27:59Z</time>
</trkpt>
<trkpt lat="48.90478511340916" lon="9.784377040341496">
<ele>431.4</ele>
<time>2024-05-07T10:28:00Z</time>
</trkpt>
<trkpt lat="48.90482325106859" lon="9.784386595711112">
<ele>431.4</ele>
<time>2024-05-07T10:28:01Z</time>
</trkpt>
<trkpt lat="48.90486138872802" lon="9.784398078918455">
<ele>431.4</ele>
<time>2024-05-07T10:28:02Z</time>
</trkpt>
<trkpt lat="48.90490338206291" lon="9.7844114061445">
<ele>431.4</ele>
<time>2024-05-07T10:28:03Z</time>
</trkpt>
<trkpt lat="48.90494529157877" lon="9.784426661208272">
<ele>431.2</ele>
<time>2024-05-07T10:28:04Z</time>
</trkpt>
<trkpt lat="48.90499114058912" lon="9.784439988434317">
<ele>431.2</ele>
<time>2024-05-07T10:28:05Z</time>
</trkpt>
<trkpt lat="48.905036905780435" lon="9.784453315660356">
<ele>431.2</ele>
<time>2024-05-07T10:28:06Z</time>
</trkpt>
<trkpt lat="48.90508644282818" lon="9.784462871029971">
<ele>431.2</ele>
<time>2024-05-07T10:28:07Z</time>
</trkpt>
<trkpt lat="48.90513229183853" lon="9.784476198256016">
<ele>431.2</ele>
<time>2024-05-07T10:28:08Z</time>
</trkpt>
<trkpt lat="48.90518182888627" lon="9.78448960930109">
<ele>431.2</ele>
<time>2024-05-07T10:28:09Z</time>
</trkpt>
<trkpt lat="48.90522759407759" lon="9.784502014517784">
<ele>431.2</ele>
<time>2024-05-07T10:28:10Z</time>
</trkpt>
<trkpt lat="48.90526958741248" lon="9.784515341743829">
<ele>431.2</ele>
<time>2024-05-07T10:28:11Z</time>
</trkpt>
<trkpt lat="48.905311580747366" lon="9.784526824951172">
<ele>431.2</ele>
<time>2024-05-07T10:28:12Z</time>
</trkpt>
<trkpt lat="48.905353490263224" lon="9.784536296501756">
<ele>431.2</ele>
<time>2024-05-07T10:28:13Z</time>
</trkpt>
<trkpt lat="48.90539548359811" lon="9.784544929862022">
<ele>431.2</ele>
<time>2024-05-07T10:28:14Z</time>
</trkpt>
<trkpt lat="48.905433621257544" lon="9.78454970754683">
<ele>431.2</ele>
<time>2024-05-07T10:28:15Z</time>
</trkpt>
<trkpt lat="48.90547561459243" lon="9.784551551565528">
<ele>431.2</ele>
<time>2024-05-07T10:28:16Z</time>
</trkpt>
<trkpt lat="48.90551752410829" lon="9.784553479403256">
<ele>431.2</ele>
<time>2024-05-07T10:28:17Z</time>
</trkpt>
<trkpt lat="48.90555951744318" lon="9.784556329250336">
<ele>431.2</ele>
<time>2024-05-07T10:28:18Z</time>
</trkpt>
<trkpt lat="48.90560142695904" lon="9.784556329250336">
<ele>431.2</ele>
<time>2024-05-07T10:28:19Z</time>
</trkpt>
<trkpt lat="48.90564342029393" lon="9.784560184925796">
<ele>431.2</ele>
<time>2024-05-07T10:28:20Z</time>
</trkpt>
<trkpt lat="48.90568155795336" lon="9.784560184925796">
<ele>431.2</ele>
<time>2024-05-07T10:28:21Z</time>
</trkpt>
<trkpt lat="48.90572355128825" lon="9.784562028944492">
<ele>431.2</ele>
<time>2024-05-07T10:28:22Z</time>
</trkpt>
<trkpt lat="48.90576931647957" lon="9.784562028944492">
<ele>431.2</ele>
<time>2024-05-07T10:28:23Z</time>
</trkpt>
<trkpt lat="48.90581130981445" lon="9.784553479403256">
<ele>431.2</ele>
<time>2024-05-07T10:28:24Z</time>
</trkpt>
<trkpt lat="48.90584944747389" lon="9.784538224339483">
<ele>431.2</ele>
<time>2024-05-07T10:28:25Z</time>
</trkpt>
<trkpt lat="48.905883729457855" lon="9.784516263753176">
<ele>431.2</ele>
<time>2024-05-07T10:28:26Z</time>
</trkpt>
<trkpt lat="48.905921867117286" lon="9.78448860347271">
<ele>431.2</ele>
<time>2024-05-07T10:28:27Z</time>
</trkpt>
<trkpt lat="48.90595623292029" lon="9.78444954380393">
<ele>431.2</ele>
<time>2024-05-07T10:28:28Z</time>
</trkpt>
<trkpt lat="48.90598674304783" lon="9.78440855629742">
<ele>431.2</ele>
<time>2024-05-07T10:28:29Z</time>
</trkpt>
<trkpt lat="48.90601348131895" lon="9.784364635124804">
<ele>431.2</ele>
<time>2024-05-07T10:28:30Z</time>
</trkpt>
<trkpt lat="48.906043991446495" lon="9.784317947924135">
<ele>431.2</ele>
<time>2024-05-07T10:28:31Z</time>
</trkpt>
<trkpt lat="48.90607827343047" lon="9.784270254895093">
<ele>431.2</ele>
<time>2024-05-07T10:28:32Z</time>
</trkpt>
<trkpt lat="48.90610878355801" lon="9.784225411713123">
<ele>431.2</ele>
<time>2024-05-07T10:28:33Z</time>
</trkpt>
<trkpt lat="48.906139293685555" lon="9.784176796674728">
<ele>431.2</ele>
<time>2024-05-07T10:28:34Z</time>
</trkpt>
<trkpt lat="48.906162260100245" lon="9.784128181636332">
<ele>431.4</ele>
<time>2024-05-07T10:28:35Z</time>
</trkpt>
<trkpt lat="48.90618891455233" lon="9.7840728610754">
<ele>431.4</ele>
<time>2024-05-07T10:28:36Z</time>
</trkpt>
<trkpt lat="48.90621179714799" lon="9.784016534686089">
<ele>431.6</ele>
<time>2024-05-07T10:28:37Z</time>
</trkpt>
<trkpt lat="48.90622705221176" lon="9.783961214125156">
<ele>431.6</ele>
<time>2024-05-07T10:28:38Z</time>
</trkpt>
<trkpt lat="48.906242307275534" lon="9.783901199698448">
<ele>431.8</ele>
<time>2024-05-07T10:28:39Z</time>
</trkpt>
<trkpt lat="48.906257562339306" lon="9.78384017944336">
<ele>431.8</ele>
<time>2024-05-07T10:28:40Z</time>
</trkpt>
<trkpt lat="48.90626518987119" lon="9.78378008119762">
<ele>432</ele>
<time>2024-05-07T10:28:41Z</time>
</trkpt>
<trkpt lat="48.90627281740308" lon="9.783728532493114">
<ele>432</ele>
<time>2024-05-07T10:28:42Z</time>
</trkpt>
<trkpt lat="48.90627667307854" lon="9.783670362085104">
<ele>432</ele>
<time>2024-05-07T10:28:43Z</time>
</trkpt>
<trkpt lat="48.90628044493496" lon="9.783611269667745">
<ele>432.2</ele>
<time>2024-05-07T10:28:44Z</time>
</trkpt>
<trkpt lat="48.90628430061042" lon="9.783552093431354">
<ele>432.2</ele>
<time>2024-05-07T10:28:45Z</time>
</trkpt>
<trkpt lat="48.90628807246685" lon="9.783492079004644">
<ele>432.4</ele>
<time>2024-05-07T10:28:46Z</time>
</trkpt>
<trkpt lat="48.90629192814231" lon="9.783438602462413">
<ele>432.6</ele>
<time>2024-05-07T10:28:47Z</time>
</trkpt>
<trkpt lat="48.906295699998736" lon="9.78338336572051">
<ele>432.6</ele>
<time>2024-05-07T10:28:48Z</time>
</trkpt>
<trkpt lat="48.906299555674195" lon="9.783334666863084">
<ele>432.8</ele>
<time>2024-05-07T10:28:49Z</time>
</trkpt>
<trkpt lat="48.90630332753062" lon="9.783287979662418">
<ele>433</ele>
<time>2024-05-07T10:28:50Z</time>
</trkpt>
<trkpt lat="48.90630332753062" lon="9.78324313648045">
<ele>433.2</ele>
<time>2024-05-07T10:28:51Z</time>
</trkpt>
<trkpt lat="48.90630718320608" lon="9.783193515613675">
<ele>433.4</ele>
<time>2024-05-07T10:28:52Z</time>
</trkpt>
<trkpt lat="48.90630332753062" lon="9.78314297273755">
<ele>433.6</ele>
<time>2024-05-07T10:28:53Z</time>
</trkpt>
<trkpt lat="48.90630332753062" lon="9.783095279708505">
<ele>433.8</ele>
<time>2024-05-07T10:28:54Z</time>
</trkpt>
<trkpt lat="48.906299555674195" lon="9.783049514517188">
<ele>433.8</ele>
<time>2024-05-07T10:28:55Z</time>
</trkpt>
<trkpt lat="48.906295699998736" lon="9.783002827316524">
<ele>434</ele>
<time>2024-05-07T10:28:56Z</time>
</trkpt>
<trkpt lat="48.906295699998736" lon="9.782957062125206">
<ele>434</ele>
<time>2024-05-07T10:28:57Z</time>
</trkpt>
<trkpt lat="48.906295699998736" lon="9.782913140952587">
<ele>434.2</ele>
<time>2024-05-07T10:28:58Z</time>
</trkpt>
<trkpt lat="48.90630332753062" lon="9.782870225608349">
<ele>434.4</ele>
<time>2024-05-07T10:28:59Z</time>
</trkpt>
<trkpt lat="48.90631095506251" lon="9.782826388254762">
<ele>434.6</ele>
<time>2024-05-07T10:29:00Z</time>
</trkpt>
<trkpt lat="48.906318582594395" lon="9.782779617235065">
<ele>434.8</ele>
<time>2024-05-07T10:29:01Z</time>
</trkpt>
<trkpt lat="48.90633006580174" lon="9.7827329300344">
<ele>435</ele>
<time>2024-05-07T10:29:02Z</time>
</trkpt>
<trkpt lat="48.9063339214772" lon="9.782683309167624">
<ele>435.2</ele>
<time>2024-05-07T10:29:03Z</time>
</trkpt>
<trkpt lat="48.906337693333626" lon="9.78263184428215">
<ele>435.4</ele>
<time>2024-05-07T10:29:04Z</time>
</trkpt>
<trkpt lat="48.90634532086551" lon="9.782583229243755">
<ele>435.4</ele>
<time>2024-05-07T10:29:05Z</time>
</trkpt>
<trkpt lat="48.90635680407286" lon="9.78253168053925">
<ele>435.6</ele>
<time>2024-05-07T10:29:06Z</time>
</trkpt>
<trkpt lat="48.90636443160474" lon="9.782480215653775">
<ele>435.8</ele>
<time>2024-05-07T10:29:07Z</time>
</trkpt>
<trkpt lat="48.90636820346117" lon="9.782428666949272">
<ele>436</ele>
<time>2024-05-07T10:29:08Z</time>
</trkpt>
<trkpt lat="48.90637205913663" lon="9.782380051910875">
<ele>436.2</ele>
<time>2024-05-07T10:29:09Z</time>
</trkpt>
<trkpt lat="48.906379686668515" lon="9.782331436872482">
<ele>436.6</ele>
<time>2024-05-07T10:29:10Z</time>
</trkpt>
<trkpt lat="48.90638345852494" lon="9.782281816005709">
<ele>436.8</ele>
<time>2024-05-07T10:29:11Z</time>
</trkpt>
<trkpt lat="48.90638345852494" lon="9.78223512880504">
<ele>437</ele>
<time>2024-05-07T10:29:12Z</time>
</trkpt>
<trkpt lat="48.9063873142004" lon="9.782186429947616">
<ele>437.2</ele>
<time>2024-05-07T10:29:13Z</time>
</trkpt>
<trkpt lat="48.90639108605683" lon="9.7821388207376">
<ele>437.4</ele>
<time>2024-05-07T10:29:14Z</time>
</trkpt>
<trkpt lat="48.90639494173229" lon="9.782092971727252">
<ele>437.6</ele>
<time>2024-05-07T10:29:15Z</time>
</trkpt>
<trkpt lat="48.9064063411206" lon="9.782046284526588">
<ele>438</ele>
<time>2024-05-07T10:29:16Z</time>
</trkpt>
<trkpt lat="48.90641396865249" lon="9.782006219029428">
<ele>438.2</ele>
<time>2024-05-07T10:29:17Z</time>
</trkpt>
<trkpt lat="48.90642159618437" lon="9.781963303685188">
<ele>438.4</ele>
<time>2024-05-07T10:29:18Z</time>
</trkpt>
<trkpt lat="48.90643307939172" lon="9.78192038834095">
<ele>438.8</ele>
<time>2024-05-07T10:29:19Z</time>
</trkpt>
<trkpt lat="48.9064407069236" lon="9.781883172690868">
<ele>439</ele>
<time>2024-05-07T10:29:20Z</time>
</trkpt>
<trkpt lat="48.906455961987376" lon="9.781849812716246">
<ele>439.2</ele>
<time>2024-05-07T10:29:21Z</time>
</trkpt>
<trkpt lat="48.906474988907576" lon="9.781814524903892">
<ele>439.4</ele>
<time>2024-05-07T10:29:22Z</time>
</trkpt>
<trkpt lat="48.90649409964681" lon="9.78178208693862">
<ele>439.6</ele>
<time>2024-05-07T10:29:23Z</time>
</trkpt>
<trkpt lat="48.90652083791792" lon="9.781751576811075">
<ele>439.8</ele>
<time>2024-05-07T10:29:24Z</time>
</trkpt>
<trkpt lat="48.90655134804547" lon="9.781716288998725">
<ele>440</ele>
<time>2024-05-07T10:29:25Z</time>
</trkpt>
<trkpt lat="48.90658185817301" lon="9.781680079177022">
<ele>440.2</ele>
<time>2024-05-07T10:29:26Z</time>
</trkpt>
<trkpt lat="48.90661236830056" lon="9.781640013679862">
<ele>440.4</ele>
<time>2024-05-07T10:29:27Z</time>
</trkpt>
<trkpt lat="48.90664665028453" lon="9.781588548794389">
<ele>440.4</ele>
<time>2024-05-07T10:29:28Z</time>
</trkpt>
<trkpt lat="48.90666961669922" lon="9.78152652271092">
<ele>440.6</ele>
<time>2024-05-07T10:29:29Z</time>
</trkpt>
<trkpt lat="48.90669249929488" lon="9.781456869095564">
<ele>440.6</ele>
<time>2024-05-07T10:29:30Z</time>
</trkpt>
<trkpt lat="48.90671152621507" lon="9.78138344362378">
<ele>440.6</ele>
<time>2024-05-07T10:29:31Z</time>
</trkpt>
<trkpt lat="48.90672678127885" lon="9.781301468610764">
<ele>440.6</ele>
<time>2024-05-07T10:29:32Z</time>
</trkpt>
<trkpt lat="48.90674589201808" lon="9.781221337616444">
<ele>440.6</ele>
<time>2024-05-07T10:29:33Z</time>
</trkpt>
<trkpt lat="48.90676491893828" lon="9.78112980723381">
<ele>440.8</ele>
<time>2024-05-07T10:29:34Z</time>
</trkpt>
<trkpt lat="48.90678017400205" lon="9.781036349013448">
<ele>440.8</ele>
<time>2024-05-07T10:29:35Z</time>
</trkpt>
<trkpt lat="48.90679928474128" lon="9.780940040946009">
<ele>440.8</ele>
<time>2024-05-07T10:29:36Z</time>
</trkpt>
<trkpt lat="48.90681831166148" lon="9.780841805040836">
<ele>440.6</ele>
<time>2024-05-07T10:29:37Z</time>
</trkpt>
<trkpt lat="48.9068450499326" lon="9.780739713460209">
<ele>440.6</ele>
<time>2024-05-07T10:29:38Z</time>
</trkpt>
<trkpt lat="48.90687556006014" lon="9.780643405392766">
<ele>440.6</ele>
<time>2024-05-07T10:29:39Z</time>
</trkpt>
<trkpt lat="48.90691755339503" lon="9.780551875010133">
<ele>440.4</ele>
<time>2024-05-07T10:29:40Z</time>
</trkpt>
<trkpt lat="48.90695946291089" lon="9.78045841678977">
<ele>440.4</ele>
<time>2024-05-07T10:29:41Z</time>
</trkpt>
<trkpt lat="48.907012939453125" lon="9.780373508110642">
<ele>440.2</ele>
<time>2024-05-07T10:29:42Z</time>
</trkpt>
<trkpt lat="48.907073959708214" lon="9.78029815480113">
<ele>440</ele>
<time>2024-05-07T10:29:43Z</time>
</trkpt>
<trkpt lat="48.9071349799633" lon="9.780229507014155">
<ele>439.8</ele>
<time>2024-05-07T10:29:44Z</time>
</trkpt>
<trkpt lat="48.907207483425736" lon="9.780166558921335">
<ele>439.4</ele>
<time>2024-05-07T10:29:45Z</time>
</trkpt>
<trkpt lat="48.90727990306914" lon="9.780113166198134">
<ele>439.2</ele>
<time>2024-05-07T10:29:46Z</time>
</trkpt>
<trkpt lat="48.90735240653157" lon="9.78006455115974">
<ele>439</ele>
<time>2024-05-07T10:29:47Z</time>
</trkpt>
<trkpt lat="48.90742868185043" lon="9.780028341338038">
<ele>438.6</ele>
<time>2024-05-07T10:29:48Z</time>
</trkpt>
<trkpt lat="48.90750118531287" lon="9.779992047697306">
<ele>438.4</ele>
<time>2024-05-07T10:29:49Z</time>
</trkpt>
<trkpt lat="48.90756983309984" lon="9.779958687722685">
<ele>438.2</ele>
<time>2024-05-07T10:29:50Z</time>
</trkpt>
<trkpt lat="48.90764233656227" lon="9.779918622225525">
<ele>437.8</ele>
<time>2024-05-07T10:29:51Z</time>
</trkpt>
<trkpt lat="48.907703356817365" lon="9.7798852622509">
<ele>437.6</ele>
<time>2024-05-07T10:29:52Z</time>
</trkpt>
<trkpt lat="48.90776823274791" lon="9.77984804660082">
<ele>437.4</ele>
<time>2024-05-07T10:29:53Z</time>
</trkpt>
<trkpt lat="48.90783302485943" lon="9.77980798110366">
<ele>437.2</ele>
<time>2024-05-07T10:29:54Z</time>
</trkpt>
<trkpt lat="48.90789027325809" lon="9.77976699359715">
<ele>437.2</ele>
<time>2024-05-07T10:29:55Z</time>
</trkpt>
<trkpt lat="48.90795129351318" lon="9.779720306396484">
<ele>437</ele>
<time>2024-05-07T10:29:56Z</time>
</trkpt>
<trkpt lat="48.908000914379954" lon="9.77966875769198">
<ele>437</ele>
<time>2024-05-07T10:29:57Z</time>
</trkpt>
<trkpt lat="48.90805430710316" lon="9.77960966527462">
<ele>436.8</ele>
<time>2024-05-07T10:29:58Z</time>
</trkpt>
<trkpt lat="48.908100072294474" lon="9.779555266723037">
<ele>436.8</ele>
<time>2024-05-07T10:29:59Z</time>
</trkpt>
<trkpt lat="48.90814969316125" lon="9.779498018324375">
<ele>436.6</ele>
<time>2024-05-07T10:30:00Z</time>
</trkpt>
<trkpt lat="48.90819160267711" lon="9.779441775754094">
<ele>436.4</ele>
<time>2024-05-07T10:30:01Z</time>
</trkpt>
<trkpt lat="48.90822982415557" lon="9.779384611174464">
<ele>436.4</ele>
<time>2024-05-07T10:30:02Z</time>
</trkpt>
<trkpt lat="48.908267961815" lon="9.77933021262288">
<ele>436.2</ele>
<time>2024-05-07T10:30:03Z</time>
</trkpt>
<trkpt lat="48.908298471942544" lon="9.77927296422422">
<ele>436.2</ele>
<time>2024-05-07T10:30:04Z</time>
</trkpt>
<trkpt lat="48.90832898207009" lon="9.77921194396913">
<ele>436.2</ele>
<time>2024-05-07T10:30:05Z</time>
</trkpt>
<trkpt lat="48.90835949219763" lon="9.77915377356112">
<ele>436</ele>
<time>2024-05-07T10:30:06Z</time>
</trkpt>
<trkpt lat="48.90838623046875" lon="9.77909367531538">
<ele>436</ele>
<time>2024-05-07T10:30:07Z</time>
</trkpt>
<trkpt lat="48.908412884920835" lon="9.779031733050942">
<ele>436</ele>
<time>2024-05-07T10:30:08Z</time>
</trkpt>
<trkpt lat="48.90843962319195" lon="9.778969706967471">
<ele>436</ele>
<time>2024-05-07T10:30:09Z</time>
</trkpt>
<trkpt lat="48.90846627764404" lon="9.778908686712384">
<ele>436.2</ele>
<time>2024-05-07T10:30:10Z</time>
</trkpt>
<trkpt lat="48.908493015915155" lon="9.778844816610215">
<ele>436.2</ele>
<time>2024-05-07T10:30:11Z</time>
</trkpt>
<trkpt lat="48.908515898510814" lon="9.778784718364475">
<ele>436.4</ele>
<time>2024-05-07T10:30:12Z</time>
</trkpt>
<trkpt lat="48.9085425529629" lon="9.778724620118735">
<ele>436.6</ele>
<time>2024-05-07T10:30:13Z</time>
</trkpt>
<trkpt lat="48.908569291234016" lon="9.778664521872996">
<ele>436.6</ele>
<time>2024-05-07T10:30:14Z</time>
</trkpt>
<trkpt lat="48.908592173829675" lon="9.778603501617908">
<ele>436.8</ele>
<time>2024-05-07T10:30:15Z</time>
</trkpt>
<trkpt lat="48.90861891210079" lon="9.77854155935347">
<ele>436.8</ele>
<time>2024-05-07T10:30:16Z</time>
</trkpt>
<trkpt lat="48.90864556655288" lon="9.778478611260653">
<ele>437</ele>
<time>2024-05-07T10:30:17Z</time>
</trkpt>
<trkpt lat="48.908668449148536" lon="9.778416585177183">
<ele>437</ele>
<time>2024-05-07T10:30:18Z</time>
</trkpt>
<trkpt lat="48.90869518741965" lon="9.778354642912744">
<ele>437</ele>
<time>2024-05-07T10:30:19Z</time>
</trkpt>
<trkpt lat="48.90872184187174" lon="9.778293538838623">
<ele>437.2</ele>
<time>2024-05-07T10:30:20Z</time>
</trkpt>
<trkpt lat="48.90874480828643" lon="9.778231596574187">
<ele>437.2</ele>
<time>2024-05-07T10:30:21Z</time>
</trkpt>
<trkpt lat="48.908771462738514" lon="9.778169570490718">
<ele>437.2</ele>
<time>2024-05-07T10:30:22Z</time>
</trkpt>
<trkpt lat="48.90879820100963" lon="9.77811047807336">
<ele>437.2</ele>
<time>2024-05-07T10:30:23Z</time>
</trkpt>
<trkpt lat="48.90882108360529" lon="9.778051301836967">
<ele>437.2</ele>
<time>2024-05-07T10:30:24Z</time>
</trkpt>
<trkpt lat="48.908847738057375" lon="9.777995059266686">
<ele>437.4</ele>
<time>2024-05-07T10:30:25Z</time>
</trkpt>
<trkpt lat="48.90887062065303" lon="9.777936888858676">
<ele>437.4</ele>
<time>2024-05-07T10:30:26Z</time>
</trkpt>
<trkpt lat="48.90889350324869" lon="9.777876790612936">
<ele>437.6</ele>
<time>2024-05-07T10:30:27Z</time>
</trkpt>
<trkpt lat="48.90891646966338" lon="9.777816692367196">
<ele>437.8</ele>
<time>2024-05-07T10:30:28Z</time>
</trkpt>
<trkpt lat="48.90894312411547" lon="9.777754750102758">
<ele>438</ele>
<time>2024-05-07T10:30:29Z</time>
</trkpt>
<trkpt lat="48.908966006711125" lon="9.777694651857018">
<ele>438.2</ele>
<time>2024-05-07T10:30:30Z</time>
</trkpt>
<trkpt lat="48.908988889306784" lon="9.77763363160193">
<ele>438.2</ele>
<time>2024-05-07T10:30:31Z</time>
</trkpt>
<trkpt lat="48.9090156275779" lon="9.77757453918457">
<ele>438.4</ele>
<time>2024-05-07T10:30:32Z</time>
</trkpt>
<trkpt lat="48.909042282029986" lon="9.777516284957528">
<ele>438.4</ele>
<time>2024-05-07T10:30:33Z</time>
</trkpt>
<trkpt lat="48.90907287597656" lon="9.777460042387249">
<ele>438.6</ele>
<time>2024-05-07T10:30:34Z</time>
</trkpt>
<trkpt lat="48.90909953042865" lon="9.777402877807615">
<ele>438.6</ele>
<time>2024-05-07T10:30:35Z</time>
</trkpt>
<trkpt lat="48.90913004055619" lon="9.777350407093763">
<ele>438.6</ele>
<time>2024-05-07T10:30:36Z</time>
</trkpt>
<trkpt lat="48.90916055068374" lon="9.77729793637991">
<ele>438.8</ele>
<time>2024-05-07T10:30:37Z</time>
</trkpt>
<trkpt lat="48.90919106081128" lon="9.777248315513134">
<ele>438.8</ele>
<time>2024-05-07T10:30:38Z</time>
</trkpt>
<trkpt lat="48.909221570938826" lon="9.77719685062766">
<ele>438.8</ele>
<time>2024-05-07T10:30:39Z</time>
</trkpt>
<trkpt lat="48.9092521648854" lon="9.777146307751536">
<ele>438.8</ele>
<time>2024-05-07T10:30:40Z</time>
</trkpt>
<trkpt lat="48.909282675012946" lon="9.77709953673184">
<ele>438.8</ele>
<time>2024-05-07T10:30:41Z</time>
</trkpt>
<trkpt lat="48.90931318514049" lon="9.777053771540524">
<ele>439</ele>
<time>2024-05-07T10:30:42Z</time>
</trkpt>
<trkpt lat="48.90934746712446" lon="9.777005156502128">
<ele>439</ele>
<time>2024-05-07T10:30:43Z</time>
</trkpt>
<trkpt lat="48.909381832927465" lon="9.77695838548243">
<ele>439.2</ele>
<time>2024-05-07T10:30:44Z</time>
</trkpt>
<trkpt lat="48.90941619873047" lon="9.776911698281763">
<ele>439.2</ele>
<time>2024-05-07T10:30:45Z</time>
</trkpt>
<trkpt lat="48.90944670885801" lon="9.776866855099795">
<ele>439.4</ele>
<time>2024-05-07T10:30:46Z</time>
</trkpt>
<trkpt lat="48.90948484651744" lon="9.77682201191783">
<ele>439.4</ele>
<time>2024-05-07T10:30:47Z</time>
</trkpt>
<trkpt lat="48.90951535664499" lon="9.776778174564242">
<ele>439.4</ele>
<time>2024-05-07T10:30:48Z</time>
</trkpt>
<trkpt lat="48.90955349430442" lon="9.776733331382276">
<ele>439.6</ele>
<time>2024-05-07T10:30:49Z</time>
</trkpt>
<trkpt lat="48.90958786010742" lon="9.776689494028687">
<ele>439.6</ele>
<time>2024-05-07T10:30:50Z</time>
</trkpt>
<trkpt lat="48.90962214209139" lon="9.776650350540876">
<ele>439.6</ele>
<time>2024-05-07T10:30:51Z</time>
</trkpt>
<trkpt lat="48.9096565078944" lon="9.77660844102502">
<ele>439.6</ele>
<time>2024-05-07T10:30:52Z</time>
</trkpt>
<trkpt lat="48.90969078987837" lon="9.77656644769013">
<ele>439.6</ele>
<time>2024-05-07T10:30:53Z</time>
</trkpt>
<trkpt lat="48.90972515568137" lon="9.77652638219297">
<ele>439.6</ele>
<time>2024-05-07T10:30:54Z</time>
</trkpt>
<trkpt lat="48.909759521484375" lon="9.776483466848733">
<ele>439.8</ele>
<time>2024-05-07T10:30:55Z</time>
</trkpt>
<trkpt lat="48.90979003161192" lon="9.776439629495144">
<ele>439.8</ele>
<time>2024-05-07T10:30:56Z</time>
</trkpt>
<trkpt lat="48.90982431359589" lon="9.776396714150906">
<ele>440</ele>
<time>2024-05-07T10:30:57Z</time>
</trkpt>
<trkpt lat="48.909854823723435" lon="9.776354720816016">
<ele>440</ele>
<time>2024-05-07T10:30:58Z</time>
</trkpt>
<trkpt lat="48.90988918952644" lon="9.776316583156586">
<ele>440.2</ele>
<time>2024-05-07T10:30:59Z</time>
</trkpt>
<trkpt lat="48.90991969965398" lon="9.776276517659426">
<ele>440.4</ele>
<time>2024-05-07T10:31:00Z</time>
</trkpt>
<trkpt lat="48.909954065456986" lon="9.776234608143568">
<ele>440.4</ele>
<time>2024-05-07T10:31:01Z</time>
</trkpt>
<trkpt lat="48.90998834744096" lon="9.776193536818027">
<ele>440.4</ele>
<time>2024-05-07T10:31:02Z</time>
</trkpt>
<trkpt lat="48.9100188575685" lon="9.77614969946444">
<ele>440.6</ele>
<time>2024-05-07T10:31:03Z</time>
</trkpt>
<trkpt lat="48.91004936769605" lon="9.776106784120202">
<ele>440.6</ele>
<time>2024-05-07T10:31:04Z</time>
</trkpt>
<trkpt lat="48.91007987782359" lon="9.776062946766617">
<ele>440.8</ele>
<time>2024-05-07T10:31:05Z</time>
</trkpt>
<trkpt lat="48.91011047177017" lon="9.776020031422377">
<ele>441</ele>
<time>2024-05-07T10:31:06Z</time>
</trkpt>
<trkpt lat="48.91014098189771" lon="9.775979965925217">
<ele>441.2</ele>
<time>2024-05-07T10:31:07Z</time>
</trkpt>
<trkpt lat="48.910171492025256" lon="9.775939900428057">
<ele>441.2</ele>
<time>2024-05-07T10:31:08Z</time>
</trkpt>
<trkpt lat="48.91019814647734" lon="9.775897907093167">
<ele>441.4</ele>
<time>2024-05-07T10:31:09Z</time>
</trkpt>
<trkpt lat="48.910228656604886" lon="9.775853147730231">
<ele>441.4</ele>
<time>2024-05-07T10:31:10Z</time>
</trkpt>
<trkpt lat="48.91025916673243" lon="9.775806376710534">
<ele>441.6</ele>
<time>2024-05-07T10:31:11Z</time>
</trkpt>
<trkpt lat="48.91028976067901" lon="9.775761533528566">
<ele>441.6</ele>
<time>2024-05-07T10:31:12Z</time>
</trkpt>
<trkpt lat="48.91031641513109" lon="9.77571677416563">
<ele>441.8</ele>
<time>2024-05-07T10:31:13Z</time>
</trkpt>
<trkpt lat="48.91034692525864" lon="9.775668075308204">
<ele>441.8</ele>
<time>2024-05-07T10:31:14Z</time>
</trkpt>
<trkpt lat="48.91037743538618" lon="9.775621388107538">
<ele>441.8</ele>
<time>2024-05-07T10:31:15Z</time>
</trkpt>
<trkpt lat="48.9104041736573" lon="9.775573695078492">
<ele>441.8</ele>
<time>2024-05-07T10:31:16Z</time>
</trkpt>
<trkpt lat="48.910430828109384" lon="9.775526924058797">
<ele>441.8</ele>
<time>2024-05-07T10:31:17Z</time>
</trkpt>
<trkpt lat="48.9104575663805" lon="9.77548023685813">
<ele>441.8</ele>
<time>2024-05-07T10:31:18Z</time>
</trkpt>
<trkpt lat="48.91048430465162" lon="9.775429693982003">
<ele>441.8</ele>
<time>2024-05-07T10:31:19Z</time>
</trkpt>
<trkpt lat="48.9105109591037" lon="9.775382922962308">
<ele>442</ele>
<time>2024-05-07T10:31:20Z</time>
</trkpt>
<trkpt lat="48.91053769737482" lon="9.775335229933262">
<ele>442</ele>
<time>2024-05-07T10:31:21Z</time>
</trkpt>
<trkpt lat="48.910564351826906" lon="9.775286614894869">
<ele>441.8</ele>
<time>2024-05-07T10:31:22Z</time>
</trkpt>
<trkpt lat="48.910587234422565" lon="9.775237077847123">
<ele>441.8</ele>
<time>2024-05-07T10:31:23Z</time>
</trkpt>
<trkpt lat="48.91061397269368" lon="9.775188378989697">
<ele>442</ele>
<time>2024-05-07T10:31:24Z</time>
</trkpt>
<trkpt lat="48.91063685528934" lon="9.775136914104223">
<ele>442</ele>
<time>2024-05-07T10:31:25Z</time>
</trkpt>
<trkpt lat="48.91066359356046" lon="9.77508352138102">
<ele>442</ele>
<time>2024-05-07T10:31:26Z</time>
</trkpt>
<trkpt lat="48.910686476156116" lon="9.775032978504896">
<ele>442</ele>
<time>2024-05-07T10:31:27Z</time>
</trkpt>
<trkpt lat="48.9107131306082" lon="9.774979585781692">
<ele>442.2</ele>
<time>2024-05-07T10:31:28Z</time>
</trkpt>
<trkpt lat="48.91073986887932" lon="9.77492711506784">
<ele>442.2</ele>
<time>2024-05-07T10:31:29Z</time>
</trkpt>
<trkpt lat="48.91076275147498" lon="9.774869866669178">
<ele>442.4</ele>
<time>2024-05-07T10:31:30Z</time>
</trkpt>
<trkpt lat="48.910781778395176" lon="9.774813624098895">
<ele>442.4</ele>
<time>2024-05-07T10:31:31Z</time>
</trkpt>
<trkpt lat="48.910804744809866" lon="9.774758303537965">
<ele>442.6</ele>
<time>2024-05-07T10:31:32Z</time>
</trkpt>
<trkpt lat="48.91083139926195" lon="9.774702060967684">
<ele>442.6</ele>
<time>2024-05-07T10:31:33Z</time>
</trkpt>
<trkpt lat="48.91085428185761" lon="9.774644812569022">
<ele>442.8</ele>
<time>2024-05-07T10:31:34Z</time>
</trkpt>
<trkpt lat="48.91088102012873" lon="9.77459141984582">
<ele>442.8</ele>
<time>2024-05-07T10:31:35Z</time>
</trkpt>
<trkpt lat="48.910900047048926" lon="9.774537021294236">
<ele>442.8</ele>
<time>2024-05-07T10:31:36Z</time>
</trkpt>
<trkpt lat="48.91092678532005" lon="9.774477928876877">
<ele>443</ele>
<time>2024-05-07T10:31:37Z</time>
</trkpt>
<trkpt lat="48.91094581224024" lon="9.774419758468866">
<ele>443</ele>
<time>2024-05-07T10:31:38Z</time>
</trkpt>
<trkpt lat="48.91096877865493" lon="9.774359660223126">
<ele>443</ele>
<time>2024-05-07T10:31:39Z</time>
</trkpt>
<trkpt lat="48.91098780557513" lon="9.774303417652844">
<ele>443</ele>
<time>2024-05-07T10:31:40Z</time>
</trkpt>
<trkpt lat="48.911003060638905" lon="9.774245247244837">
<ele>443</ele>
<time>2024-05-07T10:31:41Z</time>
</trkpt>
<trkpt lat="48.911022171378136" lon="9.774187998846172">
<ele>443.2</ele>
<time>2024-05-07T10:31:42Z</time>
</trkpt>
<trkpt lat="48.911041198298335" lon="9.774129828438165">
<ele>443.4</ele>
<time>2024-05-07T10:31:43Z</time>
</trkpt>
<trkpt lat="48.91105645336211" lon="9.774073585867882">
<ele>443.4</ele>
<time>2024-05-07T10:31:44Z</time>
</trkpt>
<trkpt lat="48.91107556410134" lon="9.774015415459871">
<ele>443.6</ele>
<time>2024-05-07T10:31:45Z</time>
</trkpt>
<trkpt lat="48.91109081916511" lon="9.77395623922348">
<ele>443.6</ele>
<time>2024-05-07T10:31:46Z</time>
</trkpt>
<trkpt lat="48.91110607422888" lon="9.77389806881547">
<ele>443.8</ele>
<time>2024-05-07T10:31:47Z</time>
</trkpt>
<trkpt lat="48.91112510114908" lon="9.77383989840746">
<ele>443.8</ele>
<time>2024-05-07T10:31:48Z</time>
</trkpt>
<trkpt lat="48.91113658435643" lon="9.77377980016172">
<ele>443.8</ele>
<time>2024-05-07T10:31:49Z</time>
</trkpt>
<trkpt lat="48.9111518394202" lon="9.773719785735013">
<ele>444</ele>
<time>2024-05-07T10:31:50Z</time>
</trkpt>
<trkpt lat="48.91116709448397" lon="9.773659687489271">
<ele>444</ele>
<time>2024-05-07T10:31:51Z</time>
</trkpt>
<trkpt lat="48.911182349547744" lon="9.773599589243531">
<ele>444</ele>
<time>2024-05-07T10:31:52Z</time>
</trkpt>
<trkpt lat="48.91119760461152" lon="9.77354141883552">
<ele>444</ele>
<time>2024-05-07T10:31:53Z</time>
</trkpt>
<trkpt lat="48.91120908781886" lon="9.77348132058978">
<ele>444</ele>
<time>2024-05-07T10:31:54Z</time>
</trkpt>
<trkpt lat="48.911220487207174" lon="9.77342315018177">
<ele>444</ele>
<time>2024-05-07T10:31:55Z</time>
</trkpt>
<trkpt lat="48.91123574227095" lon="9.77336305193603">
<ele>444.2</ele>
<time>2024-05-07T10:31:56Z</time>
</trkpt>
<trkpt lat="48.91124722547829" lon="9.77330295369029">
<ele>444.2</ele>
<time>2024-05-07T10:31:57Z</time>
</trkpt>
<trkpt lat="48.911258624866605" lon="9.773241933435202">
<ele>444.2</ele>
<time>2024-05-07T10:31:58Z</time>
</trkpt>
<trkpt lat="48.91127010807395" lon="9.773181835189462">
<ele>444.2</ele>
<time>2024-05-07T10:31:59Z</time>
</trkpt>
<trkpt lat="48.91128150746226" lon="9.773121820762752">
<ele>444.2</ele>
<time>2024-05-07T10:32:00Z</time>
</trkpt>
<trkpt lat="48.911296762526035" lon="9.773059794679284">
<ele>444.2</ele>
<time>2024-05-07T10:32:01Z</time>
</trkpt>
<trkpt lat="48.91131210140884" lon="9.772996846586466">
<ele>444.2</ele>
<time>2024-05-07T10:32:02Z</time>
</trkpt>
<trkpt lat="48.91132350079715" lon="9.772931970655918">
<ele>444</ele>
<time>2024-05-07T10:32:03Z</time>
</trkpt>
<trkpt lat="48.911338755860925" lon="9.772866172716022">
<ele>444</ele>
<time>2024-05-07T10:32:04Z</time>
</trkpt>
<trkpt lat="48.9113540109247" lon="9.772803224623203">
<ele>444</ele>
<time>2024-05-07T10:32:05Z</time>
</trkpt>
<trkpt lat="48.91137312166393" lon="9.772740360349417">
<ele>444</ele>
<time>2024-05-07T10:32:06Z</time>
</trkpt>
<trkpt lat="48.9113883767277" lon="9.772676406428218">
<ele>444</ele>
<time>2024-05-07T10:32:07Z</time>
</trkpt>
<trkpt lat="48.91140363179147" lon="9.772611614316702">
<ele>444</ele>
<time>2024-05-07T10:32:08Z</time>
</trkpt>
<trkpt lat="48.911418886855245" lon="9.772549588233232">
<ele>444</ele>
<time>2024-05-07T10:32:09Z</time>
</trkpt>
<trkpt lat="48.91143414191902" lon="9.772481862455606">
<ele>444</ele>
<time>2024-05-07T10:32:10Z</time>
</trkpt>
<trkpt lat="48.91144939698279" lon="9.77241698652506">
<ele>444</ele>
<time>2024-05-07T10:32:11Z</time>
</trkpt>
<trkpt lat="48.91146842390299" lon="9.772350266575812">
<ele>444</ele>
<time>2024-05-07T10:32:12Z</time>
</trkpt>
<trkpt lat="48.91147990711033" lon="9.772283546626568">
<ele>444</ele>
<time>2024-05-07T10:32:13Z</time>
</trkpt>
<trkpt lat="48.911499017849565" lon="9.77221674285829">
<ele>444</ele>
<time>2024-05-07T10:32:14Z</time>
</trkpt>
<trkpt lat="48.91151427291334" lon="9.772150022909043">
<ele>444</ele>
<time>2024-05-07T10:32:15Z</time>
</trkpt>
<trkpt lat="48.91152952797711" lon="9.77208137512207">
<ele>444</ele>
<time>2024-05-07T10:32:16Z</time>
</trkpt>
<trkpt lat="48.91154478304088" lon="9.772013649344444">
<ele>444</ele>
<time>2024-05-07T10:32:17Z</time>
</trkpt>
<trkpt lat="48.91156003810465" lon="9.771944917738438">
<ele>444</ele>
<time>2024-05-07T10:32:18Z</time>
</trkpt>
<trkpt lat="48.91157906502485" lon="9.771875347942114">
<ele>444</ele>
<time>2024-05-07T10:32:19Z</time>
</trkpt>
<trkpt lat="48.911594320088625" lon="9.77180477231741">
<ele>444</ele>
<time>2024-05-07T10:32:20Z</time>
</trkpt>
<trkpt lat="48.9116095751524" lon="9.771737046539783">
<ele>444</ele>
<time>2024-05-07T10:32:21Z</time>
</trkpt>
<trkpt lat="48.91162483021617" lon="9.77166647091508">
<ele>443.8</ele>
<time>2024-05-07T10:32:22Z</time>
</trkpt>
<trkpt lat="48.91164008527994" lon="9.771598745137451">
<ele>443.8</ele>
<time>2024-05-07T10:32:23Z</time>
</trkpt>
<trkpt lat="48.911655424162745" lon="9.771528169512749">
<ele>443.8</ele>
<time>2024-05-07T10:32:24Z</time>
</trkpt>
<trkpt lat="48.911674451082945" lon="9.771459521725774">
<ele>443.6</ele>
<time>2024-05-07T10:32:25Z</time>
</trkpt>
<trkpt lat="48.91168970614672" lon="9.77138995192945">
<ele>443.6</ele>
<time>2024-05-07T10:32:26Z</time>
</trkpt>
<trkpt lat="48.91170881688595" lon="9.771321220323443">
<ele>443.6</ele>
<time>2024-05-07T10:32:27Z</time>
</trkpt>
<trkpt lat="48.91172407194972" lon="9.77125165052712">
<ele>443.6</ele>
<time>2024-05-07T10:32:28Z</time>
</trkpt>
<trkpt lat="48.91173932701349" lon="9.771181996911764">
<ele>443.6</ele>
<time>2024-05-07T10:32:29Z</time>
</trkpt>
<trkpt lat="48.911754582077265" lon="9.77111334912479">
<ele>443.6</ele>
<time>2024-05-07T10:32:30Z</time>
</trkpt>
<trkpt lat="48.91176983714104" lon="9.771046629175544">
<ele>443.6</ele>
<time>2024-05-07T10:32:31Z</time>
</trkpt>
<trkpt lat="48.91178886406123" lon="9.770977897569535">
<ele>443.6</ele>
<time>2024-05-07T10:32:32Z</time>
</trkpt>
<trkpt lat="48.91180411912501" lon="9.77091209962964">
<ele>443.8</ele>
<time>2024-05-07T10:32:33Z</time>
</trkpt>
<trkpt lat="48.91181945800781" lon="9.770845379680395">
<ele>443.8</ele>
<time>2024-05-07T10:32:34Z</time>
</trkpt>
<trkpt lat="48.911834713071585" lon="9.77077673189342">
<ele>444</ele>
<time>2024-05-07T10:32:35Z</time>
</trkpt>
<trkpt lat="48.91184996813536" lon="9.770706156268716">
<ele>444.2</ele>
<time>2024-05-07T10:32:36Z</time>
</trkpt>
<trkpt lat="48.91186522319913" lon="9.77063650265336">
<ele>444.2</ele>
<time>2024-05-07T10:32:37Z</time>
</trkpt>
<trkpt lat="48.9118804782629" lon="9.770566932857037">
<ele>444.4</ele>
<time>2024-05-07T10:32:38Z</time>
</trkpt>
<trkpt lat="48.91189573332667" lon="9.770496357232332">
<ele>444.4</ele>
<time>2024-05-07T10:32:39Z</time>
</trkpt>
<trkpt lat="48.91190713271499" lon="9.770426703616977">
<ele>444.6</ele>
<time>2024-05-07T10:32:40Z</time>
</trkpt>
<trkpt lat="48.91192238777876" lon="9.77035705000162">
<ele>444.6</ele>
<time>2024-05-07T10:32:41Z</time>
</trkpt>
<trkpt lat="48.91194149851799" lon="9.770286558195949">
<ele>444.8</ele>
<time>2024-05-07T10:32:42Z</time>
</trkpt>
<trkpt lat="48.91195675358176" lon="9.770217826589942">
<ele>444.8</ele>
<time>2024-05-07T10:32:43Z</time>
</trkpt>
<trkpt lat="48.911972008645535" lon="9.770150184631348">
<ele>444.8</ele>
<time>2024-05-07T10:32:44Z</time>
</trkpt>
<trkpt lat="48.91198726370931" lon="9.77008145302534">
<ele>444.8</ele>
<time>2024-05-07T10:32:45Z</time>
</trkpt>
<trkpt lat="48.91200251877308" lon="9.770014733076096">
<ele>444.8</ele>
<time>2024-05-07T10:32:46Z</time>
</trkpt>
<trkpt lat="48.91202162951231" lon="9.769947929307818">
<ele>444.8</ele>
<time>2024-05-07T10:32:47Z</time>
</trkpt>
<trkpt lat="48.91204451210797" lon="9.769881209358571">
<ele>445</ele>
<time>2024-05-07T10:32:48Z</time>
</trkpt>
<trkpt lat="48.91205976717174" lon="9.769811555743216">
<ele>445</ele>
<time>2024-05-07T10:32:49Z</time>
</trkpt>
<trkpt lat="48.91207502223551" lon="9.769742907956244">
<ele>445</ele>
<time>2024-05-07T10:32:50Z</time>
</trkpt>
<trkpt lat="48.91209404915571" lon="9.769678115844728">
<ele>445</ele>
<time>2024-05-07T10:32:51Z</time>
</trkpt>
<trkpt lat="48.91210930421949" lon="9.769617011770606">
<ele>445</ele>
<time>2024-05-07T10:32:52Z</time>
</trkpt>
<trkpt lat="48.912128414958715" lon="9.769555069506168">
<ele>445</ele>
<time>2024-05-07T10:32:53Z</time>
</trkpt>
<trkpt lat="48.912151297554374" lon="9.769488265737891">
<ele>445</ele>
<time>2024-05-07T10:32:54Z</time>
</trkpt>
<trkpt lat="48.912170408293605" lon="9.769419617950916">
<ele>445</ele>
<time>2024-05-07T10:32:55Z</time>
</trkpt>
<trkpt lat="48.91218943521381" lon="9.769350048154593">
<ele>445</ele>
<time>2024-05-07T10:32:56Z</time>
</trkpt>
<trkpt lat="48.912208545953035" lon="9.769283244386315">
<ele>445.2</ele>
<time>2024-05-07T10:32:57Z</time>
</trkpt>
<trkpt lat="48.912227572873235" lon="9.76921652443707">
<ele>445.2</ele>
<time>2024-05-07T10:32:58Z</time>
</trkpt>
<trkpt lat="48.912246683612466" lon="9.769147792831063">
<ele>445.2</ele>
<time>2024-05-07T10:32:59Z</time>
</trkpt>
<trkpt lat="48.91226956620813" lon="9.769081994891168">
<ele>445.2</ele>
<time>2024-05-07T10:33:00Z</time>
</trkpt>
<trkpt lat="48.91228859312832" lon="9.76901527494192">
<ele>445.2</ele>
<time>2024-05-07T10:33:01Z</time>
</trkpt>
<trkpt lat="48.91231147572398" lon="9.768946627154946">
<ele>445.2</ele>
<time>2024-05-07T10:33:02Z</time>
</trkpt>
<trkpt lat="48.912326730787754" lon="9.76887982338667">
<ele>445.2</ele>
<time>2024-05-07T10:33:03Z</time>
</trkpt>
<trkpt lat="48.912345841526985" lon="9.768816875293853">
<ele>445.4</ele>
<time>2024-05-07T10:33:04Z</time>
</trkpt>
<trkpt lat="48.912364952266216" lon="9.76875971071422">
<ele>445.4</ele>
<time>2024-05-07T10:33:05Z</time>
</trkpt>
<trkpt lat="48.91238020732999" lon="9.768705312162638">
<ele>445.6</ele>
<time>2024-05-07T10:33:06Z</time>
</trkpt>
<trkpt lat="48.91240308992565" lon="9.768646219745278">
<ele>445.6</ele>
<time>2024-05-07T10:33:07Z</time>
</trkpt>
<trkpt lat="48.91241834498942" lon="9.768591821193697">
<ele>445.6</ele>
<time>2024-05-07T10:33:08Z</time>
</trkpt>
<trkpt lat="48.91243360005319" lon="9.768533650785685">
<ele>445.6</ele>
<time>2024-05-07T10:33:09Z</time>
</trkpt>
<trkpt lat="48.91245648264885" lon="9.76846693083644">
<ele>445.8</ele>
<time>2024-05-07T10:33:10Z</time>
</trkpt>
<trkpt lat="48.91247936524451" lon="9.768398283049464">
<ele>445.8</ele>
<time>2024-05-07T10:33:11Z</time>
</trkpt>
<trkpt lat="48.91249839216471" lon="9.768331479281189">
<ele>446</ele>
<time>2024-05-07T10:33:12Z</time>
</trkpt>
<trkpt lat="48.9125213585794" lon="9.768264759331942">
<ele>446</ele>
<time>2024-05-07T10:33:13Z</time>
</trkpt>
<trkpt lat="48.912544241175056" lon="9.768195105716586">
<ele>446</ele>
<time>2024-05-07T10:33:14Z</time>
</trkpt>
<trkpt lat="48.912563268095255" lon="9.768130229786038">
<ele>446</ele>
<time>2024-05-07T10:33:15Z</time>
</trkpt>
<trkpt lat="48.912582378834486" lon="9.7680682875216">
<ele>446</ele>
<time>2024-05-07T10:33:16Z</time>
</trkpt>
<trkpt lat="48.91260903328657" lon="9.76800818927586">
<ele>446</ele>
<time>2024-05-07T10:33:17Z</time>
</trkpt>
<trkpt lat="48.91263191588223" lon="9.767941469326615">
<ele>446.2</ele>
<time>2024-05-07T10:33:18Z</time>
</trkpt>
<trkpt lat="48.91265865415335" lon="9.76787374354899">
<ele>446.2</ele>
<time>2024-05-07T10:33:19Z</time>
</trkpt>
<trkpt lat="48.912681536749005" lon="9.767800318077208">
<ele>446.2</ele>
<time>2024-05-07T10:33:20Z</time>
</trkpt>
<trkpt lat="48.912704419344664" lon="9.767726892605424">
<ele>446.4</ele>
<time>2024-05-07T10:33:21Z</time>
</trkpt>
<trkpt lat="48.91272730194032" lon="9.76765631698072">
<ele>446.4</ele>
<time>2024-05-07T10:33:22Z</time>
</trkpt>
<trkpt lat="48.91275018453598" lon="9.767588591203094">
<ele>446.6</ele>
<time>2024-05-07T10:33:23Z</time>
</trkpt>
<trkpt lat="48.9127769228071" lon="9.76751801557839">
<ele>446.6</ele>
<time>2024-05-07T10:33:24Z</time>
</trkpt>
<trkpt lat="48.91279980540275" lon="9.767448361963034">
<ele>446.6</ele>
<time>2024-05-07T10:33:25Z</time>
</trkpt>
<trkpt lat="48.912822687998414" lon="9.767383569851518">
<ele>446.6</ele>
<time>2024-05-07T10:33:26Z</time>
</trkpt>
<trkpt lat="48.91284171491861" lon="9.76731961593032">
<ele>446.6</ele>
<time>2024-05-07T10:33:27Z</time>
</trkpt>
<trkpt lat="48.91286845318973" lon="9.767252895981072">
<ele>446.6</ele>
<time>2024-05-07T10:33:28Z</time>
</trkpt>
<trkpt lat="48.91289133578539" lon="9.767188020050526">
<ele>446.6</ele>
<time>2024-05-07T10:33:29Z</time>
</trkpt>
<trkpt lat="48.912918074056506" lon="9.767123144119978">
<ele>446.6</ele>
<time>2024-05-07T10:33:30Z</time>
</trkpt>
<trkpt lat="48.91294472850859" lon="9.76706312969327">
<ele>446.6</ele>
<time>2024-05-07T10:33:31Z</time>
</trkpt>
<trkpt lat="48.91297146677971" lon="9.76700303144753">
<ele>446.6</ele>
<time>2024-05-07T10:33:32Z</time>
</trkpt>
<trkpt lat="48.912998121231794" lon="9.766946788877249">
<ele>446.4</ele>
<time>2024-05-07T10:33:33Z</time>
</trkpt>
<trkpt lat="48.91302871517837" lon="9.766889540478587">
<ele>446.4</ele>
<time>2024-05-07T10:33:34Z</time>
</trkpt>
<trkpt lat="48.913059225305915" lon="9.766835141927004">
<ele>446.4</ele>
<time>2024-05-07T10:33:35Z</time>
</trkpt>
<trkpt lat="48.91308973543346" lon="9.76678367704153">
<ele>446.4</ele>
<time>2024-05-07T10:33:36Z</time>
</trkpt>
<trkpt lat="48.913116389885545" lon="9.766735062003136">
<ele>446.4</ele>
<time>2024-05-07T10:33:37Z</time>
</trkpt>
<trkpt lat="48.91315075568855" lon="9.76668544113636">
<ele>446.4</ele>
<time>2024-05-07T10:33:38Z</time>
</trkpt>
<trkpt lat="48.91318503767252" lon="9.766639675945044">
<ele>446.4</ele>
<time>2024-05-07T10:33:39Z</time>
</trkpt>
<trkpt lat="48.91321940347552" lon="9.766594832763076">
<ele>446.2</ele>
<time>2024-05-07T10:33:40Z</time>
</trkpt>
<trkpt lat="48.913253769278526" lon="9.766551917418838">
<ele>446.2</ele>
<time>2024-05-07T10:33:41Z</time>
</trkpt>
<trkpt lat="48.91329190693796" lon="9.766511851921678">
<ele>446.2</ele>
<time>2024-05-07T10:33:42Z</time>
</trkpt>
<trkpt lat="48.91332618892193" lon="9.766467092558742">
<ele>446.4</ele>
<time>2024-05-07T10:33:43Z</time>
</trkpt>
<trkpt lat="48.91336055472493" lon="9.766427027061582">
<ele>446.4</ele>
<time>2024-05-07T10:33:44Z</time>
</trkpt>
<trkpt lat="48.91339869238436" lon="9.7663898114115">
<ele>446.6</ele>
<time>2024-05-07T10:33:45Z</time>
</trkpt>
<trkpt lat="48.913433058187366" lon="9.76635167375207">
<ele>446.6</ele>
<time>2024-05-07T10:33:46Z</time>
</trkpt>
<trkpt lat="48.9134711958468" lon="9.766323007643225">
<ele>446.8</ele>
<time>2024-05-07T10:33:47Z</time>
</trkpt>
<trkpt lat="48.91350547783077" lon="9.766296353191136">
<ele>447</ele>
<time>2024-05-07T10:33:48Z</time>
</trkpt>
<trkpt lat="48.91354369930923" lon="9.76626961492002">
<ele>447</ele>
<time>2024-05-07T10:33:49Z</time>
</trkpt>
<trkpt lat="48.91358183696866" lon="9.766241954639554">
<ele>447.2</ele>
<time>2024-05-07T10:33:50Z</time>
</trkpt>
<trkpt lat="48.91361997462809" lon="9.766218150034549">
<ele>447.2</ele>
<time>2024-05-07T10:33:51Z</time>
</trkpt>
<trkpt lat="48.91365425661206" lon="9.766195267438889">
<ele>447.4</ele>
<time>2024-05-07T10:33:52Z</time>
</trkpt>
<trkpt lat="48.91369239427149" lon="9.76617330685258">
<ele>447.4</ele>
<time>2024-05-07T10:33:53Z</time>
</trkpt>
<trkpt lat="48.913726760074496" lon="9.766155201941729">
<ele>447.6</ele>
<time>2024-05-07T10:33:54Z</time>
</trkpt>
<trkpt lat="48.91376489773393" lon="9.766136091202496">
<ele>447.8</ele>
<time>2024-05-07T10:33:55Z</time>
</trkpt>
<trkpt lat="48.91380303539336" lon="9.766117986291649">
<ele>447.8</ele>
<time>2024-05-07T10:33:56Z</time>
</trkpt>
<trkpt lat="48.91384117305279" lon="9.766101809218526">
<ele>448</ele>
<time>2024-05-07T10:33:57Z</time>
</trkpt>
<trkpt lat="48.91387553885579" lon="9.766088481992483">
<ele>448.4</ele>
<time>2024-05-07T10:33:58Z</time>
</trkpt>
<trkpt lat="48.913909904658794" lon="9.766073226928713">
<ele>448.6</ele>
<time>2024-05-07T10:33:59Z</time>
</trkpt>
<trkpt lat="48.913948042318225" lon="9.766059815883636">
<ele>448.8</ele>
<time>2024-05-07T10:34:00Z</time>
</trkpt>
<trkpt lat="48.9139823243022" lon="9.76605026051402">
<ele>449</ele>
<time>2024-05-07T10:34:01Z</time>
</trkpt>
<trkpt lat="48.9140166901052" lon="9.766041710972786">
<ele>449.2</ele>
<time>2024-05-07T10:34:02Z</time>
</trkpt>
<trkpt lat="48.91405482776463" lon="9.766033161431553">
<ele>449.4</ele>
<time>2024-05-07T10:34:03Z</time>
</trkpt>
<trkpt lat="48.91409296542406" lon="9.766021678224206">
<ele>449.6</ele>
<time>2024-05-07T10:34:04Z</time>
</trkpt>
<trkpt lat="48.91413110308349" lon="9.766010278835893">
<ele>449.8</ele>
<time>2024-05-07T10:34:05Z</time>
</trkpt>
<trkpt lat="48.914165468886495" lon="9.766003573313355">
<ele>450</ele>
<time>2024-05-07T10:34:06Z</time>
</trkpt>
<trkpt lat="48.914203606545925" lon="9.765993095934393">
<ele>450.2</ele>
<time>2024-05-07T10:34:07Z</time>
</trkpt>
<trkpt lat="48.91424174420536" lon="9.765985468402503">
<ele>450.4</ele>
<time>2024-05-07T10:34:08Z</time>
</trkpt>
<trkpt lat="48.914279881864786" lon="9.76597499102354">
<ele>450.8</ele>
<time>2024-05-07T10:34:09Z</time>
</trkpt>
<trkpt lat="48.91431801952422" lon="9.765968285501003">
<ele>451</ele>
<time>2024-05-07T10:34:10Z</time>
</trkpt>
<trkpt lat="48.91435615718365" lon="9.765961579978466">
<ele>451.2</ele>
<time>2024-05-07T10:34:11Z</time>
</trkpt>
<trkpt lat="48.91439052298665" lon="9.765950180590153">
<ele>451.4</ele>
<time>2024-05-07T10:34:12Z</time>
</trkpt>
<trkpt lat="48.91442866064608" lon="9.765936769545078">
<ele>451.6</ele>
<time>2024-05-07T10:34:13Z</time>
</trkpt>
<trkpt lat="48.91446679830551" lon="9.765923442319036">
<ele>451.8</ele>
<time>2024-05-07T10:34:14Z</time>
</trkpt>
<trkpt lat="48.91450493596494" lon="9.765908187255263">
<ele>452</ele>
<time>2024-05-07T10:34:15Z</time>
</trkpt>
<trkpt lat="48.914535446092486" lon="9.765892010182142">
<ele>452.2</ele>
<time>2024-05-07T10:34:16Z</time>
</trkpt>
<trkpt lat="48.91456981189549" lon="9.76587482728064">
<ele>452.4</ele>
<time>2024-05-07T10:34:17Z</time>
</trkpt>
<trkpt lat="48.914600322023034" lon="9.765851944684982">
<ele>452.6</ele>
<time>2024-05-07T10:34:18Z</time>
</trkpt>
<trkpt lat="48.91463468782604" lon="9.765826212242246">
<ele>453</ele>
<time>2024-05-07T10:34:19Z</time>
</trkpt>
<trkpt lat="48.91466519795358" lon="9.765805173665283">
<ele>453.2</ele>
<time>2024-05-07T10:34:20Z</time>
</trkpt>
<trkpt lat="48.914695708081126" lon="9.7657785192132">
<ele>453.6</ele>
<time>2024-05-07T10:34:21Z</time>
</trkpt>
<trkpt lat="48.9147299900651" lon="9.765745159238575">
<ele>453.8</ele>
<time>2024-05-07T10:34:22Z</time>
</trkpt>
<trkpt lat="48.914756728336215" lon="9.765709871426225">
<ele>454.2</ele>
<time>2024-05-07T10:34:23Z</time>
</trkpt>
<trkpt lat="48.91478723846376" lon="9.765674583613873">
<ele>454.4</ele>
<time>2024-05-07T10:34:24Z</time>
</trkpt>
<trkpt lat="48.91481397673488" lon="9.76563828997314">
<ele>454.8</ele>
<time>2024-05-07T10:34:25Z</time>
</trkpt>
<trkpt lat="48.91484063118696" lon="9.765603002160788">
<ele>455</ele>
<time>2024-05-07T10:34:26Z</time>
</trkpt>
<trkpt lat="48.91486736945808" lon="9.765564864501355">
<ele>455.2</ele>
<time>2024-05-07T10:34:27Z</time>
</trkpt>
<trkpt lat="48.914894023910165" lon="9.765524799004195">
<ele>455.4</ele>
<time>2024-05-07T10:34:28Z</time>
</trkpt>
<trkpt lat="48.91492076218128" lon="9.765488589182496">
<ele>455.6</ele>
<time>2024-05-07T10:34:29Z</time>
</trkpt>
<trkpt lat="48.9149475004524" lon="9.765449445694683">
<ele>455.8</ele>
<time>2024-05-07T10:34:30Z</time>
</trkpt>
<trkpt lat="48.914974154904485" lon="9.765413235872984">
<ele>456</ele>
<time>2024-05-07T10:34:31Z</time>
</trkpt>
<trkpt lat="48.9150008931756" lon="9.765375098213552">
<ele>456.2</ele>
<time>2024-05-07T10:34:32Z</time>
</trkpt>
<trkpt lat="48.915031403303146" lon="9.765337882563472">
<ele>456.4</ele>
<time>2024-05-07T10:34:33Z</time>
</trkpt>
<trkpt lat="48.91505805775523" lon="9.7653036005795">
<ele>456.6</ele>
<time>2024-05-07T10:34:34Z</time>
</trkpt>
<trkpt lat="48.91508479602635" lon="9.76526638492942">
<ele>456.8</ele>
<time>2024-05-07T10:34:35Z</time>
</trkpt>
<trkpt lat="48.91511530615389" lon="9.765230175107718">
<ele>457</ele>
<time>2024-05-07T10:34:36Z</time>
</trkpt>
<trkpt lat="48.91514204442501" lon="9.765192959457636">
<ele>457.2</ele>
<time>2024-05-07T10:34:37Z</time>
</trkpt>
<trkpt lat="48.915172554552555" lon="9.765159599483011">
<ele>457.4</ele>
<time>2024-05-07T10:34:38Z</time>
</trkpt>
<trkpt lat="48.91519920900464" lon="9.76512615568936">
<ele>457.6</ele>
<time>2024-05-07T10:34:39Z</time>
</trkpt>
<trkpt lat="48.915229719132185" lon="9.765094723552464">
<ele>457.8</ele>
<time>2024-05-07T10:34:40Z</time>
</trkpt>
<trkpt lat="48.91526031307876" lon="9.76506513543427">
<ele>458</ele>
<time>2024-05-07T10:34:41Z</time>
</trkpt>
<trkpt lat="48.91528696753085" lon="9.765036553144457">
<ele>458.4</ele>
<time>2024-05-07T10:34:42Z</time>
</trkpt>
<trkpt lat="48.91532133333385" lon="9.765011742711067">
<ele>458.6</ele>
<time>2024-05-07T10:34:43Z</time>
</trkpt>
<trkpt lat="48.915351843461394" lon="9.76498693227768">
<ele>458.8</ele>
<time>2024-05-07T10:34:44Z</time>
</trkpt>
<trkpt lat="48.91538235358894" lon="9.764961199834945">
<ele>459.2</ele>
<time>2024-05-07T10:34:45Z</time>
</trkpt>
<trkpt lat="48.91541663557291" lon="9.764940245077014">
<ele>459.4</ele>
<time>2024-05-07T10:34:46Z</time>
</trkpt>
<trkpt lat="48.915447229519486" lon="9.764918284490705">
<ele>459.6</ele>
<time>2024-05-07T10:34:47Z</time>
</trkpt>
<trkpt lat="48.91548151150346" lon="9.764900179579854">
<ele>459.6</ele>
<time>2024-05-07T10:34:48Z</time>
</trkpt>
<trkpt lat="48.91551587730646" lon="9.764884924516082">
<ele>459.8</ele>
<time>2024-05-07T10:34:49Z</time>
</trkpt>
<trkpt lat="48.91555015929043" lon="9.764878218993545">
<ele>460</ele>
<time>2024-05-07T10:34:50Z</time>
</trkpt>
<trkpt lat="48.91558829694986" lon="9.764875369146466">
<ele>460.4</ele>
<time>2024-05-07T10:34:51Z</time>
</trkpt>
<trkpt lat="48.915626518428326" lon="9.764873441308737">
<ele>460.6</ele>
<time>2024-05-07T10:34:52Z</time>
</trkpt>
<trkpt lat="48.91566465608776" lon="9.76487159729004">
<ele>460.8</ele>
<time>2024-05-07T10:34:53Z</time>
</trkpt>
<trkpt lat="48.91570279374719" lon="9.764875369146466">
<ele>460.8</ele>
<time>2024-05-07T10:34:54Z</time>
</trkpt>
<trkpt lat="48.91574093140662" lon="9.764882074669003">
<ele>461</ele>
<time>2024-05-07T10:34:55Z</time>
</trkpt>
<trkpt lat="48.91578292474151" lon="9.764895401895046">
<ele>461.2</ele>
<time>2024-05-07T10:34:56Z</time>
</trkpt>
<trkpt lat="48.91582106240094" lon="9.76490780711174">
<ele>461.4</ele>
<time>2024-05-07T10:34:57Z</time>
</trkpt>
<trkpt lat="48.91585534438491" lon="9.76492976769805">
<ele>461.6</ele>
<time>2024-05-07T10:34:58Z</time>
</trkpt>
<trkpt lat="48.91588971018791" lon="9.764958349987864">
<ele>461.8</ele>
<time>2024-05-07T10:34:59Z</time>
</trkpt>
<trkpt lat="48.91592399217189" lon="9.76498693227768">
<ele>462</ele>
<time>2024-05-07T10:35:00Z</time>
</trkpt>
<trkpt lat="48.91595835797489" lon="9.765014592558146">
<ele>462.2</ele>
<time>2024-05-07T10:35:01Z</time>
</trkpt>
<trkpt lat="48.91598886810243" lon="9.76504510268569">
<ele>462.6</ele>
<time>2024-05-07T10:35:02Z</time>
</trkpt>
<trkpt lat="48.916023233905435" lon="9.765073768794537">
<ele>462.8</ele>
<time>2024-05-07T10:35:03Z</time>
</trkpt>
<trkpt lat="48.91605374403298" lon="9.7651032730937">
<ele>463</ele>
<time>2024-05-07T10:35:04Z</time>
</trkpt>
<trkpt lat="48.91608802601695" lon="9.765136716887357">
<ele>463.2</ele>
<time>2024-05-07T10:35:05Z</time>
</trkpt>
<trkpt lat="48.916122391819954" lon="9.765170076861978">
<ele>463.2</ele>
<time>2024-05-07T10:35:06Z</time>
</trkpt>
<trkpt lat="48.9161529019475" lon="9.76520150899887">
<ele>463.4</ele>
<time>2024-05-07T10:35:07Z</time>
</trkpt>
<trkpt lat="48.91618341207504" lon="9.765233024954796">
<ele>463.4</ele>
<time>2024-05-07T10:35:08Z</time>
</trkpt>
<trkpt lat="48.91622154973447" lon="9.76526353508234">
<ele>463.6</ele>
<time>2024-05-07T10:35:09Z</time>
</trkpt>
<trkpt lat="48.91625205986202" lon="9.765296895056965">
<ele>463.6</ele>
<time>2024-05-07T10:35:10Z</time>
</trkpt>
<trkpt lat="48.91628642566502" lon="9.76532648317516">
<ele>463.8</ele>
<time>2024-05-07T10:35:11Z</time>
</trkpt>
<trkpt lat="48.916320791468024" lon="9.765356993302705">
<ele>464</ele>
<time>2024-05-07T10:35:12Z</time>
</trkpt>
<trkpt lat="48.916355073452" lon="9.765384653583167">
<ele>464</ele>
<time>2024-05-07T10:35:13Z</time>
</trkpt>
<trkpt lat="48.916389439255" lon="9.765408458188176">
<ele>464.2</ele>
<time>2024-05-07T10:35:14Z</time>
</trkpt>
<trkpt lat="48.91642757691443" lon="9.765423713251948">
<ele>464.4</ele>
<time>2024-05-07T10:35:15Z</time>
</trkpt>
<trkpt lat="48.91646571457386" lon="9.765433268621564">
<ele>464.6</ele>
<time>2024-05-07T10:35:16Z</time>
</trkpt>
<trkpt lat="48.91650385223329" lon="9.7654418181628">
<ele>464.8</ele>
<time>2024-05-07T10:35:17Z</time>
</trkpt>
<trkpt lat="48.91654584556818" lon="9.765449445694683">
<ele>465</ele>
<time>2024-05-07T10:35:18Z</time>
</trkpt>
<trkpt lat="48.91658398322761" lon="9.765449445694683">
<ele>465.2</ele>
<time>2024-05-07T10:35:19Z</time>
</trkpt>
<trkpt lat="48.91662212088704" lon="9.765443746000528">
<ele>465.2</ele>
<time>2024-05-07T10:35:20Z</time>
</trkpt>
<trkpt lat="48.91666025854647" lon="9.765430418774486">
<ele>465.4</ele>
<time>2024-05-07T10:35:21Z</time>
</trkpt>
<trkpt lat="48.9166983962059" lon="9.765408458188176">
<ele>465.6</ele>
<time>2024-05-07T10:35:22Z</time>
</trkpt>
<trkpt lat="48.916732762008905" lon="9.765383647754788">
<ele>465.8</ele>
<time>2024-05-07T10:35:23Z</time>
</trkpt>
<trkpt lat="48.91676704399288" lon="9.765355065464972">
<ele>466</ele>
<time>2024-05-07T10:35:24Z</time>
</trkpt>
<trkpt lat="48.91680140979588" lon="9.76531977765262">
<ele>466</ele>
<time>2024-05-07T10:35:25Z</time>
</trkpt>
<trkpt lat="48.916828148067" lon="9.765285411849618">
<ele>466.4</ele>
<time>2024-05-07T10:35:26Z</time>
</trkpt>
<trkpt lat="48.91685480251908" lon="9.765248280018568">
<ele>466.6</ele>
<time>2024-05-07T10:35:27Z</time>
</trkpt>
<trkpt lat="48.9168815407902" lon="9.76520536467433">
<ele>466.8</ele>
<time>2024-05-07T10:35:28Z</time>
</trkpt>
<trkpt lat="48.91690442338586" lon="9.765156665816903">
<ele>467</ele>
<time>2024-05-07T10:35:29Z</time>
</trkpt>
<trkpt lat="48.91692345030606" lon="9.76510612294078">
<ele>467.2</ele>
<time>2024-05-07T10:35:30Z</time>
</trkpt>
<trkpt lat="48.91694633290171" lon="9.765058513730764">
<ele>467.4</ele>
<time>2024-05-07T10:35:31Z</time>
</trkpt>
<trkpt lat="48.91697307117283" lon="9.765009814873338">
<ele>467.8</ele>
<time>2024-05-07T10:35:32Z</time>
</trkpt>
<trkpt lat="48.91699595376849" lon="9.764956422150137">
<ele>468</ele>
<time>2024-05-07T10:35:33Z</time>
</trkpt>
<trkpt lat="48.91702269203961" lon="9.764903029426932">
<ele>468.2</ele>
<time>2024-05-07T10:35:34Z</time>
</trkpt>
<trkpt lat="48.91704557463527" lon="9.76485156454146">
<ele>468.6</ele>
<time>2024-05-07T10:35:35Z</time>
</trkpt>
<trkpt lat="48.917068457230926" lon="9.764801943674684">
<ele>468.8</ele>
<time>2024-05-07T10:35:36Z</time>
</trkpt>
<trkpt lat="48.91709511168301" lon="9.76474947296083">
<ele>469.2</ele>
<time>2024-05-07T10:35:37Z</time>
</trkpt>
<trkpt lat="48.91711422242224" lon="9.764697002246976">
<ele>469.4</ele>
<time>2024-05-07T10:35:38Z</time>
</trkpt>
<trkpt lat="48.9171371050179" lon="9.764646459370852">
<ele>469.6</ele>
<time>2024-05-07T10:35:39Z</time>
</trkpt>
<trkpt lat="48.91715998761356" lon="9.764594994485378">
<ele>470</ele>
<time>2024-05-07T10:35:40Z</time>
</trkpt>
<trkpt lat="48.91718287020922" lon="9.764545373618605">
<ele>470.2</ele>
<time>2024-05-07T10:35:41Z</time>
</trkpt>
<trkpt lat="48.91720198094845" lon="9.76449298672378">
<ele>470.4</ele>
<time>2024-05-07T10:35:42Z</time>
</trkpt>
<trkpt lat="48.91722486354411" lon="9.764441438019276">
<ele>470.6</ele>
<time>2024-05-07T10:35:43Z</time>
</trkpt>
<trkpt lat="48.917247746139765" lon="9.7643918171525">
<ele>470.8</ele>
<time>2024-05-07T10:35:44Z</time>
</trkpt>
<trkpt lat="48.91727062873542" lon="9.764343202114103">
<ele>471</ele>
<time>2024-05-07T10:35:45Z</time>
</trkpt>
<trkpt lat="48.91728965565562" lon="9.764291737228632">
<ele>471.2</ele>
<time>2024-05-07T10:35:46Z</time>
</trkpt>
<trkpt lat="48.91731262207031" lon="9.764243122190235">
<ele>471.4</ele>
<time>2024-05-07T10:35:47Z</time>
</trkpt>
<trkpt lat="48.91733164899051" lon="9.76419635117054">
<ele>471.6</ele>
<time>2024-05-07T10:35:48Z</time>
</trkpt>
<trkpt lat="48.91735838726163" lon="9.764148658141494">
<ele>471.8</ele>
<time>2024-05-07T10:35:49Z</time>
</trkpt>
<trkpt lat="48.91737741418183" lon="9.76409618742764">
<ele>472</ele>
<time>2024-05-07T10:35:50Z</time>
</trkpt>
<trkpt lat="48.91740029677749" lon="9.764048494398594">
<ele>472.2</ele>
<time>2024-05-07T10:35:51Z</time>
</trkpt>
<trkpt lat="48.917423179373145" lon="9.76399702951312">
<ele>472.4</ele>
<time>2024-05-07T10:35:52Z</time>
</trkpt>
<trkpt lat="48.91744991764426" lon="9.763944558799269">
<ele>472.4</ele>
<time>2024-05-07T10:35:53Z</time>
</trkpt>
<trkpt lat="48.91746894456446" lon="9.763893093913794">
<ele>472.6</ele>
<time>2024-05-07T10:35:54Z</time>
</trkpt>
<trkpt lat="48.91749191097915" lon="9.76383970119059">
<ele>472.6</ele>
<time>2024-05-07T10:35:55Z</time>
</trkpt>
<trkpt lat="48.91751479357481" lon="9.763790080323815">
<ele>472.8</ele>
<time>2024-05-07T10:35:56Z</time>
</trkpt>
<trkpt lat="48.91753767617047" lon="9.763738615438342">
<ele>472.8</ele>
<time>2024-05-07T10:35:57Z</time>
</trkpt>
<trkpt lat="48.91756055876613" lon="9.763687066733835">
<ele>473</ele>
<time>2024-05-07T10:35:58Z</time>
</trkpt>
<trkpt lat="48.917583441361785" lon="9.763633674010634">
<ele>473.2</ele>
<time>2024-05-07T10:35:59Z</time>
</trkpt>
<trkpt lat="48.91760632395744" lon="9.763580281287432">
<ele>473.2</ele>
<time>2024-05-07T10:36:00Z</time>
</trkpt>
<trkpt lat="48.9176292065531" lon="9.763528816401958">
<ele>473.2</ele>
<time>2024-05-07T10:36:01Z</time>
</trkpt>
<trkpt lat="48.91765208914876" lon="9.763476345688105">
<ele>473.2</ele>
<time>2024-05-07T10:36:02Z</time>
</trkpt>
<trkpt lat="48.91767497174442" lon="9.76342672482133">
<ele>473.4</ele>
<time>2024-05-07T10:36:03Z</time>
</trkpt>
<trkpt lat="48.91769785434008" lon="9.763375259935856">
<ele>473.4</ele>
<time>2024-05-07T10:36:04Z</time>
</trkpt>
<trkpt lat="48.917720736935735" lon="9.763322789222002">
<ele>473.4</ele>
<time>2024-05-07T10:36:05Z</time>
</trkpt>
<trkpt lat="48.917739847674966" lon="9.763270318508148">
<ele>473.4</ele>
<time>2024-05-07T10:36:06Z</time>
</trkpt>
<trkpt lat="48.91776650212705" lon="9.763217847794294">
<ele>473.2</ele>
<time>2024-05-07T10:36:07Z</time>
</trkpt>
<trkpt lat="48.91778561286628" lon="9.76316831074655">
<ele>473.4</ele>
<time>2024-05-07T10:36:08Z</time>
</trkpt>
<trkpt lat="48.91780849546194" lon="9.763116762042046">
<ele>473.4</ele>
<time>2024-05-07T10:36:09Z</time>
</trkpt>
<trkpt lat="48.9178313780576" lon="9.763065297156572">
<ele>473.4</ele>
<time>2024-05-07T10:36:10Z</time>
</trkpt>
<trkpt lat="48.91785426065326" lon="9.7630138322711">
<ele>473.4</ele>
<time>2024-05-07T10:36:11Z</time>
</trkpt>
<trkpt lat="48.91787714324891" lon="9.762961361557243">
<ele>473.4</ele>
<time>2024-05-07T10:36:12Z</time>
</trkpt>
<trkpt lat="48.917900025844574" lon="9.76290981285274">
<ele>473.4</ele>
<time>2024-05-07T10:36:13Z</time>
</trkpt>
<trkpt lat="48.91792290844023" lon="9.762856420129538">
<ele>473.6</ele>
<time>2024-05-07T10:36:14Z</time>
</trkpt>
<trkpt lat="48.91794579103589" lon="9.762803027406337">
<ele>473.6</ele>
<time>2024-05-07T10:36:15Z</time>
</trkpt>
<trkpt lat="48.91796867363155" lon="9.762749634683132">
<ele>473.6</ele>
<time>2024-05-07T10:36:16Z</time>
</trkpt>
<trkpt lat="48.91799155622721" lon="9.762695236131549">
<ele>473.6</ele>
<time>2024-05-07T10:36:17Z</time>
</trkpt>
<trkpt lat="48.9180145226419" lon="9.762641843408346">
<ele>473.6</ele>
<time>2024-05-07T10:36:18Z</time>
</trkpt>
<trkpt lat="48.91804117709398" lon="9.762588450685143">
<ele>473.6</ele>
<time>2024-05-07T10:36:19Z</time>
</trkpt>
<trkpt lat="48.91806405968964" lon="9.762533130124211">
<ele>473.8</ele>
<time>2024-05-07T10:36:20Z</time>
</trkpt>
<trkpt lat="48.9180869422853" lon="9.762479737401009">
<ele>473.8</ele>
<time>2024-05-07T10:36:21Z</time>
</trkpt>
<trkpt lat="48.91810982488096" lon="9.762426344677806">
<ele>473.8</ele>
<time>2024-05-07T10:36:22Z</time>
</trkpt>
<trkpt lat="48.918136563152075" lon="9.762372951954603">
<ele>473.8</ele>
<time>2024-05-07T10:36:23Z</time>
</trkpt>
<trkpt lat="48.918155590072274" lon="9.76231662556529">
<ele>473.8</ele>
<time>2024-05-07T10:36:24Z</time>
</trkpt>
<trkpt lat="48.91818232834339" lon="9.76226138882339">
<ele>474</ele>
<time>2024-05-07T10:36:25Z</time>
</trkpt>
<trkpt lat="48.91820521093905" lon="9.762206990271808">
<ele>474</ele>
<time>2024-05-07T10:36:26Z</time>
</trkpt>
<trkpt lat="48.91822809353471" lon="9.762153597548604">
<ele>474.2</ele>
<time>2024-05-07T10:36:27Z</time>
</trkpt>
<trkpt lat="48.918254831805825" lon="9.7621002048254">
<ele>474.2</ele>
<time>2024-05-07T10:36:28Z</time>
</trkpt>
<trkpt lat="48.91827771440148" lon="9.762049661949275">
<ele>474.2</ele>
<time>2024-05-07T10:36:29Z</time>
</trkpt>
<trkpt lat="48.91830059699714" lon="9.761996269226074">
<ele>474.4</ele>
<time>2024-05-07T10:36:30Z</time>
</trkpt>
<trkpt lat="48.9183234795928" lon="9.76194472052157">
<ele>474.4</ele>
<time>2024-05-07T10:36:31Z</time>
</trkpt>
<trkpt lat="48.91834636218846" lon="9.761893255636096">
<ele>474.4</ele>
<time>2024-05-07T10:36:32Z</time>
</trkpt>
<trkpt lat="48.91836924478412" lon="9.761841706931593">
<ele>474.6</ele>
<time>2024-05-07T10:36:33Z</time>
</trkpt>
<trkpt lat="48.918392127379775" lon="9.761790242046118">
<ele>474.6</ele>
<time>2024-05-07T10:36:34Z</time>
</trkpt>
<trkpt lat="48.91841886565089" lon="9.761736849322917">
<ele>474.6</ele>
<time>2024-05-07T10:36:35Z</time>
</trkpt>
<trkpt lat="48.91844174824655" lon="9.76168530061841">
<ele>474.6</ele>
<time>2024-05-07T10:36:36Z</time>
</trkpt>
<trkpt lat="48.91846840269864" lon="9.761631907895207">
<ele>474.6</ele>
<time>2024-05-07T10:36:37Z</time>
</trkpt>
<trkpt lat="48.918491285294294" lon="9.761576587334275">
<ele>474.6</ele>
<time>2024-05-07T10:36:38Z</time>
</trkpt>
<trkpt lat="48.918514251708984" lon="9.761523194611073">
<ele>474.6</ele>
<time>2024-05-07T10:36:39Z</time>
</trkpt>
<trkpt lat="48.91853713430464" lon="9.76146980188787">
<ele>474.6</ele>
<time>2024-05-07T10:36:40Z</time>
</trkpt>
<trkpt lat="48.9185600169003" lon="9.761418337002397">
<ele>474.6</ele>
<time>2024-05-07T10:36:41Z</time>
</trkpt>
<trkpt lat="48.91858289949596" lon="9.761364860460162">
<ele>474.6</ele>
<time>2024-05-07T10:36:42Z</time>
</trkpt>
<trkpt lat="48.91860578209162" lon="9.76131146773696">
<ele>474.6</ele>
<time>2024-05-07T10:36:43Z</time>
</trkpt>
<trkpt lat="48.91862866468728" lon="9.761258075013757">
<ele>474.6</ele>
<time>2024-05-07T10:36:44Z</time>
</trkpt>
<trkpt lat="48.918651547282934" lon="9.761206610128284">
<ele>474.6</ele>
<time>2024-05-07T10:36:45Z</time>
</trkpt>
<trkpt lat="48.91867442987859" lon="9.76115506142378">
<ele>474.8</ele>
<time>2024-05-07T10:36:46Z</time>
</trkpt>
<trkpt lat="48.91869731247425" lon="9.761101668700576">
<ele>474.8</ele>
<time>2024-05-07T10:36:47Z</time>
</trkpt>
<trkpt lat="48.91872019506991" lon="9.761048275977371">
<ele>474.8</ele>
<time>2024-05-07T10:36:48Z</time>
</trkpt>
<trkpt lat="48.91874307766557" lon="9.7609968110919">
<ele>474.8</ele>
<time>2024-05-07T10:36:49Z</time>
</trkpt>
<trkpt lat="48.918765960261226" lon="9.760945262387397">
<ele>474.8</ele>
<time>2024-05-07T10:36:50Z</time>
</trkpt>
<trkpt lat="48.91878507100046" lon="9.760889941826465">
<ele>474.8</ele>
<time>2024-05-07T10:36:51Z</time>
</trkpt>
<trkpt lat="48.91881172545254" lon="9.76083847694099">
<ele>474.8</ele>
<time>2024-05-07T10:36:52Z</time>
</trkpt>
<trkpt lat="48.9188346080482" lon="9.760786928236485">
<ele>475</ele>
<time>2024-05-07T10:36:53Z</time>
</trkpt>
<trkpt lat="48.91885757446289" lon="9.76073638536036">
<ele>475</ele>
<time>2024-05-07T10:36:54Z</time>
</trkpt>
<trkpt lat="48.918884228914976" lon="9.760684920474889">
<ele>475.2</ele>
<time>2024-05-07T10:36:55Z</time>
</trkpt>
<trkpt lat="48.918907111510634" lon="9.760633455589414">
<ele>475.2</ele>
<time>2024-05-07T10:36:56Z</time>
</trkpt>
<trkpt lat="48.91892999410629" lon="9.760580062866213">
<ele>475.4</ele>
<time>2024-05-07T10:36:57Z</time>
</trkpt>
<trkpt lat="48.91895287670195" lon="9.760526586323977">
<ele>475.4</ele>
<time>2024-05-07T10:36:58Z</time>
</trkpt>
<trkpt lat="48.91897575929761" lon="9.760471265763044">
<ele>475.6</ele>
<time>2024-05-07T10:36:59Z</time>
</trkpt>
<trkpt lat="48.91900249756873" lon="9.760417873039842">
<ele>475.6</ele>
<time>2024-05-07T10:37:00Z</time>
</trkpt>
<trkpt lat="48.919025380164385" lon="9.76036355830729">
<ele>475.8</ele>
<time>2024-05-07T10:37:01Z</time>
</trkpt>
<trkpt lat="48.9190521184355" lon="9.760308237746358">
<ele>475.8</ele>
<time>2024-05-07T10:37:02Z</time>
</trkpt>
<trkpt lat="48.91907500103116" lon="9.760251995176075">
<ele>475.8</ele>
<time>2024-05-07T10:37:03Z</time>
</trkpt>
<trkpt lat="48.91909788362682" lon="9.760194746777415">
<ele>475.8</ele>
<time>2024-05-07T10:37:04Z</time>
</trkpt>
<trkpt lat="48.91912076622248" lon="9.760140348225832">
<ele>475.8</ele>
<time>2024-05-07T10:37:05Z</time>
</trkpt>
<trkpt lat="48.919143648818135" lon="9.76008695550263">
<ele>475.8</ele>
<time>2024-05-07T10:37:06Z</time>
</trkpt>
<trkpt lat="48.919166531413794" lon="9.760033562779428">
<ele>475.8</ele>
<time>2024-05-07T10:37:07Z</time>
</trkpt>
<trkpt lat="48.91919318586588" lon="9.759980170056224">
<ele>476</ele>
<time>2024-05-07T10:37:08Z</time>
</trkpt>
<trkpt lat="48.91921615228057" lon="9.75992677733302">
<ele>476</ele>
<time>2024-05-07T10:37:09Z</time>
</trkpt>
<trkpt lat="48.91923903487623" lon="9.759875228628516">
<ele>476</ele>
<time>2024-05-07T10:37:10Z</time>
</trkpt>
<trkpt lat="48.919261917471886" lon="9.759821835905312">
<ele>476</ele>
<time>2024-05-07T10:37:11Z</time>
</trkpt>
<trkpt lat="48.919284800067544" lon="9.75977037101984">
<ele>476</ele>
<time>2024-05-07T10:37:12Z</time>
</trkpt>
<trkpt lat="48.9193076826632" lon="9.759715050458908">
<ele>476</ele>
<time>2024-05-07T10:37:13Z</time>
</trkpt>
<trkpt lat="48.91933056525886" lon="9.759661657735704">
<ele>475.8</ele>
<time>2024-05-07T10:37:14Z</time>
</trkpt>
<trkpt lat="48.91935344785452" lon="9.759608265012504">
<ele>475.8</ele>
<time>2024-05-07T10:37:15Z</time>
</trkpt>
<trkpt lat="48.91938018612563" lon="9.75955193862319">
<ele>476</ele>
<time>2024-05-07T10:37:16Z</time>
</trkpt>
<trkpt lat="48.919399213045835" lon="9.759498545899987">
<ele>476</ele>
<time>2024-05-07T10:37:17Z</time>
</trkpt>
<trkpt lat="48.919422095641494" lon="9.759441297501326">
<ele>476.2</ele>
<time>2024-05-07T10:37:18Z</time>
</trkpt>
<trkpt lat="48.91944497823715" lon="9.759386982768774">
<ele>476.2</ele>
<time>2024-05-07T10:37:19Z</time>
</trkpt>
<trkpt lat="48.91947171650827" lon="9.759333590045571">
<ele>476.4</ele>
<time>2024-05-07T10:37:20Z</time>
</trkpt>
<trkpt lat="48.91949459910393" lon="9.75927826948464">
<ele>476.4</ele>
<time>2024-05-07T10:37:21Z</time>
</trkpt>
<trkpt lat="48.919517481699586" lon="9.759222948923709">
<ele>476.4</ele>
<time>2024-05-07T10:37:22Z</time>
</trkpt>
<trkpt lat="48.9195442199707" lon="9.759168550372124">
<ele>476.6</ele>
<time>2024-05-07T10:37:23Z</time>
</trkpt>
<trkpt lat="48.91956710256636" lon="9.759111385792494">
<ele>476.6</ele>
<time>2024-05-07T10:37:24Z</time>
</trkpt>
<trkpt lat="48.91959375701845" lon="9.75905505940318">
<ele>476.6</ele>
<time>2024-05-07T10:37:25Z</time>
</trkpt>
<trkpt lat="48.919616639614105" lon="9.75899982266128">
<ele>476.8</ele>
<time>2024-05-07T10:37:26Z</time>
</trkpt>
<trkpt lat="48.91964337788522" lon="9.758945424109696">
<ele>476.8</ele>
<time>2024-05-07T10:37:27Z</time>
</trkpt>
<trkpt lat="48.91966626048088" lon="9.758890103548763">
<ele>476.8</ele>
<time>2024-05-07T10:37:28Z</time>
</trkpt>
<trkpt lat="48.91968914307654" lon="9.758834782987831">
<ele>476.8</ele>
<time>2024-05-07T10:37:29Z</time>
</trkpt>
<trkpt lat="48.919715881347656" lon="9.75878139026463">
<ele>476.8</ele>
<time>2024-05-07T10:37:30Z</time>
</trkpt>
<trkpt lat="48.91974253579974" lon="9.758726991713049">
<ele>476.8</ele>
<time>2024-05-07T10:37:31Z</time>
</trkpt>
<trkpt lat="48.9197654183954" lon="9.758671754971148">
<ele>476.8</ele>
<time>2024-05-07T10:37:32Z</time>
</trkpt>
<trkpt lat="48.91978830099106" lon="9.758616434410214">
<ele>476.8</ele>
<time>2024-05-07T10:37:33Z</time>
</trkpt>
<trkpt lat="48.91981118358672" lon="9.758560108020902">
<ele>476.8</ele>
<time>2024-05-07T10:37:34Z</time>
</trkpt>
<trkpt lat="48.919834066182375" lon="9.7585067152977">
<ele>476.8</ele>
<time>2024-05-07T10:37:35Z</time>
</trkpt>
<trkpt lat="48.91985694877803" lon="9.758451394736769">
<ele>476.8</ele>
<time>2024-05-07T10:37:36Z</time>
</trkpt>
<trkpt lat="48.91988368704915" lon="9.758395152166486">
<ele>476.8</ele>
<time>2024-05-07T10:37:37Z</time>
</trkpt>
<trkpt lat="48.91990656964481" lon="9.758339831605554">
<ele>476.8</ele>
<time>2024-05-07T10:37:38Z</time>
</trkpt>
<trkpt lat="48.919933307915926" lon="9.758286438882353">
<ele>476.8</ele>
<time>2024-05-07T10:37:39Z</time>
</trkpt>
<trkpt lat="48.91995996236801" lon="9.758232040330768">
<ele>476.8</ele>
<time>2024-05-07T10:37:40Z</time>
</trkpt>
<trkpt lat="48.91998284496367" lon="9.758172947913408">
<ele>476.8</ele>
<time>2024-05-07T10:37:41Z</time>
</trkpt>
<trkpt lat="48.92000572755933" lon="9.758116705343127">
<ele>476.8</ele>
<time>2024-05-07T10:37:42Z</time>
</trkpt>
<trkpt lat="48.920032465830445" lon="9.758061384782197">
<ele>477</ele>
<time>2024-05-07T10:37:43Z</time>
</trkpt>
<trkpt lat="48.920055348426104" lon="9.758006986230612">
<ele>477</ele>
<time>2024-05-07T10:37:44Z</time>
</trkpt>
<trkpt lat="48.92007823102176" lon="9.75795166566968">
<ele>477.2</ele>
<time>2024-05-07T10:37:45Z</time>
</trkpt>
<trkpt lat="48.92010496929288" lon="9.757896345108747">
<ele>477.2</ele>
<time>2024-05-07T10:37:46Z</time>
</trkpt>
<trkpt lat="48.92012785188854" lon="9.757840102538466">
<ele>477.2</ele>
<time>2024-05-07T10:37:47Z</time>
</trkpt>
<trkpt lat="48.92015073448419" lon="9.757782854139805">
<ele>477.2</ele>
<time>2024-05-07T10:37:48Z</time>
</trkpt>
<trkpt lat="48.920173617079854" lon="9.757724683731794">
<ele>477.2</ele>
<time>2024-05-07T10:37:49Z</time>
</trkpt>
<trkpt lat="48.92019649967551" lon="9.757668441161512">
<ele>477.2</ele>
<time>2024-05-07T10:37:50Z</time>
</trkpt>
<trkpt lat="48.92021552659571" lon="9.757610270753505">
<ele>477.2</ele>
<time>2024-05-07T10:37:51Z</time>
</trkpt>
<trkpt lat="48.9202384930104" lon="9.757551178336143">
<ele>477.2</ele>
<time>2024-05-07T10:37:52Z</time>
</trkpt>
<trkpt lat="48.9202575199306" lon="9.75749485194683">
<ele>477.4</ele>
<time>2024-05-07T10:37:53Z</time>
</trkpt>
<trkpt lat="48.92028040252626" lon="9.7574395313859">
<ele>477.4</ele>
<time>2024-05-07T10:37:54Z</time>
</trkpt>
<trkpt lat="48.92030328512192" lon="9.757383288815618">
<ele>477.6</ele>
<time>2024-05-07T10:37:55Z</time>
</trkpt>
<trkpt lat="48.92032239586115" lon="9.757327046245337">
<ele>477.6</ele>
<time>2024-05-07T10:37:56Z</time>
</trkpt>
<trkpt lat="48.92034527845681" lon="9.757269797846677">
<ele>477.8</ele>
<time>2024-05-07T10:37:57Z</time>
</trkpt>
<trkpt lat="48.92036430537701" lon="9.757211627438664">
<ele>477.8</ele>
<time>2024-05-07T10:37:58Z</time>
</trkpt>
<trkpt lat="48.92038341611624" lon="9.757151529192924">
<ele>477.8</ele>
<time>2024-05-07T10:37:59Z</time>
</trkpt>
<trkpt lat="48.920406298711896" lon="9.757095286622643">
<ele>478</ele>
<time>2024-05-07T10:38:00Z</time>
</trkpt>
<trkpt lat="48.92042540945113" lon="9.757036194205284">
<ele>478</ele>
<time>2024-05-07T10:38:01Z</time>
</trkpt>
<trkpt lat="48.920448292046785" lon="9.756978023797274">
<ele>478</ele>
<time>2024-05-07T10:38:02Z</time>
</trkpt>
<trkpt lat="48.920467318966985" lon="9.75692169740796">
<ele>478</ele>
<time>2024-05-07T10:38:03Z</time>
</trkpt>
<trkpt lat="48.920486429706216" lon="9.756866376847029">
<ele>478.2</ele>
<time>2024-05-07T10:38:04Z</time>
</trkpt>
<trkpt lat="48.920505456626415" lon="9.756810134276748">
<ele>478.2</ele>
<time>2024-05-07T10:38:05Z</time>
</trkpt>
<trkpt lat="48.920528339222074" lon="9.756752885878086">
<ele>478.2</ele>
<time>2024-05-07T10:38:06Z</time>
</trkpt>
<trkpt lat="48.920547449961305" lon="9.756696643307803">
<ele>478.2</ele>
<time>2024-05-07T10:38:07Z</time>
</trkpt>
<trkpt lat="48.920566476881504" lon="9.756640400737524">
<ele>478.2</ele>
<time>2024-05-07T10:38:08Z</time>
</trkpt>
<trkpt lat="48.920585587620735" lon="9.756580302491784">
<ele>478.2</ele>
<time>2024-05-07T10:38:09Z</time>
</trkpt>
<trkpt lat="48.920604698359966" lon="9.756523054093122">
<ele>478.2</ele>
<time>2024-05-07T10:38:10Z</time>
</trkpt>
<trkpt lat="48.920623725280166" lon="9.756464883685112">
<ele>478.2</ele>
<time>2024-05-07T10:38:11Z</time>
</trkpt>
<trkpt lat="48.9206428360194" lon="9.756408641114833">
<ele>478.2</ele>
<time>2024-05-07T10:38:12Z</time>
</trkpt>
<trkpt lat="48.9206618629396" lon="9.756349548697472">
<ele>478.2</ele>
<time>2024-05-07T10:38:13Z</time>
</trkpt>
<trkpt lat="48.92068097367883" lon="9.75629037246108">
<ele>478.2</ele>
<time>2024-05-07T10:38:14Z</time>
</trkpt>
<trkpt lat="48.92070000059903" lon="9.75623320788145">
<ele>478.2</ele>
<time>2024-05-07T10:38:15Z</time>
</trkpt>
<trkpt lat="48.92071911133826" lon="9.75617503747344">
<ele>478.2</ele>
<time>2024-05-07T10:38:16Z</time>
</trkpt>
<trkpt lat="48.92073813825846" lon="9.756118711084127">
<ele>478.2</ele>
<time>2024-05-07T10:38:17Z</time>
</trkpt>
<trkpt lat="48.92076110467315" lon="9.756061546504498">
<ele>478.2</ele>
<time>2024-05-07T10:38:18Z</time>
</trkpt>
<trkpt lat="48.92078013159335" lon="9.756008069962265">
<ele>478.2</ele>
<time>2024-05-07T10:38:19Z</time>
</trkpt>
<trkpt lat="48.92079924233258" lon="9.755951827391982">
<ele>478.2</ele>
<time>2024-05-07T10:38:20Z</time>
</trkpt>
<trkpt lat="48.92081826925278" lon="9.75589650683105">
<ele>478.2</ele>
<time>2024-05-07T10:38:21Z</time>
</trkpt>
<trkpt lat="48.92083737999201" lon="9.755841186270118">
<ele>478.2</ele>
<time>2024-05-07T10:38:22Z</time>
</trkpt>
<trkpt lat="48.92085640691221" lon="9.755784943699837">
<ele>478.2</ele>
<time>2024-05-07T10:38:23Z</time>
</trkpt>
<trkpt lat="48.92087166197598" lon="9.755728701129556">
<ele>478.4</ele>
<time>2024-05-07T10:38:24Z</time>
</trkpt>
<trkpt lat="48.92089077271521" lon="9.755673380568624">
<ele>478.4</ele>
<time>2024-05-07T10:38:25Z</time>
</trkpt>
<trkpt lat="48.92090979963541" lon="9.755615210160611">
<ele>478.4</ele>
<time>2024-05-07T10:38:26Z</time>
</trkpt>
<trkpt lat="48.92092891037464" lon="9.755557039752604">
<ele>478.6</ele>
<time>2024-05-07T10:38:27Z</time>
</trkpt>
<trkpt lat="48.9209517929703" lon="9.75550171919167">
<ele>478.6</ele>
<time>2024-05-07T10:38:28Z</time>
</trkpt>
<trkpt lat="48.92097090370953" lon="9.755446398630738">
<ele>478.8</ele>
<time>2024-05-07T10:38:29Z</time>
</trkpt>
<trkpt lat="48.92099378630519" lon="9.755392000079157">
<ele>478.8</ele>
<time>2024-05-07T10:38:30Z</time>
</trkpt>
<trkpt lat="48.92101281322539" lon="9.755338607355952">
<ele>478.8</ele>
<time>2024-05-07T10:38:31Z</time>
</trkpt>
<trkpt lat="48.92103192396462" lon="9.755281442776322">
<ele>479</ele>
<time>2024-05-07T10:38:32Z</time>
</trkpt>
<trkpt lat="48.92105480656028" lon="9.75522704422474">
<ele>479</ele>
<time>2024-05-07T10:38:33Z</time>
</trkpt>
<trkpt lat="48.92107383348048" lon="9.755169795826076">
<ele>479</ele>
<time>2024-05-07T10:38:34Z</time>
</trkpt>
<trkpt lat="48.92109679989517" lon="9.755114475265144">
<ele>479</ele>
<time>2024-05-07T10:38:35Z</time>
</trkpt>
<trkpt lat="48.921119682490826" lon="9.755058232694864">
<ele>479</ele>
<time>2024-05-07T10:38:36Z</time>
</trkpt>
<trkpt lat="48.92114256508648" lon="9.755000062286854">
<ele>479</ele>
<time>2024-05-07T10:38:37Z</time>
</trkpt>
<trkpt lat="48.92116159200668" lon="9.754942813888192">
<ele>479</ele>
<time>2024-05-07T10:38:38Z</time>
</trkpt>
<trkpt lat="48.9211883302778" lon="9.75488849915564">
<ele>479</ele>
<time>2024-05-07T10:38:39Z</time>
</trkpt>
<trkpt lat="48.92121121287346" lon="9.754833178594708">
<ele>479.2</ele>
<time>2024-05-07T10:38:40Z</time>
</trkpt>
<trkpt lat="48.92123409546912" lon="9.754779785871506">
<ele>479.2</ele>
<time>2024-05-07T10:38:41Z</time>
</trkpt>
<trkpt lat="48.921256978064775" lon="9.754723543301225">
<ele>479.4</ele>
<time>2024-05-07T10:38:42Z</time>
</trkpt>
<trkpt lat="48.921279860660434" lon="9.754666294902565">
<ele>479.6</ele>
<time>2024-05-07T10:38:43Z</time>
</trkpt>
<trkpt lat="48.921298971399665" lon="9.754616674035788">
<ele>479.8</ele>
<time>2024-05-07T10:38:44Z</time>
</trkpt>
<trkpt lat="48.92132185399532" lon="9.754565209150314">
<ele>479.8</ele>
<time>2024-05-07T10:38:45Z</time>
</trkpt>
<trkpt lat="48.92134850844741" lon="9.75451366044581">
<ele>480</ele>
<time>2024-05-07T10:38:46Z</time>
</trkpt>
<trkpt lat="48.92137139104307" lon="9.754463117569683">
<ele>480.2</ele>
<time>2024-05-07T10:38:47Z</time>
</trkpt>
<trkpt lat="48.9213905017823" lon="9.754407880827785">
<ele>480.2</ele>
<time>2024-05-07T10:38:48Z</time>
</trkpt>
<trkpt lat="48.92141338437795" lon="9.75435541011393">
<ele>480.2</ele>
<time>2024-05-07T10:38:49Z</time>
</trkpt>
<trkpt lat="48.921440122649074" lon="9.754302017390728">
<ele>480.4</ele>
<time>2024-05-07T10:38:50Z</time>
</trkpt>
<trkpt lat="48.92146300524473" lon="9.754249546676874">
<ele>480.4</ele>
<time>2024-05-07T10:38:51Z</time>
</trkpt>
<trkpt lat="48.92148588784039" lon="9.754196153953671">
<ele>480.4</ele>
<time>2024-05-07T10:38:52Z</time>
</trkpt>
<trkpt lat="48.92150877043605" lon="9.754144605249166">
<ele>480.4</ele>
<time>2024-05-07T10:38:53Z</time>
</trkpt>
<trkpt lat="48.92153165303171" lon="9.754091212525964">
<ele>480.6</ele>
<time>2024-05-07T10:38:54Z</time>
</trkpt>
<trkpt lat="48.921554535627365" lon="9.75403974764049">
<ele>480.6</ele>
<time>2024-05-07T10:38:55Z</time>
</trkpt>
<trkpt lat="48.921573562547565" lon="9.753985349088907">
<ele>480.6</ele>
<time>2024-05-07T10:38:56Z</time>
</trkpt>
<trkpt lat="48.92159644514322" lon="9.753931956365705">
<ele>480.6</ele>
<time>2024-05-07T10:38:57Z</time>
</trkpt>
<trkpt lat="48.92161941155791" lon="9.753878563642502">
<ele>480.6</ele>
<time>2024-05-07T10:38:58Z</time>
</trkpt>
<trkpt lat="48.92164229415357" lon="9.7538251709193">
<ele>480.6</ele>
<time>2024-05-07T10:38:59Z</time>
</trkpt>
<trkpt lat="48.92166517674923" lon="9.753771778196096">
<ele>480.6</ele>
<time>2024-05-07T10:39:00Z</time>
</trkpt>
<trkpt lat="48.92168805934489" lon="9.753720229491591">
<ele>480.6</ele>
<time>2024-05-07T10:39:01Z</time>
</trkpt>
<trkpt lat="48.92170708626509" lon="9.75366490893066">
<ele>480.8</ele>
<time>2024-05-07T10:39:02Z</time>
</trkpt>
<trkpt lat="48.921729968860745" lon="9.753611516207457">
<ele>480.8</ele>
<time>2024-05-07T10:39:03Z</time>
</trkpt>
<trkpt lat="48.92174907959998" lon="9.753558123484254">
<ele>480.8</ele>
<time>2024-05-07T10:39:04Z</time>
</trkpt>
<trkpt lat="48.921771962195635" lon="9.75350665859878">
<ele>480.8</ele>
<time>2024-05-07T10:39:05Z</time>
</trkpt>
<trkpt lat="48.92179484479129" lon="9.753457037732003">
<ele>481</ele>
<time>2024-05-07T10:39:06Z</time>
</trkpt>
<trkpt lat="48.92181772738695" lon="9.75340649485588">
<ele>481</ele>
<time>2024-05-07T10:39:07Z</time>
</trkpt>
<trkpt lat="48.92184060998261" lon="9.753353102132678">
<ele>481</ele>
<time>2024-05-07T10:39:08Z</time>
</trkpt>
<trkpt lat="48.92186349257827" lon="9.753296775743364">
<ele>481.2</ele>
<time>2024-05-07T10:39:09Z</time>
</trkpt>
<trkpt lat="48.921886375173926" lon="9.753239611163735">
<ele>481.2</ele>
<time>2024-05-07T10:39:10Z</time>
</trkpt>
<trkpt lat="48.92190548591316" lon="9.753185212612152">
<ele>481.4</ele>
<time>2024-05-07T10:39:11Z</time>
</trkpt>
<trkpt lat="48.921928368508816" lon="9.75313181988895">
<ele>481.4</ele>
<time>2024-05-07T10:39:12Z</time>
</trkpt>
<trkpt lat="48.92195510677993" lon="9.753078427165748">
<ele>481.6</ele>
<time>2024-05-07T10:39:13Z</time>
</trkpt>
<trkpt lat="48.92197798937559" lon="9.753025034442544">
<ele>481.6</ele>
<time>2024-05-07T10:39:14Z</time>
</trkpt>
<trkpt lat="48.92200087197125" lon="9.752969713881612">
<ele>481.6</ele>
<time>2024-05-07T10:39:15Z</time>
</trkpt>
<trkpt lat="48.92202375456691" lon="9.752915315330029">
<ele>481.6</ele>
<time>2024-05-07T10:39:16Z</time>
</trkpt>
<trkpt lat="48.922046637162566" lon="9.752861922606826">
<ele>481.8</ele>
<time>2024-05-07T10:39:17Z</time>
</trkpt>
<trkpt lat="48.922069519758224" lon="9.752808529883623">
<ele>481.8</ele>
<time>2024-05-07T10:39:18Z</time>
</trkpt>
<trkpt lat="48.92209240235388" lon="9.75275513716042">
<ele>481.8</ele>
<time>2024-05-07T10:39:19Z</time>
</trkpt>
<trkpt lat="48.92211528494954" lon="9.75269503891468">
<ele>481.8</ele>
<time>2024-05-07T10:39:20Z</time>
</trkpt>
<trkpt lat="48.9221381675452" lon="9.752633012831213">
<ele>481.8</ele>
<time>2024-05-07T10:39:21Z</time>
</trkpt>
<trkpt lat="48.922168677672744" lon="9.752566292881966">
<ele>481.8</ele>
<time>2024-05-07T10:39:22Z</time>
</trkpt>
<trkpt lat="48.92219918780029" lon="9.75249856710434">
<ele>481.8</ele>
<time>2024-05-07T10:39:23Z</time>
</trkpt>
<trkpt lat="48.92222969792783" lon="9.752427991479635">
<ele>481.8</ele>
<time>2024-05-07T10:39:24Z</time>
</trkpt>
<trkpt lat="48.92225643619895" lon="9.752354566007853">
<ele>482</ele>
<time>2024-05-07T10:39:25Z</time>
</trkpt>
<trkpt lat="48.922283090651035" lon="9.752288768067956">
<ele>482</ele>
<time>2024-05-07T10:39:26Z</time>
</trkpt>
<trkpt lat="48.92231368459761" lon="9.752226825803518">
<ele>482.2</ele>
<time>2024-05-07T10:39:27Z</time>
</trkpt>
<trkpt lat="48.92234796658158" lon="9.752173349261284">
<ele>482.4</ele>
<time>2024-05-07T10:39:28Z</time>
</trkpt>
<trkpt lat="48.92237847670913" lon="9.752124734222887">
<ele>482.6</ele>
<time>2024-05-07T10:39:29Z</time>
</trkpt>
<trkpt lat="48.92240898683667" lon="9.752075113356112">
<ele>482.8</ele>
<time>2024-05-07T10:39:30Z</time>
</trkpt>
<trkpt lat="48.92243572510779" lon="9.75202649831772">
<ele>483</ele>
<time>2024-05-07T10:39:31Z</time>
</trkpt>
<trkpt lat="48.92245475202799" lon="9.751970255747436">
<ele>483</ele>
<time>2024-05-07T10:39:32Z</time>
</trkpt>
<trkpt lat="48.922481490299106" lon="9.751918790861964">
<ele>483.2</ele>
<time>2024-05-07T10:39:33Z</time>
</trkpt>
<trkpt lat="48.92250822857022" lon="9.75186531431973">
<ele>483.2</ele>
<time>2024-05-07T10:39:34Z</time>
</trkpt>
<trkpt lat="48.92253111116588" lon="9.751811921596529">
<ele>483.4</ele>
<time>2024-05-07T10:39:35Z</time>
</trkpt>
<trkpt lat="48.92255399376154" lon="9.751756601035597">
<ele>483.4</ele>
<time>2024-05-07T10:39:36Z</time>
</trkpt>
<trkpt lat="48.9225768763572" lon="9.751700358465314">
<ele>483.4</ele>
<time>2024-05-07T10:39:37Z</time>
</trkpt>
<trkpt lat="48.92260353080928" lon="9.751640260219574">
<ele>483.2</ele>
<time>2024-05-07T10:39:38Z</time>
</trkpt>
<trkpt lat="48.92262641340494" lon="9.751584939658642">
<ele>483.2</ele>
<time>2024-05-07T10:39:39Z</time>
</trkpt>
<trkpt lat="48.92265315167606" lon="9.75153154693544">
<ele>483.2</ele>
<time>2024-05-07T10:39:40Z</time>
</trkpt>
<trkpt lat="48.922679889947176" lon="9.751476226374509">
<ele>483.4</ele>
<time>2024-05-07T10:39:41Z</time>
</trkpt>
<trkpt lat="48.92270654439926" lon="9.751422833651304">
<ele>483.4</ele>
<time>2024-05-07T10:39:42Z</time>
</trkpt>
<trkpt lat="48.92272942699492" lon="9.751371368765833">
<ele>483.4</ele>
<time>2024-05-07T10:39:43Z</time>
</trkpt>
<trkpt lat="48.92275230959058" lon="9.751317976042628">
<ele>483.6</ele>
<time>2024-05-07T10:39:44Z</time>
</trkpt>
<trkpt lat="48.92277519218624" lon="9.751268355175853">
<ele>483.6</ele>
<time>2024-05-07T10:39:45Z</time>
</trkpt>
<trkpt lat="48.922798074781895" lon="9.751218734309075">
<ele>483.6</ele>
<time>2024-05-07T10:39:46Z</time>
</trkpt>
<trkpt lat="48.922821041196585" lon="9.751170119270682">
<ele>483.6</ele>
<time>2024-05-07T10:39:47Z</time>
</trkpt>
<trkpt lat="48.92284392379224" lon="9.751128125935791">
<ele>483.6</ele>
<time>2024-05-07T10:39:48Z</time>
</trkpt>
<trkpt lat="48.9228668063879" lon="9.751086216419935">
<ele>483.6</ele>
<time>2024-05-07T10:39:49Z</time>
</trkpt>
<trkpt lat="48.92288968898356" lon="9.751043301075695">
<ele>483.6</ele>
<time>2024-05-07T10:39:50Z</time>
</trkpt>
<trkpt lat="48.922920199111104" lon="9.751003235578535">
<ele>483.6</ele>
<time>2024-05-07T10:39:51Z</time>
</trkpt>
<trkpt lat="48.922958336770535" lon="9.750967947766185">
<ele>483.6</ele>
<time>2024-05-07T10:39:52Z</time>
</trkpt>
<trkpt lat="48.922996474429965" lon="9.75093358196318">
<ele>483.6</ele>
<time>2024-05-07T10:39:53Z</time>
</trkpt>
<trkpt lat="48.92303084023297" lon="9.750903071835635">
<ele>483.6</ele>
<time>2024-05-07T10:39:54Z</time>
</trkpt>
<trkpt lat="48.92306512221694" lon="9.750871639698744">
<ele>483.6</ele>
<time>2024-05-07T10:39:55Z</time>
</trkpt>
<trkpt lat="48.92310325987637" lon="9.75084012374282">
<ele>483.6</ele>
<time>2024-05-07T10:39:56Z</time>
</trkpt>
<trkpt lat="48.9231413975358" lon="9.750811541453004">
<ele>483.6</ele>
<time>2024-05-07T10:39:57Z</time>
</trkpt>
<trkpt lat="48.92317961901426" lon="9.750782959163187">
<ele>483.6</ele>
<time>2024-05-07T10:39:58Z</time>
</trkpt>
<trkpt lat="48.92322152853012" lon="9.750756220892072">
<ele>483.6</ele>
<time>2024-05-07T10:39:59Z</time>
</trkpt>
<trkpt lat="48.92325589433312" lon="9.750728560611606">
<ele>483.6</ele>
<time>2024-05-07T10:40:00Z</time>
</trkpt>
<trkpt lat="48.92329780384898" lon="9.750703750178218">
<ele>483.6</ele>
<time>2024-05-07T10:40:01Z</time>
</trkpt>
<trkpt lat="48.92333602532744" lon="9.75067801773548">
<ele>483.6</ele>
<time>2024-05-07T10:40:02Z</time>
</trkpt>
<trkpt lat="48.923374162986875" lon="9.750655135139825">
<ele>483.6</ele>
<time>2024-05-07T10:40:03Z</time>
</trkpt>
<trkpt lat="48.923412300646305" lon="9.750635102391245">
<ele>483.6</ele>
<time>2024-05-07T10:40:04Z</time>
</trkpt>
<trkpt lat="48.92344658263028" lon="9.750610291957855">
<ele>483.6</ele>
<time>2024-05-07T10:40:05Z</time>
</trkpt>
<trkpt lat="48.92347709275782" lon="9.75057785399258">
<ele>483.6</ele>
<time>2024-05-07T10:40:06Z</time>
</trkpt>
<trkpt lat="48.9235076867044" lon="9.75054164417088">
<ele>483.4</ele>
<time>2024-05-07T10:40:07Z</time>
</trkpt>
<trkpt lat="48.92354196868837" lon="9.75050350651145">
<ele>483.4</ele>
<time>2024-05-07T10:40:08Z</time>
</trkpt>
<trkpt lat="48.92358396202326" lon="9.750471990555525">
<ele>483.4</ele>
<time>2024-05-07T10:40:09Z</time>
</trkpt>
<trkpt lat="48.92362587153912" lon="9.750450113788249">
<ele>483.2</ele>
<time>2024-05-07T10:40:10Z</time>
</trkpt>
<trkpt lat="48.92366409301758" lon="9.750428153201938">
<ele>483</ele>
<time>2024-05-07T10:40:11Z</time>
</trkpt>
<trkpt lat="48.92370223067701" lon="9.750406192615628">
<ele>483</ele>
<time>2024-05-07T10:40:12Z</time>
</trkpt>
<trkpt lat="48.923744140192866" lon="9.750378532335162">
<ele>482.8</ele>
<time>2024-05-07T10:40:13Z</time>
</trkpt>
<trkpt lat="48.92378990538418" lon="9.750349950045347">
<ele>482.6</ele>
<time>2024-05-07T10:40:14Z</time>
</trkpt>
<trkpt lat="48.92383575439453" lon="9.750318517908454">
<ele>482.4</ele>
<time>2024-05-07T10:40:15Z</time>
</trkpt>
<trkpt lat="48.923889147117734" lon="9.750283230096102">
<ele>482.4</ele>
<time>2024-05-07T10:40:16Z</time>
</trkpt>
<trkpt lat="48.92394631169736" lon="9.750240314751863">
<ele>482.2</ele>
<time>2024-05-07T10:40:17Z</time>
</trkpt>
<trkpt lat="48.924003560096025" lon="9.750194549560549">
<ele>482</ele>
<time>2024-05-07T10:40:18Z</time>
</trkpt>
<trkpt lat="48.92406843602657" lon="9.75014970637858">
<ele>481.8</ele>
<time>2024-05-07T10:40:19Z</time>
</trkpt>
<trkpt lat="48.92413322813809" lon="9.75010871887207">
<ele>481.6</ele>
<time>2024-05-07T10:40:20Z</time>
</trkpt>
<trkpt lat="48.92419810406864" lon="9.750060020014644">
<ele>481.4</ele>
<time>2024-05-07T10:40:21Z</time>
</trkpt>
<trkpt lat="48.92426675185561" lon="9.75000947713852">
<ele>481.2</ele>
<time>2024-05-07T10:40:22Z</time>
</trkpt>
<trkpt lat="48.924339255318046" lon="9.749958012253046">
<ele>481</ele>
<time>2024-05-07T10:40:23Z</time>
</trkpt>
<trkpt lat="48.92440790310502" lon="9.749897914007306">
<ele>480.6</ele>
<time>2024-05-07T10:40:24Z</time>
</trkpt>
<trkpt lat="48.924476550891995" lon="9.74983211606741">
<ele>480.4</ele>
<time>2024-05-07T10:40:25Z</time>
</trkpt>
<trkpt lat="48.92455291002989" lon="9.749763468280436">
<ele>480</ele>
<time>2024-05-07T10:40:26Z</time>
</trkpt>
<trkpt lat="48.92462155781686" lon="9.749685265123844">
<ele>479.8</ele>
<time>2024-05-07T10:40:27Z</time>
</trkpt>
<trkpt lat="48.92469020560384" lon="9.749618461355569">
<ele>479.4</ele>
<time>2024-05-07T10:40:28Z</time>
</trkpt>
<trkpt lat="48.92476270906627" lon="9.749549813568592">
<ele>479</ele>
<time>2024-05-07T10:40:29Z</time>
</trkpt>
<trkpt lat="48.92482750117779" lon="9.74947638809681">
<ele>478.6</ele>
<time>2024-05-07T10:40:30Z</time>
</trkpt>
<trkpt lat="48.924896232783794" lon="9.749404890462756">
<ele>478.4</ele>
<time>2024-05-07T10:40:31Z</time>
</trkpt>
<trkpt lat="48.92496488057077" lon="9.74933624267578">
<ele>478</ele>
<time>2024-05-07T10:40:32Z</time>
</trkpt>
<trkpt lat="48.9250373840332" lon="9.749264661222696">
<ele>477.8</ele>
<time>2024-05-07T10:40:33Z</time>
</trkpt>
<trkpt lat="48.92510603182018" lon="9.74919693544507">
<ele>477.4</ele>
<time>2024-05-07T10:40:34Z</time>
</trkpt>
<trkpt lat="48.925170823931694" lon="9.749128287658095">
<ele>477.2</ele>
<time>2024-05-07T10:40:35Z</time>
</trkpt>
<trkpt lat="48.92523569986224" lon="9.749065339565275">
<ele>476.8</ele>
<time>2024-05-07T10:40:36Z</time>
</trkpt>
<trkpt lat="48.92530057579279" lon="9.74900339730084">
<ele>476.6</ele>
<time>2024-05-07T10:40:37Z</time>
</trkpt>
<trkpt lat="48.925365367904305" lon="9.748947070911528">
<ele>476.4</ele>
<time>2024-05-07T10:40:38Z</time>
</trkpt>
<trkpt lat="48.925426471978426" lon="9.748887056484818">
<ele>476.2</ele>
<time>2024-05-07T10:40:39Z</time>
</trkpt>
<trkpt lat="48.925483636558056" lon="9.74882695823908">
<ele>476</ele>
<time>2024-05-07T10:40:40Z</time>
</trkpt>
<trkpt lat="48.925544656813145" lon="9.748771637678146">
<ele>475.8</ele>
<time>2024-05-07T10:40:41Z</time>
</trkpt>
<trkpt lat="48.92559427767992" lon="9.748723022639751">
<ele>475.6</ele>
<time>2024-05-07T10:40:42Z</time>
</trkpt>
<trkpt lat="48.92564004287124" lon="9.748676251620054">
<ele>475.6</ele>
<time>2024-05-07T10:40:43Z</time>
</trkpt>
<trkpt lat="48.92569343559444" lon="9.748628558591008">
<ele>475.6</ele>
<time>2024-05-07T10:40:44Z</time>
</trkpt>
<trkpt lat="48.925743056461215" lon="9.748578015714884">
<ele>475.6</ele>
<time>2024-05-07T10:40:45Z</time>
</trkpt>
<trkpt lat="48.92578882165253" lon="9.74852655082941">
<ele>475.8</ele>
<time>2024-05-07T10:40:46Z</time>
</trkpt>
<trkpt lat="48.92583844251931" lon="9.748477935791016">
<ele>476</ele>
<time>2024-05-07T10:40:47Z</time>
</trkpt>
<trkpt lat="48.92588797956705" lon="9.74843024276197">
<ele>476</ele>
<time>2024-05-07T10:40:48Z</time>
</trkpt>
<trkpt lat="48.9259338285774" lon="9.748381543904545">
<ele>476</ele>
<time>2024-05-07T10:40:49Z</time>
</trkpt>
<trkpt lat="48.92598336562514" lon="9.748336784541609">
<ele>476.2</ele>
<time>2024-05-07T10:40:50Z</time>
</trkpt>
<trkpt lat="48.92603298649192" lon="9.74829001352191">
<ele>476.2</ele>
<time>2024-05-07T10:40:51Z</time>
</trkpt>
<trkpt lat="48.926082607358694" lon="9.748247098177671">
<ele>476.2</ele>
<time>2024-05-07T10:40:52Z</time>
</trkpt>
<trkpt lat="48.92613214440644" lon="9.748203260824084">
<ele>476.2</ele>
<time>2024-05-07T10:40:53Z</time>
</trkpt>
<trkpt lat="48.92618176527321" lon="9.748161267489197">
<ele>476.2</ele>
<time>2024-05-07T10:40:54Z</time>
</trkpt>
<trkpt lat="48.926235157996416" lon="9.748120279982686">
<ele>476.2</ele>
<time>2024-05-07T10:40:55Z</time>
</trkpt>
<trkpt lat="48.92628477886319" lon="9.748080214485526">
<ele>476.2</ele>
<time>2024-05-07T10:40:56Z</time>
</trkpt>
<trkpt lat="48.926338171586394" lon="9.748038221150637">
<ele>476.2</ele>
<time>2024-05-07T10:40:57Z</time>
</trkpt>
<trkpt lat="48.92638770863414" lon="9.748002011328936">
<ele>476.2</ele>
<time>2024-05-07T10:40:58Z</time>
</trkpt>
<trkpt lat="48.9264449570328" lon="9.747968651354311">
<ele>476.2</ele>
<time>2024-05-07T10:40:59Z</time>
</trkpt>
<trkpt lat="48.926494577899575" lon="9.74793529137969">
<ele>476.2</ele>
<time>2024-05-07T10:41:00Z</time>
</trkpt>
<trkpt lat="48.926551742479205" lon="9.747900003567338">
<ele>476.2</ele>
<time>2024-05-07T10:41:01Z</time>
</trkpt>
<trkpt lat="48.92660521902144" lon="9.747866559773684">
<ele>476.2</ele>
<time>2024-05-07T10:41:02Z</time>
</trkpt>
<trkpt lat="48.92665861174464" lon="9.74783705547452">
<ele>476.2</ele>
<time>2024-05-07T10:41:03Z</time>
</trkpt>
<trkpt lat="48.926712004467845" lon="9.747806545346975">
<ele>476.2</ele>
<time>2024-05-07T10:41:04Z</time>
</trkpt>
<trkpt lat="48.926773024722934" lon="9.74777502939105">
<ele>476.2</ele>
<time>2024-05-07T10:41:05Z</time>
</trkpt>
<trkpt lat="48.92682641744614" lon="9.747741669416428">
<ele>476.2</ele>
<time>2024-05-07T10:41:06Z</time>
</trkpt>
<trkpt lat="48.92687981016934" lon="9.747711159288883">
<ele>476</ele>
<time>2024-05-07T10:41:07Z</time>
</trkpt>
<trkpt lat="48.926933286711574" lon="9.747683499008415">
<ele>475.8</ele>
<time>2024-05-07T10:41:08Z</time>
</trkpt>
<trkpt lat="48.9269904512912" lon="9.747651983052492">
<ele>475.8</ele>
<time>2024-05-07T10:41:09Z</time>
</trkpt>
<trkpt lat="48.92704007215798" lon="9.74761862307787">
<ele>475.6</ele>
<time>2024-05-07T10:41:10Z</time>
</trkpt>
<trkpt lat="48.92709732055664" lon="9.747583335265515">
<ele>475.4</ele>
<time>2024-05-07T10:41:11Z</time>
</trkpt>
<trkpt lat="48.92715071327984" lon="9.747549975290896">
<ele>475.4</ele>
<time>2024-05-07T10:41:12Z</time>
</trkpt>
<trkpt lat="48.927204106003046" lon="9.74751845933497">
<ele>475.2</ele>
<time>2024-05-07T10:41:13Z</time>
</trkpt>
<trkpt lat="48.92725749872625" lon="9.747483171522616">
<ele>475.2</ele>
<time>2024-05-07T10:41:14Z</time>
</trkpt>
<trkpt lat="48.92731474712491" lon="9.74744126200676">
<ele>475</ele>
<time>2024-05-07T10:41:15Z</time>
</trkpt>
<trkpt lat="48.92737191170454" lon="9.747406896203756">
<ele>475</ele>
<time>2024-05-07T10:41:16Z</time>
</trkpt>
<trkpt lat="48.92743293195963" lon="9.747369764372706">
<ele>474.8</ele>
<time>2024-05-07T10:41:17Z</time>
</trkpt>
<trkpt lat="48.92749780789018" lon="9.747335398569705">
<ele>474.6</ele>
<time>2024-05-07T10:41:18Z</time>
</trkpt>
<trkpt lat="48.92756645567715" lon="9.747300110757353">
<ele>474.4</ele>
<time>2024-05-07T10:41:19Z</time>
</trkpt>
<trkpt lat="48.92763518728316" lon="9.74726289510727">
<ele>474.4</ele>
<time>2024-05-07T10:41:20Z</time>
</trkpt>
<trkpt lat="48.92770760692656" lon="9.74722475744784">
<ele>474.2</ele>
<time>2024-05-07T10:41:21Z</time>
</trkpt>
<trkpt lat="48.927780110388994" lon="9.747188547626138">
<ele>474</ele>
<time>2024-05-07T10:41:22Z</time>
</trkpt>
<trkpt lat="48.92784498631954" lon="9.747150409966707">
<ele>473.8</ele>
<time>2024-05-07T10:41:23Z</time>
</trkpt>
<trkpt lat="48.9279212616384" lon="9.74710363894701">
<ele>473.6</ele>
<time>2024-05-07T10:41:24Z</time>
</trkpt>
<trkpt lat="48.92799376510084" lon="9.747059801593425">
<ele>473.4</ele>
<time>2024-05-07T10:41:25Z</time>
</trkpt>
<trkpt lat="48.928073812276125" lon="9.747016886249185">
<ele>473.2</ele>
<time>2024-05-07T10:41:26Z</time>
</trkpt>
<trkpt lat="48.92815017141402" lon="9.746972965076566">
<ele>472.8</ele>
<time>2024-05-07T10:41:27Z</time>
</trkpt>
<trkpt lat="48.928234074264765" lon="9.746932983398438">
<ele>472.6</ele>
<time>2024-05-07T10:41:28Z</time>
</trkpt>
<trkpt lat="48.928314205259085" lon="9.7468900680542">
<ele>472.2</ele>
<time>2024-05-07T10:41:29Z</time>
</trkpt>
<trkpt lat="48.92839425243437" lon="9.746839441359043">
<ele>472</ele>
<time>2024-05-07T10:41:30Z</time>
</trkpt>
<trkpt lat="48.92847823910415" lon="9.74678797647357">
<ele>471.6</ele>
<time>2024-05-07T10:41:31Z</time>
</trkpt>
<trkpt lat="48.9285621419549" lon="9.746738355606794">
<ele>471.4</ele>
<time>2024-05-07T10:41:32Z</time>
</trkpt>
<trkpt lat="48.92864227294922" lon="9.746684962883592">
<ele>471.2</ele>
<time>2024-05-07T10:41:33Z</time>
</trkpt>
<trkpt lat="48.92872232012451" lon="9.746624864637852">
<ele>471</ele>
<time>2024-05-07T10:41:34Z</time>
</trkpt>
<trkpt lat="48.92880245111883" lon="9.746571471914647">
<ele>470.6</ele>
<time>2024-05-07T10:41:35Z</time>
</trkpt>
<trkpt lat="48.92886347137392" lon="9.746518079191446">
<ele>470.4</ele>
<time>2024-05-07T10:41:36Z</time>
</trkpt>
<trkpt lat="48.92893597483635" lon="9.74645035341382">
<ele>470.2</ele>
<time>2024-05-07T10:41:37Z</time>
</trkpt>
<trkpt lat="48.9290008507669" lon="9.746388411149384">
<ele>470</ele>
<time>2024-05-07T10:41:38Z</time>
</trkpt>
<trkpt lat="48.92906564287841" lon="9.746321607381104">
<ele>469.8</ele>
<time>2024-05-07T10:41:39Z</time>
</trkpt>
<trkpt lat="48.929122891277075" lon="9.746261592954395">
<ele>469.6</ele>
<time>2024-05-07T10:41:40Z</time>
</trkpt>
<trkpt lat="48.929180139675736" lon="9.74619864486158">
<ele>469.4</ele>
<time>2024-05-07T10:41:41Z</time>
</trkpt>
<trkpt lat="48.92922967672348" lon="9.74613661877811">
<ele>469.2</ele>
<time>2024-05-07T10:41:42Z</time>
</trkpt>
<trkpt lat="48.92928306944668" lon="9.74607652053237">
<ele>469</ele>
<time>2024-05-07T10:41:43Z</time>
</trkpt>
<trkpt lat="48.92932891845703" lon="9.746025055646896">
<ele>468.6</ele>
<time>2024-05-07T10:41:44Z</time>
</trkpt>
<trkpt lat="48.92937468364835" lon="9.7459764406085">
<ele>468.4</ele>
<time>2024-05-07T10:41:45Z</time>
</trkpt>
<trkpt lat="48.929420448839664" lon="9.745929669588804">
<ele>468.4</ele>
<time>2024-05-07T10:41:46Z</time>
</trkpt>
<trkpt lat="48.92946621403098" lon="9.74588298238814">
<ele>468.2</ele>
<time>2024-05-07T10:41:47Z</time>
</trkpt>
<trkpt lat="48.92950820736587" lon="9.745835289359093">
<ele>468.2</ele>
<time>2024-05-07T10:41:48Z</time>
</trkpt>
<trkpt lat="48.92955397255719" lon="9.745786590501666">
<ele>468</ele>
<time>2024-05-07T10:41:49Z</time>
</trkpt>
<trkpt lat="48.929599737748504" lon="9.745737975463271">
<ele>468</ele>
<time>2024-05-07T10:41:50Z</time>
</trkpt>
<trkpt lat="48.92964164726436" lon="9.745695060119033">
<ele>468.2</ele>
<time>2024-05-07T10:41:51Z</time>
</trkpt>
<trkpt lat="48.92968364059925" lon="9.745653150603175">
<ele>468.2</ele>
<time>2024-05-07T10:41:52Z</time>
</trkpt>
<trkpt lat="48.92972563393414" lon="9.745618784800172">
<ele>468.4</ele>
<time>2024-05-07T10:41:53Z</time>
</trkpt>
<trkpt lat="48.92976754345" lon="9.74558156915009">
<ele>468.6</ele>
<time>2024-05-07T10:41:54Z</time>
</trkpt>
<trkpt lat="48.92980953678489" lon="9.745550137013195">
<ele>468.8</ele>
<time>2024-05-07T10:41:55Z</time>
</trkpt>
<trkpt lat="48.92984767444432" lon="9.74552339874208">
<ele>469</ele>
<time>2024-05-07T10:41:56Z</time>
</trkpt>
<trkpt lat="48.92988966777921" lon="9.745496744289994">
<ele>469.2</ele>
<time>2024-05-07T10:41:57Z</time>
</trkpt>
<trkpt lat="48.92992780543864" lon="9.745474783703685">
<ele>469.6</ele>
<time>2024-05-07T10:41:58Z</time>
</trkpt>
<trkpt lat="48.929969714954495" lon="9.745452823117375">
<ele>469.8</ele>
<time>2024-05-07T10:41:59Z</time>
</trkpt>
<trkpt lat="48.930011708289385" lon="9.745434718206525">
<ele>470.2</ele>
<time>2024-05-07T10:42:00Z</time>
</trkpt>
<trkpt lat="48.930053701624274" lon="9.745414685457945">
<ele>470.6</ele>
<time>2024-05-07T10:42:01Z</time>
</trkpt>
<trkpt lat="48.93009561114013" lon="9.745403286069632">
<ele>470.8</ele>
<time>2024-05-07T10:42:02Z</time>
</trkpt>
<trkpt lat="48.93014137633145" lon="9.745389875024555">
<ele>471.2</ele>
<time>2024-05-07T10:42:03Z</time>
</trkpt>
<trkpt lat="48.93018336966634" lon="9.745376547798514">
<ele>471.6</ele>
<time>2024-05-07T10:42:04Z</time>
</trkpt>
<trkpt lat="48.93022536300123" lon="9.745363220572472">
<ele>471.8</ele>
<time>2024-05-07T10:42:05Z</time>
</trkpt>
<trkpt lat="48.930267272517085" lon="9.745351737365128">
<ele>472.2</ele>
<time>2024-05-07T10:42:06Z</time>
</trkpt>
<trkpt lat="48.930309265851974" lon="9.745340337976812">
<ele>472.6</ele>
<time>2024-05-07T10:42:07Z</time>
</trkpt>
<trkpt lat="48.93035117536783" lon="9.74532793276012">
<ele>473</ele>
<time>2024-05-07T10:42:08Z</time>
</trkpt>
<trkpt lat="48.93039316870272" lon="9.745318377390504">
<ele>473.4</ele>
<time>2024-05-07T10:42:09Z</time>
</trkpt>
<trkpt lat="48.93043516203761" lon="9.745311671867968">
<ele>473.6</ele>
<time>2024-05-07T10:42:10Z</time>
</trkpt>
<trkpt lat="48.93047329969704" lon="9.74530505016446">
<ele>474</ele>
<time>2024-05-07T10:42:11Z</time>
</trkpt>
<trkpt lat="48.93051143735647" lon="9.745296416804194">
<ele>474.4</ele>
<time>2024-05-07T10:42:12Z</time>
</trkpt>
<trkpt lat="48.93055343069136" lon="9.745293566957116">
<ele>474.8</ele>
<time>2024-05-07T10:42:13Z</time>
</trkpt>
<trkpt lat="48.93058771267533" lon="9.74528786726296">
<ele>475.2</ele>
<time>2024-05-07T10:42:14Z</time>
</trkpt>
<trkpt lat="48.93062585033476" lon="9.74528786726296">
<ele>475.4</ele>
<time>2024-05-07T10:42:15Z</time>
</trkpt>
<trkpt lat="48.93066021613777" lon="9.74528786726296">
<ele>475.6</ele>
<time>2024-05-07T10:42:16Z</time>
</trkpt>
<trkpt lat="48.9306983537972" lon="9.74528686143458">
<ele>476</ele>
<time>2024-05-07T10:42:17Z</time>
</trkpt>
<trkpt lat="48.93073649145663" lon="9.745283089578152">
<ele>476.2</ele>
<time>2024-05-07T10:42:18Z</time>
</trkpt>
<trkpt lat="48.93077462911606" lon="9.745280239731072">
<ele>476.4</ele>
<time>2024-05-07T10:42:19Z</time>
</trkpt>
<trkpt lat="48.93081276677549" lon="9.745278311893344">
<ele>476.6</ele>
<time>2024-05-07T10:42:20Z</time>
</trkpt>
<trkpt lat="48.93084713257849" lon="9.745276384055614">
<ele>476.6</ele>
<time>2024-05-07T10:42:21Z</time>
</trkpt>
<trkpt lat="48.93088912591338" lon="9.745273534208536">
<ele>476.6</ele>
<time>2024-05-07T10:42:22Z</time>
</trkpt>
<trkpt lat="48.93092340789735" lon="9.745269762352107">
<ele>476.6</ele>
<time>2024-05-07T10:42:23Z</time>
</trkpt>
<trkpt lat="48.930961545556784" lon="9.74526783451438">
<ele>476.6</ele>
<time>2024-05-07T10:42:24Z</time>
</trkpt>
<trkpt lat="48.93100353889167" lon="9.74526691250503">
<ele>476.8</ele>
<time>2024-05-07T10:42:25Z</time>
</trkpt>
<trkpt lat="48.93104553222656" lon="9.74526783451438">
<ele>476.8</ele>
<time>2024-05-07T10:42:26Z</time>
</trkpt>
<trkpt lat="48.93109129741788" lon="9.745281161740422">
<ele>476.8</ele>
<time>2024-05-07T10:42:27Z</time>
</trkpt>
<trkpt lat="48.93114469014108" lon="9.745283089578152">
<ele>477</ele>
<time>2024-05-07T10:42:28Z</time>
</trkpt>
<trkpt lat="48.931198082864285" lon="9.74528686143458">
<ele>477</ele>
<time>2024-05-07T10:42:29Z</time>
</trkpt>
<trkpt lat="48.93125147558749" lon="9.74528786726296">
<ele>477</ele>
<time>2024-05-07T10:42:30Z</time>
</trkpt>
<trkpt lat="48.93130486831069" lon="9.745289795100687">
<ele>477</ele>
<time>2024-05-07T10:42:31Z</time>
</trkpt>
<trkpt lat="48.93135826103389" lon="9.745296416804194">
<ele>477.2</ele>
<time>2024-05-07T10:42:32Z</time>
</trkpt>
<trkpt lat="48.93140788190067" lon="9.745300272479652">
<ele>477.2</ele>
<time>2024-05-07T10:42:33Z</time>
</trkpt>
<trkpt lat="48.93145750276744" lon="9.74530689418316">
<ele>477</ele>
<time>2024-05-07T10:42:34Z</time>
</trkpt>
<trkpt lat="48.93150326795876" lon="9.745314521715043">
<ele>476.8</ele>
<time>2024-05-07T10:42:35Z</time>
</trkpt>
<trkpt lat="48.93155666068196" lon="9.745321227237582">
<ele>476.6</ele>
<time>2024-05-07T10:42:36Z</time>
</trkpt>
<trkpt lat="48.931610053405166" lon="9.74532793276012">
<ele>476.4</ele>
<time>2024-05-07T10:42:37Z</time>
</trkpt>
<trkpt lat="48.93166730180383" lon="9.745333632454276">
<ele>476.2</ele>
<time>2024-05-07T10:42:38Z</time>
</trkpt>
<trkpt lat="48.93172069452703" lon="9.745336482301354">
<ele>475.8</ele>
<time>2024-05-07T10:42:39Z</time>
</trkpt>
<trkpt lat="48.93177408725023" lon="9.745340337976812">
<ele>475.6</ele>
<time>2024-05-07T10:42:40Z</time>
</trkpt>
<trkpt lat="48.931827479973435" lon="9.74534511566162">
<ele>475.2</ele>
<time>2024-05-07T10:42:41Z</time>
</trkpt>
<trkpt lat="48.93187710084021" lon="9.745349809527395">
<ele>474.8</ele>
<time>2024-05-07T10:42:42Z</time>
</trkpt>
<trkpt lat="48.931926721706986" lon="9.745353665202856">
<ele>474.6</ele>
<time>2024-05-07T10:42:43Z</time>
</trkpt>
<trkpt lat="48.93198011443019" lon="9.745353665202856">
<ele>474.2</ele>
<time>2024-05-07T10:42:44Z</time>
</trkpt>
<trkpt lat="48.93203350715339" lon="9.745358442887664">
<ele>473.8</ele>
<time>2024-05-07T10:42:45Z</time>
</trkpt>
<trkpt lat="48.93209075555205" lon="9.745361292734742">
<ele>473.4</ele>
<time>2024-05-07T10:42:46Z</time>
</trkpt>
<trkpt lat="48.93215177580714" lon="9.745363220572472">
<ele>473.2</ele>
<time>2024-05-07T10:42:47Z</time>
</trkpt>
<trkpt lat="48.93221656791866" lon="9.745361292734742">
<ele>472.8</ele>
<time>2024-05-07T10:42:48Z</time>
</trkpt>
<trkpt lat="48.932285299524665" lon="9.745360370725392">
<ele>472.4</ele>
<time>2024-05-07T10:42:49Z</time>
</trkpt>
<trkpt lat="48.93235771916807" lon="9.7453479655087">
<ele>472</ele>
<time>2024-05-07T10:42:50Z</time>
</trkpt>
<trkpt lat="48.9324302226305" lon="9.745334554463623">
<ele>471.6</ele>
<time>2024-05-07T10:42:51Z</time>
</trkpt>
<trkpt lat="48.932502726092935" lon="9.745314521715043">
<ele>471.2</ele>
<time>2024-05-07T10:42:52Z</time>
</trkpt>
<trkpt lat="48.93257514573634" lon="9.745298344641924">
<ele>470.8</ele>
<time>2024-05-07T10:42:53Z</time>
</trkpt>
<trkpt lat="48.93265527673066" lon="9.745278311893344">
<ele>470.2</ele>
<time>2024-05-07T10:42:54Z</time>
</trkpt>
<trkpt lat="48.93272778019309" lon="9.745249729603527">
<ele>469.8</ele>
<time>2024-05-07T10:42:55Z</time>
</trkpt>
<trkpt lat="48.93280028365552" lon="9.74522491917014">
<ele>469.2</ele>
<time>2024-05-07T10:42:56Z</time>
</trkpt>
<trkpt lat="48.932876558974385" lon="9.745202036574485">
<ele>468.8</ele>
<time>2024-05-07T10:42:57Z</time>
</trkpt>
<trkpt lat="48.932952834293246" lon="9.745173454284668">
<ele>468.2</ele>
<time>2024-05-07T10:42:58Z</time>
</trkpt>
<trkpt lat="48.933032965287566" lon="9.74514478817582">
<ele>467.8</ele>
<time>2024-05-07T10:42:59Z</time>
</trkpt>
<trkpt lat="48.93310924060643" lon="9.745116205886006">
<ele>467.2</ele>
<time>2024-05-07T10:43:00Z</time>
</trkpt>
<trkpt lat="48.933193143457174" lon="9.74508661776781">
<ele>466.6</ele>
<time>2024-05-07T10:43:01Z</time>
</trkpt>
<trkpt lat="48.93327713012695" lon="9.745057029649615">
<ele>466</ele>
<time>2024-05-07T10:43:02Z</time>
</trkpt>
<trkpt lat="48.93336480483413" lon="9.74502651952207">
<ele>465.2</ele>
<time>2024-05-07T10:43:03Z</time>
</trkpt>
<trkpt lat="48.93345641903579" lon="9.744997015222909">
<ele>464.6</ele>
<time>2024-05-07T10:43:04Z</time>
</trkpt>
<trkpt lat="48.933547949418426" lon="9.744983604177833">
<ele>464</ele>
<time>2024-05-07T10:43:05Z</time>
</trkpt>
<trkpt lat="48.93363947980106" lon="9.744956949725749">
<ele>463.4</ele>
<time>2024-05-07T10:43:06Z</time>
</trkpt>
<trkpt lat="48.933723382651806" lon="9.7449282836169">
<ele>462.8</ele>
<time>2024-05-07T10:43:07Z</time>
</trkpt>
<trkpt lat="48.93379588611424" lon="9.744906406849625">
<ele>462.2</ele>
<time>2024-05-07T10:43:08Z</time>
</trkpt>
<trkpt lat="48.93386838957667" lon="9.74489014595747">
<ele>461.4</ele>
<time>2024-05-07T10:43:09Z</time>
</trkpt>
<trkpt lat="48.93393703736365" lon="9.744878746569157">
<ele>460.8</ele>
<time>2024-05-07T10:43:10Z</time>
</trkpt>
<trkpt lat="48.93400191329419" lon="9.744878746569157">
<ele>460.4</ele>
<time>2024-05-07T10:43:11Z</time>
</trkpt>
<trkpt lat="48.9340553060174" lon="9.74487204104662">
<ele>459.8</ele>
<time>2024-05-07T10:43:12Z</time>
</trkpt>
<trkpt lat="48.934101071208715" lon="9.744883524253964">
<ele>459.4</ele>
<time>2024-05-07T10:43:13Z</time>
</trkpt>
<trkpt lat="48.934143064543605" lon="9.7448920737952">
<ele>459.2</ele>
<time>2024-05-07T10:43:14Z</time>
</trkpt>
<trkpt lat="48.93416971899569" lon="9.744896851480007">
<ele>458.8</ele>
<time>2024-05-07T10:43:15Z</time>
</trkpt>
<trkpt lat="48.93419645726681" lon="9.744899701327084">
<ele>458.6</ele>
<time>2024-05-07T10:43:16Z</time>
</trkpt>
<trkpt lat="48.93422311171889" lon="9.744897773489356">
<ele>458.4</ele>
<time>2024-05-07T10:43:17Z</time>
</trkpt>
<trkpt lat="48.93424599431455" lon="9.744886374101045">
<ele>458.4</ele>
<time>2024-05-07T10:43:18Z</time>
</trkpt>
<trkpt lat="48.93426510505378" lon="9.744859635829926">
<ele>458.2</ele>
<time>2024-05-07T10:43:19Z</time>
</trkpt>
<trkpt lat="48.93427273258567" lon="9.744823426008224">
<ele>458.2</ele>
<time>2024-05-07T10:43:20Z</time>
</trkpt>
<trkpt lat="48.934276504442096" lon="9.74477481096983">
<ele>458.2</ele>
<time>2024-05-07T10:43:21Z</time>
</trkpt>
<trkpt lat="48.934280360117555" lon="9.744726112112405">
<ele>458.2</ele>
<time>2024-05-07T10:43:22Z</time>
</trkpt>
<trkpt lat="48.934280360117555" lon="9.744671797379851">
<ele>458.2</ele>
<time>2024-05-07T10:43:23Z</time>
</trkpt>
<trkpt lat="48.934276504442096" lon="9.744618404656649">
<ele>458.2</ele>
<time>2024-05-07T10:43:24Z</time>
</trkpt>
<trkpt lat="48.93427273258567" lon="9.744562078267336">
<ele>458.2</ele>
<time>2024-05-07T10:43:25Z</time>
</trkpt>
<trkpt lat="48.93426510505378" lon="9.744504913687706">
<ele>458.4</ele>
<time>2024-05-07T10:43:26Z</time>
</trkpt>
<trkpt lat="48.93426124937832" lon="9.744442887604237">
<ele>458.4</ele>
<time>2024-05-07T10:43:27Z</time>
</trkpt>
<trkpt lat="48.93424984999001" lon="9.744384717196226">
<ele>458.4</ele>
<time>2024-05-07T10:43:28Z</time>
</trkpt>
<trkpt lat="48.93424599431455" lon="9.744330402463676">
<ele>458.6</ele>
<time>2024-05-07T10:43:29Z</time>
</trkpt>
<trkpt lat="48.93424222245813" lon="9.744275081902742">
<ele>459</ele>
<time>2024-05-07T10:43:30Z</time>
</trkpt>
<trkpt lat="48.93423459492624" lon="9.744221605360508">
<ele>459.2</ele>
<time>2024-05-07T10:43:31Z</time>
</trkpt>
<trkpt lat="48.93422696739435" lon="9.744172068312764">
<ele>459.4</ele>
<time>2024-05-07T10:43:32Z</time>
</trkpt>
<trkpt lat="48.93422311171889" lon="9.74412345327437">
<ele>459.6</ele>
<time>2024-05-07T10:43:33Z</time>
</trkpt>
<trkpt lat="48.93421548418701" lon="9.74408145993948">
<ele>459.8</ele>
<time>2024-05-07T10:43:34Z</time>
</trkpt>
<trkpt lat="48.93420785665512" lon="9.744047094136477">
<ele>460</ele>
<time>2024-05-07T10:43:35Z</time>
</trkpt>
<trkpt lat="48.93419260159135" lon="9.744016584008932">
<ele>460.2</ele>
<time>2024-05-07T10:43:36Z</time>
</trkpt>
<trkpt lat="48.934181202203035" lon="9.743989929556848">
<ele>460.4</ele>
<time>2024-05-07T10:43:37Z</time>
</trkpt>
<trkpt lat="48.93416209146381" lon="9.743967046961188">
<ele>460.6</ele>
<time>2024-05-07T10:43:38Z</time>
</trkpt>
<trkpt lat="48.934143064543605" lon="9.743947014212608">
<ele>460.8</ele>
<time>2024-05-07T10:43:39Z</time>
</trkpt>
<trkpt lat="48.934123953804374" lon="9.743936536833644">
<ele>461</ele>
<time>2024-05-07T10:43:40Z</time>
</trkpt>
<trkpt lat="48.93410484306514" lon="9.743931759148836">
<ele>461</ele>
<time>2024-05-07T10:43:41Z</time>
</trkpt>
<trkpt lat="48.93408958800137" lon="9.7439250536263">
<ele>461</ele>
<time>2024-05-07T10:43:42Z</time>
</trkpt>
<trkpt lat="48.93407056108117" lon="9.743918348103762">
<ele>461.2</ele>
<time>2024-05-07T10:43:43Z</time>
</trkpt>
<trkpt lat="48.93405145034194" lon="9.743918348103762">
<ele>461.2</ele>
<time>2024-05-07T10:43:44Z</time>
</trkpt>
<trkpt lat="48.93402856774628" lon="9.7439250536263">
<ele>461.2</ele>
<time>2024-05-07T10:43:45Z</time>
</trkpt>
<trkpt lat="48.93400568515062" lon="9.743936536833644">
<ele>461.4</ele>
<time>2024-05-07T10:43:46Z</time>
</trkpt>
<trkpt lat="48.933982802554965" lon="9.743947014212608">
<ele>461.4</ele>
<time>2024-05-07T10:43:47Z</time>
</trkpt>
<trkpt lat="48.93395991995931" lon="9.743947014212608">
<ele>461.4</ele>
<time>2024-05-07T10:43:48Z</time>
</trkpt>
<trkpt lat="48.93393318168819" lon="9.743929831311108">
<ele>461.4</ele>
<time>2024-05-07T10:43:49Z</time>
</trkpt>
<trkpt lat="48.93391792662442" lon="9.743911726400256">
<ele>461.4</ele>
<time>2024-05-07T10:43:50Z</time>
</trkpt>
<trkpt lat="48.933906527236104" lon="9.743887837976215">
<ele>461.4</ele>
<time>2024-05-07T10:43:51Z</time>
</trkpt>
<trkpt lat="48.93389889970422" lon="9.74386495538056">
<ele>461.4</ele>
<time>2024-05-07T10:43:52Z</time>
</trkpt>
<trkpt lat="48.93389504402876" lon="9.743835367262363">
<ele>461.4</ele>
<time>2024-05-07T10:43:53Z</time>
</trkpt>
<trkpt lat="48.93389889970422" lon="9.74380301311612">
<ele>461.2</ele>
<time>2024-05-07T10:43:54Z</time>
</trkpt>
<trkpt lat="48.93389504402876" lon="9.743771497160196">
<ele>461.2</ele>
<time>2024-05-07T10:43:55Z</time>
</trkpt>
<trkpt lat="48.93389504402876" lon="9.743738137185574">
<ele>461.2</ele>
<time>2024-05-07T10:43:56Z</time>
</trkpt>
<trkpt lat="48.93389127217233" lon="9.743706621229649">
<ele>461.2</ele>
<time>2024-05-07T10:43:57Z</time>
</trkpt>
<trkpt lat="48.933883644640446" lon="9.743673261255026">
<ele>461.2</ele>
<time>2024-05-07T10:43:58Z</time>
</trkpt>
<trkpt lat="48.93387601710856" lon="9.74364660680294">
<ele>461</ele>
<time>2024-05-07T10:43:59Z</time>
</trkpt>
<trkpt lat="48.93386838957667" lon="9.743623724207282">
<ele>461</ele>
<time>2024-05-07T10:44:00Z</time>
</trkpt>
<trkpt lat="48.93385690636933" lon="9.743601763620973">
<ele>461</ele>
<time>2024-05-07T10:44:01Z</time>
</trkpt>
<trkpt lat="48.9338531345129" lon="9.743583658710122">
<ele>461</ele>
<time>2024-05-07T10:44:02Z</time>
</trkpt>
<trkpt lat="48.93384165130555" lon="9.743573181331158">
<ele>461</ele>
<time>2024-05-07T10:44:03Z</time>
</trkpt>
<trkpt lat="48.93384165130555" lon="9.743564547970893">
<ele>461</ele>
<time>2024-05-07T10:44:04Z</time>
</trkpt>
<trkpt lat="48.93384165130555" lon="9.743561698123813">
<ele>461</ele>
<time>2024-05-07T10:44:05Z</time>
</trkpt>
<trkpt lat="48.93384165130555" lon="9.743557926267384">
<ele>461</ele>
<time>2024-05-07T10:44:08Z</time>
</trkpt>
<trkpt lat="48.93383787944913" lon="9.743556920439003">
<ele>461</ele>
<time>2024-05-07T10:44:09Z</time>
</trkpt>
<trkpt lat="48.93383787944913" lon="9.743553148582578">
<ele>461</ele>
<time>2024-05-07T10:44:10Z</time>
</trkpt>
<trkpt lat="48.93383402377367" lon="9.743551220744848">
<ele>461</ele>
<time>2024-05-07T10:44:11Z</time>
</trkpt>
<trkpt lat="48.93383402377367" lon="9.743553148582578">
<ele>461.2</ele>
<time>2024-05-07T10:44:14Z</time>
</trkpt>
<trkpt lat="48.93383402377367" lon="9.743554992601275">
<ele>461.2</ele>
<time>2024-05-07T10:44:15Z</time>
</trkpt>
<trkpt lat="48.93383402377367" lon="9.743556920439003">
<ele>461.2</ele>
<time>2024-05-07T10:44:18Z</time>
</trkpt>
<trkpt lat="48.93383402377367" lon="9.743557926267384">
<ele>461.4</ele>
<time>2024-05-07T10:44:20Z</time>
</trkpt>
<trkpt lat="48.93383402377367" lon="9.743559770286083">
<ele>461.4</ele>
<time>2024-05-07T10:44:26Z</time>
</trkpt>
<trkpt lat="48.93383402377367" lon="9.743557926267384">
<ele>461.4</ele>
<time>2024-05-07T10:44:27Z</time>
</trkpt>
<trkpt lat="48.93383025191724" lon="9.743557926267384">
<ele>461.4</ele>
<time>2024-05-07T10:44:31Z</time>
</trkpt>
<trkpt lat="48.93383402377367" lon="9.743556920439003">
<ele>461.2</ele>
<time>2024-05-07T10:44:32Z</time>
</trkpt>
<trkpt lat="48.93383025191724" lon="9.743554992601275">
<ele>461.2</ele>
<time>2024-05-07T10:44:33Z</time>
</trkpt>
<trkpt lat="48.93383025191724" lon="9.743553148582578">
<ele>461.2</ele>
<time>2024-05-07T10:44:43Z</time>
</trkpt>
<trkpt lat="48.93383402377367" lon="9.743554992601275">
<ele>461.2</ele>
<time>2024-05-07T10:44:46Z</time>
</trkpt>
<trkpt lat="48.93383402377367" lon="9.743553148582578">
<ele>461.2</ele>
<time>2024-05-07T10:44:53Z</time>
</trkpt>
<trkpt lat="48.93383402377367" lon="9.743554992601275">
<ele>461</ele>
<time>2024-05-07T10:44:56Z</time>
</trkpt>
<trkpt lat="48.93383402377367" lon="9.743551220744848">
<ele>461</ele>
<time>2024-05-07T10:44:57Z</time>
</trkpt>
<trkpt lat="48.93383402377367" lon="9.7435502987355">
<ele>461</ele>
<time>2024-05-07T10:44:58Z</time>
</trkpt>
<trkpt lat="48.93383402377367" lon="9.743551220744848">
<ele>461</ele>
<time>2024-05-07T10:45:02Z</time>
</trkpt>
<trkpt lat="48.93383402377367" lon="9.7435502987355">
<ele>461</ele>
<time>2024-05-07T10:45:03Z</time>
</trkpt>
<trkpt lat="48.93383402377367" lon="9.743551220744848">
<ele>461</ele>
<time>2024-05-07T10:45:04Z</time>
</trkpt>
<trkpt lat="48.93383402377367" lon="9.743554992601275">
<ele>461</ele>
<time>2024-05-07T10:45:05Z</time>
</trkpt>
<trkpt lat="48.93383025191724" lon="9.743554992601275">
<ele>460.8</ele>
<time>2024-05-07T10:45:07Z</time>
</trkpt>
<trkpt lat="48.93383025191724" lon="9.743556920439003">
<ele>460.8</ele>
<time>2024-05-07T10:45:08Z</time>
</trkpt>
<trkpt lat="48.93383025191724" lon="9.743557926267384">
<ele>460.8</ele>
<time>2024-05-07T10:45:10Z</time>
</trkpt>
<trkpt lat="48.93383025191724" lon="9.743559770286083">
<ele>460.8</ele>
<time>2024-05-07T10:45:19Z</time>
</trkpt>
<trkpt lat="48.933826396241784" lon="9.743559770286083">
<ele>460.6</ele>
<time>2024-05-07T10:45:23Z</time>
</trkpt>
<trkpt lat="48.933826396241784" lon="9.743561698123813">
<ele>460.8</ele>
<time>2024-05-07T10:45:28Z</time>
</trkpt>
<trkpt lat="48.933826396241784" lon="9.743563625961542">
<ele>460.8</ele>
<time>2024-05-07T10:45:29Z</time>
</trkpt>
<trkpt lat="48.93382262438536" lon="9.743563625961542">
<ele>460.8</ele>
<time>2024-05-07T10:45:30Z</time>
</trkpt>
<trkpt lat="48.93382262438536" lon="9.743561698123813">
<ele>460.8</ele>
<time>2024-05-07T10:45:31Z</time>
</trkpt>
<trkpt lat="48.93382262438536" lon="9.743563625961542">
<ele>460.8</ele>
<time>2024-05-07T10:45:32Z</time>
</trkpt>
<trkpt lat="48.93382262438536" lon="9.743564547970893">
<ele>460.8</ele>
<time>2024-05-07T10:45:38Z</time>
</trkpt>
<trkpt lat="48.93382262438536" lon="9.743563625961542">
<ele>460.8</ele>
<time>2024-05-07T10:45:39Z</time>
</trkpt>
<trkpt lat="48.93382262438536" lon="9.743564547970893">
<ele>460.8</ele>
<time>2024-05-07T10:45:41Z</time>
</trkpt>
<trkpt lat="48.9338187687099" lon="9.743564547970893">
<ele>460.8</ele>
<time>2024-05-07T10:45:43Z</time>
</trkpt>
<trkpt lat="48.9338187687099" lon="9.743563625961542">
<ele>460.8</ele>
<time>2024-05-07T10:45:51Z</time>
</trkpt>
<trkpt lat="48.93381499685347" lon="9.743563625961542">
<ele>460.8</ele>
<time>2024-05-07T10:45:52Z</time>
</trkpt>
<trkpt lat="48.9338187687099" lon="9.743564547970893">
<ele>460.8</ele>
<time>2024-05-07T10:45:57Z</time>
</trkpt>
<trkpt lat="48.9338187687099" lon="9.743563625961542">
<ele>460.8</ele>
<time>2024-05-07T10:45:58Z</time>
</trkpt>
<trkpt lat="48.9338187687099" lon="9.743564547970893">
<ele>460.8</ele>
<time>2024-05-07T10:45:59Z</time>
</trkpt>
<trkpt lat="48.93382262438536" lon="9.74356647580862">
<ele>460.8</ele>
<time>2024-05-07T10:46:02Z</time>
</trkpt>
<trkpt lat="48.93382262438536" lon="9.74356840364635">
<ele>460.8</ele>
<time>2024-05-07T10:46:05Z</time>
</trkpt>
<trkpt lat="48.93382262438536" lon="9.74356647580862">
<ele>460.8</ele>
<time>2024-05-07T10:46:07Z</time>
</trkpt>
<trkpt lat="48.93382262438536" lon="9.74356840364635">
<ele>461</ele>
<time>2024-05-07T10:46:08Z</time>
</trkpt>
<trkpt lat="48.93382262438536" lon="9.743570247665048">
<ele>461</ele>
<time>2024-05-07T10:46:09Z</time>
</trkpt>
<trkpt lat="48.933826396241784" lon="9.743571253493428">
<ele>461</ele>
<time>2024-05-07T10:46:11Z</time>
</trkpt>
<trkpt lat="48.933826396241784" lon="9.743573181331158">
<ele>461</ele>
<time>2024-05-07T10:46:13Z</time>
</trkpt>
<trkpt lat="48.933826396241784" lon="9.743575025349855">
<ele>461</ele>
<time>2024-05-07T10:46:16Z</time>
</trkpt>
<trkpt lat="48.933826396241784" lon="9.743576953187585">
<ele>461</ele>
<time>2024-05-07T10:46:17Z</time>
</trkpt>
<trkpt lat="48.933826396241784" lon="9.743577875196934">
<ele>461</ele>
<time>2024-05-07T10:46:18Z</time>
</trkpt>
<trkpt lat="48.933826396241784" lon="9.743579803034663">
<ele>461</ele>
<time>2024-05-07T10:46:19Z</time>
</trkpt>
<trkpt lat="48.933826396241784" lon="9.743581730872393">
<ele>461</ele>
<time>2024-05-07T10:46:20Z</time>
</trkpt>
<trkpt lat="48.933826396241784" lon="9.743583658710122">
<ele>461</ele>
<time>2024-05-07T10:46:22Z</time>
</trkpt>
<trkpt lat="48.933826396241784" lon="9.743584580719473">
<ele>461</ele>
<time>2024-05-07T10:46:24Z</time>
</trkpt>
<trkpt lat="48.933826396241784" lon="9.7435865085572">
<ele>461</ele>
<time>2024-05-07T10:46:26Z</time>
</trkpt>
<trkpt lat="48.933826396241784" lon="9.74358843639493">
<ele>461</ele>
<time>2024-05-07T10:46:27Z</time>
</trkpt>
<trkpt lat="48.933826396241784" lon="9.743590280413628">
<ele>461</ele>
<time>2024-05-07T10:46:29Z</time>
</trkpt>
<trkpt lat="48.933826396241784" lon="9.743591286242008">
<ele>461</ele>
<time>2024-05-07T10:46:32Z</time>
</trkpt>
<trkpt lat="48.93382262438536" lon="9.743591286242008">
<ele>461</ele>
<time>2024-05-07T10:46:34Z</time>
</trkpt>
<trkpt lat="48.93382262438536" lon="9.743593214079738">
<ele>461</ele>
<time>2024-05-07T10:46:35Z</time>
</trkpt>
<trkpt lat="48.93382262438536" lon="9.743595058098435">
<ele>461</ele>
<time>2024-05-07T10:46:37Z</time>
</trkpt>
<trkpt lat="48.93382262438536" lon="9.743596985936165">
<ele>461</ele>
<time>2024-05-07T10:46:40Z</time>
</trkpt>
<trkpt lat="48.93382262438536" lon="9.743597907945514">
<ele>461</ele>
<time>2024-05-07T10:46:42Z</time>
</trkpt>
<trkpt lat="48.93382262438536" lon="9.743599835783243">
<ele>461</ele>
<time>2024-05-07T10:46:48Z</time>
</trkpt>
<trkpt lat="48.93382262438536" lon="9.743601763620973">
<ele>461.2</ele>
<time>2024-05-07T10:46:51Z</time>
</trkpt>
<trkpt lat="48.93382262438536" lon="9.743603691458702">
<ele>461.2</ele>
<time>2024-05-07T10:46:52Z</time>
</trkpt>
<trkpt lat="48.93382262438536" lon="9.743604613468053">
<ele>461.4</ele>
<time>2024-05-07T10:46:54Z</time>
</trkpt>
<trkpt lat="48.93382262438536" lon="9.74360654130578">
<ele>461.4</ele>
<time>2024-05-07T10:46:55Z</time>
</trkpt>
<trkpt lat="48.93382262438536" lon="9.74360846914351">
<ele>461.6</ele>
<time>2024-05-07T10:46:58Z</time>
</trkpt>
<trkpt lat="48.93382262438536" lon="9.743610313162208">
<ele>461.6</ele>
<time>2024-05-07T10:47:01Z</time>
</trkpt>
<trkpt lat="48.9338187687099" lon="9.743611318990588">
<ele>461.6</ele>
<time>2024-05-07T10:47:03Z</time>
</trkpt>
<trkpt lat="48.9338187687099" lon="9.743610313162208">
<ele>461.8</ele>
<time>2024-05-07T10:47:11Z</time>
</trkpt>
<trkpt lat="48.9338187687099" lon="9.743611318990588">
<ele>461.8</ele>
<time>2024-05-07T10:47:14Z</time>
</trkpt>
<trkpt lat="48.9338187687099" lon="9.743610313162208">
<ele>461.8</ele>
<time>2024-05-07T10:47:18Z</time>
</trkpt>
<trkpt lat="48.9338187687099" lon="9.743611318990588">
<ele>461.8</ele>
<time>2024-05-07T10:47:19Z</time>
</trkpt>
<trkpt lat="48.9338187687099" lon="9.743610313162208">
<ele>461.8</ele>
<time>2024-05-07T10:47:22Z</time>
</trkpt>
<trkpt lat="48.9338187687099" lon="9.74360846914351">
<ele>462</ele>
<time>2024-05-07T10:47:30Z</time>
</trkpt>
<trkpt lat="48.9338187687099" lon="9.74360654130578">
<ele>462</ele>
<time>2024-05-07T10:47:34Z</time>
</trkpt>
<trkpt lat="48.93382262438536" lon="9.743604613468053">
<ele>462</ele>
<time>2024-05-07T10:47:37Z</time>
</trkpt>
<trkpt lat="48.93382262438536" lon="9.743603691458702">
<ele>462</ele>
<time>2024-05-07T10:47:39Z</time>
</trkpt>
<trkpt lat="48.93382262438536" lon="9.743601763620973">
<ele>462</ele>
<time>2024-05-07T10:47:41Z</time>
</trkpt>
<trkpt lat="48.93382262438536" lon="9.743599835783243">
<ele>462</ele>
<time>2024-05-07T10:47:42Z</time>
</trkpt>
<trkpt lat="48.93382262438536" lon="9.743597907945514">
<ele>462</ele>
<time>2024-05-07T10:47:43Z</time>
</trkpt>
<trkpt lat="48.93382262438536" lon="9.743596985936165">
<ele>462</ele>
<time>2024-05-07T10:47:44Z</time>
</trkpt>
<trkpt lat="48.93382262438536" lon="9.743595058098435">
<ele>462.2</ele>
<time>2024-05-07T10:47:46Z</time>
</trkpt>
<trkpt lat="48.933826396241784" lon="9.743593214079738">
<ele>462.2</ele>
<time>2024-05-07T10:47:47Z</time>
</trkpt>
<trkpt lat="48.933826396241784" lon="9.743591286242008">
<ele>462.2</ele>
<time>2024-05-07T10:47:49Z</time>
</trkpt>
<trkpt lat="48.933826396241784" lon="9.74358843639493">
<ele>462.4</ele>
<time>2024-05-07T10:47:51Z</time>
</trkpt>
<trkpt lat="48.933826396241784" lon="9.7435865085572">
<ele>462.4</ele>
<time>2024-05-07T10:47:53Z</time>
</trkpt>
<trkpt lat="48.933826396241784" lon="9.74358843639493">
<ele>462.6</ele>
<time>2024-05-07T10:48:01Z</time>
</trkpt>
<trkpt lat="48.933826396241784" lon="9.743590280413628">
<ele>462.6</ele>
<time>2024-05-07T10:48:03Z</time>
</trkpt>
<trkpt lat="48.93383025191724" lon="9.743591286242008">
<ele>462.4</ele>
<time>2024-05-07T10:48:06Z</time>
</trkpt>
<trkpt lat="48.93383025191724" lon="9.743593214079738">
<ele>462.4</ele>
<time>2024-05-07T10:48:11Z</time>
</trkpt>
<trkpt lat="48.93383025191724" lon="9.743595058098435">
<ele>462.4</ele>
<time>2024-05-07T10:48:13Z</time>
</trkpt>
<trkpt lat="48.93383402377367" lon="9.743593214079738">
<ele>462.4</ele>
<time>2024-05-07T10:48:18Z</time>
</trkpt>
<trkpt lat="48.93383402377367" lon="9.743595058098435">
<ele>462.2</ele>
<time>2024-05-07T10:48:22Z</time>
</trkpt>
<trkpt lat="48.93383787944913" lon="9.743593214079738">
<ele>462.2</ele>
<time>2024-05-07T10:48:25Z</time>
</trkpt>
<trkpt lat="48.93383787944913" lon="9.743595058098435">
<ele>462.2</ele>
<time>2024-05-07T10:48:26Z</time>
</trkpt>
<trkpt lat="48.93383787944913" lon="9.743593214079738">
<ele>462.2</ele>
<time>2024-05-07T10:48:28Z</time>
</trkpt>
<trkpt lat="48.93383787944913" lon="9.743595058098435">
<ele>462.2</ele>
<time>2024-05-07T10:48:29Z</time>
</trkpt>
<trkpt lat="48.93383787944913" lon="9.743593214079738">
<ele>462</ele>
<time>2024-05-07T10:48:31Z</time>
</trkpt>
<trkpt lat="48.93383787944913" lon="9.743595058098435">
<ele>462</ele>
<time>2024-05-07T10:48:32Z</time>
</trkpt>
<trkpt lat="48.93383787944913" lon="9.743593214079738">
<ele>462</ele>
<time>2024-05-07T10:48:33Z</time>
</trkpt>
<trkpt lat="48.93383402377367" lon="9.743593214079738">
<ele>462</ele>
<time>2024-05-07T10:48:37Z</time>
</trkpt>
<trkpt lat="48.93383402377367" lon="9.743595058098435">
<ele>462</ele>
<time>2024-05-07T10:48:42Z</time>
</trkpt>
<trkpt lat="48.93383025191724" lon="9.743593214079738">
<ele>462</ele>
<time>2024-05-07T10:48:48Z</time>
</trkpt>
<trkpt lat="48.93383025191724" lon="9.743591286242008">
<ele>462</ele>
<time>2024-05-07T10:48:57Z</time>
</trkpt>
<trkpt lat="48.933826396241784" lon="9.743591286242008">
<ele>462</ele>
<time>2024-05-07T10:49:04Z</time>
</trkpt>
<trkpt lat="48.933826396241784" lon="9.743590280413628">
<ele>462</ele>
<time>2024-05-07T10:49:10Z</time>
</trkpt>
<trkpt lat="48.933826396241784" lon="9.743591286242008">
<ele>462</ele>
<time>2024-05-07T10:49:13Z</time>
</trkpt>
<trkpt lat="48.933826396241784" lon="9.743593214079738">
<ele>462</ele>
<time>2024-05-07T10:49:15Z</time>
</trkpt>
<trkpt lat="48.933826396241784" lon="9.743595058098435">
<ele>462</ele>
<time>2024-05-07T10:49:17Z</time>
</trkpt>
<trkpt lat="48.933826396241784" lon="9.743596985936165">
<ele>462</ele>
<time>2024-05-07T10:49:18Z</time>
</trkpt>
<trkpt lat="48.93383025191724" lon="9.743597907945514">
<ele>462</ele>
<time>2024-05-07T10:49:20Z</time>
</trkpt>
<trkpt lat="48.93383025191724" lon="9.743599835783243">
<ele>462</ele>
<time>2024-05-07T10:49:22Z</time>
</trkpt>
<trkpt lat="48.93383025191724" lon="9.743601763620973">
<ele>462</ele>
<time>2024-05-07T10:49:24Z</time>
</trkpt>
<trkpt lat="48.93383025191724" lon="9.743603691458702">
<ele>462</ele>
<time>2024-05-07T10:49:27Z</time>
</trkpt>
<trkpt lat="48.93383025191724" lon="9.743604613468053">
<ele>462</ele>
<time>2024-05-07T10:49:29Z</time>
</trkpt>
<trkpt lat="48.93383025191724" lon="9.74360654130578">
<ele>462</ele>
<time>2024-05-07T10:49:31Z</time>
</trkpt>
<trkpt lat="48.93383025191724" lon="9.74360846914351">
<ele>462</ele>
<time>2024-05-07T10:49:33Z</time>
</trkpt>
<trkpt lat="48.93383402377367" lon="9.743610313162208">
<ele>462</ele>
<time>2024-05-07T10:49:36Z</time>
</trkpt>
<trkpt lat="48.93383402377367" lon="9.743611318990588">
<ele>462</ele>
<time>2024-05-07T10:49:38Z</time>
</trkpt>
<trkpt lat="48.93383402377367" lon="9.743613163009286">
<ele>462</ele>
<time>2024-05-07T10:49:43Z</time>
</trkpt>
<trkpt lat="48.93383402377367" lon="9.743615090847015">
<ele>462</ele>
<time>2024-05-07T10:49:44Z</time>
</trkpt>
<trkpt lat="48.93383787944913" lon="9.743615090847015">
<ele>462</ele>
<time>2024-05-07T10:49:46Z</time>
</trkpt>
<trkpt lat="48.93383787944913" lon="9.743617018684745">
<ele>462</ele>
<time>2024-05-07T10:49:47Z</time>
</trkpt>
<trkpt lat="48.93383402377367" lon="9.743617018684745">
<ele>462</ele>
<time>2024-05-07T10:49:48Z</time>
</trkpt>
<trkpt lat="48.93383402377367" lon="9.743617940694094">
<ele>462</ele>
<time>2024-05-07T10:49:49Z</time>
</trkpt>
<trkpt lat="48.93383402377367" lon="9.743619868531823">
<ele>462</ele>
<time>2024-05-07T10:49:53Z</time>
</trkpt>
<trkpt lat="48.93383402377367" lon="9.743617940694094">
<ele>462</ele>
<time>2024-05-07T10:49:54Z</time>
</trkpt>
<trkpt lat="48.93383402377367" lon="9.743619868531823">
<ele>462</ele>
<time>2024-05-07T10:49:58Z</time>
</trkpt>
<trkpt lat="48.93383402377367" lon="9.743617940694094">
<ele>462</ele>
<time>2024-05-07T10:49:59Z</time>
</trkpt>
<trkpt lat="48.93383402377367" lon="9.743619868531823">
<ele>462</ele>
<time>2024-05-07T10:50:02Z</time>
</trkpt>
<trkpt lat="48.93383025191724" lon="9.743619868531823">
<ele>462</ele>
<time>2024-05-07T10:50:03Z</time>
</trkpt>
<trkpt lat="48.93383025191724" lon="9.743617940694094">
<ele>462</ele>
<time>2024-05-07T10:50:04Z</time>
</trkpt>
<trkpt lat="48.93383025191724" lon="9.743619868531823">
<ele>462</ele>
<time>2024-05-07T10:50:05Z</time>
</trkpt>
<trkpt lat="48.93383025191724" lon="9.743621796369553">
<ele>462</ele>
<time>2024-05-07T10:50:09Z</time>
</trkpt>
<trkpt lat="48.93383025191724" lon="9.743623724207282">
<ele>462</ele>
<time>2024-05-07T10:50:14Z</time>
</trkpt>
<trkpt lat="48.933826396241784" lon="9.743623724207282">
<ele>462</ele>
<time>2024-05-07T10:50:20Z</time>
</trkpt>
<trkpt lat="48.93382262438536" lon="9.743621796369553">
<ele>462</ele>
<time>2024-05-07T10:50:28Z</time>
</trkpt>
<trkpt lat="48.93382262438536" lon="9.743619868531823">
<ele>462</ele>
<time>2024-05-07T10:50:31Z</time>
</trkpt>
<trkpt lat="48.93382262438536" lon="9.743617940694094">
<ele>462</ele>
<time>2024-05-07T10:50:34Z</time>
</trkpt>
<trkpt lat="48.93382262438536" lon="9.743617018684745">
<ele>462</ele>
<time>2024-05-07T10:50:37Z</time>
</trkpt>
<trkpt lat="48.93382262438536" lon="9.743615090847015">
<ele>462</ele>
<time>2024-05-07T10:50:41Z</time>
</trkpt>
<trkpt lat="48.9338187687099" lon="9.743615090847015">
<ele>462</ele>
<time>2024-05-07T10:50:42Z</time>
</trkpt>
<trkpt lat="48.9338187687099" lon="9.743613163009286">
<ele>462</ele>
<time>2024-05-07T10:50:47Z</time>
</trkpt>
<trkpt lat="48.9338187687099" lon="9.743611318990588">
<ele>462</ele>
<time>2024-05-07T10:50:49Z</time>
</trkpt>
<trkpt lat="48.9338187687099" lon="9.743613163009286">
<ele>462</ele>
<time>2024-05-07T10:50:50Z</time>
</trkpt>
<trkpt lat="48.93381499685347" lon="9.743613163009286">
<ele>462</ele>
<time>2024-05-07T10:50:54Z</time>
</trkpt>
<trkpt lat="48.93381499685347" lon="9.743611318990588">
<ele>462</ele>
<time>2024-05-07T10:50:58Z</time>
</trkpt>
<trkpt lat="48.93381499685347" lon="9.743613163009286">
<ele>462</ele>
<time>2024-05-07T10:51:05Z</time>
</trkpt>
<trkpt lat="48.93381499685347" lon="9.743611318990588">
<ele>462</ele>
<time>2024-05-07T10:51:06Z</time>
</trkpt>
<trkpt lat="48.93381499685347" lon="9.743613163009286">
<ele>462</ele>
<time>2024-05-07T10:51:07Z</time>
</trkpt>
<trkpt lat="48.93381499685347" lon="9.743615090847015">
<ele>462</ele>
<time>2024-05-07T10:51:11Z</time>
</trkpt>
<trkpt lat="48.9338187687099" lon="9.743613163009286">
<ele>462</ele>
<time>2024-05-07T10:51:16Z</time>
</trkpt>
<trkpt lat="48.9338187687099" lon="9.743611318990588">
<ele>462</ele>
<time>2024-05-07T10:51:17Z</time>
</trkpt>
<trkpt lat="48.93381499685347" lon="9.743613163009286">
<ele>462</ele>
<time>2024-05-07T10:51:18Z</time>
</trkpt>
<trkpt lat="48.93381499685347" lon="9.743611318990588">
<ele>462</ele>
<time>2024-05-07T10:51:23Z</time>
</trkpt>
<trkpt lat="48.93381499685347" lon="9.743615090847015">
<ele>462</ele>
<time>2024-05-07T10:51:28Z</time>
</trkpt>
<trkpt lat="48.93381499685347" lon="9.743617018684745">
<ele>462</ele>
<time>2024-05-07T10:51:29Z</time>
</trkpt>
<trkpt lat="48.93381114117801" lon="9.743617018684745">
<ele>462</ele>
<time>2024-05-07T10:51:30Z</time>
</trkpt>
<trkpt lat="48.93381114117801" lon="9.743617940694094">
<ele>462</ele>
<time>2024-05-07T10:51:37Z</time>
</trkpt>
<trkpt lat="48.93381114117801" lon="9.743617018684745">
<ele>462</ele>
<time>2024-05-07T10:51:41Z</time>
</trkpt>
<trkpt lat="48.93381114117801" lon="9.743615090847015">
<ele>462</ele>
<time>2024-05-07T10:51:44Z</time>
</trkpt>
<trkpt lat="48.93381114117801" lon="9.743617018684745">
<ele>462</ele>
<time>2024-05-07T10:51:48Z</time>
</trkpt>
<trkpt lat="48.93381114117801" lon="9.743617940694094">
<ele>462</ele>
<time>2024-05-07T10:51:54Z</time>
</trkpt>
<trkpt lat="48.93381114117801" lon="9.743617018684745">
<ele>462</ele>
<time>2024-05-07T10:51:55Z</time>
</trkpt>
<trkpt lat="48.93381499685347" lon="9.743617018684745">
<ele>462</ele>
<time>2024-05-07T10:52:01Z</time>
</trkpt>
<trkpt lat="48.93381499685347" lon="9.743617940694094">
<ele>462</ele>
<time>2024-05-07T10:52:02Z</time>
</trkpt>
<trkpt lat="48.93381499685347" lon="9.743617018684745">
<ele>462</ele>
<time>2024-05-07T10:52:06Z</time>
</trkpt>
<trkpt lat="48.93381499685347" lon="9.743617940694094">
<ele>462</ele>
<time>2024-05-07T10:52:08Z</time>
</trkpt>
<trkpt lat="48.93381499685347" lon="9.743619868531823">
<ele>462</ele>
<time>2024-05-07T10:52:11Z</time>
</trkpt>
<trkpt lat="48.93381499685347" lon="9.743617940694094">
<ele>462</ele>
<time>2024-05-07T10:52:14Z</time>
</trkpt>
<trkpt lat="48.93381114117801" lon="9.743619868531823">
<ele>462</ele>
<time>2024-05-07T10:52:18Z</time>
</trkpt>
<trkpt lat="48.93381114117801" lon="9.743617940694094">
<ele>462</ele>
<time>2024-05-07T10:52:20Z</time>
</trkpt>
<trkpt lat="48.93381114117801" lon="9.743619868531823">
<ele>462</ele>
<time>2024-05-07T10:52:21Z</time>
</trkpt>
<trkpt lat="48.933807369321585" lon="9.743619868531823">
<ele>462</ele>
<time>2024-05-07T10:52:22Z</time>
</trkpt>
<trkpt lat="48.93381114117801" lon="9.743619868531823">
<ele>462</ele>
<time>2024-05-07T10:52:24Z</time>
</trkpt>
<trkpt lat="48.93381114117801" lon="9.743617940694094">
<ele>462</ele>
<time>2024-05-07T10:52:25Z</time>
</trkpt>
<trkpt lat="48.93381114117801" lon="9.743619868531823">
<ele>462</ele>
<time>2024-05-07T10:52:26Z</time>
</trkpt>
<trkpt lat="48.93381114117801" lon="9.743617940694094">
<ele>462</ele>
<time>2024-05-07T10:52:27Z</time>
</trkpt>
<trkpt lat="48.93381114117801" lon="9.743617018684745">
<ele>462</ele>
<time>2024-05-07T10:52:31Z</time>
</trkpt>
<trkpt lat="48.93381499685347" lon="9.743615090847015">
<ele>462</ele>
<time>2024-05-07T10:52:35Z</time>
</trkpt>
<trkpt lat="48.93381499685347" lon="9.743613163009286">
<ele>462</ele>
<time>2024-05-07T10:52:36Z</time>
</trkpt>
<trkpt lat="48.93381499685347" lon="9.743611318990588">
<ele>462</ele>
<time>2024-05-07T10:52:41Z</time>
</trkpt>
<trkpt lat="48.9338187687099" lon="9.743611318990588">
<ele>462</ele>
<time>2024-05-07T10:52:46Z</time>
</trkpt>
<trkpt lat="48.9338187687099" lon="9.743610313162208">
<ele>462</ele>
<time>2024-05-07T10:52:47Z</time>
</trkpt>
<trkpt lat="48.9338187687099" lon="9.74360846914351">
<ele>462</ele>
<time>2024-05-07T10:52:48Z</time>
</trkpt>
<trkpt lat="48.93382262438536" lon="9.74360654130578">
<ele>462</ele>
<time>2024-05-07T10:52:53Z</time>
</trkpt>
<trkpt lat="48.93382262438536" lon="9.743604613468053">
<ele>462</ele>
<time>2024-05-07T10:52:55Z</time>
</trkpt>
<trkpt lat="48.93382262438536" lon="9.74360654130578">
<ele>462</ele>
<time>2024-05-07T10:53:00Z</time>
</trkpt>
<trkpt lat="48.933826396241784" lon="9.74360654130578">
<ele>462</ele>
<time>2024-05-07T10:53:01Z</time>
</trkpt>
<trkpt lat="48.933826396241784" lon="9.74360846914351">
<ele>462</ele>
<time>2024-05-07T10:53:04Z</time>
</trkpt>
<trkpt lat="48.933826396241784" lon="9.743610313162208">
<ele>462</ele>
<time>2024-05-07T10:53:05Z</time>
</trkpt>
<trkpt lat="48.933826396241784" lon="9.743611318990588">
<ele>462</ele>
<time>2024-05-07T10:53:06Z</time>
</trkpt>
<trkpt lat="48.933826396241784" lon="9.743610313162208">
<ele>462</ele>
<time>2024-05-07T10:53:07Z</time>
</trkpt>
<trkpt lat="48.933826396241784" lon="9.743611318990588">
<ele>462</ele>
<time>2024-05-07T10:53:09Z</time>
</trkpt>
<trkpt lat="48.93383025191724" lon="9.743613163009286">
<ele>462</ele>
<time>2024-05-07T10:53:10Z</time>
</trkpt>
<trkpt lat="48.93383025191724" lon="9.743615090847015">
<ele>462</ele>
<time>2024-05-07T10:53:13Z</time>
</trkpt>
<trkpt lat="48.93383025191724" lon="9.743617018684745">
<ele>462</ele>
<time>2024-05-07T10:53:17Z</time>
</trkpt>
<trkpt lat="48.93383025191724" lon="9.743617940694094">
<ele>462</ele>
<time>2024-05-07T10:53:20Z</time>
</trkpt>
<trkpt lat="48.93383025191724" lon="9.743619868531823">
<ele>462</ele>
<time>2024-05-07T10:53:21Z</time>
</trkpt>
<trkpt lat="48.93383025191724" lon="9.743621796369553">
<ele>462</ele>
<time>2024-05-07T10:53:26Z</time>
</trkpt>
<trkpt lat="48.93383025191724" lon="9.743617940694094">
<ele>462</ele>
<time>2024-05-07T10:53:33Z</time>
</trkpt>
<trkpt lat="48.93383025191724" lon="9.743615090847015">
<ele>462</ele>
<time>2024-05-07T10:53:34Z</time>
</trkpt>
<trkpt lat="48.93383025191724" lon="9.743617018684745">
<ele>462</ele>
<time>2024-05-07T10:53:35Z</time>
</trkpt>
<trkpt lat="48.93383025191724" lon="9.743617940694094">
<ele>462</ele>
<time>2024-05-07T10:53:37Z</time>
</trkpt>
<trkpt lat="48.933826396241784" lon="9.743619868531823">
<ele>462</ele>
<time>2024-05-07T10:53:40Z</time>
</trkpt>
<trkpt lat="48.933826396241784" lon="9.743621796369553">
<ele>462</ele>
<time>2024-05-07T10:53:44Z</time>
</trkpt>
<trkpt lat="48.93382262438536" lon="9.743619868531823">
<ele>462</ele>
<time>2024-05-07T10:53:46Z</time>
</trkpt>
<trkpt lat="48.93382262438536" lon="9.743617940694094">
<ele>462</ele>
<time>2024-05-07T10:53:49Z</time>
</trkpt>
<trkpt lat="48.93382262438536" lon="9.743617018684745">
<ele>462</ele>
<time>2024-05-07T10:53:52Z</time>
</trkpt>
<trkpt lat="48.9338187687099" lon="9.743617018684745">
<ele>462</ele>
<time>2024-05-07T10:53:54Z</time>
</trkpt>
<trkpt lat="48.9338187687099" lon="9.743615090847015">
<ele>462</ele>
<time>2024-05-07T10:53:55Z</time>
</trkpt>
<trkpt lat="48.9338187687099" lon="9.743613163009286">
<ele>462</ele>
<time>2024-05-07T10:53:57Z</time>
</trkpt>
<trkpt lat="48.9338187687099" lon="9.743615090847015">
<ele>462</ele>
<time>2024-05-07T10:54:00Z</time>
</trkpt>
<trkpt lat="48.9338187687099" lon="9.743613163009286">
<ele>462</ele>
<time>2024-05-07T10:54:06Z</time>
</trkpt>
<trkpt lat="48.93381499685347" lon="9.743613163009286">
<ele>462</ele>
<time>2024-05-07T10:54:07Z</time>
</trkpt>
<trkpt lat="48.93381499685347" lon="9.743611318990588">
<ele>462</ele>
<time>2024-05-07T10:54:09Z</time>
</trkpt>
<trkpt lat="48.9338187687099" lon="9.74360846914351">
<ele>462</ele>
<time>2024-05-07T10:54:10Z</time>
</trkpt>
<trkpt lat="48.93381499685347" lon="9.743610313162208">
<ele>462</ele>
<time>2024-05-07T10:54:11Z</time>
</trkpt>
<trkpt lat="48.93381499685347" lon="9.74360654130578">
<ele>462</ele>
<time>2024-05-07T10:54:13Z</time>
</trkpt>
<trkpt lat="48.93381499685347" lon="9.743604613468053">
<ele>462</ele>
<time>2024-05-07T10:54:14Z</time>
</trkpt>
<trkpt lat="48.9338187687099" lon="9.743603691458702">
<ele>462</ele>
<time>2024-05-07T10:54:15Z</time>
</trkpt>
<trkpt lat="48.9338187687099" lon="9.743601763620973">
<ele>462</ele>
<time>2024-05-07T10:54:16Z</time>
</trkpt>
<trkpt lat="48.9338187687099" lon="9.743599835783243">
<ele>462</ele>
<time>2024-05-07T10:54:17Z</time>
</trkpt>
<trkpt lat="48.9338187687099" lon="9.743597907945514">
<ele>462</ele>
<time>2024-05-07T10:54:18Z</time>
</trkpt>
<trkpt lat="48.9338187687099" lon="9.743596985936165">
<ele>462</ele>
<time>2024-05-07T10:54:19Z</time>
</trkpt>
<trkpt lat="48.93382262438536" lon="9.743595058098435">
<ele>462</ele>
<time>2024-05-07T10:54:20Z</time>
</trkpt>
<trkpt lat="48.93382262438536" lon="9.743593214079738">
<ele>462</ele>
<time>2024-05-07T10:54:22Z</time>
</trkpt>
<trkpt lat="48.93382262438536" lon="9.743591286242008">
<ele>462</ele>
<time>2024-05-07T10:54:23Z</time>
</trkpt>
<trkpt lat="48.93382262438536" lon="9.743590280413628">
<ele>462</ele>
<time>2024-05-07T10:54:24Z</time>
</trkpt>
<trkpt lat="48.93382262438536" lon="9.74358843639493">
<ele>462</ele>
<time>2024-05-07T10:54:25Z</time>
</trkpt>
<trkpt lat="48.93382262438536" lon="9.743584580719473">
<ele>462</ele>
<time>2024-05-07T10:54:27Z</time>
</trkpt>
<trkpt lat="48.93382262438536" lon="9.743581730872393">
<ele>462</ele>
<time>2024-05-07T10:54:28Z</time>
</trkpt>
<trkpt lat="48.93382262438536" lon="9.743579803034663">
<ele>462</ele>
<time>2024-05-07T10:54:29Z</time>
</trkpt>
<trkpt lat="48.93382262438536" lon="9.743577875196934">
<ele>462</ele>
<time>2024-05-07T10:54:30Z</time>
</trkpt>
<trkpt lat="48.93382262438536" lon="9.743576953187585">
<ele>462</ele>
<time>2024-05-07T10:54:32Z</time>
</trkpt>
<trkpt lat="48.933826396241784" lon="9.743576953187585">
<ele>462</ele>
<time>2024-05-07T10:54:33Z</time>
</trkpt>
<trkpt lat="48.933826396241784" lon="9.743571253493428">
<ele>462</ele>
<time>2024-05-07T10:54:40Z</time>
</trkpt>
<trkpt lat="48.933826396241784" lon="9.743573181331158">
<ele>462</ele>
<time>2024-05-07T10:54:43Z</time>
</trkpt>
<trkpt lat="48.933826396241784" lon="9.743571253493428">
<ele>462</ele>
<time>2024-05-07T10:54:45Z</time>
</trkpt>
<trkpt lat="48.933826396241784" lon="9.743573181331158">
<ele>462</ele>
<time>2024-05-07T10:54:46Z</time>
</trkpt>
<trkpt lat="48.933826396241784" lon="9.743571253493428">
<ele>462</ele>
<time>2024-05-07T10:54:47Z</time>
</trkpt>
<trkpt lat="48.93383025191724" lon="9.743571253493428">
<ele>462</ele>
<time>2024-05-07T10:54:51Z</time>
</trkpt>
<trkpt lat="48.93383025191724" lon="9.743573181331158">
<ele>462</ele>
<time>2024-05-07T10:54:52Z</time>
</trkpt>
<trkpt lat="48.93383025191724" lon="9.743575025349855">
<ele>462</ele>
<time>2024-05-07T10:54:59Z</time>
</trkpt>
<trkpt lat="48.93383025191724" lon="9.743576953187585">
<ele>462</ele>
<time>2024-05-07T10:55:01Z</time>
</trkpt>
<trkpt lat="48.933826396241784" lon="9.743576953187585">
<ele>462</ele>
<time>2024-05-07T10:55:02Z</time>
</trkpt>
<trkpt lat="48.933826396241784" lon="9.743577875196934">
<ele>462</ele>
<time>2024-05-07T10:55:03Z</time>
</trkpt>
<trkpt lat="48.933826396241784" lon="9.743579803034663">
<ele>462</ele>
<time>2024-05-07T10:55:04Z</time>
</trkpt>
<trkpt lat="48.933826396241784" lon="9.743581730872393">
<ele>462</ele>
<time>2024-05-07T10:55:05Z</time>
</trkpt>
<trkpt lat="48.933826396241784" lon="9.743583658710122">
<ele>462</ele>
<time>2024-05-07T10:55:06Z</time>
</trkpt>
<trkpt lat="48.933826396241784" lon="9.743584580719473">
<ele>462</ele>
<time>2024-05-07T10:55:08Z</time>
</trkpt>
<trkpt lat="48.933826396241784" lon="9.7435865085572">
<ele>462</ele>
<time>2024-05-07T10:55:09Z</time>
</trkpt>
<trkpt lat="48.93383025191724" lon="9.74358843639493">
<ele>462</ele>
<time>2024-05-07T10:55:10Z</time>
</trkpt>
<trkpt lat="48.933826396241784" lon="9.74358843639493">
<ele>462</ele>
<time>2024-05-07T10:55:11Z</time>
</trkpt>
<trkpt lat="48.93383025191724" lon="9.743590280413628">
<ele>462</ele>
<time>2024-05-07T10:55:12Z</time>
</trkpt>
<trkpt lat="48.93383025191724" lon="9.743591286242008">
<ele>462</ele>
<time>2024-05-07T10:55:13Z</time>
</trkpt>
<trkpt lat="48.93383025191724" lon="9.743593214079738">
<ele>462</ele>
<time>2024-05-07T10:55:16Z</time>
</trkpt>
<trkpt lat="48.93383025191724" lon="9.743591286242008">
<ele>462</ele>
<time>2024-05-07T10:55:17Z</time>
</trkpt>
<trkpt lat="48.93383025191724" lon="9.743593214079738">
<ele>462</ele>
<time>2024-05-07T10:55:19Z</time>
</trkpt>
<trkpt lat="48.93383025191724" lon="9.743591286242008">
<ele>462</ele>
<time>2024-05-07T10:55:20Z</time>
</trkpt>
<trkpt lat="48.93383025191724" lon="9.743593214079738">
<ele>462</ele>
<time>2024-05-07T10:55:21Z</time>
</trkpt>
<trkpt lat="48.93383025191724" lon="9.743595058098435">
<ele>462</ele>
<time>2024-05-07T10:55:23Z</time>
</trkpt>
<trkpt lat="48.93383025191724" lon="9.743593214079738">
<ele>462</ele>
<time>2024-05-07T10:55:25Z</time>
</trkpt>
<trkpt lat="48.93383402377367" lon="9.743591286242008">
<ele>462</ele>
<time>2024-05-07T10:55:31Z</time>
</trkpt>
<trkpt lat="48.93383402377367" lon="9.743590280413628">
<ele>462</ele>
<time>2024-05-07T10:55:32Z</time>
</trkpt>
<trkpt lat="48.93383402377367" lon="9.74358843639493">
<ele>462</ele>
<time>2024-05-07T10:55:33Z</time>
</trkpt>
<trkpt lat="48.93383402377367" lon="9.7435865085572">
<ele>462</ele>
<time>2024-05-07T10:55:35Z</time>
</trkpt>
<trkpt lat="48.93383402377367" lon="9.743584580719473">
<ele>462</ele>
<time>2024-05-07T10:55:36Z</time>
</trkpt>
<trkpt lat="48.93383402377367" lon="9.743583658710122">
<ele>462</ele>
<time>2024-05-07T10:55:46Z</time>
</trkpt>
<trkpt lat="48.93383402377367" lon="9.743581730872393">
<ele>462</ele>
<time>2024-05-07T10:55:49Z</time>
</trkpt>
<trkpt lat="48.93383402377367" lon="9.743579803034663">
<ele>462</ele>
<time>2024-05-07T10:55:50Z</time>
</trkpt>
<trkpt lat="48.93383402377367" lon="9.743577875196934">
<ele>462</ele>
<time>2024-05-07T10:55:52Z</time>
</trkpt>
<trkpt lat="48.93383025191724" lon="9.743577875196934">
<ele>462</ele>
<time>2024-05-07T10:55:53Z</time>
</trkpt>
<trkpt lat="48.93383025191724" lon="9.743576953187585">
<ele>462</ele>
<time>2024-05-07T10:55:54Z</time>
</trkpt>
<trkpt lat="48.93383025191724" lon="9.743575025349855">
<ele>462</ele>
<time>2024-05-07T10:55:56Z</time>
</trkpt>
<trkpt lat="48.93383025191724" lon="9.743573181331158">
<ele>462</ele>
<time>2024-05-07T10:55:57Z</time>
</trkpt>
<trkpt lat="48.93383025191724" lon="9.743571253493428">
<ele>462</ele>
<time>2024-05-07T10:55:59Z</time>
</trkpt>
<trkpt lat="48.93383025191724" lon="9.743570247665048">
<ele>462</ele>
<time>2024-05-07T10:56:03Z</time>
</trkpt>
<trkpt lat="48.93383025191724" lon="9.74356840364635">
<ele>462</ele>
<time>2024-05-07T10:56:04Z</time>
</trkpt>
<trkpt lat="48.933826396241784" lon="9.74356840364635">
<ele>462</ele>
<time>2024-05-07T10:56:07Z</time>
</trkpt>
<trkpt lat="48.933826396241784" lon="9.743570247665048">
<ele>462</ele>
<time>2024-05-07T10:56:08Z</time>
</trkpt>
<trkpt lat="48.933826396241784" lon="9.74356840364635">
<ele>462</ele>
<time>2024-05-07T10:56:09Z</time>
</trkpt>
<trkpt lat="48.933826396241784" lon="9.74356647580862">
<ele>462</ele>
<time>2024-05-07T10:56:16Z</time>
</trkpt>
<trkpt lat="48.933826396241784" lon="9.743564547970893">
<ele>462</ele>
<time>2024-05-07T10:56:22Z</time>
</trkpt>
<trkpt lat="48.933826396241784" lon="9.74356647580862">
<ele>462</ele>
<time>2024-05-07T10:56:23Z</time>
</trkpt>
<trkpt lat="48.933826396241784" lon="9.743564547970893">
<ele>462</ele>
<time>2024-05-07T10:56:24Z</time>
</trkpt>
<trkpt lat="48.933826396241784" lon="9.74356647580862">
<ele>462</ele>
<time>2024-05-07T10:56:26Z</time>
</trkpt>
<trkpt lat="48.93383025191724" lon="9.74356647580862">
<ele>462</ele>
<time>2024-05-07T10:56:31Z</time>
</trkpt>
<trkpt lat="48.93383025191724" lon="9.74356840364635">
<ele>462</ele>
<time>2024-05-07T10:56:32Z</time>
</trkpt>
<trkpt lat="48.93383025191724" lon="9.74356647580862">
<ele>462</ele>
<time>2024-05-07T10:56:33Z</time>
</trkpt>
<trkpt lat="48.93383025191724" lon="9.74356840364635">
<ele>462</ele>
<time>2024-05-07T10:56:47Z</time>
</trkpt>
<trkpt lat="48.93383025191724" lon="9.74356647580862">
<ele>462</ele>
<time>2024-05-07T10:56:48Z</time>
</trkpt>
<trkpt lat="48.93383025191724" lon="9.743564547970893">
<ele>462</ele>
<time>2024-05-07T10:56:50Z</time>
</trkpt>
<trkpt lat="48.93383025191724" lon="9.743563625961542">
<ele>462</ele>
<time>2024-05-07T10:56:54Z</time>
</trkpt>
<trkpt lat="48.93383025191724" lon="9.743564547970893">
<ele>462</ele>
<time>2024-05-07T10:56:55Z</time>
</trkpt>
<trkpt lat="48.93383025191724" lon="9.743563625961542">
<ele>462</ele>
<time>2024-05-07T10:56:59Z</time>
</trkpt>
<trkpt lat="48.93383402377367" lon="9.743563625961542">
<ele>462</ele>
<time>2024-05-07T10:57:01Z</time>
</trkpt>
<trkpt lat="48.93383787944913" lon="9.743564547970893">
<ele>462</ele>
<time>2024-05-07T10:57:11Z</time>
</trkpt>
<trkpt lat="48.93383787944913" lon="9.74356647580862">
<ele>462</ele>
<time>2024-05-07T10:57:12Z</time>
</trkpt>
<trkpt lat="48.93383787944913" lon="9.74356840364635">
<ele>462</ele>
<time>2024-05-07T10:57:14Z</time>
</trkpt>
<trkpt lat="48.93383787944913" lon="9.743571253493428">
<ele>462</ele>
<time>2024-05-07T10:57:17Z</time>
</trkpt>
<trkpt lat="48.93383787944913" lon="9.743573181331158">
<ele>462</ele>
<time>2024-05-07T10:57:21Z</time>
</trkpt>
<trkpt lat="48.93383787944913" lon="9.743575025349855">
<ele>462</ele>
<time>2024-05-07T10:57:22Z</time>
</trkpt>
<trkpt lat="48.93384165130555" lon="9.743575025349855">
<ele>462</ele>
<time>2024-05-07T10:57:24Z</time>
</trkpt>
<trkpt lat="48.93384165130555" lon="9.743573181331158">
<ele>462</ele>
<time>2024-05-07T10:57:31Z</time>
</trkpt>
<trkpt lat="48.93384165130555" lon="9.743571253493428">
<ele>462</ele>
<time>2024-05-07T10:57:38Z</time>
</trkpt>
<trkpt lat="48.93384165130555" lon="9.743573181331158">
<ele>462</ele>
<time>2024-05-07T10:57:39Z</time>
</trkpt>
<trkpt lat="48.93384165130555" lon="9.743571253493428">
<ele>462</ele>
<time>2024-05-07T10:57:40Z</time>
</trkpt>
<trkpt lat="48.93384165130555" lon="9.743573181331158">
<ele>462</ele>
<time>2024-05-07T10:57:41Z</time>
</trkpt>
<trkpt lat="48.93384165130555" lon="9.743571253493428">
<ele>462</ele>
<time>2024-05-07T10:57:42Z</time>
</trkpt>
<trkpt lat="48.93384165130555" lon="9.743570247665048">
<ele>462</ele>
<time>2024-05-07T10:57:46Z</time>
</trkpt>
<trkpt lat="48.93384165130555" lon="9.74356840364635">
<ele>462</ele>
<time>2024-05-07T10:57:47Z</time>
</trkpt>
<trkpt lat="48.93384165130555" lon="9.743570247665048">
<ele>462</ele>
<time>2024-05-07T10:57:56Z</time>
</trkpt>
<trkpt lat="48.93383787944913" lon="9.743571253493428">
<ele>462</ele>
<time>2024-05-07T10:58:00Z</time>
</trkpt>
<trkpt lat="48.93383787944913" lon="9.743573181331158">
<ele>462</ele>
<time>2024-05-07T10:58:05Z</time>
</trkpt>
<trkpt lat="48.93383787944913" lon="9.743571253493428">
<ele>462</ele>
<time>2024-05-07T10:58:10Z</time>
</trkpt>
<trkpt lat="48.93383787944913" lon="9.743570247665048">
<ele>462</ele>
<time>2024-05-07T10:58:22Z</time>
</trkpt>
<trkpt lat="48.93383787944913" lon="9.74356840364635">
<ele>462</ele>
<time>2024-05-07T10:58:28Z</time>
</trkpt>
<trkpt lat="48.93383787944913" lon="9.743570247665048">
<ele>462</ele>
<time>2024-05-07T10:58:33Z</time>
</trkpt>
<trkpt lat="48.93383787944913" lon="9.743571253493428">
<ele>462</ele>
<time>2024-05-07T10:58:35Z</time>
</trkpt>
<trkpt lat="48.93383787944913" lon="9.743570247665048">
<ele>462</ele>
<time>2024-05-07T10:58:43Z</time>
</trkpt>
<trkpt lat="48.93384165130555" lon="9.743571253493428">
<ele>462</ele>
<time>2024-05-07T10:58:44Z</time>
</trkpt>
<trkpt lat="48.93384165130555" lon="9.743570247665048">
<ele>462</ele>
<time>2024-05-07T10:58:47Z</time>
</trkpt>
<trkpt lat="48.93384165130555" lon="9.74356840364635">
<ele>462</ele>
<time>2024-05-07T10:58:53Z</time>
</trkpt>
<trkpt lat="48.93384165130555" lon="9.74356647580862">
<ele>462</ele>
<time>2024-05-07T10:58:54Z</time>
</trkpt>
<trkpt lat="48.93384165130555" lon="9.74356840364635">
<ele>462</ele>
<time>2024-05-07T10:58:56Z</time>
</trkpt>
<trkpt lat="48.933845506981015" lon="9.74356840364635">
<ele>462</ele>
<time>2024-05-07T10:58:57Z</time>
</trkpt>
<trkpt lat="48.933845506981015" lon="9.743570247665048">
<ele>462</ele>
<time>2024-05-07T10:59:02Z</time>
</trkpt>
<trkpt lat="48.933845506981015" lon="9.743571253493428">
<ele>462</ele>
<time>2024-05-07T10:59:04Z</time>
</trkpt>
<trkpt lat="48.933845506981015" lon="9.743573181331158">
<ele>462</ele>
<time>2024-05-07T10:59:06Z</time>
</trkpt>
<trkpt lat="48.933845506981015" lon="9.743576953187585">
<ele>462</ele>
<time>2024-05-07T10:59:08Z</time>
</trkpt>
<trkpt lat="48.933845506981015" lon="9.743577875196934">
<ele>462</ele>
<time>2024-05-07T10:59:12Z</time>
</trkpt>
<trkpt lat="48.933845506981015" lon="9.743581730872393">
<ele>462</ele>
<time>2024-05-07T10:59:14Z</time>
</trkpt>
<trkpt lat="48.933845506981015" lon="9.743583658710122">
<ele>462</ele>
<time>2024-05-07T10:59:19Z</time>
</trkpt>
<trkpt lat="48.93384927883744" lon="9.743583658710122">
<ele>462</ele>
<time>2024-05-07T10:59:22Z</time>
</trkpt>
<trkpt lat="48.93384927883744" lon="9.743584580719473">
<ele>462</ele>
<time>2024-05-07T10:59:25Z</time>
</trkpt>
<trkpt lat="48.93384927883744" lon="9.743583658710122">
<ele>462</ele>
<time>2024-05-07T10:59:26Z</time>
</trkpt>
<trkpt lat="48.93384927883744" lon="9.743584580719473">
<ele>462</ele>
<time>2024-05-07T10:59:29Z</time>
</trkpt>
<trkpt lat="48.93384927883744" lon="9.7435865085572">
<ele>462</ele>
<time>2024-05-07T10:59:38Z</time>
</trkpt>
<trkpt lat="48.93384927883744" lon="9.74358843639493">
<ele>462</ele>
<time>2024-05-07T10:59:42Z</time>
</trkpt>
<trkpt lat="48.933845506981015" lon="9.743590280413628">
<ele>462</ele>
<time>2024-05-07T10:59:43Z</time>
</trkpt>
<trkpt lat="48.93384165130555" lon="9.743590280413628">
<ele>462</ele>
<time>2024-05-07T10:59:51Z</time>
</trkpt>
<trkpt lat="48.93384165130555" lon="9.743591286242008">
<ele>462</ele>
<time>2024-05-07T10:59:53Z</time>
</trkpt>
<trkpt lat="48.93384165130555" lon="9.743590280413628">
<ele>462</ele>
<time>2024-05-07T10:59:57Z</time>
</trkpt>
<trkpt lat="48.93383787944913" lon="9.743590280413628">
<ele>462</ele>
<time>2024-05-07T10:59:58Z</time>
</trkpt>
<trkpt lat="48.93383402377367" lon="9.74358843639493">
<ele>462</ele>
<time>2024-05-07T11:00:04Z</time>
</trkpt>
<trkpt lat="48.93383787944913" lon="9.7435865085572">
<ele>462</ele>
<time>2024-05-07T11:00:05Z</time>
</trkpt>
<trkpt lat="48.93383402377367" lon="9.7435865085572">
<ele>462</ele>
<time>2024-05-07T11:00:06Z</time>
</trkpt>
<trkpt lat="48.93383402377367" lon="9.743584580719473">
<ele>462</ele>
<time>2024-05-07T11:00:07Z</time>
</trkpt>
<trkpt lat="48.93383402377367" lon="9.743583658710122">
<ele>462</ele>
<time>2024-05-07T11:00:09Z</time>
</trkpt>
<trkpt lat="48.93383787944913" lon="9.743581730872393">
<ele>462</ele>
<time>2024-05-07T11:00:13Z</time>
</trkpt>
<trkpt lat="48.93383402377367" lon="9.743583658710122">
<ele>462</ele>
<time>2024-05-07T11:00:14Z</time>
</trkpt>
<trkpt lat="48.93383787944913" lon="9.743584580719473">
<ele>462</ele>
<time>2024-05-07T11:00:16Z</time>
</trkpt>
<trkpt lat="48.93383787944913" lon="9.7435865085572">
<ele>462</ele>
<time>2024-05-07T11:00:20Z</time>
</trkpt>
<trkpt lat="48.93383787944913" lon="9.74358843639493">
<ele>462</ele>
<time>2024-05-07T11:00:22Z</time>
</trkpt>
<trkpt lat="48.93383787944913" lon="9.743590280413628">
<ele>462</ele>
<time>2024-05-07T11:00:23Z</time>
</trkpt>
<trkpt lat="48.93383787944913" lon="9.743591286242008">
<ele>462</ele>
<time>2024-05-07T11:00:25Z</time>
</trkpt>
<trkpt lat="48.93383402377367" lon="9.743591286242008">
<ele>462</ele>
<time>2024-05-07T11:00:26Z</time>
</trkpt>
<trkpt lat="48.93383402377367" lon="9.743593214079738">
<ele>462</ele>
<time>2024-05-07T11:00:28Z</time>
</trkpt>
<trkpt lat="48.93383402377367" lon="9.743595058098435">
<ele>462</ele>
<time>2024-05-07T11:00:29Z</time>
</trkpt>
<trkpt lat="48.93383402377367" lon="9.743596985936165">
<ele>462</ele>
<time>2024-05-07T11:00:31Z</time>
</trkpt>
<trkpt lat="48.93383402377367" lon="9.743597907945514">
<ele>462</ele>
<time>2024-05-07T11:00:32Z</time>
</trkpt>
<trkpt lat="48.93383402377367" lon="9.743599835783243">
<ele>462</ele>
<time>2024-05-07T11:00:35Z</time>
</trkpt>
<trkpt lat="48.93383402377367" lon="9.743603691458702">
<ele>462</ele>
<time>2024-05-07T11:00:37Z</time>
</trkpt>
<trkpt lat="48.93383402377367" lon="9.743604613468053">
<ele>462</ele>
<time>2024-05-07T11:00:39Z</time>
</trkpt>
<trkpt lat="48.93383402377367" lon="9.74360654130578">
<ele>462</ele>
<time>2024-05-07T11:00:41Z</time>
</trkpt>
<trkpt lat="48.93383402377367" lon="9.743604613468053">
<ele>462</ele>
<time>2024-05-07T11:00:45Z</time>
</trkpt>
<trkpt lat="48.93383787944913" lon="9.743601763620973">
<ele>462</ele>
<time>2024-05-07T11:00:46Z</time>
</trkpt>
<trkpt lat="48.93383787944913" lon="9.743603691458702">
<ele>462</ele>
<time>2024-05-07T11:00:52Z</time>
</trkpt>
<trkpt lat="48.93383787944913" lon="9.743604613468053">
<ele>462</ele>
<time>2024-05-07T11:00:54Z</time>
</trkpt>
<trkpt lat="48.93383787944913" lon="9.74360846914351">
<ele>462</ele>
<time>2024-05-07T11:00:58Z</time>
</trkpt>
<trkpt lat="48.93383787944913" lon="9.743610313162208">
<ele>462</ele>
<time>2024-05-07T11:01:02Z</time>
</trkpt>
<trkpt lat="48.93383402377367" lon="9.743610313162208">
<ele>462</ele>
<time>2024-05-07T11:01:05Z</time>
</trkpt>
<trkpt lat="48.93383402377367" lon="9.743611318990588">
<ele>462</ele>
<time>2024-05-07T11:01:08Z</time>
</trkpt>
<trkpt lat="48.93383402377367" lon="9.743613163009286">
<ele>462</ele>
<time>2024-05-07T11:01:12Z</time>
</trkpt>
<trkpt lat="48.93383025191724" lon="9.743615090847015">
<ele>462</ele>
<time>2024-05-07T11:01:17Z</time>
</trkpt>
<trkpt lat="48.93383025191724" lon="9.743613163009286">
<ele>462</ele>
<time>2024-05-07T11:01:18Z</time>
</trkpt>
<trkpt lat="48.93383025191724" lon="9.743611318990588">
<ele>462</ele>
<time>2024-05-07T11:01:19Z</time>
</trkpt>
<trkpt lat="48.93383025191724" lon="9.743610313162208">
<ele>462</ele>
<time>2024-05-07T11:01:23Z</time>
</trkpt>
<trkpt lat="48.93383025191724" lon="9.74360846914351">
<ele>462</ele>
<time>2024-05-07T11:01:24Z</time>
</trkpt>
<trkpt lat="48.93383025191724" lon="9.74360654130578">
<ele>462</ele>
<time>2024-05-07T11:01:25Z</time>
</trkpt>
<trkpt lat="48.93383025191724" lon="9.74360846914351">
<ele>462</ele>
<time>2024-05-07T11:01:26Z</time>
</trkpt>
<trkpt lat="48.93383025191724" lon="9.74360654130578">
<ele>462</ele>
<time>2024-05-07T11:01:27Z</time>
</trkpt>
<trkpt lat="48.93383402377367" lon="9.743604613468053">
<ele>462</ele>
<time>2024-05-07T11:01:28Z</time>
</trkpt>
<trkpt lat="48.93383402377367" lon="9.743603691458702">
<ele>462</ele>
<time>2024-05-07T11:01:29Z</time>
</trkpt>
<trkpt lat="48.93383402377367" lon="9.743601763620973">
<ele>462</ele>
<time>2024-05-07T11:01:33Z</time>
</trkpt>
<trkpt lat="48.93383402377367" lon="9.743603691458702">
<ele>462</ele>
<time>2024-05-07T11:01:37Z</time>
</trkpt>
<trkpt lat="48.93383402377367" lon="9.743601763620973">
<ele>462</ele>
<time>2024-05-07T11:01:39Z</time>
</trkpt>
<trkpt lat="48.93383025191724" lon="9.743599835783243">
<ele>462</ele>
<time>2024-05-07T11:01:41Z</time>
</trkpt>
<trkpt lat="48.93383402377367" lon="9.743599835783243">
<ele>462</ele>
<time>2024-05-07T11:01:42Z</time>
</trkpt>
<trkpt lat="48.93383025191724" lon="9.743599835783243">
<ele>462</ele>
<time>2024-05-07T11:01:43Z</time>
</trkpt>
<trkpt lat="48.93383025191724" lon="9.743597907945514">
<ele>462</ele>
<time>2024-05-07T11:01:45Z</time>
</trkpt>
<trkpt lat="48.93383025191724" lon="9.743596985936165">
<ele>462</ele>
<time>2024-05-07T11:01:46Z</time>
</trkpt>
<trkpt lat="48.93383025191724" lon="9.743595058098435">
<ele>462</ele>
<time>2024-05-07T11:01:47Z</time>
</trkpt>
<trkpt lat="48.93383025191724" lon="9.743593214079738">
<ele>462</ele>
<time>2024-05-07T11:01:48Z</time>
</trkpt>
<trkpt lat="48.93383025191724" lon="9.743595058098435">
<ele>462</ele>
<time>2024-05-07T11:01:49Z</time>
</trkpt>
<trkpt lat="48.93383402377367" lon="9.743595058098435">
<ele>462</ele>
<time>2024-05-07T11:01:52Z</time>
</trkpt>
<trkpt lat="48.93383025191724" lon="9.743595058098435">
<ele>462</ele>
<time>2024-05-07T11:01:56Z</time>
</trkpt>
<trkpt lat="48.93383025191724" lon="9.743596985936165">
<ele>462</ele>
<time>2024-05-07T11:01:58Z</time>
</trkpt>
<trkpt lat="48.93383025191724" lon="9.743595058098435">
<ele>462</ele>
<time>2024-05-07T11:02:00Z</time>
</trkpt>
<trkpt lat="48.93383025191724" lon="9.743596985936165">
<ele>462</ele>
<time>2024-05-07T11:02:02Z</time>
</trkpt>
<trkpt lat="48.93383025191724" lon="9.743595058098435">
<ele>462</ele>
<time>2024-05-07T11:02:03Z</time>
</trkpt>
<trkpt lat="48.93383025191724" lon="9.743596985936165">
<ele>462</ele>
<time>2024-05-07T11:02:05Z</time>
</trkpt>
<trkpt lat="48.93383025191724" lon="9.743595058098435">
<ele>462</ele>
<time>2024-05-07T11:02:10Z</time>
</trkpt>
<trkpt lat="48.93383025191724" lon="9.743596985936165">
<ele>462</ele>
<time>2024-05-07T11:02:11Z</time>
</trkpt>
<trkpt lat="48.93383025191724" lon="9.743595058098435">
<ele>462</ele>
<time>2024-05-07T11:02:12Z</time>
</trkpt>
<trkpt lat="48.93383025191724" lon="9.743596985936165">
<ele>462</ele>
<time>2024-05-07T11:02:17Z</time>
</trkpt>
<trkpt lat="48.93383025191724" lon="9.743595058098435">
<ele>462</ele>
<time>2024-05-07T11:02:19Z</time>
</trkpt>
<trkpt lat="48.93383025191724" lon="9.743593214079738">
<ele>462</ele>
<time>2024-05-07T11:02:26Z</time>
</trkpt>
<trkpt lat="48.933826396241784" lon="9.743590280413628">
<ele>462</ele>
<time>2024-05-07T11:02:27Z</time>
</trkpt>
<trkpt lat="48.93382262438536" lon="9.743591286242008">
<ele>462</ele>
<time>2024-05-07T11:02:34Z</time>
</trkpt>
<trkpt lat="48.93382262438536" lon="9.743593214079738">
<ele>462</ele>
<time>2024-05-07T11:02:36Z</time>
</trkpt>
<trkpt lat="48.93382262438536" lon="9.743591286242008">
<ele>462</ele>
<time>2024-05-07T11:02:37Z</time>
</trkpt>
<trkpt lat="48.93382262438536" lon="9.743593214079738">
<ele>462</ele>
<time>2024-05-07T11:02:41Z</time>
</trkpt>
<trkpt lat="48.93382262438536" lon="9.743591286242008">
<ele>462</ele>
<time>2024-05-07T11:02:47Z</time>
</trkpt>
<trkpt lat="48.93382262438536" lon="9.743593214079738">
<ele>462</ele>
<time>2024-05-07T11:02:49Z</time>
</trkpt>
<trkpt lat="48.933826396241784" lon="9.743593214079738">
<ele>462</ele>
<time>2024-05-07T11:02:52Z</time>
</trkpt>
<trkpt lat="48.933826396241784" lon="9.743591286242008">
<ele>462</ele>
<time>2024-05-07T11:02:55Z</time>
</trkpt>
<trkpt lat="48.933826396241784" lon="9.743593214079738">
<ele>462</ele>
<time>2024-05-07T11:03:06Z</time>
</trkpt>
<trkpt lat="48.933826396241784" lon="9.743595058098435">
<ele>462</ele>
<time>2024-05-07T11:03:10Z</time>
</trkpt>
<trkpt lat="48.93383025191724" lon="9.743595058098435">
<ele>462</ele>
<time>2024-05-07T11:03:11Z</time>
</trkpt>
<trkpt lat="48.93383025191724" lon="9.743593214079738">
<ele>462</ele>
<time>2024-05-07T11:03:13Z</time>
</trkpt>
<trkpt lat="48.93383025191724" lon="9.743595058098435">
<ele>462</ele>
<time>2024-05-07T11:03:14Z</time>
</trkpt>
<trkpt lat="48.93383025191724" lon="9.743593214079738">
<ele>462</ele>
<time>2024-05-07T11:03:15Z</time>
</trkpt>
<trkpt lat="48.93383025191724" lon="9.743595058098435">
<ele>462</ele>
<time>2024-05-07T11:03:16Z</time>
</trkpt>
<trkpt lat="48.93383025191724" lon="9.743593214079738">
<ele>462</ele>
<time>2024-05-07T11:03:18Z</time>
</trkpt>
<trkpt lat="48.93383025191724" lon="9.743595058098435">
<ele>462</ele>
<time>2024-05-07T11:03:20Z</time>
</trkpt>
<trkpt lat="48.93383025191724" lon="9.743593214079738">
<ele>462</ele>
<time>2024-05-07T11:03:21Z</time>
</trkpt>
<trkpt lat="48.93383025191724" lon="9.743591286242008">
<ele>462</ele>
<time>2024-05-07T11:03:23Z</time>
</trkpt>
<trkpt lat="48.93383025191724" lon="9.743590280413628">
<ele>462</ele>
<time>2024-05-07T11:03:27Z</time>
</trkpt>
<trkpt lat="48.93383025191724" lon="9.74358843639493">
<ele>462</ele>
<time>2024-05-07T11:03:28Z</time>
</trkpt>
<trkpt lat="48.93383025191724" lon="9.743590280413628">
<ele>462</ele>
<time>2024-05-07T11:03:29Z</time>
</trkpt>
<trkpt lat="48.93383025191724" lon="9.74358843639493">
<ele>462</ele>
<time>2024-05-07T11:03:30Z</time>
</trkpt>
<trkpt lat="48.93383402377367" lon="9.74358843639493">
<ele>462</ele>
<time>2024-05-07T11:03:31Z</time>
</trkpt>
<trkpt lat="48.93383402377367" lon="9.7435865085572">
<ele>462</ele>
<time>2024-05-07T11:03:32Z</time>
</trkpt>
<trkpt lat="48.93383025191724" lon="9.743584580719473">
<ele>462</ele>
<time>2024-05-07T11:03:36Z</time>
</trkpt>
<trkpt lat="48.93383025191724" lon="9.7435865085572">
<ele>462</ele>
<time>2024-05-07T11:03:38Z</time>
</trkpt>
<trkpt lat="48.93383025191724" lon="9.743583658710122">
<ele>462</ele>
<time>2024-05-07T11:03:45Z</time>
</trkpt>
<trkpt lat="48.93383025191724" lon="9.743579803034663">
<ele>462</ele>
<time>2024-05-07T11:03:46Z</time>
</trkpt>
<trkpt lat="48.93383025191724" lon="9.743581730872393">
<ele>462</ele>
<time>2024-05-07T11:03:47Z</time>
</trkpt>
<trkpt lat="48.93383025191724" lon="9.743579803034663">
<ele>462</ele>
<time>2024-05-07T11:03:48Z</time>
</trkpt>
<trkpt lat="48.93383025191724" lon="9.743581730872393">
<ele>462</ele>
<time>2024-05-07T11:03:49Z</time>
</trkpt>
<trkpt lat="48.93383025191724" lon="9.743577875196934">
<ele>462</ele>
<time>2024-05-07T11:03:52Z</time>
</trkpt>
<trkpt lat="48.933826396241784" lon="9.743581730872393">
<ele>462</ele>
<time>2024-05-07T11:03:55Z</time>
</trkpt>
<trkpt lat="48.933826396241784" lon="9.743583658710122">
<ele>462</ele>
<time>2024-05-07T11:03:56Z</time>
</trkpt>
<trkpt lat="48.933826396241784" lon="9.743581730872393">
<ele>462</ele>
<time>2024-05-07T11:03:58Z</time>
</trkpt>
<trkpt lat="48.933826396241784" lon="9.743583658710122">
<ele>462</ele>
<time>2024-05-07T11:03:59Z</time>
</trkpt>
<trkpt lat="48.933826396241784" lon="9.74358843639493">
<ele>462</ele>
<time>2024-05-07T11:04:02Z</time>
</trkpt>
<trkpt lat="48.93382262438536" lon="9.7435865085572">
<ele>462</ele>
<time>2024-05-07T11:04:03Z</time>
</trkpt>
<trkpt lat="48.93382262438536" lon="9.743584580719473">
<ele>462</ele>
<time>2024-05-07T11:04:04Z</time>
</trkpt>
<trkpt lat="48.93382262438536" lon="9.7435865085572">
<ele>462</ele>
<time>2024-05-07T11:04:08Z</time>
</trkpt>
<trkpt lat="48.93382262438536" lon="9.74358843639493">
<ele>462</ele>
<time>2024-05-07T11:04:09Z</time>
</trkpt>
<trkpt lat="48.93382262438536" lon="9.743590280413628">
<ele>462</ele>
<time>2024-05-07T11:04:10Z</time>
</trkpt>
<trkpt lat="48.93382262438536" lon="9.743591286242008">
<ele>462</ele>
<time>2024-05-07T11:04:12Z</time>
</trkpt>
<trkpt lat="48.9338187687099" lon="9.743593214079738">
<ele>462</ele>
<time>2024-05-07T11:04:14Z</time>
</trkpt>
<trkpt lat="48.9338187687099" lon="9.743596985936165">
<ele>462</ele>
<time>2024-05-07T11:04:15Z</time>
</trkpt>
<trkpt lat="48.9338187687099" lon="9.743597907945514">
<ele>462</ele>
<time>2024-05-07T11:04:16Z</time>
</trkpt>
<trkpt lat="48.9338187687099" lon="9.743596985936165">
<ele>462</ele>
<time>2024-05-07T11:04:17Z</time>
</trkpt>
<trkpt lat="48.9338187687099" lon="9.743593214079738">
<ele>462</ele>
<time>2024-05-07T11:04:18Z</time>
</trkpt>
<trkpt lat="48.9338187687099" lon="9.743590280413628">
<ele>462</ele>
<time>2024-05-07T11:04:23Z</time>
</trkpt>
<trkpt lat="48.93382262438536" lon="9.74358843639493">
<ele>462</ele>
<time>2024-05-07T11:04:24Z</time>
</trkpt>
<trkpt lat="48.9338187687099" lon="9.743591286242008">
<ele>462</ele>
<time>2024-05-07T11:04:25Z</time>
</trkpt>
<trkpt lat="48.9338187687099" lon="9.743590280413628">
<ele>462</ele>
<time>2024-05-07T11:04:26Z</time>
</trkpt>
<trkpt lat="48.9338187687099" lon="9.74358843639493">
<ele>462</ele>
<time>2024-05-07T11:04:27Z</time>
</trkpt>
<trkpt lat="48.9338187687099" lon="9.743590280413628">
<ele>462</ele>
<time>2024-05-07T11:04:28Z</time>
</trkpt>
<trkpt lat="48.9338187687099" lon="9.743591286242008">
<ele>462</ele>
<time>2024-05-07T11:04:32Z</time>
</trkpt>
<trkpt lat="48.9338187687099" lon="9.743593214079738">
<ele>462</ele>
<time>2024-05-07T11:04:33Z</time>
</trkpt>
<trkpt lat="48.9338187687099" lon="9.743595058098435">
<ele>462</ele>
<time>2024-05-07T11:04:35Z</time>
</trkpt>
<trkpt lat="48.9338187687099" lon="9.743593214079738">
<ele>462</ele>
<time>2024-05-07T11:04:36Z</time>
</trkpt>
<trkpt lat="48.9338187687099" lon="9.743596985936165">
<ele>462</ele>
<time>2024-05-07T11:04:40Z</time>
</trkpt>
<trkpt lat="48.9338187687099" lon="9.743597907945514">
<ele>462</ele>
<time>2024-05-07T11:04:44Z</time>
</trkpt>
<trkpt lat="48.9338187687099" lon="9.743599835783243">
<ele>462</ele>
<time>2024-05-07T11:04:46Z</time>
</trkpt>
<trkpt lat="48.9338187687099" lon="9.743601763620973">
<ele>462</ele>
<time>2024-05-07T11:04:47Z</time>
</trkpt>
<trkpt lat="48.9338187687099" lon="9.743603691458702">
<ele>462</ele>
<time>2024-05-07T11:04:50Z</time>
</trkpt>
<trkpt lat="48.9338187687099" lon="9.743604613468053">
<ele>462</ele>
<time>2024-05-07T11:04:52Z</time>
</trkpt>
<trkpt lat="48.9338187687099" lon="9.74360654130578">
<ele>462</ele>
<time>2024-05-07T11:04:53Z</time>
</trkpt>
<trkpt lat="48.9338187687099" lon="9.74360846914351">
<ele>462</ele>
<time>2024-05-07T11:04:55Z</time>
</trkpt>
<trkpt lat="48.93381499685347" lon="9.743610313162208">
<ele>462</ele>
<time>2024-05-07T11:04:58Z</time>
</trkpt>
<trkpt lat="48.9338187687099" lon="9.743610313162208">
<ele>462</ele>
<time>2024-05-07T11:05:00Z</time>
</trkpt>
<trkpt lat="48.93381499685347" lon="9.743611318990588">
<ele>462</ele>
<time>2024-05-07T11:05:01Z</time>
</trkpt>
<trkpt lat="48.93381499685347" lon="9.743613163009286">
<ele>462</ele>
<time>2024-05-07T11:05:02Z</time>
</trkpt>
<trkpt lat="48.9338187687099" lon="9.743613163009286">
<ele>462</ele>
<time>2024-05-07T11:05:04Z</time>
</trkpt>
<trkpt lat="48.93381499685347" lon="9.743617018684745">
<ele>462</ele>
<time>2024-05-07T11:05:05Z</time>
</trkpt>
<trkpt lat="48.9338187687099" lon="9.743617018684745">
<ele>462</ele>
<time>2024-05-07T11:05:07Z</time>
</trkpt>
<trkpt lat="48.9338187687099" lon="9.743615090847015">
<ele>462</ele>
<time>2024-05-07T11:05:08Z</time>
</trkpt>
<trkpt lat="48.9338187687099" lon="9.743617018684745">
<ele>462</ele>
<time>2024-05-07T11:05:09Z</time>
</trkpt>
<trkpt lat="48.9338187687099" lon="9.743619868531823">
<ele>462</ele>
<time>2024-05-07T11:05:11Z</time>
</trkpt>
<trkpt lat="48.9338187687099" lon="9.743623724207282">
<ele>462</ele>
<time>2024-05-07T11:05:14Z</time>
</trkpt>
<trkpt lat="48.9338187687099" lon="9.743624646216633">
<ele>462</ele>
<time>2024-05-07T11:05:15Z</time>
</trkpt>
<trkpt lat="48.9338187687099" lon="9.74362657405436">
<ele>462</ele>
<time>2024-05-07T11:05:20Z</time>
</trkpt>
<trkpt lat="48.9338187687099" lon="9.74362850189209">
<ele>462</ele>
<time>2024-05-07T11:05:21Z</time>
</trkpt>
<trkpt lat="48.9338187687099" lon="9.74362657405436">
<ele>462</ele>
<time>2024-05-07T11:05:22Z</time>
</trkpt>
<trkpt lat="48.93381499685347" lon="9.743624646216633">
<ele>462</ele>
<time>2024-05-07T11:05:23Z</time>
</trkpt>
<trkpt lat="48.93381499685347" lon="9.74362657405436">
<ele>462</ele>
<time>2024-05-07T11:05:28Z</time>
</trkpt>
<trkpt lat="48.93381499685347" lon="9.743630345910788">
<ele>462</ele>
<time>2024-05-07T11:05:29Z</time>
</trkpt>
<trkpt lat="48.93381499685347" lon="9.743631351739168">
<ele>462</ele>
<time>2024-05-07T11:05:30Z</time>
</trkpt>
<trkpt lat="48.93381499685347" lon="9.743630345910788">
<ele>462</ele>
<time>2024-05-07T11:05:31Z</time>
</trkpt>
<trkpt lat="48.93381499685347" lon="9.74362850189209">
<ele>462</ele>
<time>2024-05-07T11:05:33Z</time>
</trkpt>
<trkpt lat="48.93381499685347" lon="9.743630345910788">
<ele>462</ele>
<time>2024-05-07T11:05:34Z</time>
</trkpt>
<trkpt lat="48.93381499685347" lon="9.74362850189209">
<ele>462</ele>
<time>2024-05-07T11:05:41Z</time>
</trkpt>
<trkpt lat="48.93381499685347" lon="9.743631351739168">
<ele>462</ele>
<time>2024-05-07T11:05:44Z</time>
</trkpt>
<trkpt lat="48.93381499685347" lon="9.743630345910788">
<ele>462</ele>
<time>2024-05-07T11:05:45Z</time>
</trkpt>
<trkpt lat="48.93381499685347" lon="9.74362850189209">
<ele>462</ele>
<time>2024-05-07T11:05:46Z</time>
</trkpt>
<trkpt lat="48.93381499685347" lon="9.74362657405436">
<ele>462</ele>
<time>2024-05-07T11:05:48Z</time>
</trkpt>
<trkpt lat="48.9338187687099" lon="9.74362657405436">
<ele>462</ele>
<time>2024-05-07T11:05:49Z</time>
</trkpt>
<trkpt lat="48.9338187687099" lon="9.74362850189209">
<ele>462</ele>
<time>2024-05-07T11:05:50Z</time>
</trkpt>
<trkpt lat="48.9338187687099" lon="9.74362657405436">
<ele>462</ele>
<time>2024-05-07T11:05:52Z</time>
</trkpt>
<trkpt lat="48.9338187687099" lon="9.743624646216633">
<ele>462</ele>
<time>2024-05-07T11:05:53Z</time>
</trkpt>
<trkpt lat="48.9338187687099" lon="9.74362657405436">
<ele>462</ele>
<time>2024-05-07T11:05:56Z</time>
</trkpt>
<trkpt lat="48.9338187687099" lon="9.74362850189209">
<ele>462</ele>
<time>2024-05-07T11:05:57Z</time>
</trkpt>
<trkpt lat="48.9338187687099" lon="9.74362657405436">
<ele>462</ele>
<time>2024-05-07T11:06:04Z</time>
</trkpt>
<trkpt lat="48.9338187687099" lon="9.743624646216633">
<ele>462</ele>
<time>2024-05-07T11:06:07Z</time>
</trkpt>
<trkpt lat="48.9338187687099" lon="9.74362850189209">
<ele>462</ele>
<time>2024-05-07T11:06:08Z</time>
</trkpt>
<trkpt lat="48.9338187687099" lon="9.743624646216633">
<ele>462</ele>
<time>2024-05-07T11:06:09Z</time>
</trkpt>
<trkpt lat="48.9338187687099" lon="9.743621796369553">
<ele>462</ele>
<time>2024-05-07T11:06:10Z</time>
</trkpt>
<trkpt lat="48.9338187687099" lon="9.743623724207282">
<ele>462</ele>
<time>2024-05-07T11:06:12Z</time>
</trkpt>
<trkpt lat="48.93382262438536" lon="9.743623724207282">
<ele>462</ele>
<time>2024-05-07T11:06:14Z</time>
</trkpt>
<trkpt lat="48.93382262438536" lon="9.743624646216633">
<ele>462</ele>
<time>2024-05-07T11:06:16Z</time>
</trkpt>
<trkpt lat="48.93382262438536" lon="9.74362850189209">
<ele>462</ele>
<time>2024-05-07T11:06:17Z</time>
</trkpt>
<trkpt lat="48.93382262438536" lon="9.74362657405436">
<ele>462</ele>
<time>2024-05-07T11:06:18Z</time>
</trkpt>
<trkpt lat="48.933826396241784" lon="9.74362850189209">
<ele>462</ele>
<time>2024-05-07T11:06:19Z</time>
</trkpt>
<trkpt lat="48.933826396241784" lon="9.743630345910788">
<ele>462</ele>
<time>2024-05-07T11:06:21Z</time>
</trkpt>
<trkpt lat="48.933826396241784" lon="9.743631351739168">
<ele>462</ele>
<time>2024-05-07T11:06:22Z</time>
</trkpt>
<trkpt lat="48.933826396241784" lon="9.743633195757866">
<ele>462</ele>
<time>2024-05-07T11:06:25Z</time>
</trkpt>
<trkpt lat="48.933826396241784" lon="9.743635123595595">
<ele>462</ele>
<time>2024-05-07T11:06:26Z</time>
</trkpt>
<trkpt lat="48.933826396241784" lon="9.743637051433325">
<ele>462</ele>
<time>2024-05-07T11:06:27Z</time>
</trkpt>
<trkpt lat="48.933826396241784" lon="9.743639901280403">
<ele>462</ele>
<time>2024-05-07T11:06:28Z</time>
</trkpt>
<trkpt lat="48.933826396241784" lon="9.743641829118133">
<ele>462</ele>
<time>2024-05-07T11:06:30Z</time>
</trkpt>
<trkpt lat="48.933826396241784" lon="9.743643756955862">
<ele>462</ele>
<time>2024-05-07T11:06:32Z</time>
</trkpt>
<trkpt lat="48.933826396241784" lon="9.743644678965213">
<ele>462</ele>
<time>2024-05-07T11:06:36Z</time>
</trkpt>
<trkpt lat="48.93382262438536" lon="9.743644678965213">
<ele>462</ele>
<time>2024-05-07T11:06:38Z</time>
</trkpt>
<trkpt lat="48.93382262438536" lon="9.743643756955862">
<ele>462</ele>
<time>2024-05-07T11:06:40Z</time>
</trkpt>
<trkpt lat="48.93382262438536" lon="9.74364660680294">
<ele>462</ele>
<time>2024-05-07T11:06:41Z</time>
</trkpt>
<trkpt lat="48.93382262438536" lon="9.743648450821638">
<ele>462</ele>
<time>2024-05-07T11:06:44Z</time>
</trkpt>
<trkpt lat="48.93382262438536" lon="9.743650378659368">
<ele>462</ele>
<time>2024-05-07T11:06:45Z</time>
</trkpt>
<trkpt lat="48.93382262438536" lon="9.743651384487748">
<ele>462</ele>
<time>2024-05-07T11:06:47Z</time>
</trkpt>
<trkpt lat="48.93382262438536" lon="9.743650378659368">
<ele>462</ele>
<time>2024-05-07T11:06:48Z</time>
</trkpt>
<trkpt lat="48.93382262438536" lon="9.743648450821638">
<ele>462</ele>
<time>2024-05-07T11:06:49Z</time>
</trkpt>
<trkpt lat="48.93382262438536" lon="9.743651384487748">
<ele>462</ele>
<time>2024-05-07T11:06:50Z</time>
</trkpt>
<trkpt lat="48.93382262438536" lon="9.743650378659368">
<ele>462</ele>
<time>2024-05-07T11:06:51Z</time>
</trkpt>
<trkpt lat="48.93382262438536" lon="9.743648450821638">
<ele>462</ele>
<time>2024-05-07T11:06:52Z</time>
</trkpt>
<trkpt lat="48.93382262438536" lon="9.743650378659368">
<ele>462</ele>
<time>2024-05-07T11:06:53Z</time>
</trkpt>
<trkpt lat="48.93382262438536" lon="9.743655156344175">
<ele>462</ele>
<time>2024-05-07T11:06:56Z</time>
</trkpt>
<trkpt lat="48.93382262438536" lon="9.743653228506446">
<ele>462</ele>
<time>2024-05-07T11:06:57Z</time>
</trkpt>
<trkpt lat="48.93382262438536" lon="9.743655156344175">
<ele>462</ele>
<time>2024-05-07T11:06:58Z</time>
</trkpt>
<trkpt lat="48.93382262438536" lon="9.743657084181905">
<ele>462</ele>
<time>2024-05-07T11:07:02Z</time>
</trkpt>
<trkpt lat="48.933826396241784" lon="9.743657084181905">
<ele>462</ele>
<time>2024-05-07T11:07:05Z</time>
</trkpt>
<trkpt lat="48.933826396241784" lon="9.743653228506446">
<ele>462</ele>
<time>2024-05-07T11:07:06Z</time>
</trkpt>
<trkpt lat="48.933826396241784" lon="9.743651384487748">
<ele>462</ele>
<time>2024-05-07T11:07:07Z</time>
</trkpt>
<trkpt lat="48.933826396241784" lon="9.743650378659368">
<ele>462</ele>
<time>2024-05-07T11:07:10Z</time>
</trkpt>
<trkpt lat="48.933826396241784" lon="9.743651384487748">
<ele>462</ele>
<time>2024-05-07T11:07:11Z</time>
</trkpt>
<trkpt lat="48.93383025191724" lon="9.743653228506446">
<ele>462</ele>
<time>2024-05-07T11:07:13Z</time>
</trkpt>
<trkpt lat="48.93383025191724" lon="9.743655156344175">
<ele>462</ele>
<time>2024-05-07T11:07:14Z</time>
</trkpt>
<trkpt lat="48.933826396241784" lon="9.743655156344175">
<ele>462</ele>
<time>2024-05-07T11:07:15Z</time>
</trkpt>
<trkpt lat="48.93383025191724" lon="9.743655156344175">
<ele>462</ele>
<time>2024-05-07T11:07:17Z</time>
</trkpt>
<trkpt lat="48.93383025191724" lon="9.743653228506446">
<ele>462</ele>
<time>2024-05-07T11:07:19Z</time>
</trkpt>
<trkpt lat="48.93383025191724" lon="9.743651384487748">
<ele>462</ele>
<time>2024-05-07T11:07:22Z</time>
</trkpt>
<trkpt lat="48.93383025191724" lon="9.743653228506446">
<ele>462</ele>
<time>2024-05-07T11:07:23Z</time>
</trkpt>
<trkpt lat="48.93383025191724" lon="9.743651384487748">
<ele>462</ele>
<time>2024-05-07T11:07:24Z</time>
</trkpt>
<trkpt lat="48.93383025191724" lon="9.743650378659368">
<ele>462</ele>
<time>2024-05-07T11:07:25Z</time>
</trkpt>
<trkpt lat="48.93383025191724" lon="9.743651384487748">
<ele>462</ele>
<time>2024-05-07T11:07:27Z</time>
</trkpt>
<trkpt lat="48.93383025191724" lon="9.743650378659368">
<ele>462</ele>
<time>2024-05-07T11:07:28Z</time>
</trkpt>
<trkpt lat="48.93383025191724" lon="9.743648450821638">
<ele>462</ele>
<time>2024-05-07T11:07:30Z</time>
</trkpt>
<trkpt lat="48.93383025191724" lon="9.74364660680294">
<ele>462</ele>
<time>2024-05-07T11:07:33Z</time>
</trkpt>
<trkpt lat="48.93383025191724" lon="9.743644678965213">
<ele>462</ele>
<time>2024-05-07T11:07:37Z</time>
</trkpt>
<trkpt lat="48.93383025191724" lon="9.74364660680294">
<ele>462</ele>
<time>2024-05-07T11:07:38Z</time>
</trkpt>
<trkpt lat="48.93383025191724" lon="9.743644678965213">
<ele>462</ele>
<time>2024-05-07T11:07:40Z</time>
</trkpt>
<trkpt lat="48.93383025191724" lon="9.743643756955862">
<ele>462</ele>
<time>2024-05-07T11:07:42Z</time>
</trkpt>
<trkpt lat="48.93383025191724" lon="9.743641829118133">
<ele>462</ele>
<time>2024-05-07T11:07:43Z</time>
</trkpt>
<trkpt lat="48.93383025191724" lon="9.743639901280403">
<ele>462</ele>
<time>2024-05-07T11:07:48Z</time>
</trkpt>
<trkpt lat="48.93383025191724" lon="9.743641829118133">
<ele>462</ele>
<time>2024-05-07T11:07:53Z</time>
</trkpt>
<trkpt lat="48.933826396241784" lon="9.743639901280403">
<ele>462</ele>
<time>2024-05-07T11:07:54Z</time>
</trkpt>
<trkpt lat="48.933826396241784" lon="9.743637973442674">
<ele>462</ele>
<time>2024-05-07T11:07:57Z</time>
</trkpt>
<trkpt lat="48.933826396241784" lon="9.743639901280403">
<ele>462</ele>
<time>2024-05-07T11:07:59Z</time>
</trkpt>
<trkpt lat="48.933826396241784" lon="9.743635123595595">
<ele>462</ele>
<time>2024-05-07T11:08:00Z</time>
</trkpt>
<trkpt lat="48.933826396241784" lon="9.743633195757866">
<ele>462</ele>
<time>2024-05-07T11:08:03Z</time>
</trkpt>
<trkpt lat="48.93383025191724" lon="9.743635123595595">
<ele>462</ele>
<time>2024-05-07T11:08:05Z</time>
</trkpt>
<trkpt lat="48.933826396241784" lon="9.743631351739168">
<ele>462</ele>
<time>2024-05-07T11:08:06Z</time>
</trkpt>
<trkpt lat="48.933826396241784" lon="9.743630345910788">
<ele>462</ele>
<time>2024-05-07T11:08:08Z</time>
</trkpt>
<trkpt lat="48.933826396241784" lon="9.743631351739168">
<ele>462</ele>
<time>2024-05-07T11:08:09Z</time>
</trkpt>
<trkpt lat="48.933826396241784" lon="9.743630345910788">
<ele>462</ele>
<time>2024-05-07T11:08:13Z</time>
</trkpt>
<trkpt lat="48.933826396241784" lon="9.74362850189209">
<ele>462</ele>
<time>2024-05-07T11:08:15Z</time>
</trkpt>
<trkpt lat="48.933826396241784" lon="9.74362657405436">
<ele>462</ele>
<time>2024-05-07T11:08:16Z</time>
</trkpt>
<trkpt lat="48.933826396241784" lon="9.74362850189209">
<ele>462</ele>
<time>2024-05-07T11:08:17Z</time>
</trkpt>
<trkpt lat="48.933826396241784" lon="9.74362657405436">
<ele>462</ele>
<time>2024-05-07T11:08:19Z</time>
</trkpt>
<trkpt lat="48.93382262438536" lon="9.74362657405436">
<ele>462</ele>
<time>2024-05-07T11:08:24Z</time>
</trkpt>
<trkpt lat="48.93382262438536" lon="9.74362850189209">
<ele>462</ele>
<time>2024-05-07T11:08:30Z</time>
</trkpt>
<trkpt lat="48.93382262438536" lon="9.74362657405436">
<ele>462</ele>
<time>2024-05-07T11:08:33Z</time>
</trkpt>
<trkpt lat="48.93382262438536" lon="9.743624646216633">
<ele>462</ele>
<time>2024-05-07T11:08:35Z</time>
</trkpt>
<trkpt lat="48.93382262438536" lon="9.74362657405436">
<ele>462</ele>
<time>2024-05-07T11:08:38Z</time>
</trkpt>
<trkpt lat="48.933826396241784" lon="9.743624646216633">
<ele>462</ele>
<time>2024-05-07T11:08:40Z</time>
</trkpt>
<trkpt lat="48.933826396241784" lon="9.74362657405436">
<ele>462</ele>
<time>2024-05-07T11:08:41Z</time>
</trkpt>
<trkpt lat="48.933826396241784" lon="9.74362850189209">
<ele>462</ele>
<time>2024-05-07T11:08:42Z</time>
</trkpt>
<trkpt lat="48.933826396241784" lon="9.74362657405436">
<ele>462</ele>
<time>2024-05-07T11:08:43Z</time>
</trkpt>
<trkpt lat="48.933826396241784" lon="9.74362850189209">
<ele>462</ele>
<time>2024-05-07T11:08:47Z</time>
</trkpt>
<trkpt lat="48.93382262438536" lon="9.74362850189209">
<ele>462</ele>
<time>2024-05-07T11:08:48Z</time>
</trkpt>
<trkpt lat="48.93382262438536" lon="9.74362657405436">
<ele>462</ele>
<time>2024-05-07T11:08:53Z</time>
</trkpt>
<trkpt lat="48.93382262438536" lon="9.74362850189209">
<ele>462</ele>
<time>2024-05-07T11:08:54Z</time>
</trkpt>
<trkpt lat="48.9338187687099" lon="9.74362850189209">
<ele>462</ele>
<time>2024-05-07T11:08:55Z</time>
</trkpt>
<trkpt lat="48.9338187687099" lon="9.743630345910788">
<ele>462</ele>
<time>2024-05-07T11:08:57Z</time>
</trkpt>
<trkpt lat="48.93381499685347" lon="9.743630345910788">
<ele>462</ele>
<time>2024-05-07T11:09:04Z</time>
</trkpt>
<trkpt lat="48.9338187687099" lon="9.743630345910788">
<ele>462</ele>
<time>2024-05-07T11:09:05Z</time>
</trkpt>
<trkpt lat="48.93381499685347" lon="9.743630345910788">
<ele>462</ele>
<time>2024-05-07T11:09:06Z</time>
</trkpt>
<trkpt lat="48.93381499685347" lon="9.74362850189209">
<ele>462</ele>
<time>2024-05-07T11:09:09Z</time>
</trkpt>
<trkpt lat="48.93381499685347" lon="9.74362657405436">
<ele>462</ele>
<time>2024-05-07T11:09:22Z</time>
</trkpt>
<trkpt lat="48.93381499685347" lon="9.74362850189209">
<ele>462</ele>
<time>2024-05-07T11:09:26Z</time>
</trkpt>
<trkpt lat="48.93381499685347" lon="9.743630345910788">
<ele>462</ele>
<time>2024-05-07T11:09:32Z</time>
</trkpt>
<trkpt lat="48.93381499685347" lon="9.743631351739168">
<ele>462</ele>
<time>2024-05-07T11:09:36Z</time>
</trkpt>
<trkpt lat="48.93381114117801" lon="9.743631351739168">
<ele>462</ele>
<time>2024-05-07T11:09:37Z</time>
</trkpt>
<trkpt lat="48.93381114117801" lon="9.743633195757866">
<ele>462</ele>
<time>2024-05-07T11:09:40Z</time>
</trkpt>
<trkpt lat="48.933807369321585" lon="9.743635123595595">
<ele>462</ele>
<time>2024-05-07T11:09:43Z</time>
</trkpt>
<trkpt lat="48.93381114117801" lon="9.743637051433325">
<ele>462</ele>
<time>2024-05-07T11:09:48Z</time>
</trkpt>
<trkpt lat="48.93381114117801" lon="9.743637973442674">
<ele>462</ele>
<time>2024-05-07T11:09:53Z</time>
</trkpt>
<trkpt lat="48.93381114117801" lon="9.743637051433325">
<ele>462</ele>
<time>2024-05-07T11:09:57Z</time>
</trkpt>
<trkpt lat="48.93381499685347" lon="9.743633195757866">
<ele>462</ele>
<time>2024-05-07T11:09:58Z</time>
</trkpt>
<trkpt lat="48.93381499685347" lon="9.743635123595595">
<ele>462</ele>
<time>2024-05-07T11:09:59Z</time>
</trkpt>
<trkpt lat="48.93381499685347" lon="9.743631351739168">
<ele>462</ele>
<time>2024-05-07T11:10:03Z</time>
</trkpt>
<trkpt lat="48.93381499685347" lon="9.74362850189209">
<ele>462</ele>
<time>2024-05-07T11:10:04Z</time>
</trkpt>
<trkpt lat="48.93381499685347" lon="9.743630345910788">
<ele>462</ele>
<time>2024-05-07T11:10:05Z</time>
</trkpt>
<trkpt lat="48.93381499685347" lon="9.74362850189209">
<ele>462</ele>
<time>2024-05-07T11:10:06Z</time>
</trkpt>
<trkpt lat="48.93381499685347" lon="9.743630345910788">
<ele>462</ele>
<time>2024-05-07T11:10:07Z</time>
</trkpt>
<trkpt lat="48.9338187687099" lon="9.74362850189209">
<ele>462</ele>
<time>2024-05-07T11:10:09Z</time>
</trkpt>
<trkpt lat="48.9338187687099" lon="9.74362657405436">
<ele>462</ele>
<time>2024-05-07T11:10:10Z</time>
</trkpt>
<trkpt lat="48.9338187687099" lon="9.74362850189209">
<ele>462</ele>
<time>2024-05-07T11:10:11Z</time>
</trkpt>
<trkpt lat="48.9338187687099" lon="9.743630345910788">
<ele>462</ele>
<time>2024-05-07T11:10:13Z</time>
</trkpt>
<trkpt lat="48.9338187687099" lon="9.74362850189209">
<ele>462</ele>
<time>2024-05-07T11:10:14Z</time>
</trkpt>
<trkpt lat="48.9338187687099" lon="9.74362657405436">
<ele>462</ele>
<time>2024-05-07T11:10:16Z</time>
</trkpt>
<trkpt lat="48.93382262438536" lon="9.74362850189209">
<ele>462</ele>
<time>2024-05-07T11:10:20Z</time>
</trkpt>
<trkpt lat="48.93382262438536" lon="9.74362657405436">
<ele>462</ele>
<time>2024-05-07T11:10:21Z</time>
</trkpt>
<trkpt lat="48.93382262438536" lon="9.74362850189209">
<ele>462</ele>
<time>2024-05-07T11:10:26Z</time>
</trkpt>
<trkpt lat="48.93382262438536" lon="9.74362657405436">
<ele>462</ele>
<time>2024-05-07T11:10:28Z</time>
</trkpt>
<trkpt lat="48.93382262438536" lon="9.743624646216633">
<ele>462</ele>
<time>2024-05-07T11:10:30Z</time>
</trkpt>
<trkpt lat="48.93382262438536" lon="9.743619868531823">
<ele>462</ele>
<time>2024-05-07T11:10:31Z</time>
</trkpt>
<trkpt lat="48.93382262438536" lon="9.743617940694094">
<ele>462</ele>
<time>2024-05-07T11:10:32Z</time>
</trkpt>
<trkpt lat="48.93382262438536" lon="9.743617018684745">
<ele>462</ele>
<time>2024-05-07T11:10:34Z</time>
</trkpt>
<trkpt lat="48.9338187687099" lon="9.743617018684745">
<ele>462</ele>
<time>2024-05-07T11:10:37Z</time>
</trkpt>
<trkpt lat="48.93382262438536" lon="9.743615090847015">
<ele>462</ele>
<time>2024-05-07T11:10:38Z</time>
</trkpt>
<trkpt lat="48.93382262438536" lon="9.743613163009286">
<ele>462</ele>
<time>2024-05-07T11:10:39Z</time>
</trkpt>
<trkpt lat="48.93382262438536" lon="9.743611318990588">
<ele>462</ele>
<time>2024-05-07T11:10:41Z</time>
</trkpt>
<trkpt lat="48.93382262438536" lon="9.743613163009286">
<ele>462</ele>
<time>2024-05-07T11:10:48Z</time>
</trkpt>
<trkpt lat="48.93382262438536" lon="9.743611318990588">
<ele>462</ele>
<time>2024-05-07T11:10:50Z</time>
</trkpt>
<trkpt lat="48.93382262438536" lon="9.743613163009286">
<ele>462</ele>
<time>2024-05-07T11:10:51Z</time>
</trkpt>
<trkpt lat="48.93382262438536" lon="9.743615090847015">
<ele>462</ele>
<time>2024-05-07T11:11:00Z</time>
</trkpt>
<trkpt lat="48.93382262438536" lon="9.743613163009286">
<ele>462</ele>
<time>2024-05-07T11:11:08Z</time>
</trkpt>
<trkpt lat="48.9338187687099" lon="9.743613163009286">
<ele>462</ele>
<time>2024-05-07T11:11:09Z</time>
</trkpt>
<trkpt lat="48.9338187687099" lon="9.743611318990588">
<ele>462</ele>
<time>2024-05-07T11:11:12Z</time>
</trkpt>
<trkpt lat="48.93382262438536" lon="9.743610313162208">
<ele>462</ele>
<time>2024-05-07T11:11:16Z</time>
</trkpt>
<trkpt lat="48.93382262438536" lon="9.74360846914351">
<ele>462</ele>
<time>2024-05-07T11:11:19Z</time>
</trkpt>
<trkpt lat="48.9338187687099" lon="9.74360846914351">
<ele>462</ele>
<time>2024-05-07T11:11:21Z</time>
</trkpt>
<trkpt lat="48.9338187687099" lon="9.74360654130578">
<ele>462</ele>
<time>2024-05-07T11:11:23Z</time>
</trkpt>
<trkpt lat="48.9338187687099" lon="9.74360846914351">
<ele>462</ele>
<time>2024-05-07T11:11:27Z</time>
</trkpt>
<trkpt lat="48.93382262438536" lon="9.74360846914351">
<ele>462</ele>
<time>2024-05-07T11:11:28Z</time>
</trkpt>
<trkpt lat="48.93382262438536" lon="9.743610313162208">
<ele>462</ele>
<time>2024-05-07T11:11:30Z</time>
</trkpt>
<trkpt lat="48.93382262438536" lon="9.743611318990588">
<ele>462</ele>
<time>2024-05-07T11:11:33Z</time>
</trkpt>
<trkpt lat="48.93382262438536" lon="9.743613163009286">
<ele>462</ele>
<time>2024-05-07T11:11:36Z</time>
</trkpt>
<trkpt lat="48.9338187687099" lon="9.743613163009286">
<ele>462</ele>
<time>2024-05-07T11:11:41Z</time>
</trkpt>
<trkpt lat="48.9338187687099" lon="9.743615090847015">
<ele>462</ele>
<time>2024-05-07T11:11:48Z</time>
</trkpt>
<trkpt lat="48.9338187687099" lon="9.743613163009286">
<ele>462</ele>
<time>2024-05-07T11:11:50Z</time>
</trkpt>
<trkpt lat="48.93382262438536" lon="9.743611318990588">
<ele>462</ele>
<time>2024-05-07T11:11:55Z</time>
</trkpt>
<trkpt lat="48.933826396241784" lon="9.743613163009286">
<ele>462</ele>
<time>2024-05-07T11:11:56Z</time>
</trkpt>
<trkpt lat="48.93382262438536" lon="9.743615090847015">
<ele>462</ele>
<time>2024-05-07T11:11:57Z</time>
</trkpt>
<trkpt lat="48.9338187687099" lon="9.743615090847015">
<ele>462</ele>
<time>2024-05-07T11:11:59Z</time>
</trkpt>
<trkpt lat="48.9338187687099" lon="9.743613163009286">
<ele>462</ele>
<time>2024-05-07T11:12:07Z</time>
</trkpt>
<trkpt lat="48.9338187687099" lon="9.743611318990588">
<ele>462</ele>
<time>2024-05-07T11:12:10Z</time>
</trkpt>
<trkpt lat="48.9338187687099" lon="9.743610313162208">
<ele>462</ele>
<time>2024-05-07T11:12:11Z</time>
</trkpt>
<trkpt lat="48.9338187687099" lon="9.74360846914351">
<ele>462</ele>
<time>2024-05-07T11:12:12Z</time>
</trkpt>
<trkpt lat="48.9338187687099" lon="9.74360654130578">
<ele>462</ele>
<time>2024-05-07T11:12:13Z</time>
</trkpt>
<trkpt lat="48.9338187687099" lon="9.743604613468053">
<ele>462</ele>
<time>2024-05-07T11:12:14Z</time>
</trkpt>
<trkpt lat="48.9338187687099" lon="9.743599835783243">
<ele>462</ele>
<time>2024-05-07T11:12:15Z</time>
</trkpt>
<trkpt lat="48.93382262438536" lon="9.743596985936165">
<ele>462</ele>
<time>2024-05-07T11:12:16Z</time>
</trkpt>
<trkpt lat="48.933826396241784" lon="9.743591286242008">
<ele>462</ele>
<time>2024-05-07T11:12:17Z</time>
</trkpt>
<trkpt lat="48.93383025191724" lon="9.7435865085572">
<ele>462</ele>
<time>2024-05-07T11:12:18Z</time>
</trkpt>
<trkpt lat="48.93383402377367" lon="9.743583658710122">
<ele>462</ele>
<time>2024-05-07T11:12:19Z</time>
</trkpt>
<trkpt lat="48.93383787944913" lon="9.743577875196934">
<ele>462</ele>
<time>2024-05-07T11:12:20Z</time>
</trkpt>
<trkpt lat="48.933845506981015" lon="9.743575025349855">
<ele>462</ele>
<time>2024-05-07T11:12:21Z</time>
</trkpt>
<trkpt lat="48.9338531345129" lon="9.743571253493428">
<ele>462</ele>
<time>2024-05-07T11:12:22Z</time>
</trkpt>
<trkpt lat="48.93385690636933" lon="9.74356647580862">
<ele>462</ele>
<time>2024-05-07T11:12:23Z</time>
</trkpt>
<trkpt lat="48.93386076204479" lon="9.743563625961542">
<ele>462</ele>
<time>2024-05-07T11:12:24Z</time>
</trkpt>
<trkpt lat="48.93386076204479" lon="9.743561698123813">
<ele>462</ele>
<time>2024-05-07T11:12:25Z</time>
</trkpt>
<trkpt lat="48.933864533901215" lon="9.743561698123813">
<ele>462</ele>
<time>2024-05-07T11:12:26Z</time>
</trkpt>
<trkpt lat="48.933864533901215" lon="9.743563625961542">
<ele>462</ele>
<time>2024-05-07T11:12:29Z</time>
</trkpt>
<trkpt lat="48.933864533901215" lon="9.743561698123813">
<ele>462</ele>
<time>2024-05-07T11:12:30Z</time>
</trkpt>
<trkpt lat="48.933864533901215" lon="9.743563625961542">
<ele>462</ele>
<time>2024-05-07T11:12:33Z</time>
</trkpt>
<trkpt lat="48.933864533901215" lon="9.743561698123813">
<ele>462</ele>
<time>2024-05-07T11:12:34Z</time>
</trkpt>
<trkpt lat="48.93386838957667" lon="9.743559770286083">
<ele>462</ele>
<time>2024-05-07T11:12:35Z</time>
</trkpt>
<trkpt lat="48.9338721614331" lon="9.743557926267384">
<ele>462</ele>
<time>2024-05-07T11:12:36Z</time>
</trkpt>
<trkpt lat="48.93387601710856" lon="9.743556920439003">
<ele>462</ele>
<time>2024-05-07T11:12:37Z</time>
</trkpt>
<trkpt lat="48.93387978896499" lon="9.743553148582578">
<ele>462</ele>
<time>2024-05-07T11:12:38Z</time>
</trkpt>
<trkpt lat="48.93388741649687" lon="9.743551220744848">
<ele>462</ele>
<time>2024-05-07T11:12:39Z</time>
</trkpt>
<trkpt lat="48.93388741649687" lon="9.743553148582578">
<ele>462</ele>
<time>2024-05-07T11:12:40Z</time>
</trkpt>
<trkpt lat="48.93389127217233" lon="9.743553148582578">
<ele>462</ele>
<time>2024-05-07T11:12:43Z</time>
</trkpt>
<trkpt lat="48.93389889970422" lon="9.74354837089777">
<ele>462</ele>
<time>2024-05-07T11:12:44Z</time>
</trkpt>
<trkpt lat="48.933906527236104" lon="9.743544515222313">
<ele>462</ele>
<time>2024-05-07T11:12:45Z</time>
</trkpt>
<trkpt lat="48.93391415476799" lon="9.743539737537503">
<ele>462</ele>
<time>2024-05-07T11:12:46Z</time>
</trkpt>
<trkpt lat="48.93391792662442" lon="9.743537893518806">
<ele>462</ele>
<time>2024-05-07T11:12:47Z</time>
</trkpt>
<trkpt lat="48.93392178229987" lon="9.743534959852695">
<ele>462</ele>
<time>2024-05-07T11:12:48Z</time>
</trkpt>
<trkpt lat="48.93392940983176" lon="9.743531187996268">
<ele>462</ele>
<time>2024-05-07T11:12:49Z</time>
</trkpt>
<trkpt lat="48.93393318168819" lon="9.74352833814919">
<ele>462</ele>
<time>2024-05-07T11:12:50Z</time>
</trkpt>
<trkpt lat="48.93393703736365" lon="9.743523560464382">
<ele>462</ele>
<time>2024-05-07T11:12:51Z</time>
</trkpt>
<trkpt lat="48.93394080922008" lon="9.743521632626653">
<ele>462</ele>
<time>2024-05-07T11:12:52Z</time>
</trkpt>
<trkpt lat="48.933944664895535" lon="9.743518782779574">
<ele>462</ele>
<time>2024-05-07T11:12:53Z</time>
</trkpt>
<trkpt lat="48.933944664895535" lon="9.743516854941843">
<ele>462</ele>
<time>2024-05-07T11:12:55Z</time>
</trkpt>
<trkpt lat="48.933944664895535" lon="9.743518782779574">
<ele>462</ele>
<time>2024-05-07T11:12:56Z</time>
</trkpt>
<trkpt lat="48.933944664895535" lon="9.743516854941843">
<ele>462</ele>
<time>2024-05-07T11:12:57Z</time>
</trkpt>
<trkpt lat="48.933944664895535" lon="9.743515010923147">
<ele>462</ele>
<time>2024-05-07T11:12:58Z</time>
</trkpt>
<trkpt lat="48.933944664895535" lon="9.743513083085418">
<ele>462</ele>
<time>2024-05-07T11:12:59Z</time>
</trkpt>
<trkpt lat="48.933944664895535" lon="9.743511155247688">
<ele>462</ele>
<time>2024-05-07T11:13:00Z</time>
</trkpt>
<trkpt lat="48.933944664895535" lon="9.74351023323834">
<ele>462</ele>
<time>2024-05-07T11:13:01Z</time>
</trkpt>
<trkpt lat="48.93394843675196" lon="9.74350637756288">
<ele>462</ele>
<time>2024-05-07T11:13:02Z</time>
</trkpt>
<trkpt lat="48.93394843675196" lon="9.743503527715802">
<ele>462</ele>
<time>2024-05-07T11:13:03Z</time>
</trkpt>
<trkpt lat="48.93395606428385" lon="9.743501599878073">
<ele>462</ele>
<time>2024-05-07T11:13:04Z</time>
</trkpt>
<trkpt lat="48.933963775634766" lon="9.743499755859377">
<ele>462</ele>
<time>2024-05-07T11:13:05Z</time>
</trkpt>
<trkpt lat="48.933982802554965" lon="9.743481567129493">
<ele>462</ele>
<time>2024-05-07T11:13:06Z</time>
</trkpt>
<trkpt lat="48.93400191329419" lon="9.743472095578907">
<ele>462</ele>
<time>2024-05-07T11:13:07Z</time>
</trkpt>
<trkpt lat="48.934024795889854" lon="9.743465390056372">
<ele>462</ele>
<time>2024-05-07T11:13:08Z</time>
</trkpt>
<trkpt lat="48.93404767848551" lon="9.743452984839678">
<ele>462</ele>
<time>2024-05-07T11:13:09Z</time>
</trkpt>
<trkpt lat="48.9340743329376" lon="9.743441501632333">
<ele>462</ele>
<time>2024-05-07T11:13:10Z</time>
</trkpt>
<trkpt lat="48.93410484306514" lon="9.743432030081747">
<ele>462</ele>
<time>2024-05-07T11:13:11Z</time>
</trkpt>
<trkpt lat="48.93413158133626" lon="9.743425324559212">
<ele>462</ele>
<time>2024-05-07T11:13:12Z</time>
</trkpt>
<trkpt lat="48.93416209146381" lon="9.743419624865057">
<ele>462</ele>
<time>2024-05-07T11:13:13Z</time>
</trkpt>
<trkpt lat="48.93419645726681" lon="9.743418619036674">
<ele>462</ele>
<time>2024-05-07T11:13:14Z</time>
</trkpt>
<trkpt lat="48.93422696739435" lon="9.743411997333167">
<ele>462</ele>
<time>2024-05-07T11:13:15Z</time>
</trkpt>
<trkpt lat="48.93426510505378" lon="9.743403363972902">
<ele>462</ele>
<time>2024-05-07T11:13:16Z</time>
</trkpt>
<trkpt lat="48.934299387037754" lon="9.74339003674686">
<ele>462</ele>
<time>2024-05-07T11:13:17Z</time>
</trkpt>
<trkpt lat="48.934337608516216" lon="9.743378637358546">
<ele>462</ele>
<time>2024-05-07T11:13:18Z</time>
</trkpt>
<trkpt lat="48.93437189050019" lon="9.743366232141852">
<ele>462</ele>
<time>2024-05-07T11:13:19Z</time>
</trkpt>
<trkpt lat="48.93441388383508" lon="9.7433499712497">
<ele>462</ele>
<time>2024-05-07T11:13:20Z</time>
</trkpt>
<trkpt lat="48.93445202149451" lon="9.743320383131504">
<ele>462</ele>
<time>2024-05-07T11:13:21Z</time>
</trkpt>
<trkpt lat="48.934497786685824" lon="9.743305128067732">
<ele>462</ele>
<time>2024-05-07T11:13:22Z</time>
</trkpt>
<trkpt lat="48.93454355187714" lon="9.743291800841687">
<ele>462</ele>
<time>2024-05-07T11:13:23Z</time>
</trkpt>
<trkpt lat="48.93458931706846" lon="9.743276545777915">
<ele>462</ele>
<time>2024-05-07T11:13:24Z</time>
</trkpt>
<trkpt lat="48.934635082259774" lon="9.743260368704796">
<ele>462</ele>
<time>2024-05-07T11:13:25Z</time>
</trkpt>
<trkpt lat="48.934677075594664" lon="9.743238408118486">
<ele>462</ele>
<time>2024-05-07T11:13:26Z</time>
</trkpt>
<trkpt lat="48.93472669646144" lon="9.743223153054714">
<ele>462</ele>
<time>2024-05-07T11:13:27Z</time>
</trkpt>
<trkpt lat="48.93477246165275" lon="9.74321166984737">
<ele>462</ele>
<time>2024-05-07T11:13:28Z</time>
</trkpt>
<trkpt lat="48.93481822684407" lon="9.7431945707649">
<ele>462</ele>
<time>2024-05-07T11:13:29Z</time>
</trkpt>
<trkpt lat="48.93486784771085" lon="9.743185015395284">
<ele>462</ele>
<time>2024-05-07T11:13:30Z</time>
</trkpt>
<trkpt lat="48.93492124043405" lon="9.743176382035015">
<ele>461.8</ele>
<time>2024-05-07T11:13:31Z</time>
</trkpt>
<trkpt lat="48.934970777481794" lon="9.743164982646704">
<ele>461.8</ele>
<time>2024-05-07T11:13:32Z</time>
</trkpt>
<trkpt lat="48.93501662649214" lon="9.74315349943936">
<ele>461.8</ele>
<time>2024-05-07T11:13:33Z</time>
</trkpt>
<trkpt lat="48.93506239168346" lon="9.743140172213316">
<ele>461.8</ele>
<time>2024-05-07T11:13:34Z</time>
</trkpt>
<trkpt lat="48.93510430119932" lon="9.743128772825004">
<ele>461.8</ele>
<time>2024-05-07T11:13:35Z</time>
</trkpt>
<trkpt lat="48.935150066390634" lon="9.7431115899235">
<ele>462</ele>
<time>2024-05-07T11:13:36Z</time>
</trkpt>
<trkpt lat="48.93519968725741" lon="9.743100106716156">
<ele>462</ele>
<time>2024-05-07T11:13:37Z</time>
</trkpt>
<trkpt lat="48.935245452448726" lon="9.743095329031348">
<ele>462</ele>
<time>2024-05-07T11:13:38Z</time>
</trkpt>
<trkpt lat="48.9352950733155" lon="9.743095329031348">
<ele>462.2</ele>
<time>2024-05-07T11:13:39Z</time>
</trkpt>
<trkpt lat="48.93534469418228" lon="9.743095329031348">
<ele>462.2</ele>
<time>2024-05-07T11:13:40Z</time>
</trkpt>
<trkpt lat="48.935386603698134" lon="9.743096334859729">
<ele>462.2</ele>
<time>2024-05-07T11:13:41Z</time>
</trkpt>
<trkpt lat="48.935428597033024" lon="9.743100106716156">
<ele>462.2</ele>
<time>2024-05-07T11:13:42Z</time>
</trkpt>
<trkpt lat="48.93547050654888" lon="9.743102956563234">
<ele>462.2</ele>
<time>2024-05-07T11:13:43Z</time>
</trkpt>
<trkpt lat="48.935504872351885" lon="9.743106812238691">
<ele>462.4</ele>
<time>2024-05-07T11:13:44Z</time>
</trkpt>
<trkpt lat="48.93553923815489" lon="9.7431115899235">
<ele>462.4</ele>
<time>2024-05-07T11:13:45Z</time>
</trkpt>
<trkpt lat="48.93557737581432" lon="9.743109662085772">
<ele>462.4</ele>
<time>2024-05-07T11:13:46Z</time>
</trkpt>
<trkpt lat="48.93561551347375" lon="9.743106812238691">
<ele>462.6</ele>
<time>2024-05-07T11:13:47Z</time>
</trkpt>
<trkpt lat="48.93565742298961" lon="9.743106812238691">
<ele>462.6</ele>
<time>2024-05-07T11:13:48Z</time>
</trkpt>
<trkpt lat="48.935699416324496" lon="9.743108740076424">
<ele>462.8</ele>
<time>2024-05-07T11:13:49Z</time>
</trkpt>
<trkpt lat="48.935741409659386" lon="9.743109662085772">
<ele>463</ele>
<time>2024-05-07T11:13:50Z</time>
</trkpt>
<trkpt lat="48.935779547318816" lon="9.74311351776123">
<ele>463.2</ele>
<time>2024-05-07T11:13:51Z</time>
</trkpt>
<trkpt lat="48.935821456834674" lon="9.743118211627008">
<ele>463.4</ele>
<time>2024-05-07T11:13:52Z</time>
</trkpt>
<trkpt lat="48.93586345016956" lon="9.743122067302464">
<ele>463.6</ele>
<time>2024-05-07T11:13:53Z</time>
</trkpt>
<trkpt lat="48.935901587828994" lon="9.743122989311814">
<ele>463.8</ele>
<time>2024-05-07T11:13:54Z</time>
</trkpt>
<trkpt lat="48.93594358116388" lon="9.743122989311814">
<ele>464</ele>
<time>2024-05-07T11:13:55Z</time>
</trkpt>
<trkpt lat="48.935981718823314" lon="9.743122067302464">
<ele>464.2</ele>
<time>2024-05-07T11:13:56Z</time>
</trkpt>
<trkpt lat="48.9360237121582" lon="9.743122989311814">
<ele>464.4</ele>
<time>2024-05-07T11:13:57Z</time>
</trkpt>
<trkpt lat="48.936061849817634" lon="9.743122067302464">
<ele>464.6</ele>
<time>2024-05-07T11:13:58Z</time>
</trkpt>
<trkpt lat="48.936099987477064" lon="9.743116367608309">
<ele>464.8</ele>
<time>2024-05-07T11:13:59Z</time>
</trkpt>
<trkpt lat="48.93613426946104" lon="9.743109662085772">
<ele>465.2</ele>
<time>2024-05-07T11:14:00Z</time>
</trkpt>
<trkpt lat="48.93616863526404" lon="9.7431115899235">
<ele>465.4</ele>
<time>2024-05-07T11:14:01Z</time>
</trkpt>
<trkpt lat="48.93620677292347" lon="9.743116367608309">
<ele>465.8</ele>
<time>2024-05-07T11:14:02Z</time>
</trkpt>
<trkpt lat="48.9362449105829" lon="9.743124917149544">
<ele>466</ele>
<time>2024-05-07T11:14:03Z</time>
</trkpt>
<trkpt lat="48.93628304824233" lon="9.743136400356889">
<ele>466.2</ele>
<time>2024-05-07T11:14:04Z</time>
</trkpt>
<trkpt lat="48.93632118590176" lon="9.743144949898124">
<ele>466.6</ele>
<time>2024-05-07T11:14:05Z</time>
</trkpt>
<trkpt lat="48.93635555170477" lon="9.743146877735851">
<ele>466.8</ele>
<time>2024-05-07T11:14:06Z</time>
</trkpt>
<trkpt lat="48.936393689364195" lon="9.743149727582932">
<ele>467</ele>
<time>2024-05-07T11:14:07Z</time>
</trkpt>
<trkpt lat="48.936431827023625" lon="9.74315450526774">
<ele>467.2</ele>
<time>2024-05-07T11:14:08Z</time>
</trkpt>
<trkpt lat="48.936469964683056" lon="9.743158277124166">
<ele>467.4</ele>
<time>2024-05-07T11:14:09Z</time>
</trkpt>
<trkpt lat="48.936508102342486" lon="9.743160204961896">
<ele>467.8</ele>
<time>2024-05-07T11:14:10Z</time>
</trkpt>
<trkpt lat="48.93654632382095" lon="9.743163054808974">
<ele>468</ele>
<time>2024-05-07T11:14:11Z</time>
</trkpt>
<trkpt lat="48.93658060580492" lon="9.743167832493782">
<ele>468.2</ele>
<time>2024-05-07T11:14:12Z</time>
</trkpt>
<trkpt lat="48.93661874346435" lon="9.743175460025668">
<ele>468.4</ele>
<time>2024-05-07T11:14:13Z</time>
</trkpt>
<trkpt lat="48.936653109267354" lon="9.743180237710476">
<ele>468.8</ele>
<time>2024-05-07T11:14:14Z</time>
</trkpt>
<trkpt lat="48.936691246926785" lon="9.743183087557554">
<ele>469</ele>
<time>2024-05-07T11:14:15Z</time>
</trkpt>
<trkpt lat="48.93672561272979" lon="9.743186943233011">
<ele>469.4</ele>
<time>2024-05-07T11:14:16Z</time>
</trkpt>
<trkpt lat="48.93675989471376" lon="9.743186943233011">
<ele>469.6</ele>
<time>2024-05-07T11:14:17Z</time>
</trkpt>
<trkpt lat="48.93679803237319" lon="9.74319163709879">
<ele>469.8</ele>
<time>2024-05-07T11:14:18Z</time>
</trkpt>
<trkpt lat="48.93683617003262" lon="9.743196414783595">
<ele>470</ele>
<time>2024-05-07T11:14:19Z</time>
</trkpt>
<trkpt lat="48.93687430769205" lon="9.743201192468405">
<ele>470.2</ele>
<time>2024-05-07T11:14:20Z</time>
</trkpt>
<trkpt lat="48.93691252917051" lon="9.743200270459056">
<ele>470.4</ele>
<time>2024-05-07T11:14:21Z</time>
</trkpt>
<trkpt lat="48.936950666829944" lon="9.743200270459056">
<ele>470.6</ele>
<time>2024-05-07T11:14:22Z</time>
</trkpt>
<trkpt lat="48.936984948813915" lon="9.743205048143864">
<ele>470.8</ele>
<time>2024-05-07T11:14:23Z</time>
</trkpt>
<trkpt lat="48.937023086473346" lon="9.743209825828671">
<ele>471</ele>
<time>2024-05-07T11:14:24Z</time>
</trkpt>
<trkpt lat="48.93706130795181" lon="9.74321166984737">
<ele>471.2</ele>
<time>2024-05-07T11:14:25Z</time>
</trkpt>
<trkpt lat="48.93709944561124" lon="9.7432135976851">
<ele>471.4</ele>
<time>2024-05-07T11:14:26Z</time>
</trkpt>
<trkpt lat="48.93713372759521" lon="9.743218375369906">
<ele>471.4</ele>
<time>2024-05-07T11:14:27Z</time>
</trkpt>
<trkpt lat="48.93717186525464" lon="9.743223153054714">
<ele>471.6</ele>
<time>2024-05-07T11:14:28Z</time>
</trkpt>
<trkpt lat="48.93721000291407" lon="9.743225080892444">
<ele>471.6</ele>
<time>2024-05-07T11:14:29Z</time>
</trkpt>
<trkpt lat="48.93724822439253" lon="9.743225080892444">
<ele>471.6</ele>
<time>2024-05-07T11:14:30Z</time>
</trkpt>
<trkpt lat="48.93728636205197" lon="9.743234552443027">
<ele>471.8</ele>
<time>2024-05-07T11:14:31Z</time>
</trkpt>
<trkpt lat="48.93731687217951" lon="9.743254585191607">
<ele>472</ele>
<time>2024-05-07T11:14:32Z</time>
</trkpt>
<trkpt lat="48.93735115416348" lon="9.743274617940187">
<ele>472.2</ele>
<time>2024-05-07T11:14:33Z</time>
</trkpt>
<trkpt lat="48.937381664291024" lon="9.74328987300396">
<ele>472.4</ele>
<time>2024-05-07T11:14:34Z</time>
</trkpt>
<trkpt lat="48.93741603009403" lon="9.743294650688767">
<ele>472.6</ele>
<time>2024-05-07T11:14:35Z</time>
</trkpt>
<trkpt lat="48.937442768365145" lon="9.74328702315688">
<ele>472.8</ele>
<time>2024-05-07T11:14:36Z</time>
</trkpt>
<trkpt lat="48.93746942281723" lon="9.74327176809311">
<ele>473</ele>
<time>2024-05-07T11:14:37Z</time>
</trkpt>
<trkpt lat="48.93748853355646" lon="9.743241257965565">
<ele>473.2</ele>
<time>2024-05-07T11:14:38Z</time>
</trkpt>
<trkpt lat="48.93750378862023" lon="9.743203120306134">
<ele>473.4</ele>
<time>2024-05-07T11:14:39Z</time>
</trkpt>
<trkpt lat="48.93751518800855" lon="9.743158277124166">
<ele>473.4</ele>
<time>2024-05-07T11:14:40Z</time>
</trkpt>
<trkpt lat="48.93751518800855" lon="9.7431115899235">
<ele>473.6</ele>
<time>2024-05-07T11:14:41Z</time>
</trkpt>
<trkpt lat="48.93751141615212" lon="9.743061969056726">
<ele>473.6</ele>
<time>2024-05-07T11:14:42Z</time>
</trkpt>
<trkpt lat="48.93749616108835" lon="9.743021903559566">
<ele>473.6</ele>
<time>2024-05-07T11:14:43Z</time>
</trkpt>
<trkpt lat="48.93747327849269" lon="9.742986615747212">
<ele>473.6</ele>
<time>2024-05-07T11:14:44Z</time>
</trkpt>
<trkpt lat="48.93745416775346" lon="9.74295325577259">
<ele>473.6</ele>
<time>2024-05-07T11:14:45Z</time>
</trkpt>
<trkpt lat="48.937442768365145" lon="9.742917967960238">
<ele>473.6</ele>
<time>2024-05-07T11:14:46Z</time>
</trkpt>
<trkpt lat="48.9374312851578" lon="9.742879830300808">
<ele>473.6</ele>
<time>2024-05-07T11:14:47Z</time>
</trkpt>
<trkpt lat="48.937423657625914" lon="9.742844542488456">
<ele>473.6</ele>
<time>2024-05-07T11:14:48Z</time>
</trkpt>
<trkpt lat="48.9374312851578" lon="9.742811182513831">
<ele>473.6</ele>
<time>2024-05-07T11:14:49Z</time>
</trkpt>
<trkpt lat="48.93744654022157" lon="9.742793077602984">
<ele>473.6</ele>
<time>2024-05-07T11:14:50Z</time>
</trkpt>
<trkpt lat="48.93745802342892" lon="9.742792071774602">
<ele>473.6</ele>
<time>2024-05-07T11:14:51Z</time>
</trkpt>
<trkpt lat="48.93746942281723" lon="9.742801627144216">
<ele>473.6</ele>
<time>2024-05-07T11:14:52Z</time>
</trkpt>
<trkpt lat="48.937480906024575" lon="9.742828365415336">
<ele>473.6</ele>
<time>2024-05-07T11:14:53Z</time>
</trkpt>
<trkpt lat="48.93749616108835" lon="9.74285501986742">
<ele>473.6</ele>
<time>2024-05-07T11:14:54Z</time>
</trkpt>
<trkpt lat="48.93751141615212" lon="9.742888379842045">
<ele>473.6</ele>
<time>2024-05-07T11:14:55Z</time>
</trkpt>
<trkpt lat="48.93752667121589" lon="9.742921823635696">
<ele>473.6</ele>
<time>2024-05-07T11:14:56Z</time>
</trkpt>
<trkpt lat="48.93754569813609" lon="9.74295325577259">
<ele>473.6</ele>
<time>2024-05-07T11:14:57Z</time>
</trkpt>
<trkpt lat="48.93756095319986" lon="9.742988543584945">
<ele>473.6</ele>
<time>2024-05-07T11:14:58Z</time>
</trkpt>
<trkpt lat="48.93758391961455" lon="9.743018131703138">
<ele>473.6</ele>
<time>2024-05-07T11:14:59Z</time>
</trkpt>
<trkpt lat="48.9376144297421" lon="9.74303145892918">
<ele>473.6</ele>
<time>2024-05-07T11:15:00Z</time>
</trkpt>
<trkpt lat="48.93764493986964" lon="9.743036236613989">
<ele>473.4</ele>
<time>2024-05-07T11:15:01Z</time>
</trkpt>
<trkpt lat="48.93768307752907" lon="9.743036236613989">
<ele>473.4</ele>
<time>2024-05-07T11:15:02Z</time>
</trkpt>
<trkpt lat="48.9377212151885" lon="9.743029531091452">
<ele>473.4</ele>
<time>2024-05-07T11:15:03Z</time>
</trkpt>
<trkpt lat="48.93776320852339" lon="9.743016203865407">
<ele>473.4</ele>
<time>2024-05-07T11:15:04Z</time>
</trkpt>
<trkpt lat="48.93780134618282" lon="9.743001870810986">
<ele>473.4</ele>
<time>2024-05-07T11:15:05Z</time>
</trkpt>
<trkpt lat="48.937839483842254" lon="9.742984771728516">
<ele>473.4</ele>
<time>2024-05-07T11:15:06Z</time>
</trkpt>
<trkpt lat="48.93787762150168" lon="9.742964738979936">
<ele>473.4</ele>
<time>2024-05-07T11:15:07Z</time>
</trkpt>
<trkpt lat="48.937919614836574" lon="9.742948478087785">
<ele>473.4</ele>
<time>2024-05-07T11:15:08Z</time>
</trkpt>
<trkpt lat="48.93796152435243" lon="9.74293515086174">
<ele>473.4</ele>
<time>2024-05-07T11:15:09Z</time>
</trkpt>
<trkpt lat="48.93800351768732" lon="9.742926517501472">
<ele>473.4</ele>
<time>2024-05-07T11:15:10Z</time>
</trkpt>
<trkpt lat="48.93804928287864" lon="9.742917967960238">
<ele>473.4</ele>
<time>2024-05-07T11:15:11Z</time>
</trkpt>
<trkpt lat="48.938095048069954" lon="9.742908412590625">
<ele>473.4</ele>
<time>2024-05-07T11:15:12Z</time>
</trkpt>
<trkpt lat="48.93813704140484" lon="9.742899863049388">
<ele>473.4</ele>
<time>2024-05-07T11:15:13Z</time>
</trkpt>
<trkpt lat="48.9381789509207" lon="9.74289122968912">
<ele>473.4</ele>
<time>2024-05-07T11:15:14Z</time>
</trkpt>
<trkpt lat="48.93821708858013" lon="9.742879830300808">
<ele>473.4</ele>
<time>2024-05-07T11:15:15Z</time>
</trkpt>
<trkpt lat="48.938255310058594" lon="9.742864575237036">
<ele>473.4</ele>
<time>2024-05-07T11:15:16Z</time>
</trkpt>
<trkpt lat="48.938293447718024" lon="9.742850242182612">
<ele>473.4</ele>
<time>2024-05-07T11:15:17Z</time>
</trkpt>
<trkpt lat="48.938327729702" lon="9.742830209434032">
<ele>473.4</ele>
<time>2024-05-07T11:15:18Z</time>
</trkpt>
<trkpt lat="48.93835823982954" lon="9.742803554981949">
<ele>473.4</ele>
<time>2024-05-07T11:15:19Z</time>
</trkpt>
<trkpt lat="48.93838497810066" lon="9.742772039026022">
<ele>473.2</ele>
<time>2024-05-07T11:15:20Z</time>
</trkpt>
<trkpt lat="48.93841163255274" lon="9.742752006277442">
<ele>473.2</ele>
<time>2024-05-07T11:15:21Z</time>
</trkpt>
<trkpt lat="48.93843837082386" lon="9.7427386790514">
<ele>473.2</ele>
<time>2024-05-07T11:15:22Z</time>
</trkpt>
<trkpt lat="48.93846510909498" lon="9.742730129510164">
<ele>473.2</ele>
<time>2024-05-07T11:15:23Z</time>
</trkpt>
<trkpt lat="48.93849176354706" lon="9.742721496149898">
<ele>473</ele>
<time>2024-05-07T11:15:24Z</time>
</trkpt>
<trkpt lat="48.93851464614272" lon="9.742712946608664">
<ele>473</ele>
<time>2024-05-07T11:15:25Z</time>
</trkpt>
<trkpt lat="48.93853752873838" lon="9.742703391239049">
<ele>472.8</ele>
<time>2024-05-07T11:15:26Z</time>
</trkpt>
<trkpt lat="48.93855663947761" lon="9.74269668571651">
<ele>472.8</ele>
<time>2024-05-07T11:15:27Z</time>
</trkpt>
<trkpt lat="48.93857189454138" lon="9.742686208337544">
<ele>472.8</ele>
<time>2024-05-07T11:15:28Z</time>
</trkpt>
<trkpt lat="48.93859092146158" lon="9.74267665296793">
<ele>472.8</ele>
<time>2024-05-07T11:15:29Z</time>
</trkpt>
<trkpt lat="48.93861003220081" lon="9.742661397904158">
<ele>472.8</ele>
<time>2024-05-07T11:15:30Z</time>
</trkpt>
<trkpt lat="48.938625287264585" lon="9.74264144897461">
<ele>472.8</ele>
<time>2024-05-07T11:15:31Z</time>
</trkpt>
<trkpt lat="48.93864054232836" lon="9.74261848255992">
<ele>472.8</ele>
<time>2024-05-07T11:15:32Z</time>
</trkpt>
<trkpt lat="48.938663424924016" lon="9.742598533630373">
<ele>472.6</ele>
<time>2024-05-07T11:15:33Z</time>
</trkpt>
<trkpt lat="48.938686307519674" lon="9.742591828107834">
<ele>472.6</ele>
<time>2024-05-07T11:15:34Z</time>
</trkpt>
<trkpt lat="48.93870919011533" lon="9.742600377649069">
<ele>472.6</ele>
<time>2024-05-07T11:15:35Z</time>
</trkpt>
<trkpt lat="48.93873970024288" lon="9.742612782865764">
<ele>472.6</ele>
<time>2024-05-07T11:15:36Z</time>
</trkpt>
<trkpt lat="48.93877029418945" lon="9.742611860856414">
<ele>472.6</ele>
<time>2024-05-07T11:15:37Z</time>
</trkpt>
<trkpt lat="48.938804576173425" lon="9.742612782865764">
<ele>472.6</ele>
<time>2024-05-07T11:15:38Z</time>
</trkpt>
<trkpt lat="48.938842713832855" lon="9.742612782865764">
<ele>472.6</ele>
<time>2024-05-07T11:15:39Z</time>
</trkpt>
<trkpt lat="48.938880851492286" lon="9.742611860856414">
<ele>472.6</ele>
<time>2024-05-07T11:15:40Z</time>
</trkpt>
<trkpt lat="48.938922844827175" lon="9.742607083171606">
<ele>472.6</ele>
<time>2024-05-07T11:15:41Z</time>
</trkpt>
<trkpt lat="48.938960982486606" lon="9.74260138347745">
<ele>472.6</ele>
<time>2024-05-07T11:15:42Z</time>
</trkpt>
<trkpt lat="48.93899912014603" lon="9.742598533630373">
<ele>472.6</ele>
<time>2024-05-07T11:15:43Z</time>
</trkpt>
<trkpt lat="48.939041113480926" lon="9.742591828107834">
<ele>472.6</ele>
<time>2024-05-07T11:15:44Z</time>
</trkpt>
<trkpt lat="48.93908302299678" lon="9.742580344900489">
<ele>472.4</ele>
<time>2024-05-07T11:15:45Z</time>
</trkpt>
<trkpt lat="48.93912501633167" lon="9.742567017674446">
<ele>472.4</ele>
<time>2024-05-07T11:15:46Z</time>
</trkpt>
<trkpt lat="48.9391631539911" lon="9.742551762610674">
<ele>472.4</ele>
<time>2024-05-07T11:15:47Z</time>
</trkpt>
<trkpt lat="48.93920891918242" lon="9.742534579709172">
<ele>472.4</ele>
<time>2024-05-07T11:15:48Z</time>
</trkpt>
<trkpt lat="48.939258540049195" lon="9.742514546960592">
<ele>472.4</ele>
<time>2024-05-07T11:15:49Z</time>
</trkpt>
<trkpt lat="48.93930816091597" lon="9.742498369887471">
<ele>472.4</ele>
<time>2024-05-07T11:15:50Z</time>
</trkpt>
<trkpt lat="48.93935392610729" lon="9.74248118698597">
<ele>472.4</ele>
<time>2024-05-07T11:15:51Z</time>
</trkpt>
<trkpt lat="48.93940346315503" lon="9.74246308207512">
<ele>472.4</ele>
<time>2024-05-07T11:15:52Z</time>
</trkpt>
<trkpt lat="48.93945308402181" lon="9.742446821182966">
<ele>472.4</ele>
<time>2024-05-07T11:15:53Z</time>
</trkpt>
<trkpt lat="48.93950647674501" lon="9.742426872253418">
<ele>472.4</ele>
<time>2024-05-07T11:15:54Z</time>
</trkpt>
<trkpt lat="48.939556097611785" lon="9.742408683523536">
<ele>472.4</ele>
<time>2024-05-07T11:15:55Z</time>
</trkpt>
<trkpt lat="48.93960949033499" lon="9.742386806756258">
<ele>472.6</ele>
<time>2024-05-07T11:15:56Z</time>
</trkpt>
<trkpt lat="48.93966288305819" lon="9.742368618026376">
<ele>472.6</ele>
<time>2024-05-07T11:15:57Z</time>
</trkpt>
<trkpt lat="48.93971627578139" lon="9.742351518943906">
<ele>472.6</ele>
<time>2024-05-07T11:15:58Z</time>
</trkpt>
<trkpt lat="48.93976966850459" lon="9.742333330214024">
<ele>472.8</ele>
<time>2024-05-07T11:15:59Z</time>
</trkpt>
<trkpt lat="48.93982691690326" lon="9.742315225303171">
<ele>472.8</ele>
<time>2024-05-07T11:16:00Z</time>
</trkpt>
<trkpt lat="48.93988030962646" lon="9.742296198382974">
<ele>472.8</ele>
<time>2024-05-07T11:16:01Z</time>
</trkpt>
<trkpt lat="48.93994132988155" lon="9.742278093472123">
<ele>472.8</ele>
<time>2024-05-07T11:16:02Z</time>
</trkpt>
<trkpt lat="48.93999857828021" lon="9.742258060723543">
<ele>472.8</ele>
<time>2024-05-07T11:16:03Z</time>
</trkpt>
<trkpt lat="48.9400595985353" lon="9.742238027974963">
<ele>473</ele>
<time>2024-05-07T11:16:04Z</time>
</trkpt>
<trkpt lat="48.94012061879039" lon="9.742217995226383">
<ele>472.8</ele>
<time>2024-05-07T11:16:05Z</time>
</trkpt>
<trkpt lat="48.94018172286451" lon="9.742195112630723">
<ele>472.8</ele>
<time>2024-05-07T11:16:06Z</time>
</trkpt>
<trkpt lat="48.9402427431196" lon="9.742177007719874">
<ele>472.8</ele>
<time>2024-05-07T11:16:07Z</time>
</trkpt>
<trkpt lat="48.940303763374686" lon="9.742156974971294">
<ele>472.8</ele>
<time>2024-05-07T11:16:08Z</time>
</trkpt>
<trkpt lat="48.94036101177335" lon="9.742135014384983">
<ele>472.8</ele>
<time>2024-05-07T11:16:09Z</time>
</trkpt>
<trkpt lat="48.94041817635298" lon="9.742116909474134">
<ele>472.8</ele>
<time>2024-05-07T11:16:10Z</time>
</trkpt>
<trkpt lat="48.94047542475164" lon="9.742096876725554">
<ele>472.6</ele>
<time>2024-05-07T11:16:11Z</time>
</trkpt>
<trkpt lat="48.94052881747484" lon="9.742081621661782">
<ele>472.6</ele>
<time>2024-05-07T11:16:12Z</time>
</trkpt>
<trkpt lat="48.940582210198045" lon="9.74206536076963">
<ele>472.6</ele>
<time>2024-05-07T11:16:13Z</time>
</trkpt>
<trkpt lat="48.94063183106482" lon="9.74204633384943">
<ele>472.6</ele>
<time>2024-05-07T11:16:14Z</time>
</trkpt>
<trkpt lat="48.9406814519316" lon="9.74202822893858">
<ele>472.6</ele>
<time>2024-05-07T11:16:15Z</time>
</trkpt>
<trkpt lat="48.94073098897934" lon="9.742011968046429">
<ele>472.6</ele>
<time>2024-05-07T11:16:16Z</time>
</trkpt>
<trkpt lat="48.940776754170656" lon="9.741992941126227">
<ele>472.8</ele>
<time>2024-05-07T11:16:17Z</time>
</trkpt>
<trkpt lat="48.94082637503743" lon="9.741978608071804">
<ele>472.8</ele>
<time>2024-05-07T11:16:18Z</time>
</trkpt>
<trkpt lat="48.94086836837232" lon="9.741963353008032">
<ele>473</ele>
<time>2024-05-07T11:16:19Z</time>
</trkpt>
<trkpt lat="48.94091413356364" lon="9.741950025781987">
<ele>473</ele>
<time>2024-05-07T11:16:20Z</time>
</trkpt>
<trkpt lat="48.940956043079495" lon="9.741938542574644">
<ele>473.2</ele>
<time>2024-05-07T11:16:21Z</time>
</trkpt>
<trkpt lat="48.9409904088825" lon="9.7419252153486">
<ele>473.4</ele>
<time>2024-05-07T11:16:22Z</time>
</trkpt>
<trkpt lat="48.94102854654193" lon="9.741914737969635">
<ele>473.6</ele>
<time>2024-05-07T11:16:23Z</time>
</trkpt>
<trkpt lat="48.94106668420136" lon="9.741903254762292">
<ele>473.8</ele>
<time>2024-05-07T11:16:24Z</time>
</trkpt>
<trkpt lat="48.94110482186079" lon="9.74188992753625">
<ele>474.2</ele>
<time>2024-05-07T11:16:25Z</time>
</trkpt>
<trkpt lat="48.941139187663794" lon="9.741876600310206">
<ele>474.4</ele>
<time>2024-05-07T11:16:26Z</time>
</trkpt>
<trkpt lat="48.941177325323224" lon="9.741861261427402">
<ele>474.6</ele>
<time>2024-05-07T11:16:27Z</time>
</trkpt>
<trkpt lat="48.94121169112623" lon="9.74184701219201">
<ele>474.8</ele>
<time>2024-05-07T11:16:28Z</time>
</trkpt>
<trkpt lat="48.94124982878566" lon="9.741833684965968">
<ele>475</ele>
<time>2024-05-07T11:16:29Z</time>
</trkpt>
<trkpt lat="48.94128796644509" lon="9.741818346083164">
<ele>475.4</ele>
<time>2024-05-07T11:16:30Z</time>
</trkpt>
<trkpt lat="48.94132610410452" lon="9.741801247000694">
<ele>475.6</ele>
<time>2024-05-07T11:16:31Z</time>
</trkpt>
<trkpt lat="48.94136046990752" lon="9.741786913946273">
<ele>476</ele>
<time>2024-05-07T11:16:32Z</time>
</trkpt>
<trkpt lat="48.94139860756695" lon="9.741776436567308">
<ele>476.2</ele>
<time>2024-05-07T11:16:33Z</time>
</trkpt>
<trkpt lat="48.94143674522638" lon="9.74176780320704">
<ele>476.6</ele>
<time>2024-05-07T11:16:34Z</time>
</trkpt>
<trkpt lat="48.941474882885814" lon="9.741756403818728">
<ele>476.8</ele>
<time>2024-05-07T11:16:35Z</time>
</trkpt>
<trkpt lat="48.94151302054525" lon="9.741743076592684">
<ele>477</ele>
<time>2024-05-07T11:16:36Z</time>
</trkpt>
<trkpt lat="48.94154738634825" lon="9.74173159338534">
<ele>477.2</ele>
<time>2024-05-07T11:16:37Z</time>
</trkpt>
<trkpt lat="48.94158552400768" lon="9.741722038015723">
<ele>477.4</ele>
<time>2024-05-07T11:16:38Z</time>
</trkpt>
<trkpt lat="48.94161980599165" lon="9.74170963279903">
<ele>477.8</ele>
<time>2024-05-07T11:16:39Z</time>
</trkpt>
<trkpt lat="48.94165794365108" lon="9.741700161248446">
<ele>478</ele>
<time>2024-05-07T11:16:40Z</time>
</trkpt>
<trkpt lat="48.94169230945408" lon="9.7416886780411">
<ele>478.2</ele>
<time>2024-05-07T11:16:41Z</time>
</trkpt>
<trkpt lat="48.94172667525709" lon="9.7416714951396">
<ele>478.4</ele>
<time>2024-05-07T11:16:42Z</time>
</trkpt>
<trkpt lat="48.94176481291652" lon="9.741658167913556">
<ele>478.6</ele>
<time>2024-05-07T11:16:43Z</time>
</trkpt>
<trkpt lat="48.94179909490049" lon="9.741644840687512">
<ele>478.8</ele>
<time>2024-05-07T11:16:44Z</time>
</trkpt>
<trkpt lat="48.94183346070349" lon="9.74163142964244">
<ele>479</ele>
<time>2024-05-07T11:16:45Z</time>
</trkpt>
<trkpt lat="48.94186397083104" lon="9.741618102416396">
<ele>479.2</ele>
<time>2024-05-07T11:16:46Z</time>
</trkpt>
<trkpt lat="48.94189833663404" lon="9.741604775190352">
<ele>479.4</ele>
<time>2024-05-07T11:16:47Z</time>
</trkpt>
<trkpt lat="48.94193647429347" lon="9.741593291983008">
<ele>479.6</ele>
<time>2024-05-07T11:16:48Z</time>
</trkpt>
<trkpt lat="48.94197075627744" lon="9.741579964756966">
<ele>479.8</ele>
<time>2024-05-07T11:16:49Z</time>
</trkpt>
<trkpt lat="48.942005122080445" lon="9.741563787683845">
<ele>480</ele>
<time>2024-05-07T11:16:50Z</time>
</trkpt>
<trkpt lat="48.94204325973987" lon="9.741546604782345">
<ele>480.2</ele>
<time>2024-05-07T11:16:51Z</time>
</trkpt>
<trkpt lat="48.94207762554288" lon="9.74153034389019">
<ele>480.2</ele>
<time>2024-05-07T11:16:52Z</time>
</trkpt>
<trkpt lat="48.94210813567042" lon="9.74151131696999">
<ele>480.4</ele>
<time>2024-05-07T11:16:53Z</time>
</trkpt>
<trkpt lat="48.942142417654395" lon="9.741495056077838">
<ele>480.4</ele>
<time>2024-05-07T11:16:54Z</time>
</trkpt>
<trkpt lat="48.9421767834574" lon="9.741477956995368">
<ele>480.6</ele>
<time>2024-05-07T11:16:55Z</time>
</trkpt>
<trkpt lat="48.9422111492604" lon="9.741461696103215">
<ele>480.6</ele>
<time>2024-05-07T11:16:56Z</time>
</trkpt>
<trkpt lat="48.94224543124437" lon="9.741441663354635">
<ele>480.8</ele>
<time>2024-05-07T11:16:57Z</time>
</trkpt>
<trkpt lat="48.94227979704738" lon="9.741421630606055">
<ele>481</ele>
<time>2024-05-07T11:16:58Z</time>
</trkpt>
<trkpt lat="48.94231407903135" lon="9.741399753838778">
<ele>481.2</ele>
<time>2024-05-07T11:16:59Z</time>
</trkpt>
<trkpt lat="48.94234844483435" lon="9.74137687124312">
<ele>481.2</ele>
<time>2024-05-07T11:17:00Z</time>
</trkpt>
<trkpt lat="48.942382810637355" lon="9.741358682513235">
<ele>481.4</ele>
<time>2024-05-07T11:17:01Z</time>
</trkpt>
<trkpt lat="48.942417092621326" lon="9.741341583430769">
<ele>481.6</ele>
<time>2024-05-07T11:17:02Z</time>
</trkpt>
<trkpt lat="48.94244760274887" lon="9.741325322538614">
<ele>481.8</ele>
<time>2024-05-07T11:17:03Z</time>
</trkpt>
<trkpt lat="48.942478112876415" lon="9.741308139637113">
<ele>482</ele>
<time>2024-05-07T11:17:04Z</time>
</trkpt>
<trkpt lat="48.94251247867942" lon="9.741290034726262">
<ele>482.2</ele>
<time>2024-05-07T11:17:05Z</time>
</trkpt>
<trkpt lat="48.94254684448242" lon="9.741270001977682">
<ele>482.2</ele>
<time>2024-05-07T11:17:06Z</time>
</trkpt>
<trkpt lat="48.942577354609966" lon="9.74125281907618">
<ele>482.4</ele>
<time>2024-05-07T11:17:07Z</time>
</trkpt>
<trkpt lat="48.94261163659394" lon="9.74123471416533">
<ele>482.4</ele>
<time>2024-05-07T11:17:08Z</time>
</trkpt>
<trkpt lat="48.94264214672148" lon="9.74121660925448">
<ele>482.6</ele>
<time>2024-05-07T11:17:09Z</time>
</trkpt>
<trkpt lat="48.942676512524486" lon="9.74119464866817">
<ele>482.8</ele>
<time>2024-05-07T11:17:10Z</time>
</trkpt>
<trkpt lat="48.94270702265203" lon="9.741178471595047">
<ele>483</ele>
<time>2024-05-07T11:17:11Z</time>
</trkpt>
<trkpt lat="48.94274138845503" lon="9.74115651100874">
<ele>483.2</ele>
<time>2024-05-07T11:17:12Z</time>
</trkpt>
<trkpt lat="48.942775670439005" lon="9.74113647826016">
<ele>483.6</ele>
<time>2024-05-07T11:17:13Z</time>
</trkpt>
<trkpt lat="48.94280618056655" lon="9.741121223196387">
<ele>483.8</ele>
<time>2024-05-07T11:17:14Z</time>
</trkpt>
<trkpt lat="48.942836690694094" lon="9.741106973960996">
<ele>484</ele>
<time>2024-05-07T11:17:15Z</time>
</trkpt>
<trkpt lat="48.9428710564971" lon="9.741089791059494">
<ele>484.4</ele>
<time>2024-05-07T11:17:16Z</time>
</trkpt>
<trkpt lat="48.94290156662464" lon="9.741069758310914">
<ele>484.6</ele>
<time>2024-05-07T11:17:17Z</time>
</trkpt>
<trkpt lat="48.94292830489576" lon="9.741051653400064">
<ele>484.8</ele>
<time>2024-05-07T11:17:18Z</time>
</trkpt>
<trkpt lat="48.94296258687973" lon="9.74103539250791">
<ele>485</ele>
<time>2024-05-07T11:17:19Z</time>
</trkpt>
<trkpt lat="48.942993097007275" lon="9.74101535975933">
<ele>485</ele>
<time>2024-05-07T11:17:20Z</time>
</trkpt>
<trkpt lat="48.94302746281028" lon="9.74099826067686">
<ele>485.2</ele>
<time>2024-05-07T11:17:21Z</time>
</trkpt>
<trkpt lat="48.94305797293782" lon="9.740983005613089">
<ele>485.4</ele>
<time>2024-05-07T11:17:22Z</time>
</trkpt>
<trkpt lat="48.943092338740826" lon="9.740966744720936">
<ele>485.6</ele>
<time>2024-05-07T11:17:23Z</time>
</trkpt>
<trkpt lat="48.94312284886837" lon="9.740948639810084">
<ele>485.8</ele>
<time>2024-05-07T11:17:24Z</time>
</trkpt>
<trkpt lat="48.943153358995914" lon="9.740929529070854">
<ele>486</ele>
<time>2024-05-07T11:17:25Z</time>
</trkpt>
<trkpt lat="48.943187640979886" lon="9.740909496322274">
<ele>486.2</ele>
<time>2024-05-07T11:17:26Z</time>
</trkpt>
<trkpt lat="48.94321815110743" lon="9.740890469402077">
<ele>486.4</ele>
<time>2024-05-07T11:17:27Z</time>
</trkpt>
<trkpt lat="48.94324874505401" lon="9.740873286500571">
<ele>486.8</ele>
<time>2024-05-07T11:17:28Z</time>
</trkpt>
<trkpt lat="48.94327925518155" lon="9.7408580314368">
<ele>487</ele>
<time>2024-05-07T11:17:29Z</time>
</trkpt>
<trkpt lat="48.94331353716552" lon="9.74084185436368">
<ele>487.2</ele>
<time>2024-05-07T11:17:30Z</time>
</trkpt>
<trkpt lat="48.94334027543664" lon="9.740824671462178">
<ele>487.4</ele>
<time>2024-05-07T11:17:31Z</time>
</trkpt>
<trkpt lat="48.94337455742061" lon="9.740804638713598">
<ele>487.6</ele>
<time>2024-05-07T11:17:32Z</time>
</trkpt>
<trkpt lat="48.94340515136719" lon="9.740786533802748">
<ele>487.6</ele>
<time>2024-05-07T11:17:33Z</time>
</trkpt>
<trkpt lat="48.94343180581927" lon="9.740770272910597">
<ele>487.8</ele>
<time>2024-05-07T11:17:34Z</time>
</trkpt>
<trkpt lat="48.94346231594682" lon="9.740755017846825">
<ele>488</ele>
<time>2024-05-07T11:17:35Z</time>
</trkpt>
<trkpt lat="48.94349282607436" lon="9.74073783494532">
<ele>488</ele>
<time>2024-05-07T11:17:36Z</time>
</trkpt>
<trkpt lat="48.94351956434548" lon="9.74072358570993">
<ele>488.2</ele>
<time>2024-05-07T11:17:37Z</time>
</trkpt>
<trkpt lat="48.94355007447302" lon="9.740710258483888">
<ele>488.4</ele>
<time>2024-05-07T11:17:38Z</time>
</trkpt>
<trkpt lat="48.94357681274414" lon="9.740694919601085">
<ele>488.6</ele>
<time>2024-05-07T11:17:39Z</time>
</trkpt>
<trkpt lat="48.943607322871685" lon="9.74068352021277">
<ele>488.6</ele>
<time>2024-05-07T11:17:40Z</time>
</trkpt>
<trkpt lat="48.94363397732377" lon="9.740666337311268">
<ele>488.6</ele>
<time>2024-05-07T11:17:41Z</time>
</trkpt>
<trkpt lat="48.943664487451315" lon="9.740650160238149">
<ele>488.6</ele>
<time>2024-05-07T11:17:42Z</time>
</trkpt>
<trkpt lat="48.94369499757886" lon="9.740630127489569">
<ele>488.6</ele>
<time>2024-05-07T11:17:43Z</time>
</trkpt>
<trkpt lat="48.94372173584998" lon="9.740608166903256">
<ele>488.6</ele>
<time>2024-05-07T11:17:44Z</time>
</trkpt>
<trkpt lat="48.94375224597752" lon="9.740581512451172">
<ele>488.4</ele>
<time>2024-05-07T11:17:45Z</time>
</trkpt>
<trkpt lat="48.94377898424864" lon="9.740556702017784">
<ele>488.6</ele>
<time>2024-05-07T11:17:46Z</time>
</trkpt>
<trkpt lat="48.94380563870072" lon="9.74052325822413">
<ele>488.6</ele>
<time>2024-05-07T11:17:47Z</time>
</trkpt>
<trkpt lat="48.94383614882827" lon="9.740487048402429">
<ele>488.6</ele>
<time>2024-05-07T11:17:48Z</time>
</trkpt>
<trkpt lat="48.94386665895581" lon="9.74044798873365">
<ele>488.6</ele>
<time>2024-05-07T11:17:49Z</time>
</trkpt>
<trkpt lat="48.94388954155147" lon="9.740411695092916">
<ele>488.6</ele>
<time>2024-05-07T11:17:50Z</time>
</trkpt>
<trkpt lat="48.94391627982259" lon="9.740373557433486">
<ele>488.6</ele>
<time>2024-05-07T11:17:51Z</time>
</trkpt>
<trkpt lat="48.943939162418246" lon="9.740336341783404">
<ele>488.6</ele>
<time>2024-05-07T11:17:52Z</time>
</trkpt>
<trkpt lat="48.943962045013905" lon="9.740302059799433">
<ele>488.6</ele>
<time>2024-05-07T11:17:53Z</time>
</trkpt>
<trkpt lat="48.94398492760956" lon="9.740271549671888">
<ele>488.8</ele>
<time>2024-05-07T11:17:54Z</time>
</trkpt>
<trkpt lat="48.944004038348794" lon="9.740240033715963">
<ele>488.8</ele>
<time>2024-05-07T11:17:55Z</time>
</trkpt>
<trkpt lat="48.94402306526899" lon="9.74020952358842">
<ele>489</ele>
<time>2024-05-07T11:17:56Z</time>
</trkpt>
<trkpt lat="48.944042176008224" lon="9.740178091451526">
<ele>489.2</ele>
<time>2024-05-07T11:17:57Z</time>
</trkpt>
<trkpt lat="48.944061202928424" lon="9.740143725648522">
<ele>489.4</ele>
<time>2024-05-07T11:17:58Z</time>
</trkpt>
<trkpt lat="48.944080313667655" lon="9.7401103656739">
<ele>489.6</ele>
<time>2024-05-07T11:17:59Z</time>
</trkpt>
<trkpt lat="48.94410319626331" lon="9.740075077861547">
<ele>489.8</ele>
<time>2024-05-07T11:18:00Z</time>
</trkpt>
<trkpt lat="48.94412607885897" lon="9.740037862211466">
<ele>490</ele>
<time>2024-05-07T11:18:01Z</time>
</trkpt>
<trkpt lat="48.94414896145463" lon="9.739997796714306">
<ele>490.2</ele>
<time>2024-05-07T11:18:02Z</time>
</trkpt>
<trkpt lat="48.94416807219386" lon="9.739956809207795">
<ele>490.4</ele>
<time>2024-05-07T11:18:03Z</time>
</trkpt>
<trkpt lat="48.94419095478952" lon="9.739916743710635">
<ele>490.6</ele>
<time>2024-05-07T11:18:04Z</time>
</trkpt>
<trkpt lat="48.94420998170972" lon="9.739881455898283">
<ele>490.8</ele>
<time>2024-05-07T11:18:05Z</time>
</trkpt>
<trkpt lat="48.94422909244895" lon="9.739850023761392">
<ele>490.8</ele>
<time>2024-05-07T11:18:06Z</time>
</trkpt>
<trkpt lat="48.94424434751272" lon="9.73981280811131">
<ele>491</ele>
<time>2024-05-07T11:18:07Z</time>
</trkpt>
<trkpt lat="48.944259602576494" lon="9.739780370146036">
<ele>491</ele>
<time>2024-05-07T11:18:08Z</time>
</trkpt>
<trkpt lat="48.944274857640266" lon="9.739747932180762">
<ele>491</ele>
<time>2024-05-07T11:18:09Z</time>
</trkpt>
<trkpt lat="48.9442939683795" lon="9.739720271900296">
<ele>491</ele>
<time>2024-05-07T11:18:10Z</time>
</trkpt>
<trkpt lat="48.94430922344327" lon="9.73969361744821">
<ele>491</ele>
<time>2024-05-07T11:18:11Z</time>
</trkpt>
<trkpt lat="48.94432825036347" lon="9.739666879177094">
<ele>491.2</ele>
<time>2024-05-07T11:18:12Z</time>
</trkpt>
<trkpt lat="48.9443473611027" lon="9.739643074572086">
<ele>491.2</ele>
<time>2024-05-07T11:18:13Z</time>
</trkpt>
<trkpt lat="48.944374015554786" lon="9.739623041823506">
<ele>491.2</ele>
<time>2024-05-07T11:18:14Z</time>
</trkpt>
<trkpt lat="48.94439689815045" lon="9.739600159227848">
<ele>491.2</ele>
<time>2024-05-07T11:18:15Z</time>
</trkpt>
<trkpt lat="48.9444197807461" lon="9.73957534879446">
<ele>491.2</ele>
<time>2024-05-07T11:18:16Z</time>
</trkpt>
<trkpt lat="48.94444274716079" lon="9.739549616351724">
<ele>491.2</ele>
<time>2024-05-07T11:18:17Z</time>
</trkpt>
<trkpt lat="48.94446177408099" lon="9.739526733756064">
<ele>491.2</ele>
<time>2024-05-07T11:18:18Z</time>
</trkpt>
<trkpt lat="48.94448465667665" lon="9.739501923322678">
<ele>491</ele>
<time>2024-05-07T11:18:19Z</time>
</trkpt>
<trkpt lat="48.94450376741588" lon="9.73947518505156">
<ele>491</ele>
<time>2024-05-07T11:18:20Z</time>
</trkpt>
<trkpt lat="48.94452665001154" lon="9.739444674924016">
<ele>491</ele>
<time>2024-05-07T11:18:21Z</time>
</trkpt>
<trkpt lat="48.944553304463625" lon="9.739411314949391">
<ele>491</ele>
<time>2024-05-07T11:18:22Z</time>
</trkpt>
<trkpt lat="48.94458004273474" lon="9.7393798828125">
<ele>491</ele>
<time>2024-05-07T11:18:23Z</time>
</trkpt>
<trkpt lat="48.94460678100586" lon="9.739343589171767">
<ele>491</ele>
<time>2024-05-07T11:18:24Z</time>
</trkpt>
<trkpt lat="48.94463729113341" lon="9.739305451512337">
<ele>491</ele>
<time>2024-05-07T11:18:25Z</time>
</trkpt>
<trkpt lat="48.94466780126095" lon="9.739268235862257">
<ele>491</ele>
<time>2024-05-07T11:18:26Z</time>
</trkpt>
<trkpt lat="48.94469831138849" lon="9.739232026040554">
<ele>491</ele>
<time>2024-05-07T11:18:27Z</time>
</trkpt>
<trkpt lat="48.94472882151604" lon="9.739191960543394">
<ele>491</ele>
<time>2024-05-07T11:18:28Z</time>
</trkpt>
<trkpt lat="48.94476310350001" lon="9.739151895046234">
<ele>491</ele>
<time>2024-05-07T11:18:29Z</time>
</trkpt>
<trkpt lat="48.944793697446585" lon="9.739111829549074">
<ele>491</ele>
<time>2024-05-07T11:18:30Z</time>
</trkpt>
<trkpt lat="48.94482797943056" lon="9.739073691889644">
<ele>490.8</ele>
<time>2024-05-07T11:18:31Z</time>
</trkpt>
<trkpt lat="48.94486611708999" lon="9.739033626392484">
<ele>490.8</ele>
<time>2024-05-07T11:18:32Z</time>
</trkpt>
<trkpt lat="48.94490425474942" lon="9.738993644714355">
<ele>490.8</ele>
<time>2024-05-07T11:18:33Z</time>
</trkpt>
<trkpt lat="48.94494624808431" lon="9.738953579217196">
<ele>490.8</ele>
<time>2024-05-07T11:18:34Z</time>
</trkpt>
<trkpt lat="48.9449882414192" lon="9.738908736035228">
<ele>491</ele>
<time>2024-05-07T11:18:35Z</time>
</trkpt>
<trkpt lat="48.945030150935054" lon="9.73886489868164">
<ele>491</ele>
<time>2024-05-07T11:18:36Z</time>
</trkpt>
<trkpt lat="48.94507977180183" lon="9.738820055499671">
<ele>491</ele>
<time>2024-05-07T11:18:37Z</time>
</trkpt>
<trkpt lat="48.945125536993146" lon="9.738773284479976">
<ele>491</ele>
<time>2024-05-07T11:18:38Z</time>
</trkpt>
<trkpt lat="48.94517515785992" lon="9.738730369135736">
<ele>491</ele>
<time>2024-05-07T11:18:39Z</time>
</trkpt>
<trkpt lat="48.945224694907665" lon="9.738690303638576">
<ele>491</ele>
<time>2024-05-07T11:18:40Z</time>
</trkpt>
<trkpt lat="48.94527431577444" lon="9.73864839412272">
<ele>491</ele>
<time>2024-05-07T11:18:41Z</time>
</trkpt>
<trkpt lat="48.945323936641216" lon="9.73860640078783">
<ele>490.8</ele>
<time>2024-05-07T11:18:42Z</time>
</trkpt>
<trkpt lat="48.94537732936442" lon="9.73856633529067">
<ele>490.8</ele>
<time>2024-05-07T11:18:43Z</time>
</trkpt>
<trkpt lat="48.94543449394405" lon="9.73852626979351">
<ele>490.6</ele>
<time>2024-05-07T11:18:44Z</time>
</trkpt>
<trkpt lat="48.94548797048628" lon="9.73848813213408">
<ele>490.6</ele>
<time>2024-05-07T11:18:45Z</time>
</trkpt>
<trkpt lat="48.945541363209486" lon="9.73845192231238">
<ele>490.4</ele>
<time>2024-05-07T11:18:46Z</time>
</trkpt>
<trkpt lat="48.94559852778912" lon="9.738420406356454">
<ele>490.2</ele>
<time>2024-05-07T11:18:47Z</time>
</trkpt>
<trkpt lat="48.94565200433135" lon="9.738385118544102">
<ele>490</ele>
<time>2024-05-07T11:18:48Z</time>
</trkpt>
<trkpt lat="48.94571302458644" lon="9.738347986713052">
<ele>489.6</ele>
<time>2024-05-07T11:18:49Z</time>
</trkpt>
<trkpt lat="48.94577404484153" lon="9.738314626738427">
<ele>489.2</ele>
<time>2024-05-07T11:18:50Z</time>
</trkpt>
<trkpt lat="48.94583506509662" lon="9.738285038620234">
<ele>488.8</ele>
<time>2024-05-07T11:18:51Z</time>
</trkpt>
<trkpt lat="48.94589231349528" lon="9.738244973123074">
<ele>488.4</ele>
<time>2024-05-07T11:18:52Z</time>
</trkpt>
<trkpt lat="48.94594947807491" lon="9.73820968531072">
<ele>488</ele>
<time>2024-05-07T11:18:53Z</time>
</trkpt>
<trkpt lat="48.94600672647357" lon="9.738178253173828">
<ele>487.6</ele>
<time>2024-05-07T11:18:54Z</time>
</trkpt>
<trkpt lat="48.94607160240412" lon="9.738148665055633">
<ele>487.2</ele>
<time>2024-05-07T11:18:55Z</time>
</trkpt>
<trkpt lat="48.946136394515634" lon="9.738121926784515">
<ele>486.8</ele>
<time>2024-05-07T11:18:56Z</time>
</trkpt>
<trkpt lat="48.94620512612164" lon="9.738098122179508">
<ele>486.4</ele>
<time>2024-05-07T11:18:57Z</time>
</trkpt>
<trkpt lat="48.946273773908615" lon="9.738077083602548">
<ele>485.8</ele>
<time>2024-05-07T11:18:58Z</time>
</trkpt>
<trkpt lat="48.94634627737105" lon="9.738050429150462">
<ele>485.4</ele>
<time>2024-05-07T11:18:59Z</time>
</trkpt>
<trkpt lat="48.94641869701445" lon="9.738023690879343">
<ele>484.8</ele>
<time>2024-05-07T11:19:00Z</time>
</trkpt>
<trkpt lat="48.94650268368423" lon="9.73799703642726">
<ele>484.4</ele>
<time>2024-05-07T11:19:01Z</time>
</trkpt>
<trkpt lat="48.94658273085952" lon="9.73797314800322">
<ele>484</ele>
<time>2024-05-07T11:19:02Z</time>
</trkpt>
<trkpt lat="48.94667048938573" lon="9.737944565713406">
<ele>483.6</ele>
<time>2024-05-07T11:19:03Z</time>
</trkpt>
<trkpt lat="48.94676201976836" lon="9.73791304975748">
<ele>483.2</ele>
<time>2024-05-07T11:19:04Z</time>
</trkpt>
<trkpt lat="48.946846006438136" lon="9.737893100827932">
<ele>483</ele>
<time>2024-05-07T11:19:05Z</time>
</trkpt>
<trkpt lat="48.94693753682077" lon="9.737861584872007">
<ele>482.6</ele>
<time>2024-05-07T11:19:06Z</time>
</trkpt>
<trkpt lat="48.947025295346975" lon="9.737828224897385">
<ele>482.2</ele>
<time>2024-05-07T11:19:07Z</time>
</trkpt>
<trkpt lat="48.94710919819772" lon="9.737801486626267">
<ele>481.8</ele>
<time>2024-05-07T11:19:08Z</time>
</trkpt>
<trkpt lat="48.94719310104847" lon="9.73777860403061">
<ele>481.4</ele>
<time>2024-05-07T11:19:09Z</time>
</trkpt>
<trkpt lat="48.94727700389922" lon="9.737756727263331">
<ele>481</ele>
<time>2024-05-07T11:19:10Z</time>
</trkpt>
<trkpt lat="48.94736476242542" lon="9.737734766677022">
<ele>480.6</ele>
<time>2024-05-07T11:19:11Z</time>
</trkpt>
<trkpt lat="48.94744489341974" lon="9.737709956243634">
<ele>480</ele>
<time>2024-05-07T11:19:12Z</time>
</trkpt>
<trkpt lat="48.94752502441406" lon="9.737687073647976">
<ele>479.6</ele>
<time>2024-05-07T11:19:13Z</time>
</trkpt>
<trkpt lat="48.947597444057465" lon="9.737667962908745">
<ele>479.2</ele>
<time>2024-05-07T11:19:14Z</time>
</trkpt>
<trkpt lat="48.9476699475199" lon="9.737649857997894">
<ele>478.6</ele>
<time>2024-05-07T11:19:15Z</time>
</trkpt>
<trkpt lat="48.94774245098233" lon="9.737611720338464">
<ele>478</ele>
<time>2024-05-07T11:19:16Z</time>
</trkpt>
<trkpt lat="48.947814870625734" lon="9.737574504688382">
<ele>477.6</ele>
<time>2024-05-07T11:19:17Z</time>
</trkpt>
<trkpt lat="48.94789122976363" lon="9.737535445019605">
<ele>477</ele>
<time>2024-05-07T11:19:18Z</time>
</trkpt>
<trkpt lat="48.9479598775506" lon="9.737496301531792">
<ele>476.4</ele>
<time>2024-05-07T11:19:19Z</time>
</trkpt>
<trkpt lat="48.94802089780569" lon="9.737448692321776">
<ele>475.8</ele>
<time>2024-05-07T11:19:20Z</time>
</trkpt>
<trkpt lat="48.94808577373624" lon="9.73739999346435">
<ele>475.2</ele>
<time>2024-05-07T11:19:21Z</time>
</trkpt>
<trkpt lat="48.948150565847754" lon="9.737348528578876">
<ele>474.6</ele>
<time>2024-05-07T11:19:22Z</time>
</trkpt>
<trkpt lat="48.94821929745376" lon="9.737296979874372">
<ele>474</ele>
<time>2024-05-07T11:19:23Z</time>
</trkpt>
<trkpt lat="48.94829171709716" lon="9.73724459297955">
<ele>473.6</ele>
<time>2024-05-07T11:19:24Z</time>
</trkpt>
<trkpt lat="48.94835659302771" lon="9.737192122265697">
<ele>473</ele>
<time>2024-05-07T11:19:25Z</time>
</trkpt>
<trkpt lat="48.9484176132828" lon="9.737141579389572">
<ele>472.6</ele>
<time>2024-05-07T11:19:26Z</time>
</trkpt>
<trkpt lat="48.94847863353789" lon="9.737092964351175">
<ele>472</ele>
<time>2024-05-07T11:19:27Z</time>
</trkpt>
<trkpt lat="48.94853965379298" lon="9.73704619333148">
<ele>471.6</ele>
<time>2024-05-07T11:19:28Z</time>
</trkpt>
<trkpt lat="48.94859690219164" lon="9.737005205824971">
<ele>471.2</ele>
<time>2024-05-07T11:19:29Z</time>
</trkpt>
<trkpt lat="48.94865029491484" lon="9.73696706816554">
<ele>470.6</ele>
<time>2024-05-07T11:19:30Z</time>
</trkpt>
<trkpt lat="48.94869991578162" lon="9.736940329894423">
<ele>470.2</ele>
<time>2024-05-07T11:19:31Z</time>
</trkpt>
<trkpt lat="48.94874190911651" lon="9.736921302974224">
<ele>469.8</ele>
<time>2024-05-07T11:19:32Z</time>
</trkpt>
<trkpt lat="48.94878004677594" lon="9.7369069699198">
<ele>469.2</ele>
<time>2024-05-07T11:19:33Z</time>
</trkpt>
<trkpt lat="48.94881818443537" lon="9.736896492540836">
<ele>468.8</ele>
<time>2024-05-07T11:19:34Z</time>
</trkpt>
<trkpt lat="48.94884869456291" lon="9.736891714856029">
<ele>468.4</ele>
<time>2024-05-07T11:19:35Z</time>
</trkpt>
<trkpt lat="48.948879204690456" lon="9.7368897870183">
<ele>468</ele>
<time>2024-05-07T11:19:36Z</time>
</trkpt>
<trkpt lat="48.948909714818" lon="9.7368897870183">
<ele>467.6</ele>
<time>2024-05-07T11:19:37Z</time>
</trkpt>
<trkpt lat="48.94893259741366" lon="9.7368897870183">
<ele>467.4</ele>
<time>2024-05-07T11:19:38Z</time>
</trkpt>
<trkpt lat="48.948959335684776" lon="9.736894564703109">
<ele>467.2</ele>
<time>2024-05-07T11:19:39Z</time>
</trkpt>
<trkpt lat="48.94898984581232" lon="9.736901270225644">
<ele>467</ele>
<time>2024-05-07T11:19:40Z</time>
</trkpt>
<trkpt lat="48.94902798347175" lon="9.73690789192915">
<ele>466.6</ele>
<time>2024-05-07T11:19:41Z</time>
</trkpt>
<trkpt lat="48.94906997680664" lon="9.736914597451689">
<ele>466.4</ele>
<time>2024-05-07T11:19:42Z</time>
</trkpt>
<trkpt lat="48.94910811446607" lon="9.736920297145844">
<ele>466.2</ele>
<time>2024-05-07T11:19:43Z</time>
</trkpt>
<trkpt lat="48.94915002398193" lon="9.736925074830651">
<ele>466</ele>
<time>2024-05-07T11:19:44Z</time>
</trkpt>
<trkpt lat="48.949195789173245" lon="9.73692985251546">
<ele>465.8</ele>
<time>2024-05-07T11:19:45Z</time>
</trkpt>
<trkpt lat="48.949241638183594" lon="9.736934630200269">
<ele>465.8</ele>
<time>2024-05-07T11:19:46Z</time>
</trkpt>
<trkpt lat="48.94928740337491" lon="9.736943179741502">
<ele>465.8</ele>
<time>2024-05-07T11:19:47Z</time>
</trkpt>
<trkpt lat="48.94933316856623" lon="9.73694988526404">
<ele>465.6</ele>
<time>2024-05-07T11:19:48Z</time>
</trkpt>
<trkpt lat="48.94938270561397" lon="9.736954662948849">
<ele>465.4</ele>
<time>2024-05-07T11:19:49Z</time>
</trkpt>
<trkpt lat="48.949432326480746" lon="9.736961284652352">
<ele>465.4</ele>
<time>2024-05-07T11:19:50Z</time>
</trkpt>
<trkpt lat="48.94948194734752" lon="9.73696799017489">
<ele>465.2</ele>
<time>2024-05-07T11:19:51Z</time>
</trkpt>
<trkpt lat="48.94952771253884" lon="9.736971845850348">
<ele>465.2</ele>
<time>2024-05-07T11:19:52Z</time>
</trkpt>
<trkpt lat="48.94957724958658" lon="9.736974695697429">
<ele>465</ele>
<time>2024-05-07T11:19:53Z</time>
</trkpt>
<trkpt lat="48.94962309859693" lon="9.736981317400932">
<ele>465</ele>
<time>2024-05-07T11:19:54Z</time>
</trkpt>
<trkpt lat="48.94966886378825" lon="9.73698609508574">
<ele>465</ele>
<time>2024-05-07T11:19:55Z</time>
</trkpt>
<trkpt lat="48.94971462897957" lon="9.736994728446009">
<ele>464.8</ele>
<time>2024-05-07T11:19:56Z</time>
</trkpt>
<trkpt lat="48.94975662231445" lon="9.737003277987242">
<ele>464.8</ele>
<time>2024-05-07T11:19:57Z</time>
</trkpt>
<trkpt lat="48.94979853183031" lon="9.7370071336627">
<ele>464.8</ele>
<time>2024-05-07T11:19:58Z</time>
</trkpt>
<trkpt lat="48.94984429702163" lon="9.737011827528477">
<ele>465</ele>
<time>2024-05-07T11:19:59Z</time>
</trkpt>
<trkpt lat="48.94988629035652" lon="9.737016605213284">
<ele>465</ele>
<time>2024-05-07T11:20:00Z</time>
</trkpt>
<trkpt lat="48.949928283691406" lon="9.737021382898092">
<ele>465.2</ele>
<time>2024-05-07T11:20:01Z</time>
</trkpt>
<trkpt lat="48.949970193207264" lon="9.737031860277057">
<ele>465.2</ele>
<time>2024-05-07T11:20:02Z</time>
</trkpt>
<trkpt lat="48.95001218654215" lon="9.737036637961864">
<ele>465.2</ele>
<time>2024-05-07T11:20:03Z</time>
</trkpt>
<trkpt lat="48.95005409605801" lon="9.737041415646672">
<ele>465.2</ele>
<time>2024-05-07T11:20:04Z</time>
</trkpt>
<trkpt lat="48.95009994506836" lon="9.73704812116921">
<ele>465.4</ele>
<time>2024-05-07T11:20:05Z</time>
</trkpt>
<trkpt lat="48.95014185458422" lon="9.737052898854015">
<ele>465.4</ele>
<time>2024-05-07T11:20:06Z</time>
</trkpt>
<trkpt lat="48.95017999224365" lon="9.737056670710444">
<ele>465.4</ele>
<time>2024-05-07T11:20:07Z</time>
</trkpt>
<trkpt lat="48.95022198557854" lon="9.737058598548174">
<ele>465.6</ele>
<time>2024-05-07T11:20:08Z</time>
</trkpt>
<trkpt lat="48.950263895094395" lon="9.737063376232982">
<ele>465.8</ele>
<time>2024-05-07T11:20:09Z</time>
</trkpt>
<trkpt lat="48.95030211657286" lon="9.73707008175552">
<ele>465.8</ele>
<time>2024-05-07T11:20:10Z</time>
</trkpt>
<trkpt lat="48.950344026088715" lon="9.737078631296754">
<ele>465.8</ele>
<time>2024-05-07T11:20:11Z</time>
</trkpt>
<trkpt lat="48.9503860194236" lon="9.73708625882864">
<ele>466</ele>
<time>2024-05-07T11:20:12Z</time>
</trkpt>
<trkpt lat="48.950420301407576" lon="9.73708818666637">
<ele>466</ele>
<time>2024-05-07T11:20:13Z</time>
</trkpt>
<trkpt lat="48.95045466721058" lon="9.73708818666637">
<ele>466</ele>
<time>2024-05-07T11:20:14Z</time>
</trkpt>
<trkpt lat="48.95048517733812" lon="9.737090030685067">
<ele>466</ele>
<time>2024-05-07T11:20:15Z</time>
</trkpt>
<trkpt lat="48.95051568746567" lon="9.73708625882864">
<ele>466</ele>
<time>2024-05-07T11:20:16Z</time>
</trkpt>
<trkpt lat="48.95054619759321" lon="9.737079553306105">
<ele>466</ele>
<time>2024-05-07T11:20:17Z</time>
</trkpt>
<trkpt lat="48.95056530833244" lon="9.737065304070711">
<ele>466</ele>
<time>2024-05-07T11:20:18Z</time>
</trkpt>
<trkpt lat="48.95058433525264" lon="9.737039487808945">
<ele>466</ele>
<time>2024-05-07T11:20:19Z</time>
</trkpt>
<trkpt lat="48.95059581845999" lon="9.73700805567205">
<ele>466</ele>
<time>2024-05-07T11:20:20Z</time>
</trkpt>
<trkpt lat="48.950603445991874" lon="9.736965140327811">
<ele>466</ele>
<time>2024-05-07T11:20:21Z</time>
</trkpt>
<trkpt lat="48.95061492919922" lon="9.736914597451689">
<ele>466</ele>
<time>2024-05-07T11:20:22Z</time>
</trkpt>
<trkpt lat="48.950618701055646" lon="9.736863132566214">
<ele>466</ele>
<time>2024-05-07T11:20:23Z</time>
</trkpt>
<trkpt lat="48.950622556731105" lon="9.736813511699438">
<ele>466</ele>
<time>2024-05-07T11:20:24Z</time>
</trkpt>
<trkpt lat="48.950622556731105" lon="9.736764896661043">
<ele>466</ele>
<time>2024-05-07T11:20:25Z</time>
</trkpt>
<trkpt lat="48.950622556731105" lon="9.736715275794268">
<ele>466</ele>
<time>2024-05-07T11:20:26Z</time>
</trkpt>
<trkpt lat="48.95061492919922" lon="9.736664732918143">
<ele>466</ele>
<time>2024-05-07T11:20:27Z</time>
</trkpt>
<trkpt lat="48.950603445991874" lon="9.736617961898446">
<ele>466</ele>
<time>2024-05-07T11:20:28Z</time>
</trkpt>
<trkpt lat="48.9505881909281" lon="9.736575046554208">
<ele>466</ele>
<time>2024-05-07T11:20:29Z</time>
</trkpt>
<trkpt lat="48.95057670772076" lon="9.73653120920062">
<ele>466</ele>
<time>2024-05-07T11:20:30Z</time>
</trkpt>
<trkpt lat="48.95056530833244" lon="9.736484521999955">
<ele>466</ele>
<time>2024-05-07T11:20:31Z</time>
</trkpt>
<trkpt lat="48.9505538251251" lon="9.73643490113318">
<ele>466.2</ele>
<time>2024-05-07T11:20:32Z</time>
</trkpt>
<trkpt lat="48.950542425736785" lon="9.736383436247706">
<ele>466.4</ele>
<time>2024-05-07T11:20:33Z</time>
</trkpt>
<trkpt lat="48.95053094252944" lon="9.7363318875432">
<ele>466.6</ele>
<time>2024-05-07T11:20:34Z</time>
</trkpt>
<trkpt lat="48.95051954314113" lon="9.736280422657728">
<ele>466.8</ele>
<time>2024-05-07T11:20:35Z</time>
</trkpt>
<trkpt lat="48.95050805993378" lon="9.736231723800302">
<ele>467</ele>
<time>2024-05-07T11:20:36Z</time>
</trkpt>
<trkpt lat="48.95049666054547" lon="9.736180258914828">
<ele>467.2</ele>
<time>2024-05-07T11:20:37Z</time>
</trkpt>
<trkpt lat="48.95048517733812" lon="9.736124938353896">
<ele>467.2</ele>
<time>2024-05-07T11:20:38Z</time>
</trkpt>
<trkpt lat="48.95047754980624" lon="9.736064840108156">
<ele>467.4</ele>
<time>2024-05-07T11:20:39Z</time>
</trkpt>
<trkpt lat="48.95046615041792" lon="9.736004825681448">
<ele>467.6</ele>
<time>2024-05-07T11:20:40Z</time>
</trkpt>
<trkpt lat="48.95045466721058" lon="9.735946655273438">
<ele>467.8</ele>
<time>2024-05-07T11:20:41Z</time>
</trkpt>
<trkpt lat="48.950443267822266" lon="9.735886557027698">
<ele>468</ele>
<time>2024-05-07T11:20:42Z</time>
</trkpt>
<trkpt lat="48.95043178461492" lon="9.735826458781958">
<ele>468.2</ele>
<time>2024-05-07T11:20:43Z</time>
</trkpt>
<trkpt lat="48.95041652955115" lon="9.73576351068914">
<ele>468.4</ele>
<time>2024-05-07T11:20:44Z</time>
</trkpt>
<trkpt lat="48.95040890201926" lon="9.73570148460567">
<ele>468.4</ele>
<time>2024-05-07T11:20:45Z</time>
</trkpt>
<trkpt lat="48.95039364695549" lon="9.735636692494154">
<ele>468.6</ele>
<time>2024-05-07T11:20:46Z</time>
</trkpt>
<trkpt lat="48.950382163748145" lon="9.735571816563606">
<ele>468.8</ele>
<time>2024-05-07T11:20:47Z</time>
</trkpt>
<trkpt lat="48.95036690868437" lon="9.735501240938902">
<ele>468.8</ele>
<time>2024-05-07T11:20:48Z</time>
</trkpt>
<trkpt lat="48.9503516536206" lon="9.735431671142578">
<ele>469</ele>
<time>2024-05-07T11:20:49Z</time>
</trkpt>
<trkpt lat="48.95033639855683" lon="9.735356317833066">
<ele>469</ele>
<time>2024-05-07T11:20:50Z</time>
</trkpt>
<trkpt lat="48.950321143493056" lon="9.735282892361283">
<ele>469</ele>
<time>2024-05-07T11:20:51Z</time>
</trkpt>
<trkpt lat="48.95030588842928" lon="9.735213238745928">
<ele>469</ele>
<time>2024-05-07T11:20:52Z</time>
</trkpt>
<trkpt lat="48.95029063336551" lon="9.73514836281538">
<ele>469.2</ele>
<time>2024-05-07T11:20:53Z</time>
</trkpt>
<trkpt lat="48.95027537830174" lon="9.735084492713211">
<ele>469.2</ele>
<time>2024-05-07T11:20:54Z</time>
</trkpt>
<trkpt lat="48.950267750769854" lon="9.735014839097856">
<ele>469.2</ele>
<time>2024-05-07T11:20:55Z</time>
</trkpt>
<trkpt lat="48.95027160644531" lon="9.734946191310884">
<ele>469.2</ele>
<time>2024-05-07T11:20:56Z</time>
</trkpt>
<trkpt lat="48.95029063336551" lon="9.734883243218064">
<ele>469.2</ele>
<time>2024-05-07T11:20:57Z</time>
</trkpt>
<trkpt lat="48.95031737163663" lon="9.734829850494862">
<ele>469.2</ele>
<time>2024-05-07T11:20:58Z</time>
</trkpt>
<trkpt lat="48.9503516536206" lon="9.734781235456468">
<ele>469.2</ele>
<time>2024-05-07T11:20:59Z</time>
</trkpt>
<trkpt lat="48.95038979128003" lon="9.73473547026515">
<ele>469.2</ele>
<time>2024-05-07T11:21:00Z</time>
</trkpt>
<trkpt lat="48.95042792893946" lon="9.734688699245453">
<ele>469.2</ele>
<time>2024-05-07T11:21:01Z</time>
</trkpt>
<trkpt lat="48.950462294742465" lon="9.734644861891866">
<ele>469.4</ele>
<time>2024-05-07T11:21:02Z</time>
</trkpt>
<trkpt lat="48.95049666054547" lon="9.734604796394706">
<ele>469.4</ele>
<time>2024-05-07T11:21:03Z</time>
</trkpt>
<trkpt lat="48.95053094252944" lon="9.734559953212738">
<ele>469.4</ele>
<time>2024-05-07T11:21:04Z</time>
</trkpt>
<trkpt lat="48.950561452656984" lon="9.73451511003077">
<ele>469.4</ele>
<time>2024-05-07T11:21:05Z</time>
</trkpt>
<trkpt lat="48.950599590316415" lon="9.734471272677183">
<ele>469.6</ele>
<time>2024-05-07T11:21:06Z</time>
</trkpt>
<trkpt lat="48.95063395611942" lon="9.734423579648135">
<ele>469.6</ele>
<time>2024-05-07T11:21:07Z</time>
</trkpt>
<trkpt lat="48.95066832192242" lon="9.734371108934283">
<ele>469.4</ele>
<time>2024-05-07T11:21:08Z</time>
</trkpt>
<trkpt lat="48.95070645958185" lon="9.73432157188654">
<ele>469.4</ele>
<time>2024-05-07T11:21:09Z</time>
</trkpt>
<trkpt lat="48.95074459724128" lon="9.734266251325607">
<ele>469.2</ele>
<time>2024-05-07T11:21:10Z</time>
</trkpt>
<trkpt lat="48.95078273490071" lon="9.734211852774024">
<ele>469.2</ele>
<time>2024-05-07T11:21:11Z</time>
</trkpt>
<trkpt lat="48.95082087256014" lon="9.734153682366014">
<ele>469</ele>
<time>2024-05-07T11:21:12Z</time>
</trkpt>
<trkpt lat="48.950859010219574" lon="9.73409836180508">
<ele>469</ele>
<time>2024-05-07T11:21:13Z</time>
</trkpt>
<trkpt lat="48.950897147879004" lon="9.73404496908188">
<ele>468.8</ele>
<time>2024-05-07T11:21:14Z</time>
</trkpt>
<trkpt lat="48.95093151368201" lon="9.733988726511598">
<ele>468.6</ele>
<time>2024-05-07T11:21:15Z</time>
</trkpt>
<trkpt lat="48.9509735070169" lon="9.733931478112936">
<ele>468.6</ele>
<time>2024-05-07T11:21:16Z</time>
</trkpt>
<trkpt lat="48.951019272208214" lon="9.733878085389732">
<ele>468.4</ele>
<time>2024-05-07T11:21:17Z</time>
</trkpt>
<trkpt lat="48.95106118172407" lon="9.73382469266653">
<ele>468.2</ele>
<time>2024-05-07T11:21:18Z</time>
</trkpt>
<trkpt lat="48.95110317505896" lon="9.733770294114947">
<ele>468</ele>
<time>2024-05-07T11:21:19Z</time>
</trkpt>
<trkpt lat="48.95114516839385" lon="9.73371027968824">
<ele>467.8</ele>
<time>2024-05-07T11:21:20Z</time>
</trkpt>
<trkpt lat="48.95118707790971" lon="9.733643475919962">
<ele>467.8</ele>
<time>2024-05-07T11:21:21Z</time>
</trkpt>
<trkpt lat="48.9512290712446" lon="9.733574828132989">
<ele>467.6</ele>
<time>2024-05-07T11:21:22Z</time>
</trkpt>
<trkpt lat="48.951270980760455" lon="9.733508108183742">
<ele>467.6</ele>
<time>2024-05-07T11:21:23Z</time>
</trkpt>
<trkpt lat="48.95130920223892" lon="9.733438454568386">
<ele>467.6</ele>
<time>2024-05-07T11:21:24Z</time>
</trkpt>
<trkpt lat="48.95134733989835" lon="9.733369806781411">
<ele>467.4</ele>
<time>2024-05-07T11:21:25Z</time>
</trkpt>
<trkpt lat="48.95138547755778" lon="9.733296381309628">
<ele>467.4</ele>
<time>2024-05-07T11:21:26Z</time>
</trkpt>
<trkpt lat="48.95142738707363" lon="9.733222955837846">
<ele>467.4</ele>
<time>2024-05-07T11:21:27Z</time>
</trkpt>
<trkpt lat="48.951469380408525" lon="9.73315137438476">
<ele>467.2</ele>
<time>2024-05-07T11:21:28Z</time>
</trkpt>
<trkpt lat="48.951511373743415" lon="9.733081804588435">
<ele>467</ele>
<time>2024-05-07T11:21:29Z</time>
</trkpt>
<trkpt lat="48.951549511402845" lon="9.733006451278923">
<ele>466.8</ele>
<time>2024-05-07T11:21:30Z</time>
</trkpt>
<trkpt lat="48.9515914209187" lon="9.732930175960064">
<ele>466.8</ele>
<time>2024-05-07T11:21:31Z</time>
</trkpt>
<trkpt lat="48.95163341425359" lon="9.732851972803472">
<ele>466.6</ele>
<time>2024-05-07T11:21:32Z</time>
</trkpt>
<trkpt lat="48.95167917944491" lon="9.732769913971424">
<ele>466.4</ele>
<time>2024-05-07T11:21:33Z</time>
</trkpt>
<trkpt lat="48.9517211727798" lon="9.7326831612736">
<ele>466.2</ele>
<time>2024-05-07T11:21:34Z</time>
</trkpt>
<trkpt lat="48.951766937971115" lon="9.732598252594473">
<ele>466.2</ele>
<time>2024-05-07T11:21:35Z</time>
</trkpt>
<trkpt lat="48.95180884748697" lon="9.732511499896646">
<ele>466</ele>
<time>2024-05-07T11:21:36Z</time>
</trkpt>
<trkpt lat="48.95185084082186" lon="9.732428519055247">
<ele>465.8</ele>
<time>2024-05-07T11:21:37Z</time>
</trkpt>
<trkpt lat="48.95189660601318" lon="9.732337910681965">
<ele>465.8</ele>
<time>2024-05-07T11:21:38Z</time>
</trkpt>
<trkpt lat="48.951942371204495" lon="9.732243530452251">
<ele>465.8</ele>
<time>2024-05-07T11:21:39Z</time>
</trkpt>
<trkpt lat="48.951980508863926" lon="9.732141438871622">
<ele>465.6</ele>
<time>2024-05-07T11:21:40Z</time>
</trkpt>
<trkpt lat="48.95201487466693" lon="9.732036581262946">
<ele>465.4</ele>
<time>2024-05-07T11:21:41Z</time>
</trkpt>
<trkpt lat="48.95205301232636" lon="9.731931639835238">
<ele>465.2</ele>
<time>2024-05-07T11:21:42Z</time>
</trkpt>
<trkpt lat="48.952083522453904" lon="9.731824854388831">
<ele>465</ele>
<time>2024-05-07T11:21:43Z</time>
</trkpt>
<trkpt lat="48.95210640504956" lon="9.731721840798857">
<ele>464.8</ele>
<time>2024-05-07T11:21:44Z</time>
</trkpt>
<trkpt lat="48.95213314332068" lon="9.731610277667642">
<ele>464.6</ele>
<time>2024-05-07T11:21:45Z</time>
</trkpt>
<trkpt lat="48.9521598815918" lon="9.731498714536428">
<ele>464.4</ele>
<time>2024-05-07T11:21:46Z</time>
</trkpt>
<trkpt lat="48.95217513665557" lon="9.731378518044949">
<ele>464.2</ele>
<time>2024-05-07T11:21:47Z</time>
</trkpt>
<trkpt lat="48.95219416357577" lon="9.731256477534773">
<ele>464</ele>
<time>2024-05-07T11:21:48Z</time>
</trkpt>
<trkpt lat="48.95220941863954" lon="9.731136281043293">
<ele>463.8</ele>
<time>2024-05-07T11:21:49Z</time>
</trkpt>
<trkpt lat="48.95222467370331" lon="9.731011390686035">
<ele>463.4</ele>
<time>2024-05-07T11:21:50Z</time>
</trkpt>
<trkpt lat="48.95223615691066" lon="9.730890272185206">
<ele>463.2</ele>
<time>2024-05-07T11:21:51Z</time>
</trkpt>
<trkpt lat="48.952243784442544" lon="9.73076529800892">
<ele>463</ele>
<time>2024-05-07T11:21:52Z</time>
</trkpt>
<trkpt lat="48.95225518383086" lon="9.730636551976204">
<ele>462.8</ele>
<time>2024-05-07T11:21:53Z</time>
</trkpt>
<trkpt lat="48.95225903950632" lon="9.730508727952838">
<ele>462.6</ele>
<time>2024-05-07T11:21:54Z</time>
</trkpt>
<trkpt lat="48.95226281136274" lon="9.730381909757853">
<ele>462.2</ele>
<time>2024-05-07T11:21:55Z</time>
</trkpt>
<trkpt lat="48.9522666670382" lon="9.73025031387806">
<ele>462</ele>
<time>2024-05-07T11:21:56Z</time>
</trkpt>
<trkpt lat="48.95227429457009" lon="9.730118717998266">
<ele>461.6</ele>
<time>2024-05-07T11:21:57Z</time>
</trkpt>
<trkpt lat="48.95228954963386" lon="9.729988044127822">
<ele>461.2</ele>
<time>2024-05-07T11:21:58Z</time>
</trkpt>
<trkpt lat="48.95231243222952" lon="9.729860303923488">
<ele>460.6</ele>
<time>2024-05-07T11:21:59Z</time>
</trkpt>
<trkpt lat="48.95234679803252" lon="9.729738179594278">
<ele>460.2</ele>
<time>2024-05-07T11:22:00Z</time>
</trkpt>
<trkpt lat="48.95239256322384" lon="9.729626616463063">
<ele>459.8</ele>
<time>2024-05-07T11:22:01Z</time>
</trkpt>
<trkpt lat="48.95244210027158" lon="9.72951983101666">
<ele>459.2</ele>
<time>2024-05-07T11:22:02Z</time>
</trkpt>
<trkpt lat="48.95249934867024" lon="9.729425366967916">
<ele>458.8</ele>
<time>2024-05-07T11:22:03Z</time>
</trkpt>
<trkpt lat="48.95256799645722" lon="9.729334758594632">
<ele>458.4</ele>
<time>2024-05-07T11:22:04Z</time>
</trkpt>
<trkpt lat="48.95264049991965" lon="9.729258483275771">
<ele>458</ele>
<time>2024-05-07T11:22:05Z</time>
</trkpt>
<trkpt lat="48.952716775238514" lon="9.729194613173604">
<ele>457.8</ele>
<time>2024-05-07T11:22:06Z</time>
</trkpt>
<trkpt lat="48.952796906232834" lon="9.729133592918515">
<ele>457.4</ele>
<time>2024-05-07T11:22:07Z</time>
</trkpt>
<trkpt lat="48.952873181551695" lon="9.729066789150238">
<ele>457</ele>
<time>2024-05-07T11:22:08Z</time>
</trkpt>
<trkpt lat="48.95294945687056" lon="9.729002919048073">
<ele>456.6</ele>
<time>2024-05-07T11:22:09Z</time>
</trkpt>
<trkpt lat="48.95302196033299" lon="9.728933265432715">
<ele>456.4</ele>
<time>2024-05-07T11:22:10Z</time>
</trkpt>
<trkpt lat="48.953090608119965" lon="9.728857912123203">
<ele>456</ele>
<time>2024-05-07T11:22:11Z</time>
</trkpt>
<trkpt lat="48.95315925590694" lon="9.728781636804342">
<ele>455.6</ele>
<time>2024-05-07T11:22:12Z</time>
</trkpt>
<trkpt lat="48.95322413183749" lon="9.728698655962944">
<ele>455.4</ele>
<time>2024-05-07T11:22:13Z</time>
</trkpt>
<trkpt lat="48.95328138023615" lon="9.728608131408691">
<ele>455</ele>
<time>2024-05-07T11:22:14Z</time>
</trkpt>
<trkpt lat="48.95333854481578" lon="9.728513667359948">
<ele>454.8</ele>
<time>2024-05-07T11:22:15Z</time>
</trkpt>
<trkpt lat="48.95339579321444" lon="9.728416437283158">
<ele>454.6</ele>
<time>2024-05-07T11:22:16Z</time>
</trkpt>
<trkpt lat="48.953445414081216" lon="9.728320045396686">
<ele>454.4</ele>
<time>2024-05-07T11:22:17Z</time>
</trkpt>
<trkpt lat="48.95349880680442" lon="9.728224743157623">
<ele>454.2</ele>
<time>2024-05-07T11:22:18Z</time>
</trkpt>
<trkpt lat="48.953548427671194" lon="9.728126507252457">
<ele>454</ele>
<time>2024-05-07T11:22:19Z</time>
</trkpt>
<trkpt lat="48.95359033718705" lon="9.728023493662477">
<ele>453.6</ele>
<time>2024-05-07T11:22:20Z</time>
</trkpt>
<trkpt lat="48.95363233052194" lon="9.727923329919577">
<ele>453.4</ele>
<time>2024-05-07T11:22:21Z</time>
</trkpt>
<trkpt lat="48.95366661250591" lon="9.727823249995708">
<ele>453.2</ele>
<time>2024-05-07T11:22:22Z</time>
</trkpt>
<trkpt lat="48.953704833984375" lon="9.727729791775346">
<ele>453.2</ele>
<time>2024-05-07T11:22:23Z</time>
</trkpt>
<trkpt lat="48.95374674350023" lon="9.727636333554983">
<ele>453</ele>
<time>2024-05-07T11:22:24Z</time>
</trkpt>
<trkpt lat="48.95378873683512" lon="9.72754186950624">
<ele>452.8</ele>
<time>2024-05-07T11:22:25Z</time>
</trkpt>
<trkpt lat="48.95383064635098" lon="9.72744463942945">
<ele>452.8</ele>
<time>2024-05-07T11:22:26Z</time>
</trkpt>
<trkpt lat="48.95387649536133" lon="9.727353025227783">
<ele>452.6</ele>
<time>2024-05-07T11:22:27Z</time>
</trkpt>
<trkpt lat="48.953918404877186" lon="9.727261494845152">
<ele>452.6</ele>
<time>2024-05-07T11:22:28Z</time>
</trkpt>
<trkpt lat="48.953960398212075" lon="9.72716996446252">
<ele>452.4</ele>
<time>2024-05-07T11:22:29Z</time>
</trkpt>
<trkpt lat="48.95400230772793" lon="9.727081283926964">
<ele>452.2</ele>
<time>2024-05-07T11:22:30Z</time>
</trkpt>
<trkpt lat="48.95404044538736" lon="9.726991597563028">
<ele>452.2</ele>
<time>2024-05-07T11:22:31Z</time>
</trkpt>
<trkpt lat="48.95408243872225" lon="9.726900067180395">
<ele>452</ele>
<time>2024-05-07T11:22:32Z</time>
</trkpt>
<trkpt lat="48.95412443205714" lon="9.72681138664484">
<ele>452</ele>
<time>2024-05-07T11:22:33Z</time>
</trkpt>
<trkpt lat="48.954166341573" lon="9.726721700280905">
<ele>452</ele>
<time>2024-05-07T11:22:34Z</time>
</trkpt>
<trkpt lat="48.95420833490789" lon="9.726626314222813">
<ele>451.8</ele>
<time>2024-05-07T11:22:35Z</time>
</trkpt>
<trkpt lat="48.95424647256732" lon="9.72653478384018">
<ele>451.6</ele>
<time>2024-05-07T11:22:36Z</time>
</trkpt>
<trkpt lat="48.95429223775864" lon="9.726445181295276">
<ele>451.6</ele>
<time>2024-05-07T11:22:37Z</time>
</trkpt>
<trkpt lat="48.95433800294995" lon="9.726360272616148">
<ele>451.4</ele>
<time>2024-05-07T11:22:38Z</time>
</trkpt>
<trkpt lat="48.95439147949219" lon="9.7262763697654">
<ele>451.2</ele>
<time>2024-05-07T11:22:39Z</time>
</trkpt>
<trkpt lat="48.95444864407182" lon="9.72620009444654">
<ele>451</ele>
<time>2024-05-07T11:22:40Z</time>
</trkpt>
<trkpt lat="48.95450203679502" lon="9.726124741137028">
<ele>450.8</ele>
<time>2024-05-07T11:22:41Z</time>
</trkpt>
<trkpt lat="48.95455542951822" lon="9.726057015359402">
<ele>450.6</ele>
<time>2024-05-07T11:22:42Z</time>
</trkpt>
<trkpt lat="48.95460890606046" lon="9.725986439734696">
<ele>450.4</ele>
<time>2024-05-07T11:22:43Z</time>
</trkpt>
<trkpt lat="48.95466607064009" lon="9.725913014262916">
<ele>450.2</ele>
<time>2024-05-07T11:22:44Z</time>
</trkpt>
<trkpt lat="48.95472331903875" lon="9.72584151662886">
<ele>450</ele>
<time>2024-05-07T11:22:45Z</time>
</trkpt>
<trkpt lat="48.95478056743741" lon="9.725768007338049">
<ele>449.8</ele>
<time>2024-05-07T11:22:46Z</time>
</trkpt>
<trkpt lat="48.95483773201704" lon="9.725696509703994">
<ele>449.8</ele>
<time>2024-05-07T11:22:47Z</time>
</trkpt>
<trkpt lat="48.95489112474024" lon="9.72562501206994">
<ele>449.6</ele>
<time>2024-05-07T11:22:48Z</time>
</trkpt>
<trkpt lat="48.95494460128248" lon="9.725558208301663">
<ele>449.6</ele>
<time>2024-05-07T11:22:49Z</time>
</trkpt>
<trkpt lat="48.95500176586211" lon="9.725491488352418">
<ele>449.4</ele>
<time>2024-05-07T11:22:50Z</time>
</trkpt>
<trkpt lat="48.955047531053424" lon="9.725419990718365">
<ele>449.2</ele>
<time>2024-05-07T11:22:51Z</time>
</trkpt>
<trkpt lat="48.95510100759566" lon="9.72534840926528">
<ele>449</ele>
<time>2024-05-07T11:22:52Z</time>
</trkpt>
<trkpt lat="48.95515817217529" lon="9.725281689316034">
<ele>449</ele>
<time>2024-05-07T11:22:53Z</time>
</trkpt>
<trkpt lat="48.95521156489849" lon="9.725219663232563">
<ele>448.8</ele>
<time>2024-05-07T11:22:54Z</time>
</trkpt>
<trkpt lat="48.95526881329715" lon="9.725159564986823">
<ele>448.6</ele>
<time>2024-05-07T11:22:55Z</time>
</trkpt>
<trkpt lat="48.95532983355224" lon="9.725099550560117">
<ele>448.4</ele>
<time>2024-05-07T11:22:56Z</time>
</trkpt>
<trkpt lat="48.9553870819509" lon="9.725047079846265">
<ele>448.2</ele>
<time>2024-05-07T11:22:57Z</time>
</trkpt>
<trkpt lat="48.95544810220599" lon="9.72499653697014">
<ele>448</ele>
<time>2024-05-07T11:22:58Z</time>
</trkpt>
<trkpt lat="48.95551297813654" lon="9.724944988265634">
<ele>447.8</ele>
<time>2024-05-07T11:22:59Z</time>
</trkpt>
<trkpt lat="48.955577770248055" lon="9.72489637322724">
<ele>447.6</ele>
<time>2024-05-07T11:23:00Z</time>
</trkpt>
<trkpt lat="48.95565027371049" lon="9.72485538572073">
<ele>447.4</ele>
<time>2024-05-07T11:23:01Z</time>
</trkpt>
<trkpt lat="48.95572654902935" lon="9.724822947755456">
<ele>447.2</ele>
<time>2024-05-07T11:23:02Z</time>
</trkpt>
<trkpt lat="48.95579528063536" lon="9.724791515618564">
<ele>447.2</ele>
<time>2024-05-07T11:23:03Z</time>
</trkpt>
<trkpt lat="48.95587155595422" lon="9.724761927500367">
<ele>447</ele>
<time>2024-05-07T11:23:04Z</time>
</trkpt>
<trkpt lat="48.95594783127308" lon="9.724739966914058">
<ele>446.8</ele>
<time>2024-05-07T11:23:05Z</time>
</trkpt>
<trkpt lat="48.9560279622674" lon="9.72471809014678">
<ele>446.6</ele>
<time>2024-05-07T11:23:06Z</time>
</trkpt>
<trkpt lat="48.95610423758626" lon="9.7246980573982">
<ele>446.4</ele>
<time>2024-05-07T11:23:07Z</time>
</trkpt>
<trkpt lat="48.956176741048694" lon="9.72467701882124">
<ele>446.2</ele>
<time>2024-05-07T11:23:08Z</time>
</trkpt>
<trkpt lat="48.956249160692096" lon="9.724655142053962">
<ele>446</ele>
<time>2024-05-07T11:23:09Z</time>
</trkpt>
<trkpt lat="48.956329291686416" lon="9.724633181467652">
<ele>445.8</ele>
<time>2024-05-07T11:23:10Z</time>
</trkpt>
<trkpt lat="48.956409422680736" lon="9.724611220881345">
<ele>445.6</ele>
<time>2024-05-07T11:23:11Z</time>
</trkpt>
<trkpt lat="48.956489553675056" lon="9.724588338285685">
<ele>445.4</ele>
<time>2024-05-07T11:23:12Z</time>
</trkpt>
<trkpt lat="48.9565734565258" lon="9.724568305537105">
<ele>445</ele>
<time>2024-05-07T11:23:13Z</time>
</trkpt>
<trkpt lat="48.95666121505201" lon="9.724544500932096">
<ele>444.6</ele>
<time>2024-05-07T11:23:14Z</time>
</trkpt>
<trkpt lat="48.95674888975918" lon="9.724525390192866">
<ele>444.4</ele>
<time>2024-05-07T11:23:15Z</time>
</trkpt>
<trkpt lat="48.95683664828539" lon="9.724505357444286">
<ele>444</ele>
<time>2024-05-07T11:23:16Z</time>
</trkpt>
<trkpt lat="48.956920551136136" lon="9.724483480677009">
<ele>443.6</ele>
<time>2024-05-07T11:23:17Z</time>
</trkpt>
<trkpt lat="48.95701593719423" lon="9.724465291947126">
<ele>443.2</ele>
<time>2024-05-07T11:23:18Z</time>
</trkpt>
<trkpt lat="48.95711132325232" lon="9.724450036883354">
<ele>442.8</ele>
<time>2024-05-07T11:23:19Z</time>
</trkpt>
<trkpt lat="48.95721048116684" lon="9.72443955950439">
<ele>442.4</ele>
<time>2024-05-07T11:23:20Z</time>
</trkpt>
<trkpt lat="48.95730586722493" lon="9.724428160116076">
<ele>442</ele>
<time>2024-05-07T11:23:21Z</time>
</trkpt>
<trkpt lat="48.95740502513945" lon="9.724423382431269">
<ele>441.6</ele>
<time>2024-05-07T11:23:22Z</time>
</trkpt>
<trkpt lat="48.95750803872943" lon="9.72443955950439">
<ele>441.2</ele>
<time>2024-05-07T11:23:23Z</time>
</trkpt>
<trkpt lat="48.95760342478752" lon="9.724448192864656">
<ele>440.6</ele>
<time>2024-05-07T11:23:24Z</time>
</trkpt>
<trkpt lat="48.95769118331373" lon="9.7244787029922">
<ele>440.2</ele>
<time>2024-05-07T11:23:25Z</time>
</trkpt>
<trkpt lat="48.957794113084674" lon="9.724512062966824">
<ele>439.6</ele>
<time>2024-05-07T11:23:26Z</time>
</trkpt>
<trkpt lat="48.95788572728634" lon="9.724548272788525">
<ele>439</ele>
<time>2024-05-07T11:23:27Z</time>
</trkpt>
<trkpt lat="48.9579810295254" lon="9.72457978874445">
<ele>438.6</ele>
<time>2024-05-07T11:23:28Z</time>
</trkpt>
<trkpt lat="48.95807641558349" lon="9.724611220881345">
<ele>438</ele>
<time>2024-05-07T11:23:29Z</time>
</trkpt>
<trkpt lat="48.9581641741097" lon="9.72463795915246">
<ele>437.6</ele>
<time>2024-05-07T11:23:30Z</time>
</trkpt>
<trkpt lat="48.9582519326359" lon="9.72465799190104">
<ele>437</ele>
<time>2024-05-07T11:23:31Z</time>
</trkpt>
<trkpt lat="48.95832820795477" lon="9.724686574190857">
<ele>436.6</ele>
<time>2024-05-07T11:23:32Z</time>
</trkpt>
<trkpt lat="48.95840833894909" lon="9.72471616230905">
<ele>436</ele>
<time>2024-05-07T11:23:33Z</time>
</trkpt>
<trkpt lat="48.958484614267945" lon="9.724746672436597">
<ele>435.4</ele>
<time>2024-05-07T11:23:34Z</time>
</trkpt>
<trkpt lat="48.95855711773038" lon="9.72477525472641">
<ele>434.8</ele>
<time>2024-05-07T11:23:35Z</time>
</trkpt>
<trkpt lat="48.95863339304924" lon="9.724798137322068">
<ele>434.2</ele>
<time>2024-05-07T11:23:36Z</time>
</trkpt>
<trkpt lat="48.9587096683681" lon="9.72481532022357">
<ele>433.6</ele>
<time>2024-05-07T11:23:37Z</time>
</trkpt>
<trkpt lat="48.95877831615507" lon="9.724822025746109">
<ele>433.2</ele>
<time>2024-05-07T11:23:38Z</time>
</trkpt>
<trkpt lat="48.95885081961751" lon="9.724809620529411">
<ele>432.6</ele>
<time>2024-05-07T11:23:39Z</time>
</trkpt>
<trkpt lat="48.95892709493637" lon="9.724782882258296">
<ele>432</ele>
<time>2024-05-07T11:23:40Z</time>
</trkpt>
<trkpt lat="48.958999598398805" lon="9.724728567525744">
<ele>431.6</ele>
<time>2024-05-07T11:23:41Z</time>
</trkpt>
<trkpt lat="48.95906824618578" lon="9.724651286378505">
<ele>431.2</ele>
<time>2024-05-07T11:23:42Z</time>
</trkpt>
<trkpt lat="48.95912926644087" lon="9.72454165108502">
<ele>430.6</ele>
<time>2024-05-07T11:23:43Z</time>
</trkpt>
<trkpt lat="48.95919028669596" lon="9.724436709657311">
<ele>430</ele>
<time>2024-05-07T11:23:44Z</time>
</trkpt>
<trkpt lat="48.95923990756273" lon="9.724333696067331">
<ele>429.6</ele>
<time>2024-05-07T11:23:45Z</time>
</trkpt>
<trkpt lat="48.95927804522216" lon="9.72422020509839">
<ele>429.2</ele>
<time>2024-05-07T11:23:46Z</time>
</trkpt>
<trkpt lat="48.95930855534971" lon="9.72410294227302">
<ele>428.8</ele>
<time>2024-05-07T11:23:47Z</time>
</trkpt>
<trkpt lat="48.95934292115271" lon="9.72398852929473">
<ele>428.2</ele>
<time>2024-05-07T11:23:48Z</time>
</trkpt>
<trkpt lat="48.95936580374837" lon="9.72386833280325">
<ele>427.8</ele>
<time>2024-05-07T11:23:49Z</time>
</trkpt>
<trkpt lat="48.9593849144876" lon="9.723736736923456">
<ele>427.4</ele>
<time>2024-05-07T11:23:50Z</time>
</trkpt>
<trkpt lat="48.95940779708326" lon="9.723598435521126">
<ele>426.8</ele>
<time>2024-05-07T11:23:51Z</time>
</trkpt>
<trkpt lat="48.95942682400346" lon="9.723456362262368">
<ele>426.4</ele>
<time>2024-05-07T11:23:52Z</time>
</trkpt>
<trkpt lat="48.95944593474269" lon="9.723308505490422">
<ele>426</ele>
<time>2024-05-07T11:23:53Z</time>
</trkpt>
<trkpt lat="48.95947644487023" lon="9.72315494902432">
<ele>425.4</ele>
<time>2024-05-07T11:23:54Z</time>
</trkpt>
<trkpt lat="48.95952598191798" lon="9.723010025918484">
<ele>425</ele>
<time>2024-05-07T11:23:55Z</time>
</trkpt>
<trkpt lat="48.95958323031664" lon="9.72288035787642">
<ele>424.4</ele>
<time>2024-05-07T11:23:56Z</time>
</trkpt>
<trkpt lat="48.95964810624719" lon="9.72276208922267">
<ele>423.8</ele>
<time>2024-05-07T11:23:57Z</time>
</trkpt>
<trkpt lat="48.95972438156605" lon="9.722648598253729">
<ele>423.2</ele>
<time>2024-05-07T11:23:58Z</time>
</trkpt>
<trkpt lat="48.959808284416795" lon="9.72254365682602">
<ele>422.4</ele>
<time>2024-05-07T11:23:59Z</time>
</trkpt>
<trkpt lat="48.95990367047489" lon="9.722412982955577">
<ele>421.8</ele>
<time>2024-05-07T11:24:00Z</time>
</trkpt>
<trkpt lat="48.95997994579375" lon="9.722312903031709">
<ele>421.2</ele>
<time>2024-05-07T11:24:01Z</time>
</trkpt>
<trkpt lat="48.96006007678807" lon="9.722201339900494">
<ele>420.6</ele>
<time>2024-05-07T11:24:02Z</time>
</trkpt>
<trkpt lat="48.96013635210693" lon="9.72208684310317">
<ele>420</ele>
<time>2024-05-07T11:24:03Z</time>
</trkpt>
<trkpt lat="48.96021648310125" lon="9.721975279971955">
<ele>419.2</ele>
<time>2024-05-07T11:24:04Z</time>
</trkpt>
<trkpt lat="48.96031186915934" lon="9.721855083480476">
<ele>418.6</ele>
<time>2024-05-07T11:24:05Z</time>
</trkpt>
<trkpt lat="48.96039577201009" lon="9.721738742664456">
<ele>417.8</ele>
<time>2024-05-07T11:24:06Z</time>
</trkpt>
<trkpt lat="48.96048730239272" lon="9.721630029380322">
<ele>417</ele>
<time>2024-05-07T11:24:07Z</time>
</trkpt>
<trkpt lat="48.960559805855155" lon="9.721528021618724">
<ele>416.2</ele>
<time>2024-05-07T11:24:08Z</time>
</trkpt>
<trkpt lat="48.96061319857836" lon="9.721418302506208">
<ele>415.4</ele>
<time>2024-05-07T11:24:09Z</time>
</trkpt>
<trkpt lat="48.960697101429105" lon="9.721315372735262">
<ele>414.8</ele>
<time>2024-05-07T11:24:10Z</time>
</trkpt>
<trkpt lat="48.96078108809888" lon="9.721202803775668">
<ele>414</ele>
<time>2024-05-07T11:24:11Z</time>
</trkpt>
<trkpt lat="48.96086876280606" lon="9.721133150160313">
<ele>413.2</ele>
<time>2024-05-07T11:24:12Z</time>
</trkpt>
<trkpt lat="48.96096037700772" lon="9.721071207895877">
<ele>412.6</ele>
<time>2024-05-07T11:24:13Z</time>
</trkpt>
<trkpt lat="48.96105190739035" lon="9.721013037487864">
<ele>412</ele>
<time>2024-05-07T11:24:14Z</time>
</trkpt>
<trkpt lat="48.96114729344845" lon="9.720968194305897">
<ele>411.2</ele>
<time>2024-05-07T11:24:15Z</time>
</trkpt>
<trkpt lat="48.96124645136297" lon="9.720939612016082">
<ele>410.4</ele>
<time>2024-05-07T11:24:16Z</time>
</trkpt>
<trkpt lat="48.96134183742106" lon="9.72090625204146">
<ele>409.6</ele>
<time>2024-05-07T11:24:17Z</time>
</trkpt>
<trkpt lat="48.96144485101104" lon="9.720874736085534">
<ele>409</ele>
<time>2024-05-07T11:24:18Z</time>
</trkpt>
<trkpt lat="48.961547780781984" lon="9.72084330394864">
<ele>408.2</ele>
<time>2024-05-07T11:24:19Z</time>
</trkpt>
<trkpt lat="48.96165079437196" lon="9.720811787992716">
<ele>407.4</ele>
<time>2024-05-07T11:24:20Z</time>
</trkpt>
<trkpt lat="48.961746180430055" lon="9.720776500180364">
<ele>406.8</ele>
<time>2024-05-07T11:24:21Z</time>
</trkpt>
<trkpt lat="48.96184156648815" lon="9.720746912062168">
<ele>406</ele>
<time>2024-05-07T11:24:22Z</time>
</trkpt>
<trkpt lat="48.961940724402666" lon="9.72072503529489">
<ele>405.4</ele>
<time>2024-05-07T11:24:23Z</time>
</trkpt>
<trkpt lat="48.962039882317185" lon="9.72070693038404">
<ele>404.6</ele>
<time>2024-05-07T11:24:24Z</time>
</trkpt>
<trkpt lat="48.962139124050736" lon="9.720696369186044">
<ele>404</ele>
<time>2024-05-07T11:24:25Z</time>
</trkpt>
<trkpt lat="48.962238281965256" lon="9.720687819644809">
<ele>403.4</ele>
<time>2024-05-07T11:24:26Z</time>
</trkpt>
<trkpt lat="48.962337439879775" lon="9.72068496979773">
<ele>402.8</ele>
<time>2024-05-07T11:24:27Z</time>
</trkpt>
<trkpt lat="48.96244045346975" lon="9.720689747482538">
<ele>402.2</ele>
<time>2024-05-07T11:24:28Z</time>
</trkpt>
<trkpt lat="48.96253961138427" lon="9.720700224861504">
<ele>401.6</ele>
<time>2024-05-07T11:24:29Z</time>
</trkpt>
<trkpt lat="48.962634997442365" lon="9.720707852393389">
<ele>401</ele>
<time>2024-05-07T11:24:30Z</time>
</trkpt>
<trkpt lat="48.96273415535688" lon="9.72070693038404">
<ele>400.4</ele>
<time>2024-05-07T11:24:31Z</time>
</trkpt>
<trkpt lat="48.96282576955855" lon="9.720718329772351">
<ele>399.6</ele>
<time>2024-05-07T11:24:32Z</time>
</trkpt>
<trkpt lat="48.96291344426572" lon="9.72070307470858">
<ele>399.2</ele>
<time>2024-05-07T11:24:33Z</time>
</trkpt>
<trkpt lat="48.96299357526004" lon="9.72066879272461">
<ele>398.6</ele>
<time>2024-05-07T11:24:34Z</time>
</trkpt>
<trkpt lat="48.963069850578904" lon="9.720609616488218">
<ele>398</ele>
<time>2024-05-07T11:24:35Z</time>
</trkpt>
<trkpt lat="48.9631462097168" lon="9.720538118854163">
<ele>397.4</ele>
<time>2024-05-07T11:24:36Z</time>
</trkpt>
<trkpt lat="48.96321100182831" lon="9.720453210175036">
<ele>396.8</ele>
<time>2024-05-07T11:24:37Z</time>
</trkpt>
<trkpt lat="48.9632720220834" lon="9.720357824116943">
<ele>396</ele>
<time>2024-05-07T11:24:38Z</time>
</trkpt>
<trkpt lat="48.96334075368941" lon="9.720263443887234">
<ele>395.4</ele>
<time>2024-05-07T11:24:39Z</time>
</trkpt>
<trkpt lat="48.963424656540155" lon="9.720149952918293">
<ele>394.8</ele>
<time>2024-05-07T11:24:40Z</time>
</trkpt>
<trkpt lat="48.9634895324707" lon="9.720025062561035">
<ele>394</ele>
<time>2024-05-07T11:24:41Z</time>
</trkpt>
<trkpt lat="48.96354669705033" lon="9.71989338286221">
<ele>393.4</ele>
<time>2024-05-07T11:24:42Z</time>
</trkpt>
<trkpt lat="48.963600089773536" lon="9.71975700929761">
<ele>392.8</ele>
<time>2024-05-07T11:24:43Z</time>
</trkpt>
<trkpt lat="48.96364971064031" lon="9.719626419246197">
<ele>392.2</ele>
<time>2024-05-07T11:24:44Z</time>
</trkpt>
<trkpt lat="48.9637107308954" lon="9.719492895528674">
<ele>391.6</ele>
<time>2024-05-07T11:24:45Z</time>
</trkpt>
<trkpt lat="48.96377175115049" lon="9.71938133239746">
<ele>391</ele>
<time>2024-05-07T11:24:46Z</time>
</trkpt>
<trkpt lat="48.96384811028838" lon="9.71928309649229">
<ele>390.4</ele>
<time>2024-05-07T11:24:47Z</time>
</trkpt>
<trkpt lat="48.96391675807536" lon="9.719193410128357">
<ele>389.8</ele>
<time>2024-05-07T11:24:48Z</time>
</trkpt>
<trkpt lat="48.96399303339422" lon="9.719110429286957">
<ele>389.2</ele>
<time>2024-05-07T11:24:49Z</time>
</trkpt>
<trkpt lat="48.96406930871308" lon="9.719021748751402">
<ele>388.6</ele>
<time>2024-05-07T11:24:50Z</time>
</trkpt>
<trkpt lat="48.96414181217551" lon="9.718933068215849">
<ele>387.8</ele>
<time>2024-05-07T11:24:51Z</time>
</trkpt>
<trkpt lat="48.96421045996249" lon="9.71884530968964">
<ele>387</ele>
<time>2024-05-07T11:24:52Z</time>
</trkpt>
<trkpt lat="48.964275335893035" lon="9.718754701316357">
<ele>386.4</ele>
<time>2024-05-07T11:24:53Z</time>
</trkpt>
<trkpt lat="48.96433635614813" lon="9.718667026609182">
<ele>385.8</ele>
<time>2024-05-07T11:24:54Z</time>
</trkpt>
<trkpt lat="48.9643859770149" lon="9.71856971271336">
<ele>385</ele>
<time>2024-05-07T11:24:55Z</time>
</trkpt>
<trkpt lat="48.96442788653076" lon="9.71847147680819">
<ele>384.2</ele>
<time>2024-05-07T11:24:56Z</time>
</trkpt>
<trkpt lat="48.96444699726999" lon="9.718368463218212">
<ele>383.6</ele>
<time>2024-05-07T11:24:57Z</time>
</trkpt>
<trkpt lat="48.964454624801874" lon="9.718256900087">
<ele>383</ele>
<time>2024-05-07T11:24:58Z</time>
</trkpt>
<trkpt lat="48.96444314159453" lon="9.718143409118056">
<ele>382.6</ele>
<time>2024-05-07T11:24:59Z</time>
</trkpt>
<trkpt lat="48.96442788653076" lon="9.718032767996192">
<ele>382</ele>
<time>2024-05-07T11:25:00Z</time>
</trkpt>
<trkpt lat="48.96440123207867" lon="9.717925060540438">
<ele>381.4</ele>
<time>2024-05-07T11:25:01Z</time>
</trkpt>
<trkpt lat="48.96437072195113" lon="9.717818191275">
<ele>380.8</ele>
<time>2024-05-07T11:25:02Z</time>
</trkpt>
<trkpt lat="48.96433635614813" lon="9.717711405828595">
<ele>380.2</ele>
<time>2024-05-07T11:25:03Z</time>
</trkpt>
<trkpt lat="48.96429821848869" lon="9.717601770535111">
<ele>379.6</ele>
<time>2024-05-07T11:25:04Z</time>
</trkpt>
<trkpt lat="48.964271480217576" lon="9.717478724196551">
<ele>379.2</ele>
<time>2024-05-07T11:25:05Z</time>
</trkpt>
<trkpt lat="48.96425245329738" lon="9.717349978163838">
<ele>378.6</ele>
<time>2024-05-07T11:25:06Z</time>
</trkpt>
<trkpt lat="48.96424097009003" lon="9.717221232131124">
<ele>378.2</ele>
<time>2024-05-07T11:25:07Z</time>
</trkpt>
<trkpt lat="48.9642371982336" lon="9.717091480270028">
<ele>377.8</ele>
<time>2024-05-07T11:25:08Z</time>
</trkpt>
<trkpt lat="48.96424859762192" lon="9.716957034543157">
<ele>377.4</ele>
<time>2024-05-07T11:25:09Z</time>
</trkpt>
<trkpt lat="48.96426008082926" lon="9.716826360672712">
<ele>377</ele>
<time>2024-05-07T11:25:10Z</time>
</trkpt>
<trkpt lat="48.96428673528135" lon="9.716708175837994">
<ele>376.6</ele>
<time>2024-05-07T11:25:11Z</time>
</trkpt>
<trkpt lat="48.964313473552465" lon="9.716600384563208">
<ele>376</ele>
<time>2024-05-07T11:25:12Z</time>
</trkpt>
<trkpt lat="48.964351611211896" lon="9.716501226648688">
<ele>375.4</ele>
<time>2024-05-07T11:25:13Z</time>
</trkpt>
<trkpt lat="48.9644050039351" lon="9.71641824580729">
<ele>374.8</ele>
<time>2024-05-07T11:25:14Z</time>
</trkpt>
<trkpt lat="48.96446225233376" lon="9.716353369876742">
<ele>374.2</ele>
<time>2024-05-07T11:25:15Z</time>
</trkpt>
<trkpt lat="48.96452712826431" lon="9.716304754838347">
<ele>373.8</ele>
<time>2024-05-07T11:25:16Z</time>
</trkpt>
<trkpt lat="48.96460340358317" lon="9.71627994440496">
<ele>373.2</ele>
<time>2024-05-07T11:25:17Z</time>
</trkpt>
<trkpt lat="48.96467967890203" lon="9.716268461197616">
<ele>372.8</ele>
<time>2024-05-07T11:25:18Z</time>
</trkpt>
<trkpt lat="48.964748326689005" lon="9.716275166720152">
<ele>372.4</ele>
<time>2024-05-07T11:25:19Z</time>
</trkpt>
<trkpt lat="48.96482083015144" lon="9.716295199468732">
<ele>372.2</ele>
<time>2024-05-07T11:25:20Z</time>
</trkpt>
<trkpt lat="48.964889477938414" lon="9.716328559443356">
<ele>371.8</ele>
<time>2024-05-07T11:25:21Z</time>
</trkpt>
<trkpt lat="48.96495812572539" lon="9.716375330463052">
<ele>371.6</ele>
<time>2024-05-07T11:25:22Z</time>
</trkpt>
<trkpt lat="48.965023001655936" lon="9.716424867510796">
<ele>371.2</ele>
<time>2024-05-07T11:25:23Z</time>
</trkpt>
<trkpt lat="48.9650802500546" lon="9.716480188071728">
<ele>371</ele>
<time>2024-05-07T11:25:24Z</time>
</trkpt>
<trkpt lat="48.96513741463423" lon="9.716540286317468">
<ele>370.6</ele>
<time>2024-05-07T11:25:25Z</time>
</trkpt>
<trkpt lat="48.96519843488932" lon="9.716598456725478">
<ele>370.4</ele>
<time>2024-05-07T11:25:26Z</time>
</trkpt>
<trkpt lat="48.96525953896344" lon="9.71665469929576">
<ele>370.2</ele>
<time>2024-05-07T11:25:27Z</time>
</trkpt>
<trkpt lat="48.96531670354307" lon="9.71671194769442">
<ele>370</ele>
<time>2024-05-07T11:25:28Z</time>
</trkpt>
<trkpt lat="48.96537395194173" lon="9.716768190264702">
<ele>369.8</ele>
<time>2024-05-07T11:25:29Z</time>
</trkpt>
<trkpt lat="48.96543120034039" lon="9.716823510825634">
<ele>369.6</ele>
<time>2024-05-07T11:25:30Z</time>
</trkpt>
<trkpt lat="48.96548836492002" lon="9.716879837214949">
<ele>369.4</ele>
<time>2024-05-07T11:25:31Z</time>
</trkpt>
<trkpt lat="48.96554946899414" lon="9.71693130210042">
<ele>369.2</ele>
<time>2024-05-07T11:25:32Z</time>
</trkpt>
<trkpt lat="48.96560663357377" lon="9.716978073120115">
<ele>369</ele>
<time>2024-05-07T11:25:33Z</time>
</trkpt>
<trkpt lat="48.96566388197243" lon="9.717018054798244">
<ele>368.8</ele>
<time>2024-05-07T11:25:34Z</time>
</trkpt>
<trkpt lat="48.96572490222752" lon="9.717053342610598">
<ele>368.8</ele>
<time>2024-05-07T11:25:35Z</time>
</trkpt>
<trkpt lat="48.96578215062618" lon="9.717082930728791">
<ele>368.8</ele>
<time>2024-05-07T11:25:36Z</time>
</trkpt>
<trkpt lat="48.96584317088127" lon="9.717102963477371">
<ele>368.6</ele>
<time>2024-05-07T11:25:37Z</time>
</trkpt>
<trkpt lat="48.96590419113636" lon="9.71710866317153">
<ele>368.6</ele>
<time>2024-05-07T11:25:38Z</time>
</trkpt>
<trkpt lat="48.96596521139145" lon="9.717100113630297">
<ele>368.6</ele>
<time>2024-05-07T11:25:39Z</time>
</trkpt>
<trkpt lat="48.966030087322" lon="9.717093408107758">
<ele>368.4</ele>
<time>2024-05-07T11:25:40Z</time>
</trkpt>
<trkpt lat="48.966094963252544" lon="9.717080080881717">
<ele>368.4</ele>
<time>2024-05-07T11:25:41Z</time>
</trkpt>
<trkpt lat="48.96615598350763" lon="9.717061975970864">
<ele>368.2</ele>
<time>2024-05-07T11:25:42Z</time>
</trkpt>
<trkpt lat="48.96622077561915" lon="9.717041943222284">
<ele>368</ele>
<time>2024-05-07T11:25:43Z</time>
</trkpt>
<trkpt lat="48.96628187969327" lon="9.717021910473704">
<ele>368</ele>
<time>2024-05-07T11:25:44Z</time>
</trkpt>
<trkpt lat="48.966346671804786" lon="9.716999949887397">
<ele>367.8</ele>
<time>2024-05-07T11:25:45Z</time>
</trkpt>
<trkpt lat="48.96641154773533" lon="9.716978073120115">
<ele>367.6</ele>
<time>2024-05-07T11:25:46Z</time>
</trkpt>
<trkpt lat="48.96647642366588" lon="9.716964662075045">
<ele>367.4</ele>
<time>2024-05-07T11:25:47Z</time>
</trkpt>
<trkpt lat="48.9665412157774" lon="9.716961812227964">
<ele>367.2</ele>
<time>2024-05-07T11:25:48Z</time>
</trkpt>
<trkpt lat="48.966606091707945" lon="9.716963740065694">
<ele>367</ele>
<time>2024-05-07T11:25:49Z</time>
</trkpt>
<trkpt lat="48.96667096763849" lon="9.71697136759758">
<ele>366.8</ele>
<time>2024-05-07T11:25:50Z</time>
</trkpt>
<trkpt lat="48.96673198789358" lon="9.716988550499082">
<ele>366.6</ele>
<time>2024-05-07T11:25:51Z</time>
</trkpt>
<trkpt lat="48.96679686382413" lon="9.717006655409932">
<ele>366.4</ele>
<time>2024-05-07T11:25:52Z</time>
</trkpt>
<trkpt lat="48.96685402840376" lon="9.717028615996242">
<ele>366.2</ele>
<time>2024-05-07T11:25:53Z</time>
</trkpt>
<trkpt lat="48.96691127680242" lon="9.717060048133137">
<ele>366.2</ele>
<time>2024-05-07T11:25:54Z</time>
</trkpt>
<trkpt lat="48.96696852520108" lon="9.717096257954836">
<ele>366</ele>
<time>2024-05-07T11:25:55Z</time>
</trkpt>
<trkpt lat="48.96702954545617" lon="9.717140179127457">
<ele>366</ele>
<time>2024-05-07T11:25:56Z</time>
</trkpt>
<trkpt lat="48.9670867100358" lon="9.717191644012928">
<ele>365.8</ele>
<time>2024-05-07T11:25:57Z</time>
</trkpt>
<trkpt lat="48.96714395843446" lon="9.71724503673613">
<ele>365.8</ele>
<time>2024-05-07T11:25:58Z</time>
</trkpt>
<trkpt lat="48.96720497868955" lon="9.717301363125443">
<ele>365.8</ele>
<time>2024-05-07T11:25:59Z</time>
</trkpt>
<trkpt lat="48.96726222708821" lon="9.717368083074687">
<ele>365.6</ele>
<time>2024-05-07T11:26:00Z</time>
</trkpt>
<trkpt lat="48.967315619811416" lon="9.7174434363842">
<ele>365.6</ele>
<time>2024-05-07T11:26:01Z</time>
</trkpt>
<trkpt lat="48.96737286821008" lon="9.717512084171176">
<ele>365.6</ele>
<time>2024-05-07T11:26:02Z</time>
</trkpt>
<trkpt lat="48.96743003278971" lon="9.717581737786531">
<ele>365.6</ele>
<time>2024-05-07T11:26:03Z</time>
</trkpt>
<trkpt lat="48.96749113686383" lon="9.717651307582855">
<ele>365.4</ele>
<time>2024-05-07T11:26:04Z</time>
</trkpt>
<trkpt lat="48.96755215711892" lon="9.71772188320756">
<ele>365.4</ele>
<time>2024-05-07T11:26:05Z</time>
</trkpt>
<trkpt lat="48.967613177374005" lon="9.717791536822917">
<ele>365.2</ele>
<time>2024-05-07T11:26:06Z</time>
</trkpt>
<trkpt lat="48.96767042577267" lon="9.717863034456968">
<ele>365.2</ele>
<time>2024-05-07T11:26:07Z</time>
</trkpt>
<trkpt lat="48.96773144602776" lon="9.717936459928753">
<ele>365</ele>
<time>2024-05-07T11:26:08Z</time>
</trkpt>
<trkpt lat="48.967792466282845" lon="9.718008041381836">
<ele>364.8</ele>
<time>2024-05-07T11:26:09Z</time>
</trkpt>
<trkpt lat="48.96785348653793" lon="9.71807953901589">
<ele>364.4</ele>
<time>2024-05-07T11:26:10Z</time>
</trkpt>
<trkpt lat="48.96791450679302" lon="9.718152042478325">
<ele>364</ele>
<time>2024-05-07T11:26:11Z</time>
</trkpt>
<trkpt lat="48.96797561086714" lon="9.718226389959456">
<ele>363.8</ele>
<time>2024-05-07T11:26:12Z</time>
</trkpt>
<trkpt lat="48.96803663112223" lon="9.718303671106696">
<ele>363.4</ele>
<time>2024-05-07T11:26:13Z</time>
</trkpt>
<trkpt lat="48.96810142323375" lon="9.71837324090302">
<ele>363</ele>
<time>2024-05-07T11:26:14Z</time>
</trkpt>
<trkpt lat="48.968166299164295" lon="9.718444822356105">
<ele>362.8</ele>
<time>2024-05-07T11:26:15Z</time>
</trkpt>
<trkpt lat="48.96823117509484" lon="9.718516319990158">
<ele>362.6</ele>
<time>2024-05-07T11:26:16Z</time>
</trkpt>
<trkpt lat="48.96829982288182" lon="9.718583039939404">
<ele>362.4</ele>
<time>2024-05-07T11:26:17Z</time>
</trkpt>
<trkpt lat="48.96837609820068" lon="9.718641210347414">
<ele>362.2</ele>
<time>2024-05-07T11:26:18Z</time>
</trkpt>
<trkpt lat="48.96844860166311" lon="9.718696530908346">
<ele>362</ele>
<time>2024-05-07T11:26:19Z</time>
</trkpt>
<trkpt lat="48.968524876981974" lon="9.718748079612851">
<ele>361.8</ele>
<time>2024-05-07T11:26:20Z</time>
</trkpt>
<trkpt lat="48.968605007976294" lon="9.718786217272282">
<ele>361.6</ele>
<time>2024-05-07T11:26:21Z</time>
</trkpt>
<trkpt lat="48.9686927665025" lon="9.718818655237556">
<ele>361.4</ele>
<time>2024-05-07T11:26:22Z</time>
</trkpt>
<trkpt lat="48.968780441209674" lon="9.718852015212178">
<ele>361.2</ele>
<time>2024-05-07T11:26:23Z</time>
</trkpt>
<trkpt lat="48.96887205541134" lon="9.718878669664264">
<ele>361</ele>
<time>2024-05-07T11:26:24Z</time>
</trkpt>
<trkpt lat="48.96895973011851" lon="9.718899708241224">
<ele>360.8</ele>
<time>2024-05-07T11:26:25Z</time>
</trkpt>
<trkpt lat="48.96905134432018" lon="9.718919740989804">
<ele>360.4</ele>
<time>2024-05-07T11:26:26Z</time>
</trkpt>
<trkpt lat="48.96913901902735" lon="9.718939773738384">
<ele>360</ele>
<time>2024-05-07T11:26:27Z</time>
</trkpt>
<trkpt lat="48.96923063322902" lon="9.71896642819047">
<ele>359.8</ele>
<time>2024-05-07T11:26:28Z</time>
</trkpt>
<trkpt lat="48.96931830793619" lon="9.718993166461589">
<ele>359.6</ele>
<time>2024-05-07T11:26:29Z</time>
</trkpt>
<trkpt lat="48.96940229460597" lon="9.719019820913672">
<ele>359.2</ele>
<time>2024-05-07T11:26:30Z</time>
</trkpt>
<trkpt lat="48.96948619745672" lon="9.719041781499982">
<ele>359</ele>
<time>2024-05-07T11:26:31Z</time>
</trkpt>
<trkpt lat="48.96956632845104" lon="9.719061814248562">
<ele>358.8</ele>
<time>2024-05-07T11:26:32Z</time>
</trkpt>
<trkpt lat="48.969646375626326" lon="9.719079919159412">
<ele>358.6</ele>
<time>2024-05-07T11:26:33Z</time>
</trkpt>
<trkpt lat="48.969726506620646" lon="9.71908662468195">
<ele>358.4</ele>
<time>2024-05-07T11:26:34Z</time>
</trkpt>
<trkpt lat="48.96981803700328" lon="9.719079919159412">
<ele>358</ele>
<time>2024-05-07T11:26:35Z</time>
</trkpt>
<trkpt lat="48.96990202367306" lon="9.71906659193337">
<ele>357.8</ele>
<time>2024-05-07T11:26:36Z</time>
</trkpt>
<trkpt lat="48.969985926523805" lon="9.719050331041217">
<ele>357.6</ele>
<time>2024-05-07T11:26:37Z</time>
</trkpt>
<trkpt lat="48.97006982937455" lon="9.719030298292637">
<ele>357.4</ele>
<time>2024-05-07T11:26:38Z</time>
</trkpt>
<trkpt lat="48.9701537322253" lon="9.7190045658499">
<ele>357</ele>
<time>2024-05-07T11:26:39Z</time>
</trkpt>
<trkpt lat="48.97023771889508" lon="9.718976905569434">
<ele>356.8</ele>
<time>2024-05-07T11:26:40Z</time>
</trkpt>
<trkpt lat="48.970321621745825" lon="9.71894832327962">
<ele>356.6</ele>
<time>2024-05-07T11:26:41Z</time>
</trkpt>
<trkpt lat="48.97040552459657" lon="9.718921585008502">
<ele>356.4</ele>
<time>2024-05-07T11:26:42Z</time>
</trkpt>
<trkpt lat="48.97049328312278" lon="9.718894930556417">
<ele>356.2</ele>
<time>2024-05-07T11:26:43Z</time>
</trkpt>
<trkpt lat="48.9705734141171" lon="9.718870120123029">
<ele>355.8</ele>
<time>2024-05-07T11:26:44Z</time>
</trkpt>
<trkpt lat="48.970657316967845" lon="9.71884530968964">
<ele>355.6</ele>
<time>2024-05-07T11:26:45Z</time>
</trkpt>
<trkpt lat="48.97074121981859" lon="9.718819577246904">
<ele>355.4</ele>
<time>2024-05-07T11:26:46Z</time>
</trkpt>
<trkpt lat="48.97082512266934" lon="9.718791916966438">
<ele>355.2</ele>
<time>2024-05-07T11:26:47Z</time>
</trkpt>
<trkpt lat="48.97091673687101" lon="9.718763334676623">
<ele>354.8</ele>
<time>2024-05-07T11:26:48Z</time>
</trkpt>
<trkpt lat="48.97100441157818" lon="9.718740452080963">
<ele>354.6</ele>
<time>2024-05-07T11:26:49Z</time>
</trkpt>
<trkpt lat="48.97109602577984" lon="9.718721341341734">
<ele>354.4</ele>
<time>2024-05-07T11:26:50Z</time>
</trkpt>
<trkpt lat="48.97118370048702" lon="9.71870994195342">
<ele>354.2</ele>
<time>2024-05-07T11:26:51Z</time>
</trkpt>
<trkpt lat="48.971271459013224" lon="9.71870700828731">
<ele>353.8</ele>
<time>2024-05-07T11:26:52Z</time>
</trkpt>
<trkpt lat="48.97135921753943" lon="9.71870700828731">
<ele>353.4</ele>
<time>2024-05-07T11:26:53Z</time>
</trkpt>
<trkpt lat="48.97144697606563" lon="9.718716563656926">
<ele>353</ele>
<time>2024-05-07T11:26:54Z</time>
</trkpt>
<trkpt lat="48.97153850644827" lon="9.718734668567777">
<ele>352.8</ele>
<time>2024-05-07T11:26:55Z</time>
</trkpt>
<trkpt lat="48.9716300368309" lon="9.718759479001164">
<ele>352.4</ele>
<time>2024-05-07T11:26:56Z</time>
</trkpt>
<trkpt lat="48.971721567213535" lon="9.718791916966438">
<ele>352.2</ele>
<time>2024-05-07T11:26:57Z</time>
</trkpt>
<trkpt lat="48.971801698207855" lon="9.718832904472947">
<ele>352</ele>
<time>2024-05-07T11:26:58Z</time>
</trkpt>
<trkpt lat="48.9718856010586" lon="9.718878669664264">
<ele>351.8</ele>
<time>2024-05-07T11:26:59Z</time>
</trkpt>
<trkpt lat="48.97196958772838" lon="9.718933068215849">
<ele>351.6</ele>
<time>2024-05-07T11:27:00Z</time>
</trkpt>
<trkpt lat="48.97204963490367" lon="9.718993166461589">
<ele>351.4</ele>
<time>2024-05-07T11:27:01Z</time>
</trkpt>
<trkpt lat="48.97212976589799" lon="9.719053264707329">
<ele>351.2</ele>
<time>2024-05-07T11:27:02Z</time>
</trkpt>
<trkpt lat="48.97220989689231" lon="9.719116128981112">
<ele>350.8</ele>
<time>2024-05-07T11:27:03Z</time>
</trkpt>
<trkpt lat="48.97228240035474" lon="9.719176227226852">
<ele>350.6</ele>
<time>2024-05-07T11:27:04Z</time>
</trkpt>
<trkpt lat="48.972354819998145" lon="9.719236325472592">
<ele>350.6</ele>
<time>2024-05-07T11:27:05Z</time>
</trkpt>
<trkpt lat="48.97241969592869" lon="9.719298351556064">
<ele>350.4</ele>
<time>2024-05-07T11:27:06Z</time>
</trkpt>
<trkpt lat="48.97248834371567" lon="9.719356521964071">
<ele>350.2</ele>
<time>2024-05-07T11:27:07Z</time>
</trkpt>
<trkpt lat="48.9725608471781" lon="9.71941653639078">
<ele>350.2</ele>
<time>2024-05-07T11:27:08Z</time>
</trkpt>
<trkpt lat="48.97262572310865" lon="9.71947663463652">
<ele>350</ele>
<time>2024-05-07T11:27:09Z</time>
</trkpt>
<trkpt lat="48.972694370895624" lon="9.719531955197452">
<ele>350</ele>
<time>2024-05-07T11:27:10Z</time>
</trkpt>
<trkpt lat="48.97275924682617" lon="9.719588197767736">
<ele>349.8</ele>
<time>2024-05-07T11:27:11Z</time>
</trkpt>
<trkpt lat="48.97282026708126" lon="9.71963974647224">
<ele>349.6</ele>
<time>2024-05-07T11:27:12Z</time>
</trkpt>
<trkpt lat="48.97288505919278" lon="9.7196969948709">
<ele>349.4</ele>
<time>2024-05-07T11:27:13Z</time>
</trkpt>
<trkpt lat="48.97294993512333" lon="9.719751309603453">
<ele>349.2</ele>
<time>2024-05-07T11:27:14Z</time>
</trkpt>
<trkpt lat="48.9730185829103" lon="9.719804702326655">
<ele>348.8</ele>
<time>2024-05-07T11:27:15Z</time>
</trkpt>
<trkpt lat="48.97308345884085" lon="9.719858095049858">
<ele>348.6</ele>
<time>2024-05-07T11:27:16Z</time>
</trkpt>
<trkpt lat="48.973144479095936" lon="9.719911571592093">
<ele>348.6</ele>
<time>2024-05-07T11:27:17Z</time>
</trkpt>
<trkpt lat="48.973205499351025" lon="9.719961108639836">
<ele>348.4</ele>
<time>2024-05-07T11:27:18Z</time>
</trkpt>
<trkpt lat="48.97326651960611" lon="9.72001357935369">
<ele>348.4</ele>
<time>2024-05-07T11:27:19Z</time>
</trkpt>
<trkpt lat="48.973327623680234" lon="9.720063200220466">
<ele>348.2</ele>
<time>2024-05-07T11:27:20Z</time>
</trkpt>
<trkpt lat="48.973384788259864" lon="9.72011181525886">
<ele>348</ele>
<time>2024-05-07T11:27:21Z</time>
</trkpt>
<trkpt lat="48.973445892333984" lon="9.720159508287908">
<ele>348</ele>
<time>2024-05-07T11:27:22Z</time>
</trkpt>
<trkpt lat="48.973503056913614" lon="9.720205273479223">
<ele>347.8</ele>
<time>2024-05-07T11:27:23Z</time>
</trkpt>
<trkpt lat="48.9735640771687" lon="9.720248188823462">
<ele>347.8</ele>
<time>2024-05-07T11:27:24Z</time>
</trkpt>
<trkpt lat="48.97361369803548" lon="9.720299653708937">
<ele>347.6</ele>
<time>2024-05-07T11:27:25Z</time>
</trkpt>
<trkpt lat="48.97366709075868" lon="9.720341647043824">
<ele>347.6</ele>
<time>2024-05-07T11:27:26Z</time>
</trkpt>
<trkpt lat="48.97372433915734" lon="9.720384562388062">
<ele>347.6</ele>
<time>2024-05-07T11:27:27Z</time>
</trkpt>
<trkpt lat="48.973777731880546" lon="9.72043032757938">
<ele>347.4</ele>
<time>2024-05-07T11:27:28Z</time>
</trkpt>
<trkpt lat="48.97383498027921" lon="9.720477098599076">
<ele>347.4</ele>
<time>2024-05-07T11:27:29Z</time>
</trkpt>
<trkpt lat="48.97388837300241" lon="9.720523785799742">
<ele>347.4</ele>
<time>2024-05-07T11:27:30Z</time>
</trkpt>
<trkpt lat="48.97394176572561" lon="9.72056670114398">
<ele>347.4</ele>
<time>2024-05-07T11:27:31Z</time>
</trkpt>
<trkpt lat="48.973995158448815" lon="9.72060869447887">
<ele>347.4</ele>
<time>2024-05-07T11:27:32Z</time>
</trkpt>
<trkpt lat="48.97404855117202" lon="9.720649681985378">
<ele>347.4</ele>
<time>2024-05-07T11:27:33Z</time>
</trkpt>
<trkpt lat="48.974098172038794" lon="9.720693519338964">
<ele>347.4</ele>
<time>2024-05-07T11:27:34Z</time>
</trkpt>
<trkpt lat="48.974151564762" lon="9.720733584836124">
<ele>347.4</ele>
<time>2024-05-07T11:27:35Z</time>
</trkpt>
<trkpt lat="48.9742049574852" lon="9.720774572342634">
<ele>347.4</ele>
<time>2024-05-07T11:27:36Z</time>
</trkpt>
<trkpt lat="48.974254578351974" lon="9.720814637839794">
<ele>347.4</ele>
<time>2024-05-07T11:27:37Z</time>
</trkpt>
<trkpt lat="48.97430419921875" lon="9.720854703336954">
<ele>347.4</ele>
<time>2024-05-07T11:27:38Z</time>
</trkpt>
<trkpt lat="48.974353736266494" lon="9.720896696671844">
<ele>347.2</ele>
<time>2024-05-07T11:27:39Z</time>
</trkpt>
<trkpt lat="48.97440335713327" lon="9.720939612016082">
<ele>347.2</ele>
<time>2024-05-07T11:27:40Z</time>
</trkpt>
<trkpt lat="48.9744605217129" lon="9.720988227054477">
<ele>347.2</ele>
<time>2024-05-07T11:27:41Z</time>
</trkpt>
<trkpt lat="48.974513998255134" lon="9.721036842092872">
<ele>347</ele>
<time>2024-05-07T11:27:42Z</time>
</trkpt>
<trkpt lat="48.974567390978336" lon="9.721083613112569">
<ele>347</ele>
<time>2024-05-07T11:27:43Z</time>
</trkpt>
<trkpt lat="48.97461692802608" lon="9.721124600619078">
<ele>346.8</ele>
<time>2024-05-07T11:27:44Z</time>
</trkpt>
<trkpt lat="48.97467417642474" lon="9.721166593953969">
<ele>346.8</ele>
<time>2024-05-07T11:27:45Z</time>
</trkpt>
<trkpt lat="48.9747314248234" lon="9.721211353316903">
<ele>346.6</ele>
<time>2024-05-07T11:27:46Z</time>
</trkpt>
<trkpt lat="48.97478858940303" lon="9.72125619649887">
<ele>346.4</ele>
<time>2024-05-07T11:27:47Z</time>
</trkpt>
<trkpt lat="48.97484206594527" lon="9.72130011767149">
<ele>346.2</ele>
<time>2024-05-07T11:27:48Z</time>
</trkpt>
<trkpt lat="48.97489545866847" lon="9.721344877034426">
<ele>346</ele>
<time>2024-05-07T11:27:49Z</time>
</trkpt>
<trkpt lat="48.974944995716214" lon="9.721386870369315">
<ele>345.8</ele>
<time>2024-05-07T11:27:50Z</time>
</trkpt>
<trkpt lat="48.97499847225845" lon="9.721429785713552">
<ele>345.6</ele>
<time>2024-05-07T11:27:51Z</time>
</trkpt>
<trkpt lat="48.97505186498165" lon="9.721471779048445">
<ele>345.6</ele>
<time>2024-05-07T11:27:52Z</time>
</trkpt>
<trkpt lat="48.97510902956128" lon="9.72151469439268">
<ele>345.4</ele>
<time>2024-05-07T11:27:53Z</time>
</trkpt>
<trkpt lat="48.97516250610352" lon="9.721559453755615">
<ele>345.4</ele>
<time>2024-05-07T11:27:54Z</time>
</trkpt>
<trkpt lat="48.975219670683146" lon="9.721605218946934">
<ele>345.4</ele>
<time>2024-05-07T11:27:55Z</time>
</trkpt>
<trkpt lat="48.97527691908181" lon="9.72165291197598">
<ele>345.2</ele>
<time>2024-05-07T11:27:56Z</time>
</trkpt>
<trkpt lat="48.97533416748047" lon="9.721701610833406">
<ele>345.2</ele>
<time>2024-05-07T11:27:57Z</time>
</trkpt>
<trkpt lat="48.9753913320601" lon="9.7217502258718">
<ele>345.2</ele>
<time>2024-05-07T11:27:58Z</time>
</trkpt>
<trkpt lat="48.97544858045876" lon="9.721799846738575">
<ele>345</ele>
<time>2024-05-07T11:27:59Z</time>
</trkpt>
<trkpt lat="48.97551345638931" lon="9.721846533939242">
<ele>345</ele>
<time>2024-05-07T11:28:00Z</time>
</trkpt>
<trkpt lat="48.97557062096894" lon="9.721897076815369">
<ele>344.8</ele>
<time>2024-05-07T11:28:01Z</time>
</trkpt>
<trkpt lat="48.97563164122403" lon="9.721946697682142">
<ele>344.6</ele>
<time>2024-05-07T11:28:02Z</time>
</trkpt>
<trkpt lat="48.97569274529815" lon="9.721998162567616">
<ele>344.6</ele>
<time>2024-05-07T11:28:03Z</time>
</trkpt>
<trkpt lat="48.97575753740966" lon="9.72204971127212">
<ele>344.4</ele>
<time>2024-05-07T11:28:04Z</time>
</trkpt>
<trkpt lat="48.97582618519664" lon="9.722100254148245">
<ele>344.2</ele>
<time>2024-05-07T11:28:05Z</time>
</trkpt>
<trkpt lat="48.97588728927076" lon="9.722151719033718">
<ele>344.2</ele>
<time>2024-05-07T11:28:06Z</time>
</trkpt>
<trkpt lat="48.975952081382275" lon="9.72220511175692">
<ele>344</ele>
<time>2024-05-07T11:28:07Z</time>
</trkpt>
<trkpt lat="48.97601310163736" lon="9.722258504480124">
<ele>343.6</ele>
<time>2024-05-07T11:28:08Z</time>
</trkpt>
<trkpt lat="48.97607797756791" lon="9.722310053184628">
<ele>343.4</ele>
<time>2024-05-07T11:28:09Z</time>
</trkpt>
<trkpt lat="48.976138997823" lon="9.72236537374556">
<ele>343.2</ele>
<time>2024-05-07T11:28:10Z</time>
</trkpt>
<trkpt lat="48.97620010189712" lon="9.722417760640385">
<ele>343</ele>
<time>2024-05-07T11:28:11Z</time>
</trkpt>
<trkpt lat="48.97626489400864" lon="9.722471237182615">
<ele>342.8</ele>
<time>2024-05-07T11:28:12Z</time>
</trkpt>
<trkpt lat="48.976325914263725" lon="9.72252362407744">
<ele>342.4</ele>
<time>2024-05-07T11:28:13Z</time>
</trkpt>
<trkpt lat="48.97639079019427" lon="9.722575172781944">
<ele>342.2</ele>
<time>2024-05-07T11:28:14Z</time>
</trkpt>
<trkpt lat="48.97645181044936" lon="9.722626637667418">
<ele>342</ele>
<time>2024-05-07T11:28:15Z</time>
</trkpt>
<trkpt lat="48.97651668637991" lon="9.72268003039062">
<ele>341.8</ele>
<time>2024-05-07T11:28:16Z</time>
</trkpt>
<trkpt lat="48.97658156231046" lon="9.722731579095123">
<ele>341.6</ele>
<time>2024-05-07T11:28:17Z</time>
</trkpt>
<trkpt lat="48.976642582565546" lon="9.722784971818328">
<ele>341.2</ele>
<time>2024-05-07T11:28:18Z</time>
</trkpt>
<trkpt lat="48.976699747145176" lon="9.722834508866072">
<ele>341</ele>
<time>2024-05-07T11:28:19Z</time>
</trkpt>
<trkpt lat="48.97676462307573" lon="9.722885051742196">
<ele>340.6</ele>
<time>2024-05-07T11:28:20Z</time>
</trkpt>
<trkpt lat="48.97682564333081" lon="9.7229366004467">
<ele>340.4</ele>
<time>2024-05-07T11:28:21Z</time>
</trkpt>
<trkpt lat="48.97688674740493" lon="9.722986221313477">
<ele>340.2</ele>
<time>2024-05-07T11:28:22Z</time>
</trkpt>
<trkpt lat="48.97695153951645" lon="9.7230386082083">
<ele>340.2</ele>
<time>2024-05-07T11:28:23Z</time>
</trkpt>
<trkpt lat="48.97701255977154" lon="9.723086301237345">
<ele>340</ele>
<time>2024-05-07T11:28:24Z</time>
</trkpt>
<trkpt lat="48.977077435702085" lon="9.723130222409964">
<ele>339.8</ele>
<time>2024-05-07T11:28:25Z</time>
</trkpt>
<trkpt lat="48.977138455957174" lon="9.723177831619978">
<ele>339.8</ele>
<time>2024-05-07T11:28:26Z</time>
</trkpt>
<trkpt lat="48.97720333188772" lon="9.723230302333832">
<ele>339.8</ele>
<time>2024-05-07T11:28:27Z</time>
</trkpt>
<trkpt lat="48.97726435214281" lon="9.723277995362878">
<ele>339.8</ele>
<time>2024-05-07T11:28:28Z</time>
</trkpt>
<trkpt lat="48.9773253723979" lon="9.723328538239002">
<ele>339.6</ele>
<time>2024-05-07T11:28:29Z</time>
</trkpt>
<trkpt lat="48.97738639265299" lon="9.723380086943507">
<ele>339.6</ele>
<time>2024-05-07T11:28:30Z</time>
</trkpt>
<trkpt lat="48.97744749672711" lon="9.72343155182898">
<ele>339.6</ele>
<time>2024-05-07T11:28:31Z</time>
</trkpt>
<trkpt lat="48.9775085169822" lon="9.723484944552183">
<ele>339.6</ele>
<time>2024-05-07T11:28:32Z</time>
</trkpt>
<trkpt lat="48.97756953723729" lon="9.72353171557188">
<ele>339.6</ele>
<time>2024-05-07T11:28:33Z</time>
</trkpt>
<trkpt lat="48.97762678563595" lon="9.723580330610275">
<ele>339.4</ele>
<time>2024-05-07T11:28:34Z</time>
</trkpt>
<trkpt lat="48.97768780589104" lon="9.72362802363932">
<ele>339.2</ele>
<time>2024-05-07T11:28:35Z</time>
</trkpt>
<trkpt lat="48.9777450542897" lon="9.723676638677716">
<ele>339</ele>
<time>2024-05-07T11:28:36Z</time>
</trkpt>
<trkpt lat="48.97780221886933" lon="9.723721481859684">
<ele>339</ele>
<time>2024-05-07T11:28:37Z</time>
</trkpt>
<trkpt lat="48.97785946726799" lon="9.72376816906035">
<ele>338.8</ele>
<time>2024-05-07T11:28:38Z</time>
</trkpt>
<trkpt lat="48.97791671566665" lon="9.723814940080048">
<ele>338.6</ele>
<time>2024-05-07T11:28:39Z</time>
</trkpt>
<trkpt lat="48.977970108389854" lon="9.723859783262014">
<ele>338.4</ele>
<time>2024-05-07T11:28:40Z</time>
</trkpt>
<trkpt lat="48.97803112864494" lon="9.72390647046268">
<ele>338.4</ele>
<time>2024-05-07T11:28:41Z</time>
</trkpt>
<trkpt lat="48.978088377043605" lon="9.723950307816269">
<ele>338.2</ele>
<time>2024-05-07T11:28:42Z</time>
</trkpt>
<trkpt lat="48.978149397298694" lon="9.723999928683044">
<ele>338</ele>
<time>2024-05-07T11:28:43Z</time>
</trkpt>
<trkpt lat="48.97820656187832" lon="9.72404669970274">
<ele>338</ele>
<time>2024-05-07T11:28:44Z</time>
</trkpt>
<trkpt lat="48.97826003842056" lon="9.724093386903403">
<ele>337.8</ele>
<time>2024-05-07T11:28:45Z</time>
</trkpt>
<trkpt lat="48.97831720300019" lon="9.724140157923102">
<ele>337.6</ele>
<time>2024-05-07T11:28:46Z</time>
</trkpt>
<trkpt lat="48.97837059572339" lon="9.724186845123768">
<ele>337.4</ele>
<time>2024-05-07T11:28:47Z</time>
</trkpt>
<trkpt lat="48.97842784412205" lon="9.724234538152814">
<ele>337.2</ele>
<time>2024-05-07T11:28:48Z</time>
</trkpt>
<trkpt lat="48.978485092520714" lon="9.72428030334413">
<ele>337</ele>
<time>2024-05-07T11:28:49Z</time>
</trkpt>
<trkpt lat="48.97853848524392" lon="9.724325146526098">
<ele>337</ele>
<time>2024-05-07T11:28:50Z</time>
</trkpt>
<trkpt lat="48.97859187796712" lon="9.724372839555144">
<ele>336.8</ele>
<time>2024-05-07T11:28:51Z</time>
</trkpt>
<trkpt lat="48.97864527069032" lon="9.724423382431269">
<ele>336.8</ele>
<time>2024-05-07T11:28:52Z</time>
</trkpt>
<trkpt lat="48.978698663413525" lon="9.724470069631934">
<ele>336.6</ele>
<time>2024-05-07T11:28:53Z</time>
</trkpt>
<trkpt lat="48.978755911812186" lon="9.724516840651631">
<ele>336.4</ele>
<time>2024-05-07T11:28:54Z</time>
</trkpt>
<trkpt lat="48.97881316021085" lon="9.7245616838336">
<ele>336.4</ele>
<time>2024-05-07T11:28:55Z</time>
</trkpt>
<trkpt lat="48.97886655293405" lon="9.724603593349457">
<ele>336.2</ele>
<time>2024-05-07T11:28:56Z</time>
</trkpt>
<trkpt lat="48.97892371751368" lon="9.724646508693697">
<ele>335.8</ele>
<time>2024-05-07T11:28:57Z</time>
</trkpt>
<trkpt lat="48.97898096591234" lon="9.724693279713392">
<ele>335.6</ele>
<time>2024-05-07T11:28:58Z</time>
</trkpt>
<trkpt lat="48.979034358635545" lon="9.724739966914058">
<ele>335.4</ele>
<time>2024-05-07T11:28:59Z</time>
</trkpt>
<trkpt lat="48.979091607034206" lon="9.724786737933757">
<ele>335.2</ele>
<time>2024-05-07T11:29:00Z</time>
</trkpt>
<trkpt lat="48.97914499975741" lon="9.72483342513442">
<ele>335</ele>
<time>2024-05-07T11:29:01Z</time>
</trkpt>
<trkpt lat="48.97919839248061" lon="9.72487634047866">
<ele>334.8</ele>
<time>2024-05-07T11:29:02Z</time>
</trkpt>
<trkpt lat="48.97925564087927" lon="9.724921183660626">
<ele>334.6</ele>
<time>2024-05-07T11:29:03Z</time>
</trkpt>
<trkpt lat="48.97930903360248" lon="9.724966948851945">
<ele>334.4</ele>
<time>2024-05-07T11:29:04Z</time>
</trkpt>
<trkpt lat="48.97935865446925" lon="9.72501179203391">
<ele>334.2</ele>
<time>2024-05-07T11:29:05Z</time>
</trkpt>
<trkpt lat="48.979408191516995" lon="9.725056635215878">
<ele>334.2</ele>
<time>2024-05-07T11:29:06Z</time>
</trkpt>
<trkpt lat="48.97945781238377" lon="9.725101394578816">
<ele>334</ele>
<time>2024-05-07T11:29:07Z</time>
</trkpt>
<trkpt lat="48.979511205106974" lon="9.725145315751432">
<ele>334</ele>
<time>2024-05-07T11:29:08Z</time>
</trkpt>
<trkpt lat="48.979564597830176" lon="9.725186303257942">
<ele>334</ele>
<time>2024-05-07T11:29:09Z</time>
</trkpt>
<trkpt lat="48.97961421869695" lon="9.725228296592832">
<ele>334</ele>
<time>2024-05-07T11:29:10Z</time>
</trkpt>
<trkpt lat="48.979667611420155" lon="9.72527020610869">
<ele>334</ele>
<time>2024-05-07T11:29:11Z</time>
</trkpt>
<trkpt lat="48.97972100414336" lon="9.72531127743423">
<ele>334</ele>
<time>2024-05-07T11:29:12Z</time>
</trkpt>
<trkpt lat="48.97977439686656" lon="9.725355114787815">
<ele>334</ele>
<time>2024-05-07T11:29:13Z</time>
</trkpt>
<trkpt lat="48.979824017733335" lon="9.725398030132055">
<ele>334</ele>
<time>2024-05-07T11:29:14Z</time>
</trkpt>
<trkpt lat="48.97987741045654" lon="9.725441867485642">
<ele>334</ele>
<time>2024-05-07T11:29:15Z</time>
</trkpt>
<trkpt lat="48.9799346588552" lon="9.72548478282988">
<ele>333.8</ele>
<time>2024-05-07T11:29:16Z</time>
</trkpt>
<trkpt lat="48.9799880515784" lon="9.7255287040025">
<ele>333.8</ele>
<time>2024-05-07T11:29:17Z</time>
</trkpt>
<trkpt lat="48.980041444301605" lon="9.725571619346738">
<ele>333.8</ele>
<time>2024-05-07T11:29:18Z</time>
</trkpt>
<trkpt lat="48.98009483702481" lon="9.725614534690976">
<ele>333.8</ele>
<time>2024-05-07T11:29:19Z</time>
</trkpt>
<trkpt lat="48.98014831356704" lon="9.725658372044563">
<ele>333.8</ele>
<time>2024-05-07T11:29:20Z</time>
</trkpt>
<trkpt lat="48.980201706290245" lon="9.725700365379453">
<ele>333.8</ele>
<time>2024-05-07T11:29:21Z</time>
</trkpt>
<trkpt lat="48.98025124333799" lon="9.725736575201154">
<ele>333.8</ele>
<time>2024-05-07T11:29:22Z</time>
</trkpt>
<trkpt lat="48.98030463606119" lon="9.725771863013506">
<ele>334</ele>
<time>2024-05-07T11:29:23Z</time>
</trkpt>
<trkpt lat="48.980358112603426" lon="9.725805222988129">
<ele>334</ele>
<time>2024-05-07T11:29:24Z</time>
</trkpt>
<trkpt lat="48.980415277183056" lon="9.725836738944054">
<ele>334</ele>
<time>2024-05-07T11:29:25Z</time>
</trkpt>
<trkpt lat="48.98047252558172" lon="9.72586339339614">
<ele>334</ele>
<time>2024-05-07T11:29:26Z</time>
</trkpt>
<trkpt lat="48.98052977398038" lon="9.725886275991796">
<ele>334</ele>
<time>2024-05-07T11:29:27Z</time>
</trkpt>
<trkpt lat="48.98058316670358" lon="9.725906308740376">
<ele>334</ele>
<time>2024-05-07T11:29:28Z</time>
</trkpt>
<trkpt lat="48.98064418695867" lon="9.725925419479609">
<ele>333.8</ele>
<time>2024-05-07T11:29:29Z</time>
</trkpt>
<trkpt lat="48.98070520721376" lon="9.72594159655273">
<ele>333.8</ele>
<time>2024-05-07T11:29:30Z</time>
</trkpt>
<trkpt lat="48.98076622746885" lon="9.725953079760076">
<ele>333.6</ele>
<time>2024-05-07T11:29:31Z</time>
</trkpt>
<trkpt lat="48.98082733154297" lon="9.72596162930131">
<ele>333.6</ele>
<time>2024-05-07T11:29:32Z</time>
</trkpt>
<trkpt lat="48.98088835179806" lon="9.725957857444882">
<ele>333.4</ele>
<time>2024-05-07T11:29:33Z</time>
</trkpt>
<trkpt lat="48.980953143909574" lon="9.725952073931694">
<ele>333.2</ele>
<time>2024-05-07T11:29:34Z</time>
</trkpt>
<trkpt lat="48.981014247983694" lon="9.725939668715">
<ele>333.2</ele>
<time>2024-05-07T11:29:35Z</time>
</trkpt>
<trkpt lat="48.98107141256333" lon="9.725928269326689">
<ele>333.2</ele>
<time>2024-05-07T11:29:36Z</time>
</trkpt>
<trkpt lat="48.98113243281841" lon="9.725918713957071">
<ele>333</ele>
<time>2024-05-07T11:29:37Z</time>
</trkpt>
<trkpt lat="48.98119353689253" lon="9.7259034588933">
<ele>333</ele>
<time>2024-05-07T11:29:38Z</time>
</trkpt>
<trkpt lat="48.98125070147216" lon="9.725890131667256">
<ele>332.8</ele>
<time>2024-05-07T11:29:39Z</time>
</trkpt>
<trkpt lat="48.98131172172725" lon="9.725876804441214">
<ele>332.6</ele>
<time>2024-05-07T11:29:40Z</time>
</trkpt>
<trkpt lat="48.981365198269486" lon="9.72586154937744">
<ele>332.6</ele>
<time>2024-05-07T11:29:41Z</time>
</trkpt>
<trkpt lat="48.981426218524575" lon="9.72584151662886">
<ele>332.4</ele>
<time>2024-05-07T11:29:42Z</time>
</trkpt>
<trkpt lat="48.981487238779664" lon="9.725819556042552">
<ele>332.2</ele>
<time>2024-05-07T11:29:43Z</time>
</trkpt>
<trkpt lat="48.98154825903475" lon="9.725799523293972">
<ele>332</ele>
<time>2024-05-07T11:29:44Z</time>
</trkpt>
<trkpt lat="48.981605507433414" lon="9.72578041255474">
<ele>331.8</ele>
<time>2024-05-07T11:29:45Z</time>
</trkpt>
<trkpt lat="48.98166267201304" lon="9.725763313472273">
<ele>331.6</ele>
<time>2024-05-07T11:29:46Z</time>
</trkpt>
<trkpt lat="48.981719920411706" lon="9.725741352885962">
<ele>331.4</ele>
<time>2024-05-07T11:29:47Z</time>
</trkpt>
<trkpt lat="48.981780940666795" lon="9.725721320137382">
<ele>331.2</ele>
<time>2024-05-07T11:29:48Z</time>
</trkpt>
<trkpt lat="48.981838189065456" lon="9.725701287388802">
<ele>331</ele>
<time>2024-05-07T11:29:49Z</time>
</trkpt>
<trkpt lat="48.981899209320545" lon="9.725683182477953">
<ele>331</ele>
<time>2024-05-07T11:29:50Z</time>
</trkpt>
<trkpt lat="48.98195645771921" lon="9.725666921585798">
<ele>330.8</ele>
<time>2024-05-07T11:29:51Z</time>
</trkpt>
<trkpt lat="48.982017477974296" lon="9.725651666522026">
<ele>331</ele>
<time>2024-05-07T11:29:52Z</time>
</trkpt>
<trkpt lat="48.982078498229384" lon="9.725638339295983">
<ele>331</ele>
<time>2024-05-07T11:29:53Z</time>
</trkpt>
<trkpt lat="48.982135746628046" lon="9.725621156394482">
<ele>331</ele>
<time>2024-05-07T11:29:54Z</time>
</trkpt>
<trkpt lat="48.98219291120768" lon="9.725601123645902">
<ele>331</ele>
<time>2024-05-07T11:29:55Z</time>
</trkpt>
<trkpt lat="48.98224638774991" lon="9.725583018735051">
<ele>331</ele>
<time>2024-05-07T11:29:56Z</time>
</trkpt>
<trkpt lat="48.982307408005" lon="9.7255649138242">
<ele>331</ele>
<time>2024-05-07T11:29:57Z</time>
</trkpt>
<trkpt lat="48.98236457258463" lon="9.72554680891335">
<ele>331</ele>
<time>2024-05-07T11:29:58Z</time>
</trkpt>
<trkpt lat="48.98242182098329" lon="9.72552677616477">
<ele>331</ele>
<time>2024-05-07T11:29:59Z</time>
</trkpt>
<trkpt lat="48.98247906938195" lon="9.72550674341619">
<ele>331</ele>
<time>2024-05-07T11:30:00Z</time>
</trkpt>
<trkpt lat="48.98253623396158" lon="9.725489560514688">
<ele>331</ele>
<time>2024-05-07T11:30:01Z</time>
</trkpt>
<trkpt lat="48.98259348236024" lon="9.725471455603838">
<ele>330.8</ele>
<time>2024-05-07T11:30:02Z</time>
</trkpt>
<trkpt lat="48.982650730758905" lon="9.725455278530715">
<ele>330.8</ele>
<time>2024-05-07T11:30:03Z</time>
</trkpt>
<trkpt lat="48.982707895338535" lon="9.725440023466945">
<ele>330.8</ele>
<time>2024-05-07T11:30:04Z</time>
</trkpt>
<trkpt lat="48.9827651437372" lon="9.72542468458414">
<ele>330.6</ele>
<time>2024-05-07T11:30:05Z</time>
</trkpt>
<trkpt lat="48.9828185364604" lon="9.72540850751102">
<ele>330.6</ele>
<time>2024-05-07T11:30:06Z</time>
</trkpt>
<trkpt lat="48.98287578485906" lon="9.725391324609518">
<ele>330.4</ele>
<time>2024-05-07T11:30:07Z</time>
</trkpt>
<trkpt lat="48.98293303325772" lon="9.725373219698668">
<ele>330.2</ele>
<time>2024-05-07T11:30:08Z</time>
</trkpt>
<trkpt lat="48.982986425980926" lon="9.725355114787815">
<ele>330.2</ele>
<time>2024-05-07T11:30:09Z</time>
</trkpt>
<trkpt lat="48.983043590560555" lon="9.725341787561774">
<ele>330</ele>
<time>2024-05-07T11:30:10Z</time>
</trkpt>
<trkpt lat="48.98310083895922" lon="9.7253283765167">
<ele>329.8</ele>
<time>2024-05-07T11:30:11Z</time>
</trkpt>
<trkpt lat="48.98315808735788" lon="9.725315049290655">
<ele>329.6</ele>
<time>2024-05-07T11:30:12Z</time>
</trkpt>
<trkpt lat="48.98321525193751" lon="9.725297866389155">
<ele>329.6</ele>
<time>2024-05-07T11:30:13Z</time>
</trkpt>
<trkpt lat="48.98326872847974" lon="9.725283617153764">
<ele>329.4</ele>
<time>2024-05-07T11:30:14Z</time>
</trkpt>
<trkpt lat="48.983322121202946" lon="9.725268362089992">
<ele>329.4</ele>
<time>2024-05-07T11:30:15Z</time>
</trkpt>
<trkpt lat="48.98337551392615" lon="9.725256878882648">
<ele>329.2</ele>
<time>2024-05-07T11:30:16Z</time>
</trkpt>
<trkpt lat="48.98342890664935" lon="9.725243551656604">
<ele>329.2</ele>
<time>2024-05-07T11:30:17Z</time>
</trkpt>
<trkpt lat="48.98347852751613" lon="9.725226368755102">
<ele>329</ele>
<time>2024-05-07T11:30:18Z</time>
</trkpt>
<trkpt lat="48.98353569209576" lon="9.72521010786295">
<ele>328.8</ele>
<time>2024-05-07T11:30:19Z</time>
</trkpt>
<trkpt lat="48.98358916863799" lon="9.725194852799175">
<ele>328.8</ele>
<time>2024-05-07T11:30:20Z</time>
</trkpt>
<trkpt lat="48.983642561361194" lon="9.725174903869627">
<ele>328.6</ele>
<time>2024-05-07T11:30:21Z</time>
</trkpt>
<trkpt lat="48.983699725940824" lon="9.725158642977476">
<ele>328.6</ele>
<time>2024-05-07T11:30:22Z</time>
</trkpt>
<trkpt lat="48.98375320248306" lon="9.725143387913704">
<ele>328.4</ele>
<time>2024-05-07T11:30:23Z</time>
</trkpt>
<trkpt lat="48.98380659520626" lon="9.72513198852539">
<ele>328.4</ele>
<time>2024-05-07T11:30:24Z</time>
</trkpt>
<trkpt lat="48.98385998792946" lon="9.725118577480316">
<ele>328.4</ele>
<time>2024-05-07T11:30:25Z</time>
</trkpt>
<trkpt lat="48.983913380652666" lon="9.725103322416544">
<ele>328.4</ele>
<time>2024-05-07T11:30:26Z</time>
</trkpt>
<trkpt lat="48.98396677337587" lon="9.725088067352772">
<ele>328.4</ele>
<time>2024-05-07T11:30:27Z</time>
</trkpt>
<trkpt lat="48.98402402177453" lon="9.72506996244192">
<ele>328.4</ele>
<time>2024-05-07T11:30:28Z</time>
</trkpt>
<trkpt lat="48.984073558822274" lon="9.72505185753107">
<ele>328.4</ele>
<time>2024-05-07T11:30:29Z</time>
</trkpt>
<trkpt lat="48.98412703536451" lon="9.725038446485996">
<ele>328.4</ele>
<time>2024-05-07T11:30:30Z</time>
</trkpt>
<trkpt lat="48.98417657241225" lon="9.725021347403526">
<ele>328.2</ele>
<time>2024-05-07T11:30:31Z</time>
</trkpt>
<trkpt lat="48.98422619327903" lon="9.725003242492676">
<ele>328.2</ele>
<time>2024-05-07T11:30:32Z</time>
</trkpt>
<trkpt lat="48.9842758141458" lon="9.724986981600525">
<ele>328.2</ele>
<time>2024-05-07T11:30:33Z</time>
</trkpt>
<trkpt lat="48.98432157933712" lon="9.72496979869902">
<ele>328.2</ele>
<time>2024-05-07T11:30:34Z</time>
</trkpt>
<trkpt lat="48.98437497206032" lon="9.724958399310708">
<ele>328.2</ele>
<time>2024-05-07T11:30:35Z</time>
</trkpt>
<trkpt lat="48.98442450910807" lon="9.724944988265634">
<ele>328.2</ele>
<time>2024-05-07T11:30:36Z</time>
</trkpt>
<trkpt lat="48.98447412997484" lon="9.724927889183164">
<ele>328.2</ele>
<time>2024-05-07T11:30:37Z</time>
</trkpt>
<trkpt lat="48.98452375084162" lon="9.72490970045328">
<ele>328.2</ele>
<time>2024-05-07T11:30:38Z</time>
</trkpt>
<trkpt lat="48.98457714356482" lon="9.72489159554243">
<ele>328.2</ele>
<time>2024-05-07T11:30:39Z</time>
</trkpt>
<trkpt lat="48.98463053628802" lon="9.72487449645996">
<ele>328.2</ele>
<time>2024-05-07T11:30:40Z</time>
</trkpt>
<trkpt lat="48.984687784686685" lon="9.724858235567808">
<ele>328.4</ele>
<time>2024-05-07T11:30:41Z</time>
</trkpt>
<trkpt lat="48.98474117740989" lon="9.724840130656958">
<ele>328.4</ele>
<time>2024-05-07T11:30:42Z</time>
</trkpt>
<trkpt lat="48.98479457013309" lon="9.724818170070648">
<ele>328.4</ele>
<time>2024-05-07T11:30:43Z</time>
</trkpt>
<trkpt lat="48.98484796285629" lon="9.724801992997527">
<ele>328.4</ele>
<time>2024-05-07T11:30:44Z</time>
</trkpt>
<trkpt lat="48.98489372804761" lon="9.724786737933757">
<ele>328.4</ele>
<time>2024-05-07T11:30:45Z</time>
</trkpt>
<trkpt lat="48.984943348914385" lon="9.72477332688868">
<ele>328.4</ele>
<time>2024-05-07T11:30:46Z</time>
</trkpt>
<trkpt lat="48.9849891141057" lon="9.724758071824908">
<ele>328.4</ele>
<time>2024-05-07T11:30:47Z</time>
</trkpt>
<trkpt lat="48.98503487929702" lon="9.724744744598866">
<ele>328.4</ele>
<time>2024-05-07T11:30:48Z</time>
</trkpt>
<trkpt lat="48.98507687263191" lon="9.72473518922925">
<ele>328.4</ele>
<time>2024-05-07T11:30:49Z</time>
</trkpt>
<trkpt lat="48.985122637823224" lon="9.724724711850286">
<ele>328.4</ele>
<time>2024-05-07T11:30:50Z</time>
</trkpt>
<trkpt lat="48.98516840301454" lon="9.724713312461972">
<ele>328.4</ele>
<time>2024-05-07T11:30:51Z</time>
</trkpt>
<trkpt lat="48.98521039634943" lon="9.7246980573982">
<ele>328.6</ele>
<time>2024-05-07T11:30:52Z</time>
</trkpt>
<trkpt lat="48.98525230586529" lon="9.724684646353126">
<ele>328.6</ele>
<time>2024-05-07T11:30:53Z</time>
</trkpt>
<trkpt lat="48.98529052734375" lon="9.724671319127085">
<ele>328.8</ele>
<time>2024-05-07T11:30:54Z</time>
</trkpt>
<trkpt lat="48.98532866500318" lon="9.72465799190104">
<ele>329</ele>
<time>2024-05-07T11:30:55Z</time>
</trkpt>
<trkpt lat="48.98536680266261" lon="9.724646508693697">
<ele>329</ele>
<time>2024-05-07T11:30:56Z</time>
</trkpt>
<trkpt lat="48.98540108464658" lon="9.72463795915246">
<ele>329.2</ele>
<time>2024-05-07T11:30:57Z</time>
</trkpt>
<trkpt lat="48.98543159477413" lon="9.724635109305382">
<ele>329.4</ele>
<time>2024-05-07T11:30:58Z</time>
</trkpt>
<trkpt lat="48.985454477369785" lon="9.724630331620574">
<ele>329.6</ele>
<time>2024-05-07T11:30:59Z</time>
</trkpt>
<trkpt lat="48.98546981625259" lon="9.724628403782845">
<ele>329.8</ele>
<time>2024-05-07T11:31:00Z</time>
</trkpt>
<trkpt lat="48.98548507131636" lon="9.724624631926416">
<ele>329.8</ele>
<time>2024-05-07T11:31:01Z</time>
</trkpt>
<trkpt lat="48.98549269884825" lon="9.72461985424161">
<ele>330</ele>
<time>2024-05-07T11:31:02Z</time>
</trkpt>
<trkpt lat="48.985500326380134" lon="9.72461985424161">
<ele>330</ele>
<time>2024-05-07T11:31:03Z</time>
</trkpt>
<trkpt lat="48.98550409823656" lon="9.72461985424161">
<ele>330.2</ele>
<time>2024-05-07T11:31:04Z</time>
</trkpt>
<trkpt lat="48.98550795391202" lon="9.724621698260307">
<ele>330.2</ele>
<time>2024-05-07T11:31:05Z</time>
</trkpt>
<trkpt lat="48.98551172576845" lon="9.72461985424161">
<ele>330.2</ele>
<time>2024-05-07T11:31:06Z</time>
</trkpt>
<trkpt lat="48.98550795391202" lon="9.72461985424161">
<ele>330.2</ele>
<time>2024-05-07T11:31:08Z</time>
</trkpt>
<trkpt lat="48.98551172576845" lon="9.72461792640388">
<ele>330.2</ele>
<time>2024-05-07T11:31:09Z</time>
</trkpt>
<trkpt lat="48.98552320897579" lon="9.72461792640388">
<ele>330</ele>
<time>2024-05-07T11:31:10Z</time>
</trkpt>
<trkpt lat="48.98554223589599" lon="9.724617004394531">
<ele>329.8</ele>
<time>2024-05-07T11:31:11Z</time>
</trkpt>
<trkpt lat="48.98556134663522" lon="9.724617004394531">
<ele>329.8</ele>
<time>2024-05-07T11:31:12Z</time>
</trkpt>
<trkpt lat="48.98558037355542" lon="9.724615076556802">
<ele>329.8</ele>
<time>2024-05-07T11:31:13Z</time>
</trkpt>
<trkpt lat="48.98559948429465" lon="9.724610298871994">
<ele>329.8</ele>
<time>2024-05-07T11:31:14Z</time>
</trkpt>
<trkpt lat="48.98562236689031" lon="9.724606443196537">
<ele>329.8</ele>
<time>2024-05-07T11:31:15Z</time>
</trkpt>
<trkpt lat="48.98564910516143" lon="9.724601665511727">
<ele>329.8</ele>
<time>2024-05-07T11:31:16Z</time>
</trkpt>
<trkpt lat="48.98567198775709" lon="9.72457786090672">
<ele>329.8</ele>
<time>2024-05-07T11:31:17Z</time>
</trkpt>
<trkpt lat="48.98568724282086" lon="9.724536873400211">
<ele>329.8</ele>
<time>2024-05-07T11:31:18Z</time>
</trkpt>
<trkpt lat="48.985691014677286" lon="9.724492030218244">
<ele>329.8</ele>
<time>2024-05-07T11:31:19Z</time>
</trkpt>
<trkpt lat="48.98568724282086" lon="9.72443955950439">
<ele>329.8</ele>
<time>2024-05-07T11:31:20Z</time>
</trkpt>
<trkpt lat="48.985675759613514" lon="9.724386166781189">
<ele>329.8</ele>
<time>2024-05-07T11:31:21Z</time>
</trkpt>
<trkpt lat="48.98566050454974" lon="9.724333696067331">
<ele>329.8</ele>
<time>2024-05-07T11:31:22Z</time>
</trkpt>
<trkpt lat="48.98564524948597" lon="9.7242783755064">
<ele>329.8</ele>
<time>2024-05-07T11:31:23Z</time>
</trkpt>
<trkpt lat="48.98563762195408" lon="9.724216433241963">
<ele>329.6</ele>
<time>2024-05-07T11:31:24Z</time>
</trkpt>
<trkpt lat="48.98563762195408" lon="9.724155412986876">
<ele>329.6</ele>
<time>2024-05-07T11:31:25Z</time>
</trkpt>
<trkpt lat="48.985633850097656" lon="9.724089615046978">
<ele>329.6</ele>
<time>2024-05-07T11:31:26Z</time>
</trkpt>
<trkpt lat="48.985633850097656" lon="9.72402473911643">
<ele>329.8</ele>
<time>2024-05-07T11:31:27Z</time>
</trkpt>
<trkpt lat="48.9856299944222" lon="9.723959863185884">
<ele>329.8</ele>
<time>2024-05-07T11:31:28Z</time>
</trkpt>
<trkpt lat="48.9856299944222" lon="9.723897920921443">
<ele>330</ele>
<time>2024-05-07T11:31:29Z</time>
</trkpt>
<trkpt lat="48.9856299944222" lon="9.723834972828628">
<ele>330.2</ele>
<time>2024-05-07T11:31:30Z</time>
</trkpt>
<trkpt lat="48.9856299944222" lon="9.723772024735808">
<ele>330.4</ele>
<time>2024-05-07T11:31:31Z</time>
</trkpt>
<trkpt lat="48.9856299944222" lon="9.723705220967531">
<ele>330.4</ele>
<time>2024-05-07T11:31:32Z</time>
</trkpt>
<trkpt lat="48.9856299944222" lon="9.723634645342829">
<ele>330.6</ele>
<time>2024-05-07T11:31:33Z</time>
</trkpt>
<trkpt lat="48.9856299944222" lon="9.723565075546505">
<ele>330.8</ele>
<time>2024-05-07T11:31:34Z</time>
</trkpt>
<trkpt lat="48.98562613874674" lon="9.723495421931148">
<ele>330.8</ele>
<time>2024-05-07T11:31:35Z</time>
</trkpt>
<trkpt lat="48.98562613874674" lon="9.723424846306443">
<ele>330.8</ele>
<time>2024-05-07T11:31:36Z</time>
</trkpt>
<trkpt lat="48.98562236689031" lon="9.723361898213623">
<ele>331</ele>
<time>2024-05-07T11:31:37Z</time>
</trkpt>
<trkpt lat="48.98562236689031" lon="9.723298028111458">
<ele>331</ele>
<time>2024-05-07T11:31:38Z</time>
</trkpt>
<trkpt lat="48.98561851121485" lon="9.723237007856367">
<ele>331</ele>
<time>2024-05-07T11:31:39Z</time>
</trkpt>
<trkpt lat="48.98561851121485" lon="9.723171209916472">
<ele>331.2</ele>
<time>2024-05-07T11:31:40Z</time>
</trkpt>
<trkpt lat="48.98561851121485" lon="9.723106333985925">
<ele>331.2</ele>
<time>2024-05-07T11:31:41Z</time>
</trkpt>
<trkpt lat="48.985614739358425" lon="9.72303961403668">
<ele>331.2</ele>
<time>2024-05-07T11:31:42Z</time>
</trkpt>
<trkpt lat="48.985614739358425" lon="9.722969960421324">
<ele>331.2</ele>
<time>2024-05-07T11:31:43Z</time>
</trkpt>
<trkpt lat="48.98561851121485" lon="9.722901312634349">
<ele>331.2</ele>
<time>2024-05-07T11:31:44Z</time>
</trkpt>
<trkpt lat="48.98561851121485" lon="9.722827887162566">
<ele>331.2</ele>
<time>2024-05-07T11:31:45Z</time>
</trkpt>
<trkpt lat="48.98561851121485" lon="9.722749684005976">
<ele>331.2</ele>
<time>2024-05-07T11:31:46Z</time>
</trkpt>
<trkpt lat="48.98561851121485" lon="9.722669553011656">
<ele>331.2</ele>
<time>2024-05-07T11:31:47Z</time>
</trkpt>
<trkpt lat="48.985614739358425" lon="9.722590427845716">
<ele>331.2</ele>
<time>2024-05-07T11:31:48Z</time>
</trkpt>
<trkpt lat="48.985610883682966" lon="9.722510296851397">
<ele>331.2</ele>
<time>2024-05-07T11:31:49Z</time>
</trkpt>
<trkpt lat="48.98560711182654" lon="9.72242832183838">
<ele>331.2</ele>
<time>2024-05-07T11:31:50Z</time>
</trkpt>
<trkpt lat="48.98560711182654" lon="9.72234626300633">
<ele>331.2</ele>
<time>2024-05-07T11:31:51Z</time>
</trkpt>
<trkpt lat="48.985610883682966" lon="9.72226713784039">
<ele>331.2</ele>
<time>2024-05-07T11:31:52Z</time>
</trkpt>
<trkpt lat="48.985610883682966" lon="9.72218507900834">
<ele>331.2</ele>
<time>2024-05-07T11:31:53Z</time>
</trkpt>
<trkpt lat="48.985610883682966" lon="9.722100254148245">
<ele>331.2</ele>
<time>2024-05-07T11:31:54Z</time>
</trkpt>
<trkpt lat="48.98560711182654" lon="9.722015345469115">
<ele>331.2</ele>
<time>2024-05-07T11:31:55Z</time>
</trkpt>
<trkpt lat="48.98560325615108" lon="9.72193144261837">
<ele>331.2</ele>
<time>2024-05-07T11:31:56Z</time>
</trkpt>
<trkpt lat="48.98560325615108" lon="9.721846533939242">
<ele>331</ele>
<time>2024-05-07T11:31:57Z</time>
</trkpt>
<trkpt lat="48.98559948429465" lon="9.721757853403687">
<ele>330.8</ele>
<time>2024-05-07T11:31:58Z</time>
</trkpt>
<trkpt lat="48.985595628619194" lon="9.72167294472456">
<ele>330.8</ele>
<time>2024-05-07T11:31:59Z</time>
</trkpt>
<trkpt lat="48.985595628619194" lon="9.721586192026734">
<ele>330.6</ele>
<time>2024-05-07T11:32:00Z</time>
</trkpt>
<trkpt lat="48.98559185676277" lon="9.721507066860797">
<ele>330.4</ele>
<time>2024-05-07T11:32:01Z</time>
</trkpt>
<trkpt lat="48.98559185676277" lon="9.721426935866477">
<ele>330.4</ele>
<time>2024-05-07T11:32:02Z</time>
</trkpt>
<trkpt lat="48.985595628619194" lon="9.721344877034426">
<ele>330.2</ele>
<time>2024-05-07T11:32:03Z</time>
</trkpt>
<trkpt lat="48.98559185676277" lon="9.721264829859138">
<ele>330.2</ele>
<time>2024-05-07T11:32:04Z</time>
</trkpt>
<trkpt lat="48.98559185676277" lon="9.721183776855469">
<ele>330</ele>
<time>2024-05-07T11:32:05Z</time>
</trkpt>
<trkpt lat="48.98559185676277" lon="9.72109979018569">
<ele>330</ele>
<time>2024-05-07T11:32:06Z</time>
</trkpt>
<trkpt lat="48.985595628619194" lon="9.721019743010402">
<ele>330</ele>
<time>2024-05-07T11:32:07Z</time>
</trkpt>
<trkpt lat="48.985595628619194" lon="9.720939612016082">
<ele>330</ele>
<time>2024-05-07T11:32:08Z</time>
</trkpt>
<trkpt lat="48.985595628619194" lon="9.720859481021762">
<ele>329.8</ele>
<time>2024-05-07T11:32:09Z</time>
</trkpt>
<trkpt lat="48.98559948429465" lon="9.720780355855824">
<ele>329.8</ele>
<time>2024-05-07T11:32:10Z</time>
</trkpt>
<trkpt lat="48.98559948429465" lon="9.72070307470858">
<ele>329.8</ele>
<time>2024-05-07T11:32:11Z</time>
</trkpt>
<trkpt lat="48.98559948429465" lon="9.72062487155199">
<ele>329.8</ele>
<time>2024-05-07T11:32:12Z</time>
</trkpt>
<trkpt lat="48.98559948429465" lon="9.72054859623313">
<ele>329.6</ele>
<time>2024-05-07T11:32:13Z</time>
</trkpt>
<trkpt lat="48.98559948429465" lon="9.720471315085888">
<ele>329.4</ele>
<time>2024-05-07T11:32:14Z</time>
</trkpt>
<trkpt lat="48.98559948429465" lon="9.720395039767029">
<ele>329.2</ele>
<time>2024-05-07T11:32:15Z</time>
</trkpt>
<trkpt lat="48.985595628619194" lon="9.720317758619784">
<ele>329.2</ele>
<time>2024-05-07T11:32:16Z</time>
</trkpt>
<trkpt lat="48.985595628619194" lon="9.720239639282228">
<ele>329.2</ele>
<time>2024-05-07T11:32:17Z</time>
</trkpt>
<trkpt lat="48.985595628619194" lon="9.720158502459526">
<ele>329</ele>
<time>2024-05-07T11:32:18Z</time>
</trkpt>
<trkpt lat="48.98559185676277" lon="9.720076527446508">
<ele>329</ele>
<time>2024-05-07T11:32:19Z</time>
</trkpt>
<trkpt lat="48.98559185676277" lon="9.719998324289918">
<ele>329</ele>
<time>2024-05-07T11:32:20Z</time>
</trkpt>
<trkpt lat="48.98559185676277" lon="9.71991534344852">
<ele>329</ele>
<time>2024-05-07T11:32:21Z</time>
</trkpt>
<trkpt lat="48.985595628619194" lon="9.719833368435502">
<ele>329</ele>
<time>2024-05-07T11:32:22Z</time>
</trkpt>
<trkpt lat="48.985595628619194" lon="9.719755165278912">
<ele>329</ele>
<time>2024-05-07T11:32:23Z</time>
</trkpt>
<trkpt lat="48.985595628619194" lon="9.71967788413167">
<ele>329</ele>
<time>2024-05-07T11:32:24Z</time>
</trkpt>
<trkpt lat="48.985595628619194" lon="9.719601608812807">
<ele>329</ele>
<time>2024-05-07T11:32:25Z</time>
</trkpt>
<trkpt lat="48.98559185676277" lon="9.719525333493948">
<ele>329</ele>
<time>2024-05-07T11:32:26Z</time>
</trkpt>
<trkpt lat="48.98558800108731" lon="9.719449980184436">
<ele>329</ele>
<time>2024-05-07T11:32:27Z</time>
</trkpt>
<trkpt lat="48.98558800108731" lon="9.719371777027844">
<ele>329</ele>
<time>2024-05-07T11:32:28Z</time>
</trkpt>
<trkpt lat="48.98558800108731" lon="9.719293573871257">
<ele>329</ele>
<time>2024-05-07T11:32:29Z</time>
</trkpt>
<trkpt lat="48.98558800108731" lon="9.719213442876937">
<ele>328.8</ele>
<time>2024-05-07T11:32:30Z</time>
</trkpt>
<trkpt lat="48.98558800108731" lon="9.719135239720345">
<ele>328.8</ele>
<time>2024-05-07T11:32:31Z</time>
</trkpt>
<trkpt lat="48.98558800108731" lon="9.719059886410832">
<ele>329</ele>
<time>2024-05-07T11:32:32Z</time>
</trkpt>
<trkpt lat="48.98558800108731" lon="9.71898646093905">
<ele>329</ele>
<time>2024-05-07T11:32:33Z</time>
</trkpt>
<trkpt lat="48.98558800108731" lon="9.718914963304996">
<ele>329</ele>
<time>2024-05-07T11:32:34Z</time>
</trkpt>
<trkpt lat="48.98558800108731" lon="9.718841537833214">
<ele>329</ele>
<time>2024-05-07T11:32:35Z</time>
</trkpt>
<trkpt lat="48.98558800108731" lon="9.718769956380129">
<ele>329</ele>
<time>2024-05-07T11:32:36Z</time>
</trkpt>
<trkpt lat="48.98558800108731" lon="9.718696530908346">
<ele>329</ele>
<time>2024-05-07T11:32:37Z</time>
</trkpt>
<trkpt lat="48.98558800108731" lon="9.718623105436563">
<ele>329</ele>
<time>2024-05-07T11:32:38Z</time>
</trkpt>
<trkpt lat="48.98558800108731" lon="9.71855160780251">
<ele>329</ele>
<time>2024-05-07T11:32:39Z</time>
</trkpt>
<trkpt lat="48.98559185676277" lon="9.718482960015535">
<ele>329.2</ele>
<time>2024-05-07T11:32:40Z</time>
</trkpt>
<trkpt lat="48.98559185676277" lon="9.71841137856245">
<ele>329.2</ele>
<time>2024-05-07T11:32:41Z</time>
</trkpt>
<trkpt lat="48.985595628619194" lon="9.718339880928395">
<ele>329.2</ele>
<time>2024-05-07T11:32:42Z</time>
</trkpt>
<trkpt lat="48.985595628619194" lon="9.718271233141422">
<ele>329.4</ele>
<time>2024-05-07T11:32:43Z</time>
</trkpt>
<trkpt lat="48.985595628619194" lon="9.718204429373143">
<ele>329.4</ele>
<time>2024-05-07T11:32:44Z</time>
</trkpt>
<trkpt lat="48.985595628619194" lon="9.718139637261627">
<ele>329.4</ele>
<time>2024-05-07T11:32:45Z</time>
</trkpt>
<trkpt lat="48.98559185676277" lon="9.718078533187509">
<ele>329.4</ele>
<time>2024-05-07T11:32:46Z</time>
</trkpt>
<trkpt lat="48.98559185676277" lon="9.7180185187608">
<ele>329.4</ele>
<time>2024-05-07T11:32:47Z</time>
</trkpt>
<trkpt lat="48.98559185676277" lon="9.717956492677333">
<ele>329.6</ele>
<time>2024-05-07T11:32:48Z</time>
</trkpt>
<trkpt lat="48.98559185676277" lon="9.717894550412892">
<ele>329.6</ele>
<time>2024-05-07T11:32:49Z</time>
</trkpt>
<trkpt lat="48.98558800108731" lon="9.717829674482346">
<ele>329.6</ele>
<time>2024-05-07T11:32:50Z</time>
</trkpt>
<trkpt lat="48.98558800108731" lon="9.717766726389527">
<ele>329.6</ele>
<time>2024-05-07T11:32:51Z</time>
</trkpt>
<trkpt lat="48.98559185676277" lon="9.71770185045898">
<ele>329.6</ele>
<time>2024-05-07T11:32:52Z</time>
</trkpt>
<trkpt lat="48.98558800108731" lon="9.717637058347464">
<ele>329.6</ele>
<time>2024-05-07T11:32:53Z</time>
</trkpt>
<trkpt lat="48.98558800108731" lon="9.717573104426265">
<ele>329.6</ele>
<time>2024-05-07T11:32:54Z</time>
</trkpt>
<trkpt lat="48.98558800108731" lon="9.717510156333448">
<ele>329.6</ele>
<time>2024-05-07T11:32:55Z</time>
</trkpt>
<trkpt lat="48.98558800108731" lon="9.717448214069009">
<ele>329.6</ele>
<time>2024-05-07T11:32:56Z</time>
</trkpt>
<trkpt lat="48.98558800108731" lon="9.71738526597619">
<ele>329.6</ele>
<time>2024-05-07T11:32:57Z</time>
</trkpt>
<trkpt lat="48.98558800108731" lon="9.717321395874023">
<ele>329.6</ele>
<time>2024-05-07T11:32:58Z</time>
</trkpt>
<trkpt lat="48.98558800108731" lon="9.717258447781203">
<ele>329.4</ele>
<time>2024-05-07T11:32:59Z</time>
</trkpt>
<trkpt lat="48.98558800108731" lon="9.717194493860006">
<ele>329.4</ele>
<time>2024-05-07T11:33:00Z</time>
</trkpt>
<trkpt lat="48.98558800108731" lon="9.71712970174849">
<ele>329.2</ele>
<time>2024-05-07T11:33:01Z</time>
</trkpt>
<trkpt lat="48.98558422923088" lon="9.717066753655672">
<ele>329.2</ele>
<time>2024-05-07T11:33:02Z</time>
</trkpt>
<trkpt lat="48.98558422923088" lon="9.717001877725124">
<ele>329.2</ele>
<time>2024-05-07T11:33:03Z</time>
</trkpt>
<trkpt lat="48.98558422923088" lon="9.716938007622955">
<ele>329.2</ele>
<time>2024-05-07T11:33:04Z</time>
</trkpt>
<trkpt lat="48.98558422923088" lon="9.71687505953014">
<ele>329.2</ele>
<time>2024-05-07T11:33:05Z</time>
</trkpt>
<trkpt lat="48.98558422923088" lon="9.7168149612844">
<ele>329</ele>
<time>2024-05-07T11:33:06Z</time>
</trkpt>
<trkpt lat="48.98558422923088" lon="9.716759640723469">
<ele>329</ele>
<time>2024-05-07T11:33:07Z</time>
</trkpt>
<trkpt lat="48.98558422923088" lon="9.716703398153186">
<ele>329</ele>
<time>2024-05-07T11:33:08Z</time>
</trkpt>
<trkpt lat="48.98558422923088" lon="9.716650005429983">
<ele>329</ele>
<time>2024-05-07T11:33:09Z</time>
</trkpt>
<trkpt lat="48.98558422923088" lon="9.716594684869053">
<ele>329</ele>
<time>2024-05-07T11:33:10Z</time>
</trkpt>
<trkpt lat="48.98558422923088" lon="9.716541208326817">
<ele>329.2</ele>
<time>2024-05-07T11:33:11Z</time>
</trkpt>
<trkpt lat="48.98558037355542" lon="9.716487815603614">
<ele>329.4</ele>
<time>2024-05-07T11:33:12Z</time>
</trkpt>
<trkpt lat="48.98558037355542" lon="9.716435428708792">
<ele>329.6</ele>
<time>2024-05-07T11:33:13Z</time>
</trkpt>
<trkpt lat="48.98558037355542" lon="9.71637818031013">
<ele>329.8</ele>
<time>2024-05-07T11:33:14Z</time>
</trkpt>
<trkpt lat="48.98558422923088" lon="9.71632000990212">
<ele>330</ele>
<time>2024-05-07T11:33:15Z</time>
</trkpt>
<trkpt lat="48.98558422923088" lon="9.716264689341187">
<ele>330</ele>
<time>2024-05-07T11:33:16Z</time>
</trkpt>
<trkpt lat="48.98558037355542" lon="9.71621699631214">
<ele>330.2</ele>
<time>2024-05-07T11:33:17Z</time>
</trkpt>
<trkpt lat="48.98558037355542" lon="9.716168381273746">
<ele>330.2</ele>
<time>2024-05-07T11:33:18Z</time>
</trkpt>
<trkpt lat="48.98558037355542" lon="9.716114988550544">
<ele>330.4</ele>
<time>2024-05-07T11:33:19Z</time>
</trkpt>
<trkpt lat="48.985576601698995" lon="9.716059667989612">
<ele>330.4</ele>
<time>2024-05-07T11:33:20Z</time>
</trkpt>
<trkpt lat="48.985576601698995" lon="9.715998647734525">
<ele>330.6</ele>
<time>2024-05-07T11:33:21Z</time>
</trkpt>
<trkpt lat="48.985572746023536" lon="9.715936621651052">
<ele>330.6</ele>
<time>2024-05-07T11:33:22Z</time>
</trkpt>
<trkpt lat="48.98556897416711" lon="9.715871745720506">
<ele>330.8</ele>
<time>2024-05-07T11:33:23Z</time>
</trkpt>
<trkpt lat="48.985572746023536" lon="9.7158011700958">
<ele>330.8</ele>
<time>2024-05-07T11:33:24Z</time>
</trkpt>
<trkpt lat="48.985576601698995" lon="9.715729672461748">
<ele>331</ele>
<time>2024-05-07T11:33:25Z</time>
</trkpt>
<trkpt lat="48.985576601698995" lon="9.715658174827697">
<ele>331</ele>
<time>2024-05-07T11:33:26Z</time>
</trkpt>
<trkpt lat="48.985572746023536" lon="9.715589443221688">
<ele>331.2</ele>
<time>2024-05-07T11:33:27Z</time>
</trkpt>
<trkpt lat="48.985576601698995" lon="9.715523645281792">
<ele>331.2</ele>
<time>2024-05-07T11:33:28Z</time>
</trkpt>
<trkpt lat="48.98558037355542" lon="9.715461703017354">
<ele>331.4</ele>
<time>2024-05-07T11:33:29Z</time>
</trkpt>
<trkpt lat="48.98558422923088" lon="9.715396827086806">
<ele>331.4</ele>
<time>2024-05-07T11:33:30Z</time>
</trkpt>
<trkpt lat="48.98558800108731" lon="9.71533010713756">
<ele>331.4</ele>
<time>2024-05-07T11:33:31Z</time>
</trkpt>
<trkpt lat="48.98558800108731" lon="9.715263303369284">
<ele>331.4</ele>
<time>2024-05-07T11:33:32Z</time>
</trkpt>
<trkpt lat="48.985595628619194" lon="9.715198511257768">
<ele>331.6</ele>
<time>2024-05-07T11:33:33Z</time>
</trkpt>
<trkpt lat="48.98559948429465" lon="9.715127935633063">
<ele>331.6</ele>
<time>2024-05-07T11:33:34Z</time>
</trkpt>
<trkpt lat="48.98560325615108" lon="9.715063059702516">
<ele>331.6</ele>
<time>2024-05-07T11:33:35Z</time>
</trkpt>
<trkpt lat="48.98560325615108" lon="9.714998183771968">
<ele>331.6</ele>
<time>2024-05-07T11:33:36Z</time>
</trkpt>
<trkpt lat="48.98560325615108" lon="9.714933391660452">
<ele>331.6</ele>
<time>2024-05-07T11:33:37Z</time>
</trkpt>
<trkpt lat="48.98560711182654" lon="9.714866587892176">
<ele>331.6</ele>
<time>2024-05-07T11:33:38Z</time>
</trkpt>
<trkpt lat="48.985614739358425" lon="9.71479986794293">
<ele>331.6</ele>
<time>2024-05-07T11:33:39Z</time>
</trkpt>
<trkpt lat="48.98561851121485" lon="9.714733064174652">
<ele>331.8</ele>
<time>2024-05-07T11:33:40Z</time>
</trkpt>
<trkpt lat="48.98562236689031" lon="9.714666344225408">
<ele>331.8</ele>
<time>2024-05-07T11:33:41Z</time>
</trkpt>
<trkpt lat="48.98562613874674" lon="9.71459954045713">
<ele>332</ele>
<time>2024-05-07T11:33:42Z</time>
</trkpt>
<trkpt lat="48.9856299944222" lon="9.714534748345612">
<ele>332</ele>
<time>2024-05-07T11:33:43Z</time>
</trkpt>
<trkpt lat="48.98563762195408" lon="9.714467944577336">
<ele>332.2</ele>
<time>2024-05-07T11:33:44Z</time>
</trkpt>
<trkpt lat="48.98564524948597" lon="9.714404996484518">
<ele>332.2</ele>
<time>2024-05-07T11:33:45Z</time>
</trkpt>
<trkpt lat="48.985652877017856" lon="9.714346826076508">
<ele>332.4</ele>
<time>2024-05-07T11:33:46Z</time>
</trkpt>
<trkpt lat="48.98566050454974" lon="9.714288655668495">
<ele>332.4</ele>
<time>2024-05-07T11:33:47Z</time>
</trkpt>
<trkpt lat="48.98566813208163" lon="9.714233335107563">
<ele>332.6</ele>
<time>2024-05-07T11:33:48Z</time>
</trkpt>
<trkpt lat="48.98567961528897" lon="9.714181870222092">
<ele>332.6</ele>
<time>2024-05-07T11:33:49Z</time>
</trkpt>
<trkpt lat="48.98568724282086" lon="9.714133255183697">
<ele>332.8</ele>
<time>2024-05-07T11:33:50Z</time>
</trkpt>
<trkpt lat="48.985694870352745" lon="9.714086484164">
<ele>333</ele>
<time>2024-05-07T11:33:51Z</time>
</trkpt>
<trkpt lat="48.98570249788463" lon="9.714036863297224">
<ele>333</ele>
<time>2024-05-07T11:33:52Z</time>
</trkpt>
<trkpt lat="48.98571012541652" lon="9.71399017609656">
<ele>333.2</ele>
<time>2024-05-07T11:33:53Z</time>
</trkpt>
<trkpt lat="48.98572538048029" lon="9.71394533291459">
<ele>333.2</ele>
<time>2024-05-07T11:33:54Z</time>
</trkpt>
<trkpt lat="48.98574063554406" lon="9.713903423398731">
<ele>333.2</ele>
<time>2024-05-07T11:33:55Z</time>
</trkpt>
<trkpt lat="48.985755890607834" lon="9.713856652379036">
<ele>333.4</ele>
<time>2024-05-07T11:33:56Z</time>
</trkpt>
<trkpt lat="48.98577491752803" lon="9.71380996517837">
<ele>333.4</ele>
<time>2024-05-07T11:33:57Z</time>
</trkpt>
<trkpt lat="48.98579780012369" lon="9.713767049834132">
<ele>333.4</ele>
<time>2024-05-07T11:33:58Z</time>
</trkpt>
<trkpt lat="48.98581691086292" lon="9.713720278814437">
<ele>333.4</ele>
<time>2024-05-07T11:33:59Z</time>
</trkpt>
<trkpt lat="48.98583979345858" lon="9.71367359161377">
<ele>333.4</ele>
<time>2024-05-07T11:34:00Z</time>
</trkpt>
<trkpt lat="48.9858665317297" lon="9.71363159827888">
<ele>333.4</ele>
<time>2024-05-07T11:34:01Z</time>
</trkpt>
<trkpt lat="48.98588941432536" lon="9.713586755096912">
<ele>333.4</ele>
<time>2024-05-07T11:34:02Z</time>
</trkpt>
<trkpt lat="48.98590844124555" lon="9.713544845581056">
<ele>333.4</ele>
<time>2024-05-07T11:34:03Z</time>
</trkpt>
<trkpt lat="48.98592755198479" lon="9.713500002399089">
<ele>333.4</ele>
<time>2024-05-07T11:34:04Z</time>
</trkpt>
<trkpt lat="48.985946578904986" lon="9.71345323137939">
<ele>333.4</ele>
<time>2024-05-07T11:34:05Z</time>
</trkpt>
<trkpt lat="48.98596183396876" lon="9.713403694331646">
<ele>333.4</ele>
<time>2024-05-07T11:34:06Z</time>
</trkpt>
<trkpt lat="48.985973317176104" lon="9.713351223617792">
<ele>333.4</ele>
<time>2024-05-07T11:34:07Z</time>
</trkpt>
<trkpt lat="48.985992427915335" lon="9.713299674913287">
<ele>333.4</ele>
<time>2024-05-07T11:34:08Z</time>
</trkpt>
<trkpt lat="48.98601531051099" lon="9.713252987712622">
<ele>333.4</ele>
<time>2024-05-07T11:34:09Z</time>
</trkpt>
<trkpt lat="48.98603819310665" lon="9.713205294683576">
<ele>333.4</ele>
<time>2024-05-07T11:34:10Z</time>
</trkpt>
<trkpt lat="48.98605722002685" lon="9.713154751807451">
<ele>333.4</ele>
<time>2024-05-07T11:34:11Z</time>
</trkpt>
<trkpt lat="48.98607633076608" lon="9.713101359084249">
<ele>333.4</ele>
<time>2024-05-07T11:34:12Z</time>
</trkpt>
<trkpt lat="48.986091585829854" lon="9.713043188676238">
<ele>333.4</ele>
<time>2024-05-07T11:34:13Z</time>
</trkpt>
<trkpt lat="48.986106840893626" lon="9.712985018268228">
<ele>333.6</ele>
<time>2024-05-07T11:34:14Z</time>
</trkpt>
<trkpt lat="48.98611824028194" lon="9.712922992184758">
<ele>333.6</ele>
<time>2024-05-07T11:34:15Z</time>
</trkpt>
<trkpt lat="48.986129723489285" lon="9.712862893939018">
<ele>333.6</ele>
<time>2024-05-07T11:34:16Z</time>
</trkpt>
<trkpt lat="48.986129723489285" lon="9.712798101827502">
<ele>333.8</ele>
<time>2024-05-07T11:34:17Z</time>
</trkpt>
<trkpt lat="48.986125867813826" lon="9.712738003581762">
<ele>333.8</ele>
<time>2024-05-07T11:34:18Z</time>
</trkpt>
<trkpt lat="48.98611824028194" lon="9.712679833173752">
<ele>334</ele>
<time>2024-05-07T11:34:19Z</time>
</trkpt>
<trkpt lat="48.986106840893626" lon="9.712616885080934">
<ele>334</ele>
<time>2024-05-07T11:34:20Z</time>
</trkpt>
<trkpt lat="48.986087730154395" lon="9.71254823729396">
<ele>334</ele>
<time>2024-05-07T11:34:21Z</time>
</trkpt>
<trkpt lat="48.98606107570231" lon="9.71248143352568">
<ele>334</ele>
<time>2024-05-07T11:34:22Z</time>
</trkpt>
<trkpt lat="48.98603433743119" lon="9.712423263117673">
<ele>334</ele>
<time>2024-05-07T11:34:23Z</time>
</trkpt>
<trkpt lat="48.986011454835534" lon="9.712354615330696">
<ele>333.8</ele>
<time>2024-05-07T11:34:24Z</time>
</trkpt>
<trkpt lat="48.98600005544722" lon="9.712278340011837">
<ele>333.6</ele>
<time>2024-05-07T11:34:25Z</time>
</trkpt>
<trkpt lat="48.985992427915335" lon="9.712198209017515">
<ele>333.4</ele>
<time>2024-05-07T11:34:26Z</time>
</trkpt>
<trkpt lat="48.985992427915335" lon="9.712113300338387">
<ele>333.2</ele>
<time>2024-05-07T11:34:27Z</time>
</trkpt>
<trkpt lat="48.985992427915335" lon="9.71203132532537">
<ele>333.2</ele>
<time>2024-05-07T11:34:28Z</time>
</trkpt>
<trkpt lat="48.985992427915335" lon="9.71195312216878">
<ele>333</ele>
<time>2024-05-07T11:34:29Z</time>
</trkpt>
<trkpt lat="48.98599619977176" lon="9.71187206916511">
<ele>333</ele>
<time>2024-05-07T11:34:30Z</time>
</trkpt>
<trkpt lat="48.98600382730365" lon="9.71179001033306">
<ele>332.8</ele>
<time>2024-05-07T11:34:31Z</time>
</trkpt>
<trkpt lat="48.98601531051099" lon="9.711709963157771">
<ele>332.6</ele>
<time>2024-05-07T11:34:32Z</time>
</trkpt>
<trkpt lat="48.98603819310665" lon="9.71163360401988">
<ele>332.6</ele>
<time>2024-05-07T11:34:33Z</time>
</trkpt>
<trkpt lat="48.98605722002685" lon="9.711560178548098">
<ele>332.4</ele>
<time>2024-05-07T11:34:34Z</time>
</trkpt>
<trkpt lat="48.98608010262251" lon="9.711484909057615">
<ele>332.4</ele>
<time>2024-05-07T11:34:35Z</time>
</trkpt>
<trkpt lat="48.98610298521817" lon="9.711413327604532">
<ele>332.2</ele>
<time>2024-05-07T11:34:36Z</time>
</trkpt>
<trkpt lat="48.9861220959574" lon="9.71134182997048">
<ele>332.2</ele>
<time>2024-05-07T11:34:37Z</time>
</trkpt>
<trkpt lat="48.98614497855306" lon="9.711268404498696">
<ele>332.2</ele>
<time>2024-05-07T11:34:38Z</time>
</trkpt>
<trkpt lat="48.98616023361683" lon="9.71119875088334">
<ele>332</ele>
<time>2024-05-07T11:34:39Z</time>
</trkpt>
<trkpt lat="48.98617934435606" lon="9.711132030934095">
<ele>332</ele>
<time>2024-05-07T11:34:40Z</time>
</trkpt>
<trkpt lat="48.98619459941983" lon="9.711068077012897">
<ele>332</ele>
<time>2024-05-07T11:34:41Z</time>
</trkpt>
<trkpt lat="48.9862098544836" lon="9.711008062586188">
<ele>332</ele>
<time>2024-05-07T11:34:42Z</time>
</trkpt>
<trkpt lat="48.98622888140381" lon="9.710946958512068">
<ele>332</ele>
<time>2024-05-07T11:34:43Z</time>
</trkpt>
<trkpt lat="48.986244136467576" lon="9.71088694408536">
<ele>332</ele>
<time>2024-05-07T11:34:44Z</time>
</trkpt>
<trkpt lat="48.98625561967492" lon="9.710822068154812">
<ele>332</ele>
<time>2024-05-07T11:34:45Z</time>
</trkpt>
<trkpt lat="48.98627087473869" lon="9.710760042071342">
<ele>332.2</ele>
<time>2024-05-07T11:34:46Z</time>
</trkpt>
<trkpt lat="48.98627850227058" lon="9.710700027644634">
<ele>332.2</ele>
<time>2024-05-07T11:34:47Z</time>
</trkpt>
<trkpt lat="48.98628990165889" lon="9.710638001561165">
<ele>332.4</ele>
<time>2024-05-07T11:34:48Z</time>
</trkpt>
<trkpt lat="48.98630138486624" lon="9.710575053468348">
<ele>332.6</ele>
<time>2024-05-07T11:34:49Z</time>
</trkpt>
<trkpt lat="48.98630901239813" lon="9.710513111203907">
<ele>332.8</ele>
<time>2024-05-07T11:34:50Z</time>
</trkpt>
<trkpt lat="48.98631663993001" lon="9.71045016311109">
<ele>332.8</ele>
<time>2024-05-07T11:34:51Z</time>
</trkpt>
<trkpt lat="48.98632049560547" lon="9.71038813702762">
<ele>333</ele>
<time>2024-05-07T11:34:52Z</time>
</trkpt>
<trkpt lat="48.986324267461896" lon="9.710327116772532">
<ele>333.2</ele>
<time>2024-05-07T11:34:53Z</time>
</trkpt>
<trkpt lat="48.986328123137355" lon="9.710263246670364">
<ele>333.4</ele>
<time>2024-05-07T11:34:54Z</time>
</trkpt>
<trkpt lat="48.98633189499378" lon="9.710198370739818">
<ele>333.6</ele>
<time>2024-05-07T11:34:55Z</time>
</trkpt>
<trkpt lat="48.98633189499378" lon="9.710136344656348">
<ele>333.6</ele>
<time>2024-05-07T11:34:56Z</time>
</trkpt>
<trkpt lat="48.986328123137355" lon="9.710071552544832">
<ele>333.8</ele>
<time>2024-05-07T11:34:57Z</time>
</trkpt>
<trkpt lat="48.986328123137355" lon="9.710008604452014">
<ele>333.8</ele>
<time>2024-05-07T11:34:58Z</time>
</trkpt>
<trkpt lat="48.986324267461896" lon="9.709948506206274">
<ele>334</ele>
<time>2024-05-07T11:34:59Z</time>
</trkpt>
<trkpt lat="48.98631663993001" lon="9.709884636104109">
<ele>334</ele>
<time>2024-05-07T11:35:00Z</time>
</trkpt>
<trkpt lat="48.98630901239813" lon="9.709823532029986">
<ele>334</ele>
<time>2024-05-07T11:35:01Z</time>
</trkpt>
<trkpt lat="48.986305156722665" lon="9.70975873991847">
<ele>334</ele>
<time>2024-05-07T11:35:02Z</time>
</trkpt>
<trkpt lat="48.986305156722665" lon="9.709694785997272">
<ele>334.2</ele>
<time>2024-05-07T11:35:03Z</time>
</trkpt>
<trkpt lat="48.98630138486624" lon="9.709627144038675">
<ele>334.2</ele>
<time>2024-05-07T11:35:04Z</time>
</trkpt>
<trkpt lat="48.986305156722665" lon="9.709556568413973">
<ele>334.2</ele>
<time>2024-05-07T11:35:05Z</time>
</trkpt>
<trkpt lat="48.98630901239813" lon="9.709486914798616">
<ele>334.2</ele>
<time>2024-05-07T11:35:06Z</time>
</trkpt>
<trkpt lat="48.98631278425455" lon="9.709416339173911">
<ele>334.2</ele>
<time>2024-05-07T11:35:07Z</time>
</trkpt>
<trkpt lat="48.98631663993001" lon="9.70934199169278">
<ele>334.2</ele>
<time>2024-05-07T11:35:08Z</time>
</trkpt>
<trkpt lat="48.986324267461896" lon="9.70926663838327">
<ele>334.2</ele>
<time>2024-05-07T11:35:09Z</time>
</trkpt>
<trkpt lat="48.98633189499378" lon="9.709197990596294">
<ele>334.2</ele>
<time>2024-05-07T11:35:10Z</time>
</trkpt>
<trkpt lat="48.98633952252567" lon="9.70912640914321">
<ele>334.2</ele>
<time>2024-05-07T11:35:11Z</time>
</trkpt>
<trkpt lat="48.986347150057554" lon="9.709052983671429">
<ele>334.2</ele>
<time>2024-05-07T11:35:12Z</time>
</trkpt>
<trkpt lat="48.98635477758944" lon="9.708979558199644">
<ele>334.2</ele>
<time>2024-05-07T11:35:13Z</time>
</trkpt>
<trkpt lat="48.986366260796785" lon="9.70890613272786">
<ele>334.2</ele>
<time>2024-05-07T11:35:14Z</time>
</trkpt>
<trkpt lat="48.9863776601851" lon="9.70883178524673">
<ele>334.2</ele>
<time>2024-05-07T11:35:15Z</time>
</trkpt>
<trkpt lat="48.98639291524887" lon="9.708755426108835">
<ele>334.2</ele>
<time>2024-05-07T11:35:16Z</time>
</trkpt>
<trkpt lat="48.986404398456216" lon="9.708678228780627">
<ele>334</ele>
<time>2024-05-07T11:35:17Z</time>
</trkpt>
<trkpt lat="48.98641965351999" lon="9.708601869642736">
<ele>334</ele>
<time>2024-05-07T11:35:18Z</time>
</trkpt>
<trkpt lat="48.98643490858376" lon="9.708528444170952">
<ele>334</ele>
<time>2024-05-07T11:35:19Z</time>
</trkpt>
<trkpt lat="48.98645393550396" lon="9.70845501869917">
<ele>334</ele>
<time>2024-05-07T11:35:20Z</time>
</trkpt>
<trkpt lat="48.98647304624319" lon="9.708381593227386">
<ele>334</ele>
<time>2024-05-07T11:35:21Z</time>
</trkpt>
<trkpt lat="48.98648830130696" lon="9.708306239917874">
<ele>334</ele>
<time>2024-05-07T11:35:22Z</time>
</trkpt>
<trkpt lat="48.986503556370735" lon="9.708232814446092">
<ele>333.8</ele>
<time>2024-05-07T11:35:23Z</time>
</trkpt>
<trkpt lat="48.986522667109966" lon="9.708161316812038">
<ele>333.8</ele>
<time>2024-05-07T11:35:24Z</time>
</trkpt>
<trkpt lat="48.98653792217374" lon="9.708087891340256">
<ele>333.6</ele>
<time>2024-05-07T11:35:25Z</time>
</trkpt>
<trkpt lat="48.98655317723751" lon="9.708016393706204">
<ele>333.6</ele>
<time>2024-05-07T11:35:26Z</time>
</trkpt>
<trkpt lat="48.986564576625824" lon="9.707946740090849">
<ele>333.4</ele>
<time>2024-05-07T11:35:27Z</time>
</trkpt>
<trkpt lat="48.9865798316896" lon="9.707875242456794">
<ele>333.4</ele>
<time>2024-05-07T11:35:28Z</time>
</trkpt>
<trkpt lat="48.98659131489694" lon="9.707801816985013">
<ele>333.2</ele>
<time>2024-05-07T11:35:29Z</time>
</trkpt>
<trkpt lat="48.986602714285254" lon="9.707730235531926">
<ele>333.2</ele>
<time>2024-05-07T11:35:30Z</time>
</trkpt>
<trkpt lat="48.9866141974926" lon="9.707659659907222">
<ele>333.2</ele>
<time>2024-05-07T11:35:31Z</time>
</trkpt>
<trkpt lat="48.98662559688091" lon="9.707591934129596">
<ele>333</ele>
<time>2024-05-07T11:35:32Z</time>
</trkpt>
<trkpt lat="48.98663708008826" lon="9.707519514486194">
<ele>333</ele>
<time>2024-05-07T11:35:33Z</time>
</trkpt>
<trkpt lat="48.98664847947657" lon="9.707447933033109">
<ele>333</ele>
<time>2024-05-07T11:35:34Z</time>
</trkpt>
<trkpt lat="48.98665996268392" lon="9.707378363236783">
<ele>333</ele>
<time>2024-05-07T11:35:35Z</time>
</trkpt>
<trkpt lat="48.98667144589126" lon="9.70730971544981">
<ele>333</ele>
<time>2024-05-07T11:35:36Z</time>
</trkpt>
<trkpt lat="48.986682845279574" lon="9.707242911681533">
<ele>333</ele>
<time>2024-05-07T11:35:37Z</time>
</trkpt>
<trkpt lat="48.98669432848692" lon="9.707178035750983">
<ele>333</ele>
<time>2024-05-07T11:35:38Z</time>
</trkpt>
<trkpt lat="48.98670958355069" lon="9.70711324363947">
<ele>333.2</ele>
<time>2024-05-07T11:35:39Z</time>
</trkpt>
<trkpt lat="48.986724838614464" lon="9.70705029554665">
<ele>333.2</ele>
<time>2024-05-07T11:35:40Z</time>
</trkpt>
<trkpt lat="48.98674009367824" lon="9.706985419616103">
<ele>333.4</ele>
<time>2024-05-07T11:35:41Z</time>
</trkpt>
<trkpt lat="48.98675149306655" lon="9.706918699666858">
<ele>333.4</ele>
<time>2024-05-07T11:35:42Z</time>
</trkpt>
<trkpt lat="48.98676674813032" lon="9.70685189589858">
<ele>333.4</ele>
<time>2024-05-07T11:35:43Z</time>
</trkpt>
<trkpt lat="48.98677823133767" lon="9.706783248111606">
<ele>333.4</ele>
<time>2024-05-07T11:35:44Z</time>
</trkpt>
<trkpt lat="48.98679348640144" lon="9.70671460032463">
<ele>333.4</ele>
<time>2024-05-07T11:35:45Z</time>
</trkpt>
<trkpt lat="48.98680488578975" lon="9.706647796556354">
<ele>333.6</ele>
<time>2024-05-07T11:35:46Z</time>
</trkpt>
<trkpt lat="48.9868163689971" lon="9.70657822676003">
<ele>333.8</ele>
<time>2024-05-07T11:35:47Z</time>
</trkpt>
<trkpt lat="48.98682776838541" lon="9.706508573144674">
<ele>333.8</ele>
<time>2024-05-07T11:35:48Z</time>
</trkpt>
<trkpt lat="48.986839251592755" lon="9.7064399253577">
<ele>333.8</ele>
<time>2024-05-07T11:35:49Z</time>
</trkpt>
<trkpt lat="48.98685450665653" lon="9.706373205408454">
<ele>334</ele>
<time>2024-05-07T11:35:50Z</time>
</trkpt>
<trkpt lat="48.9868697617203" lon="9.706306401640177">
<ele>334</ele>
<time>2024-05-07T11:35:51Z</time>
</trkpt>
<trkpt lat="48.98688501678407" lon="9.706241525709627">
<ele>334</ele>
<time>2024-05-07T11:35:52Z</time>
</trkpt>
<trkpt lat="48.98690027184784" lon="9.706178661435844">
<ele>334</ele>
<time>2024-05-07T11:35:53Z</time>
</trkpt>
<trkpt lat="48.98691175505519" lon="9.70612334087491">
<ele>334</ele>
<time>2024-05-07T11:35:54Z</time>
</trkpt>
<trkpt lat="48.9869231544435" lon="9.706069864332676">
<ele>334</ele>
<time>2024-05-07T11:35:55Z</time>
</trkpt>
<trkpt lat="48.98693463765085" lon="9.70602317713201">
<ele>334.2</ele>
<time>2024-05-07T11:35:56Z</time>
</trkpt>
<trkpt lat="48.98694603703916" lon="9.70598118379712">
<ele>334.2</ele>
<time>2024-05-07T11:35:57Z</time>
</trkpt>
<trkpt lat="48.986957520246506" lon="9.70594497397542">
<ele>334.4</ele>
<time>2024-05-07T11:35:58Z</time>
</trkpt>
<trkpt lat="48.98697277531028" lon="9.705909686163068">
<ele>334.6</ele>
<time>2024-05-07T11:35:59Z</time>
</trkpt>
<trkpt lat="48.98698803037405" lon="9.705891581252216">
<ele>334.8</ele>
<time>2024-05-07T11:36:00Z</time>
</trkpt>
<trkpt lat="48.98700328543782" lon="9.70586869865656">
<ele>334.8</ele>
<time>2024-05-07T11:36:01Z</time>
</trkpt>
<trkpt lat="48.98702239617705" lon="9.705842966213822">
<ele>334.8</ele>
<time>2024-05-07T11:36:02Z</time>
</trkpt>
<trkpt lat="48.98704142309725" lon="9.705816227942703">
<ele>335</ele>
<time>2024-05-07T11:36:03Z</time>
</trkpt>
<trkpt lat="48.9870529063046" lon="9.705789489671588">
<ele>335</ele>
<time>2024-05-07T11:36:04Z</time>
</trkpt>
<trkpt lat="48.98706816136837" lon="9.705757135525346">
<ele>335</ele>
<time>2024-05-07T11:36:05Z</time>
</trkpt>
<trkpt lat="48.98709104396403" lon="9.705717992037536">
<ele>335</ele>
<time>2024-05-07T11:36:06Z</time>
</trkpt>
<trkpt lat="48.98711392655969" lon="9.705677004531026">
<ele>335</ele>
<time>2024-05-07T11:36:07Z</time>
</trkpt>
<trkpt lat="48.98714058101177" lon="9.705630233511329">
<ele>335</ele>
<time>2024-05-07T11:36:08Z</time>
</trkpt>
<trkpt lat="48.98716731928289" lon="9.705581618472934">
<ele>335</ele>
<time>2024-05-07T11:36:09Z</time>
</trkpt>
<trkpt lat="48.98720168508589" lon="9.705534931272268">
<ele>335</ele>
<time>2024-05-07T11:36:10Z</time>
</trkpt>
<trkpt lat="48.98723982274532" lon="9.705496709793806">
<ele>335</ele>
<time>2024-05-07T11:36:11Z</time>
</trkpt>
<trkpt lat="48.98728558793664" lon="9.7054729051888">
<ele>335</ele>
<time>2024-05-07T11:36:12Z</time>
</trkpt>
<trkpt lat="48.987335124984384" lon="9.705463349819183">
<ele>335</ele>
<time>2024-05-07T11:36:13Z</time>
</trkpt>
<trkpt lat="48.98738097399473" lon="9.705456728115678">
<ele>335</ele>
<time>2024-05-07T11:36:14Z</time>
</trkpt>
<trkpt lat="48.98742288351059" lon="9.705446166917682">
<ele>335</ele>
<time>2024-05-07T11:36:15Z</time>
</trkpt>
<trkpt lat="48.98746102117002" lon="9.70545195043087">
<ele>335</ele>
<time>2024-05-07T11:36:16Z</time>
</trkpt>
<trkpt lat="48.98750301450491" lon="9.705456728115678">
<ele>335</ele>
<time>2024-05-07T11:36:17Z</time>
</trkpt>
<trkpt lat="48.987533524632454" lon="9.70542998984456">
<ele>334.8</ele>
<time>2024-05-07T11:36:18Z</time>
</trkpt>
<trkpt lat="48.98756789043546" lon="9.705387996509671">
<ele>334.6</ele>
<time>2024-05-07T11:36:19Z</time>
</trkpt>
<trkpt lat="48.98758314549923" lon="9.70533175393939">
<ele>334.6</ele>
<time>2024-05-07T11:36:20Z</time>
</trkpt>
<trkpt lat="48.98758691735566" lon="9.705274505540729">
<ele>334.4</ele>
<time>2024-05-07T11:36:21Z</time>
</trkpt>
<trkpt lat="48.98759454488754" lon="9.70521348528564">
<ele>334.4</ele>
<time>2024-05-07T11:36:22Z</time>
</trkpt>
<trkpt lat="48.98760217241943" lon="9.705149615183473">
<ele>334.4</ele>
<time>2024-05-07T11:36:23Z</time>
</trkpt>
<trkpt lat="48.987598400563" lon="9.705071412026882">
<ele>334.4</ele>
<time>2024-05-07T11:36:24Z</time>
</trkpt>
<trkpt lat="48.98760217241943" lon="9.70499513670802">
<ele>334.2</ele>
<time>2024-05-07T11:36:25Z</time>
</trkpt>
<trkpt lat="48.987598400563" lon="9.704926488921046">
<ele>334.2</ele>
<time>2024-05-07T11:36:26Z</time>
</trkpt>
<trkpt lat="48.987598400563" lon="9.704859685152767">
<ele>334.2</ele>
<time>2024-05-07T11:36:27Z</time>
</trkpt>
<trkpt lat="48.987598400563" lon="9.704792965203524">
<ele>334.2</ele>
<time>2024-05-07T11:36:28Z</time>
</trkpt>
<trkpt lat="48.98760217241943" lon="9.70472138375044">
<ele>334.2</ele>
<time>2024-05-07T11:36:29Z</time>
</trkpt>
<trkpt lat="48.98760602809489" lon="9.704654663801191">
<ele>334.4</ele>
<time>2024-05-07T11:36:30Z</time>
</trkpt>
<trkpt lat="48.98760602809489" lon="9.704587860032916">
<ele>334.4</ele>
<time>2024-05-07T11:36:31Z</time>
</trkpt>
<trkpt lat="48.98760602809489" lon="9.704520218074322">
<ele>334.6</ele>
<time>2024-05-07T11:36:32Z</time>
</trkpt>
<trkpt lat="48.98760602809489" lon="9.704458191990852">
<ele>334.8</ele>
<time>2024-05-07T11:36:33Z</time>
</trkpt>
<trkpt lat="48.98760602809489" lon="9.70440287142992">
<ele>335</ele>
<time>2024-05-07T11:36:34Z</time>
</trkpt>
<trkpt lat="48.987609799951315" lon="9.704357106238604">
<ele>335.4</ele>
<time>2024-05-07T11:36:35Z</time>
</trkpt>
<trkpt lat="48.987613655626774" lon="9.704321818426251">
<ele>335.6</ele>
<time>2024-05-07T11:36:36Z</time>
</trkpt>
<trkpt lat="48.98762505501509" lon="9.704295080155134">
<ele>335.8</ele>
<time>2024-05-07T11:36:37Z</time>
</trkpt>
<trkpt lat="48.98763653822243" lon="9.70426457002759">
<ele>336</ele>
<time>2024-05-07T11:36:38Z</time>
</trkpt>
<trkpt lat="48.98765179328621" lon="9.70422643236816">
<ele>336.2</ele>
<time>2024-05-07T11:36:39Z</time>
</trkpt>
<trkpt lat="48.98765556514263" lon="9.704177817329764">
<ele>336.4</ele>
<time>2024-05-07T11:36:40Z</time>
</trkpt>
<trkpt lat="48.98766319267452" lon="9.704118724912403">
<ele>336.4</ele>
<time>2024-05-07T11:36:41Z</time>
</trkpt>
<trkpt lat="48.98766319267452" lon="9.704059548676014">
<ele>336.6</ele>
<time>2024-05-07T11:36:42Z</time>
</trkpt>
<trkpt lat="48.98766319267452" lon="9.704000456258656">
<ele>336.6</ele>
<time>2024-05-07T11:36:43Z</time>
</trkpt>
<trkpt lat="48.98766704834998" lon="9.703936502337456">
<ele>336.8</ele>
<time>2024-05-07T11:36:44Z</time>
</trkpt>
<trkpt lat="48.98766704834998" lon="9.703873554244636">
<ele>336.8</ele>
<time>2024-05-07T11:36:45Z</time>
</trkpt>
<trkpt lat="48.98766704834998" lon="9.70380775630474">
<ele>336.8</ele>
<time>2024-05-07T11:36:46Z</time>
</trkpt>
<trkpt lat="48.9876708202064" lon="9.703742964193223">
<ele>336.8</ele>
<time>2024-05-07T11:36:47Z</time>
</trkpt>
<trkpt lat="48.9876708202064" lon="9.703676160424948">
<ele>336.8</ele>
<time>2024-05-07T11:36:48Z</time>
</trkpt>
<trkpt lat="48.98767467588186" lon="9.703606590628624">
<ele>336.8</ele>
<time>2024-05-07T11:36:49Z</time>
</trkpt>
<trkpt lat="48.98767844773829" lon="9.703537859022616">
<ele>336.8</ele>
<time>2024-05-07T11:36:50Z</time>
</trkpt>
<trkpt lat="48.98767844773829" lon="9.703470217064025">
<ele>336.8</ele>
<time>2024-05-07T11:36:51Z</time>
</trkpt>
<trkpt lat="48.98767844773829" lon="9.70339964143932">
<ele>336.8</ele>
<time>2024-05-07T11:36:52Z</time>
</trkpt>
<trkpt lat="48.98767844773829" lon="9.703328059986234">
<ele>336.8</ele>
<time>2024-05-07T11:36:53Z</time>
</trkpt>
<trkpt lat="48.98767844773829" lon="9.70325849018991">
<ele>336.8</ele>
<time>2024-05-07T11:36:54Z</time>
</trkpt>
<trkpt lat="48.98767844773829" lon="9.703187914565206">
<ele>336.8</ele>
<time>2024-05-07T11:36:55Z</time>
</trkpt>
<trkpt lat="48.98767844773829" lon="9.70312018878758">
<ele>336.8</ele>
<time>2024-05-07T11:36:56Z</time>
</trkpt>
<trkpt lat="48.98767844773829" lon="9.703051541000605">
<ele>336.8</ele>
<time>2024-05-07T11:36:57Z</time>
</trkpt>
<trkpt lat="48.98768230341375" lon="9.702986665070055">
<ele>336.8</ele>
<time>2024-05-07T11:36:58Z</time>
</trkpt>
<trkpt lat="48.98768230341375" lon="9.70292178913951">
<ele>336.8</ele>
<time>2024-05-07T11:36:59Z</time>
</trkpt>
<trkpt lat="48.98768230341375" lon="9.702856997027991">
<ele>336.6</ele>
<time>2024-05-07T11:37:00Z</time>
</trkpt>
<trkpt lat="48.98768230341375" lon="9.702786421403289">
<ele>336.4</ele>
<time>2024-05-07T11:37:01Z</time>
</trkpt>
<trkpt lat="48.987686075270176" lon="9.702714839950204">
<ele>336.4</ele>
<time>2024-05-07T11:37:02Z</time>
</trkpt>
<trkpt lat="48.987686075270176" lon="9.70264527015388">
<ele>336.4</ele>
<time>2024-05-07T11:37:03Z</time>
</trkpt>
<trkpt lat="48.987689930945635" lon="9.702573772519829">
<ele>336.4</ele>
<time>2024-05-07T11:37:04Z</time>
</trkpt>
<trkpt lat="48.987689930945635" lon="9.702501269057391">
<ele>336.4</ele>
<time>2024-05-07T11:37:05Z</time>
</trkpt>
<trkpt lat="48.987693786621094" lon="9.702431615442038">
<ele>336.4</ele>
<time>2024-05-07T11:37:06Z</time>
</trkpt>
<trkpt lat="48.98769755847752" lon="9.702362967655064">
<ele>336.6</ele>
<time>2024-05-07T11:37:07Z</time>
</trkpt>
<trkpt lat="48.98770141415298" lon="9.70229147002101">
<ele>336.6</ele>
<time>2024-05-07T11:37:08Z</time>
</trkpt>
<trkpt lat="48.987709041684866" lon="9.702221816405654">
<ele>336.6</ele>
<time>2024-05-07T11:37:09Z</time>
</trkpt>
<trkpt lat="48.98771666921675" lon="9.70215316861868">
<ele>336.8</ele>
<time>2024-05-07T11:37:10Z</time>
</trkpt>
<trkpt lat="48.98772044107318" lon="9.702085442841051">
<ele>336.8</ele>
<time>2024-05-07T11:37:11Z</time>
</trkpt>
<trkpt lat="48.98773192428053" lon="9.702014867216349">
<ele>336.8</ele>
<time>2024-05-07T11:37:12Z</time>
</trkpt>
<trkpt lat="48.98773955181241" lon="9.701946219429374">
<ele>336.8</ele>
<time>2024-05-07T11:37:13Z</time>
</trkpt>
<trkpt lat="48.9877471793443" lon="9.70187472179532">
<ele>336.8</ele>
<time>2024-05-07T11:37:14Z</time>
</trkpt>
<trkpt lat="48.98775857873261" lon="9.701805068179963">
<ele>336.8</ele>
<time>2024-05-07T11:37:15Z</time>
</trkpt>
<trkpt lat="48.987770061939955" lon="9.70173834823072">
<ele>337</ele>
<time>2024-05-07T11:37:16Z</time>
</trkpt>
<trkpt lat="48.98778146132827" lon="9.701671544462442">
<ele>337</ele>
<time>2024-05-07T11:37:17Z</time>
</trkpt>
<trkpt lat="48.98779671639204" lon="9.701604824513195">
<ele>337</ele>
<time>2024-05-07T11:37:18Z</time>
</trkpt>
<trkpt lat="48.98781197145581" lon="9.70153802074492">
<ele>337</ele>
<time>2024-05-07T11:37:19Z</time>
</trkpt>
<trkpt lat="48.987827226519585" lon="9.701471300795674">
<ele>337</ele>
<time>2024-05-07T11:37:20Z</time>
</trkpt>
<trkpt lat="48.98783870972693" lon="9.701404497027395">
<ele>337</ele>
<time>2024-05-07T11:37:21Z</time>
</trkpt>
<trkpt lat="48.98785010911524" lon="9.701334927231072">
<ele>337</ele>
<time>2024-05-07T11:37:22Z</time>
</trkpt>
<trkpt lat="48.98786544799805" lon="9.701266279444098">
<ele>337</ele>
<time>2024-05-07T11:37:23Z</time>
</trkpt>
<trkpt lat="48.98787684738636" lon="9.701198553666472">
<ele>337</ele>
<time>2024-05-07T11:37:24Z</time>
</trkpt>
<trkpt lat="48.98789210245013" lon="9.701129905879498">
<ele>337</ele>
<time>2024-05-07T11:37:25Z</time>
</trkpt>
<trkpt lat="48.987907357513905" lon="9.701061174273493">
<ele>337</ele>
<time>2024-05-07T11:37:26Z</time>
</trkpt>
<trkpt lat="48.98792261257768" lon="9.700989676639438">
<ele>336.8</ele>
<time>2024-05-07T11:37:27Z</time>
</trkpt>
<trkpt lat="48.98794172331691" lon="9.700916251167657">
<ele>336.8</ele>
<time>2024-05-07T11:37:28Z</time>
</trkpt>
<trkpt lat="48.98795697838068" lon="9.700841903686523">
<ele>336.6</ele>
<time>2024-05-07T11:37:29Z</time>
</trkpt>
<trkpt lat="48.98797223344445" lon="9.700764622539282">
<ele>336.6</ele>
<time>2024-05-07T11:37:30Z</time>
</trkpt>
<trkpt lat="48.98799126036465" lon="9.700683569535611">
<ele>336.4</ele>
<time>2024-05-07T11:37:31Z</time>
</trkpt>
<trkpt lat="48.98801037110388" lon="9.700598660856484">
<ele>336.4</ele>
<time>2024-05-07T11:37:32Z</time>
</trkpt>
<trkpt lat="48.988025626167655" lon="9.70051383599639">
<ele>336.2</ele>
<time>2024-05-07T11:37:33Z</time>
</trkpt>
<trkpt lat="48.988044736906886" lon="9.700428005307913">
<ele>336.2</ele>
<time>2024-05-07T11:37:34Z</time>
</trkpt>
<trkpt lat="48.98805999197066" lon="9.700341168791056">
<ele>336.2</ele>
<time>2024-05-07T11:37:35Z</time>
</trkpt>
<trkpt lat="48.98807524703443" lon="9.700251566246152">
<ele>336</ele>
<time>2024-05-07T11:37:36Z</time>
</trkpt>
<trkpt lat="48.98809427395463" lon="9.70015810802579">
<ele>335.8</ele>
<time>2024-05-07T11:37:37Z</time>
</trkpt>
<trkpt lat="48.98811338469386" lon="9.700063643977046">
<ele>335.8</ele>
<time>2024-05-07T11:37:38Z</time>
</trkpt>
<trkpt lat="48.98813626728952" lon="9.699970185756683">
<ele>335.6</ele>
<time>2024-05-07T11:37:39Z</time>
</trkpt>
<trkpt lat="48.98815152235329" lon="9.69987672753632">
<ele>335.4</ele>
<time>2024-05-07T11:37:40Z</time>
</trkpt>
<trkpt lat="48.98817440494895" lon="9.699783269315958">
<ele>335.2</ele>
<time>2024-05-07T11:37:41Z</time>
</trkpt>
<trkpt lat="48.98819343186915" lon="9.699691738933325">
<ele>335</ele>
<time>2024-05-07T11:37:42Z</time>
</trkpt>
<trkpt lat="48.98820877075195" lon="9.699600208550692">
<ele>334.8</ele>
<time>2024-05-07T11:37:43Z</time>
</trkpt>
<trkpt lat="48.98822779767215" lon="9.699508594349028">
<ele>334.8</ele>
<time>2024-05-07T11:37:44Z</time>
</trkpt>
<trkpt lat="48.988243052735925" lon="9.699417985975742">
<ele>334.6</ele>
<time>2024-05-07T11:37:45Z</time>
</trkpt>
<trkpt lat="48.98826216347515" lon="9.699331233277915">
<ele>334.6</ele>
<time>2024-05-07T11:37:46Z</time>
</trkpt>
<trkpt lat="48.988281190395355" lon="9.699243474751713">
<ele>334.6</ele>
<time>2024-05-07T11:37:47Z</time>
</trkpt>
<trkpt lat="48.98829644545913" lon="9.699154794216156">
<ele>334.4</ele>
<time>2024-05-07T11:37:48Z</time>
</trkpt>
<trkpt lat="48.9883117005229" lon="9.699071813374758">
<ele>334.4</ele>
<time>2024-05-07T11:37:49Z</time>
</trkpt>
<trkpt lat="48.988323183730245" lon="9.69898791052401">
<ele>334.4</ele>
<time>2024-05-07T11:37:50Z</time>
</trkpt>
<trkpt lat="48.98833458311856" lon="9.69890777952969">
<ele>334.4</ele>
<time>2024-05-07T11:37:51Z</time>
</trkpt>
<trkpt lat="48.9883460663259" lon="9.698828654363751">
<ele>334.4</ele>
<time>2024-05-07T11:37:52Z</time>
</trkpt>
<trkpt lat="48.988357465714216" lon="9.698748523369431">
<ele>334.4</ele>
<time>2024-05-07T11:37:53Z</time>
</trkpt>
<trkpt lat="48.9883650932461" lon="9.69867032021284">
<ele>334.4</ele>
<time>2024-05-07T11:37:54Z</time>
</trkpt>
<trkpt lat="48.98837657645345" lon="9.698591195046902">
<ele>334.4</ele>
<time>2024-05-07T11:37:55Z</time>
</trkpt>
<trkpt lat="48.988380432128906" lon="9.698512991890311">
<ele>334.2</ele>
<time>2024-05-07T11:37:56Z</time>
</trkpt>
<trkpt lat="48.98838420398533" lon="9.69843671657145">
<ele>334.2</ele>
<time>2024-05-07T11:37:57Z</time>
</trkpt>
<trkpt lat="48.98839183151722" lon="9.698363291099668">
<ele>334</ele>
<time>2024-05-07T11:37:58Z</time>
</trkpt>
<trkpt lat="48.98839568719268" lon="9.698289865627885">
<ele>334</ele>
<time>2024-05-07T11:37:59Z</time>
</trkpt>
<trkpt lat="48.988399459049106" lon="9.69821635633707">
<ele>334</ele>
<time>2024-05-07T11:38:00Z</time>
</trkpt>
<trkpt lat="48.988399459049106" lon="9.698142930865288">
<ele>334</ele>
<time>2024-05-07T11:38:01Z</time>
</trkpt>
<trkpt lat="48.98839568719268" lon="9.698069505393503">
<ele>334</ele>
<time>2024-05-07T11:38:02Z</time>
</trkpt>
<trkpt lat="48.98839183151722" lon="9.697998007759452">
<ele>334.2</ele>
<time>2024-05-07T11:38:03Z</time>
</trkpt>
<trkpt lat="48.98839183151722" lon="9.69792458228767">
<ele>334.2</ele>
<time>2024-05-07T11:38:04Z</time>
</trkpt>
<trkpt lat="48.98839183151722" lon="9.697856856510043">
<ele>334.2</ele>
<time>2024-05-07T11:38:05Z</time>
</trkpt>
<trkpt lat="48.98838420398533" lon="9.697788208723068">
<ele>334.2</ele>
<time>2024-05-07T11:38:06Z</time>
</trkpt>
<trkpt lat="48.98837657645345" lon="9.69772333279252">
<ele>334.2</ele>
<time>2024-05-07T11:38:07Z</time>
</trkpt>
<trkpt lat="48.9883650932461" lon="9.697656612843277">
<ele>334.4</ele>
<time>2024-05-07T11:38:08Z</time>
</trkpt>
<trkpt lat="48.98835369385779" lon="9.697591736912727">
<ele>334.4</ele>
<time>2024-05-07T11:38:09Z</time>
</trkpt>
<trkpt lat="48.98834221065045" lon="9.697528788819907">
<ele>334.4</ele>
<time>2024-05-07T11:38:10Z</time>
</trkpt>
<trkpt lat="48.98833081126213" lon="9.697471540421247">
<ele>334.4</ele>
<time>2024-05-07T11:38:11Z</time>
</trkpt>
<trkpt lat="48.9883117005229" lon="9.697420075535774">
<ele>334.4</ele>
<time>2024-05-07T11:38:12Z</time>
</trkpt>
<trkpt lat="48.988300301134586" lon="9.697366682812572">
<ele>334.4</ele>
<time>2024-05-07T11:38:13Z</time>
</trkpt>
<trkpt lat="48.98829644545913" lon="9.69730943441391">
<ele>334.4</ele>
<time>2024-05-07T11:38:14Z</time>
</trkpt>
<trkpt lat="48.98828881792724" lon="9.697243636474012">
<ele>334.4</ele>
<time>2024-05-07T11:38:15Z</time>
</trkpt>
<trkpt lat="48.988285046070814" lon="9.697176916524768">
<ele>334.4</ele>
<time>2024-05-07T11:38:16Z</time>
</trkpt>
<trkpt lat="48.988281190395355" lon="9.697108268737791">
<ele>334.4</ele>
<time>2024-05-07T11:38:17Z</time>
</trkpt>
<trkpt lat="48.98827356286347" lon="9.697041464969516">
<ele>334.6</ele>
<time>2024-05-07T11:38:18Z</time>
</trkpt>
<trkpt lat="48.98826593533158" lon="9.696969967335464">
<ele>334.6</ele>
<time>2024-05-07T11:38:19Z</time>
</trkpt>
<trkpt lat="48.9882583077997" lon="9.696901319548488">
<ele>334.6</ele>
<time>2024-05-07T11:38:20Z</time>
</trkpt>
<trkpt lat="48.98825068026781" lon="9.696833593770862">
<ele>334.6</ele>
<time>2024-05-07T11:38:21Z</time>
</trkpt>
<trkpt lat="48.988243052735925" lon="9.696768717840314">
<ele>334.6</ele>
<time>2024-05-07T11:38:22Z</time>
</trkpt>
<trkpt lat="48.98823542520404" lon="9.696702919900416">
<ele>334.6</ele>
<time>2024-05-07T11:38:23Z</time>
</trkpt>
<trkpt lat="48.98823165334761" lon="9.6966399718076">
<ele>334.8</ele>
<time>2024-05-07T11:38:24Z</time>
</trkpt>
<trkpt lat="48.98822779767215" lon="9.696581801399589">
<ele>334.8</ele>
<time>2024-05-07T11:38:25Z</time>
</trkpt>
<trkpt lat="48.988224025815725" lon="9.696524553000929">
<ele>335</ele>
<time>2024-05-07T11:38:26Z</time>
</trkpt>
<trkpt lat="48.988224025815725" lon="9.696470238268375">
<ele>335</ele>
<time>2024-05-07T11:38:27Z</time>
</trkpt>
<trkpt lat="48.98822779767215" lon="9.696412989869714">
<ele>335.2</ele>
<time>2024-05-07T11:38:28Z</time>
</trkpt>
<trkpt lat="48.98823165334761" lon="9.696358675137162">
<ele>335.4</ele>
<time>2024-05-07T11:38:29Z</time>
</trkpt>
<trkpt lat="48.9882392808795" lon="9.696305198594928">
<ele>335.4</ele>
<time>2024-05-07T11:38:30Z</time>
</trkpt>
<trkpt lat="48.988246908411384" lon="9.696251805871723">
<ele>335.6</ele>
<time>2024-05-07T11:38:31Z</time>
</trkpt>
<trkpt lat="48.98825453594327" lon="9.6962012629956">
<ele>335.8</ele>
<time>2024-05-07T11:38:32Z</time>
</trkpt>
<trkpt lat="48.98825453594327" lon="9.696158347651362">
<ele>336</ele>
<time>2024-05-07T11:38:33Z</time>
</trkpt>
<trkpt lat="48.988246908411384" lon="9.69612498767674">
<ele>336.2</ele>
<time>2024-05-07T11:38:34Z</time>
</trkpt>
<trkpt lat="48.98823542520404" lon="9.696096405386925">
<ele>336.2</ele>
<time>2024-05-07T11:38:35Z</time>
</trkpt>
<trkpt lat="48.988220170140266" lon="9.69606874510646">
<ele>336.4</ele>
<time>2024-05-07T11:38:36Z</time>
</trkpt>
<trkpt lat="48.988204915076494" lon="9.696035385131836">
<ele>336.4</ele>
<time>2024-05-07T11:38:37Z</time>
</trkpt>
<trkpt lat="48.98818580433726" lon="9.695996241644025">
<ele>336.4</ele>
<time>2024-05-07T11:38:38Z</time>
</trkpt>
<trkpt lat="48.988166777417064" lon="9.695953326299788">
<ele>336.6</ele>
<time>2024-05-07T11:38:39Z</time>
</trkpt>
<trkpt lat="48.98813626728952" lon="9.69590848311782">
<ele>336.6</ele>
<time>2024-05-07T11:38:40Z</time>
</trkpt>
<trkpt lat="48.98810190148651" lon="9.695864645764232">
<ele>336.6</ele>
<time>2024-05-07T11:38:41Z</time>
</trkpt>
<trkpt lat="48.988067619502544" lon="9.695831285789607">
<ele>336.6</ele>
<time>2024-05-07T11:38:42Z</time>
</trkpt>
<trkpt lat="48.98803325369954" lon="9.69580840319395">
<ele>336.6</ele>
<time>2024-05-07T11:38:43Z</time>
</trkpt>
<trkpt lat="48.98799511604011" lon="9.695781664922832">
<ele>336.6</ele>
<time>2024-05-07T11:38:44Z</time>
</trkpt>
<trkpt lat="48.987964605912566" lon="9.695758782327175">
<ele>336.6</ele>
<time>2024-05-07T11:38:45Z</time>
</trkpt>
<trkpt lat="48.98794172331691" lon="9.695737827569246">
<ele>336.6</ele>
<time>2024-05-07T11:38:46Z</time>
</trkpt>
<trkpt lat="48.987926468253136" lon="9.695718716830015">
<ele>336.4</ele>
<time>2024-05-07T11:38:47Z</time>
</trkpt>
<trkpt lat="48.98791121318936" lon="9.695701533928514">
<ele>336.2</ele>
<time>2024-05-07T11:38:48Z</time>
</trkpt>
<trkpt lat="48.98789972998202" lon="9.69569206237793">
<ele>336</ele>
<time>2024-05-07T11:38:49Z</time>
</trkpt>
<trkpt lat="48.987888330593705" lon="9.69568820670247">
<ele>335.8</ele>
<time>2024-05-07T11:38:50Z</time>
</trkpt>
<trkpt lat="48.98787684738636" lon="9.695703461766245">
<ele>335.6</ele>
<time>2024-05-07T11:38:51Z</time>
</trkpt>
<trkpt lat="48.98787684738636" lon="9.6957263443619">
<ele>335.4</ele>
<time>2024-05-07T11:38:52Z</time>
</trkpt>
<trkpt lat="48.987888330593705" lon="9.695751154795287">
<ele>335.2</ele>
<time>2024-05-07T11:38:53Z</time>
</trkpt>
<trkpt lat="48.98790358565748" lon="9.695770181715488">
<ele>335</ele>
<time>2024-05-07T11:38:54Z</time>
</trkpt>
<trkpt lat="48.98792261257768" lon="9.695781664922832">
<ele>334.8</ele>
<time>2024-05-07T11:38:55Z</time>
</trkpt>
<trkpt lat="48.98794172331691" lon="9.695791220292447">
<ele>334.8</ele>
<time>2024-05-07T11:38:56Z</time>
</trkpt>
<trkpt lat="48.98796075023711" lon="9.695799769833684">
<ele>334.6</ele>
<time>2024-05-07T11:38:57Z</time>
</trkpt>
<trkpt lat="48.987983632832766" lon="9.695804547518492">
<ele>334.6</ele>
<time>2024-05-07T11:38:58Z</time>
</trkpt>
<trkpt lat="48.988006515428424" lon="9.695810247212648">
<ele>334.6</ele>
<time>2024-05-07T11:38:59Z</time>
</trkpt>
<trkpt lat="48.98802177049219" lon="9.695817874744534">
<ele>334.4</ele>
<time>2024-05-07T11:39:00Z</time>
</trkpt>
<trkpt lat="48.98804088123143" lon="9.695830279961228">
<ele>334.4</ele>
<time>2024-05-07T11:39:01Z</time>
</trkpt>
<trkpt lat="48.98805999197066" lon="9.695843691006305">
<ele>334.4</ele>
<time>2024-05-07T11:39:02Z</time>
</trkpt>
<trkpt lat="48.98807901889086" lon="9.695857018232346">
<ele>334.4</ele>
<time>2024-05-07T11:39:03Z</time>
</trkpt>
<trkpt lat="48.98809427395463" lon="9.695864645764232">
<ele>334.6</ele>
<time>2024-05-07T11:39:04Z</time>
</trkpt>
<trkpt lat="48.98811338469386" lon="9.695871351286767">
<ele>334.6</ele>
<time>2024-05-07T11:39:05Z</time>
</trkpt>
<trkpt lat="48.988124784082174" lon="9.695877050980926">
<ele>334.8</ele>
<time>2024-05-07T11:39:06Z</time>
</trkpt>
<trkpt lat="48.988143894821405" lon="9.695877050980926">
<ele>334.8</ele>
<time>2024-05-07T11:39:07Z</time>
</trkpt>
<trkpt lat="48.988166777417064" lon="9.695871351286767">
<ele>335</ele>
<time>2024-05-07T11:39:08Z</time>
</trkpt>
<trkpt lat="48.98818580433726" lon="9.695864645764232">
<ele>335</ele>
<time>2024-05-07T11:39:09Z</time>
</trkpt>
<trkpt lat="48.98820877075195" lon="9.695857018232346">
<ele>335</ele>
<time>2024-05-07T11:39:10Z</time>
</trkpt>
<trkpt lat="48.98822779767215" lon="9.695835057646036">
<ele>335.2</ele>
<time>2024-05-07T11:39:11Z</time>
</trkpt>
<trkpt lat="48.9882392808795" lon="9.695801697671412">
<ele>335.2</ele>
<time>2024-05-07T11:39:12Z</time>
</trkpt>
<trkpt lat="48.988243052735925" lon="9.695754926651716">
<ele>335.2</ele>
<time>2024-05-07T11:39:13Z</time>
</trkpt>
<trkpt lat="48.988246908411384" lon="9.695696756243706">
<ele>335.4</ele>
<time>2024-05-07T11:39:14Z</time>
</trkpt>
<trkpt lat="48.988243052735925" lon="9.69563003629446">
<ele>335.4</ele>
<time>2024-05-07T11:39:15Z</time>
</trkpt>
<trkpt lat="48.98823542520404" lon="9.695556610822678">
<ele>335.4</ele>
<time>2024-05-07T11:39:16Z</time>
</trkpt>
<trkpt lat="48.98822779767215" lon="9.695474551990628">
<ele>335.4</ele>
<time>2024-05-07T11:39:17Z</time>
</trkpt>
<trkpt lat="48.98821639828384" lon="9.695383021607997">
<ele>335.4</ele>
<time>2024-05-07T11:39:18Z</time>
</trkpt>
<trkpt lat="48.988204915076494" lon="9.695291491225362">
<ele>335.4</ele>
<time>2024-05-07T11:39:19Z</time>
</trkpt>
<trkpt lat="48.988201059401035" lon="9.695208510383964">
<ele>335.4</ele>
<time>2024-05-07T11:39:20Z</time>
</trkpt>
<trkpt lat="48.988224025815725" lon="9.695139862596989">
<ele>335.2</ele>
<time>2024-05-07T11:39:21Z</time>
</trkpt>
<trkpt lat="48.9882583077997" lon="9.695090241730211">
<ele>335</ele>
<time>2024-05-07T11:39:22Z</time>
</trkpt>
<trkpt lat="48.98829644545913" lon="9.69503684900701">
<ele>335</ele>
<time>2024-05-07T11:39:23Z</time>
</trkpt>
<trkpt lat="48.9883460663259" lon="9.69499485567212">
<ele>334.8</ele>
<time>2024-05-07T11:39:24Z</time>
</trkpt>
<trkpt lat="48.988399459049106" lon="9.69495864585042">
<ele>334.6</ele>
<time>2024-05-07T11:39:25Z</time>
</trkpt>
<trkpt lat="48.98845670744777" lon="9.694921430200338">
<ele>334.4</ele>
<time>2024-05-07T11:39:26Z</time>
</trkpt>
<trkpt lat="48.98851010017097" lon="9.694881364703178">
<ele>334.2</ele>
<time>2024-05-07T11:39:27Z</time>
</trkpt>
<trkpt lat="48.98856734856963" lon="9.69484037719667">
<ele>334.2</ele>
<time>2024-05-07T11:39:28Z</time>
</trkpt>
<trkpt lat="48.988620741292834" lon="9.694793689996004">
<ele>334</ele>
<time>2024-05-07T11:39:29Z</time>
</trkpt>
<trkpt lat="48.98867027834058" lon="9.694736441597342">
<ele>334</ele>
<time>2024-05-07T11:39:30Z</time>
</trkpt>
<trkpt lat="48.98872752673924" lon="9.69468019902706">
<ele>334</ele>
<time>2024-05-07T11:39:31Z</time>
</trkpt>
<trkpt lat="48.98878091946244" lon="9.694618172943592">
<ele>334</ele>
<time>2024-05-07T11:39:32Z</time>
</trkpt>
<trkpt lat="48.98883054032922" lon="9.694560002535582">
<ele>334.2</ele>
<time>2024-05-07T11:39:33Z</time>
</trkpt>
<trkpt lat="48.98888393305242" lon="9.694495126605034">
<ele>334.2</ele>
<time>2024-05-07T11:39:34Z</time>
</trkpt>
<trkpt lat="48.98893732577562" lon="9.69442455098033">
<ele>334.4</ele>
<time>2024-05-07T11:39:35Z</time>
</trkpt>
<trkpt lat="48.988990718498826" lon="9.694359758868814">
<ele>334.6</ele>
<time>2024-05-07T11:39:36Z</time>
</trkpt>
<trkpt lat="48.98904796689749" lon="9.694298738613725">
<ele>334.6</ele>
<time>2024-05-07T11:39:37Z</time>
</trkpt>
<trkpt lat="48.98910135962069" lon="9.694230007007718">
<ele>334.8</ele>
<time>2024-05-07T11:39:38Z</time>
</trkpt>
<trkpt lat="48.98915475234389" lon="9.694151803851128">
<ele>335.2</ele>
<time>2024-05-07T11:39:39Z</time>
</trkpt>
<trkpt lat="48.98920437321067" lon="9.694074606522918">
<ele>335.4</ele>
<time>2024-05-07T11:39:40Z</time>
</trkpt>
<trkpt lat="48.98925776593387" lon="9.693996403366327">
<ele>335.6</ele>
<time>2024-05-07T11:39:41Z</time>
</trkpt>
<trkpt lat="48.98930738680065" lon="9.693918200209737">
<ele>335.6</ele>
<time>2024-05-07T11:39:42Z</time>
</trkpt>
<trkpt lat="48.98936077952385" lon="9.693838069215415">
<ele>335.8</ele>
<time>2024-05-07T11:39:43Z</time>
</trkpt>
<trkpt lat="48.989410400390625" lon="9.693759866058826">
<ele>336</ele>
<time>2024-05-07T11:39:44Z</time>
</trkpt>
<trkpt lat="48.98945993743837" lon="9.693681662902236">
<ele>336.2</ele>
<time>2024-05-07T11:39:45Z</time>
</trkpt>
<trkpt lat="48.989509558305144" lon="9.693601531907916">
<ele>336.4</ele>
<time>2024-05-07T11:39:46Z</time>
</trkpt>
<trkpt lat="48.98955909535289" lon="9.69351863488555">
<ele>336.6</ele>
<time>2024-05-07T11:39:47Z</time>
</trkpt>
<trkpt lat="48.989608716219664" lon="9.693441353738308">
<ele>336.6</ele>
<time>2024-05-07T11:39:48Z</time>
</trkpt>
<trkpt lat="48.98965833708644" lon="9.693373627960682">
<ele>336.8</ele>
<time>2024-05-07T11:39:49Z</time>
</trkpt>
<trkpt lat="48.98971172980964" lon="9.693306908011436">
<ele>336.8</ele>
<time>2024-05-07T11:39:50Z</time>
</trkpt>
<trkpt lat="48.98976135067642" lon="9.693242032080889">
<ele>336.8</ele>
<time>2024-05-07T11:39:51Z</time>
</trkpt>
<trkpt lat="48.98981088772416" lon="9.693173384293914">
<ele>336.8</ele>
<time>2024-05-07T11:39:52Z</time>
</trkpt>
<trkpt lat="48.98986050859094" lon="9.693111358210444">
<ele>336.8</ele>
<time>2024-05-07T11:39:53Z</time>
</trkpt>
<trkpt lat="48.98991004563868" lon="9.693051259964705">
<ele>336.8</ele>
<time>2024-05-07T11:39:54Z</time>
</trkpt>
<trkpt lat="48.989963522180915" lon="9.692990239709616">
<ele>336.8</ele>
<time>2024-05-07T11:39:55Z</time>
</trkpt>
<trkpt lat="48.99001305922866" lon="9.692930141463876">
<ele>337</ele>
<time>2024-05-07T11:39:56Z</time>
</trkpt>
<trkpt lat="48.99006645195186" lon="9.692872976884246">
<ele>337</ele>
<time>2024-05-07T11:39:57Z</time>
</trkpt>
<trkpt lat="48.99011607281864" lon="9.692818578332664">
<ele>337.2</ele>
<time>2024-05-07T11:39:58Z</time>
</trkpt>
<trkpt lat="48.990158066153526" lon="9.692768035456538">
<ele>337.2</ele>
<time>2024-05-07T11:39:59Z</time>
</trkpt>
<trkpt lat="48.99020383134484" lon="9.692714642733335">
<ele>337.4</ele>
<time>2024-05-07T11:40:00Z</time>
</trkpt>
<trkpt lat="48.99024959653616" lon="9.692663177847862">
<ele>337.4</ele>
<time>2024-05-07T11:40:01Z</time>
</trkpt>
<trkpt lat="48.99029158987105" lon="9.69260785728693">
<ele>337.6</ele>
<time>2024-05-07T11:40:02Z</time>
</trkpt>
<trkpt lat="48.990337355062366" lon="9.692556308582423">
<ele>337.6</ele>
<time>2024-05-07T11:40:03Z</time>
</trkpt>
<trkpt lat="48.99037926457822" lon="9.69250861555338">
<ele>337.6</ele>
<time>2024-05-07T11:40:04Z</time>
</trkpt>
<trkpt lat="48.99042502976954" lon="9.692462850362062">
<ele>337.8</ele>
<time>2024-05-07T11:40:05Z</time>
</trkpt>
<trkpt lat="48.990463251248" lon="9.692419935017824">
<ele>337.8</ele>
<time>2024-05-07T11:40:06Z</time>
</trkpt>
<trkpt lat="48.99050138890743" lon="9.692378025501966">
<ele>337.8</ele>
<time>2024-05-07T11:40:07Z</time>
</trkpt>
<trkpt lat="48.99053952656686" lon="9.692337960004808">
<ele>337.8</ele>
<time>2024-05-07T11:40:08Z</time>
</trkpt>
<trkpt lat="48.990573808550835" lon="9.692295044660568">
<ele>337.8</ele>
<time>2024-05-07T11:40:09Z</time>
</trkpt>
<trkpt lat="48.99060817435384" lon="9.692248273640873">
<ele>337.8</ele>
<time>2024-05-07T11:40:10Z</time>
</trkpt>
<trkpt lat="48.99064631201327" lon="9.692205358296633">
<ele>337.8</ele>
<time>2024-05-07T11:40:11Z</time>
</trkpt>
<trkpt lat="48.9906844496727" lon="9.692158671095967">
<ele>337.8</ele>
<time>2024-05-07T11:40:12Z</time>
</trkpt>
<trkpt lat="48.99072644300759" lon="9.69211190007627">
<ele>337.8</ele>
<time>2024-05-07T11:40:13Z</time>
</trkpt>
<trkpt lat="48.99076458066702" lon="9.692063285037875">
<ele>337.8</ele>
<time>2024-05-07T11:40:14Z</time>
</trkpt>
<trkpt lat="48.99080657400191" lon="9.69201659783721">
<ele>337.8</ele>
<time>2024-05-07T11:40:15Z</time>
</trkpt>
<trkpt lat="48.990848483517766" lon="9.691969826817513">
<ele>338</ele>
<time>2024-05-07T11:40:16Z</time>
</trkpt>
<trkpt lat="48.9908866211772" lon="9.69191836193204">
<ele>338</ele>
<time>2024-05-07T11:40:17Z</time>
</trkpt>
<trkpt lat="48.99092475883663" lon="9.691869663074613">
<ele>338</ele>
<time>2024-05-07T11:40:18Z</time>
</trkpt>
<trkpt lat="48.99096675217152" lon="9.691821970045568">
<ele>337.8</ele>
<time>2024-05-07T11:40:19Z</time>
</trkpt>
<trkpt lat="48.99100488983095" lon="9.6917752828449">
<ele>337.8</ele>
<time>2024-05-07T11:40:20Z</time>
</trkpt>
<trkpt lat="48.99104302749038" lon="9.691730439662932">
<ele>337.8</ele>
<time>2024-05-07T11:40:21Z</time>
</trkpt>
<trkpt lat="48.99108502082527" lon="9.691684674471617">
<ele>337.8</ele>
<time>2024-05-07T11:40:22Z</time>
</trkpt>
<trkpt lat="48.9911231584847" lon="9.691639831289647">
<ele>337.8</ele>
<time>2024-05-07T11:40:23Z</time>
</trkpt>
<trkpt lat="48.99116129614413" lon="9.69159691594541">
<ele>337.8</ele>
<time>2024-05-07T11:40:24Z</time>
</trkpt>
<trkpt lat="48.99119943380356" lon="9.691555006429551">
<ele>337.8</ele>
<time>2024-05-07T11:40:25Z</time>
</trkpt>
<trkpt lat="48.99123379960656" lon="9.691513013094664">
<ele>337.8</ele>
<time>2024-05-07T11:40:26Z</time>
</trkpt>
<trkpt lat="48.99127193726599" lon="9.691470097750424">
<ele>338</ele>
<time>2024-05-07T11:40:27Z</time>
</trkpt>
<trkpt lat="48.99131393060088" lon="9.691425254568458">
<ele>338</ele>
<time>2024-05-07T11:40:28Z</time>
</trkpt>
<trkpt lat="48.99135206826031" lon="9.691374711692331">
<ele>338.2</ele>
<time>2024-05-07T11:40:29Z</time>
</trkpt>
<trkpt lat="48.99139397777617" lon="9.69132324680686">
<ele>338.2</ele>
<time>2024-05-07T11:40:30Z</time>
</trkpt>
<trkpt lat="48.9914321154356" lon="9.691274631768463">
<ele>338.2</ele>
<time>2024-05-07T11:40:31Z</time>
</trkpt>
<trkpt lat="48.99147033691406" lon="9.69122115522623">
<ele>338.4</ele>
<time>2024-05-07T11:40:32Z</time>
</trkpt>
<trkpt lat="48.99151610210538" lon="9.69116684049368">
<ele>338.4</ele>
<time>2024-05-07T11:40:33Z</time>
</trkpt>
<trkpt lat="48.991561867296696" lon="9.691109592095016">
<ele>338.4</ele>
<time>2024-05-07T11:40:34Z</time>
</trkpt>
<trkpt lat="48.9916152600199" lon="9.6910466440022">
<ele>338.6</ele>
<time>2024-05-07T11:40:35Z</time>
</trkpt>
<trkpt lat="48.9916686527431" lon="9.690981851890683">
<ele>338.4</ele>
<time>2024-05-07T11:40:36Z</time>
</trkpt>
<trkpt lat="48.99172590114176" lon="9.690915048122406">
<ele>338.4</ele>
<time>2024-05-07T11:40:37Z</time>
</trkpt>
<trkpt lat="48.991779293864965" lon="9.69085025601089">
<ele>338.4</ele>
<time>2024-05-07T11:40:38Z</time>
</trkpt>
<trkpt lat="48.99182891473174" lon="9.690794935449958">
<ele>338.2</ele>
<time>2024-05-07T11:40:39Z</time>
</trkpt>
<trkpt lat="48.991878451779485" lon="9.69074816443026">
<ele>338</ele>
<time>2024-05-07T11:40:40Z</time>
</trkpt>
<trkpt lat="48.99192807264626" lon="9.690701477229595">
<ele>337.8</ele>
<time>2024-05-07T11:40:41Z</time>
</trkpt>
<trkpt lat="48.99197383783758" lon="9.690660405904056">
<ele>337.6</ele>
<time>2024-05-07T11:40:42Z</time>
</trkpt>
<trkpt lat="48.99202345870435" lon="9.690620340406896">
<ele>337.4</ele>
<time>2024-05-07T11:40:43Z</time>
</trkpt>
<trkpt lat="48.99206536822021" lon="9.690585136413574">
<ele>337.2</ele>
<time>2024-05-07T11:40:44Z</time>
</trkpt>
<trkpt lat="48.9921073615551" lon="9.690558398142455">
<ele>337</ele>
<time>2024-05-07T11:40:45Z</time>
</trkpt>
<trkpt lat="48.992153126746416" lon="9.690540293231606">
<ele>336.8</ele>
<time>2024-05-07T11:40:46Z</time>
</trkpt>
<trkpt lat="48.992195120081306" lon="9.690527888014913">
<ele>336.8</ele>
<time>2024-05-07T11:40:47Z</time>
</trkpt>
<trkpt lat="48.99223702959716" lon="9.690527888014913">
<ele>336.6</ele>
<time>2024-05-07T11:40:48Z</time>
</trkpt>
<trkpt lat="48.992275167256594" lon="9.690529815852642">
<ele>336.6</ele>
<time>2024-05-07T11:40:49Z</time>
</trkpt>
<trkpt lat="48.99232093244791" lon="9.690540293231606">
<ele>336.6</ele>
<time>2024-05-07T11:40:50Z</time>
</trkpt>
<trkpt lat="48.9923629257828" lon="9.690558398142455">
<ele>336.6</ele>
<time>2024-05-07T11:40:51Z</time>
</trkpt>
<trkpt lat="48.992412546649575" lon="9.690567953512073">
<ele>336.6</ele>
<time>2024-05-07T11:40:52Z</time>
</trkpt>
<trkpt lat="48.99246593937278" lon="9.690566947683692">
<ele>336.6</ele>
<time>2024-05-07T11:40:53Z</time>
</trkpt>
<trkpt lat="48.99252695962787" lon="9.690561247989535">
<ele>336.8</ele>
<time>2024-05-07T11:40:54Z</time>
</trkpt>
<trkpt lat="48.99258420802653" lon="9.690558398142455">
<ele>336.6</ele>
<time>2024-05-07T11:40:55Z</time>
</trkpt>
<trkpt lat="48.99264522828162" lon="9.690554542466998">
<ele>336.6</ele>
<time>2024-05-07T11:40:56Z</time>
</trkpt>
<trkpt lat="48.992706248536706" lon="9.690543143078685">
<ele>336.6</ele>
<time>2024-05-07T11:40:57Z</time>
</trkpt>
<trkpt lat="48.99276349693537" lon="9.690543143078685">
<ele>336.4</ele>
<time>2024-05-07T11:40:58Z</time>
</trkpt>
<trkpt lat="48.992824517190456" lon="9.690545070916414">
<ele>336.4</ele>
<time>2024-05-07T11:40:59Z</time>
</trkpt>
<trkpt lat="48.99287790991366" lon="9.690549848601222">
<ele>336.4</ele>
<time>2024-05-07T11:41:00Z</time>
</trkpt>
<trkpt lat="48.99293130263686" lon="9.69055169261992">
<ele>336.4</ele>
<time>2024-05-07T11:41:01Z</time>
</trkpt>
<trkpt lat="48.99298092350364" lon="9.69055362045765">
<ele>336.4</ele>
<time>2024-05-07T11:41:02Z</time>
</trkpt>
<trkpt lat="48.99303054437041" lon="9.69055169261992">
<ele>336.2</ele>
<time>2024-05-07T11:41:03Z</time>
</trkpt>
<trkpt lat="48.99308008141816" lon="9.690547920763493">
<ele>336.2</ele>
<time>2024-05-07T11:41:04Z</time>
</trkpt>
<trkpt lat="48.99313347414136" lon="9.690547920763493">
<ele>336.2</ele>
<time>2024-05-07T11:41:05Z</time>
</trkpt>
<trkpt lat="48.993183095008135" lon="9.690536437556148">
<ele>336.2</ele>
<time>2024-05-07T11:41:06Z</time>
</trkpt>
<trkpt lat="48.99323648773134" lon="9.690527888014913">
<ele>336</ele>
<time>2024-05-07T11:41:07Z</time>
</trkpt>
<trkpt lat="48.99329373613" lon="9.690529815852642">
<ele>336</ele>
<time>2024-05-07T11:41:08Z</time>
</trkpt>
<trkpt lat="48.99335090070963" lon="9.690525038167834">
<ele>336</ele>
<time>2024-05-07T11:41:09Z</time>
</trkpt>
<trkpt lat="48.99340814910829" lon="9.69051162712276">
<ele>336</ele>
<time>2024-05-07T11:41:10Z</time>
</trkpt>
<trkpt lat="48.99346154183149" lon="9.690503077581525">
<ele>335.8</ele>
<time>2024-05-07T11:41:11Z</time>
</trkpt>
<trkpt lat="48.993514934554696" lon="9.69049352221191">
<ele>335.8</ele>
<time>2024-05-07T11:41:12Z</time>
</trkpt>
<trkpt lat="48.99357218295336" lon="9.690476339310408">
<ele>335.8</ele>
<time>2024-05-07T11:41:13Z</time>
</trkpt>
<trkpt lat="48.99362557567656" lon="9.690463012084363">
<ele>335.8</ele>
<time>2024-05-07T11:41:14Z</time>
</trkpt>
<trkpt lat="48.99367896839976" lon="9.690442057326436">
<ele>335.8</ele>
<time>2024-05-07T11:41:15Z</time>
</trkpt>
<trkpt lat="48.99372481741011" lon="9.690426802262664">
<ele>335.8</ele>
<time>2024-05-07T11:41:16Z</time>
</trkpt>
<trkpt lat="48.993774354457855" lon="9.6904163248837">
<ele>335.8</ele>
<time>2024-05-07T11:41:17Z</time>
</trkpt>
<trkpt lat="48.99382397532463" lon="9.690400063991548">
<ele>335.8</ele>
<time>2024-05-07T11:41:18Z</time>
</trkpt>
<trkpt lat="48.993873596191406" lon="9.690381959080696">
<ele>335.8</ele>
<time>2024-05-07T11:41:19Z</time>
</trkpt>
<trkpt lat="48.99390787817538" lon="9.690364776179194">
<ele>335.8</ele>
<time>2024-05-07T11:41:20Z</time>
</trkpt>
<trkpt lat="48.99394601583481" lon="9.69035337679088">
<ele>335.8</ele>
<time>2024-05-07T11:41:21Z</time>
</trkpt>
<trkpt lat="48.99398415349424" lon="9.69033527188003">
<ele>336</ele>
<time>2024-05-07T11:41:22Z</time>
</trkpt>
<trkpt lat="48.994029918685555" lon="9.690309455618262">
<ele>336</ele>
<time>2024-05-07T11:41:23Z</time>
</trkpt>
<trkpt lat="48.99407953955233" lon="9.690283723175526">
<ele>336.2</ele>
<time>2024-05-07T11:41:24Z</time>
</trkpt>
<trkpt lat="48.99412916041911" lon="9.69025706872344">
<ele>336.4</ele>
<time>2024-05-07T11:41:25Z</time>
</trkpt>
<trkpt lat="48.99417492561042" lon="9.690230330452325">
<ele>336.4</ele>
<time>2024-05-07T11:41:26Z</time>
</trkpt>
<trkpt lat="48.9942245464772" lon="9.690203592181206">
<ele>336.6</ele>
<time>2024-05-07T11:41:27Z</time>
</trkpt>
<trkpt lat="48.994266455993056" lon="9.69017308205366">
<ele>336.6</ele>
<time>2024-05-07T11:41:28Z</time>
</trkpt>
<trkpt lat="48.994308449327946" lon="9.690145421773195">
<ele>336.8</ele>
<time>2024-05-07T11:41:29Z</time>
</trkpt>
<trkpt lat="48.9943503588438" lon="9.69011683948338">
<ele>336.8</ele>
<time>2024-05-07T11:41:30Z</time>
</trkpt>
<trkpt lat="48.99439620785415" lon="9.690086329355836">
<ele>336.8</ele>
<time>2024-05-07T11:41:31Z</time>
</trkpt>
<trkpt lat="48.994449600577354" lon="9.690051963552833">
<ele>337</ele>
<time>2024-05-07T11:41:32Z</time>
</trkpt>
<trkpt lat="48.99449151009321" lon="9.69001952558756">
<ele>337</ele>
<time>2024-05-07T11:41:33Z</time>
</trkpt>
<trkpt lat="48.99453727528453" lon="9.689988093450664">
<ele>337</ele>
<time>2024-05-07T11:41:34Z</time>
</trkpt>
<trkpt lat="48.99458312429488" lon="9.689952805638312">
<ele>337</ele>
<time>2024-05-07T11:41:35Z</time>
</trkpt>
<trkpt lat="48.994628889486194" lon="9.689916595816612">
<ele>337</ele>
<time>2024-05-07T11:41:36Z</time>
</trkpt>
<trkpt lat="48.99467465467751" lon="9.689878458157182">
<ele>337</ele>
<time>2024-05-07T11:41:37Z</time>
</trkpt>
<trkpt lat="48.99471279233694" lon="9.68984023667872">
<ele>337</ele>
<time>2024-05-07T11:41:38Z</time>
</trkpt>
<trkpt lat="48.99475478567183" lon="9.689800255000591">
<ele>337</ele>
<time>2024-05-07T11:41:39Z</time>
</trkpt>
<trkpt lat="48.99479669518769" lon="9.689762033522127">
<ele>337</ele>
<time>2024-05-07T11:41:40Z</time>
</trkpt>
<trkpt lat="48.99484631605446" lon="9.689720124006271">
<ele>336.8</ele>
<time>2024-05-07T11:41:41Z</time>
</trkpt>
<trkpt lat="48.99489208124578" lon="9.689676202833652">
<ele>336.8</ele>
<time>2024-05-07T11:41:42Z</time>
</trkpt>
<trkpt lat="48.99494170211256" lon="9.689636221155524">
<ele>336.6</ele>
<time>2024-05-07T11:41:43Z</time>
</trkpt>
<trkpt lat="48.99499509483576" lon="9.689595149829984">
<ele>336.4</ele>
<time>2024-05-07T11:41:44Z</time>
</trkpt>
<trkpt lat="48.995040860027075" lon="9.68954460695386">
<ele>336.4</ele>
<time>2024-05-07T11:41:45Z</time>
</trkpt>
<trkpt lat="48.99508662521839" lon="9.68950169160962">
<ele>336.4</ele>
<time>2024-05-07T11:41:46Z</time>
</trkpt>
<trkpt lat="48.99512861855328" lon="9.689459782093763">
<ele>336.6</ele>
<time>2024-05-07T11:41:47Z</time>
</trkpt>
<trkpt lat="48.99516675621271" lon="9.689414938911796">
<ele>336.6</ele>
<time>2024-05-07T11:41:48Z</time>
</trkpt>
<trkpt lat="48.99520866572857" lon="9.689372945576906">
<ele>336.8</ele>
<time>2024-05-07T11:41:49Z</time>
</trkpt>
<trkpt lat="48.99525451473892" lon="9.68932818621397">
<ele>336.8</ele>
<time>2024-05-07T11:41:50Z</time>
</trkpt>
<trkpt lat="48.995296424254775" lon="9.689281415194271">
<ele>337</ele>
<time>2024-05-07T11:41:51Z</time>
</trkpt>
<trkpt lat="48.99534218944609" lon="9.6892299503088">
<ele>337</ele>
<time>2024-05-07T11:41:52Z</time>
</trkpt>
<trkpt lat="48.99538795463741" lon="9.689183179289104">
<ele>337.2</ele>
<time>2024-05-07T11:41:53Z</time>
</trkpt>
<trkpt lat="48.99542617611587" lon="9.689140263944864">
<ele>337.2</ele>
<time>2024-05-07T11:41:54Z</time>
</trkpt>
<trkpt lat="48.99546045809984" lon="9.689100198447704">
<ele>337.4</ele>
<time>2024-05-07T11:41:55Z</time>
</trkpt>
<trkpt lat="48.995494823902845" lon="9.68906776048243">
<ele>337.4</ele>
<time>2024-05-07T11:41:56Z</time>
</trkpt>
<trkpt lat="48.99552910588682" lon="9.68903155066073">
<ele>337.6</ele>
<time>2024-05-07T11:41:57Z</time>
</trkpt>
<trkpt lat="48.99556347168982" lon="9.688995340839028">
<ele>337.6</ele>
<time>2024-05-07T11:41:58Z</time>
</trkpt>
<trkpt lat="48.99560160934925" lon="9.688958125188949">
<ele>337.6</ele>
<time>2024-05-07T11:41:59Z</time>
</trkpt>
<trkpt lat="48.99563974700868" lon="9.688922837376596">
<ele>337.6</ele>
<time>2024-05-07T11:42:00Z</time>
</trkpt>
<trkpt lat="48.995674112811685" lon="9.68889039941132">
<ele>337.8</ele>
<time>2024-05-07T11:42:01Z</time>
</trkpt>
<trkpt lat="48.995712250471115" lon="9.688855111598969">
<ele>338</ele>
<time>2024-05-07T11:42:02Z</time>
</trkpt>
<trkpt lat="48.99574653245509" lon="9.688817895948889">
<ele>338</ele>
<time>2024-05-07T11:42:03Z</time>
</trkpt>
<trkpt lat="48.99578475393355" lon="9.688783613964915">
<ele>338.2</ele>
<time>2024-05-07T11:42:04Z</time>
</trkpt>
<trkpt lat="48.99582289159298" lon="9.688746398314834">
<ele>338.4</ele>
<time>2024-05-07T11:42:05Z</time>
</trkpt>
<trkpt lat="48.99585340172053" lon="9.688713038340213">
<ele>338.4</ele>
<time>2024-05-07T11:42:06Z</time>
</trkpt>
<trkpt lat="48.99588005617261" lon="9.688683450222015">
<ele>338.6</ele>
<time>2024-05-07T11:42:07Z</time>
</trkpt>
<trkpt lat="48.99591442197561" lon="9.688650090247393">
<ele>338.6</ele>
<time>2024-05-07T11:42:08Z</time>
</trkpt>
<trkpt lat="48.995948787778616" lon="9.688611952587962">
<ele>338.6</ele>
<time>2024-05-07T11:42:09Z</time>
</trkpt>
<trkpt lat="48.99598306976259" lon="9.688571887090802">
<ele>338.8</ele>
<time>2024-05-07T11:42:10Z</time>
</trkpt>
<trkpt lat="48.99601743556559" lon="9.688531821593642">
<ele>338.8</ele>
<time>2024-05-07T11:42:11Z</time>
</trkpt>
<trkpt lat="48.996047945693135" lon="9.688489912077785">
<ele>339</ele>
<time>2024-05-07T11:42:12Z</time>
</trkpt>
<trkpt lat="48.996086083352566" lon="9.688446996733546">
<ele>339</ele>
<time>2024-05-07T11:42:13Z</time>
</trkpt>
<trkpt lat="48.99612044915557" lon="9.688403075560927">
<ele>339.2</ele>
<time>2024-05-07T11:42:14Z</time>
</trkpt>
<trkpt lat="48.996158586815" lon="9.68836208805442">
<ele>339.2</ele>
<time>2024-05-07T11:42:15Z</time>
</trkpt>
<trkpt lat="48.99620049633086" lon="9.68832009471953">
<ele>339.2</ele>
<time>2024-05-07T11:42:16Z</time>
</trkpt>
<trkpt lat="48.99624248966575" lon="9.688276257365942">
<ele>339.4</ele>
<time>2024-05-07T11:42:17Z</time>
</trkpt>
<trkpt lat="48.99628448300064" lon="9.688231414183974">
<ele>339.4</ele>
<time>2024-05-07T11:42:18Z</time>
</trkpt>
<trkpt lat="48.996326392516494" lon="9.688186571002008">
<ele>339.4</ele>
<time>2024-05-07T11:42:19Z</time>
</trkpt>
<trkpt lat="48.99636838585138" lon="9.68814181163907">
<ele>339.4</ele>
<time>2024-05-07T11:42:20Z</time>
</trkpt>
<trkpt lat="48.996406523510814" lon="9.688097890466452">
<ele>339.4</ele>
<time>2024-05-07T11:42:21Z</time>
</trkpt>
<trkpt lat="48.9964485168457" lon="9.688054975122212">
<ele>339.4</ele>
<time>2024-05-07T11:42:22Z</time>
</trkpt>
<trkpt lat="48.996486654505134" lon="9.688018765300512">
<ele>339.4</ele>
<time>2024-05-07T11:42:23Z</time>
</trkpt>
<trkpt lat="48.99651716463268" lon="9.68798154965043">
<ele>339.4</ele>
<time>2024-05-07T11:42:24Z</time>
</trkpt>
<trkpt lat="48.99655144661665" lon="9.687946261838078">
<ele>339.4</ele>
<time>2024-05-07T11:42:25Z</time>
</trkpt>
<trkpt lat="48.996581956744194" lon="9.687918601557612">
<ele>339.6</ele>
<time>2024-05-07T11:42:26Z</time>
</trkpt>
<trkpt lat="48.99661246687174" lon="9.687890019267796">
<ele>339.6</ele>
<time>2024-05-07T11:42:27Z</time>
</trkpt>
<trkpt lat="48.99664683267474" lon="9.687858503311872">
<ele>339.8</ele>
<time>2024-05-07T11:42:28Z</time>
</trkpt>
<trkpt lat="48.996677342802286" lon="9.68782321549952">
<ele>339.8</ele>
<time>2024-05-07T11:42:29Z</time>
</trkpt>
<trkpt lat="48.9967040810734" lon="9.687793711200356">
<ele>339.8</ele>
<time>2024-05-07T11:42:30Z</time>
</trkpt>
<trkpt lat="48.99673073552549" lon="9.687763201072812">
<ele>340</ele>
<time>2024-05-07T11:42:31Z</time>
</trkpt>
<trkpt lat="48.996757473796606" lon="9.687733612954617">
<ele>340.2</ele>
<time>2024-05-07T11:42:32Z</time>
</trkpt>
<trkpt lat="48.99678798392415" lon="9.687701174989344">
<ele>340.4</ele>
<time>2024-05-07T11:42:33Z</time>
</trkpt>
<trkpt lat="48.996818494051695" lon="9.68766781501472">
<ele>340.6</ele>
<time>2024-05-07T11:42:34Z</time>
</trkpt>
<trkpt lat="48.99684900417924" lon="9.687638226896524">
<ele>340.8</ele>
<time>2024-05-07T11:42:35Z</time>
</trkpt>
<trkpt lat="48.99687574245036" lon="9.687613416463137">
<ele>341</ele>
<time>2024-05-07T11:42:36Z</time>
</trkpt>
<trkpt lat="48.99691002443433" lon="9.687586762011051">
<ele>341.2</ele>
<time>2024-05-07T11:42:37Z</time>
</trkpt>
<trkpt lat="48.99694053456187" lon="9.687556251883509">
<ele>341.4</ele>
<time>2024-05-07T11:42:38Z</time>
</trkpt>
<trkpt lat="48.99697112850845" lon="9.687526663765311">
<ele>341.6</ele>
<time>2024-05-07T11:42:39Z</time>
</trkpt>
<trkpt lat="48.99700163863599" lon="9.687493303790689">
<ele>341.8</ele>
<time>2024-05-07T11:42:40Z</time>
</trkpt>
<trkpt lat="48.99703214876354" lon="9.687463715672491">
<ele>341.8</ele>
<time>2024-05-07T11:42:41Z</time>
</trkpt>
<trkpt lat="48.99706643074751" lon="9.687433205544949">
<ele>342</ele>
<time>2024-05-07T11:42:42Z</time>
</trkpt>
<trkpt lat="48.99709694087505" lon="9.687404623255134">
<ele>342</ele>
<time>2024-05-07T11:42:43Z</time>
</trkpt>
<trkpt lat="48.99713516235352" lon="9.68737117946148">
<ele>342</ele>
<time>2024-05-07T11:42:44Z</time>
</trkpt>
<trkpt lat="48.99716567248106" lon="9.687341675162315">
<ele>342.2</ele>
<time>2024-05-07T11:42:45Z</time>
</trkpt>
<trkpt lat="48.99719995446503" lon="9.68730823136866">
<ele>342.2</ele>
<time>2024-05-07T11:42:46Z</time>
</trkpt>
<trkpt lat="48.99723809212446" lon="9.68727009370923">
<ele>342.2</ele>
<time>2024-05-07T11:42:47Z</time>
</trkpt>
<trkpt lat="48.99727622978389" lon="9.68723296187818">
<ele>342.2</ele>
<time>2024-05-07T11:42:48Z</time>
</trkpt>
<trkpt lat="48.99731822311878" lon="9.68719289638102">
<ele>342.2</ele>
<time>2024-05-07T11:42:49Z</time>
</trkpt>
<trkpt lat="48.99735636077821" lon="9.687149981036782">
<ele>342.2</ele>
<time>2024-05-07T11:42:50Z</time>
</trkpt>
<trkpt lat="48.99740212596953" lon="9.687105137854816">
<ele>342.2</ele>
<time>2024-05-07T11:42:51Z</time>
</trkpt>
<trkpt lat="48.997451746836305" lon="9.687049817293882">
<ele>342.2</ele>
<time>2024-05-07T11:42:52Z</time>
</trkpt>
<trkpt lat="48.99750513955951" lon="9.68699449673295">
<ele>342.2</ele>
<time>2024-05-07T11:42:53Z</time>
</trkpt>
<trkpt lat="48.99755853228271" lon="9.68693632632494">
<ele>342.2</ele>
<time>2024-05-07T11:42:54Z</time>
</trkpt>
<trkpt lat="48.99761192500591" lon="9.686871450394392">
<ele>342.2</ele>
<time>2024-05-07T11:42:55Z</time>
</trkpt>
<trkpt lat="48.997669173404574" lon="9.686796180903912">
<ele>342</ele>
<time>2024-05-07T11:42:56Z</time>
</trkpt>
<trkpt lat="48.99772256612778" lon="9.686730382964017">
<ele>341.8</ele>
<time>2024-05-07T11:42:57Z</time>
</trkpt>
<trkpt lat="48.99777981452644" lon="9.686671206727624">
<ele>341.8</ele>
<time>2024-05-07T11:42:58Z</time>
</trkpt>
<trkpt lat="48.99783320724964" lon="9.68661873601377">
<ele>341.6</ele>
<time>2024-05-07T11:42:59Z</time>
</trkpt>
<trkpt lat="48.99788659997285" lon="9.686572970822452">
<ele>341.4</ele>
<time>2024-05-07T11:43:00Z</time>
</trkpt>
<trkpt lat="48.99793999269605" lon="9.686532905325294">
<ele>341.2</ele>
<time>2024-05-07T11:43:01Z</time>
</trkpt>
<trkpt lat="48.99798961356282" lon="9.686492839828134">
<ele>341</ele>
<time>2024-05-07T11:43:02Z</time>
</trkpt>
<trkpt lat="48.99803537875414" lon="9.686454702168705">
<ele>340.8</ele>
<time>2024-05-07T11:43:03Z</time>
</trkpt>
<trkpt lat="48.998081143945456" lon="9.686420420184731">
<ele>340.8</ele>
<time>2024-05-07T11:43:04Z</time>
</trkpt>
<trkpt lat="48.998119281604886" lon="9.68638127669692">
<ele>340.6</ele>
<time>2024-05-07T11:43:05Z</time>
</trkpt>
<trkpt lat="48.99815364740789" lon="9.686346994712949">
<ele>340.6</ele>
<time>2024-05-07T11:43:06Z</time>
</trkpt>
<trkpt lat="48.99819178506732" lon="9.686309779062867">
<ele>340.4</ele>
<time>2024-05-07T11:43:07Z</time>
</trkpt>
<trkpt lat="48.99822992272675" lon="9.686275413259864">
<ele>340.4</ele>
<time>2024-05-07T11:43:08Z</time>
</trkpt>
<trkpt lat="48.99826806038618" lon="9.68624205328524">
<ele>340.2</ele>
<time>2024-05-07T11:43:09Z</time>
</trkpt>
<trkpt lat="48.998302426189184" lon="9.686206765472887">
<ele>340.2</ele>
<time>2024-05-07T11:43:10Z</time>
</trkpt>
<trkpt lat="48.99833679199219" lon="9.686169549822807">
<ele>340.2</ele>
<time>2024-05-07T11:43:11Z</time>
</trkpt>
<trkpt lat="48.99837492965162" lon="9.686133340001106">
<ele>340.2</ele>
<time>2024-05-07T11:43:12Z</time>
</trkpt>
<trkpt lat="48.99840921163559" lon="9.686096124351025">
<ele>340.2</ele>
<time>2024-05-07T11:43:13Z</time>
</trkpt>
<trkpt lat="48.99844357743859" lon="9.686061842367051">
<ele>340.2</ele>
<time>2024-05-07T11:43:14Z</time>
</trkpt>
<trkpt lat="48.99848171509802" lon="9.686024626716971">
<ele>340.2</ele>
<time>2024-05-07T11:43:15Z</time>
</trkpt>
<trkpt lat="48.998519852757454" lon="9.685990260913968">
<ele>340.4</ele>
<time>2024-05-07T11:43:16Z</time>
</trkpt>
<trkpt lat="48.99855799041688" lon="9.685954973101616">
<ele>340.4</ele>
<time>2024-05-07T11:43:17Z</time>
</trkpt>
<trkpt lat="48.998596128076315" lon="9.685914991423488">
<ele>340.4</ele>
<time>2024-05-07T11:43:18Z</time>
</trkpt>
<trkpt lat="48.998634265735745" lon="9.685874925926328">
<ele>340.4</ele>
<time>2024-05-07T11:43:19Z</time>
</trkpt>
<trkpt lat="48.99866863153875" lon="9.685838632285597">
<ele>340.4</ele>
<time>2024-05-07T11:43:20Z</time>
</trkpt>
<trkpt lat="48.99870676919818" lon="9.685801500454543">
<ele>340.4</ele>
<time>2024-05-07T11:43:21Z</time>
</trkpt>
<trkpt lat="48.99874876253307" lon="9.685761434957383">
<ele>340.6</ele>
<time>2024-05-07T11:43:22Z</time>
</trkpt>
<trkpt lat="48.9987869001925" lon="9.685721369460223">
<ele>340.6</ele>
<time>2024-05-07T11:43:23Z</time>
</trkpt>
<trkpt lat="48.99882503785193" lon="9.685681303963063">
<ele>340.6</ele>
<time>2024-05-07T11:43:24Z</time>
</trkpt>
<trkpt lat="48.998870803043246" lon="9.685643166303636">
<ele>340.6</ele>
<time>2024-05-07T11:43:25Z</time>
</trkpt>
<trkpt lat="48.998912796378136" lon="9.685601172968743">
<ele>340.6</ele>
<time>2024-05-07T11:43:26Z</time>
</trkpt>
<trkpt lat="48.99895470589399" lon="9.685558257624509">
<ele>340.6</ele>
<time>2024-05-07T11:43:27Z</time>
</trkpt>
<trkpt lat="48.99899669922888" lon="9.685515342280269">
<ele>340.6</ele>
<time>2024-05-07T11:43:28Z</time>
</trkpt>
<trkpt lat="48.9990424644202" lon="9.685468655079603">
<ele>340.6</ele>
<time>2024-05-07T11:43:29Z</time>
</trkpt>
<trkpt lat="48.99908822961152" lon="9.685422889888288">
<ele>340.6</ele>
<time>2024-05-07T11:43:30Z</time>
</trkpt>
<trkpt lat="48.999130222946405" lon="9.685379974544048">
<ele>340.4</ele>
<time>2024-05-07T11:43:31Z</time>
</trkpt>
<trkpt lat="48.99917975999415" lon="9.68533513136208">
<ele>340.4</ele>
<time>2024-05-07T11:43:32Z</time>
</trkpt>
<trkpt lat="48.9992256090045" lon="9.685286516323686">
<ele>340.2</ele>
<time>2024-05-07T11:43:33Z</time>
</trkpt>
<trkpt lat="48.99927514605224" lon="9.685239745303988">
<ele>340.2</ele>
<time>2024-05-07T11:43:34Z</time>
</trkpt>
<trkpt lat="48.99932476691902" lon="9.685193058103325">
<ele>340</ele>
<time>2024-05-07T11:43:35Z</time>
</trkpt>
<trkpt lat="48.99937053211033" lon="9.685143437236547">
<ele>340</ele>
<time>2024-05-07T11:43:36Z</time>
</trkpt>
<trkpt lat="48.99942015297711" lon="9.685094822198153">
<ele>339.8</ele>
<time>2024-05-07T11:43:37Z</time>
</trkpt>
<trkpt lat="48.99946969002485" lon="9.685047129169106">
<ele>339.8</ele>
<time>2024-05-07T11:43:38Z</time>
</trkpt>
<trkpt lat="48.99951545521617" lon="9.68499843031168">
<ele>339.6</ele>
<time>2024-05-07T11:43:39Z</time>
</trkpt>
<trkpt lat="48.999565076082945" lon="9.684946965426208">
<ele>339.4</ele>
<time>2024-05-07T11:43:40Z</time>
</trkpt>
<trkpt lat="48.99961084127426" lon="9.684898350387812">
<ele>339.2</ele>
<time>2024-05-07T11:43:41Z</time>
</trkpt>
<trkpt lat="48.99965660646558" lon="9.684849735349417">
<ele>339.2</ele>
<time>2024-05-07T11:43:42Z</time>
</trkpt>
<trkpt lat="48.999702371656895" lon="9.68480011448264">
<ele>339</ele>
<time>2024-05-07T11:43:43Z</time>
</trkpt>
<trkpt lat="48.99974822066724" lon="9.684751499444246">
<ele>338.8</ele>
<time>2024-05-07T11:43:44Z</time>
</trkpt>
<trkpt lat="48.99979775771499" lon="9.6847038064152">
<ele>338.8</ele>
<time>2024-05-07T11:43:45Z</time>
</trkpt>
<trkpt lat="48.99983975104987" lon="9.684657035395505">
<ele>338.6</ele>
<time>2024-05-07T11:43:46Z</time>
</trkpt>
<trkpt lat="48.99988937191665" lon="9.684610348194838">
<ele>338.6</ele>
<time>2024-05-07T11:43:47Z</time>
</trkpt>
<trkpt lat="48.99993513710797" lon="9.68456458300352">
<ele>338.6</ele>
<time>2024-05-07T11:43:48Z</time>
</trkpt>
<trkpt lat="48.999977046623826" lon="9.684521667659284">
<ele>338.6</ele>
<time>2024-05-07T11:43:49Z</time>
</trkpt>
<trkpt lat="49.00002281181514" lon="9.684478752315044">
<ele>338.6</ele>
<time>2024-05-07T11:43:50Z</time>
</trkpt>
<trkpt lat="49.00006480515003" lon="9.684434831142426">
<ele>338.6</ele>
<time>2024-05-07T11:43:51Z</time>
</trkpt>
<trkpt lat="49.00011057034135" lon="9.684392921626568">
<ele>338.6</ele>
<time>2024-05-07T11:43:52Z</time>
</trkpt>
<trkpt lat="49.000156335532665" lon="9.6843480784446">
<ele>338.6</ele>
<time>2024-05-07T11:43:53Z</time>
</trkpt>
<trkpt lat="49.000198328867555" lon="9.684303235262632">
<ele>338.6</ele>
<time>2024-05-07T11:43:54Z</time>
</trkpt>
<trkpt lat="49.00024032220245" lon="9.684258392080665">
<ele>338.6</ele>
<time>2024-05-07T11:43:55Z</time>
</trkpt>
<trkpt lat="49.00028608739376" lon="9.684213632717729">
<ele>338.6</ele>
<time>2024-05-07T11:43:56Z</time>
</trkpt>
<trkpt lat="49.00032799690962" lon="9.68416778370738">
<ele>338.6</ele>
<time>2024-05-07T11:43:57Z</time>
</trkpt>
<trkpt lat="49.00036999024451" lon="9.684124868363142">
<ele>338.6</ele>
<time>2024-05-07T11:43:58Z</time>
</trkpt>
<trkpt lat="49.00040812790394" lon="9.684082958847284">
<ele>338.6</ele>
<time>2024-05-07T11:43:59Z</time>
</trkpt>
<trkpt lat="49.00045012123883" lon="9.684041971340775">
<ele>338.6</ele>
<time>2024-05-07T11:44:00Z</time>
</trkpt>
<trkpt lat="49.00048825889826" lon="9.684001905843616">
<ele>338.6</ele>
<time>2024-05-07T11:44:01Z</time>
</trkpt>
<trkpt lat="49.00052639655769" lon="9.683959912508726">
<ele>338.6</ele>
<time>2024-05-07T11:44:02Z</time>
</trkpt>
<trkpt lat="49.00056453421712" lon="9.683919847011566">
<ele>338.6</ele>
<time>2024-05-07T11:44:03Z</time>
</trkpt>
<trkpt lat="49.00060267187655" lon="9.683877937495708">
<ele>338.6</ele>
<time>2024-05-07T11:44:04Z</time>
</trkpt>
<trkpt lat="49.00064466521144" lon="9.683837871998549">
<ele>338.6</ele>
<time>2024-05-07T11:44:05Z</time>
</trkpt>
<trkpt lat="49.00068280287087" lon="9.683797806501389">
<ele>338.8</ele>
<time>2024-05-07T11:44:06Z</time>
</trkpt>
<trkpt lat="49.0007209405303" lon="9.683759668841958">
<ele>338.8</ele>
<time>2024-05-07T11:44:07Z</time>
</trkpt>
<trkpt lat="49.00075907818973" lon="9.68371482565999">
<ele>339</ele>
<time>2024-05-07T11:44:08Z</time>
</trkpt>
<trkpt lat="49.000793443992734" lon="9.683669982478024">
<ele>339.2</ele>
<time>2024-05-07T11:44:09Z</time>
</trkpt>
<trkpt lat="49.00083158165216" lon="9.683625139296057">
<ele>339.2</ele>
<time>2024-05-07T11:44:10Z</time>
</trkpt>
<trkpt lat="49.00086209177971" lon="9.68357459641993">
<ele>339.4</ele>
<time>2024-05-07T11:44:11Z</time>
</trkpt>
<trkpt lat="49.00089260190725" lon="9.683523131534455">
<ele>339.4</ele>
<time>2024-05-07T11:44:12Z</time>
</trkpt>
<trkpt lat="49.00091934017837" lon="9.683473510667682">
<ele>339.6</ele>
<time>2024-05-07T11:44:13Z</time>
</trkpt>
<trkpt lat="49.00094222277403" lon="9.683424895629289">
<ele>339.6</ele>
<time>2024-05-07T11:44:14Z</time>
</trkpt>
<trkpt lat="49.000968877226114" lon="9.68337820842862">
<ele>339.8</ele>
<time>2024-05-07T11:44:15Z</time>
</trkpt>
<trkpt lat="49.00099561549723" lon="9.68333814293146">
<ele>339.8</ele>
<time>2024-05-07T11:44:16Z</time>
</trkpt>
<trkpt lat="49.001026125624776" lon="9.683316182345152">
<ele>339.8</ele>
<time>2024-05-07T11:44:17Z</time>
</trkpt>
<trkpt lat="49.00106040760875" lon="9.683313332498074">
<ele>340</ele>
<time>2024-05-07T11:44:18Z</time>
</trkpt>
<trkpt lat="49.00109477341175" lon="9.683316182345152">
<ele>340</ele>
<time>2024-05-07T11:44:19Z</time>
</trkpt>
<trkpt lat="49.00113676674664" lon="9.683309476822616">
<ele>340</ele>
<time>2024-05-07T11:44:20Z</time>
</trkpt>
<trkpt lat="49.00117490440607" lon="9.683286594226956">
<ele>340</ele>
<time>2024-05-07T11:44:21Z</time>
</trkpt>
<trkpt lat="49.00120918639004" lon="9.683257089927793">
<ele>340</ele>
<time>2024-05-07T11:44:22Z</time>
</trkpt>
<trkpt lat="49.00123969651759" lon="9.68322465196252">
<ele>340.2</ele>
<time>2024-05-07T11:44:23Z</time>
</trkpt>
<trkpt lat="49.00127406232059" lon="9.683190286159515">
<ele>340.4</ele>
<time>2024-05-07T11:44:24Z</time>
</trkpt>
<trkpt lat="49.001304572448134" lon="9.683153070509434">
<ele>340.6</ele>
<time>2024-05-07T11:44:25Z</time>
</trkpt>
<trkpt lat="49.00133131071925" lon="9.683116860687733">
<ele>340.8</ele>
<time>2024-05-07T11:44:26Z</time>
</trkpt>
<trkpt lat="49.00135796517134" lon="9.68308350071311">
<ele>341</ele>
<time>2024-05-07T11:44:27Z</time>
</trkpt>
<trkpt lat="49.001384703442454" lon="9.683048212900758">
<ele>341.2</ele>
<time>2024-05-07T11:44:28Z</time>
</trkpt>
<trkpt lat="49.00141135789454" lon="9.683012003079057">
<ele>341.6</ele>
<time>2024-05-07T11:44:29Z</time>
</trkpt>
<trkpt lat="49.00143809616566" lon="9.682974787428977">
<ele>341.8</ele>
<time>2024-05-07T11:44:30Z</time>
</trkpt>
<trkpt lat="49.001464834436774" lon="9.682938493788242">
<ele>342.2</ele>
<time>2024-05-07T11:44:31Z</time>
</trkpt>
<trkpt lat="49.00149534456432" lon="9.682903289794922">
<ele>342.4</ele>
<time>2024-05-07T11:44:32Z</time>
</trkpt>
<trkpt lat="49.00152585469186" lon="9.682869846001267">
<ele>342.6</ele>
<time>2024-05-07T11:44:33Z</time>
</trkpt>
<trkpt lat="49.00155636481941" lon="9.682836486026645">
<ele>342.8</ele>
<time>2024-05-07T11:44:34Z</time>
</trkpt>
<trkpt lat="49.00158301927149" lon="9.682805053889751">
<ele>343</ele>
<time>2024-05-07T11:44:35Z</time>
</trkpt>
<trkpt lat="49.00160975754261" lon="9.682771610096095">
<ele>343.4</ele>
<time>2024-05-07T11:44:36Z</time>
</trkpt>
<trkpt lat="49.00163649581373" lon="9.682738250121474">
<ele>343.6</ele>
<time>2024-05-07T11:44:37Z</time>
</trkpt>
<trkpt lat="49.00166315026581" lon="9.682702962309122">
<ele>343.8</ele>
<time>2024-05-07T11:44:38Z</time>
</trkpt>
<trkpt lat="49.00168988853693" lon="9.682671530172229">
<ele>344</ele>
<time>2024-05-07T11:44:39Z</time>
</trkpt>
<trkpt lat="49.001716542989016" lon="9.682640014216304">
<ele>344.2</ele>
<time>2024-05-07T11:44:40Z</time>
</trkpt>
<trkpt lat="49.00174328126013" lon="9.68260950408876">
<ele>344.4</ele>
<time>2024-05-07T11:44:41Z</time>
</trkpt>
<trkpt lat="49.00177001953125" lon="9.682582849636674">
<ele>344.6</ele>
<time>2024-05-07T11:44:42Z</time>
</trkpt>
<trkpt lat="49.00179290212691" lon="9.682559967041016">
<ele>344.8</ele>
<time>2024-05-07T11:44:43Z</time>
</trkpt>
<trkpt lat="49.00180815719068" lon="9.68254848383367">
<ele>344.8</ele>
<time>2024-05-07T11:44:44Z</time>
</trkpt>
<trkpt lat="49.00182341225445" lon="9.682538006454706">
<ele>345</ele>
<time>2024-05-07T11:44:45Z</time>
</trkpt>
<trkpt lat="49.001834811642766" lon="9.682533228769898">
<ele>345.2</ele>
<time>2024-05-07T11:44:46Z</time>
</trkpt>
<trkpt lat="49.00184243917465" lon="9.682533228769898">
<ele>345.4</ele>
<time>2024-05-07T11:44:47Z</time>
</trkpt>
<trkpt lat="49.00184629485011" lon="9.68253037892282">
<ele>345.6</ele>
<time>2024-05-07T11:44:48Z</time>
</trkpt>
<trkpt lat="49.00185006670654" lon="9.68252652324736">
<ele>345.8</ele>
<time>2024-05-07T11:44:49Z</time>
</trkpt>
<trkpt lat="49.00185006670654" lon="9.68252845108509">
<ele>346</ele>
<time>2024-05-07T11:44:50Z</time>
</trkpt>
<trkpt lat="49.00185006670654" lon="9.68253037892282">
<ele>346.2</ele>
<time>2024-05-07T11:44:51Z</time>
</trkpt>
<trkpt lat="49.00185006670654" lon="9.682531300932167">
<ele>346.2</ele>
<time>2024-05-07T11:44:52Z</time>
</trkpt>
<trkpt lat="49.00185006670654" lon="9.68253037892282">
<ele>346.4</ele>
<time>2024-05-07T11:44:54Z</time>
</trkpt>
<trkpt lat="49.001853922382" lon="9.682531300932167">
<ele>345.8</ele>
<time>2024-05-07T11:44:57Z</time>
</trkpt>
<trkpt lat="49.001853922382" lon="9.68253037892282">
<ele>345.4</ele>
<time>2024-05-07T11:44:58Z</time>
</trkpt>
<trkpt lat="49.001853922382" lon="9.682531300932167">
<ele>345.4</ele>
<time>2024-05-07T11:45:00Z</time>
</trkpt>
<trkpt lat="49.001857694238424" lon="9.682531300932167">
<ele>345.4</ele>
<time>2024-05-07T11:45:03Z</time>
</trkpt>
<trkpt lat="49.001857694238424" lon="9.682533228769898">
<ele>345.4</ele>
<time>2024-05-07T11:45:04Z</time>
</trkpt>
<trkpt lat="49.00186532177031" lon="9.682541778311132">
<ele>345.6</ele>
<time>2024-05-07T11:45:08Z</time>
</trkpt>
<trkpt lat="49.00188057683408" lon="9.682557033374906">
<ele>345.8</ele>
<time>2024-05-07T11:45:09Z</time>
</trkpt>
<trkpt lat="49.00189206004143" lon="9.682573294267058">
<ele>346</ele>
<time>2024-05-07T11:45:10Z</time>
</trkpt>
<trkpt lat="49.0019073151052" lon="9.68259047716856">
<ele>346</ele>
<time>2024-05-07T11:45:11Z</time>
</trkpt>
<trkpt lat="49.00192257016897" lon="9.682595171034336">
<ele>346.2</ele>
<time>2024-05-07T11:45:12Z</time>
</trkpt>
<trkpt lat="49.0019416809082" lon="9.682573294267058">
<ele>346.2</ele>
<time>2024-05-07T11:45:13Z</time>
</trkpt>
<trkpt lat="49.00196456350386" lon="9.682538006454706">
<ele>346.2</ele>
<time>2024-05-07T11:45:14Z</time>
</trkpt>
<trkpt lat="49.001995073631406" lon="9.68249031342566">
<ele>346.4</ele>
<time>2024-05-07T11:45:15Z</time>
</trkpt>
<trkpt lat="49.002014100551605" lon="9.682433065027">
<ele>346.4</ele>
<time>2024-05-07T11:45:16Z</time>
</trkpt>
<trkpt lat="49.00203321129083" lon="9.682368272915484">
<ele>346.4</ele>
<time>2024-05-07T11:45:17Z</time>
</trkpt>
<trkpt lat="49.00204846635461" lon="9.682303396984937">
<ele>346.4</ele>
<time>2024-05-07T11:45:18Z</time>
</trkpt>
<trkpt lat="49.00206749327481" lon="9.682238521054389">
<ele>346.4</ele>
<time>2024-05-07T11:45:19Z</time>
</trkpt>
<trkpt lat="49.00208660401404" lon="9.682180350646377">
<ele>346.4</ele>
<time>2024-05-07T11:45:20Z</time>
</trkpt>
<trkpt lat="49.0021094866097" lon="9.682125030085444">
<ele>346.6</ele>
<time>2024-05-07T11:45:21Z</time>
</trkpt>
<trkpt lat="49.00212474167347" lon="9.682067865505816">
<ele>346.6</ele>
<time>2024-05-07T11:45:22Z</time>
</trkpt>
<trkpt lat="49.00214762426913" lon="9.682009695097804">
<ele>346.8</ele>
<time>2024-05-07T11:45:23Z</time>
</trkpt>
<trkpt lat="49.00216673500836" lon="9.681953368708491">
<ele>346.8</ele>
<time>2024-05-07T11:45:24Z</time>
</trkpt>
<trkpt lat="49.002193389460444" lon="9.681899975985289">
<ele>347</ele>
<time>2024-05-07T11:45:25Z</time>
</trkpt>
<trkpt lat="49.00221250019968" lon="9.681844655424356">
<ele>347</ele>
<time>2024-05-07T11:45:26Z</time>
</trkpt>
<trkpt lat="49.002231527119875" lon="9.681791262701154">
<ele>347.2</ele>
<time>2024-05-07T11:45:27Z</time>
</trkpt>
<trkpt lat="49.00225440971553" lon="9.68173686414957">
<ele>347.2</ele>
<time>2024-05-07T11:45:28Z</time>
</trkpt>
<trkpt lat="49.00227729231119" lon="9.68168162740767">
<ele>347.2</ele>
<time>2024-05-07T11:45:29Z</time>
</trkpt>
<trkpt lat="49.00229640305042" lon="9.681626306846738">
<ele>347.4</ele>
<time>2024-05-07T11:45:30Z</time>
</trkpt>
<trkpt lat="49.002315513789654" lon="9.681568136438727">
<ele>347.4</ele>
<time>2024-05-07T11:45:31Z</time>
</trkpt>
<trkpt lat="49.00233839638531" lon="9.681508038192987">
<ele>347.6</ele>
<time>2024-05-07T11:45:32Z</time>
</trkpt>
<trkpt lat="49.00235742330551" lon="9.681449867784975">
<ele>347.8</ele>
<time>2024-05-07T11:45:33Z</time>
</trkpt>
<trkpt lat="49.00238030590117" lon="9.681387841701508">
<ele>347.8</ele>
<time>2024-05-07T11:45:34Z</time>
</trkpt>
<trkpt lat="49.00240318849683" lon="9.68132682144642">
<ele>348</ele>
<time>2024-05-07T11:45:35Z</time>
</trkpt>
<trkpt lat="49.002426071092486" lon="9.681261945515873">
<ele>348</ele>
<time>2024-05-07T11:45:36Z</time>
</trkpt>
<trkpt lat="49.002448953688145" lon="9.681195225566626">
<ele>348.2</ele>
<time>2024-05-07T11:45:37Z</time>
</trkpt>
<trkpt lat="49.00247569195926" lon="9.68112657777965">
<ele>348.2</ele>
<time>2024-05-07T11:45:38Z</time>
</trkpt>
<trkpt lat="49.00250243023038" lon="9.681057929992676">
<ele>348.4</ele>
<time>2024-05-07T11:45:39Z</time>
</trkpt>
<trkpt lat="49.002529084682465" lon="9.68098634853959">
<ele>348.4</ele>
<time>2024-05-07T11:45:40Z</time>
</trkpt>
<trkpt lat="49.00255959481001" lon="9.680916778743269">
<ele>348.4</ele>
<time>2024-05-07T11:45:41Z</time>
</trkpt>
<trkpt lat="49.00259010493755" lon="9.680845197290182">
<ele>348.4</ele>
<time>2024-05-07T11:45:42Z</time>
</trkpt>
<trkpt lat="49.002628326416016" lon="9.680776549503207">
<ele>348.4</ele>
<time>2024-05-07T11:45:43Z</time>
</trkpt>
<trkpt lat="49.002666464075446" lon="9.68071167357266">
<ele>348.4</ele>
<time>2024-05-07T11:45:44Z</time>
</trkpt>
<trkpt lat="49.00270460173488" lon="9.68064872547984">
<ele>348.4</ele>
<time>2024-05-07T11:45:45Z</time>
</trkpt>
<trkpt lat="49.002746511250734" lon="9.680586783215404">
<ele>348.4</ele>
<time>2024-05-07T11:45:46Z</time>
</trkpt>
<trkpt lat="49.00279613211751" lon="9.680526684969664">
<ele>348.4</ele>
<time>2024-05-07T11:45:47Z</time>
</trkpt>
<trkpt lat="49.002845752984285" lon="9.680468514561651">
<ele>348.4</ele>
<time>2024-05-07T11:45:48Z</time>
</trkpt>
<trkpt lat="49.00289529003203" lon="9.680406488478184">
<ele>348.4</ele>
<time>2024-05-07T11:45:49Z</time>
</trkpt>
<trkpt lat="49.00294868275523" lon="9.680343624204395">
<ele>348.2</ele>
<time>2024-05-07T11:45:50Z</time>
</trkpt>
<trkpt lat="49.00300593115389" lon="9.680281598120928">
<ele>348</ele>
<time>2024-05-07T11:45:51Z</time>
</trkpt>
<trkpt lat="49.003063179552555" lon="9.68021672219038">
<ele>348</ele>
<time>2024-05-07T11:45:52Z</time>
</trkpt>
<trkpt lat="49.00312419980765" lon="9.680151930078864">
<ele>347.8</ele>
<time>2024-05-07T11:45:53Z</time>
</trkpt>
<trkpt lat="49.003181448206306" lon="9.68008135445416">
<ele>347.6</ele>
<time>2024-05-07T11:45:54Z</time>
</trkpt>
<trkpt lat="49.00324624031782" lon="9.68000315129757">
<ele>347.4</ele>
<time>2024-05-07T11:45:55Z</time>
</trkpt>
<trkpt lat="49.00330726057291" lon="9.67992494814098">
<ele>347.4</ele>
<time>2024-05-07T11:45:56Z</time>
</trkpt>
<trkpt lat="49.00336836464703" lon="9.67984288930893">
<ele>347.2</ele>
<time>2024-05-07T11:45:57Z</time>
</trkpt>
<trkpt lat="49.00342175737023" lon="9.679751358926296">
<ele>347</ele>
<time>2024-05-07T11:45:58Z</time>
</trkpt>
<trkpt lat="49.00348277762532" lon="9.67966460622847">
<ele>346.6</ele>
<time>2024-05-07T11:45:59Z</time>
</trkpt>
<trkpt lat="49.00354379788041" lon="9.679576847702265">
<ele>346.4</ele>
<time>2024-05-07T11:46:00Z</time>
</trkpt>
<trkpt lat="49.003597190603614" lon="9.679491939023135">
<ele>346.2</ele>
<time>2024-05-07T11:46:01Z</time>
</trkpt>
<trkpt lat="49.00364681147039" lon="9.67940803617239">
<ele>345.8</ele>
<time>2024-05-07T11:46:02Z</time>
</trkpt>
<trkpt lat="49.003696432337165" lon="9.679331760853527">
<ele>345.4</ele>
<time>2024-05-07T11:46:03Z</time>
</trkpt>
<trkpt lat="49.00373834185302" lon="9.679260179400444">
<ele>345</ele>
<time>2024-05-07T11:46:04Z</time>
</trkpt>
<trkpt lat="49.00377647951245" lon="9.679182982072234">
<ele>344.6</ele>
<time>2024-05-07T11:46:05Z</time>
</trkpt>
<trkpt lat="49.00381847284734" lon="9.679118106141686">
<ele>344.2</ele>
<time>2024-05-07T11:46:06Z</time>
</trkpt>
<trkpt lat="49.00384898297489" lon="9.679059935733676">
<ele>343.8</ele>
<time>2024-05-07T11:46:07Z</time>
</trkpt>
<trkpt lat="49.00387949310243" lon="9.679004615172744">
<ele>343.4</ele>
<time>2024-05-07T11:46:08Z</time>
</trkpt>
<trkpt lat="49.003910003229976" lon="9.678950300440192">
<ele>343</ele>
<time>2024-05-07T11:46:09Z</time>
</trkpt>
<trkpt lat="49.00393674150109" lon="9.67889497987926">
<ele>342.6</ele>
<time>2024-05-07T11:46:10Z</time>
</trkpt>
<trkpt lat="49.003948140889406" lon="9.678838653489947">
<ele>342.4</ele>
<time>2024-05-07T11:46:11Z</time>
</trkpt>
<trkpt lat="49.00394436903298" lon="9.67877863906324">
<ele>342.2</ele>
<time>2024-05-07T11:46:12Z</time>
</trkpt>
<trkpt lat="49.00393674150109" lon="9.67871468514204">
<ele>341.8</ele>
<time>2024-05-07T11:46:13Z</time>
</trkpt>
<trkpt lat="49.00392148643732" lon="9.678647965192797">
<ele>341.6</ele>
<time>2024-05-07T11:46:14Z</time>
</trkpt>
<trkpt lat="49.00390237569809" lon="9.678580239415169">
<ele>341.4</ele>
<time>2024-05-07T11:46:15Z</time>
</trkpt>
<trkpt lat="49.00388334877789" lon="9.678511591628194">
<ele>341.2</ele>
<time>2024-05-07T11:46:16Z</time>
</trkpt>
<trkpt lat="49.00386046618223" lon="9.678448643535376">
<ele>340.8</ele>
<time>2024-05-07T11:46:17Z</time>
</trkpt>
<trkpt lat="49.003841355443" lon="9.6783799957484">
<ele>340.6</ele>
<time>2024-05-07T11:46:18Z</time>
</trkpt>
<trkpt lat="49.00382224470377" lon="9.678313191980124">
<ele>340.4</ele>
<time>2024-05-07T11:46:19Z</time>
</trkpt>
<trkpt lat="49.00380321778357" lon="9.678244544193149">
<ele>340.2</ele>
<time>2024-05-07T11:46:20Z</time>
</trkpt>
<trkpt lat="49.00378410704434" lon="9.678174890577791">
<ele>340</ele>
<time>2024-05-07T11:46:21Z</time>
</trkpt>
<trkpt lat="49.00376508012414" lon="9.67810339294374">
<ele>339.8</ele>
<time>2024-05-07T11:46:22Z</time>
</trkpt>
<trkpt lat="49.00374219752848" lon="9.678031895309688">
<ele>339.6</ele>
<time>2024-05-07T11:46:23Z</time>
</trkpt>
<trkpt lat="49.00372308678925" lon="9.677956542000176">
<ele>339.4</ele>
<time>2024-05-07T11:46:24Z</time>
</trkpt>
<trkpt lat="49.003696432337165" lon="9.677881188690662">
<ele>339.4</ele>
<time>2024-05-07T11:46:25Z</time>
</trkpt>
<trkpt lat="49.00366592220962" lon="9.67780969105661">
<ele>339.2</ele>
<time>2024-05-07T11:46:26Z</time>
</trkpt>
<trkpt lat="49.00364295579493" lon="9.677735259756446">
<ele>339.2</ele>
<time>2024-05-07T11:46:27Z</time>
</trkpt>
<trkpt lat="49.00362007319927" lon="9.677659906446934">
<ele>339.2</ele>
<time>2024-05-07T11:46:28Z</time>
</trkpt>
<trkpt lat="49.00359341874719" lon="9.67759033665061">
<ele>339</ele>
<time>2024-05-07T11:46:29Z</time>
</trkpt>
<trkpt lat="49.003574308007956" lon="9.677516911178827">
<ele>339</ele>
<time>2024-05-07T11:46:30Z</time>
</trkpt>
<trkpt lat="49.00355528108776" lon="9.677445329725742">
<ele>338.8</ele>
<time>2024-05-07T11:46:31Z</time>
</trkpt>
<trkpt lat="49.003540026023984" lon="9.677370060235262">
<ele>338.8</ele>
<time>2024-05-07T11:46:32Z</time>
</trkpt>
<trkpt lat="49.003536170348525" lon="9.677301328629255">
<ele>338.6</ele>
<time>2024-05-07T11:46:33Z</time>
</trkpt>
<trkpt lat="49.003536170348525" lon="9.677238464355469">
<ele>338.4</ele>
<time>2024-05-07T11:46:34Z</time>
</trkpt>
<trkpt lat="49.003536170348525" lon="9.677181215956807">
<ele>338.4</ele>
<time>2024-05-07T11:46:35Z</time>
</trkpt>
<trkpt lat="49.003540026023984" lon="9.677122039720416">
<ele>338.6</ele>
<time>2024-05-07T11:46:36Z</time>
</trkpt>
<trkpt lat="49.003540026023984" lon="9.67705339193344">
<ele>338.6</ele>
<time>2024-05-07T11:46:37Z</time>
</trkpt>
<trkpt lat="49.0035514254123" lon="9.67697711661458">
<ele>338.6</ele>
<time>2024-05-07T11:46:38Z</time>
</trkpt>
<trkpt lat="49.00355905294418" lon="9.67689799144864">
<ele>338.6</ele>
<time>2024-05-07T11:46:39Z</time>
</trkpt>
<trkpt lat="49.003574308007956" lon="9.676815010607244">
<ele>338.6</ele>
<time>2024-05-07T11:46:40Z</time>
</trkpt>
<trkpt lat="49.00358193553984" lon="9.676732951775191">
<ele>338.6</ele>
<time>2024-05-07T11:46:41Z</time>
</trkpt>
<trkpt lat="49.00359341874719" lon="9.676651898771524">
<ele>338.6</ele>
<time>2024-05-07T11:46:42Z</time>
</trkpt>
<trkpt lat="49.00360104627907" lon="9.676567995920776">
<ele>338.6</ele>
<time>2024-05-07T11:46:43Z</time>
</trkpt>
<trkpt lat="49.00360867381096" lon="9.676489792764189">
<ele>338.6</ele>
<time>2024-05-07T11:46:44Z</time>
</trkpt>
<trkpt lat="49.003616301342845" lon="9.676416367292404">
<ele>338.6</ele>
<time>2024-05-07T11:46:45Z</time>
</trkpt>
<trkpt lat="49.00362392887473" lon="9.676340091973543">
<ele>338.6</ele>
<time>2024-05-07T11:46:46Z</time>
</trkpt>
<trkpt lat="49.00362770073116" lon="9.676261888816953">
<ele>338.6</ele>
<time>2024-05-07T11:46:47Z</time>
</trkpt>
<trkpt lat="49.00363155640662" lon="9.676179829984903">
<ele>338.6</ele>
<time>2024-05-07T11:46:48Z</time>
</trkpt>
<trkpt lat="49.00363532826304" lon="9.676103554666042">
<ele>338.6</ele>
<time>2024-05-07T11:46:49Z</time>
</trkpt>
<trkpt lat="49.0036391839385" lon="9.676032057031987">
<ele>338.6</ele>
<time>2024-05-07T11:46:50Z</time>
</trkpt>
<trkpt lat="49.00363532826304" lon="9.675956703722475">
<ele>338.6</ele>
<time>2024-05-07T11:46:51Z</time>
</trkpt>
<trkpt lat="49.00362770073116" lon="9.675874644890428">
<ele>338.6</ele>
<time>2024-05-07T11:46:52Z</time>
</trkpt>
<trkpt lat="49.00362007319927" lon="9.67579459771514">
<ele>338.6</ele>
<time>2024-05-07T11:46:53Z</time>
</trkpt>
<trkpt lat="49.00360867381096" lon="9.675716394558547">
<ele>338.6</ele>
<time>2024-05-07T11:46:54Z</time>
</trkpt>
<trkpt lat="49.003597190603614" lon="9.67563341371715">
<ele>338.8</ele>
<time>2024-05-07T11:46:55Z</time>
</trkpt>
<trkpt lat="49.00358956307173" lon="9.675548505038025">
<ele>339</ele>
<time>2024-05-07T11:46:56Z</time>
</trkpt>
<trkpt lat="49.003578163683414" lon="9.675466530025004">
<ele>339</ele>
<time>2024-05-07T11:46:57Z</time>
</trkpt>
<trkpt lat="49.00356668047607" lon="9.675383549183609">
<ele>339.2</ele>
<time>2024-05-07T11:46:58Z</time>
</trkpt>
<trkpt lat="49.00355905294418" lon="9.675301490351558">
<ele>339.4</ele>
<time>2024-05-07T11:46:59Z</time>
</trkpt>
<trkpt lat="49.00355528108776" lon="9.675220437347887">
<ele>339.4</ele>
<time>2024-05-07T11:47:00Z</time>
</trkpt>
<trkpt lat="49.00355528108776" lon="9.67514131218195">
<ele>339.6</ele>
<time>2024-05-07T11:47:01Z</time>
</trkpt>
<trkpt lat="49.00355905294418" lon="9.67506118118763">
<ele>339.6</ele>
<time>2024-05-07T11:47:02Z</time>
</trkpt>
<trkpt lat="49.00357053615153" lon="9.67498205602169">
<ele>339.8</ele>
<time>2024-05-07T11:47:03Z</time>
</trkpt>
<trkpt lat="49.003578163683414" lon="9.67489999718964">
<ele>339.8</ele>
<time>2024-05-07T11:47:04Z</time>
</trkpt>
<trkpt lat="49.00359341874719" lon="9.67482179403305">
<ele>339.8</ele>
<time>2024-05-07T11:47:05Z</time>
</trkpt>
<trkpt lat="49.0036048181355" lon="9.67474359087646">
<ele>339.8</ele>
<time>2024-05-07T11:47:06Z</time>
</trkpt>
<trkpt lat="49.00362007319927" lon="9.674668237566948">
<ele>339.8</ele>
<time>2024-05-07T11:47:07Z</time>
</trkpt>
<trkpt lat="49.00363155640662" lon="9.674591962248089">
<ele>339.8</ele>
<time>2024-05-07T11:47:08Z</time>
</trkpt>
<trkpt lat="49.00364681147039" lon="9.674518536776304">
<ele>339.8</ele>
<time>2024-05-07T11:47:09Z</time>
</trkpt>
<trkpt lat="49.00366206653416" lon="9.674447039142253">
<ele>339.8</ele>
<time>2024-05-07T11:47:10Z</time>
</trkpt>
<trkpt lat="49.00367354974151" lon="9.674374535679815">
<ele>339.6</ele>
<time>2024-05-07T11:47:11Z</time>
</trkpt>
<trkpt lat="49.00368880480528" lon="9.674304882064462">
<ele>339.6</ele>
<time>2024-05-07T11:47:12Z</time>
</trkpt>
<trkpt lat="49.00370405986905" lon="9.674235312268138">
<ele>339.4</ele>
<time>2024-05-07T11:47:13Z</time>
</trkpt>
<trkpt lat="49.00371545925736" lon="9.674163814634085">
<ele>339.4</ele>
<time>2024-05-07T11:47:14Z</time>
</trkpt>
<trkpt lat="49.00372694246471" lon="9.674095083028078">
<ele>339.4</ele>
<time>2024-05-07T11:47:15Z</time>
</trkpt>
<trkpt lat="49.003734569996595" lon="9.674023585394025">
<ele>339.2</ele>
<time>2024-05-07T11:47:16Z</time>
</trkpt>
<trkpt lat="49.00374596938491" lon="9.67395300976932">
<ele>339.2</ele>
<time>2024-05-07T11:47:17Z</time>
</trkpt>
<trkpt lat="49.003757452592254" lon="9.673881512135267">
<ele>339.4</ele>
<time>2024-05-07T11:47:18Z</time>
</trkpt>
<trkpt lat="49.00376508012414" lon="9.673809930682182">
<ele>339.4</ele>
<time>2024-05-07T11:47:19Z</time>
</trkpt>
<trkpt lat="49.00377647951245" lon="9.673741282895207">
<ele>339.6</ele>
<time>2024-05-07T11:47:20Z</time>
</trkpt>
<trkpt lat="49.00378410704434" lon="9.673671713098884">
<ele>339.6</ele>
<time>2024-05-07T11:47:21Z</time>
</trkpt>
<trkpt lat="49.003791734576225" lon="9.6736001316458">
<ele>339.8</ele>
<time>2024-05-07T11:47:22Z</time>
</trkpt>
<trkpt lat="49.00379936210811" lon="9.673529556021094">
<ele>339.8</ele>
<time>2024-05-07T11:47:23Z</time>
</trkpt>
<trkpt lat="49.00381461717189" lon="9.673463758081198">
<ele>340</ele>
<time>2024-05-07T11:47:24Z</time>
</trkpt>
<trkpt lat="49.003841355443" lon="9.673408437520266">
<ele>340</ele>
<time>2024-05-07T11:47:25Z</time>
</trkpt>
<trkpt lat="49.00387949310243" lon="9.673364600166678">
<ele>340</ele>
<time>2024-05-07T11:47:26Z</time>
</trkpt>
<trkpt lat="49.00392148643732" lon="9.673335012048485">
<ele>340</ele>
<time>2024-05-07T11:47:27Z</time>
</trkpt>
<trkpt lat="49.00396339595318" lon="9.673310201615095">
<ele>340.2</ele>
<time>2024-05-07T11:47:28Z</time>
</trkpt>
<trkpt lat="49.00400538928807" lon="9.67328446917236">
<ele>340.2</ele>
<time>2024-05-07T11:47:29Z</time>
</trkpt>
<trkpt lat="49.00404738262296" lon="9.6732615865767">
<ele>340.4</ele>
<time>2024-05-07T11:47:30Z</time>
</trkpt>
<trkpt lat="49.004093147814274" lon="9.673238703981042">
<ele>340.6</ele>
<time>2024-05-07T11:47:31Z</time>
</trkpt>
<trkpt lat="49.00413505733013" lon="9.673216743394732">
<ele>340.6</ele>
<time>2024-05-07T11:47:32Z</time>
</trkpt>
<trkpt lat="49.00417705066502" lon="9.673194866627457">
<ele>340.6</ele>
<time>2024-05-07T11:47:33Z</time>
</trkpt>
<trkpt lat="49.00422281585634" lon="9.673171984031796">
<ele>340.8</ele>
<time>2024-05-07T11:47:34Z</time>
</trkpt>
<trkpt lat="49.00426480919123" lon="9.67314524576068">
<ele>341</ele>
<time>2024-05-07T11:47:35Z</time>
</trkpt>
<trkpt lat="49.004306718707085" lon="9.673118591308594">
<ele>341.2</ele>
<time>2024-05-07T11:47:36Z</time>
</trkpt>
<trkpt lat="49.00435633957386" lon="9.673094702884557">
<ele>341.4</ele>
<time>2024-05-07T11:47:37Z</time>
</trkpt>
<trkpt lat="49.00440210476518" lon="9.673071820288897">
<ele>341.4</ele>
<time>2024-05-07T11:47:38Z</time>
</trkpt>
<trkpt lat="49.00444786995649" lon="9.673047009855509">
<ele>341.6</ele>
<time>2024-05-07T11:47:39Z</time>
</trkpt>
<trkpt lat="49.00449749082327" lon="9.673021277412772">
<ele>341.8</ele>
<time>2024-05-07T11:47:40Z</time>
</trkpt>
<trkpt lat="49.004543256014585" lon="9.672996466979384">
<ele>341.8</ele>
<time>2024-05-07T11:47:41Z</time>
</trkpt>
<trkpt lat="49.00459287688136" lon="9.67296788468957">
<ele>342</ele>
<time>2024-05-07T11:47:42Z</time>
</trkpt>
<trkpt lat="49.004642413929105" lon="9.672938296571374">
<ele>342</ele>
<time>2024-05-07T11:47:43Z</time>
</trkpt>
<trkpt lat="49.00469203479588" lon="9.67290971428156">
<ele>342.2</ele>
<time>2024-05-07T11:47:44Z</time>
</trkpt>
<trkpt lat="49.004741655662656" lon="9.672882054001091">
<ele>342.2</ele>
<time>2024-05-07T11:47:45Z</time>
</trkpt>
<trkpt lat="49.00479504838586" lon="9.672853387892246">
<ele>342.2</ele>
<time>2024-05-07T11:47:46Z</time>
</trkpt>
<trkpt lat="49.00484844110906" lon="9.672824805602431">
<ele>342.4</ele>
<time>2024-05-07T11:47:47Z</time>
</trkpt>
<trkpt lat="49.00489806197584" lon="9.672796223312616">
<ele>342.4</ele>
<time>2024-05-07T11:47:48Z</time>
</trkpt>
<trkpt lat="49.00494759902358" lon="9.67276663519442">
<ele>342.4</ele>
<time>2024-05-07T11:47:49Z</time>
</trkpt>
<trkpt lat="49.00500099174678" lon="9.672739980742335">
<ele>342.4</ele>
<time>2024-05-07T11:47:50Z</time>
</trkpt>
<trkpt lat="49.00505061261356" lon="9.672711314633489">
<ele>342.4</ele>
<time>2024-05-07T11:47:51Z</time>
</trkpt>
<trkpt lat="49.00510400533676" lon="9.672683654353024">
<ele>342.4</ele>
<time>2024-05-07T11:47:52Z</time>
</trkpt>
<trkpt lat="49.00515362620354" lon="9.672653144225478">
<ele>342.4</ele>
<time>2024-05-07T11:47:53Z</time>
</trkpt>
<trkpt lat="49.00520701892674" lon="9.672623556107284">
<ele>342.4</ele>
<time>2024-05-07T11:47:54Z</time>
</trkpt>
<trkpt lat="49.005256639793515" lon="9.67259212397039">
<ele>342.4</ele>
<time>2024-05-07T11:47:55Z</time>
</trkpt>
<trkpt lat="49.00531003251672" lon="9.672561613842843">
<ele>342.4</ele>
<time>2024-05-07T11:47:56Z</time>
</trkpt>
<trkpt lat="49.00536342523992" lon="9.67253009788692">
<ele>342.4</ele>
<time>2024-05-07T11:47:57Z</time>
</trkpt>
<trkpt lat="49.00541681796312" lon="9.672498665750028">
<ele>342.4</ele>
<time>2024-05-07T11:47:58Z</time>
</trkpt>
<trkpt lat="49.005470210686326" lon="9.672466227784753">
<ele>342.4</ele>
<time>2024-05-07T11:47:59Z</time>
</trkpt>
<trkpt lat="49.00552745908499" lon="9.672436639666556">
<ele>342.4</ele>
<time>2024-05-07T11:48:00Z</time>
</trkpt>
<trkpt lat="49.00558085180819" lon="9.672408057376742">
<ele>342.4</ele>
<time>2024-05-07T11:48:01Z</time>
</trkpt>
<trkpt lat="49.005630472674966" lon="9.672378469258549">
<ele>342.2</ele>
<time>2024-05-07T11:48:02Z</time>
</trkpt>
<trkpt lat="49.00568386539817" lon="9.672347959131002">
<ele>342.2</ele>
<time>2024-05-07T11:48:03Z</time>
</trkpt>
<trkpt lat="49.005733486264944" lon="9.67231845483184">
<ele>342.2</ele>
<time>2024-05-07T11:48:04Z</time>
</trkpt>
<trkpt lat="49.00578687898815" lon="9.672289788722992">
<ele>342</ele>
<time>2024-05-07T11:48:05Z</time>
</trkpt>
<trkpt lat="49.00583264417946" lon="9.672261206433175">
<ele>342</ele>
<time>2024-05-07T11:48:06Z</time>
</trkpt>
<trkpt lat="49.00587455369532" lon="9.67223161831498">
<ele>342</ele>
<time>2024-05-07T11:48:07Z</time>
</trkpt>
<trkpt lat="49.00591277517378" lon="9.67219540849328">
<ele>342</ele>
<time>2024-05-07T11:48:08Z</time>
</trkpt>
<trkpt lat="49.00593942962587" lon="9.672149643301964">
<ele>342.2</ele>
<time>2024-05-07T11:48:09Z</time>
</trkpt>
<trkpt lat="49.0059585403651" lon="9.67209625057876">
<ele>342.2</ele>
<time>2024-05-07T11:48:10Z</time>
</trkpt>
<trkpt lat="49.0059585403651" lon="9.672033302485945">
<ele>342.4</ele>
<time>2024-05-07T11:48:11Z</time>
</trkpt>
<trkpt lat="49.00595468468964" lon="9.671971276402472">
<ele>342.4</ele>
<time>2024-05-07T11:48:12Z</time>
</trkpt>
<trkpt lat="49.00593942962587" lon="9.671910256147385">
<ele>342.6</ele>
<time>2024-05-07T11:48:13Z</time>
</trkpt>
<trkpt lat="49.005928030237556" lon="9.671850157901645">
<ele>342.8</ele>
<time>2024-05-07T11:48:14Z</time>
</trkpt>
<trkpt lat="49.00591277517378" lon="9.671786287799478">
<ele>343</ele>
<time>2024-05-07T11:48:15Z</time>
</trkpt>
<trkpt lat="49.00589752011001" lon="9.671725267544389">
<ele>343.2</ele>
<time>2024-05-07T11:48:16Z</time>
</trkpt>
<trkpt lat="49.005886036902666" lon="9.67166131362319">
<ele>343.4</ele>
<time>2024-05-07T11:48:17Z</time>
</trkpt>
<trkpt lat="49.005870781838894" lon="9.6716002933681">
<ele>343.4</ele>
<time>2024-05-07T11:48:18Z</time>
</trkpt>
<trkpt lat="49.00585552677512" lon="9.671538351103663">
<ele>343.6</ele>
<time>2024-05-07T11:48:19Z</time>
</trkpt>
<trkpt lat="49.00583641603589" lon="9.671475403010843">
<ele>343.8</ele>
<time>2024-05-07T11:48:20Z</time>
</trkpt>
<trkpt lat="49.00582116097212" lon="9.671411449089646">
<ele>344</ele>
<time>2024-05-07T11:48:21Z</time>
</trkpt>
<trkpt lat="49.005809761583805" lon="9.671348500996828">
<ele>344.2</ele>
<time>2024-05-07T11:48:22Z</time>
</trkpt>
<trkpt lat="49.00579450652003" lon="9.67128655873239">
<ele>344.4</ele>
<time>2024-05-07T11:48:23Z</time>
</trkpt>
<trkpt lat="49.00578302331269" lon="9.67122453264892">
<ele>344.6</ele>
<time>2024-05-07T11:48:24Z</time>
</trkpt>
<trkpt lat="49.005771623924375" lon="9.671163512393832">
<ele>345</ele>
<time>2024-05-07T11:48:25Z</time>
</trkpt>
<trkpt lat="49.00576399639249" lon="9.671101570129396">
<ele>345.2</ele>
<time>2024-05-07T11:48:26Z</time>
</trkpt>
<trkpt lat="49.00576399639249" lon="9.671039544045923">
<ele>345.4</ele>
<time>2024-05-07T11:48:27Z</time>
</trkpt>
<trkpt lat="49.0057753957808" lon="9.670981373637916">
<ele>345.6</ele>
<time>2024-05-07T11:48:28Z</time>
</trkpt>
<trkpt lat="49.00579450652003" lon="9.67092990875244">
<ele>345.6</ele>
<time>2024-05-07T11:48:29Z</time>
</trkpt>
<trkpt lat="49.00582116097212" lon="9.670880287885666">
<ele>345.8</ele>
<time>2024-05-07T11:48:30Z</time>
</trkpt>
<trkpt lat="49.00585552677512" lon="9.670843072235584">
<ele>346</ele>
<time>2024-05-07T11:48:31Z</time>
</trkpt>
<trkpt lat="49.005889892578125" lon="9.6708164177835">
<ele>346.2</ele>
<time>2024-05-07T11:48:32Z</time>
</trkpt>
<trkpt lat="49.005928030237556" lon="9.670800156891346">
<ele>346.6</ele>
<time>2024-05-07T11:48:33Z</time>
</trkpt>
<trkpt lat="49.00596231222153" lon="9.670791607350113">
<ele>346.8</ele>
<time>2024-05-07T11:48:34Z</time>
</trkpt>
<trkpt lat="49.00600044988096" lon="9.670784901827574">
<ele>347</ele>
<time>2024-05-07T11:48:35Z</time>
</trkpt>
<trkpt lat="49.00603858754039" lon="9.670782051980495">
<ele>347.2</ele>
<time>2024-05-07T11:48:36Z</time>
</trkpt>
<trkpt lat="49.00607680901885" lon="9.67077635228634">
<ele>347.4</ele>
<time>2024-05-07T11:48:37Z</time>
</trkpt>
<trkpt lat="49.00611494667828" lon="9.670768724754453">
<ele>347.6</ele>
<time>2024-05-07T11:48:38Z</time>
</trkpt>
<trkpt lat="49.00615308433771" lon="9.670760091394186">
<ele>347.8</ele>
<time>2024-05-07T11:48:39Z</time>
</trkpt>
<trkpt lat="49.00619122199714" lon="9.670749614015222">
<ele>348</ele>
<time>2024-05-07T11:48:40Z</time>
</trkpt>
<trkpt lat="49.00622935965657" lon="9.670740058645606">
<ele>348.2</ele>
<time>2024-05-07T11:48:41Z</time>
</trkpt>
<trkpt lat="49.00627135299146" lon="9.670728659257293">
<ele>348.4</ele>
<time>2024-05-07T11:48:42Z</time>
</trkpt>
<trkpt lat="49.00630563497543" lon="9.67071340419352">
<ele>348.4</ele>
<time>2024-05-07T11:48:43Z</time>
</trkpt>
<trkpt lat="49.006343772634864" lon="9.67069337144494">
<ele>348.6</ele>
<time>2024-05-07T11:48:44Z</time>
</trkpt>
<trkpt lat="49.00637813843787" lon="9.670668561011553">
<ele>348.6</ele>
<time>2024-05-07T11:48:45Z</time>
</trkpt>
<trkpt lat="49.0064162760973" lon="9.670638050884008">
<ele>348.8</ele>
<time>2024-05-07T11:48:46Z</time>
</trkpt>
<trkpt lat="49.0064506419003" lon="9.670603685081003">
<ele>349</ele>
<time>2024-05-07T11:48:47Z</time>
</trkpt>
<trkpt lat="49.00648492388427" lon="9.670564625412226">
<ele>349</ele>
<time>2024-05-07T11:48:48Z</time>
</trkpt>
<trkpt lat="49.00651543401182" lon="9.670528331771491">
<ele>349.2</ele>
<time>2024-05-07T11:48:49Z</time>
</trkpt>
<trkpt lat="49.00654979981482" lon="9.67049304395914">
<ele>349.2</ele>
<time>2024-05-07T11:48:50Z</time>
</trkpt>
<trkpt lat="49.00658793747425" lon="9.67045683413744">
<ele>349.4</ele>
<time>2024-05-07T11:48:51Z</time>
</trkpt>
<trkpt lat="49.006618447601795" lon="9.67041869647801">
<ele>349.4</ele>
<time>2024-05-07T11:48:52Z</time>
</trkpt>
<trkpt lat="49.006656585261226" lon="9.67037863098085">
<ele>349.4</ele>
<time>2024-05-07T11:48:53Z</time>
</trkpt>
<trkpt lat="49.00669095106423" lon="9.670341415330768">
<ele>349.6</ele>
<time>2024-05-07T11:48:54Z</time>
</trkpt>
<trkpt lat="49.0067252330482" lon="9.670303277671335">
<ele>349.6</ele>
<time>2024-05-07T11:48:55Z</time>
</trkpt>
<trkpt lat="49.00676345452666" lon="9.670267067849636">
<ele>349.6</ele>
<time>2024-05-07T11:48:56Z</time>
</trkpt>
<trkpt lat="49.00680159218609" lon="9.670231780037284">
<ele>349.6</ele>
<time>2024-05-07T11:48:57Z</time>
</trkpt>
<trkpt lat="49.00683972984552" lon="9.670196492224932">
<ele>349.6</ele>
<time>2024-05-07T11:48:58Z</time>
</trkpt>
<trkpt lat="49.006877867504954" lon="9.67016120441258">
<ele>349.6</ele>
<time>2024-05-07T11:48:59Z</time>
</trkpt>
<trkpt lat="49.006912149488926" lon="9.670126838609576">
<ele>349.6</ele>
<time>2024-05-07T11:49:00Z</time>
</trkpt>
<trkpt lat="49.00695037096739" lon="9.670095406472685">
<ele>349.6</ele>
<time>2024-05-07T11:49:01Z</time>
</trkpt>
<trkpt lat="49.00698850862682" lon="9.67006489634514">
<ele>349.6</ele>
<time>2024-05-07T11:49:02Z</time>
</trkpt>
<trkpt lat="49.00702664628625" lon="9.670031536370516">
<ele>349.6</ele>
<time>2024-05-07T11:49:03Z</time>
</trkpt>
<trkpt lat="49.00706478394568" lon="9.669996248558164">
<ele>349.8</ele>
<time>2024-05-07T11:49:04Z</time>
</trkpt>
<trkpt lat="49.00710677728057" lon="9.66996473260224">
<ele>349.8</ele>
<time>2024-05-07T11:49:05Z</time>
</trkpt>
<trkpt lat="49.00714491494" lon="9.669931372627616">
<ele>350</ele>
<time>2024-05-07T11:49:06Z</time>
</trkpt>
<trkpt lat="49.00718305259943" lon="9.669899940490724">
<ele>350</ele>
<time>2024-05-07T11:49:07Z</time>
</trkpt>
<trkpt lat="49.00722119025886" lon="9.669866496697068">
<ele>350.2</ele>
<time>2024-05-07T11:49:08Z</time>
</trkpt>
<trkpt lat="49.00725932791829" lon="9.669835064560177">
<ele>350.2</ele>
<time>2024-05-07T11:49:09Z</time>
</trkpt>
<trkpt lat="49.00729746557772" lon="9.66980455443263">
<ele>350.2</ele>
<time>2024-05-07T11:49:10Z</time>
</trkpt>
<trkpt lat="49.00733560323715" lon="9.669776894152164">
<ele>350.4</ele>
<time>2024-05-07T11:49:11Z</time>
</trkpt>
<trkpt lat="49.00737374089658" lon="9.66974537819624">
<ele>350.4</ele>
<time>2024-05-07T11:49:12Z</time>
</trkpt>
<trkpt lat="49.00741187855601" lon="9.669712018221617">
<ele>350.4</ele>
<time>2024-05-07T11:49:13Z</time>
</trkpt>
<trkpt lat="49.007450100034475" lon="9.669678658246994">
<ele>350.4</ele>
<time>2024-05-07T11:49:14Z</time>
</trkpt>
<trkpt lat="49.00748438201845" lon="9.669638592749834">
<ele>350.6</ele>
<time>2024-05-07T11:49:15Z</time>
</trkpt>
<trkpt lat="49.00751112028957" lon="9.66958997771144">
<ele>350.8</ele>
<time>2024-05-07T11:49:16Z</time>
</trkpt>
<trkpt lat="49.00753014720976" lon="9.669531807303429">
<ele>351</ele>
<time>2024-05-07T11:49:17Z</time>
</trkpt>
<trkpt lat="49.00753777474165" lon="9.66946785338223">
<ele>351.2</ele>
<time>2024-05-07T11:49:18Z</time>
</trkpt>
<trkpt lat="49.00753777474165" lon="9.669401133432984">
<ele>351.2</ele>
<time>2024-05-07T11:49:19Z</time>
</trkpt>
<trkpt lat="49.00752251967788" lon="9.669336257502437">
<ele>351.4</ele>
<time>2024-05-07T11:49:20Z</time>
</trkpt>
<trkpt lat="49.007507264614105" lon="9.669275237247348">
<ele>351.6</ele>
<time>2024-05-07T11:49:21Z</time>
</trkpt>
<trkpt lat="49.007488237693906" lon="9.669217066839336">
<ele>351.8</ele>
<time>2024-05-07T11:49:22Z</time>
</trkpt>
<trkpt lat="49.007469126954675" lon="9.669156968593596">
<ele>352</ele>
<time>2024-05-07T11:49:23Z</time>
</trkpt>
<trkpt lat="49.00745772756636" lon="9.66909309849143">
<ele>352.2</ele>
<time>2024-05-07T11:49:24Z</time>
</trkpt>
<trkpt lat="49.0074538718909" lon="9.66903207823634">
<ele>352.4</ele>
<time>2024-05-07T11:49:25Z</time>
</trkpt>
<trkpt lat="49.00746535509825" lon="9.66897482983768">
<ele>352.4</ele>
<time>2024-05-07T11:49:26Z</time>
</trkpt>
<trkpt lat="49.00748061016202" lon="9.668921437114475">
<ele>352.8</ele>
<time>2024-05-07T11:49:27Z</time>
</trkpt>
<trkpt lat="49.00750349275768" lon="9.668872822076082">
<ele>353</ele>
<time>2024-05-07T11:49:28Z</time>
</trkpt>
<trkpt lat="49.00753014720976" lon="9.668833678588271">
<ele>353.4</ele>
<time>2024-05-07T11:49:29Z</time>
</trkpt>
<trkpt lat="49.00755688548088" lon="9.668794618919492">
<ele>353.6</ele>
<time>2024-05-07T11:49:30Z</time>
</trkpt>
<trkpt lat="49.007583539932966" lon="9.668763102963569">
<ele>354</ele>
<time>2024-05-07T11:49:31Z</time>
</trkpt>
<trkpt lat="49.00761413387954" lon="9.668729742988944">
<ele>354.4</ele>
<time>2024-05-07T11:49:32Z</time>
</trkpt>
<trkpt lat="49.00764464400709" lon="9.668700154870749">
<ele>354.6</ele>
<time>2024-05-07T11:49:33Z</time>
</trkpt>
<trkpt lat="49.00767515413463" lon="9.668669644743204">
<ele>355</ele>
<time>2024-05-07T11:49:34Z</time>
</trkpt>
<trkpt lat="49.00770180858672" lon="9.66863821260631">
<ele>355.4</ele>
<time>2024-05-07T11:49:35Z</time>
</trkpt>
<trkpt lat="49.00773231871426" lon="9.668611474335194">
<ele>355.8</ele>
<time>2024-05-07T11:49:36Z</time>
</trkpt>
<trkpt lat="49.007766684517264" lon="9.668586663901806">
<ele>356</ele>
<time>2024-05-07T11:49:37Z</time>
</trkpt>
<trkpt lat="49.00779719464481" lon="9.668564787134528">
<ele>356.4</ele>
<time>2024-05-07T11:49:38Z</time>
</trkpt>
<trkpt lat="49.00782770477235" lon="9.668544754385948">
<ele>356.6</ele>
<time>2024-05-07T11:49:39Z</time>
</trkpt>
<trkpt lat="49.0078582148999" lon="9.668524721637368">
<ele>357</ele>
<time>2024-05-07T11:49:40Z</time>
</trkpt>
<trkpt lat="49.00788872502744" lon="9.668504688888788">
<ele>357.2</ele>
<time>2024-05-07T11:49:41Z</time>
</trkpt>
<trkpt lat="49.007919235154986" lon="9.668484656140208">
<ele>357.6</ele>
<time>2024-05-07T11:49:42Z</time>
</trkpt>
<trkpt lat="49.00794982910156" lon="9.668466551229358">
<ele>357.8</ele>
<time>2024-05-07T11:49:43Z</time>
</trkpt>
<trkpt lat="49.00797648355365" lon="9.668448446318507">
<ele>358</ele>
<time>2024-05-07T11:49:44Z</time>
</trkpt>
<trkpt lat="49.00801084935665" lon="9.668430257588623">
<ele>358.2</ele>
<time>2024-05-07T11:49:45Z</time>
</trkpt>
<trkpt lat="49.00804135948419" lon="9.668410224840043">
<ele>358.4</ele>
<time>2024-05-07T11:49:46Z</time>
</trkpt>
<trkpt lat="49.00807186961174" lon="9.668390192091463">
<ele>358.6</ele>
<time>2024-05-07T11:49:47Z</time>
</trkpt>
<trkpt lat="49.00810615159571" lon="9.668366387486458">
<ele>358.8</ele>
<time>2024-05-07T11:49:48Z</time>
</trkpt>
<trkpt lat="49.00813674554229" lon="9.668344426900148">
<ele>359</ele>
<time>2024-05-07T11:49:49Z</time>
</trkpt>
<trkpt lat="49.00816725566983" lon="9.66832347214222">
<ele>359.2</ele>
<time>2024-05-07T11:49:50Z</time>
</trkpt>
<trkpt lat="49.00819776579738" lon="9.66830151155591">
<ele>359.4</ele>
<time>2024-05-07T11:49:51Z</time>
</trkpt>
<trkpt lat="49.00822827592492" lon="9.668279634788632">
<ele>359.6</ele>
<time>2024-05-07T11:49:52Z</time>
</trkpt>
<trkpt lat="49.008258786052465" lon="9.668258596211672">
<ele>359.8</ele>
<time>2024-05-07T11:49:53Z</time>
</trkpt>
<trkpt lat="49.00829315185547" lon="9.668236719444394">
<ele>360</ele>
<time>2024-05-07T11:49:54Z</time>
</trkpt>
<trkpt lat="49.00832366198301" lon="9.668212831020355">
<ele>360.2</ele>
<time>2024-05-07T11:49:55Z</time>
</trkpt>
<trkpt lat="49.00835417211056" lon="9.668191876262426">
<ele>360.2</ele>
<time>2024-05-07T11:49:56Z</time>
</trkpt>
<trkpt lat="49.00838082656264" lon="9.668167987838387">
<ele>360.2</ele>
<time>2024-05-07T11:49:57Z</time>
</trkpt>
<trkpt lat="49.00841133669019" lon="9.668143261224031">
<ele>360.4</ele>
<time>2024-05-07T11:49:58Z</time>
</trkpt>
<trkpt lat="49.008438074961305" lon="9.668118450790644">
<ele>360.4</ele>
<time>2024-05-07T11:49:59Z</time>
</trkpt>
<trkpt lat="49.00846481323242" lon="9.668091712519526">
<ele>360.6</ele>
<time>2024-05-07T11:50:00Z</time>
</trkpt>
<trkpt lat="49.008495323359966" lon="9.668063130229712">
<ele>360.8</ele>
<time>2024-05-07T11:50:01Z</time>
</trkpt>
<trkpt lat="49.00852583348751" lon="9.668036391958594">
<ele>360.8</ele>
<time>2024-05-07T11:50:02Z</time>
</trkpt>
<trkpt lat="49.00856011547148" lon="9.668008731678128">
<ele>361</ele>
<time>2024-05-07T11:50:03Z</time>
</trkpt>
<trkpt lat="49.0085868537426" lon="9.667978221550584">
<ele>361.2</ele>
<time>2024-05-07T11:50:04Z</time>
</trkpt>
<trkpt lat="49.008617363870144" lon="9.66794486157596">
<ele>361.2</ele>
<time>2024-05-07T11:50:05Z</time>
</trkpt>
<trkpt lat="49.00864787399769" lon="9.667911501601338">
<ele>361.4</ele>
<time>2024-05-07T11:50:06Z</time>
</trkpt>
<trkpt lat="49.008674612268806" lon="9.667878141626716">
<ele>361.4</ele>
<time>2024-05-07T11:50:07Z</time>
</trkpt>
<trkpt lat="49.00870126672089" lon="9.66784469783306">
<ele>361.6</ele>
<time>2024-05-07T11:50:08Z</time>
</trkpt>
<trkpt lat="49.008731776848435" lon="9.667811337858438">
<ele>361.6</ele>
<time>2024-05-07T11:50:09Z</time>
</trkpt>
<trkpt lat="49.00875851511955" lon="9.667775128036736">
<ele>361.6</ele>
<time>2024-05-07T11:50:10Z</time>
</trkpt>
<trkpt lat="49.00878139771521" lon="9.667737912386656">
<ele>361.8</ele>
<time>2024-05-07T11:50:11Z</time>
</trkpt>
<trkpt lat="49.00880813598633" lon="9.667699774727224">
<ele>361.8</ele>
<time>2024-05-07T11:50:12Z</time>
</trkpt>
<trkpt lat="49.008834790438414" lon="9.667666414752604">
<ele>362</ele>
<time>2024-05-07T11:50:13Z</time>
</trkpt>
<trkpt lat="49.00886530056596" lon="9.667634898796678">
<ele>362.2</ele>
<time>2024-05-07T11:50:14Z</time>
</trkpt>
<trkpt lat="49.008892038837075" lon="9.667599610984324">
<ele>362.2</ele>
<time>2024-05-07T11:50:15Z</time>
</trkpt>
<trkpt lat="49.00891869328916" lon="9.667565329000354">
<ele>362.4</ele>
<time>2024-05-07T11:50:16Z</time>
</trkpt>
<trkpt lat="49.00894543156028" lon="9.6675318852067">
<ele>362.4</ele>
<time>2024-05-07T11:50:17Z</time>
</trkpt>
<trkpt lat="49.00897208601236" lon="9.667499531060455">
<ele>362.4</ele>
<time>2024-05-07T11:50:18Z</time>
</trkpt>
<trkpt lat="49.00899882428348" lon="9.667467093095183">
<ele>362.6</ele>
<time>2024-05-07T11:50:19Z</time>
</trkpt>
<trkpt lat="49.0090255625546" lon="9.66743373312056">
<ele>362.6</ele>
<time>2024-05-07T11:50:20Z</time>
</trkpt>
<trkpt lat="49.00905221700668" lon="9.667398445308208">
<ele>362.6</ele>
<time>2024-05-07T11:50:21Z</time>
</trkpt>
<trkpt lat="49.00908272713423" lon="9.667361229658129">
<ele>362.8</ele>
<time>2024-05-07T11:50:22Z</time>
</trkpt>
<trkpt lat="49.009109465405345" lon="9.667326863855124">
<ele>362.8</ele>
<time>2024-05-07T11:50:23Z</time>
</trkpt>
<trkpt lat="49.00913997553289" lon="9.66729543171823">
<ele>363</ele>
<time>2024-05-07T11:50:24Z</time>
</trkpt>
<trkpt lat="49.00917434133589" lon="9.667262993752956">
<ele>363</ele>
<time>2024-05-07T11:50:25Z</time>
</trkpt>
<trkpt lat="49.00920485146344" lon="9.667238183319569">
<ele>363.2</ele>
<time>2024-05-07T11:50:26Z</time>
</trkpt>
<trkpt lat="49.00923913344741" lon="9.667211528867483">
<ele>363.2</ele>
<time>2024-05-07T11:50:27Z</time>
</trkpt>
<trkpt lat="49.009265871718526" lon="9.667186718434095">
<ele>363.4</ele>
<time>2024-05-07T11:50:28Z</time>
</trkpt>
<trkpt lat="49.00929638184607" lon="9.667164757847786">
<ele>363.2</ele>
<time>2024-05-07T11:50:29Z</time>
</trkpt>
<trkpt lat="49.00932312011719" lon="9.667142797261477">
<ele>363.2</ele>
<time>2024-05-07T11:50:30Z</time>
</trkpt>
<trkpt lat="49.00935363024473" lon="9.66711807064712">
<ele>363</ele>
<time>2024-05-07T11:50:31Z</time>
</trkpt>
<trkpt lat="49.00938414037227" lon="9.667091332376003">
<ele>363</ele>
<time>2024-05-07T11:50:32Z</time>
</trkpt>
<trkpt lat="49.00941842235625" lon="9.667064594104886">
<ele>362.8</ele>
<time>2024-05-07T11:50:33Z</time>
</trkpt>
<trkpt lat="49.00945278815925" lon="9.66703986749053">
<ele>362.8</ele>
<time>2024-05-07T11:50:34Z</time>
</trkpt>
<trkpt lat="49.00948707014322" lon="9.66701690107584">
<ele>362.6</ele>
<time>2024-05-07T11:50:35Z</time>
</trkpt>
<trkpt lat="49.00952906347811" lon="9.666993096470833">
<ele>362.6</ele>
<time>2024-05-07T11:50:36Z</time>
</trkpt>
<trkpt lat="49.00957482866943" lon="9.666970213875176">
<ele>362.6</ele>
<time>2024-05-07T11:50:37Z</time>
</trkpt>
<trkpt lat="49.009620593860745" lon="9.666948253288863">
<ele>362.4</ele>
<time>2024-05-07T11:50:38Z</time>
</trkpt>
<trkpt lat="49.009666442871094" lon="9.66692159883678">
<ele>362.4</ele>
<time>2024-05-07T11:50:39Z</time>
</trkpt>
<trkpt lat="49.00971597991884" lon="9.66689871624112">
<ele>362.2</ele>
<time>2024-05-07T11:50:40Z</time>
</trkpt>
<trkpt lat="49.009761745110154" lon="9.666872899979351">
<ele>362</ele>
<time>2024-05-07T11:50:41Z</time>
</trkpt>
<trkpt lat="49.00981136597693" lon="9.666854795068502">
<ele>361.8</ele>
<time>2024-05-07T11:50:42Z</time>
</trkpt>
<trkpt lat="49.009860986843705" lon="9.66683861799538">
<ele>361.6</ele>
<time>2024-05-07T11:50:43Z</time>
</trkpt>
<trkpt lat="49.00991052389145" lon="9.66682336293161">
<ele>361.2</ele>
<time>2024-05-07T11:50:44Z</time>
</trkpt>
<trkpt lat="49.009960144758224" lon="9.666814729571342">
<ele>360.8</ele>
<time>2024-05-07T11:50:45Z</time>
</trkpt>
<trkpt lat="49.010009765625" lon="9.666808107867835">
<ele>360.4</ele>
<time>2024-05-07T11:50:46Z</time>
</trkpt>
<trkpt lat="49.010059302672744" lon="9.666796624660492">
<ele>360.2</ele>
<time>2024-05-07T11:50:47Z</time>
</trkpt>
<trkpt lat="49.010116551071405" lon="9.66677851974964">
<ele>359.8</ele>
<time>2024-05-07T11:50:48Z</time>
</trkpt>
<trkpt lat="49.010177571326494" lon="9.66676133684814">
<ele>359.2</ele>
<time>2024-05-07T11:50:49Z</time>
</trkpt>
<trkpt lat="49.01023859158158" lon="9.666748009622095">
<ele>358.8</ele>
<time>2024-05-07T11:50:50Z</time>
</trkpt>
<trkpt lat="49.01030723936856" lon="9.666753709316254">
<ele>358.2</ele>
<time>2024-05-07T11:50:51Z</time>
</trkpt>
<trkpt lat="49.01036834344268" lon="9.66677851974964">
<ele>357.6</ele>
<time>2024-05-07T11:50:52Z</time>
</trkpt>
<trkpt lat="49.01042936369777" lon="9.6668185852468">
<ele>356.8</ele>
<time>2024-05-07T11:50:53Z</time>
</trkpt>
<trkpt lat="49.0104865282774" lon="9.66687960550189">
<ele>356</ele>
<time>2024-05-07T11:50:54Z</time>
</trkpt>
<trkpt lat="49.01054377667606" lon="9.666950181126596">
<ele>355.4</ele>
<time>2024-05-07T11:50:55Z</time>
</trkpt>
<trkpt lat="49.01059716939926" lon="9.667021678760648">
<ele>354.6</ele>
<time>2024-05-07T11:50:56Z</time>
</trkpt>
<trkpt lat="49.010650562122464" lon="9.667088482528923">
<ele>353.8</ele>
<time>2024-05-07T11:50:57Z</time>
</trkpt>
<trkpt lat="49.0107040386647" lon="9.667146652936935">
<ele>353.2</ele>
<time>2024-05-07T11:50:58Z</time>
</trkpt>
<trkpt lat="49.01076120324433" lon="9.667198117822409">
<ele>352.4</ele>
<time>2024-05-07T11:50:59Z</time>
</trkpt>
<trkpt lat="49.01081845164299" lon="9.667240111157298">
<ele>351.8</ele>
<time>2024-05-07T11:51:00Z</time>
</trkpt>
<trkpt lat="49.01087570004165" lon="9.667269699275494">
<ele>351.4</ele>
<time>2024-05-07T11:51:01Z</time>
</trkpt>
<trkpt lat="49.01093672029674" lon="9.667284954339266">
<ele>350.8</ele>
<time>2024-05-07T11:51:02Z</time>
</trkpt>
<trkpt lat="49.01100151240826" lon="9.667282104492188">
<ele>350.2</ele>
<time>2024-05-07T11:51:03Z</time>
</trkpt>
<trkpt lat="49.01106261648238" lon="9.667262071743608">
<ele>349.8</ele>
<time>2024-05-07T11:51:04Z</time>
</trkpt>
<trkpt lat="49.01111978106201" lon="9.667222006246448">
<ele>349.4</ele>
<time>2024-05-07T11:51:05Z</time>
</trkpt>
<trkpt lat="49.01117702946067" lon="9.667171463370323">
<ele>349</ele>
<time>2024-05-07T11:51:06Z</time>
</trkpt>
<trkpt lat="49.01122665032744" lon="9.667111365124583">
<ele>348.8</ele>
<time>2024-05-07T11:51:07Z</time>
</trkpt>
<trkpt lat="49.0112685598433" lon="9.667044561356306">
<ele>348.4</ele>
<time>2024-05-07T11:51:08Z</time>
</trkpt>
<trkpt lat="49.01131432503462" lon="9.666971135884523">
<ele>348.2</ele>
<time>2024-05-07T11:51:09Z</time>
</trkpt>
<trkpt lat="49.01135631836951" lon="9.66689963825047">
<ele>347.8</ele>
<time>2024-05-07T11:51:10Z</time>
</trkpt>
<trkpt lat="49.0113983117044" lon="9.666828140616415">
<ele>347.6</ele>
<time>2024-05-07T11:51:11Z</time>
</trkpt>
<trkpt lat="49.01143259368837" lon="9.66676326468587">
<ele>347.4</ele>
<time>2024-05-07T11:51:12Z</time>
</trkpt>
<trkpt lat="49.01146695949137" lon="9.666698388755322">
<ele>347.2</ele>
<time>2024-05-07T11:51:13Z</time>
</trkpt>
<trkpt lat="49.01149746961892" lon="9.666631668806076">
<ele>347</ele>
<time>2024-05-07T11:51:14Z</time>
</trkpt>
<trkpt lat="49.01152797974646" lon="9.666571570560336">
<ele>346.8</ele>
<time>2024-05-07T11:51:15Z</time>
</trkpt>
<trkpt lat="49.011558489874005" lon="9.666513400152326">
<ele>346.8</ele>
<time>2024-05-07T11:51:16Z</time>
</trkpt>
<trkpt lat="49.011581372469664" lon="9.666455229744315">
<ele>346.8</ele>
<time>2024-05-07T11:51:17Z</time>
</trkpt>
<trkpt lat="49.01160811074078" lon="9.666397981345654">
<ele>346.8</ele>
<time>2024-05-07T11:51:18Z</time>
</trkpt>
<trkpt lat="49.011638620868325" lon="9.666343666613102">
<ele>346.8</ele>
<time>2024-05-07T11:51:19Z</time>
</trkpt>
<trkpt lat="49.01166527532041" lon="9.66628834605217">
<ele>346.8</ele>
<time>2024-05-07T11:51:20Z</time>
</trkpt>
<trkpt lat="49.011695785447955" lon="9.666234953328969">
<ele>347</ele>
<time>2024-05-07T11:51:21Z</time>
</trkpt>
<trkpt lat="49.01172252371907" lon="9.666183404624462">
<ele>347</ele>
<time>2024-05-07T11:51:22Z</time>
</trkpt>
<trkpt lat="49.01174926199019" lon="9.666131939738989">
<ele>347</ele>
<time>2024-05-07T11:51:23Z</time>
</trkpt>
<trkpt lat="49.011775916442275" lon="9.666081396862864">
<ele>347</ele>
<time>2024-05-07T11:51:24Z</time>
</trkpt>
<trkpt lat="49.01180265471339" lon="9.666034625843167">
<ele>347.2</ele>
<time>2024-05-07T11:51:25Z</time>
</trkpt>
<trkpt lat="49.01182553730905" lon="9.66598693281412">
<ele>347.2</ele>
<time>2024-05-07T11:51:26Z</time>
</trkpt>
<trkpt lat="49.011856047436595" lon="9.665938317775726">
<ele>347.4</ele>
<time>2024-05-07T11:51:27Z</time>
</trkpt>
<trkpt lat="49.01188270188868" lon="9.665895402431488">
<ele>347.4</ele>
<time>2024-05-07T11:51:28Z</time>
</trkpt>
<trkpt lat="49.0119094401598" lon="9.665849637240171">
<ele>347.6</ele>
<time>2024-05-07T11:51:29Z</time>
</trkpt>
<trkpt lat="49.01193995028734" lon="9.665802950039506">
<ele>347.8</ele>
<time>2024-05-07T11:51:30Z</time>
</trkpt>
<trkpt lat="49.01196668855846" lon="9.665760034695268">
<ele>348</ele>
<time>2024-05-07T11:51:31Z</time>
</trkpt>
<trkpt lat="49.011997198686" lon="9.665718041360378">
<ele>348</ele>
<time>2024-05-07T11:51:32Z</time>
</trkpt>
<trkpt lat="49.012031480669975" lon="9.665679903700948">
<ele>348</ele>
<time>2024-05-07T11:51:33Z</time>
</trkpt>
<trkpt lat="49.01206970214844" lon="9.665639838203788">
<ele>348</ele>
<time>2024-05-07T11:51:34Z</time>
</trkpt>
<trkpt lat="49.012111611664295" lon="9.665603628382089">
<ele>348</ele>
<time>2024-05-07T11:51:35Z</time>
</trkpt>
<trkpt lat="49.012149749323726" lon="9.665573118254542">
<ele>348</ele>
<time>2024-05-07T11:51:36Z</time>
</trkpt>
<trkpt lat="49.01218788698315" lon="9.665541602298616">
<ele>348</ele>
<time>2024-05-07T11:51:37Z</time>
</trkpt>
<trkpt lat="49.012229880318046" lon="9.665513020008802">
<ele>348</ele>
<time>2024-05-07T11:51:38Z</time>
</trkpt>
<trkpt lat="49.01226801797747" lon="9.665488209575416">
<ele>348</ele>
<time>2024-05-07T11:51:39Z</time>
</trkpt>
<trkpt lat="49.012310011312366" lon="9.665463399142029">
<ele>348</ele>
<time>2024-05-07T11:51:40Z</time>
</trkpt>
<trkpt lat="49.01234814897179" lon="9.66543858870864">
<ele>348</ele>
<time>2024-05-07T11:51:41Z</time>
</trkpt>
<trkpt lat="49.01238628663123" lon="9.66541671194136">
<ele>348</ele>
<time>2024-05-07T11:51:42Z</time>
</trkpt>
<trkpt lat="49.01242442429066" lon="9.66539667919278">
<ele>348</ele>
<time>2024-05-07T11:51:43Z</time>
</trkpt>
<trkpt lat="49.01246256195009" lon="9.66538142412901">
<ele>348</ele>
<time>2024-05-07T11:51:44Z</time>
</trkpt>
<trkpt lat="49.01249307207763" lon="9.665372790768744">
<ele>348</ele>
<time>2024-05-07T11:51:45Z</time>
</trkpt>
<trkpt lat="49.01253120973706" lon="9.665372790768744">
<ele>348</ele>
<time>2024-05-07T11:51:46Z</time>
</trkpt>
<trkpt lat="49.01256934739649" lon="9.66538142412901">
<ele>348.2</ele>
<time>2024-05-07T11:51:47Z</time>
</trkpt>
<trkpt lat="49.01259994134307" lon="9.665403300896289">
<ele>348.2</ele>
<time>2024-05-07T11:51:48Z</time>
</trkpt>
<trkpt lat="49.0126380790025" lon="9.665445294231176">
<ele>348.4</ele>
<time>2024-05-07T11:51:49Z</time>
</trkpt>
<trkpt lat="49.01266858913005" lon="9.665491981431842">
<ele>348.4</ele>
<time>2024-05-07T11:51:50Z</time>
</trkpt>
<trkpt lat="49.01269909925759" lon="9.66553489677608">
<ele>348.6</ele>
<time>2024-05-07T11:51:51Z</time>
</trkpt>
<trkpt lat="49.01273338124156" lon="9.665577812120318">
<ele>348.6</ele>
<time>2024-05-07T11:51:52Z</time>
</trkpt>
<trkpt lat="49.012763975188136" lon="9.66563313268125">
<ele>348.6</ele>
<time>2024-05-07T11:51:53Z</time>
</trkpt>
<trkpt lat="49.01279062964022" lon="9.66569130308926">
<ele>348.4</ele>
<time>2024-05-07T11:51:54Z</time>
</trkpt>
<trkpt lat="49.012824995443225" lon="9.665746623650191">
<ele>348.4</ele>
<time>2024-05-07T11:51:55Z</time>
</trkpt>
<trkpt lat="49.0128592774272" lon="9.665798172354698">
<ele>348.2</ele>
<time>2024-05-07T11:51:56Z</time>
</trkpt>
<trkpt lat="49.0128936432302" lon="9.6658515650779">
<ele>348</ele>
<time>2024-05-07T11:51:57Z</time>
</trkpt>
<trkpt lat="49.0129280090332" lon="9.665906885638831">
<ele>347.8</ele>
<time>2024-05-07T11:51:58Z</time>
</trkpt>
<trkpt lat="49.012962291017175" lon="9.665956422686577">
<ele>347.6</ele>
<time>2024-05-07T11:51:59Z</time>
</trkpt>
<trkpt lat="49.01299665682018" lon="9.666000343859196">
<ele>347.4</ele>
<time>2024-05-07T11:52:00Z</time>
</trkpt>
<trkpt lat="49.01303093880415" lon="9.666031775996087">
<ele>347.2</ele>
<time>2024-05-07T11:52:01Z</time>
</trkpt>
<trkpt lat="49.01306907646358" lon="9.666059436276557">
<ele>347</ele>
<time>2024-05-07T11:52:02Z</time>
</trkpt>
<trkpt lat="49.01310344226658" lon="9.666083324700594">
<ele>346.8</ele>
<time>2024-05-07T11:52:03Z</time>
</trkpt>
<trkpt lat="49.01313395239413" lon="9.666093802079558">
<ele>346.6</ele>
<time>2024-05-07T11:52:04Z</time>
</trkpt>
<trkpt lat="49.01317209005356" lon="9.666085168719292">
<ele>346.6</ele>
<time>2024-05-07T11:52:05Z</time>
</trkpt>
<trkpt lat="49.01320645585656" lon="9.666058514267206">
<ele>346.4</ele>
<time>2024-05-07T11:52:06Z</time>
</trkpt>
<trkpt lat="49.01323311030865" lon="9.666020376607776">
<ele>346.2</ele>
<time>2024-05-07T11:52:07Z</time>
</trkpt>
<trkpt lat="49.01325222104788" lon="9.66597461141646">
<ele>346</ele>
<time>2024-05-07T11:52:08Z</time>
</trkpt>
<trkpt lat="49.01327510364354" lon="9.665927840396762">
<ele>345.8</ele>
<time>2024-05-07T11:52:09Z</time>
</trkpt>
<trkpt lat="49.013301841914654" lon="9.665882075205444">
<ele>345.6</ele>
<time>2024-05-07T11:52:10Z</time>
</trkpt>
<trkpt lat="49.01332086883485" lon="9.665835304185748">
<ele>345.6</ele>
<time>2024-05-07T11:52:11Z</time>
</trkpt>
<trkpt lat="49.01334375143051" lon="9.665786689147351">
<ele>345.6</ele>
<time>2024-05-07T11:52:12Z</time>
</trkpt>
<trkpt lat="49.01336663402617" lon="9.665738074108958">
<ele>345.6</ele>
<time>2024-05-07T11:52:13Z</time>
</trkpt>
<trkpt lat="49.01338951662183" lon="9.66569323092699">
<ele>345.6</ele>
<time>2024-05-07T11:52:14Z</time>
</trkpt>
<trkpt lat="49.013412399217486" lon="9.665648387745025">
<ele>345.6</ele>
<time>2024-05-07T11:52:15Z</time>
</trkpt>
<trkpt lat="49.013435281813145" lon="9.665599772706628">
<ele>345.6</ele>
<time>2024-05-07T11:52:16Z</time>
</trkpt>
<trkpt lat="49.013458248227835" lon="9.665552079677582">
<ele>345.6</ele>
<time>2024-05-07T11:52:17Z</time>
</trkpt>
<trkpt lat="49.01348490267992" lon="9.665513020008802">
<ele>345.6</ele>
<time>2024-05-07T11:52:18Z</time>
</trkpt>
<trkpt lat="49.01351164095104" lon="9.66547672636807">
<ele>345.6</ele>
<time>2024-05-07T11:52:19Z</time>
</trkpt>
<trkpt lat="49.01353829540312" lon="9.665445294231176">
<ele>345.6</ele>
<time>2024-05-07T11:52:20Z</time>
</trkpt>
<trkpt lat="49.01356503367424" lon="9.665412856265904">
<ele>345.6</ele>
<time>2024-05-07T11:52:21Z</time>
</trkpt>
<trkpt lat="49.013591688126326" lon="9.665385195985436">
<ele>345.8</ele>
<time>2024-05-07T11:52:22Z</time>
</trkpt>
<trkpt lat="49.01361842639744" lon="9.665358541533353">
<ele>346</ele>
<time>2024-05-07T11:52:23Z</time>
</trkpt>
<trkpt lat="49.013637537136674" lon="9.665323253721">
<ele>346</ele>
<time>2024-05-07T11:52:24Z</time>
</trkpt>
<trkpt lat="49.01365656405687" lon="9.665293665602803">
<ele>346</ele>
<time>2024-05-07T11:52:25Z</time>
</trkpt>
<trkpt lat="49.01366804726422" lon="9.665273632854223">
<ele>346</ele>
<time>2024-05-07T11:52:26Z</time>
</trkpt>
<trkpt lat="49.013671819120646" lon="9.66526030562818">
<ele>346</ele>
<time>2024-05-07T11:52:27Z</time>
</trkpt>
<trkpt lat="49.013675674796104" lon="9.665256449952722">
<ele>346</ele>
<time>2024-05-07T11:52:28Z</time>
</trkpt>
<trkpt lat="49.013675674796104" lon="9.665254522114992">
<ele>346</ele>
<time>2024-05-07T11:52:29Z</time>
</trkpt>
<trkpt lat="49.013675674796104" lon="9.665256449952722">
<ele>345.8</ele>
<time>2024-05-07T11:52:30Z</time>
</trkpt>
<trkpt lat="49.013675674796104" lon="9.665253600105643">
<ele>345.8</ele>
<time>2024-05-07T11:52:31Z</time>
</trkpt>
<trkpt lat="49.013671819120646" lon="9.665251672267914">
<ele>345.8</ele>
<time>2024-05-07T11:52:33Z</time>
</trkpt>
<trkpt lat="49.013671819120646" lon="9.665249744430184">
<ele>345.8</ele>
<time>2024-05-07T11:52:35Z</time>
</trkpt>
<trkpt lat="49.013675674796104" lon="9.665249744430184">
<ele>345.6</ele>
<time>2024-05-07T11:52:36Z</time>
</trkpt>
<trkpt lat="49.013675674796104" lon="9.665247900411488">
<ele>345.6</ele>
<time>2024-05-07T11:52:38Z</time>
</trkpt>
<trkpt lat="49.013675674796104" lon="9.665246894583106">
<ele>345.8</ele>
<time>2024-05-07T11:52:41Z</time>
</trkpt>
<trkpt lat="49.013675674796104" lon="9.66524312272668">
<ele>345.8</ele>
<time>2024-05-07T11:52:43Z</time>
</trkpt>
<trkpt lat="49.01368330232799" lon="9.66522216796875">
<ele>345.8</ele>
<time>2024-05-07T11:52:44Z</time>
</trkpt>
<trkpt lat="49.013694701716304" lon="9.665195429697633">
<ele>346</ele>
<time>2024-05-07T11:52:45Z</time>
</trkpt>
<trkpt lat="49.01369855739176" lon="9.665168691426516">
<ele>346</ele>
<time>2024-05-07T11:52:46Z</time>
</trkpt>
<trkpt lat="49.01370618492365" lon="9.665131559595466">
<ele>346</ele>
<time>2024-05-07T11:52:47Z</time>
</trkpt>
<trkpt lat="49.01370995678008" lon="9.665093421936035">
<ele>346</ele>
<time>2024-05-07T11:52:48Z</time>
</trkpt>
<trkpt lat="49.01370618492365" lon="9.665050506591797">
<ele>346</ele>
<time>2024-05-07T11:52:49Z</time>
</trkpt>
<trkpt lat="49.01370232924819" lon="9.665006585419178">
<ele>346</ele>
<time>2024-05-07T11:52:50Z</time>
</trkpt>
<trkpt lat="49.013694701716304" lon="9.66496174223721">
<ele>346</ele>
<time>2024-05-07T11:52:51Z</time>
</trkpt>
<trkpt lat="49.013694701716304" lon="9.664917904883623">
<ele>345.8</ele>
<time>2024-05-07T11:52:52Z</time>
</trkpt>
<trkpt lat="49.013694701716304" lon="9.664874989539385">
<ele>345.8</ele>
<time>2024-05-07T11:52:53Z</time>
</trkpt>
<trkpt lat="49.013694701716304" lon="9.664836851879954">
<ele>345.8</ele>
<time>2024-05-07T11:52:54Z</time>
</trkpt>
<trkpt lat="49.01369855739176" lon="9.664801564067602">
<ele>345.8</ele>
<time>2024-05-07T11:52:55Z</time>
</trkpt>
<trkpt lat="49.01370232924819" lon="9.664763426408172">
<ele>345.6</ele>
<time>2024-05-07T11:52:56Z</time>
</trkpt>
<trkpt lat="49.01370232924819" lon="9.66472528874874">
<ele>345.6</ele>
<time>2024-05-07T11:52:57Z</time>
</trkpt>
<trkpt lat="49.01370995678008" lon="9.66468807309866">
<ele>345.6</ele>
<time>2024-05-07T11:52:58Z</time>
</trkpt>
<trkpt lat="49.013713812455535" lon="9.664653707295656">
<ele>345.8</ele>
<time>2024-05-07T11:52:59Z</time>
</trkpt>
<trkpt lat="49.01371758431196" lon="9.664613641798496">
<ele>345.8</ele>
<time>2024-05-07T11:53:00Z</time>
</trkpt>
<trkpt lat="49.01372521184385" lon="9.66457173228264">
<ele>346</ele>
<time>2024-05-07T11:53:01Z</time>
</trkpt>
<trkpt lat="49.013732839375734" lon="9.66452781111002">
<ele>346</ele>
<time>2024-05-07T11:53:02Z</time>
</trkpt>
<trkpt lat="49.01374432258308" lon="9.66448682360351">
<ele>346.2</ele>
<time>2024-05-07T11:53:03Z</time>
</trkpt>
<trkpt lat="49.013751950114965" lon="9.664446758106353">
<ele>346.2</ele>
<time>2024-05-07T11:53:04Z</time>
</trkpt>
<trkpt lat="49.01376334950328" lon="9.664411470294">
<ele>346.4</ele>
<time>2024-05-07T11:53:05Z</time>
</trkpt>
<trkpt lat="49.013774832710624" lon="9.664376182481648">
<ele>346.4</ele>
<time>2024-05-07T11:53:06Z</time>
</trkpt>
<trkpt lat="49.0137900877744" lon="9.664339972659944">
<ele>346.6</ele>
<time>2024-05-07T11:53:07Z</time>
</trkpt>
<trkpt lat="49.01379771530628" lon="9.664306612685325">
<ele>346.6</ele>
<time>2024-05-07T11:53:08Z</time>
</trkpt>
<trkpt lat="49.01380919851363" lon="9.6642732527107">
<ele>346.8</ele>
<time>2024-05-07T11:53:09Z</time>
</trkpt>
<trkpt lat="49.01381682604551" lon="9.664237964898348">
<ele>346.8</ele>
<time>2024-05-07T11:53:10Z</time>
</trkpt>
<trkpt lat="49.013828225433826" lon="9.664201671257617">
<ele>347</ele>
<time>2024-05-07T11:53:11Z</time>
</trkpt>
<trkpt lat="49.01384733617306" lon="9.664163533598185">
<ele>347</ele>
<time>2024-05-07T11:53:12Z</time>
</trkpt>
<trkpt lat="49.01386636309326" lon="9.664121624082329">
<ele>347</ele>
<time>2024-05-07T11:53:13Z</time>
</trkpt>
<trkpt lat="49.01388161815703" lon="9.664083402603865">
<ele>347.2</ele>
<time>2024-05-07T11:53:14Z</time>
</trkpt>
<trkpt lat="49.01390072889626" lon="9.664050042629242">
<ele>347.2</ele>
<time>2024-05-07T11:53:15Z</time>
</trkpt>
<trkpt lat="49.01391975581646" lon="9.66401475481689">
<ele>347.2</ele>
<time>2024-05-07T11:53:16Z</time>
</trkpt>
<trkpt lat="49.01394263841212" lon="9.663978544995189">
<ele>347.2</ele>
<time>2024-05-07T11:53:17Z</time>
</trkpt>
<trkpt lat="49.01396560482681" lon="9.663941329345109">
<ele>347.2</ele>
<time>2024-05-07T11:53:18Z</time>
</trkpt>
<trkpt lat="49.013988487422466" lon="9.663907047361135">
<ele>347.2</ele>
<time>2024-05-07T11:53:19Z</time>
</trkpt>
<trkpt lat="49.01401514187455" lon="9.663866981863976">
<ele>347.2</ele>
<time>2024-05-07T11:53:20Z</time>
</trkpt>
<trkpt lat="49.014045652002096" lon="9.663829766213894">
<ele>347.2</ele>
<time>2024-05-07T11:53:21Z</time>
</trkpt>
<trkpt lat="49.01407616212964" lon="9.663793556392193">
<ele>347.2</ele>
<time>2024-05-07T11:53:22Z</time>
</trkpt>
<trkpt lat="49.01410290040076" lon="9.663760112598538">
<ele>347.2</ele>
<time>2024-05-07T11:53:23Z</time>
</trkpt>
<trkpt lat="49.014129638671875" lon="9.663726752623916">
<ele>347.2</ele>
<time>2024-05-07T11:53:24Z</time>
</trkpt>
<trkpt lat="49.01416014879942" lon="9.663693392649291">
<ele>347.2</ele>
<time>2024-05-07T11:53:25Z</time>
</trkpt>
<trkpt lat="49.01418303139508" lon="9.66366003267467">
<ele>347.2</ele>
<time>2024-05-07T11:53:26Z</time>
</trkpt>
<trkpt lat="49.01421354152262" lon="9.663623739033936">
<ele>347.2</ele>
<time>2024-05-07T11:53:27Z</time>
</trkpt>
<trkpt lat="49.01424019597471" lon="9.663591384887695">
<ele>347.2</ele>
<time>2024-05-07T11:53:28Z</time>
</trkpt>
<trkpt lat="49.01427456177771" lon="9.663568418473004">
<ele>347.2</ele>
<time>2024-05-07T11:53:29Z</time>
</trkpt>
<trkpt lat="49.014308927580714" lon="9.663548469543455">
<ele>347.2</ele>
<time>2024-05-07T11:53:30Z</time>
</trkpt>
<trkpt lat="49.014347065240145" lon="9.66352365911007">
<ele>347.2</ele>
<time>2024-05-07T11:53:31Z</time>
</trkpt>
<trkpt lat="49.014385202899575" lon="9.663510248064997">
<ele>347.2</ele>
<time>2024-05-07T11:53:32Z</time>
</trkpt>
<trkpt lat="49.014423340559006" lon="9.663494993001224">
<ele>347.2</ele>
<time>2024-05-07T11:53:33Z</time>
</trkpt>
<trkpt lat="49.01446147821843" lon="9.66348166577518">
<ele>347.2</ele>
<time>2024-05-07T11:53:34Z</time>
</trkpt>
<trkpt lat="49.014503471553326" lon="9.663470266386868">
<ele>347.2</ele>
<time>2024-05-07T11:53:35Z</time>
</trkpt>
<trkpt lat="49.01454160921275" lon="9.66345970518887">
<ele>347.4</ele>
<time>2024-05-07T11:53:36Z</time>
</trkpt>
<trkpt lat="49.01457589119673" lon="9.663448305800555">
<ele>347.4</ele>
<time>2024-05-07T11:53:37Z</time>
</trkpt>
<trkpt lat="49.01461788453162" lon="9.663436822593212">
<ele>347.6</ele>
<time>2024-05-07T11:53:38Z</time>
</trkpt>
<trkpt lat="49.01465987786651" lon="9.663419723510742">
<ele>347.6</ele>
<time>2024-05-07T11:53:39Z</time>
</trkpt>
<trkpt lat="49.01470178738237" lon="9.66340539045632">
<ele>347.8</ele>
<time>2024-05-07T11:53:40Z</time>
</trkpt>
<trkpt lat="49.014743780717254" lon="9.663390135392548">
<ele>347.8</ele>
<time>2024-05-07T11:53:41Z</time>
</trkpt>
<trkpt lat="49.01478569023311" lon="9.663372952491043">
<ele>348</ele>
<time>2024-05-07T11:53:42Z</time>
</trkpt>
<trkpt lat="49.014827683568" lon="9.663351997733116">
<ele>348</ele>
<time>2024-05-07T11:53:43Z</time>
</trkpt>
<trkpt lat="49.01486967690289" lon="9.663321487605572">
<ele>348</ele>
<time>2024-05-07T11:53:44Z</time>
</trkpt>
<trkpt lat="49.01490781456232" lon="9.663293827325106">
<ele>348</ele>
<time>2024-05-07T11:53:45Z</time>
</trkpt>
<trkpt lat="49.01494972407818" lon="9.66326331719756">
<ele>348</ele>
<time>2024-05-07T11:53:46Z</time>
</trkpt>
<trkpt lat="49.01498408988118" lon="9.663227023556828">
<ele>348</ele>
<time>2024-05-07T11:53:47Z</time>
</trkpt>
<trkpt lat="49.01502222754061" lon="9.66318796388805">
<ele>347.8</ele>
<time>2024-05-07T11:53:48Z</time>
</trkpt>
<trkpt lat="49.015056593343616" lon="9.66314504854381">
<ele>347.8</ele>
<time>2024-05-07T11:53:49Z</time>
</trkpt>
<trkpt lat="49.015094731003046" lon="9.663100205361845">
<ele>347.8</ele>
<time>2024-05-07T11:53:50Z</time>
</trkpt>
<trkpt lat="49.01512524113059" lon="9.66304966248572">
<ele>347.6</ele>
<time>2024-05-07T11:53:51Z</time>
</trkpt>
<trkpt lat="49.01516337879002" lon="9.663002891466022">
<ele>347.6</ele>
<time>2024-05-07T11:53:52Z</time>
</trkpt>
<trkpt lat="49.015197744593024" lon="9.662953354418278">
<ele>347.6</ele>
<time>2024-05-07T11:53:53Z</time>
</trkpt>
<trkpt lat="49.01523202657699" lon="9.66290658339858">
<ele>347.4</ele>
<time>2024-05-07T11:53:54Z</time>
</trkpt>
<trkpt lat="49.015270164236426" lon="9.662857046350837">
<ele>347.4</ele>
<time>2024-05-07T11:53:55Z</time>
</trkpt>
<trkpt lat="49.01530067436397" lon="9.662806503474712">
<ele>347.4</ele>
<time>2024-05-07T11:53:56Z</time>
</trkpt>
<trkpt lat="49.01533126831055" lon="9.662756882607937">
<ele>347.4</ele>
<time>2024-05-07T11:53:57Z</time>
</trkpt>
<trkpt lat="49.01536177843809" lon="9.662706339731812">
<ele>347.4</ele>
<time>2024-05-07T11:53:58Z</time>
</trkpt>
<trkpt lat="49.01538843289018" lon="9.66265487484634">
<ele>347.4</ele>
<time>2024-05-07T11:53:59Z</time>
</trkpt>
<trkpt lat="49.01542279869318" lon="9.662605253979564">
<ele>347.4</ele>
<time>2024-05-07T11:54:00Z</time>
</trkpt>
<trkpt lat="49.015449453145266" lon="9.66255471110344">
<ele>347.4</ele>
<time>2024-05-07T11:54:01Z</time>
</trkpt>
<trkpt lat="49.01547996327281" lon="9.662501318380237">
<ele>347.4</ele>
<time>2024-05-07T11:54:02Z</time>
</trkpt>
<trkpt lat="49.01550670154393" lon="9.66245169751346">
<ele>347.4</ele>
<time>2024-05-07T11:54:03Z</time>
</trkpt>
<trkpt lat="49.01553721167147" lon="9.662400232627988">
<ele>347.4</ele>
<time>2024-05-07T11:54:04Z</time>
</trkpt>
<trkpt lat="49.015567721799016" lon="9.662349689751863">
<ele>347.4</ele>
<time>2024-05-07T11:54:05Z</time>
</trkpt>
<trkpt lat="49.01559823192656" lon="9.662300068885088">
<ele>347.4</ele>
<time>2024-05-07T11:54:06Z</time>
</trkpt>
<trkpt lat="49.015628742054105" lon="9.662248603999616">
<ele>347.4</ele>
<time>2024-05-07T11:54:07Z</time>
</trkpt>
<trkpt lat="49.01565925218165" lon="9.662202754989266">
<ele>347.4</ele>
<time>2024-05-07T11:54:08Z</time>
</trkpt>
<trkpt lat="49.015689846128225" lon="9.66215799562633">
<ele>347.6</ele>
<time>2024-05-07T11:54:09Z</time>
</trkpt>
<trkpt lat="49.01572035625577" lon="9.662113152444364">
<ele>347.6</ele>
<time>2024-05-07T11:54:10Z</time>
</trkpt>
<trkpt lat="49.015747010707855" lon="9.662070237100124">
<ele>347.8</ele>
<time>2024-05-07T11:54:11Z</time>
</trkpt>
<trkpt lat="49.01578137651086" lon="9.662031093612311">
<ele>347.8</ele>
<time>2024-05-07T11:54:12Z</time>
</trkpt>
<trkpt lat="49.0158118866384" lon="9.661990106105804">
<ele>347.8</ele>
<time>2024-05-07T11:54:13Z</time>
</trkpt>
<trkpt lat="49.01584239676595" lon="9.66194149106741">
<ele>348</ele>
<time>2024-05-07T11:54:14Z</time>
</trkpt>
<trkpt lat="49.01587676256895" lon="9.661896647885442">
<ele>348</ele>
<time>2024-05-07T11:54:15Z</time>
</trkpt>
<trkpt lat="49.01589964516461" lon="9.661845182999969">
<ele>348</ele>
<time>2024-05-07T11:54:16Z</time>
</trkpt>
<trkpt lat="49.01591867208481" lon="9.661798411980271">
<ele>348</ele>
<time>2024-05-07T11:54:17Z</time>
</trkpt>
<trkpt lat="49.01593778282404" lon="9.661747869104149">
<ele>348.2</ele>
<time>2024-05-07T11:54:18Z</time>
</trkpt>
<trkpt lat="49.01595680974424" lon="9.661698332056403">
<ele>348.2</ele>
<time>2024-05-07T11:54:19Z</time>
</trkpt>
<trkpt lat="49.0159796923399" lon="9.661653488874435">
<ele>348.2</ele>
<time>2024-05-07T11:54:20Z</time>
</trkpt>
<trkpt lat="49.016006430611014" lon="9.661613423377275">
<ele>348.4</ele>
<time>2024-05-07T11:54:21Z</time>
</trkpt>
<trkpt lat="49.01602931320667" lon="9.661566652357578">
<ele>348.4</ele>
<time>2024-05-07T11:54:22Z</time>
</trkpt>
<trkpt lat="49.01605605147779" lon="9.66152373701334">
<ele>348.6</ele>
<time>2024-05-07T11:54:23Z</time>
</trkpt>
<trkpt lat="49.016082705929875" lon="9.661479899659753">
<ele>348.6</ele>
<time>2024-05-07T11:54:24Z</time>
</trkpt>
<trkpt lat="49.01611321605742" lon="9.661437906324863">
<ele>348.8</ele>
<time>2024-05-07T11:54:25Z</time>
</trkpt>
<trkpt lat="49.01614372618496" lon="9.661397924646735">
<ele>348.8</ele>
<time>2024-05-07T11:54:26Z</time>
</trkpt>
<trkpt lat="49.01617046445608" lon="9.661359786987305">
<ele>349</ele>
<time>2024-05-07T11:54:27Z</time>
</trkpt>
<trkpt lat="49.016204830259085" lon="9.661319721490145">
<ele>349.2</ele>
<time>2024-05-07T11:54:28Z</time>
</trkpt>
<trkpt lat="49.016239112243056" lon="9.66128535568714">
<ele>349.2</ele>
<time>2024-05-07T11:54:29Z</time>
</trkpt>
<trkpt lat="49.01627347804606" lon="9.66125199571252">
<ele>349.4</ele>
<time>2024-05-07T11:54:30Z</time>
</trkpt>
<trkpt lat="49.01631161570549" lon="9.661219557747245">
<ele>349.6</ele>
<time>2024-05-07T11:54:31Z</time>
</trkpt>
<trkpt lat="49.01634589768946" lon="9.661192819476128">
<ele>349.8</ele>
<time>2024-05-07T11:54:32Z</time>
</trkpt>
<trkpt lat="49.01638411916792" lon="9.661168092861772">
<ele>350</ele>
<time>2024-05-07T11:54:33Z</time>
</trkpt>
<trkpt lat="49.016422256827354" lon="9.661146132275462">
<ele>350.2</ele>
<time>2024-05-07T11:54:34Z</time>
</trkpt>
<trkpt lat="49.016456538811326" lon="9.661125177517532">
<ele>350.4</ele>
<time>2024-05-07T11:54:35Z</time>
</trkpt>
<trkpt lat="49.016498532146215" lon="9.661105144768952">
<ele>350.6</ele>
<time>2024-05-07T11:54:36Z</time>
</trkpt>
<trkpt lat="49.016536669805646" lon="9.661087961867452">
<ele>350.6</ele>
<time>2024-05-07T11:54:37Z</time>
</trkpt>
<trkpt lat="49.01657480746507" lon="9.661073628813028">
<ele>350.8</ele>
<time>2024-05-07T11:54:38Z</time>
</trkpt>
<trkpt lat="49.01661294512451" lon="9.661061223596334">
<ele>350.8</ele>
<time>2024-05-07T11:54:39Z</time>
</trkpt>
<trkpt lat="49.01665108278394" lon="9.661047896370292">
<ele>350.8</ele>
<time>2024-05-07T11:54:40Z</time>
</trkpt>
<trkpt lat="49.01669307611883" lon="9.661036413162948">
<ele>350.8</ele>
<time>2024-05-07T11:54:41Z</time>
</trkpt>
<trkpt lat="49.01673121377826" lon="9.661025013774632">
<ele>350.8</ele>
<time>2024-05-07T11:54:42Z</time>
</trkpt>
<trkpt lat="49.01677320711315" lon="9.661014536395667">
<ele>350.8</ele>
<time>2024-05-07T11:54:43Z</time>
</trkpt>
<trkpt lat="49.016815116629004" lon="9.661006908863785">
<ele>350.8</ele>
<time>2024-05-07T11:54:44Z</time>
</trkpt>
<trkpt lat="49.01686088182032" lon="9.660995425656438">
<ele>350.8</ele>
<time>2024-05-07T11:54:45Z</time>
</trkpt>
<trkpt lat="49.01690673083067" lon="9.660986876115205">
<ele>350.8</ele>
<time>2024-05-07T11:54:46Z</time>
</trkpt>
<trkpt lat="49.016952496021986" lon="9.660976398736238">
<ele>350.8</ele>
<time>2024-05-07T11:54:47Z</time>
</trkpt>
<trkpt lat="49.0169982612133" lon="9.660968771204352">
<ele>350.6</ele>
<time>2024-05-07T11:54:48Z</time>
</trkpt>
<trkpt lat="49.017051653936505" lon="9.660958210006356">
<ele>350.6</ele>
<time>2024-05-07T11:54:49Z</time>
</trkpt>
<trkpt lat="49.01709741912782" lon="9.660944882780312">
<ele>350.6</ele>
<time>2024-05-07T11:54:50Z</time>
</trkpt>
<trkpt lat="49.0171470399946" lon="9.660928705707192">
<ele>350.6</ele>
<time>2024-05-07T11:54:51Z</time>
</trkpt>
<trkpt lat="49.01719657704234" lon="9.66091345064342">
<ele>350.4</ele>
<time>2024-05-07T11:54:52Z</time>
</trkpt>
<trkpt lat="49.01724619790912" lon="9.660902973264456">
<ele>350.4</ele>
<time>2024-05-07T11:54:53Z</time>
</trkpt>
<trkpt lat="49.01729196310043" lon="9.66088956221938">
<ele>350.2</ele>
<time>2024-05-07T11:54:54Z</time>
</trkpt>
<trkpt lat="49.01734535582363" lon="9.660882940515876">
<ele>350</ele>
<time>2024-05-07T11:54:55Z</time>
</trkpt>
<trkpt lat="49.01739497669041" lon="9.660880006849766">
<ele>350</ele>
<time>2024-05-07T11:54:56Z</time>
</trkpt>
<trkpt lat="49.01745222508907" lon="9.66087531298399">
<ele>349.8</ele>
<time>2024-05-07T11:54:57Z</time>
</trkpt>
<trkpt lat="49.01750176213682" lon="9.660868607461452">
<ele>349.8</ele>
<time>2024-05-07T11:54:58Z</time>
</trkpt>
<trkpt lat="49.01755515486002" lon="9.660860057920218">
<ele>349.8</ele>
<time>2024-05-07T11:54:59Z</time>
</trkpt>
<trkpt lat="49.017608631402254" lon="9.660848574712873">
<ele>349.6</ele>
<time>2024-05-07T11:55:00Z</time>
</trkpt>
<trkpt lat="49.01766202412546" lon="9.66083616949618">
<ele>349.6</ele>
<time>2024-05-07T11:55:01Z</time>
</trkpt>
<trkpt lat="49.01771541684866" lon="9.660824770107864">
<ele>349.4</ele>
<time>2024-05-07T11:55:02Z</time>
</trkpt>
<trkpt lat="49.01776880957186" lon="9.66081521473825">
<ele>349.2</ele>
<time>2024-05-07T11:55:03Z</time>
</trkpt>
<trkpt lat="49.01781843043864" lon="9.660802809521556">
<ele>349.2</ele>
<time>2024-05-07T11:55:04Z</time>
</trkpt>
<trkpt lat="49.01787182316184" lon="9.660790404304862">
<ele>349.2</ele>
<time>2024-05-07T11:55:05Z</time>
</trkpt>
<trkpt lat="49.01791758835316" lon="9.660779926925898">
<ele>349</ele>
<time>2024-05-07T11:55:06Z</time>
</trkpt>
<trkpt lat="49.017963353544474" lon="9.66077322140336">
<ele>349</ele>
<time>2024-05-07T11:55:07Z</time>
</trkpt>
<trkpt lat="49.01800534687936" lon="9.660761822015049">
<ele>349</ele>
<time>2024-05-07T11:55:08Z</time>
</trkpt>
<trkpt lat="49.01804725639522" lon="9.66075318865478">
<ele>349</ele>
<time>2024-05-07T11:55:09Z</time>
</trkpt>
<trkpt lat="49.01809310540557" lon="9.660743633285165">
<ele>349</ele>
<time>2024-05-07T11:55:10Z</time>
</trkpt>
<trkpt lat="49.01813501492143" lon="9.6607331559062">
<ele>349</ele>
<time>2024-05-07T11:55:11Z</time>
</trkpt>
<trkpt lat="49.01817700825632" lon="9.660723684355617">
<ele>349</ele>
<time>2024-05-07T11:55:12Z</time>
</trkpt>
<trkpt lat="49.018218917772174" lon="9.66071312315762">
<ele>349</ele>
<time>2024-05-07T11:55:13Z</time>
</trkpt>
<trkpt lat="49.01826476678252" lon="9.660701723769307">
<ele>349</ele>
<time>2024-05-07T11:55:14Z</time>
</trkpt>
<trkpt lat="49.01830667629838" lon="9.660683618858457">
<ele>349</ele>
<time>2024-05-07T11:55:15Z</time>
</trkpt>
<trkpt lat="49.01834104210138" lon="9.660663586109877">
<ele>349</ele>
<time>2024-05-07T11:55:16Z</time>
</trkpt>
<trkpt lat="49.01837155222893" lon="9.660633075982332">
<ele>349</ele>
<time>2024-05-07T11:55:17Z</time>
</trkpt>
<trkpt lat="49.01839820668101" lon="9.660601560026407">
<ele>349</ele>
<time>2024-05-07T11:55:18Z</time>
</trkpt>
<trkpt lat="49.0184211730957" lon="9.660563422366977">
<ele>348.8</ele>
<time>2024-05-07T11:55:19Z</time>
</trkpt>
<trkpt lat="49.0184402000159" lon="9.660523356869817">
<ele>348.8</ele>
<time>2024-05-07T11:55:20Z</time>
</trkpt>
<trkpt lat="49.01846308261156" lon="9.660483291372657">
<ele>348.6</ele>
<time>2024-05-07T11:55:21Z</time>
</trkpt>
<trkpt lat="49.01848982088268" lon="9.660449931398034">
<ele>348.6</ele>
<time>2024-05-07T11:55:22Z</time>
</trkpt>
<trkpt lat="49.01852410286665" lon="9.660429898649454">
<ele>348.4</ele>
<time>2024-05-07T11:55:23Z</time>
</trkpt>
<trkpt lat="49.01855846866965" lon="9.660427970811725">
<ele>348.4</ele>
<time>2024-05-07T11:55:24Z</time>
</trkpt>
<trkpt lat="49.0185889787972" lon="9.660433754324911">
<ele>348.4</ele>
<time>2024-05-07T11:55:25Z</time>
</trkpt>
<trkpt lat="49.0186233446002" lon="9.66043853200972">
<ele>348.2</ele>
<time>2024-05-07T11:55:26Z</time>
</trkpt>
<trkpt lat="49.018653854727745" lon="9.660445153713226">
<ele>348.2</ele>
<time>2024-05-07T11:55:27Z</time>
</trkpt>
<trkpt lat="49.01868050917983" lon="9.660449931398034">
<ele>348.2</ele>
<time>2024-05-07T11:55:28Z</time>
</trkpt>
<trkpt lat="49.01870724745095" lon="9.660449931398034">
<ele>348.2</ele>
<time>2024-05-07T11:55:29Z</time>
</trkpt>
<trkpt lat="49.018730130046606" lon="9.66046141460538">
<ele>348.2</ele>
<time>2024-05-07T11:55:30Z</time>
</trkpt>
<trkpt lat="49.01874538511038" lon="9.660480441525578">
<ele>348.2</ele>
<time>2024-05-07T11:55:31Z</time>
</trkpt>
<trkpt lat="49.01875678449869" lon="9.660498546436427">
<ele>348.2</ele>
<time>2024-05-07T11:55:32Z</time>
</trkpt>
<trkpt lat="49.018772123381495" lon="9.66051958501339">
<ele>348</ele>
<time>2024-05-07T11:55:33Z</time>
</trkpt>
<trkpt lat="49.018791150301695" lon="9.660538611933587">
<ele>348</ele>
<time>2024-05-07T11:55:34Z</time>
</trkpt>
<trkpt lat="49.01880640536547" lon="9.660548167303205">
<ele>348</ele>
<time>2024-05-07T11:55:35Z</time>
</trkpt>
<trkpt lat="49.0188255161047" lon="9.660554872825742">
<ele>348</ele>
<time>2024-05-07T11:55:36Z</time>
</trkpt>
<trkpt lat="49.01884839870036" lon="9.660554872825742">
<ele>348</ele>
<time>2024-05-07T11:55:37Z</time>
</trkpt>
<trkpt lat="49.01886742562056" lon="9.660552944988012">
<ele>348</ele>
<time>2024-05-07T11:55:38Z</time>
</trkpt>
<trkpt lat="49.01888268068433" lon="9.660552944988012">
<ele>348.2</ele>
<time>2024-05-07T11:55:39Z</time>
</trkpt>
<trkpt lat="49.01889416389167" lon="9.660552944988012">
<ele>348.2</ele>
<time>2024-05-07T11:55:40Z</time>
</trkpt>
<trkpt lat="49.0188979357481" lon="9.660558644682167">
<ele>348.4</ele>
<time>2024-05-07T11:55:41Z</time>
</trkpt>
<trkpt lat="49.0188979357481" lon="9.66055965051055">
<ele>348.6</ele>
<time>2024-05-07T11:55:42Z</time>
</trkpt>
<trkpt lat="49.01890179142356" lon="9.66055965051055">
<ele>348.6</ele>
<time>2024-05-07T11:55:43Z</time>
</trkpt>
<trkpt lat="49.018905563279986" lon="9.66055671684444">
<ele>348.6</ele>
<time>2024-05-07T11:55:45Z</time>
</trkpt>
<trkpt lat="49.018905563279986" lon="9.660554872825742">
<ele>348.6</ele>
<time>2024-05-07T11:55:46Z</time>
</trkpt>
<trkpt lat="49.01891319081187" lon="9.66055671684444">
<ele>348.6</ele>
<time>2024-05-07T11:55:49Z</time>
</trkpt>
<trkpt lat="49.01891704648733" lon="9.660558644682167">
<ele>348.8</ele>
<time>2024-05-07T11:55:51Z</time>
</trkpt>
<trkpt lat="49.01892081834376" lon="9.66055965051055">
<ele>348.8</ele>
<time>2024-05-07T11:55:54Z</time>
</trkpt>
<trkpt lat="49.01892081834376" lon="9.660558644682167">
<ele>348.8</ele>
<time>2024-05-07T11:55:58Z</time>
</trkpt>
<trkpt lat="49.01892081834376" lon="9.66055965051055">
<ele>349</ele>
<time>2024-05-07T11:55:59Z</time>
</trkpt>
<trkpt lat="49.01892081834376" lon="9.66055671684444">
<ele>349</ele>
<time>2024-05-07T11:56:08Z</time>
</trkpt>
<trkpt lat="49.01892467401922" lon="9.66055671684444">
<ele>349</ele>
<time>2024-05-07T11:56:09Z</time>
</trkpt>
<trkpt lat="49.018932301551104" lon="9.66055671684444">
<ele>349</ele>
<time>2024-05-07T11:56:12Z</time>
</trkpt>
<trkpt lat="49.01893992908299" lon="9.660558644682167">
<ele>349.2</ele>
<time>2024-05-07T11:56:13Z</time>
</trkpt>
<trkpt lat="49.01895518414676" lon="9.66055965051055">
<ele>349.2</ele>
<time>2024-05-07T11:56:14Z</time>
</trkpt>
<trkpt lat="49.01896666735411" lon="9.660558644682167">
<ele>349.2</ele>
<time>2024-05-07T11:56:15Z</time>
</trkpt>
<trkpt lat="49.01897806674242" lon="9.66055671684444">
<ele>349.2</ele>
<time>2024-05-07T11:56:16Z</time>
</trkpt>
<trkpt lat="49.01899332180619" lon="9.660554872825742">
<ele>349.2</ele>
<time>2024-05-07T11:56:17Z</time>
</trkpt>
<trkpt lat="49.01901243254542" lon="9.660554872825742">
<ele>349.2</ele>
<time>2024-05-07T11:56:18Z</time>
</trkpt>
<trkpt lat="49.0190276876092" lon="9.660558644682167">
<ele>349</ele>
<time>2024-05-07T11:56:19Z</time>
</trkpt>
<trkpt lat="49.01904294267297" lon="9.66055965051055">
<ele>349</ele>
<time>2024-05-07T11:56:20Z</time>
</trkpt>
<trkpt lat="49.01905819773674" lon="9.660558644682167">
<ele>348.8</ele>
<time>2024-05-07T11:56:21Z</time>
</trkpt>
<trkpt lat="49.01907345280051" lon="9.66055671684444">
<ele>348.8</ele>
<time>2024-05-07T11:56:22Z</time>
</trkpt>
<trkpt lat="49.01909633539617" lon="9.66055671684444">
<ele>348.6</ele>
<time>2024-05-07T11:56:23Z</time>
</trkpt>
<trkpt lat="49.01911159045994" lon="9.66055671684444">
<ele>348.6</ele>
<time>2024-05-07T11:56:24Z</time>
</trkpt>
<trkpt lat="49.0191344730556" lon="9.66055965051055">
<ele>348.6</ele>
<time>2024-05-07T11:56:25Z</time>
</trkpt>
<trkpt lat="49.01915735565126" lon="9.66055965051055">
<ele>348.6</ele>
<time>2024-05-07T11:56:26Z</time>
</trkpt>
<trkpt lat="49.01918023824692" lon="9.66055965051055">
<ele>348.6</ele>
<time>2024-05-07T11:56:27Z</time>
</trkpt>
<trkpt lat="49.019203120842576" lon="9.660558644682167">
<ele>348.8</ele>
<time>2024-05-07T11:56:28Z</time>
</trkpt>
<trkpt lat="49.01922223158181" lon="9.660558644682167">
<ele>348.8</ele>
<time>2024-05-07T11:56:29Z</time>
</trkpt>
<trkpt lat="49.01924125850201" lon="9.66055965051055">
<ele>348.8</ele>
<time>2024-05-07T11:56:30Z</time>
</trkpt>
<trkpt lat="49.01925651356578" lon="9.66055965051055">
<ele>348.8</ele>
<time>2024-05-07T11:56:31Z</time>
</trkpt>
<trkpt lat="49.01927176862955" lon="9.66055671684444">
<ele>349</ele>
<time>2024-05-07T11:56:32Z</time>
</trkpt>
<trkpt lat="49.01927947998047" lon="9.66055671684444">
<ele>349</ele>
<time>2024-05-07T11:56:33Z</time>
</trkpt>
<trkpt lat="49.01927947998047" lon="9.660558644682167">
<ele>349</ele>
<time>2024-05-07T11:56:34Z</time>
</trkpt>
<trkpt lat="49.01927947998047" lon="9.660554872825742">
<ele>349</ele>
<time>2024-05-07T11:56:35Z</time>
</trkpt>
<trkpt lat="49.019283251836896" lon="9.660554872825742">
<ele>348.8</ele>
<time>2024-05-07T11:56:36Z</time>
</trkpt>
<trkpt lat="49.019283251836896" lon="9.66055671684444">
<ele>348.8</ele>
<time>2024-05-07T11:56:37Z</time>
</trkpt>
<trkpt lat="49.019283251836896" lon="9.660554872825742">
<ele>348.8</ele>
<time>2024-05-07T11:56:40Z</time>
</trkpt>
<trkpt lat="49.019283251836896" lon="9.660552944988012">
<ele>348.8</ele>
<time>2024-05-07T11:56:41Z</time>
</trkpt>
<trkpt lat="49.019283251836896" lon="9.660552022978663">
<ele>348.8</ele>
<time>2024-05-07T11:56:43Z</time>
</trkpt>
<trkpt lat="49.019283251836896" lon="9.660550095140934">
<ele>348.8</ele>
<time>2024-05-07T11:56:45Z</time>
</trkpt>
<trkpt lat="49.019283251836896" lon="9.660548167303205">
<ele>348.8</ele>
<time>2024-05-07T11:56:48Z</time>
</trkpt>
<trkpt lat="49.019283251836896" lon="9.660546239465477">
<ele>348.8</ele>
<time>2024-05-07T11:56:50Z</time>
</trkpt>
<trkpt lat="49.019283251836896" lon="9.660545317456126">
<ele>349</ele>
<time>2024-05-07T11:56:53Z</time>
</trkpt>
<trkpt lat="49.019283251836896" lon="9.660543389618397">
<ele>349</ele>
<time>2024-05-07T11:56:56Z</time>
</trkpt>
<trkpt lat="49.019283251836896" lon="9.660541461780667">
<ele>349</ele>
<time>2024-05-07T11:57:04Z</time>
</trkpt>
<trkpt lat="49.019283251836896" lon="9.660543389618397">
<ele>349</ele>
<time>2024-05-07T11:57:18Z</time>
</trkpt>
<trkpt lat="49.019283251836896" lon="9.660545317456126">
<ele>349</ele>
<time>2024-05-07T11:57:25Z</time>
</trkpt>
<trkpt lat="49.019283251836896" lon="9.660546239465477">
<ele>349</ele>
<time>2024-05-07T11:57:30Z</time>
</trkpt>
<trkpt lat="49.019283251836896" lon="9.660548167303205">
<ele>349</ele>
<time>2024-05-07T11:57:35Z</time>
</trkpt>
<trkpt lat="49.019283251836896" lon="9.660550095140934">
<ele>349</ele>
<time>2024-05-07T11:57:39Z</time>
</trkpt>
<trkpt lat="49.01927947998047" lon="9.660550095140934">
<ele>349</ele>
<time>2024-05-07T11:57:49Z</time>
</trkpt>
<trkpt lat="49.01927947998047" lon="9.660552022978663">
<ele>349</ele>
<time>2024-05-07T11:57:59Z</time>
</trkpt>
<trkpt lat="49.01927947998047" lon="9.660552944988012">
<ele>349</ele>
<time>2024-05-07T11:58:10Z</time>
</trkpt>
<trkpt lat="49.01927562430501" lon="9.660552944988012">
<ele>348.8</ele>
<time>2024-05-07T11:58:11Z</time>
</trkpt>
<trkpt lat="49.01927562430501" lon="9.660554872825742">
<ele>348.8</ele>
<time>2024-05-07T11:58:13Z</time>
</trkpt>
<trkpt lat="49.01927562430501" lon="9.66055671684444">
<ele>348.8</ele>
<time>2024-05-07T11:58:27Z</time>
</trkpt>
<trkpt lat="49.01927562430501" lon="9.660558644682167">
<ele>348.8</ele>
<time>2024-05-07T11:58:39Z</time>
</trkpt>
<trkpt lat="49.01927562430501" lon="9.66055965051055">
<ele>348.8</ele>
<time>2024-05-07T11:58:45Z</time>
</trkpt>
<trkpt lat="49.01927562430501" lon="9.660561494529247">
<ele>348.8</ele>
<time>2024-05-07T11:58:48Z</time>
</trkpt>
<trkpt lat="49.01927562430501" lon="9.66055965051055">
<ele>348.8</ele>
<time>2024-05-07T11:58:51Z</time>
</trkpt>
<trkpt lat="49.01927562430501" lon="9.660561494529247">
<ele>348.8</ele>
<time>2024-05-07T11:58:52Z</time>
</trkpt>
<trkpt lat="49.01927176862955" lon="9.660561494529247">
<ele>348.8</ele>
<time>2024-05-07T11:58:53Z</time>
</trkpt>
<trkpt lat="49.01927176862955" lon="9.66055965051055">
<ele>348.8</ele>
<time>2024-05-07T11:58:54Z</time>
</trkpt>
<trkpt lat="49.01927176862955" lon="9.660558644682167">
<ele>348.8</ele>
<time>2024-05-07T11:58:55Z</time>
</trkpt>
<trkpt lat="49.01927562430501" lon="9.66055965051055">
<ele>348.6</ele>
<time>2024-05-07T11:58:56Z</time>
</trkpt>
<trkpt lat="49.01927562430501" lon="9.660558644682167">
<ele>348.6</ele>
<time>2024-05-07T11:58:58Z</time>
</trkpt>
<trkpt lat="49.01927176862955" lon="9.660558644682167">
<ele>348.6</ele>
<time>2024-05-07T11:58:59Z</time>
</trkpt>
<trkpt lat="49.01927176862955" lon="9.66055671684444">
<ele>348.6</ele>
<time>2024-05-07T11:59:11Z</time>
</trkpt>
<trkpt lat="49.01927562430501" lon="9.660558644682167">
<ele>348.6</ele>
<time>2024-05-07T11:59:21Z</time>
</trkpt>
<trkpt lat="49.01927562430501" lon="9.66055965051055">
<ele>348.6</ele>
<time>2024-05-07T11:59:27Z</time>
</trkpt>
<trkpt lat="49.01927562430501" lon="9.660561494529247">
<ele>348.6</ele>
<time>2024-05-07T11:59:34Z</time>
</trkpt>
<trkpt lat="49.01927562430501" lon="9.66055965051055">
<ele>348.6</ele>
<time>2024-05-07T11:59:36Z</time>
</trkpt>
<trkpt lat="49.01927562430501" lon="9.660561494529247">
<ele>348.6</ele>
<time>2024-05-07T11:59:37Z</time>
</trkpt>
<trkpt lat="49.01927562430501" lon="9.660563422366977">
<ele>348.6</ele>
<time>2024-05-07T11:59:39Z</time>
</trkpt>
<trkpt lat="49.01927562430501" lon="9.660565350204706">
<ele>348.6</ele>
<time>2024-05-07T11:59:44Z</time>
</trkpt>
<trkpt lat="49.01927947998047" lon="9.660565350204706">
<ele>348.6</ele>
<time>2024-05-07T11:59:46Z</time>
</trkpt>
<trkpt lat="49.01927947998047" lon="9.660566272214057">
<ele>348.6</ele>
<time>2024-05-07T11:59:48Z</time>
</trkpt>
<trkpt lat="49.01927562430501" lon="9.660566272214057">
<ele>348.6</ele>
<time>2024-05-07T11:59:51Z</time>
</trkpt>
<trkpt lat="49.01927562430501" lon="9.660563422366977">
<ele>348.6</ele>
<time>2024-05-07T11:59:55Z</time>
</trkpt>
<trkpt lat="49.01927176862955" lon="9.660563422366977">
<ele>348.8</ele>
<time>2024-05-07T11:59:56Z</time>
</trkpt>
<trkpt lat="49.01927176862955" lon="9.660561494529247">
<ele>348.8</ele>
<time>2024-05-07T11:59:58Z</time>
</trkpt>
<trkpt lat="49.01927947998047" lon="9.660570127889514">
<ele>349</ele>
<time>2024-05-07T11:59:59Z</time>
</trkpt>
<trkpt lat="49.019287107512355" lon="9.66057674959302">
<ele>349</ele>
<time>2024-05-07T12:00:00Z</time>
</trkpt>
<trkpt lat="49.01929850690067" lon="9.660581527277827">
<ele>349.2</ele>
<time>2024-05-07T12:00:01Z</time>
</trkpt>
<trkpt lat="49.019306134432554" lon="9.660585382953286">
<ele>349.2</ele>
<time>2024-05-07T12:00:02Z</time>
</trkpt>
<trkpt lat="49.019321389496326" lon="9.660583455115557">
<ele>349.2</ele>
<time>2024-05-07T12:00:03Z</time>
</trkpt>
<trkpt lat="49.0193366445601" lon="9.660581527277827">
<ele>349.2</ele>
<time>2024-05-07T12:00:04Z</time>
</trkpt>
<trkpt lat="49.01935189962387" lon="9.660581527277827">
<ele>349.2</ele>
<time>2024-05-07T12:00:05Z</time>
</trkpt>
<trkpt lat="49.0193710103631" lon="9.660583455115557">
<ele>349.2</ele>
<time>2024-05-07T12:00:06Z</time>
</trkpt>
<trkpt lat="49.019386265426874" lon="9.660586304962637">
<ele>349.2</ele>
<time>2024-05-07T12:00:07Z</time>
</trkpt>
<trkpt lat="49.019401520490646" lon="9.660593010485172">
<ele>349</ele>
<time>2024-05-07T12:00:08Z</time>
</trkpt>
<trkpt lat="49.01941677555442" lon="9.660594938322902">
<ele>348.8</ele>
<time>2024-05-07T12:00:09Z</time>
</trkpt>
<trkpt lat="49.01943580247462" lon="9.660594938322902">
<ele>348.8</ele>
<time>2024-05-07T12:00:10Z</time>
</trkpt>
<trkpt lat="49.01945491321385" lon="9.660593010485172">
<ele>348.6</ele>
<time>2024-05-07T12:00:11Z</time>
</trkpt>
<trkpt lat="49.01947016827762" lon="9.660594938322902">
<ele>348.6</ele>
<time>2024-05-07T12:00:12Z</time>
</trkpt>
<trkpt lat="49.01949305087328" lon="9.660594938322902">
<ele>348.6</ele>
<time>2024-05-07T12:00:13Z</time>
</trkpt>
<trkpt lat="49.0195197891444" lon="9.660594938322902">
<ele>348.6</ele>
<time>2024-05-07T12:00:14Z</time>
</trkpt>
<trkpt lat="49.019542671740055" lon="9.6605967823416">
<ele>348.6</ele>
<time>2024-05-07T12:00:15Z</time>
</trkpt>
<trkpt lat="49.01956555433571" lon="9.660594938322902">
<ele>348.6</ele>
<time>2024-05-07T12:00:16Z</time>
</trkpt>
<trkpt lat="49.01958843693137" lon="9.660594938322902">
<ele>348.4</ele>
<time>2024-05-07T12:00:17Z</time>
</trkpt>
<trkpt lat="49.01961131952703" lon="9.660592004656792">
<ele>348.4</ele>
<time>2024-05-07T12:00:18Z</time>
</trkpt>
<trkpt lat="49.01963043026626" lon="9.660590160638094">
<ele>348.4</ele>
<time>2024-05-07T12:00:19Z</time>
</trkpt>
<trkpt lat="49.01965331286192" lon="9.660588232800364">
<ele>348.4</ele>
<time>2024-05-07T12:00:20Z</time>
</trkpt>
<trkpt lat="49.01967619545758" lon="9.660585382953286">
<ele>348.4</ele>
<time>2024-05-07T12:00:21Z</time>
</trkpt>
<trkpt lat="49.01970284990966" lon="9.660585382953286">
<ele>348.4</ele>
<time>2024-05-07T12:00:22Z</time>
</trkpt>
<trkpt lat="49.01972573250532" lon="9.660581527277827">
<ele>348.4</ele>
<time>2024-05-07T12:00:23Z</time>
</trkpt>
<trkpt lat="49.01975247077644" lon="9.660579599440098">
<ele>348.4</ele>
<time>2024-05-07T12:00:24Z</time>
</trkpt>
<trkpt lat="49.01977912522853" lon="9.66057674959302">
<ele>348.4</ele>
<time>2024-05-07T12:00:25Z</time>
</trkpt>
<trkpt lat="49.0198097191751" lon="9.660570127889514">
<ele>348.4</ele>
<time>2024-05-07T12:00:26Z</time>
</trkpt>
<trkpt lat="49.01984785683453" lon="9.66055965051055">
<ele>348.4</ele>
<time>2024-05-07T12:00:27Z</time>
</trkpt>
<trkpt lat="49.0198821388185" lon="9.660558644682167">
<ele>348.4</ele>
<time>2024-05-07T12:00:28Z</time>
</trkpt>
<trkpt lat="49.019916504621506" lon="9.66055965051055">
<ele>348.4</ele>
<time>2024-05-07T12:00:29Z</time>
</trkpt>
<trkpt lat="49.019954642280936" lon="9.660554872825742">
<ele>348.4</ele>
<time>2024-05-07T12:00:30Z</time>
</trkpt>
<trkpt lat="49.01998900808394" lon="9.660543389618397">
<ele>348.4</ele>
<time>2024-05-07T12:00:31Z</time>
</trkpt>
<trkpt lat="49.02002329006791" lon="9.660532912239432">
<ele>348.4</ele>
<time>2024-05-07T12:00:32Z</time>
</trkpt>
<trkpt lat="49.020053800195456" lon="9.660525284707546">
<ele>348.4</ele>
<time>2024-05-07T12:00:33Z</time>
</trkpt>
<trkpt lat="49.02008816599846" lon="9.660518579185007">
<ele>348.4</ele>
<time>2024-05-07T12:00:34Z</time>
</trkpt>
<trkpt lat="49.02012630365789" lon="9.660510029643774">
<ele>348.4</ele>
<time>2024-05-07T12:00:35Z</time>
</trkpt>
<trkpt lat="49.02016444131732" lon="9.66050148010254">
<ele>348.4</ele>
<time>2024-05-07T12:00:36Z</time>
</trkpt>
<trkpt lat="49.02019880712032" lon="9.660496702417731">
<ele>348.4</ele>
<time>2024-05-07T12:00:37Z</time>
</trkpt>
<trkpt lat="49.020233089104295" lon="9.660489996895194">
<ele>348.4</ele>
<time>2024-05-07T12:00:38Z</time>
</trkpt>
<trkpt lat="49.020271226763725" lon="9.660483291372657">
<ele>348.4</ele>
<time>2024-05-07T12:00:39Z</time>
</trkpt>
<trkpt lat="49.02030559256673" lon="9.660472813993692">
<ele>348.6</ele>
<time>2024-05-07T12:00:40Z</time>
</trkpt>
<trkpt lat="49.02033995836973" lon="9.660463258624077">
<ele>348.6</ele>
<time>2024-05-07T12:00:41Z</time>
</trkpt>
<trkpt lat="49.02037809602916" lon="9.660453787073491">
<ele>348.8</ele>
<time>2024-05-07T12:00:42Z</time>
</trkpt>
<trkpt lat="49.02041623368859" lon="9.6604413818568">
<ele>348.8</ele>
<time>2024-05-07T12:00:43Z</time>
</trkpt>
<trkpt lat="49.02045437134802" lon="9.660429898649454">
<ele>349</ele>
<time>2024-05-07T12:00:44Z</time>
</trkpt>
<trkpt lat="49.02048873715103" lon="9.66042034327984">
<ele>349</ele>
<time>2024-05-07T12:00:45Z</time>
</trkpt>
<trkpt lat="49.02052687481046" lon="9.660407016053796">
<ele>349</ele>
<time>2024-05-07T12:00:46Z</time>
</trkpt>
<trkpt lat="49.02056115679443" lon="9.660394610837102">
<ele>349.2</ele>
<time>2024-05-07T12:00:47Z</time>
</trkpt>
<trkpt lat="49.02059552259743" lon="9.66038128361106">
<ele>349.2</ele>
<time>2024-05-07T12:00:48Z</time>
</trkpt>
<trkpt lat="49.02062980458141" lon="9.660366950556636">
<ele>349.2</ele>
<time>2024-05-07T12:00:49Z</time>
</trkpt>
<trkpt lat="49.020668026059866" lon="9.660351695492864">
<ele>349.4</ele>
<time>2024-05-07T12:00:50Z</time>
</trkpt>
<trkpt lat="49.02070230804384" lon="9.660334512591362">
<ele>349.4</ele>
<time>2024-05-07T12:00:51Z</time>
</trkpt>
<trkpt lat="49.02073667384684" lon="9.66032118536532">
<ele>349.4</ele>
<time>2024-05-07T12:00:52Z</time>
</trkpt>
<trkpt lat="49.020767183974385" lon="9.660308780148624">
<ele>349.4</ele>
<time>2024-05-07T12:00:53Z</time>
</trkpt>
<trkpt lat="49.02080146595836" lon="9.660295452922584">
<ele>349.4</ele>
<time>2024-05-07T12:00:54Z</time>
</trkpt>
<trkpt lat="49.02083205990493" lon="9.66028019785881">
<ele>349.4</ele>
<time>2024-05-07T12:00:55Z</time>
</trkpt>
<trkpt lat="49.020866341888905" lon="9.660266870632768">
<ele>349.4</ele>
<time>2024-05-07T12:00:56Z</time>
</trkpt>
<trkpt lat="49.02089685201645" lon="9.660253459587691">
<ele>349.4</ele>
<time>2024-05-07T12:00:57Z</time>
</trkpt>
<trkpt lat="49.02093121781945" lon="9.66024013236165">
<ele>349.4</ele>
<time>2024-05-07T12:00:58Z</time>
</trkpt>
<trkpt lat="49.020961727947" lon="9.660228649154304">
<ele>349.4</ele>
<time>2024-05-07T12:00:59Z</time>
</trkpt>
<trkpt lat="49.02099609375" lon="9.66021817177534">
<ele>349.4</ele>
<time>2024-05-07T12:01:00Z</time>
</trkpt>
<trkpt lat="49.021026603877544" lon="9.660202916711569">
<ele>349.4</ele>
<time>2024-05-07T12:01:01Z</time>
</trkpt>
<trkpt lat="49.02106088586152" lon="9.660189589485526">
<ele>349.4</ele>
<time>2024-05-07T12:01:02Z</time>
</trkpt>
<trkpt lat="49.02109139598906" lon="9.66017810627818">
<ele>349.4</ele>
<time>2024-05-07T12:01:03Z</time>
</trkpt>
<trkpt lat="49.021121906116605" lon="9.660164779052138">
<ele>349.4</ele>
<time>2024-05-07T12:01:04Z</time>
</trkpt>
<trkpt lat="49.02115627191961" lon="9.660151451826096">
<ele>349.4</ele>
<time>2024-05-07T12:01:05Z</time>
</trkpt>
<trkpt lat="49.02119063772261" lon="9.660138124600053">
<ele>349.4</ele>
<time>2024-05-07T12:01:06Z</time>
</trkpt>
<trkpt lat="49.02122491970658" lon="9.660124713554978">
<ele>349.4</ele>
<time>2024-05-07T12:01:07Z</time>
</trkpt>
<trkpt lat="49.02125542983413" lon="9.660113314166663">
<ele>349.4</ele>
<time>2024-05-07T12:01:08Z</time>
</trkpt>
<trkpt lat="49.02128979563713" lon="9.6601028367877">
<ele>349.4</ele>
<time>2024-05-07T12:01:09Z</time>
</trkpt>
<trkpt lat="49.0213240776211" lon="9.660093281418083">
<ele>349.4</ele>
<time>2024-05-07T12:01:10Z</time>
</trkpt>
<trkpt lat="49.021358443424106" lon="9.66008179821074">
<ele>349.4</ele>
<time>2024-05-07T12:01:11Z</time>
</trkpt>
<trkpt lat="49.021396581083536" lon="9.660066543146968">
<ele>349.4</ele>
<time>2024-05-07T12:01:12Z</time>
</trkpt>
<trkpt lat="49.02143094688654" lon="9.660051288083196">
<ele>349.4</ele>
<time>2024-05-07T12:01:13Z</time>
</trkpt>
<trkpt lat="49.02146908454597" lon="9.660037960857151">
<ele>349.4</ele>
<time>2024-05-07T12:01:14Z</time>
</trkpt>
<trkpt lat="49.02150336652994" lon="9.66002463363111">
<ele>349.4</ele>
<time>2024-05-07T12:01:15Z</time>
</trkpt>
<trkpt lat="49.021537732332945" lon="9.660013150423763">
<ele>349.4</ele>
<time>2024-05-07T12:01:16Z</time>
</trkpt>
<trkpt lat="49.02157209813595" lon="9.66000359505415">
<ele>349.4</ele>
<time>2024-05-07T12:01:17Z</time>
</trkpt>
<trkpt lat="49.02160638011992" lon="9.659990267828109">
<ele>349.4</ele>
<time>2024-05-07T12:01:18Z</time>
</trkpt>
<trkpt lat="49.02164074592292" lon="9.659975012764336">
<ele>349.4</ele>
<time>2024-05-07T12:01:19Z</time>
</trkpt>
<trkpt lat="49.021678883582354" lon="9.659959757700562">
<ele>349.4</ele>
<time>2024-05-07T12:01:20Z</time>
</trkpt>
<trkpt lat="49.02171324938536" lon="9.659948274493216">
<ele>349.4</ele>
<time>2024-05-07T12:01:21Z</time>
</trkpt>
<trkpt lat="49.02175138704479" lon="9.659934947267176">
<ele>349.4</ele>
<time>2024-05-07T12:01:22Z</time>
</trkpt>
<trkpt lat="49.02178952470422" lon="9.659921620041132">
<ele>349.4</ele>
<time>2024-05-07T12:01:23Z</time>
</trkpt>
<trkpt lat="49.02182380668819" lon="9.65990535914898">
<ele>349.6</ele>
<time>2024-05-07T12:01:24Z</time>
</trkpt>
<trkpt lat="49.02186202816665" lon="9.65988826006651">
<ele>349.6</ele>
<time>2024-05-07T12:01:25Z</time>
</trkpt>
<trkpt lat="49.02190016582608" lon="9.659871999174356">
<ele>349.8</ele>
<time>2024-05-07T12:01:26Z</time>
</trkpt>
<trkpt lat="49.02193830348551" lon="9.659854816272857">
<ele>349.8</ele>
<time>2024-05-07T12:01:27Z</time>
</trkpt>
<trkpt lat="49.02197644114494" lon="9.659834783524277">
<ele>349.8</ele>
<time>2024-05-07T12:01:28Z</time>
</trkpt>
<trkpt lat="49.022010723128915" lon="9.659814834594728">
<ele>349.8</ele>
<time>2024-05-07T12:01:29Z</time>
</trkpt>
<trkpt lat="49.02204894460738" lon="9.659796645864844">
<ele>350</ele>
<time>2024-05-07T12:01:30Z</time>
</trkpt>
<trkpt lat="49.022090854123235" lon="9.659780468791723">
<ele>350</ele>
<time>2024-05-07T12:01:31Z</time>
</trkpt>
<trkpt lat="49.02212521992624" lon="9.659761358052492">
<ele>350</ele>
<time>2024-05-07T12:01:32Z</time>
</trkpt>
<trkpt lat="49.02216335758567" lon="9.659738475456834">
<ele>350</ele>
<time>2024-05-07T12:01:33Z</time>
</trkpt>
<trkpt lat="49.02219772338867" lon="9.659711821004748">
<ele>350</ele>
<time>2024-05-07T12:01:34Z</time>
</trkpt>
<trkpt lat="49.0222358610481" lon="9.65968701057136">
<ele>350</ele>
<time>2024-05-07T12:01:35Z</time>
</trkpt>
<trkpt lat="49.02227399870753" lon="9.659663122147322">
<ele>350</ele>
<time>2024-05-07T12:01:36Z</time>
</trkpt>
<trkpt lat="49.022308280691504" lon="9.659640239551663">
<ele>350</ele>
<time>2024-05-07T12:01:37Z</time>
</trkpt>
<trkpt lat="49.022346418350935" lon="9.659614507108929">
<ele>350</ele>
<time>2024-05-07T12:01:38Z</time>
</trkpt>
<trkpt lat="49.0223846398294" lon="9.65958969667554">
<ele>350</ele>
<time>2024-05-07T12:01:39Z</time>
</trkpt>
<trkpt lat="49.02241892181337" lon="9.659563042223454">
<ele>350.2</ele>
<time>2024-05-07T12:01:40Z</time>
</trkpt>
<trkpt lat="49.0224570594728" lon="9.659535381942987">
<ele>350.2</ele>
<time>2024-05-07T12:01:41Z</time>
</trkpt>
<trkpt lat="49.0224914252758" lon="9.659502943977714">
<ele>350.2</ele>
<time>2024-05-07T12:01:42Z</time>
</trkpt>
<trkpt lat="49.02252956293523" lon="9.65947151184082">
<ele>350.2</ele>
<time>2024-05-07T12:01:43Z</time>
</trkpt>
<trkpt lat="49.02256392873824" lon="9.659438068047166">
<ele>350.2</ele>
<time>2024-05-07T12:01:44Z</time>
</trkpt>
<trkpt lat="49.02260206639767" lon="9.659402780234814">
<ele>350.2</ele>
<time>2024-05-07T12:01:45Z</time>
</trkpt>
<trkpt lat="49.0226402040571" lon="9.65937034226954">
<ele>350.4</ele>
<time>2024-05-07T12:01:46Z</time>
</trkpt>
<trkpt lat="49.02267448604107" lon="9.659336982294915">
<ele>350.4</ele>
<time>2024-05-07T12:01:47Z</time>
</trkpt>
<trkpt lat="49.02271270751953" lon="9.659304544329643">
<ele>350.4</ele>
<time>2024-05-07T12:01:48Z</time>
</trkpt>
<trkpt lat="49.0227469895035" lon="9.65927118435502">
<ele>350.4</ele>
<time>2024-05-07T12:01:49Z</time>
</trkpt>
<trkpt lat="49.02278512716293" lon="9.659238746389748">
<ele>350.4</ele>
<time>2024-05-07T12:01:50Z</time>
</trkpt>
<trkpt lat="49.02282326482237" lon="9.659203458577394">
<ele>350.4</ele>
<time>2024-05-07T12:01:51Z</time>
</trkpt>
<trkpt lat="49.02285763062537" lon="9.659170098602772">
<ele>350.4</ele>
<time>2024-05-07T12:01:52Z</time>
</trkpt>
<trkpt lat="49.0228957682848" lon="9.659138666465878">
<ele>350.4</ele>
<time>2024-05-07T12:01:53Z</time>
</trkpt>
<trkpt lat="49.02293390594423" lon="9.659106228500605">
<ele>350.4</ele>
<time>2024-05-07T12:01:54Z</time>
</trkpt>
<trkpt lat="49.02297204360366" lon="9.659076640382407">
<ele>350.4</ele>
<time>2024-05-07T12:01:55Z</time>
</trkpt>
<trkpt lat="49.02300640940666" lon="9.659048058092594">
<ele>350.4</ele>
<time>2024-05-07T12:01:56Z</time>
</trkpt>
<trkpt lat="49.02304454706609" lon="9.659014698117971">
<ele>350.4</ele>
<time>2024-05-07T12:01:57Z</time>
</trkpt>
<trkpt lat="49.02308268472552" lon="9.658981254324315">
<ele>350.4</ele>
<time>2024-05-07T12:01:58Z</time>
</trkpt>
<trkpt lat="49.02312082238495" lon="9.658946972340344">
<ele>350.4</ele>
<time>2024-05-07T12:01:59Z</time>
</trkpt>
<trkpt lat="49.02316281571984" lon="9.658913612365724">
<ele>350.4</ele>
<time>2024-05-07T12:02:00Z</time>
</trkpt>
<trkpt lat="49.02320095337927" lon="9.658880168572068">
<ele>350.4</ele>
<time>2024-05-07T12:02:01Z</time>
</trkpt>
<trkpt lat="49.02324294671416" lon="9.658846808597444">
<ele>350.4</ele>
<time>2024-05-07T12:02:02Z</time>
</trkpt>
<trkpt lat="49.02328485623002" lon="9.658811520785092">
<ele>350.4</ele>
<time>2024-05-07T12:02:03Z</time>
</trkpt>
<trkpt lat="49.02332299388945" lon="9.65877816081047">
<ele>350.4</ele>
<time>2024-05-07T12:02:04Z</time>
</trkpt>
<trkpt lat="49.02336498722434" lon="9.658744800835848">
<ele>350.4</ele>
<time>2024-05-07T12:02:05Z</time>
</trkpt>
<trkpt lat="49.02340312488377" lon="9.658706663176416">
<ele>350.4</ele>
<time>2024-05-07T12:02:06Z</time>
</trkpt>
<trkpt lat="49.0234412625432" lon="9.658671375364063">
<ele>350.4</ele>
<time>2024-05-07T12:02:07Z</time>
</trkpt>
<trkpt lat="49.02347940020263" lon="9.658637009561062">
<ele>350.4</ele>
<time>2024-05-07T12:02:08Z</time>
</trkpt>
<trkpt lat="49.023513766005635" lon="9.65860172174871">
<ele>350.4</ele>
<time>2024-05-07T12:02:09Z</time>
</trkpt>
<trkpt lat="49.023551903665066" lon="9.658568361774089">
<ele>350.4</ele>
<time>2024-05-07T12:02:10Z</time>
</trkpt>
<trkpt lat="49.023590041324496" lon="9.658535001799464">
<ele>350.4</ele>
<time>2024-05-07T12:02:11Z</time>
</trkpt>
<trkpt lat="49.0236244071275" lon="9.65850348584354">
<ele>350.4</ele>
<time>2024-05-07T12:02:12Z</time>
</trkpt>
<trkpt lat="49.02365868911147" lon="9.658470125868917">
<ele>350.4</ele>
<time>2024-05-07T12:02:13Z</time>
</trkpt>
<trkpt lat="49.023689199239016" lon="9.658436765894294">
<ele>350.4</ele>
<time>2024-05-07T12:02:14Z</time>
</trkpt>
<trkpt lat="49.02371970936656" lon="9.658401478081942">
<ele>350.4</ele>
<time>2024-05-07T12:02:15Z</time>
</trkpt>
<trkpt lat="49.02374644763768" lon="9.658368034288287">
<ele>350.6</ele>
<time>2024-05-07T12:02:16Z</time>
</trkpt>
<trkpt lat="49.02377695776522" lon="9.658334674313664">
<ele>350.6</ele>
<time>2024-05-07T12:02:17Z</time>
</trkpt>
<trkpt lat="49.023807467892766" lon="9.658301314339042">
<ele>350.8</ele>
<time>2024-05-07T12:02:18Z</time>
</trkpt>
<trkpt lat="49.02383420616388" lon="9.658269882202148">
<ele>350.8</ele>
<time>2024-05-07T12:02:19Z</time>
</trkpt>
<trkpt lat="49.02385708875954" lon="9.658234594389796">
<ele>351</ele>
<time>2024-05-07T12:02:20Z</time>
</trkpt>
<trkpt lat="49.02388374321163" lon="9.658198300749063">
<ele>351.2</ele>
<time>2024-05-07T12:02:21Z</time>
</trkpt>
<trkpt lat="49.023910481482744" lon="9.658160163089631">
<ele>351.2</ele>
<time>2024-05-07T12:02:22Z</time>
</trkpt>
<trkpt lat="49.02393721975386" lon="9.658120097592471">
<ele>351.4</ele>
<time>2024-05-07T12:02:23Z</time>
</trkpt>
<trkpt lat="49.02396387420595" lon="9.658081959933044">
<ele>351.4</ele>
<time>2024-05-07T12:02:24Z</time>
</trkpt>
<trkpt lat="49.02399438433349" lon="9.658041894435884">
<ele>351.4</ele>
<time>2024-05-07T12:02:25Z</time>
</trkpt>
<trkpt lat="49.02402112260461" lon="9.658001828938724">
<ele>351.6</ele>
<time>2024-05-07T12:02:26Z</time>
</trkpt>
<trkpt lat="49.024047777056694" lon="9.657961763441564">
<ele>351.6</ele>
<time>2024-05-07T12:02:27Z</time>
</trkpt>
<trkpt lat="49.02407451532781" lon="9.657917926087976">
<ele>351.8</ele>
<time>2024-05-07T12:02:28Z</time>
</trkpt>
<trkpt lat="49.02410125359893" lon="9.657873082906008">
<ele>351.8</ele>
<time>2024-05-07T12:02:29Z</time>
</trkpt>
<trkpt lat="49.02412413619459" lon="9.657826395705342">
<ele>352</ele>
<time>2024-05-07T12:02:30Z</time>
</trkpt>
<trkpt lat="49.02415079064667" lon="9.657781552523376">
<ele>352</ele>
<time>2024-05-07T12:02:31Z</time>
</trkpt>
<trkpt lat="49.02417367324233" lon="9.657734865322707">
<ele>352</ele>
<time>2024-05-07T12:02:32Z</time>
</trkpt>
<trkpt lat="49.02420041151345" lon="9.657688094303012">
<ele>352.2</ele>
<time>2024-05-07T12:02:33Z</time>
</trkpt>
<trkpt lat="49.02422706596553" lon="9.657641407102346">
<ele>352.2</ele>
<time>2024-05-07T12:02:34Z</time>
</trkpt>
<trkpt lat="49.02424994856119" lon="9.6575937140733">
<ele>352.4</ele>
<time>2024-05-07T12:02:35Z</time>
</trkpt>
<trkpt lat="49.02427668683231" lon="9.657546943053603">
<ele>352.4</ele>
<time>2024-05-07T12:02:36Z</time>
</trkpt>
<trkpt lat="49.02430719695985" lon="9.657500255852938">
<ele>352.4</ele>
<time>2024-05-07T12:02:37Z</time>
</trkpt>
<trkpt lat="49.02433007955551" lon="9.657451556995513">
<ele>352.4</ele>
<time>2024-05-07T12:02:38Z</time>
</trkpt>
<trkpt lat="49.02435681782663" lon="9.657402019947767">
<ele>352.4</ele>
<time>2024-05-07T12:02:39Z</time>
</trkpt>
<trkpt lat="49.024383472278714" lon="9.657348627224565">
<ele>352.2</ele>
<time>2024-05-07T12:02:40Z</time>
</trkpt>
<trkpt lat="49.02440635487437" lon="9.65729707852006">
<ele>352.2</ele>
<time>2024-05-07T12:02:41Z</time>
</trkpt>
<trkpt lat="49.02443309314549" lon="9.657243685796857">
<ele>352.2</ele>
<time>2024-05-07T12:02:42Z</time>
</trkpt>
<trkpt lat="49.02445597574115" lon="9.657190293073654">
<ele>352.2</ele>
<time>2024-05-07T12:02:43Z</time>
</trkpt>
<trkpt lat="49.02447508648038" lon="9.657133044674993">
<ele>352</ele>
<time>2024-05-07T12:02:44Z</time>
</trkpt>
<trkpt lat="49.02449796907604" lon="9.657074874266982">
<ele>352</ele>
<time>2024-05-07T12:02:45Z</time>
</trkpt>
<trkpt lat="49.024520851671696" lon="9.6570186316967">
<ele>352</ele>
<time>2024-05-07T12:02:46Z</time>
</trkpt>
<trkpt lat="49.024539878591895" lon="9.656953755766152">
<ele>352</ele>
<time>2024-05-07T12:02:47Z</time>
</trkpt>
<trkpt lat="49.024558989331126" lon="9.656887957826257">
<ele>351.8</ele>
<time>2024-05-07T12:02:48Z</time>
</trkpt>
<trkpt lat="49.024578016251326" lon="9.656825009733438">
<ele>351.8</ele>
<time>2024-05-07T12:02:49Z</time>
</trkpt>
<trkpt lat="49.024600982666016" lon="9.656761139631271">
<ele>351.6</ele>
<time>2024-05-07T12:02:50Z</time>
</trkpt>
<trkpt lat="49.024620009586215" lon="9.656695341691377">
<ele>351.6</ele>
<time>2024-05-07T12:02:51Z</time>
</trkpt>
<trkpt lat="49.02464674785733" lon="9.656633315607904">
<ele>351.4</ele>
<time>2024-05-07T12:02:52Z</time>
</trkpt>
<trkpt lat="49.02466963045299" lon="9.656573217362164">
<ele>351.4</ele>
<time>2024-05-07T12:02:53Z</time>
</trkpt>
<trkpt lat="49.02469251304865" lon="9.656511275097728">
<ele>351.2</ele>
<time>2024-05-07T12:02:54Z</time>
</trkpt>
<trkpt lat="49.02471539564431" lon="9.65644447132945">
<ele>351.2</ele>
<time>2024-05-07T12:02:55Z</time>
</trkpt>
<trkpt lat="49.02474205009639" lon="9.656381607055664">
<ele>351.2</ele>
<time>2024-05-07T12:02:56Z</time>
</trkpt>
<trkpt lat="49.02476493269205" lon="9.656319580972196">
<ele>351</ele>
<time>2024-05-07T12:02:57Z</time>
</trkpt>
<trkpt lat="49.02478789910674" lon="9.656258560717106">
<ele>351</ele>
<time>2024-05-07T12:02:58Z</time>
</trkpt>
<trkpt lat="49.024814553558826" lon="9.656200390309095">
<ele>351</ele>
<time>2024-05-07T12:02:59Z</time>
</trkpt>
<trkpt lat="49.02484506368637" lon="9.656136436387897">
<ele>351</ele>
<time>2024-05-07T12:03:00Z</time>
</trkpt>
<trkpt lat="49.02487180195749" lon="9.656078265979886">
<ele>351</ele>
<time>2024-05-07T12:03:01Z</time>
</trkpt>
<trkpt lat="49.02490608394146" lon="9.656016323715448">
<ele>350.8</ele>
<time>2024-05-07T12:03:02Z</time>
</trkpt>
<trkpt lat="49.02493659406901" lon="9.655956225469708">
<ele>350.8</ele>
<time>2024-05-07T12:03:03Z</time>
</trkpt>
<trkpt lat="49.024959560483694" lon="9.655898055061698">
<ele>350.8</ele>
<time>2024-05-07T12:03:04Z</time>
</trkpt>
<trkpt lat="49.02497858740389" lon="9.655837956815958">
<ele>350.8</ele>
<time>2024-05-07T12:03:05Z</time>
</trkpt>
<trkpt lat="49.02500146999955" lon="9.655779786407948">
<ele>350.8</ele>
<time>2024-05-07T12:03:06Z</time>
</trkpt>
<trkpt lat="49.025031980127096" lon="9.655721615999935">
<ele>350.8</ele>
<time>2024-05-07T12:03:07Z</time>
</trkpt>
<trkpt lat="49.02505871839821" lon="9.65565866790712">
<ele>350.8</ele>
<time>2024-05-07T12:03:08Z</time>
</trkpt>
<trkpt lat="49.0250853728503" lon="9.655594797804952">
<ele>350.8</ele>
<time>2024-05-07T12:03:09Z</time>
</trkpt>
<trkpt lat="49.0251197386533" lon="9.65553662739694">
<ele>350.8</ele>
<time>2024-05-07T12:03:10Z</time>
</trkpt>
<trkpt lat="49.02514647692442" lon="9.6554765291512">
<ele>350.8</ele>
<time>2024-05-07T12:03:11Z</time>
</trkpt>
<trkpt lat="49.02517698705197" lon="9.65542028658092">
<ele>350.8</ele>
<time>2024-05-07T12:03:12Z</time>
</trkpt>
<trkpt lat="49.02519986964762" lon="9.65535826049745">
<ele>350.8</ele>
<time>2024-05-07T12:03:13Z</time>
</trkpt>
<trkpt lat="49.02522652409971" lon="9.655296318233011">
<ele>350.8</ele>
<time>2024-05-07T12:03:14Z</time>
</trkpt>
<trkpt lat="49.02524563483894" lon="9.655236219987271">
<ele>350.8</ele>
<time>2024-05-07T12:03:15Z</time>
</trkpt>
<trkpt lat="49.0252685174346" lon="9.655175199732184">
<ele>351</ele>
<time>2024-05-07T12:03:16Z</time>
</trkpt>
<trkpt lat="49.02528762817383" lon="9.655113173648717">
<ele>351</ele>
<time>2024-05-07T12:03:17Z</time>
</trkpt>
<trkpt lat="49.02530665509403" lon="9.655055003240705">
<ele>351.2</ele>
<time>2024-05-07T12:03:18Z</time>
</trkpt>
<trkpt lat="49.02532576583326" lon="9.654998760670424">
<ele>351.2</ele>
<time>2024-05-07T12:03:19Z</time>
</trkpt>
<trkpt lat="49.02534102089703" lon="9.654936734586954">
<ele>351.2</ele>
<time>2024-05-07T12:03:20Z</time>
</trkpt>
<trkpt lat="49.02536004781723" lon="9.654871858656406">
<ele>351.2</ele>
<time>2024-05-07T12:03:21Z</time>
</trkpt>
<trkpt lat="49.025375302881" lon="9.65480706654489">
<ele>351.2</ele>
<time>2024-05-07T12:03:22Z</time>
</trkpt>
<trkpt lat="49.02539441362023" lon="9.654740262776611">
<ele>351</ele>
<time>2024-05-07T12:03:23Z</time>
</trkpt>
<trkpt lat="49.02541344054043" lon="9.654671614989638">
<ele>351</ele>
<time>2024-05-07T12:03:24Z</time>
</trkpt>
<trkpt lat="49.02543632313609" lon="9.65460673905909">
<ele>351</ele>
<time>2024-05-07T12:03:25Z</time>
</trkpt>
<trkpt lat="49.02545543387532" lon="9.654544796794651">
<ele>351</ele>
<time>2024-05-07T12:03:26Z</time>
</trkpt>
<trkpt lat="49.02547831647098" lon="9.654484698548911">
<ele>351</ele>
<time>2024-05-07T12:03:27Z</time>
</trkpt>
<trkpt lat="49.0255050547421" lon="9.654428455978632">
<ele>351</ele>
<time>2024-05-07T12:03:28Z</time>
</trkpt>
<trkpt lat="49.02552793733776" lon="9.65437120757997">
<ele>351</ele>
<time>2024-05-07T12:03:29Z</time>
</trkpt>
<trkpt lat="49.025546964257956" lon="9.65431689284742">
<ele>351</ele>
<time>2024-05-07T12:03:30Z</time>
</trkpt>
<trkpt lat="49.025569846853614" lon="9.654259644448755">
<ele>351.2</ele>
<time>2024-05-07T12:03:31Z</time>
</trkpt>
<trkpt lat="49.02559272944927" lon="9.654203401878476">
<ele>351.2</ele>
<time>2024-05-07T12:03:32Z</time>
</trkpt>
<trkpt lat="49.02561561204493" lon="9.654148081317544">
<ele>351.2</ele>
<time>2024-05-07T12:03:33Z</time>
</trkpt>
<trkpt lat="49.02564235031605" lon="9.65409368276596">
<ele>351.2</ele>
<time>2024-05-07T12:03:34Z</time>
</trkpt>
<trkpt lat="49.025665232911706" lon="9.654040290042758">
<ele>351.2</ele>
<time>2024-05-07T12:03:35Z</time>
</trkpt>
<trkpt lat="49.02569197118282" lon="9.653987819328904">
<ele>351.2</ele>
<time>2024-05-07T12:03:36Z</time>
</trkpt>
<trkpt lat="49.02572248131037" lon="9.65393828228116">
<ele>351.4</ele>
<time>2024-05-07T12:03:37Z</time>
</trkpt>
<trkpt lat="49.02574913576245" lon="9.653886733576655">
<ele>351.4</ele>
<time>2024-05-07T12:03:38Z</time>
</trkpt>
<trkpt lat="49.02577964589" lon="9.653833340853453">
<ele>351.6</ele>
<time>2024-05-07T12:03:39Z</time>
</trkpt>
<trkpt lat="49.025806384161115" lon="9.65377802029252">
<ele>351.6</ele>
<time>2024-05-07T12:03:40Z</time>
</trkpt>
<trkpt lat="49.02583312243223" lon="9.65372177772224">
<ele>351.8</ele>
<time>2024-05-07T12:03:41Z</time>
</trkpt>
<trkpt lat="49.025863632559776" lon="9.6536616794765">
<ele>351.8</ele>
<time>2024-05-07T12:03:42Z</time>
</trkpt>
<trkpt lat="49.02589028701186" lon="9.653604431077838">
<ele>352</ele>
<time>2024-05-07T12:03:43Z</time>
</trkpt>
<trkpt lat="49.02591702528298" lon="9.653548188507555">
<ele>352</ele>
<time>2024-05-07T12:03:44Z</time>
</trkpt>
<trkpt lat="49.025943679735065" lon="9.653492867946625">
<ele>352</ele>
<time>2024-05-07T12:03:45Z</time>
</trkpt>
<trkpt lat="49.02597041800618" lon="9.653436625376344">
<ele>352</ele>
<time>2024-05-07T12:03:46Z</time>
</trkpt>
<trkpt lat="49.02599330060184" lon="9.653378454968331">
<ele>352</ele>
<time>2024-05-07T12:03:47Z</time>
</trkpt>
<trkpt lat="49.02602003887296" lon="9.65332506224513">
<ele>351.8</ele>
<time>2024-05-07T12:03:48Z</time>
</trkpt>
<trkpt lat="49.026042921468616" lon="9.653269741684198">
<ele>351.8</ele>
<time>2024-05-07T12:03:49Z</time>
</trkpt>
<trkpt lat="49.026065804064274" lon="9.653213499113916">
<ele>351.6</ele>
<time>2024-05-07T12:03:50Z</time>
</trkpt>
<trkpt lat="49.02609245851636" lon="9.653155244886875">
<ele>351.6</ele>
<time>2024-05-07T12:03:51Z</time>
</trkpt>
<trkpt lat="49.02611534111202" lon="9.653097074478865">
<ele>351.6</ele>
<time>2024-05-07T12:03:52Z</time>
</trkpt>
<trkpt lat="49.02613822370768" lon="9.653039909899237">
<ele>351.6</ele>
<time>2024-05-07T12:03:53Z</time>
</trkpt>
<trkpt lat="49.026161190122366" lon="9.652979811653497">
<ele>351.6</ele>
<time>2024-05-07T12:03:54Z</time>
</trkpt>
<trkpt lat="49.026180217042565" lon="9.652919713407757">
<ele>351.6</ele>
<time>2024-05-07T12:03:55Z</time>
</trkpt>
<trkpt lat="49.02620695531368" lon="9.652861542999744">
<ele>351.8</ele>
<time>2024-05-07T12:03:56Z</time>
</trkpt>
<trkpt lat="49.02622983790934" lon="9.652803372591734">
<ele>351.8</ele>
<time>2024-05-07T12:03:57Z</time>
</trkpt>
<trkpt lat="49.026256492361426" lon="9.652743274345994">
<ele>351.8</ele>
<time>2024-05-07T12:03:58Z</time>
</trkpt>
<trkpt lat="49.026279374957085" lon="9.652685103937984">
<ele>351.6</ele>
<time>2024-05-07T12:03:59Z</time>
</trkpt>
<trkpt lat="49.02630225755274" lon="9.652625005692244">
<ele>351.6</ele>
<time>2024-05-07T12:04:00Z</time>
</trkpt>
<trkpt lat="49.02632522396743" lon="9.652564991265535">
<ele>351.6</ele>
<time>2024-05-07T12:04:01Z</time>
</trkpt>
<trkpt lat="49.02634810656309" lon="9.652502043172715">
<ele>351.8</ele>
<time>2024-05-07T12:04:02Z</time>
</trkpt>
<trkpt lat="49.02637476101518" lon="9.652440017089248">
<ele>351.8</ele>
<time>2024-05-07T12:04:03Z</time>
</trkpt>
<trkpt lat="49.026397643610835" lon="9.652379918843508">
<ele>351.8</ele>
<time>2024-05-07T12:04:04Z</time>
</trkpt>
<trkpt lat="49.02642438188195" lon="9.6523199044168">
<ele>351.8</ele>
<time>2024-05-07T12:04:05Z</time>
</trkpt>
<trkpt lat="49.02644726447761" lon="9.65225980617106">
<ele>352</ele>
<time>2024-05-07T12:04:06Z</time>
</trkpt>
<trkpt lat="49.02647014707327" lon="9.65220163576305">
<ele>352</ele>
<time>2024-05-07T12:04:07Z</time>
</trkpt>
<trkpt lat="49.026496885344386" lon="9.652145309373736">
<ele>352</ele>
<time>2024-05-07T12:04:08Z</time>
</trkpt>
<trkpt lat="49.02652739547193" lon="9.652086216956375">
<ele>352</ele>
<time>2024-05-07T12:04:09Z</time>
</trkpt>
<trkpt lat="49.026557905599475" lon="9.652036596089602">
<ele>352</ele>
<time>2024-05-07T12:04:10Z</time>
</trkpt>
<trkpt lat="49.02658841572702" lon="9.651993680745363">
<ele>352</ele>
<time>2024-05-07T12:04:11Z</time>
</trkpt>
<trkpt lat="49.02662269771099" lon="9.651953615248203">
<ele>352</ele>
<time>2024-05-07T12:04:12Z</time>
</trkpt>
<trkpt lat="49.02666091918945" lon="9.651909777894616">
<ele>352</ele>
<time>2024-05-07T12:04:13Z</time>
</trkpt>
<trkpt lat="49.02669905684888" lon="9.651864934712648">
<ele>352</ele>
<time>2024-05-07T12:04:14Z</time>
</trkpt>
<trkpt lat="49.02674096636474" lon="9.65182201936841">
<ele>351.8</ele>
<time>2024-05-07T12:04:15Z</time>
</trkpt>
<trkpt lat="49.02678295969963" lon="9.65178295969963">
<ele>351.8</ele>
<time>2024-05-07T12:04:16Z</time>
</trkpt>
<trkpt lat="49.02682109735906" lon="9.651748593896627">
<ele>351.8</ele>
<time>2024-05-07T12:04:17Z</time>
</trkpt>
<trkpt lat="49.02685923501849" lon="9.651711462065578">
<ele>351.8</ele>
<time>2024-05-07T12:04:18Z</time>
</trkpt>
<trkpt lat="49.02689737267792" lon="9.651671396568418">
<ele>351.8</ele>
<time>2024-05-07T12:04:19Z</time>
</trkpt>
<trkpt lat="49.026931738480926" lon="9.651633258908989">
<ele>352</ele>
<time>2024-05-07T12:04:20Z</time>
</trkpt>
<trkpt lat="49.02696987614035" lon="9.651593193411829">
<ele>352</ele>
<time>2024-05-07T12:04:21Z</time>
</trkpt>
<trkpt lat="49.02700801379979" lon="9.651555055752397">
<ele>352</ele>
<time>2024-05-07T12:04:22Z</time>
</trkpt>
<trkpt lat="49.02704615145922" lon="9.651519767940044">
<ele>352</ele>
<time>2024-05-07T12:04:23Z</time>
</trkpt>
<trkpt lat="49.02708051726222" lon="9.651478696614504">
<ele>352.2</ele>
<time>2024-05-07T12:04:24Z</time>
</trkpt>
<trkpt lat="49.02711479924619" lon="9.651441564783454">
<ele>352.2</ele>
<time>2024-05-07T12:04:25Z</time>
</trkpt>
<trkpt lat="49.02715293690562" lon="9.65140527114272">
<ele>352.2</ele>
<time>2024-05-07T12:04:26Z</time>
</trkpt>
<trkpt lat="49.027191158384085" lon="9.651366211473942">
<ele>352.2</ele>
<time>2024-05-07T12:04:27Z</time>
</trkpt>
<trkpt lat="49.027225440368056" lon="9.65132706798613">
<ele>352.2</ele>
<time>2024-05-07T12:04:28Z</time>
</trkpt>
<trkpt lat="49.02725980617106" lon="9.651285158470271">
<ele>352.4</ele>
<time>2024-05-07T12:04:29Z</time>
</trkpt>
<trkpt lat="49.02730171568692" lon="9.651243165135384">
<ele>352.4</ele>
<time>2024-05-07T12:04:30Z</time>
</trkpt>
<trkpt lat="49.02733985334635" lon="9.651198321953416">
<ele>352.4</ele>
<time>2024-05-07T12:04:31Z</time>
</trkpt>
<trkpt lat="49.02738184668124" lon="9.65115356259048">
<ele>352.4</ele>
<time>2024-05-07T12:04:32Z</time>
</trkpt>
<trkpt lat="49.02741998434067" lon="9.651106791570784">
<ele>352.4</ele>
<time>2024-05-07T12:04:33Z</time>
</trkpt>
<trkpt lat="49.02746197767556" lon="9.651058176532388">
<ele>352.2</ele>
<time>2024-05-07T12:04:34Z</time>
</trkpt>
<trkpt lat="49.02750011533499" lon="9.65101140551269">
<ele>352.2</ele>
<time>2024-05-07T12:04:35Z</time>
</trkpt>
<trkpt lat="49.02754210866988" lon="9.650964718312023">
<ele>352.2</ele>
<time>2024-05-07T12:04:36Z</time>
</trkpt>
<trkpt lat="49.02758024632931" lon="9.65091702528298">
<ele>352.4</ele>
<time>2024-05-07T12:04:37Z</time>
</trkpt>
<trkpt lat="49.02761452831328" lon="9.650868410244584">
<ele>352.4</ele>
<time>2024-05-07T12:04:38Z</time>
</trkpt>
<trkpt lat="49.02764889411628" lon="9.650823567062616">
<ele>352.4</ele>
<time>2024-05-07T12:04:39Z</time>
</trkpt>
<trkpt lat="49.027683176100254" lon="9.650778723880649">
<ele>352.4</ele>
<time>2024-05-07T12:04:40Z</time>
</trkpt>
<trkpt lat="49.02770991437137" lon="9.65073488652706">
<ele>352.4</ele>
<time>2024-05-07T12:04:41Z</time>
</trkpt>
<trkpt lat="49.027744280174375" lon="9.650690043345094">
<ele>352.4</ele>
<time>2024-05-07T12:04:42Z</time>
</trkpt>
<trkpt lat="49.02777479030192" lon="9.6506414283067">
<ele>352.4</ele>
<time>2024-05-07T12:04:43Z</time>
</trkpt>
<trkpt lat="49.02780530042946" lon="9.65059851296246">
<ele>352.4</ele>
<time>2024-05-07T12:04:44Z</time>
</trkpt>
<trkpt lat="49.02783581055701" lon="9.650553669780493">
<ele>352.4</ele>
<time>2024-05-07T12:04:45Z</time>
</trkpt>
<trkpt lat="49.02786632068455" lon="9.650503126904368">
<ele>352.6</ele>
<time>2024-05-07T12:04:46Z</time>
</trkpt>
<trkpt lat="49.0278968308121" lon="9.650456355884671">
<ele>352.6</ele>
<time>2024-05-07T12:04:47Z</time>
</trkpt>
<trkpt lat="49.02792734093964" lon="9.650408662855623">
<ele>352.6</ele>
<time>2024-05-07T12:04:48Z</time>
</trkpt>
<trkpt lat="49.02796170674264" lon="9.650362897664309">
<ele>352.8</ele>
<time>2024-05-07T12:04:49Z</time>
</trkpt>
<trkpt lat="49.02799221687019" lon="9.650318138301373">
<ele>352.8</ele>
<time>2024-05-07T12:04:50Z</time>
</trkpt>
<trkpt lat="49.02802649885416" lon="9.650276144966483">
<ele>352.8</ele>
<time>2024-05-07T12:04:51Z</time>
</trkpt>
<trkpt lat="49.028057092800736" lon="9.650230379775168">
<ele>352.8</ele>
<time>2024-05-07T12:04:52Z</time>
</trkpt>
<trkpt lat="49.02809137478471" lon="9.65018461458385">
<ele>353</ele>
<time>2024-05-07T12:04:53Z</time>
</trkpt>
<trkpt lat="49.02812188491225" lon="9.650137843564153">
<ele>353</ele>
<time>2024-05-07T12:04:54Z</time>
</trkpt>
<trkpt lat="49.0281523950398" lon="9.650090150535108">
<ele>353</ele>
<time>2024-05-07T12:04:55Z</time>
</trkpt>
<trkpt lat="49.0281867608428" lon="9.650041535496712">
<ele>353</ele>
<time>2024-05-07T12:04:56Z</time>
</trkpt>
<trkpt lat="49.028217270970345" lon="9.649994848296046">
<ele>353</ele>
<time>2024-05-07T12:04:57Z</time>
</trkpt>
<trkpt lat="49.02825163677335" lon="9.649948077276347">
<ele>353</ele>
<time>2024-05-07T12:04:58Z</time>
</trkpt>
<trkpt lat="49.02828214690089" lon="9.64990323409438">
<ele>353</ele>
<time>2024-05-07T12:04:59Z</time>
</trkpt>
<trkpt lat="49.028316428884864" lon="9.649861324578524">
<ele>353</ele>
<time>2024-05-07T12:05:00Z</time>
</trkpt>
<trkpt lat="49.028354566544294" lon="9.649820253252985">
<ele>353</ele>
<time>2024-05-07T12:05:01Z</time>
</trkpt>
<trkpt lat="49.0283889323473" lon="9.649778343737124">
<ele>353</ele>
<time>2024-05-07T12:05:02Z</time>
</trkpt>
<trkpt lat="49.0284232981503" lon="9.649738278239964">
<ele>353</ele>
<time>2024-05-07T12:05:03Z</time>
</trkpt>
<trkpt lat="49.02846143580973" lon="9.649700140580537">
<ele>353</ele>
<time>2024-05-07T12:05:04Z</time>
</trkpt>
<trkpt lat="49.0284957177937" lon="9.649662924930452">
<ele>353</ele>
<time>2024-05-07T12:05:05Z</time>
</trkpt>
<trkpt lat="49.028533855453134" lon="9.649626715108752">
<ele>353.2</ele>
<time>2024-05-07T12:05:06Z</time>
</trkpt>
<trkpt lat="49.0285720769316" lon="9.64958949945867">
<ele>353.2</ele>
<time>2024-05-07T12:05:07Z</time>
</trkpt>
<trkpt lat="49.028610214591026" lon="9.649557061493397">
<ele>353.4</ele>
<time>2024-05-07T12:05:08Z</time>
</trkpt>
<trkpt lat="49.02864835225046" lon="9.649524623528125">
<ele>353.4</ele>
<time>2024-05-07T12:05:09Z</time>
</trkpt>
<trkpt lat="49.02868648990989" lon="9.649497969076036">
<ele>353.4</ele>
<time>2024-05-07T12:05:10Z</time>
</trkpt>
<trkpt lat="49.02872848324478" lon="9.649484558030965">
<ele>353.6</ele>
<time>2024-05-07T12:05:11Z</time>
</trkpt>
<trkpt lat="49.02876662090421" lon="9.649484558030965">
<ele>353.6</ele>
<time>2024-05-07T12:05:12Z</time>
</trkpt>
<trkpt lat="49.028808530420065" lon="9.6494912635535">
<ele>353.8</ele>
<time>2024-05-07T12:05:13Z</time>
</trkpt>
<trkpt lat="49.028850523754954" lon="9.649486485868692">
<ele>353.8</ele>
<time>2024-05-07T12:05:14Z</time>
</trkpt>
<trkpt lat="49.028884805738926" lon="9.649466453120112">
<ele>353.6</ele>
<time>2024-05-07T12:05:15Z</time>
</trkpt>
<trkpt lat="49.02892302721739" lon="9.649441642686725">
<ele>353.6</ele>
<time>2024-05-07T12:05:16Z</time>
</trkpt>
<trkpt lat="49.02896116487682" lon="9.64941498823464">
<ele>353.6</ele>
<time>2024-05-07T12:05:17Z</time>
</trkpt>
<trkpt lat="49.02899544686079" lon="9.649378694593906">
<ele>353.4</ele>
<time>2024-05-07T12:05:18Z</time>
</trkpt>
<trkpt lat="49.02903358452022" lon="9.649345334619284">
<ele>353.2</ele>
<time>2024-05-07T12:05:19Z</time>
</trkpt>
<trkpt lat="49.02907180599868" lon="9.64931482449174">
<ele>353.2</ele>
<time>2024-05-07T12:05:20Z</time>
</trkpt>
<trkpt lat="49.02911371551454" lon="9.649285236373544">
<ele>353.2</ele>
<time>2024-05-07T12:05:21Z</time>
</trkpt>
<trkpt lat="49.029148081317544" lon="9.649252882227302">
<ele>353.2</ele>
<time>2024-05-07T12:05:22Z</time>
</trkpt>
<trkpt lat="49.0291899908334" lon="9.649221366271377">
<ele>353.2</ele>
<time>2024-05-07T12:05:23Z</time>
</trkpt>
<trkpt lat="49.02922812849283" lon="9.649187084287403">
<ele>353.2</ele>
<time>2024-05-07T12:05:24Z</time>
</trkpt>
<trkpt lat="49.029266349971294" lon="9.649151796475053">
<ele>353.2</ele>
<time>2024-05-07T12:05:25Z</time>
</trkpt>
<trkpt lat="49.029304487630725" lon="9.649118352681398">
<ele>353.2</ele>
<time>2024-05-07T12:05:26Z</time>
</trkpt>
<trkpt lat="49.029342625290155" lon="9.649081220850348">
<ele>353.2</ele>
<time>2024-05-07T12:05:27Z</time>
</trkpt>
<trkpt lat="49.02938453480601" lon="9.649044927209616">
<ele>353.2</ele>
<time>2024-05-07T12:05:28Z</time>
</trkpt>
<trkpt lat="49.0294265281409" lon="9.649013495072722">
<ele>353.2</ele>
<time>2024-05-07T12:05:29Z</time>
</trkpt>
<trkpt lat="49.02946852147579" lon="9.648981979116796">
<ele>353.4</ele>
<time>2024-05-07T12:05:30Z</time>
</trkpt>
<trkpt lat="49.02950665913522" lon="9.648944847285748">
<ele>353.4</ele>
<time>2024-05-07T12:05:31Z</time>
</trkpt>
<trkpt lat="49.02954856865108" lon="9.648911403492091">
<ele>353.4</ele>
<time>2024-05-07T12:05:32Z</time>
</trkpt>
<trkpt lat="49.02959056198597" lon="9.648871421813965">
<ele>353.4</ele>
<time>2024-05-07T12:05:33Z</time>
</trkpt>
<trkpt lat="49.029636327177286" lon="9.648833200335504">
<ele>353.4</ele>
<time>2024-05-07T12:05:34Z</time>
</trkpt>
<trkpt lat="49.029678320512176" lon="9.648796990513802">
<ele>353.4</ele>
<time>2024-05-07T12:05:35Z</time>
</trkpt>
<trkpt lat="49.029716458171606" lon="9.648757930845022">
<ele>353.4</ele>
<time>2024-05-07T12:05:36Z</time>
</trkpt>
<trkpt lat="49.029758451506495" lon="9.64871970936656">
<ele>353.4</ele>
<time>2024-05-07T12:05:37Z</time>
</trkpt>
<trkpt lat="49.029796589165926" lon="9.64868157170713">
<ele>353.4</ele>
<time>2024-05-07T12:05:38Z</time>
</trkpt>
<trkpt lat="49.02983472682536" lon="9.6486434340477">
<ele>353.4</ele>
<time>2024-05-07T12:05:39Z</time>
</trkpt>
<trkpt lat="49.02987286448479" lon="9.648606218397616">
<ele>353.4</ele>
<time>2024-05-07T12:05:40Z</time>
</trkpt>
<trkpt lat="49.02990714646876" lon="9.648568080738189">
<ele>353.4</ele>
<time>2024-05-07T12:05:41Z</time>
</trkpt>
<trkpt lat="49.02994536794722" lon="9.64852809906006">
<ele>353.4</ele>
<time>2024-05-07T12:05:42Z</time>
</trkpt>
<trkpt lat="49.02997964993119" lon="9.64848325587809">
<ele>353.4</ele>
<time>2024-05-07T12:05:43Z</time>
</trkpt>
<trkpt lat="49.03001016005874" lon="9.648433635011315">
<ele>353.4</ele>
<time>2024-05-07T12:05:44Z</time>
</trkpt>
<trkpt lat="49.030036898329854" lon="9.648381164297462">
<ele>353.6</ele>
<time>2024-05-07T12:05:45Z</time>
</trkpt>
<trkpt lat="49.030052153393626" lon="9.64832684956491">
<ele>353.6</ele>
<time>2024-05-07T12:05:46Z</time>
</trkpt>
<trkpt lat="49.030075035989285" lon="9.648269601166248">
<ele>353.8</ele>
<time>2024-05-07T12:05:47Z</time>
</trkpt>
<trkpt lat="49.03009791858494" lon="9.648219980299473">
<ele>353.8</ele>
<time>2024-05-07T12:05:48Z</time>
</trkpt>
<trkpt lat="49.0301208011806" lon="9.648171365261078">
<ele>353.8</ele>
<time>2024-05-07T12:05:49Z</time>
</trkpt>
<trkpt lat="49.03014753945172" lon="9.648119900375605">
<ele>354</ele>
<time>2024-05-07T12:05:50Z</time>
</trkpt>
<trkpt lat="49.03017419390381" lon="9.648066507652402">
<ele>354</ele>
<time>2024-05-07T12:05:51Z</time>
</trkpt>
<trkpt lat="49.03020093217492" lon="9.648014958947895">
<ele>354</ele>
<time>2024-05-07T12:05:52Z</time>
</trkpt>
<trkpt lat="49.03022758662701" lon="9.647961566224694">
<ele>354</ele>
<time>2024-05-07T12:05:53Z</time>
</trkpt>
<trkpt lat="49.03025432489813" lon="9.647908173501492">
<ele>354</ele>
<time>2024-05-07T12:05:54Z</time>
</trkpt>
<trkpt lat="49.03028483502567" lon="9.647856708616018">
<ele>354</ele>
<time>2024-05-07T12:05:55Z</time>
</trkpt>
<trkpt lat="49.030311573296785" lon="9.647805159911512">
<ele>354.2</ele>
<time>2024-05-07T12:05:56Z</time>
</trkpt>
<trkpt lat="49.03034585528076" lon="9.647754617035387">
<ele>354.2</ele>
<time>2024-05-07T12:05:57Z</time>
</trkpt>
<trkpt lat="49.0303763654083" lon="9.64771170169115">
<ele>354.4</ele>
<time>2024-05-07T12:05:58Z</time>
</trkpt>
<trkpt lat="49.03040310367942" lon="9.647665014490483">
<ele>354.6</ele>
<time>2024-05-07T12:05:59Z</time>
</trkpt>
<trkpt lat="49.03043361380696" lon="9.64761631563306">
<ele>354.6</ele>
<time>2024-05-07T12:06:00Z</time>
</trkpt>
<trkpt lat="49.03046412393451" lon="9.647569628432391">
<ele>354.6</ele>
<time>2024-05-07T12:06:01Z</time>
</trkpt>
<trkpt lat="49.03049848973751" lon="9.647522857412696">
<ele>354.6</ele>
<time>2024-05-07T12:06:02Z</time>
</trkpt>
<trkpt lat="49.03053277172148" lon="9.647481869906189">
<ele>354.8</ele>
<time>2024-05-07T12:06:03Z</time>
</trkpt>
<trkpt lat="49.03056328184903" lon="9.647441804409029">
<ele>354.8</ele>
<time>2024-05-07T12:06:04Z</time>
</trkpt>
<trkpt lat="49.03059764765203" lon="9.647403666749597">
<ele>354.8</ele>
<time>2024-05-07T12:06:05Z</time>
</trkpt>
<trkpt lat="49.03063201345503" lon="9.647373156622052">
<ele>355</ele>
<time>2024-05-07T12:06:06Z</time>
</trkpt>
<trkpt lat="49.030670151114464" lon="9.647343568503857">
<ele>355</ele>
<time>2024-05-07T12:06:07Z</time>
</trkpt>
<trkpt lat="49.030708288773894" lon="9.647314986214042">
<ele>355.2</ele>
<time>2024-05-07T12:06:08Z</time>
</trkpt>
<trkpt lat="49.030746426433325" lon="9.647288247942924">
<ele>355.2</ele>
<time>2024-05-07T12:06:09Z</time>
</trkpt>
<trkpt lat="49.030788419768214" lon="9.647263521328568">
<ele>355.2</ele>
<time>2024-05-07T12:06:10Z</time>
</trkpt>
<trkpt lat="49.030826557427645" lon="9.64724156074226">
<ele>355.4</ele>
<time>2024-05-07T12:06:11Z</time>
</trkpt>
<trkpt lat="49.0308684669435" lon="9.647211972624063">
<ele>355.4</ele>
<time>2024-05-07T12:06:12Z</time>
</trkpt>
<trkpt lat="49.03090660460293" lon="9.647186240181329">
<ele>355.4</ele>
<time>2024-05-07T12:06:13Z</time>
</trkpt>
<trkpt lat="49.03094859793782" lon="9.647170063108206">
<ele>355.4</ele>
<time>2024-05-07T12:06:14Z</time>
</trkpt>
<trkpt lat="49.03099436312914" lon="9.647152880206704">
<ele>355.4</ele>
<time>2024-05-07T12:06:15Z</time>
</trkpt>
<trkpt lat="49.031040128320456" lon="9.647132847458124">
<ele>355.4</ele>
<time>2024-05-07T12:06:16Z</time>
</trkpt>
<trkpt lat="49.03108589351177" lon="9.64712136425078">
<ele>355.4</ele>
<time>2024-05-07T12:06:17Z</time>
</trkpt>
<trkpt lat="49.03113174252212" lon="9.647111892700195">
<ele>355.4</ele>
<time>2024-05-07T12:06:18Z</time>
</trkpt>
<trkpt lat="49.03118513524532" lon="9.6471013315022">
<ele>355.4</ele>
<time>2024-05-07T12:06:19Z</time>
</trkpt>
<trkpt lat="49.03123090043664" lon="9.647091859951615">
<ele>355.4</ele>
<time>2024-05-07T12:06:20Z</time>
</trkpt>
<trkpt lat="49.03127666562795" lon="9.64707844890654">
<ele>355.4</ele>
<time>2024-05-07T12:06:21Z</time>
</trkpt>
<trkpt lat="49.03132628649473" lon="9.647067049518228">
<ele>355.4</ele>
<time>2024-05-07T12:06:22Z</time>
</trkpt>
<trkpt lat="49.03137582354248" lon="9.647056572139263">
<ele>355.4</ele>
<time>2024-05-07T12:06:23Z</time>
</trkpt>
<trkpt lat="49.03142158873379" lon="9.647049866616726">
<ele>355.4</ele>
<time>2024-05-07T12:06:24Z</time>
</trkpt>
<trkpt lat="49.03147120960057" lon="9.647043161094189">
<ele>355.4</ele>
<time>2024-05-07T12:06:25Z</time>
</trkpt>
<trkpt lat="49.03151697479189" lon="9.647036539390683">
<ele>355.4</ele>
<time>2024-05-07T12:06:26Z</time>
</trkpt>
<trkpt lat="49.0315627399832" lon="9.647023128345609">
<ele>355.4</ele>
<time>2024-05-07T12:06:27Z</time>
</trkpt>
<trkpt lat="49.03160473331809" lon="9.647014578804374">
<ele>355.4</ele>
<time>2024-05-07T12:06:28Z</time>
</trkpt>
<trkpt lat="49.031654354184866" lon="9.64700024574995">
<ele>355.4</ele>
<time>2024-05-07T12:06:29Z</time>
</trkpt>
<trkpt lat="49.03170011937618" lon="9.646971663460135">
<ele>355.4</ele>
<time>2024-05-07T12:06:30Z</time>
</trkpt>
<trkpt lat="49.0317458845675" lon="9.64694308117032">
<ele>355.4</ele>
<time>2024-05-07T12:06:31Z</time>
</trkpt>
<trkpt lat="49.03179542161524" lon="9.646911565214396">
<ele>355.4</ele>
<time>2024-05-07T12:06:32Z</time>
</trkpt>
<trkpt lat="49.03184127062559" lon="9.646875355392694">
<ele>355.4</ele>
<time>2024-05-07T12:06:33Z</time>
</trkpt>
<trkpt lat="49.03188318014145" lon="9.646841995418072">
<ele>355.2</ele>
<time>2024-05-07T12:06:34Z</time>
</trkpt>
<trkpt lat="49.031932801008224" lon="9.64680670760572">
<ele>355.2</ele>
<time>2024-05-07T12:06:35Z</time>
</trkpt>
<trkpt lat="49.03197856619954" lon="9.646770413964989">
<ele>355</ele>
<time>2024-05-07T12:06:36Z</time>
</trkpt>
<trkpt lat="49.03202433139086" lon="9.646731354296207">
<ele>354.8</ele>
<time>2024-05-07T12:06:37Z</time>
</trkpt>
<trkpt lat="49.032070096582174" lon="9.646695060655476">
<ele>354.8</ele>
<time>2024-05-07T12:06:38Z</time>
</trkpt>
<trkpt lat="49.03211586177349" lon="9.646659772843122">
<ele>354.6</ele>
<time>2024-05-07T12:06:39Z</time>
</trkpt>
<trkpt lat="49.03216171078384" lon="9.64663026854396">
<ele>354.6</ele>
<time>2024-05-07T12:06:40Z</time>
</trkpt>
<trkpt lat="49.0322036202997" lon="9.646594980731606">
<ele>354.4</ele>
<time>2024-05-07T12:06:41Z</time>
</trkpt>
<trkpt lat="49.032245613634586" lon="9.646558687090874">
<ele>354.4</ele>
<time>2024-05-07T12:06:42Z</time>
</trkpt>
<trkpt lat="49.03228752315045" lon="9.646516777575016">
<ele>354.4</ele>
<time>2024-05-07T12:06:43Z</time>
</trkpt>
<trkpt lat="49.032325744628906" lon="9.646466234698892">
<ele>354.2</ele>
<time>2024-05-07T12:06:44Z</time>
</trkpt>
<trkpt lat="49.03236388228834" lon="9.646418541669846">
<ele>354.2</ele>
<time>2024-05-07T12:06:45Z</time>
</trkpt>
<trkpt lat="49.03239816427231" lon="9.64636992663145">
<ele>354.2</ele>
<time>2024-05-07T12:06:46Z</time>
</trkpt>
<trkpt lat="49.03243630193174" lon="9.646320305764675">
<ele>354.2</ele>
<time>2024-05-07T12:06:47Z</time>
</trkpt>
<trkpt lat="49.03247066773474" lon="9.64626976288855">
<ele>354.2</ele>
<time>2024-05-07T12:06:48Z</time>
</trkpt>
<trkpt lat="49.032505033537745" lon="9.646221147850156">
<ele>354.2</ele>
<time>2024-05-07T12:06:49Z</time>
</trkpt>
<trkpt lat="49.03253931552172" lon="9.646168677136302">
<ele>354.2</ele>
<time>2024-05-07T12:06:50Z</time>
</trkpt>
<trkpt lat="49.03257368132472" lon="9.64611335657537">
<ele>354.2</ele>
<time>2024-05-07T12:06:51Z</time>
</trkpt>
<trkpt lat="49.03260796330869" lon="9.646057114005089">
<ele>354.2</ele>
<time>2024-05-07T12:06:52Z</time>
</trkpt>
<trkpt lat="49.032642329111695" lon="9.645999865606427">
<ele>354.2</ele>
<time>2024-05-07T12:06:53Z</time>
</trkpt>
<trkpt lat="49.03266906738281" lon="9.645943623036146">
<ele>354.2</ele>
<time>2024-05-07T12:06:54Z</time>
</trkpt>
<trkpt lat="49.03269957751036" lon="9.645885452628136">
<ele>354.2</ele>
<time>2024-05-07T12:06:55Z</time>
</trkpt>
<trkpt lat="49.03272623196244" lon="9.645825354382396">
<ele>354.2</ele>
<time>2024-05-07T12:06:56Z</time>
</trkpt>
<trkpt lat="49.03275674208999" lon="9.645763328298926">
<ele>354.2</ele>
<time>2024-05-07T12:06:57Z</time>
</trkpt>
<trkpt lat="49.032783480361104" lon="9.64569853618741">
<ele>354.2</ele>
<time>2024-05-07T12:06:58Z</time>
</trkpt>
<trkpt lat="49.03281013481319" lon="9.64563651010394">
<ele>354.2</ele>
<time>2024-05-07T12:06:59Z</time>
</trkpt>
<trkpt lat="49.032840728759766" lon="9.64557833969593">
<ele>354.2</ele>
<time>2024-05-07T12:07:00Z</time>
</trkpt>
<trkpt lat="49.03286738321185" lon="9.645521091297269">
<ele>354.2</ele>
<time>2024-05-07T12:07:01Z</time>
</trkpt>
<trkpt lat="49.032897893339396" lon="9.645464848726988">
<ele>354.4</ele>
<time>2024-05-07T12:07:02Z</time>
</trkpt>
<trkpt lat="49.03292463161051" lon="9.64540290646255">
<ele>354.4</ele>
<time>2024-05-07T12:07:03Z</time>
</trkpt>
<trkpt lat="49.03295514173806" lon="9.64534373022616">
<ele>354.6</ele>
<time>2024-05-07T12:07:04Z</time>
</trkpt>
<trkpt lat="49.03298179619014" lon="9.6452846378088">
<ele>354.6</ele>
<time>2024-05-07T12:07:05Z</time>
</trkpt>
<trkpt lat="49.03300853446126" lon="9.64522646740079">
<ele>354.8</ele>
<time>2024-05-07T12:07:06Z</time>
</trkpt>
<trkpt lat="49.03303527273238" lon="9.645165363326669">
<ele>354.8</ele>
<time>2024-05-07T12:07:07Z</time>
</trkpt>
<trkpt lat="49.03306192718446" lon="9.64510534889996">
<ele>354.6</ele>
<time>2024-05-07T12:07:08Z</time>
</trkpt>
<trkpt lat="49.03308866545558" lon="9.64504525065422">
<ele>354.6</ele>
<time>2024-05-07T12:07:09Z</time>
</trkpt>
<trkpt lat="49.033115319907665" lon="9.644983224570751">
<ele>354.6</ele>
<time>2024-05-07T12:07:10Z</time>
</trkpt>
<trkpt lat="49.03314205817878" lon="9.644921282306314">
<ele>354.4</ele>
<time>2024-05-07T12:07:11Z</time>
</trkpt>
<trkpt lat="49.03316871263087" lon="9.644863111898305">
<ele>354.4</ele>
<time>2024-05-07T12:07:12Z</time>
</trkpt>
<trkpt lat="49.03319930657744" lon="9.644802091643214">
<ele>354.4</ele>
<time>2024-05-07T12:07:13Z</time>
</trkpt>
<trkpt lat="49.03322596102953" lon="9.644738137722015">
<ele>354.6</ele>
<time>2024-05-07T12:07:14Z</time>
</trkpt>
<trkpt lat="49.03324884362519" lon="9.644675189629195">
<ele>354.6</ele>
<time>2024-05-07T12:07:15Z</time>
</trkpt>
<trkpt lat="49.033275581896305" lon="9.64461324736476">
<ele>354.6</ele>
<time>2024-05-07T12:07:16Z</time>
</trkpt>
<trkpt lat="49.03330223634839" lon="9.64455314911902">
<ele>354.6</ele>
<time>2024-05-07T12:07:17Z</time>
</trkpt>
<trkpt lat="49.033332746475935" lon="9.64449112303555">
<ele>354.6</ele>
<time>2024-05-07T12:07:18Z</time>
</trkpt>
<trkpt lat="49.03335948474705" lon="9.644428174942732">
<ele>354.6</ele>
<time>2024-05-07T12:07:19Z</time>
</trkpt>
<trkpt lat="49.03338622301817" lon="9.644365310668944">
<ele>354.4</ele>
<time>2024-05-07T12:07:20Z</time>
</trkpt>
<trkpt lat="49.033412877470255" lon="9.644298506900668">
<ele>354.4</ele>
<time>2024-05-07T12:07:21Z</time>
</trkpt>
<trkpt lat="49.0334433875978" lon="9.6442346367985">
<ele>354.4</ele>
<time>2024-05-07T12:07:22Z</time>
</trkpt>
<trkpt lat="49.03346627019346" lon="9.644173616543412">
<ele>354.4</ele>
<time>2024-05-07T12:07:23Z</time>
</trkpt>
<trkpt lat="49.033493008464575" lon="9.644113518297672">
<ele>354.4</ele>
<time>2024-05-07T12:07:24Z</time>
</trkpt>
<trkpt lat="49.03351966291666" lon="9.644049564376472">
<ele>354.2</ele>
<time>2024-05-07T12:07:25Z</time>
</trkpt>
<trkpt lat="49.03354262933135" lon="9.643991393968465">
<ele>354.2</ele>
<time>2024-05-07T12:07:26Z</time>
</trkpt>
<trkpt lat="49.03356928378344" lon="9.643930373713374">
<ele>354.2</ele>
<time>2024-05-07T12:07:27Z</time>
</trkpt>
<trkpt lat="49.03358839452267" lon="9.643868431448936">
<ele>354.2</ele>
<time>2024-05-07T12:07:28Z</time>
</trkpt>
<trkpt lat="49.033611277118325" lon="9.643806405365469">
<ele>354.2</ele>
<time>2024-05-07T12:07:29Z</time>
</trkpt>
<trkpt lat="49.033630304038525" lon="9.643745385110378">
<ele>354.2</ele>
<time>2024-05-07T12:07:30Z</time>
</trkpt>
<trkpt lat="49.03365318663418" lon="9.643681515008211">
<ele>354.2</ele>
<time>2024-05-07T12:07:31Z</time>
</trkpt>
<trkpt lat="49.033672297373414" lon="9.643616639077663">
<ele>354.2</ele>
<time>2024-05-07T12:07:32Z</time>
</trkpt>
<trkpt lat="49.033687552437186" lon="9.643549919128418">
<ele>354.2</ele>
<time>2024-05-07T12:07:33Z</time>
</trkpt>
<trkpt lat="49.03370666317642" lon="9.643481187522411">
<ele>354.2</ele>
<time>2024-05-07T12:07:34Z</time>
</trkpt>
<trkpt lat="49.03372191824019" lon="9.643415389582517">
<ele>354.2</ele>
<time>2024-05-07T12:07:35Z</time>
</trkpt>
<trkpt lat="49.03373717330396" lon="9.64334866963327">
<ele>354.2</ele>
<time>2024-05-07T12:07:36Z</time>
</trkpt>
<trkpt lat="49.033752428367734" lon="9.643280021846294">
<ele>354.2</ele>
<time>2024-05-07T12:07:37Z</time>
</trkpt>
<trkpt lat="49.033767683431506" lon="9.643213218078015">
<ele>354.2</ele>
<time>2024-05-07T12:07:38Z</time>
</trkpt>
<trkpt lat="49.03378293849528" lon="9.643146498128772">
<ele>354.2</ele>
<time>2024-05-07T12:07:39Z</time>
</trkpt>
<trkpt lat="49.03379819355905" lon="9.643081622198224">
<ele>354.2</ele>
<time>2024-05-07T12:07:40Z</time>
</trkpt>
<trkpt lat="49.03381344862282" lon="9.643011968582869">
<ele>354.2</ele>
<time>2024-05-07T12:07:41Z</time>
</trkpt>
<trkpt lat="49.03383247554302" lon="9.642943320795894">
<ele>354.2</ele>
<time>2024-05-07T12:07:42Z</time>
</trkpt>
<trkpt lat="49.03384395875037" lon="9.642880372703075">
<ele>354.2</ele>
<time>2024-05-07T12:07:43Z</time>
</trkpt>
<trkpt lat="49.03385535813868" lon="9.642820358276367">
<ele>354.2</ele>
<time>2024-05-07T12:07:44Z</time>
</trkpt>
<trkpt lat="49.033866841346025" lon="9.642761182039976">
<ele>354.2</ele>
<time>2024-05-07T12:07:45Z</time>
</trkpt>
<trkpt lat="49.03387832455337" lon="9.642709717154505">
<ele>354.2</ele>
<time>2024-05-07T12:07:46Z</time>
</trkpt>
<trkpt lat="49.03388595208526" lon="9.64265531860292">
<ele>354.2</ele>
<time>2024-05-07T12:07:47Z</time>
</trkpt>
<trkpt lat="49.03388972394168" lon="9.642606703564525">
<ele>354.2</ele>
<time>2024-05-07T12:07:48Z</time>
</trkpt>
<trkpt lat="49.0338820964098" lon="9.64255708269775">
<ele>354.2</ele>
<time>2024-05-07T12:07:49Z</time>
</trkpt>
<trkpt lat="49.03386298567057" lon="9.64251701720059">
<ele>354</ele>
<time>2024-05-07T12:07:50Z</time>
</trkpt>
<trkpt lat="49.033828703686595" lon="9.642493212595582">
<ele>354</ele>
<time>2024-05-07T12:07:51Z</time>
</trkpt>
<trkpt lat="49.033790566027164" lon="9.642488434910774">
<ele>354</ele>
<time>2024-05-07T12:07:52Z</time>
</trkpt>
<trkpt lat="49.033748572692275" lon="9.642490362748504">
<ele>354.2</ele>
<time>2024-05-07T12:07:53Z</time>
</trkpt>
<trkpt lat="49.03370666317642" lon="9.642493212595582">
<ele>354.2</ele>
<time>2024-05-07T12:07:54Z</time>
</trkpt>
<trkpt lat="49.033668441697955" lon="9.64249991811812">
<ele>354.2</ele>
<time>2024-05-07T12:07:55Z</time>
</trkpt>
<trkpt lat="49.0336265321821" lon="9.642511317506433">
<ele>354.4</ele>
<time>2024-05-07T12:07:56Z</time>
</trkpt>
<trkpt lat="49.03358453884721" lon="9.642528500407934">
<ele>354.4</ele>
<time>2024-05-07T12:07:57Z</time>
</trkpt>
<trkpt lat="49.03353877365589" lon="9.642543755471706">
<ele>354.4</ele>
<time>2024-05-07T12:07:58Z</time>
</trkpt>
<trkpt lat="49.033496780321" lon="9.642564710229635">
<ele>354.6</ele>
<time>2024-05-07T12:07:59Z</time>
</trkpt>
<trkpt lat="49.033454870805144" lon="9.642584742978215">
<ele>354.6</ele>
<time>2024-05-07T12:08:00Z</time>
</trkpt>
<trkpt lat="49.033412877470255" lon="9.642602847889066">
<ele>354.6</ele>
<time>2024-05-07T12:08:01Z</time>
</trkpt>
<trkpt lat="49.0333709679544" lon="9.64261625893414">
<ele>354.6</ele>
<time>2024-05-07T12:08:02Z</time>
</trkpt>
<trkpt lat="49.033332746475935" lon="9.642629586160185">
<ele>354.6</ele>
<time>2024-05-07T12:08:03Z</time>
</trkpt>
<trkpt lat="49.03329846449196" lon="9.642641991376877">
<ele>354.8</ele>
<time>2024-05-07T12:08:04Z</time>
</trkpt>
<trkpt lat="49.03326032683253" lon="9.642660096287727">
<ele>354.8</ele>
<time>2024-05-07T12:08:05Z</time>
</trkpt>
<trkpt lat="49.03322596102953" lon="9.642668645828962">
<ele>354.8</ele>
<time>2024-05-07T12:08:06Z</time>
</trkpt>
<trkpt lat="49.03319167904556" lon="9.642658168449998">
<ele>354.8</ele>
<time>2024-05-07T12:08:07Z</time>
</trkpt>
<trkpt lat="49.03316108509898" lon="9.642640063539147">
<ele>354.8</ele>
<time>2024-05-07T12:08:08Z</time>
</trkpt>
<trkpt lat="49.03313820250333" lon="9.642611481249332">
<ele>354.8</ele>
<time>2024-05-07T12:08:09Z</time>
</trkpt>
<trkpt lat="49.03311917558312" lon="9.642581893131135">
<ele>354.8</ele>
<time>2024-05-07T12:08:10Z</time>
</trkpt>
<trkpt lat="49.03310392051935" lon="9.642548533156514">
<ele>355</ele>
<time>2024-05-07T12:08:11Z</time>
</trkpt>
<trkpt lat="49.03308866545558" lon="9.642513245344162">
<ele>355</ele>
<time>2024-05-07T12:08:12Z</time>
</trkpt>
<trkpt lat="49.033077182248235" lon="9.64247795753181">
<ele>355.2</ele>
<time>2024-05-07T12:08:13Z</time>
</trkpt>
<trkpt lat="49.03306955471635" lon="9.642443591728806">
<ele>355.4</ele>
<time>2024-05-07T12:08:14Z</time>
</trkpt>
<trkpt lat="49.033058155328035" lon="9.642411153763533">
<ele>355.6</ele>
<time>2024-05-07T12:08:15Z</time>
</trkpt>
<trkpt lat="49.03304667212069" lon="9.642374943941832">
<ele>355.8</ele>
<time>2024-05-07T12:08:16Z</time>
</trkpt>
<trkpt lat="49.03303527273238" lon="9.64233873412013">
<ele>356</ele>
<time>2024-05-07T12:08:17Z</time>
</trkpt>
<trkpt lat="49.03302378952503" lon="9.64229959063232">
<ele>356.2</ele>
<time>2024-05-07T12:08:18Z</time>
</trkpt>
<trkpt lat="49.033016161993146" lon="9.64225952513516">
<ele>356.4</ele>
<time>2024-05-07T12:08:19Z</time>
</trkpt>
<trkpt lat="49.0330046787858" lon="9.642219543457031">
<ele>356.6</ele>
<time>2024-05-07T12:08:20Z</time>
</trkpt>
<trkpt lat="49.032997051253915" lon="9.642183249816298">
<ele>356.8</ele>
<time>2024-05-07T12:08:21Z</time>
</trkpt>
<trkpt lat="49.03298942372203" lon="9.642149889841676">
<ele>357.2</ele>
<time>2024-05-07T12:08:22Z</time>
</trkpt>
<trkpt lat="49.03298179619014" lon="9.642116529867051">
<ele>357.4</ele>
<time>2024-05-07T12:08:23Z</time>
</trkpt>
<trkpt lat="49.03297416865826" lon="9.6420830860734">
<ele>357.8</ele>
<time>2024-05-07T12:08:24Z</time>
</trkpt>
<trkpt lat="49.03296654112637" lon="9.642049726098776">
<ele>358.2</ele>
<time>2024-05-07T12:08:25Z</time>
</trkpt>
<trkpt lat="49.03295891359448" lon="9.642016366124151">
<ele>358.4</ele>
<time>2024-05-07T12:08:26Z</time>
</trkpt>
<trkpt lat="49.03295514173806" lon="9.641980156302452">
<ele>358.8</ele>
<time>2024-05-07T12:08:27Z</time>
</trkpt>
<trkpt lat="49.0329512860626" lon="9.6419448684901">
<ele>359</ele>
<time>2024-05-07T12:08:28Z</time>
</trkpt>
<trkpt lat="49.03294365853071" lon="9.641901953145862">
<ele>359.2</ele>
<time>2024-05-07T12:08:29Z</time>
</trkpt>
<trkpt lat="49.032939886674285" lon="9.64186280965805">
<ele>359.4</ele>
<time>2024-05-07T12:08:30Z</time>
</trkpt>
<trkpt lat="49.032936030998826" lon="9.641821822151542">
<ele>359.8</ele>
<time>2024-05-07T12:08:31Z</time>
</trkpt>
<trkpt lat="49.032936030998826" lon="9.64178653433919">
<ele>360</ele>
<time>2024-05-07T12:08:32Z</time>
</trkpt>
<trkpt lat="49.032939886674285" lon="9.641755102202296">
<ele>360.4</ele>
<time>2024-05-07T12:08:33Z</time>
</trkpt>
<trkpt lat="49.032939886674285" lon="9.641721658408642">
<ele>360.6</ele>
<time>2024-05-07T12:08:34Z</time>
</trkpt>
<trkpt lat="49.03294365853071" lon="9.64168544858694">
<ele>361</ele>
<time>2024-05-07T12:08:35Z</time>
</trkpt>
<trkpt lat="49.03294751420617" lon="9.641652088612318">
<ele>361.2</ele>
<time>2024-05-07T12:08:36Z</time>
</trkpt>
<trkpt lat="49.0329512860626" lon="9.641616800799966">
<ele>361.6</ele>
<time>2024-05-07T12:08:37Z</time>
</trkpt>
<trkpt lat="49.0329512860626" lon="9.641581512987614">
<ele>361.8</ele>
<time>2024-05-07T12:08:38Z</time>
</trkpt>
<trkpt lat="49.0329512860626" lon="9.641554774716496">
<ele>362</ele>
<time>2024-05-07T12:08:39Z</time>
</trkpt>
<trkpt lat="49.03295514173806" lon="9.641529964283109">
<ele>362.4</ele>
<time>2024-05-07T12:08:40Z</time>
</trkpt>
<trkpt lat="49.0329512860626" lon="9.641496604308486">
<ele>362.6</ele>
<time>2024-05-07T12:08:41Z</time>
</trkpt>
<trkpt lat="49.0329512860626" lon="9.641458466649055">
<ele>362.6</ele>
<time>2024-05-07T12:08:42Z</time>
</trkpt>
<trkpt lat="49.0329512860626" lon="9.641423178836703">
<ele>362.8</ele>
<time>2024-05-07T12:08:43Z</time>
</trkpt>
<trkpt lat="49.0329512860626" lon="9.641393590718508">
<ele>363.2</ele>
<time>2024-05-07T12:08:44Z</time>
</trkpt>
<trkpt lat="49.0329512860626" lon="9.641365008428693">
<ele>363.4</ele>
<time>2024-05-07T12:08:45Z</time>
</trkpt>
<trkpt lat="49.03294751420617" lon="9.64133164845407">
<ele>363.8</ele>
<time>2024-05-07T12:08:46Z</time>
</trkpt>
<trkpt lat="49.032939886674285" lon="9.641296360641718">
<ele>364</ele>
<time>2024-05-07T12:08:47Z</time>
</trkpt>
<trkpt lat="49.032936030998826" lon="9.641260067000983">
<ele>364.2</ele>
<time>2024-05-07T12:08:48Z</time>
</trkpt>
<trkpt lat="49.0329322591424" lon="9.641224779188631">
<ele>364.6</ele>
<time>2024-05-07T12:08:49Z</time>
</trkpt>
<trkpt lat="49.032920775935054" lon="9.641188569366932">
<ele>364.8</ele>
<time>2024-05-07T12:08:50Z</time>
</trkpt>
<trkpt lat="49.03291314840317" lon="9.64115713723004">
<ele>365</ele>
<time>2024-05-07T12:08:51Z</time>
</trkpt>
<trkpt lat="49.03290552087128" lon="9.641126627102494">
<ele>365.4</ele>
<time>2024-05-07T12:08:52Z</time>
</trkpt>
<trkpt lat="49.032897893339396" lon="9.641083711758256">
<ele>365.8</ele>
<time>2024-05-07T12:08:53Z</time>
</trkpt>
<trkpt lat="49.03288649395108" lon="9.641039790585635">
<ele>366</ele>
<time>2024-05-07T12:08:54Z</time>
</trkpt>
<trkpt lat="49.03287501074374" lon="9.6409968752414">
<ele>366.4</ele>
<time>2024-05-07T12:08:55Z</time>
</trkpt>
<trkpt lat="49.032863611355424" lon="9.640959659591315">
<ele>366.6</ele>
<time>2024-05-07T12:08:56Z</time>
</trkpt>
<trkpt lat="49.03285598382354" lon="9.640928227454424">
<ele>366.8</ele>
<time>2024-05-07T12:08:57Z</time>
</trkpt>
<trkpt lat="49.03284835629165" lon="9.64089679531753">
<ele>367.2</ele>
<time>2024-05-07T12:08:58Z</time>
</trkpt>
<trkpt lat="49.03284450061619" lon="9.640858573839068">
<ele>367.2</ele>
<time>2024-05-07T12:08:59Z</time>
</trkpt>
<trkpt lat="49.03284450061619" lon="9.64081859216094">
<ele>367.4</ele>
<time>2024-05-07T12:09:00Z</time>
</trkpt>
<trkpt lat="49.032840728759766" lon="9.64077659882605">
<ele>367.6</ele>
<time>2024-05-07T12:09:01Z</time>
</trkpt>
<trkpt lat="49.03284450061619" lon="9.640729827806354">
<ele>367.6</ele>
<time>2024-05-07T12:09:02Z</time>
</trkpt>
<trkpt lat="49.03285212814808" lon="9.64068029075861">
<ele>367.8</ele>
<time>2024-05-07T12:09:03Z</time>
</trkpt>
<trkpt lat="49.032859755679965" lon="9.640634525567291">
<ele>367.8</ele>
<time>2024-05-07T12:09:04Z</time>
</trkpt>
<trkpt lat="49.032863611355424" lon="9.640593454241753">
<ele>367.8</ele>
<time>2024-05-07T12:09:05Z</time>
</trkpt>
<trkpt lat="49.03287123888731" lon="9.640556322410704">
<ele>367.6</ele>
<time>2024-05-07T12:09:06Z</time>
</trkpt>
<trkpt lat="49.03287501074374" lon="9.640515251085162">
<ele>367.4</ele>
<time>2024-05-07T12:09:07Z</time>
</trkpt>
<trkpt lat="49.0328788664192" lon="9.640468563884497">
<ele>367.4</ele>
<time>2024-05-07T12:09:08Z</time>
</trkpt>
<trkpt lat="49.03288263827562" lon="9.640418021008372">
<ele>367.2</ele>
<time>2024-05-07T12:09:09Z</time>
</trkpt>
<trkpt lat="49.0328788664192" lon="9.640359850600362">
<ele>367</ele>
<time>2024-05-07T12:09:10Z</time>
</trkpt>
<trkpt lat="49.03287501074374" lon="9.640296902507544">
<ele>366.8</ele>
<time>2024-05-07T12:09:11Z</time>
</trkpt>
<trkpt lat="49.03287501074374" lon="9.640230098739266">
<ele>366.4</ele>
<time>2024-05-07T12:09:12Z</time>
</trkpt>
<trkpt lat="49.0328788664192" lon="9.640156673267484">
<ele>366.2</ele>
<time>2024-05-07T12:09:13Z</time>
</trkpt>
<trkpt lat="49.0328788664192" lon="9.640078470110891">
<ele>366</ele>
<time>2024-05-07T12:09:14Z</time>
</trkpt>
<trkpt lat="49.03287501074374" lon="9.639989789575338">
<ele>365.6</ele>
<time>2024-05-07T12:09:15Z</time>
</trkpt>
<trkpt lat="49.03287123888731" lon="9.639893481507896">
<ele>365.2</ele>
<time>2024-05-07T12:09:16Z</time>
</trkpt>
<trkpt lat="49.03286738321185" lon="9.639798095449803">
<ele>364.8</ele>
<time>2024-05-07T12:09:17Z</time>
</trkpt>
<trkpt lat="49.032863611355424" lon="9.639701787382364">
<ele>364.4</ele>
<time>2024-05-07T12:09:18Z</time>
</trkpt>
<trkpt lat="49.03286738321185" lon="9.639606401324272">
<ele>363.8</ele>
<time>2024-05-07T12:09:19Z</time>
</trkpt>
<trkpt lat="49.03286738321185" lon="9.63951294310391">
<ele>363.4</ele>
<time>2024-05-07T12:09:20Z</time>
</trkpt>
<trkpt lat="49.032863611355424" lon="9.639426190406084">
<ele>363</ele>
<time>2024-05-07T12:09:21Z</time>
</trkpt>
<trkpt lat="49.032863611355424" lon="9.639347987249494">
<ele>362.6</ele>
<time>2024-05-07T12:09:22Z</time>
</trkpt>
<trkpt lat="49.032859755679965" lon="9.639274561777713">
<ele>362.4</ele>
<time>2024-05-07T12:09:23Z</time>
</trkpt>
<trkpt lat="49.032859755679965" lon="9.639202058315275">
<ele>362</ele>
<time>2024-05-07T12:09:24Z</time>
</trkpt>
<trkpt lat="49.03285598382354" lon="9.639128632843494">
<ele>361.8</ele>
<time>2024-05-07T12:09:25Z</time>
</trkpt>
<trkpt lat="49.03285598382354" lon="9.639061912894247">
<ele>361.6</ele>
<time>2024-05-07T12:09:26Z</time>
</trkpt>
<trkpt lat="49.03285598382354" lon="9.6389970369637">
<ele>361.6</ele>
<time>2024-05-07T12:09:27Z</time>
</trkpt>
<trkpt lat="49.03285598382354" lon="9.638926461338997">
<ele>361.4</ele>
<time>2024-05-07T12:09:28Z</time>
</trkpt>
<trkpt lat="49.032859755679965" lon="9.63886351324618">
<ele>361.4</ele>
<time>2024-05-07T12:09:29Z</time>
</trkpt>
<trkpt lat="49.032859755679965" lon="9.63880157098174">
<ele>361.4</ele>
<time>2024-05-07T12:09:30Z</time>
</trkpt>
<trkpt lat="49.032863611355424" lon="9.638741472736">
<ele>361.6</ele>
<time>2024-05-07T12:09:31Z</time>
</trkpt>
<trkpt lat="49.03287501074374" lon="9.63868330232799">
<ele>361.6</ele>
<time>2024-05-07T12:09:32Z</time>
</trkpt>
<trkpt lat="49.03289412148297" lon="9.63862320408225">
<ele>361.6</ele>
<time>2024-05-07T12:09:33Z</time>
</trkpt>
<trkpt lat="49.032920775935054" lon="9.638571739196776">
<ele>361.8</ele>
<time>2024-05-07T12:09:34Z</time>
</trkpt>
<trkpt lat="49.03294365853071" lon="9.63852496817708">
<ele>362</ele>
<time>2024-05-07T12:09:35Z</time>
</trkpt>
<trkpt lat="49.03297416865826" lon="9.638478197157385">
<ele>362.4</ele>
<time>2024-05-07T12:09:36Z</time>
</trkpt>
<trkpt lat="49.03300853446126" lon="9.638429582118988">
<ele>362.4</ele>
<time>2024-05-07T12:09:37Z</time>
</trkpt>
<trkpt lat="49.03304667212069" lon="9.638382894918324">
<ele>362.6</ele>
<time>2024-05-07T12:09:38Z</time>
</trkpt>
<trkpt lat="49.03308480978012" lon="9.638335201889277">
<ele>362.8</ele>
<time>2024-05-07T12:09:39Z</time>
</trkpt>
<trkpt lat="49.03312294743955" lon="9.63828843086958">
<ele>362.8</ele>
<time>2024-05-07T12:09:40Z</time>
</trkpt>
<trkpt lat="49.03316494077444" lon="9.638237887993457">
<ele>363</ele>
<time>2024-05-07T12:09:41Z</time>
</trkpt>
<trkpt lat="49.03320307843387" lon="9.638181645423174">
<ele>363</ele>
<time>2024-05-07T12:09:42Z</time>
</trkpt>
<trkpt lat="49.03324507176876" lon="9.638126324862242">
<ele>363.2</ele>
<time>2024-05-07T12:09:43Z</time>
</trkpt>
<trkpt lat="49.03327935375273" lon="9.638066226616502">
<ele>363.4</ele>
<time>2024-05-07T12:09:44Z</time>
</trkpt>
<trkpt lat="49.033313719555736" lon="9.638001434504986">
<ele>363.4</ele>
<time>2024-05-07T12:09:45Z</time>
</trkpt>
<trkpt lat="49.03334800153971" lon="9.637934630736709">
<ele>363.4</ele>
<time>2024-05-07T12:09:46Z</time>
</trkpt>
<trkpt lat="49.033374739810824" lon="9.637863133102655">
<ele>363.4</ele>
<time>2024-05-07T12:09:47Z</time>
</trkpt>
<trkpt lat="49.033393850550056" lon="9.637788701802492">
<ele>363.4</ele>
<time>2024-05-07T12:09:48Z</time>
</trkpt>
<trkpt lat="49.033416733145714" lon="9.63771628215909">
<ele>363.4</ele>
<time>2024-05-07T12:09:49Z</time>
</trkpt>
<trkpt lat="49.03343961574137" lon="9.637646628543736">
<ele>363.2</ele>
<time>2024-05-07T12:09:50Z</time>
</trkpt>
<trkpt lat="49.03346249833703" lon="9.63757697492838">
<ele>363</ele>
<time>2024-05-07T12:09:51Z</time>
</trkpt>
<trkpt lat="49.03348152525723" lon="9.637504555284975">
<ele>362.8</ele>
<time>2024-05-07T12:09:52Z</time>
</trkpt>
<trkpt lat="49.03350440785289" lon="9.637432051822543">
<ele>362.6</ele>
<time>2024-05-07T12:09:53Z</time>
</trkpt>
<trkpt lat="49.03352737426758" lon="9.637356698513033">
<ele>362.4</ele>
<time>2024-05-07T12:09:54Z</time>
</trkpt>
<trkpt lat="49.03355025686323" lon="9.637283273041248">
<ele>362.4</ele>
<time>2024-05-07T12:09:55Z</time>
</trkpt>
<trkpt lat="49.033573139458895" lon="9.637209847569466">
<ele>362.2</ele>
<time>2024-05-07T12:09:56Z</time>
</trkpt>
<trkpt lat="49.03359602205455" lon="9.637136422097685">
<ele>362</ele>
<time>2024-05-07T12:09:57Z</time>
</trkpt>
<trkpt lat="49.03361890465021" lon="9.637066768482327">
<ele>362</ele>
<time>2024-05-07T12:09:58Z</time>
</trkpt>
<trkpt lat="49.03364178724587" lon="9.636991498991849">
<ele>362</ele>
<time>2024-05-07T12:09:59Z</time>
</trkpt>
<trkpt lat="49.03366466984153" lon="9.636919917538762">
<ele>362</ele>
<time>2024-05-07T12:10:00Z</time>
</trkpt>
<trkpt lat="49.03369132429361" lon="9.63684649206698">
<ele>361.8</ele>
<time>2024-05-07T12:10:01Z</time>
</trkpt>
<trkpt lat="49.03371806256473" lon="9.636774994432926">
<ele>361.8</ele>
<time>2024-05-07T12:10:02Z</time>
</trkpt>
<trkpt lat="49.03374094516039" lon="9.636701568961143">
<ele>361.8</ele>
<time>2024-05-07T12:10:03Z</time>
</trkpt>
<trkpt lat="49.03377145528793" lon="9.636634765192866">
<ele>361.6</ele>
<time>2024-05-07T12:10:04Z</time>
</trkpt>
<trkpt lat="49.03380959294736" lon="9.63656804524362">
<ele>361.6</ele>
<time>2024-05-07T12:10:05Z</time>
</trkpt>
<trkpt lat="49.03384395875037" lon="9.636500319465997">
<ele>361.6</ele>
<time>2024-05-07T12:10:06Z</time>
</trkpt>
<trkpt lat="49.0338820964098" lon="9.636436449363828">
<ele>361.6</ele>
<time>2024-05-07T12:10:07Z</time>
</trkpt>
<trkpt lat="49.03392023406923" lon="9.63637350127101">
<ele>361.6</ele>
<time>2024-05-07T12:10:08Z</time>
</trkpt>
<trkpt lat="49.03395837172866" lon="9.63631147518754">
<ele>361.4</ele>
<time>2024-05-07T12:10:09Z</time>
</trkpt>
<trkpt lat="49.03399650938809" lon="9.6362513769418">
<ele>361.4</ele>
<time>2024-05-07T12:10:10Z</time>
</trkpt>
<trkpt lat="49.03403850272298" lon="9.636188428848982">
<ele>361.4</ele>
<time>2024-05-07T12:10:11Z</time>
</trkpt>
<trkpt lat="49.03407286852598" lon="9.636124558746817">
<ele>361.2</ele>
<time>2024-05-07T12:10:12Z</time>
</trkpt>
<trkpt lat="49.03410715050995" lon="9.636061610653996">
<ele>361.2</ele>
<time>2024-05-07T12:10:13Z</time>
</trkpt>
<trkpt lat="49.03414151631296" lon="9.63599966838956">
<ele>361.2</ele>
<time>2024-05-07T12:10:14Z</time>
</trkpt>
<trkpt lat="49.03417965397239" lon="9.63593672029674">
<ele>361</ele>
<time>2024-05-07T12:10:15Z</time>
</trkpt>
<trkpt lat="49.03421401977539" lon="9.635874694213271">
<ele>361</ele>
<time>2024-05-07T12:10:16Z</time>
</trkpt>
<trkpt lat="49.03424830175936" lon="9.635811746120453">
<ele>361</ele>
<time>2024-05-07T12:10:17Z</time>
</trkpt>
<trkpt lat="49.03428643941879" lon="9.635753575712442">
<ele>361</ele>
<time>2024-05-07T12:10:18Z</time>
</trkpt>
<trkpt lat="49.03432843275368" lon="9.635696411132813">
<ele>361</ele>
<time>2024-05-07T12:10:19Z</time>
</trkpt>
<trkpt lat="49.03436657041311" lon="9.635644862428308">
<ele>360.8</ele>
<time>2024-05-07T12:10:20Z</time>
</trkpt>
<trkpt lat="49.03441233560443" lon="9.635602869093418">
<ele>360.8</ele>
<time>2024-05-07T12:10:21Z</time>
</trkpt>
<trkpt lat="49.034458100795746" lon="9.635575292631984">
<ele>360.6</ele>
<time>2024-05-07T12:10:22Z</time>
</trkpt>
<trkpt lat="49.03450772166252" lon="9.63556188158691">
<ele>360.4</ele>
<time>2024-05-07T12:10:23Z</time>
</trkpt>
<trkpt lat="49.03455348685384" lon="9.635556181892753">
<ele>360.4</ele>
<time>2024-05-07T12:10:24Z</time>
</trkpt>
<trkpt lat="49.03460310772061" lon="9.635549476370215">
<ele>360.2</ele>
<time>2024-05-07T12:10:25Z</time>
</trkpt>
<trkpt lat="49.034656500443816" lon="9.635548554360868">
<ele>360</ele>
<time>2024-05-07T12:10:26Z</time>
</trkpt>
<trkpt lat="49.03470603749156" lon="9.635553332045674">
<ele>360</ele>
<time>2024-05-07T12:10:27Z</time>
</trkpt>
<trkpt lat="49.034755658358335" lon="9.635555259883404">
<ele>360</ele>
<time>2024-05-07T12:10:28Z</time>
</trkpt>
<trkpt lat="49.03480142354965" lon="9.635553332045674">
<ele>359.8</ele>
<time>2024-05-07T12:10:29Z</time>
</trkpt>
<trkpt lat="49.034854816272855" lon="9.635553332045674">
<ele>359.8</ele>
<time>2024-05-07T12:10:30Z</time>
</trkpt>
<trkpt lat="49.03490443713963" lon="9.635555259883404">
<ele>359.8</ele>
<time>2024-05-07T12:10:31Z</time>
</trkpt>
<trkpt lat="49.03495782986283" lon="9.63555995374918">
<ele>359.8</ele>
<time>2024-05-07T12:10:32Z</time>
</trkpt>
<trkpt lat="49.035015078261495" lon="9.635564731433988">
<ele>359.8</ele>
<time>2024-05-07T12:10:33Z</time>
</trkpt>
<trkpt lat="49.0350684709847" lon="9.635573364794254">
<ele>359.8</ele>
<time>2024-05-07T12:10:34Z</time>
</trkpt>
<trkpt lat="49.03511809185147" lon="9.635584764182568">
<ele>359.8</ele>
<time>2024-05-07T12:10:35Z</time>
</trkpt>
<trkpt lat="49.0351752564311" lon="9.635598175227642">
<ele>359.8</ele>
<time>2024-05-07T12:10:36Z</time>
</trkpt>
<trkpt lat="49.03523627668619" lon="9.635616280138493">
<ele>359.6</ele>
<time>2024-05-07T12:10:37Z</time>
</trkpt>
<trkpt lat="49.03529352508485" lon="9.6356400847435">
<ele>359.6</ele>
<time>2024-05-07T12:10:38Z</time>
</trkpt>
<trkpt lat="49.0353584010154" lon="9.635664895176888">
<ele>359.4</ele>
<time>2024-05-07T12:10:39Z</time>
</trkpt>
<trkpt lat="49.03541942127049" lon="9.635684927925467">
<ele>359.4</ele>
<time>2024-05-07T12:10:40Z</time>
</trkpt>
<trkpt lat="49.03548429720104" lon="9.635693477466702">
<ele>359.2</ele>
<time>2024-05-07T12:10:41Z</time>
</trkpt>
<trkpt lat="49.03554908931255" lon="9.635691633448005">
<ele>359.2</ele>
<time>2024-05-07T12:10:42Z</time>
</trkpt>
<trkpt lat="49.0356139652431" lon="9.635676378384233">
<ele>359</ele>
<time>2024-05-07T12:10:43Z</time>
</trkpt>
<trkpt lat="49.03567498549819" lon="9.635651567950845">
<ele>358.8</ele>
<time>2024-05-07T12:10:44Z</time>
</trkpt>
<trkpt lat="49.03573600575328" lon="9.635624829679728">
<ele>358.6</ele>
<time>2024-05-07T12:10:45Z</time>
</trkpt>
<trkpt lat="49.03578948229551" lon="9.635598175227642">
<ele>358.6</ele>
<time>2024-05-07T12:10:46Z</time>
</trkpt>
<trkpt lat="49.03584664687514" lon="9.635571436956525">
<ele>358.4</ele>
<time>2024-05-07T12:10:47Z</time>
</trkpt>
<trkpt lat="49.035900039598346" lon="9.635544698685408">
<ele>358</ele>
<time>2024-05-07T12:10:48Z</time>
</trkpt>
<trkpt lat="49.03594966046512" lon="9.635519972071052">
<ele>357.8</ele>
<time>2024-05-07T12:10:49Z</time>
</trkpt>
<trkpt lat="49.03600305318832" lon="9.635497089475392">
<ele>357.6</ele>
<time>2024-05-07T12:10:50Z</time>
</trkpt>
<trkpt lat="49.0360526740551" lon="9.635473201051354">
<ele>357.4</ele>
<time>2024-05-07T12:10:51Z</time>
</trkpt>
<trkpt lat="49.036102294921875" lon="9.635457023978232">
<ele>357.2</ele>
<time>2024-05-07T12:10:52Z</time>
</trkpt>
<trkpt lat="49.03615183196962" lon="9.63544176891446">
<ele>357</ele>
<time>2024-05-07T12:10:53Z</time>
</trkpt>
<trkpt lat="49.036201452836394" lon="9.63542458601296">
<ele>357</ele>
<time>2024-05-07T12:10:54Z</time>
</trkpt>
<trkpt lat="49.03624721802771" lon="9.63540455326438">
<ele>356.8</ele>
<time>2024-05-07T12:10:55Z</time>
</trkpt>
<trkpt lat="49.03629298321903" lon="9.635386448353527">
<ele>356.8</ele>
<time>2024-05-07T12:10:56Z</time>
</trkpt>
<trkpt lat="49.03633497655392" lon="9.635373037308456">
<ele>356.6</ele>
<time>2024-05-07T12:10:57Z</time>
</trkpt>
<trkpt lat="49.036376886069775" lon="9.63536163792014">
<ele>356.6</ele>
<time>2024-05-07T12:10:58Z</time>
</trkpt>
<trkpt lat="49.036415023729205" lon="9.635353088378906">
<ele>356.4</ele>
<time>2024-05-07T12:10:59Z</time>
</trkpt>
<trkpt lat="49.03645324520767" lon="9.635346382856367">
<ele>356.2</ele>
<time>2024-05-07T12:11:00Z</time>
</trkpt>
<trkpt lat="49.03648752719164" lon="9.635334899649024">
<ele>356.2</ele>
<time>2024-05-07T12:11:01Z</time>
</trkpt>
<trkpt lat="49.03651426546275" lon="9.635316794738172">
<ele>356</ele>
<time>2024-05-07T12:11:02Z</time>
</trkpt>
<trkpt lat="49.03653329238296" lon="9.635290140286088">
<ele>356</ele>
<time>2024-05-07T12:11:03Z</time>
</trkpt>
<trkpt lat="49.0365447755903" lon="9.63526340201497">
<ele>356</ele>
<time>2024-05-07T12:11:04Z</time>
</trkpt>
<trkpt lat="49.03655240312219" lon="9.635230042040348">
<ele>356</ele>
<time>2024-05-07T12:11:05Z</time>
</trkpt>
<trkpt lat="49.03655240312219" lon="9.635191904380918">
<ele>355.8</ele>
<time>2024-05-07T12:11:06Z</time>
</trkpt>
<trkpt lat="49.0365447755903" lon="9.635149911046028">
<ele>355.8</ele>
<time>2024-05-07T12:11:07Z</time>
</trkpt>
<trkpt lat="49.03652952052653" lon="9.635103223845364">
<ele>355.8</ele>
<time>2024-05-07T12:11:08Z</time>
</trkpt>
<trkpt lat="49.03651426546275" lon="9.635054524987936">
<ele>355.8</ele>
<time>2024-05-07T12:11:09Z</time>
</trkpt>
<trkpt lat="49.036499010398984" lon="9.635004987940192">
<ele>355.8</ele>
<time>2024-05-07T12:11:10Z</time>
</trkpt>
<trkpt lat="49.03648375533521" lon="9.634951511397958">
<ele>355.8</ele>
<time>2024-05-07T12:11:11Z</time>
</trkpt>
<trkpt lat="49.03647227212787" lon="9.634900046512485">
<ele>355.8</ele>
<time>2024-05-07T12:11:12Z</time>
</trkpt>
<trkpt lat="49.03645324520767" lon="9.634848581627011">
<ele>356</ele>
<time>2024-05-07T12:11:13Z</time>
</trkpt>
<trkpt lat="49.03643790632486" lon="9.634797032922506">
<ele>356.2</ele>
<time>2024-05-07T12:11:14Z</time>
</trkpt>
<trkpt lat="49.03642265126109" lon="9.634743640199304">
<ele>356.2</ele>
<time>2024-05-07T12:11:15Z</time>
</trkpt>
<trkpt lat="49.03641125187278" lon="9.63469116948545">
<ele>356.4</ele>
<time>2024-05-07T12:11:16Z</time>
</trkpt>
<trkpt lat="49.03640362434089" lon="9.634641632437706">
<ele>356.6</ele>
<time>2024-05-07T12:11:17Z</time>
</trkpt>
<trkpt lat="49.03640739619732" lon="9.634598717093468">
<ele>356.8</ele>
<time>2024-05-07T12:11:18Z</time>
</trkpt>
<trkpt lat="49.03642650693655" lon="9.63457005098462">
<ele>357</ele>
<time>2024-05-07T12:11:19Z</time>
</trkpt>
<trkpt lat="49.036457017064095" lon="9.634554795920849">
<ele>357.2</ele>
<time>2024-05-07T12:11:20Z</time>
</trkpt>
<trkpt lat="49.0364913828671" lon="9.634541468694806">
<ele>357.4</ele>
<time>2024-05-07T12:11:21Z</time>
</trkpt>
<trkpt lat="49.03652952052653" lon="9.634526213631034">
<ele>357.4</ele>
<time>2024-05-07T12:11:22Z</time>
</trkpt>
<trkpt lat="49.03656765818596" lon="9.634508108720183">
<ele>357.4</ele>
<time>2024-05-07T12:11:23Z</time>
</trkpt>
<trkpt lat="49.03660956770182" lon="9.63449184782803">
<ele>357.6</ele>
<time>2024-05-07T12:11:24Z</time>
</trkpt>
<trkpt lat="49.036651561036706" lon="9.634478520601988">
<ele>357.6</ele>
<time>2024-05-07T12:11:25Z</time>
</trkpt>
<trkpt lat="49.03668969869614" lon="9.634466115385294">
<ele>357.6</ele>
<time>2024-05-07T12:11:26Z</time>
</trkpt>
<trkpt lat="49.03673546388745" lon="9.63445471599698">
<ele>357.8</ele>
<time>2024-05-07T12:11:27Z</time>
</trkpt>
<trkpt lat="49.03678508475423" lon="9.634447088465096">
<ele>357.8</ele>
<time>2024-05-07T12:11:28Z</time>
</trkpt>
<trkpt lat="49.036830849945545" lon="9.634440382942556">
<ele>358</ele>
<time>2024-05-07T12:11:29Z</time>
</trkpt>
<trkpt lat="49.036872843280435" lon="9.634429905563591">
<ele>358</ele>
<time>2024-05-07T12:11:30Z</time>
</trkpt>
<trkpt lat="49.03691860847175" lon="9.634421272203326">
<ele>358</ele>
<time>2024-05-07T12:11:31Z</time>
</trkpt>
<trkpt lat="49.03696437366307" lon="9.634411800652742">
<ele>358</ele>
<time>2024-05-07T12:11:32Z</time>
</trkpt>
<trkpt lat="49.03700636699796" lon="9.634401239454746">
<ele>358.2</ele>
<time>2024-05-07T12:11:33Z</time>
</trkpt>
<trkpt lat="49.037048276513815" lon="9.634391767904162">
<ele>358.2</ele>
<time>2024-05-07T12:11:34Z</time>
</trkpt>
<trkpt lat="49.03709789738059" lon="9.634381290525198">
<ele>358.2</ele>
<time>2024-05-07T12:11:35Z</time>
</trkpt>
<trkpt lat="49.03713989071548" lon="9.634369807317851">
<ele>358.2</ele>
<time>2024-05-07T12:11:36Z</time>
</trkpt>
<trkpt lat="49.0371856559068" lon="9.634366957470776">
<ele>358</ele>
<time>2024-05-07T12:11:37Z</time>
</trkpt>
<trkpt lat="49.03723142109811" lon="9.634381290525198">
<ele>358</ele>
<time>2024-05-07T12:11:38Z</time>
</trkpt>
<trkpt lat="49.03727333061397" lon="9.634423200041056">
<ele>357.8</ele>
<time>2024-05-07T12:11:39Z</time>
</trkpt>
<trkpt lat="49.03731155209243" lon="9.63447181507945">
<ele>357.8</ele>
<time>2024-05-07T12:11:40Z</time>
</trkpt>
<trkpt lat="49.03734206221998" lon="9.634519508108497">
<ele>357.6</ele>
<time>2024-05-07T12:11:41Z</time>
</trkpt>
<trkpt lat="49.03737257234752" lon="9.634563429281116">
<ele>357.6</ele>
<time>2024-05-07T12:11:42Z</time>
</trkpt>
<trkpt lat="49.037403082475066" lon="9.634585306048391">
<ele>357.6</ele>
<time>2024-05-07T12:11:43Z</time>
</trkpt>
<trkpt lat="49.03743736445904" lon="9.6345729008317">
<ele>357.4</ele>
<time>2024-05-07T12:11:44Z</time>
</trkpt>
<trkpt lat="49.03746787458658" lon="9.634538618847728">
<ele>357.4</ele>
<time>2024-05-07T12:11:45Z</time>
</trkpt>
<trkpt lat="49.0374946128577" lon="9.634492853656411">
<ele>357.2</ele>
<time>2024-05-07T12:11:46Z</time>
</trkpt>
<trkpt lat="49.03752512298525" lon="9.634449938312171">
<ele>357</ele>
<time>2024-05-07T12:11:47Z</time>
</trkpt>
<trkpt lat="49.03755186125636" lon="9.634401239454746">
<ele>356.8</ele>
<time>2024-05-07T12:11:48Z</time>
</trkpt>
<trkpt lat="49.03757851570845" lon="9.63435455225408">
<ele>356.8</ele>
<time>2024-05-07T12:11:49Z</time>
</trkpt>
<trkpt lat="49.03760902583599" lon="9.634306859225036">
<ele>356.6</ele>
<time>2024-05-07T12:11:50Z</time>
</trkpt>
<trkpt lat="49.037639535963535" lon="9.63425539433956">
<ele>356.4</ele>
<time>2024-05-07T12:11:51Z</time>
</trkpt>
<trkpt lat="49.03767012991011" lon="9.634204851463435">
<ele>356.4</ele>
<time>2024-05-07T12:11:52Z</time>
</trkpt>
<trkpt lat="49.03770441189408" lon="9.634155230596662">
<ele>356.2</ele>
<time>2024-05-07T12:11:53Z</time>
</trkpt>
<trkpt lat="49.037738777697086" lon="9.634104687720535">
<ele>356</ele>
<time>2024-05-07T12:11:54Z</time>
</trkpt>
<trkpt lat="49.03776928782463" lon="9.634053222835064">
<ele>356</ele>
<time>2024-05-07T12:11:55Z</time>
</trkpt>
<trkpt lat="49.037799797952175" lon="9.633997902274132">
<ele>356</ele>
<time>2024-05-07T12:11:56Z</time>
</trkpt>
<trkpt lat="49.03783030807972" lon="9.633945431560278">
<ele>356</ele>
<time>2024-05-07T12:11:57Z</time>
</trkpt>
<trkpt lat="49.037860818207264" lon="9.633894888684154">
<ele>356.2</ele>
<time>2024-05-07T12:11:58Z</time>
</trkpt>
<trkpt lat="49.03789518401027" lon="9.63384627364576">
<ele>356.2</ele>
<time>2024-05-07T12:11:59Z</time>
</trkpt>
<trkpt lat="49.03792569413781" lon="9.633794724941254">
<ele>356.2</ele>
<time>2024-05-07T12:12:00Z</time>
</trkpt>
<trkpt lat="49.03795997612178" lon="9.63374326005578">
<ele>356.2</ele>
<time>2024-05-07T12:12:01Z</time>
</trkpt>
<trkpt lat="49.03799057006836" lon="9.633689867332578">
<ele>356.4</ele>
<time>2024-05-07T12:12:02Z</time>
</trkpt>
<trkpt lat="49.03802485205233" lon="9.633638318628073">
<ele>356.4</ele>
<time>2024-05-07T12:12:03Z</time>
</trkpt>
<trkpt lat="49.038055362179875" lon="9.633589703589678">
<ele>356.4</ele>
<time>2024-05-07T12:12:04Z</time>
</trkpt>
<trkpt lat="49.03808972798288" lon="9.63354293256998">
<ele>356.4</ele>
<time>2024-05-07T12:12:05Z</time>
</trkpt>
<trkpt lat="49.03811638243496" lon="9.633495323359966">
<ele>356.4</ele>
<time>2024-05-07T12:12:06Z</time>
</trkpt>
<trkpt lat="49.03814312070608" lon="9.633453330025077">
<ele>356.6</ele>
<time>2024-05-07T12:12:07Z</time>
</trkpt>
<trkpt lat="49.0381698589772" lon="9.633417120203376">
<ele>356.6</ele>
<time>2024-05-07T12:12:08Z</time>
</trkpt>
<trkpt lat="49.03820036910474" lon="9.63338845409453">
<ele>356.8</ele>
<time>2024-05-07T12:12:09Z</time>
</trkpt>
<trkpt lat="49.03822702355683" lon="9.633357021957636">
<ele>357</ele>
<time>2024-05-07T12:12:10Z</time>
</trkpt>
<trkpt lat="49.03825753368437" lon="9.633321734145284">
<ele>357</ele>
<time>2024-05-07T12:12:11Z</time>
</trkpt>
<trkpt lat="49.03828804381192" lon="9.633286446332932">
<ele>357.2</ele>
<time>2024-05-07T12:12:12Z</time>
</trkpt>
<trkpt lat="49.03831855393946" lon="9.63325115852058">
<ele>357.2</ele>
<time>2024-05-07T12:12:13Z</time>
</trkpt>
<trkpt lat="49.03834529221058" lon="9.633212015032768">
<ele>357.4</ele>
<time>2024-05-07T12:12:14Z</time>
</trkpt>
<trkpt lat="49.03837580233812" lon="9.633174883201718">
<ele>357.4</ele>
<time>2024-05-07T12:12:15Z</time>
</trkpt>
<trkpt lat="49.03841016814113" lon="9.633138589560986">
<ele>357.6</ele>
<time>2024-05-07T12:12:16Z</time>
</trkpt>
<trkpt lat="49.03843682259321" lon="9.633099529892206">
<ele>357.8</ele>
<time>2024-05-07T12:12:17Z</time>
</trkpt>
<trkpt lat="49.03846733272076" lon="9.633056614547968">
<ele>358</ele>
<time>2024-05-07T12:12:18Z</time>
</trkpt>
<trkpt lat="49.0384978428483" lon="9.633011771366">
<ele>358.2</ele>
<time>2024-05-07T12:12:19Z</time>
</trkpt>
<trkpt lat="49.03852843679488" lon="9.632956450805068">
<ele>358.4</ele>
<time>2024-05-07T12:12:20Z</time>
</trkpt>
<trkpt lat="49.03855894692242" lon="9.632904985919597">
<ele>358.6</ele>
<time>2024-05-07T12:12:21Z</time>
</trkpt>
<trkpt lat="49.03859322890639" lon="9.632856287062168">
<ele>358.6</ele>
<time>2024-05-07T12:12:22Z</time>
</trkpt>
<trkpt lat="49.03861996717751" lon="9.632808677852154">
<ele>358.8</ele>
<time>2024-05-07T12:12:23Z</time>
</trkpt>
<trkpt lat="49.038650477305055" lon="9.632759978994727">
<ele>359</ele>
<time>2024-05-07T12:12:24Z</time>
</trkpt>
<trkpt lat="49.0386809874326" lon="9.632711363956332">
<ele>359</ele>
<time>2024-05-07T12:12:25Z</time>
</trkpt>
<trkpt lat="49.03871149756014" lon="9.63265989907086">
<ele>359.2</ele>
<time>2024-05-07T12:12:26Z</time>
</trkpt>
<trkpt lat="49.03873823583126" lon="9.632611200213432">
<ele>359.4</ele>
<time>2024-05-07T12:12:27Z</time>
</trkpt>
<trkpt lat="49.038764890283346" lon="9.632568284869194">
<ele>359.4</ele>
<time>2024-05-07T12:12:28Z</time>
</trkpt>
<trkpt lat="49.03879162855446" lon="9.632523525506258">
<ele>359.6</ele>
<time>2024-05-07T12:12:29Z</time>
</trkpt>
<trkpt lat="49.03881451115012" lon="9.63247675448656">
<ele>359.8</ele>
<time>2024-05-07T12:12:30Z</time>
</trkpt>
<trkpt lat="49.038845021277666" lon="9.632428139448166">
<ele>359.8</ele>
<time>2024-05-07T12:12:31Z</time>
</trkpt>
<trkpt lat="49.03887175954878" lon="9.632385224103928">
<ele>360</ele>
<time>2024-05-07T12:12:32Z</time>
</trkpt>
<trkpt lat="49.03890226967633" lon="9.63234038092196">
<ele>360.2</ele>
<time>2024-05-07T12:12:33Z</time>
</trkpt>
<trkpt lat="49.03893277980387" lon="9.632296543568373">
<ele>360.2</ele>
<time>2024-05-07T12:12:34Z</time>
</trkpt>
<trkpt lat="49.03895566239953" lon="9.632256478071213">
<ele>360.4</ele>
<time>2024-05-07T12:12:35Z</time>
</trkpt>
<trkpt lat="49.038982316851616" lon="9.632220268249512">
<ele>360.4</ele>
<time>2024-05-07T12:12:36Z</time>
</trkpt>
<trkpt lat="49.03901668265462" lon="9.632175425067544">
<ele>360.6</ele>
<time>2024-05-07T12:12:37Z</time>
</trkpt>
<trkpt lat="49.03905482031405" lon="9.632120104506612">
<ele>360.6</ele>
<time>2024-05-07T12:12:38Z</time>
</trkpt>
<trkpt lat="49.03909295797348" lon="9.632075261324644">
<ele>360.6</ele>
<time>2024-05-07T12:12:39Z</time>
</trkpt>
<trkpt lat="49.03913495130837" lon="9.63204190135002">
<ele>360.6</ele>
<time>2024-05-07T12:12:40Z</time>
</trkpt>
<trkpt lat="49.03918834403157" lon="9.632018012925982">
<ele>360.6</ele>
<time>2024-05-07T12:12:41Z</time>
</trkpt>
<trkpt lat="49.039241736754775" lon="9.631997980177402">
<ele>360.6</ele>
<time>2024-05-07T12:12:42Z</time>
</trkpt>
<trkpt lat="49.03929898515344" lon="9.631979875266552">
<ele>360.6</ele>
<time>2024-05-07T12:12:43Z</time>
</trkpt>
<trkpt lat="49.039363861083984" lon="9.631953220814466">
<ele>360.4</ele>
<time>2024-05-07T12:12:44Z</time>
</trkpt>
<trkpt lat="49.0394286531955" lon="9.631936959922314">
<ele>360.4</ele>
<time>2024-05-07T12:12:45Z</time>
</trkpt>
<trkpt lat="49.03948967345059" lon="9.631923632696273">
<ele>360.2</ele>
<time>2024-05-07T12:12:46Z</time>
</trkpt>
<trkpt lat="49.03955454938114" lon="9.631915083155036">
<ele>360.2</ele>
<time>2024-05-07T12:12:47Z</time>
</trkpt>
<trkpt lat="49.039615569636226" lon="9.63190452195704">
<ele>360</ele>
<time>2024-05-07T12:12:48Z</time>
</trkpt>
<trkpt lat="49.03967281803489" lon="9.631890272721648">
<ele>359.8</ele>
<time>2024-05-07T12:12:49Z</time>
</trkpt>
<trkpt lat="49.03973006643355" lon="9.631863534450533">
<ele>359.8</ele>
<time>2024-05-07T12:12:50Z</time>
</trkpt>
<trkpt lat="49.03977960348129" lon="9.63182631880045">
<ele>359.6</ele>
<time>2024-05-07T12:12:51Z</time>
</trkpt>
<trkpt lat="49.03982536867261" lon="9.631783403456213">
<ele>359.4</ele>
<time>2024-05-07T12:12:52Z</time>
</trkpt>
<trkpt lat="49.0398673620075" lon="9.631734788417816">
<ele>359.2</ele>
<time>2024-05-07T12:12:53Z</time>
</trkpt>
<trkpt lat="49.0399017278105" lon="9.631683323532345">
<ele>359.4</ele>
<time>2024-05-07T12:12:54Z</time>
</trkpt>
<trkpt lat="49.03993223793805" lon="9.631620375439525">
<ele>359.4</ele>
<time>2024-05-07T12:12:55Z</time>
</trkpt>
<trkpt lat="49.03996274806559" lon="9.631553571671247">
<ele>359.6</ele>
<time>2024-05-07T12:12:56Z</time>
</trkpt>
<trkpt lat="49.03998940251768" lon="9.631488779559731">
<ele>359.6</ele>
<time>2024-05-07T12:12:57Z</time>
</trkpt>
<trkpt lat="49.040016140788794" lon="9.631421975791454">
<ele>359.4</ele>
<time>2024-05-07T12:12:58Z</time>
</trkpt>
<trkpt lat="49.04003516770899" lon="9.631349556148052">
<ele>359.4</ele>
<time>2024-05-07T12:12:59Z</time>
</trkpt>
<trkpt lat="49.04005813412368" lon="9.631277974694967">
<ele>359.2</ele>
<time>2024-05-07T12:13:00Z</time>
</trkpt>
<trkpt lat="49.04007716104388" lon="9.631208404898643">
<ele>359.2</ele>
<time>2024-05-07T12:13:01Z</time>
</trkpt>
<trkpt lat="49.04010004363954" lon="9.631139673292637">
<ele>359.2</ele>
<time>2024-05-07T12:13:02Z</time>
</trkpt>
<trkpt lat="49.04011529870331" lon="9.63107488118112">
<ele>359</ele>
<time>2024-05-07T12:13:03Z</time>
</trkpt>
<trkpt lat="49.040130553767085" lon="9.631010005250571">
<ele>358.8</ele>
<time>2024-05-07T12:13:04Z</time>
</trkpt>
<trkpt lat="49.04014966450632" lon="9.630947057157757">
<ele>358.8</ele>
<time>2024-05-07T12:13:05Z</time>
</trkpt>
<trkpt lat="49.04016491957009" lon="9.630883187055588">
<ele>358.6</ele>
<time>2024-05-07T12:13:06Z</time>
</trkpt>
<trkpt lat="49.04018394649029" lon="9.630823088809848">
<ele>358.4</ele>
<time>2024-05-07T12:13:07Z</time>
</trkpt>
<trkpt lat="49.040210684761405" lon="9.630769696086643">
<ele>358.4</ele>
<time>2024-05-07T12:13:08Z</time>
</trkpt>
<trkpt lat="49.04024505056441" lon="9.630729630589483">
<ele>358.4</ele>
<time>2024-05-07T12:13:09Z</time>
</trkpt>
<trkpt lat="49.040286960080266" lon="9.630713453516364">
<ele>358.2</ele>
<time>2024-05-07T12:13:10Z</time>
</trkpt>
<trkpt lat="49.04033272527158" lon="9.630708675831556">
<ele>358.2</ele>
<time>2024-05-07T12:13:11Z</time>
</trkpt>
<trkpt lat="49.04037471860647" lon="9.63070197030902">
<ele>358</ele>
<time>2024-05-07T12:13:12Z</time>
</trkpt>
<trkpt lat="49.0404128562659" lon="9.630696270614862">
<ele>358</ele>
<time>2024-05-07T12:13:13Z</time>
</trkpt>
<trkpt lat="49.04045484960079" lon="9.630693420767784">
<ele>357.8</ele>
<time>2024-05-07T12:13:14Z</time>
</trkpt>
<trkpt lat="49.04048913158476" lon="9.630688643082976">
<ele>357.8</ele>
<time>2024-05-07T12:13:15Z</time>
</trkpt>
<trkpt lat="49.04052349738777" lon="9.63068193756044">
<ele>357.6</ele>
<time>2024-05-07T12:13:16Z</time>
</trkpt>
<trkpt lat="49.04055015183985" lon="9.63068193756044">
<ele>357.6</ele>
<time>2024-05-07T12:13:17Z</time>
</trkpt>
<trkpt lat="49.04057311825454" lon="9.63068000972271">
<ele>357.6</ele>
<time>2024-05-07T12:13:18Z</time>
</trkpt>
<trkpt lat="49.04059977270663" lon="9.630676237866282">
<ele>357.4</ele>
<time>2024-05-07T12:13:19Z</time>
</trkpt>
<trkpt lat="49.040626510977745" lon="9.630671460181476">
<ele>357.4</ele>
<time>2024-05-07T12:13:20Z</time>
</trkpt>
<trkpt lat="49.04065702110529" lon="9.630666682496669">
<ele>357.6</ele>
<time>2024-05-07T12:13:21Z</time>
</trkpt>
<trkpt lat="49.040683675557375" lon="9.63065997697413">
<ele>357.6</ele>
<time>2024-05-07T12:13:22Z</time>
</trkpt>
<trkpt lat="49.04071418568492" lon="9.630656205117702">
<ele>357.6</ele>
<time>2024-05-07T12:13:23Z</time>
</trkpt>
<trkpt lat="49.040744779631495" lon="9.630653355270624">
<ele>357.6</ele>
<time>2024-05-07T12:13:24Z</time>
</trkpt>
<trkpt lat="49.04077143408358" lon="9.630648577585816">
<ele>357.6</ele>
<time>2024-05-07T12:13:25Z</time>
</trkpt>
<trkpt lat="49.040801944211125" lon="9.63064187206328">
<ele>357.6</ele>
<time>2024-05-07T12:13:26Z</time>
</trkpt>
<trkpt lat="49.04084008187056" lon="9.630635250359774">
<ele>357.6</ele>
<time>2024-05-07T12:13:27Z</time>
</trkpt>
<trkpt lat="49.040878219529986" lon="9.63064187206328">
<ele>357.6</ele>
<time>2024-05-07T12:13:28Z</time>
</trkpt>
<trkpt lat="49.04091258533299" lon="9.63065997697413">
<ele>357.6</ele>
<time>2024-05-07T12:13:29Z</time>
</trkpt>
<trkpt lat="49.040943095460534" lon="9.630689565092323">
<ele>357.6</ele>
<time>2024-05-07T12:13:30Z</time>
</trkpt>
<trkpt lat="49.04096983373165" lon="9.630728708580136">
<ele>357.6</ele>
<time>2024-05-07T12:13:31Z</time>
</trkpt>
<trkpt lat="49.04099271632731" lon="9.630766846239569">
<ele>357.6</ele>
<time>2024-05-07T12:13:32Z</time>
</trkpt>
<trkpt lat="49.04101559892297" lon="9.630803056061268">
<ele>357.4</ele>
<time>2024-05-07T12:13:33Z</time>
</trkpt>
<trkpt lat="49.04103462584317" lon="9.63084027171135">
<ele>357.6</ele>
<time>2024-05-07T12:13:34Z</time>
</trkpt>
<trkpt lat="49.0410537365824" lon="9.63087840937078">
<ele>357.6</ele>
<time>2024-05-07T12:13:35Z</time>
</trkpt>
<trkpt lat="49.0410727635026" lon="9.63091461919248">
<ele>357.6</ele>
<time>2024-05-07T12:13:36Z</time>
</trkpt>
<trkpt lat="49.04109187424183" lon="9.630948062986135">
<ele>357.6</ele>
<time>2024-05-07T12:13:37Z</time>
</trkpt>
<trkpt lat="49.04111098498106" lon="9.630983350798488">
<ele>357.6</ele>
<time>2024-05-07T12:13:38Z</time>
</trkpt>
<trkpt lat="49.04113001190126" lon="9.631021488457918">
<ele>357.6</ele>
<time>2024-05-07T12:13:39Z</time>
</trkpt>
<trkpt lat="49.04114526696503" lon="9.63105677627027">
<ele>357.6</ele>
<time>2024-05-07T12:13:40Z</time>
</trkpt>
<trkpt lat="49.04116437770426" lon="9.631090136244891">
<ele>357.6</ele>
<time>2024-05-07T12:13:41Z</time>
</trkpt>
<trkpt lat="49.04118340462446" lon="9.631124418228865">
<ele>357.4</ele>
<time>2024-05-07T12:13:42Z</time>
</trkpt>
<trkpt lat="49.04120628722012" lon="9.631159706041217">
<ele>357.4</ele>
<time>2024-05-07T12:13:43Z</time>
</trkpt>
<trkpt lat="49.041236797347665" lon="9.631188372150064">
<ele>357.2</ele>
<time>2024-05-07T12:13:44Z</time>
</trkpt>
<trkpt lat="49.04126353561878" lon="9.631196921691298">
<ele>357.2</ele>
<time>2024-05-07T12:13:45Z</time>
</trkpt>
<trkpt lat="49.0412902738899" lon="9.631181666627526">
<ele>357</ele>
<time>2024-05-07T12:13:46Z</time>
</trkpt>
<trkpt lat="49.04131315648556" lon="9.631153084337711">
<ele>357</ele>
<time>2024-05-07T12:13:47Z</time>
</trkpt>
<trkpt lat="49.041336039081216" lon="9.631128273904324">
<ele>356.8</ele>
<time>2024-05-07T12:13:48Z</time>
</trkpt>
<trkpt lat="49.041358921676874" lon="9.631106313318014">
<ele>356.8</ele>
<time>2024-05-07T12:13:49Z</time>
</trkpt>
<trkpt lat="49.04138180427253" lon="9.631083430722356">
<ele>356.8</ele>
<time>2024-05-07T12:13:50Z</time>
</trkpt>
<trkpt lat="49.04140845872462" lon="9.63105677627027">
<ele>356.6</ele>
<time>2024-05-07T12:13:51Z</time>
</trkpt>
<trkpt lat="49.041435196995735" lon="9.631021488457918">
<ele>356.6</ele>
<time>2024-05-07T12:13:52Z</time>
</trkpt>
<trkpt lat="49.041454307734966" lon="9.630988044664264">
<ele>356.6</ele>
<time>2024-05-07T12:13:53Z</time>
</trkpt>
<trkpt lat="49.041473334655166" lon="9.63095468468964">
<ele>356.6</ele>
<time>2024-05-07T12:13:54Z</time>
</trkpt>
<trkpt lat="49.0414924453944" lon="9.63091654703021">
<ele>356.8</ele>
<time>2024-05-07T12:13:55Z</time>
</trkpt>
<trkpt lat="49.04150384478271" lon="9.63087455369532">
<ele>356.8</ele>
<time>2024-05-07T12:13:56Z</time>
</trkpt>
<trkpt lat="49.04151147231459" lon="9.630825016647576">
<ele>357</ele>
<time>2024-05-07T12:13:57Z</time>
</trkpt>
<trkpt lat="49.04151909984648" lon="9.630775395780802">
<ele>357</ele>
<time>2024-05-07T12:13:58Z</time>
</trkpt>
<trkpt lat="49.04152672737837" lon="9.630718231201172">
<ele>357</ele>
<time>2024-05-07T12:13:59Z</time>
</trkpt>
<trkpt lat="49.04153821058571" lon="9.63066291064024">
<ele>357.2</ele>
<time>2024-05-07T12:14:00Z</time>
</trkpt>
<trkpt lat="49.0415458381176" lon="9.630608512088656">
<ele>357.2</ele>
<time>2024-05-07T12:14:01Z</time>
</trkpt>
<trkpt lat="49.04155723750591" lon="9.630557047203183">
<ele>357.2</ele>
<time>2024-05-07T12:14:02Z</time>
</trkpt>
<trkpt lat="49.04156872071326" lon="9.63050650432706">
<ele>357.2</ele>
<time>2024-05-07T12:14:03Z</time>
</trkpt>
<trkpt lat="49.04158012010157" lon="9.630461661145093">
<ele>357.4</ele>
<time>2024-05-07T12:14:04Z</time>
</trkpt>
<trkpt lat="49.04158774763346" lon="9.630414890125394">
<ele>357.4</ele>
<time>2024-05-07T12:14:05Z</time>
</trkpt>
<trkpt lat="49.041595458984375" lon="9.630368202924728">
<ele>357.4</ele>
<time>2024-05-07T12:14:06Z</time>
</trkpt>
<trkpt lat="49.04160685837269" lon="9.630321431905031">
<ele>357.4</ele>
<time>2024-05-07T12:14:07Z</time>
</trkpt>
<trkpt lat="49.04161834158003" lon="9.630273738875983">
<ele>357.4</ele>
<time>2024-05-07T12:14:08Z</time>
</trkpt>
<trkpt lat="49.04162974096835" lon="9.63022512383759">
<ele>357.6</ele>
<time>2024-05-07T12:14:09Z</time>
</trkpt>
<trkpt lat="49.04164122417569" lon="9.630178436636925">
<ele>357.6</ele>
<time>2024-05-07T12:14:10Z</time>
</trkpt>
<trkpt lat="49.041652623564005" lon="9.630129737779498">
<ele>357.8</ele>
<time>2024-05-07T12:14:11Z</time>
</trkpt>
<trkpt lat="49.04166410677135" lon="9.630083050578833">
<ele>357.8</ele>
<time>2024-05-07T12:14:12Z</time>
</trkpt>
<trkpt lat="49.04167936183512" lon="9.630035357549788">
<ele>357.8</ele>
<time>2024-05-07T12:14:13Z</time>
</trkpt>
<trkpt lat="49.041694616898894" lon="9.629984814673662">
<ele>358</ele>
<time>2024-05-07T12:14:14Z</time>
</trkpt>
<trkpt lat="49.04170987196267" lon="9.62993142195046">
<ele>358</ele>
<time>2024-05-07T12:14:15Z</time>
</trkpt>
<trkpt lat="49.04172512702644" lon="9.629878029227257">
<ele>358.2</ele>
<time>2024-05-07T12:14:16Z</time>
</trkpt>
<trkpt lat="49.04173652641475" lon="9.629823630675672">
<ele>358.2</ele>
<time>2024-05-07T12:14:17Z</time>
</trkpt>
<trkpt lat="49.04175178147853" lon="9.62976831011474">
<ele>358.4</ele>
<time>2024-05-07T12:14:18Z</time>
</trkpt>
<trkpt lat="49.04176326468587" lon="9.62971298955381">
<ele>358.4</ele>
<time>2024-05-07T12:14:19Z</time>
</trkpt>
<trkpt lat="49.04177851974964" lon="9.629656746983528">
<ele>358.4</ele>
<time>2024-05-07T12:14:20Z</time>
</trkpt>
<trkpt lat="49.041790002956986" lon="9.629601426422596">
<ele>358.6</ele>
<time>2024-05-07T12:14:21Z</time>
</trkpt>
<trkpt lat="49.04180525802076" lon="9.629545183852317">
<ele>358.6</ele>
<time>2024-05-07T12:14:22Z</time>
</trkpt>
<trkpt lat="49.04182051308453" lon="9.629487013444304">
<ele>358.6</ele>
<time>2024-05-07T12:14:23Z</time>
</trkpt>
<trkpt lat="49.0418357681483" lon="9.629427837207912">
<ele>358.6</ele>
<time>2024-05-07T12:14:24Z</time>
</trkpt>
<trkpt lat="49.0418547950685" lon="9.629373522475362">
<ele>358.6</ele>
<time>2024-05-07T12:14:25Z</time>
</trkpt>
<trkpt lat="49.041870050132275" lon="9.62931820191443">
<ele>358.6</ele>
<time>2024-05-07T12:14:26Z</time>
</trkpt>
<trkpt lat="49.04188153333962" lon="9.629261959344149">
<ele>358.8</ele>
<time>2024-05-07T12:14:27Z</time>
</trkpt>
<trkpt lat="49.041889160871506" lon="9.629203788936138">
<ele>358.8</ele>
<time>2024-05-07T12:14:28Z</time>
</trkpt>
<trkpt lat="49.04189293272793" lon="9.629141762852669">
<ele>359</ele>
<time>2024-05-07T12:14:29Z</time>
</trkpt>
<trkpt lat="49.04190056025982" lon="9.629077892750502">
<ele>359.2</ele>
<time>2024-05-07T12:14:30Z</time>
</trkpt>
<trkpt lat="49.04191581532359" lon="9.629014944657683">
<ele>359.2</ele>
<time>2024-05-07T12:14:31Z</time>
</trkpt>
<trkpt lat="49.04193878173828" lon="9.62896155193448">
<ele>359.4</ele>
<time>2024-05-07T12:14:32Z</time>
</trkpt>
<trkpt lat="49.04197306372225" lon="9.628910003229976">
<ele>359.4</ele>
<time>2024-05-07T12:14:33Z</time>
</trkpt>
<trkpt lat="49.0420035738498" lon="9.62886331602931">
<ele>359.2</ele>
<time>2024-05-07T12:14:34Z</time>
</trkpt>
<trkpt lat="49.0420379396528" lon="9.628816545009611">
<ele>359.2</ele>
<time>2024-05-07T12:14:35Z</time>
</trkpt>
<trkpt lat="49.042068449780345" lon="9.628778407350184">
<ele>359</ele>
<time>2024-05-07T12:14:36Z</time>
</trkpt>
<trkpt lat="49.04209895990789" lon="9.628738341853024">
<ele>359</ele>
<time>2024-05-07T12:14:37Z</time>
</trkpt>
<trkpt lat="49.04212569817901" lon="9.628691654652355">
<ele>358.8</ele>
<time>2024-05-07T12:14:38Z</time>
</trkpt>
<trkpt lat="49.04215235263109" lon="9.62864488363266">
<ele>358.8</ele>
<time>2024-05-07T12:14:39Z</time>
</trkpt>
<trkpt lat="49.04217909090221" lon="9.628598196431994">
<ele>358.8</ele>
<time>2024-05-07T12:14:40Z</time>
</trkpt>
<trkpt lat="49.042205745354295" lon="9.628555281087756">
<ele>358.6</ele>
<time>2024-05-07T12:14:41Z</time>
</trkpt>
<trkpt lat="49.04223248362541" lon="9.62850658223033">
<ele>358.6</ele>
<time>2024-05-07T12:14:42Z</time>
</trkpt>
<trkpt lat="49.04225536622107" lon="9.628457045182586">
<ele>358.6</ele>
<time>2024-05-07T12:14:43Z</time>
</trkpt>
<trkpt lat="49.04228210449219" lon="9.62840650230646">
<ele>358.4</ele>
<time>2024-05-07T12:14:44Z</time>
</trkpt>
<trkpt lat="49.04230875894427" lon="9.628354953601956">
<ele>358.4</ele>
<time>2024-05-07T12:14:45Z</time>
</trkpt>
<trkpt lat="49.04233549721539" lon="9.628301560878754">
<ele>358.4</ele>
<time>2024-05-07T12:14:46Z</time>
</trkpt>
<trkpt lat="49.04236215166747" lon="9.628248168155553">
<ele>358.4</ele>
<time>2024-05-07T12:14:47Z</time>
</trkpt>
<trkpt lat="49.04239266179502" lon="9.628196703270078">
<ele>358.4</ele>
<time>2024-05-07T12:14:48Z</time>
</trkpt>
<trkpt lat="49.04241940006614" lon="9.628145154565573">
<ele>358.4</ele>
<time>2024-05-07T12:14:49Z</time>
</trkpt>
<trkpt lat="49.04244228266179" lon="9.62808983400464">
<ele>358.4</ele>
<time>2024-05-07T12:14:50Z</time>
</trkpt>
<trkpt lat="49.042465165257454" lon="9.628038369119167">
<ele>358.4</ele>
<time>2024-05-07T12:14:51Z</time>
</trkpt>
<trkpt lat="49.04249953106046" lon="9.627989754080772">
<ele>358.4</ele>
<time>2024-05-07T12:14:52Z</time>
</trkpt>
<trkpt lat="49.042530041188" lon="9.627942983061075">
<ele>358.4</ele>
<time>2024-05-07T12:14:53Z</time>
</trkpt>
<trkpt lat="49.042560551315546" lon="9.62789529003203">
<ele>358.4</ele>
<time>2024-05-07T12:14:54Z</time>
</trkpt>
<trkpt lat="49.04259106144309" lon="9.627844747155905">
<ele>358.4</ele>
<time>2024-05-07T12:14:55Z</time>
</trkpt>
<trkpt lat="49.042621571570635" lon="9.62779805995524">
<ele>358.4</ele>
<time>2024-05-07T12:14:56Z</time>
</trkpt>
<trkpt lat="49.04264830984175" lon="9.627751288935542">
<ele>358.4</ele>
<time>2024-05-07T12:14:57Z</time>
</trkpt>
<trkpt lat="49.0426788199693" lon="9.627706445753574">
<ele>358.4</ele>
<time>2024-05-07T12:14:58Z</time>
</trkpt>
<trkpt lat="49.04270933009684" lon="9.627661686390638">
<ele>358.4</ele>
<time>2024-05-07T12:14:59Z</time>
</trkpt>
<trkpt lat="49.042739840224385" lon="9.62761684320867">
<ele>358.4</ele>
<time>2024-05-07T12:15:00Z</time>
</trkpt>
<trkpt lat="49.04277035035193" lon="9.627570072188972">
<ele>358.4</ele>
<time>2024-05-07T12:15:01Z</time>
</trkpt>
<trkpt lat="49.04280471615493" lon="9.627523384988308">
<ele>358.4</ele>
<time>2024-05-07T12:15:02Z</time>
</trkpt>
<trkpt lat="49.04283522628248" lon="9.62747954763472">
<ele>358.4</ele>
<time>2024-05-07T12:15:03Z</time>
</trkpt>
<trkpt lat="49.04287336394191" lon="9.627443253993988">
<ele>358.4</ele>
<time>2024-05-07T12:15:04Z</time>
</trkpt>
<trkpt lat="49.04290764592588" lon="9.62740134447813">
<ele>358.4</ele>
<time>2024-05-07T12:15:05Z</time>
</trkpt>
<trkpt lat="49.04294201172888" lon="9.627358429133892">
<ele>358.4</ele>
<time>2024-05-07T12:15:06Z</time>
</trkpt>
<trkpt lat="49.04298014938831" lon="9.627313585951924">
<ele>358.6</ele>
<time>2024-05-07T12:15:07Z</time>
</trkpt>
<trkpt lat="49.043018287047744" lon="9.627273520454764">
<ele>358.6</ele>
<time>2024-05-07T12:15:08Z</time>
</trkpt>
<trkpt lat="49.04306028038263" lon="9.627235382795334">
<ele>358.8</ele>
<time>2024-05-07T12:15:09Z</time>
</trkpt>
<trkpt lat="49.04310218989849" lon="9.627200094982982">
<ele>359</ele>
<time>2024-05-07T12:15:10Z</time>
</trkpt>
<trkpt lat="49.04314418323338" lon="9.6271628793329">
<ele>359</ele>
<time>2024-05-07T12:15:11Z</time>
</trkpt>
<trkpt lat="49.04318617656827" lon="9.627128597348928">
<ele>359</ele>
<time>2024-05-07T12:15:12Z</time>
</trkpt>
<trkpt lat="49.04322808608413" lon="9.627096159383656">
<ele>359.2</ele>
<time>2024-05-07T12:15:13Z</time>
</trkpt>
<trkpt lat="49.04327007941902" lon="9.62706657126546">
<ele>359.2</ele>
<time>2024-05-07T12:15:14Z</time>
</trkpt>
<trkpt lat="49.04330821707845" lon="9.627039832994342">
<ele>359.2</ele>
<time>2024-05-07T12:15:15Z</time>
</trkpt>
<trkpt lat="49.04334635473788" lon="9.627017956227064">
<ele>359.4</ele>
<time>2024-05-07T12:15:16Z</time>
</trkpt>
<trkpt lat="49.04338449239731" lon="9.626995073631406">
<ele>359.4</ele>
<time>2024-05-07T12:15:17Z</time>
</trkpt>
<trkpt lat="49.04342263005674" lon="9.626971185207369">
<ele>359.4</ele>
<time>2024-05-07T12:15:18Z</time>
</trkpt>
<trkpt lat="49.04346462339163" lon="9.626948302611709">
<ele>359.4</ele>
<time>2024-05-07T12:15:19Z</time>
</trkpt>
<trkpt lat="49.04350661672652" lon="9.626930197700858">
<ele>359.6</ele>
<time>2024-05-07T12:15:20Z</time>
</trkpt>
<trkpt lat="49.043552381917834" lon="9.626914942637086">
<ele>359.6</ele>
<time>2024-05-07T12:15:21Z</time>
</trkpt>
<trkpt lat="49.04359814710915" lon="9.62690538726747">
<ele>359.8</ele>
<time>2024-05-07T12:15:22Z</time>
</trkpt>
<trkpt lat="49.04364005662501" lon="9.626894909888506">
<ele>360</ele>
<time>2024-05-07T12:15:23Z</time>
</trkpt>
<trkpt lat="49.0436820499599" lon="9.626888204365969">
<ele>360</ele>
<time>2024-05-07T12:15:24Z</time>
</trkpt>
<trkpt lat="49.04372404329479" lon="9.626879654824734">
<ele>360</ele>
<time>2024-05-07T12:15:25Z</time>
</trkpt>
<trkpt lat="49.043765952810645" lon="9.626870099455118">
<ele>360.2</ele>
<time>2024-05-07T12:15:26Z</time>
</trkpt>
<trkpt lat="49.04381171800196" lon="9.626859622076154">
<ele>360.4</ele>
<time>2024-05-07T12:15:27Z</time>
</trkpt>
<trkpt lat="49.04385371133685" lon="9.626851994544268">
<ele>360.6</ele>
<time>2024-05-07T12:15:28Z</time>
</trkpt>
<trkpt lat="49.04389570467174" lon="9.626843445003033">
<ele>360.8</ele>
<time>2024-05-07T12:15:29Z</time>
</trkpt>
<trkpt lat="49.04394146986306" lon="9.626834811642766">
<ele>361</ele>
<time>2024-05-07T12:15:30Z</time>
</trkpt>
<trkpt lat="49.043983379378915" lon="9.626826262101533">
<ele>361.2</ele>
<time>2024-05-07T12:15:31Z</time>
</trkpt>
<trkpt lat="49.04402160085738" lon="9.626814778894186">
<ele>361.4</ele>
<time>2024-05-07T12:15:32Z</time>
</trkpt>
<trkpt lat="49.044067366048694" lon="9.62680522352457">
<ele>361.6</ele>
<time>2024-05-07T12:15:33Z</time>
</trkpt>
<trkpt lat="49.04410927556455" lon="9.626792902126908">
<ele>361.8</ele>
<time>2024-05-07T12:15:34Z</time>
</trkpt>
<trkpt lat="49.04415504075587" lon="9.626785274595022">
<ele>362</ele>
<time>2024-05-07T12:15:35Z</time>
</trkpt>
<trkpt lat="49.04419703409076" lon="9.626774713397026">
<ele>362.2</ele>
<time>2024-05-07T12:15:36Z</time>
</trkpt>
<trkpt lat="49.04424665495753" lon="9.626765241846442">
<ele>362.4</ele>
<time>2024-05-07T12:15:37Z</time>
</trkpt>
<trkpt lat="49.04429242014885" lon="9.626752836629748">
<ele>362.6</ele>
<time>2024-05-07T12:15:38Z</time>
</trkpt>
<trkpt lat="49.044338185340166" lon="9.626739425584674">
<ele>362.8</ele>
<time>2024-05-07T12:15:39Z</time>
</trkpt>
<trkpt lat="49.04438395053148" lon="9.626727104187012">
<ele>362.8</ele>
<time>2024-05-07T12:15:40Z</time>
</trkpt>
<trkpt lat="49.04443357139826" lon="9.626713693141935">
<ele>363</ele>
<time>2024-05-07T12:15:41Z</time>
</trkpt>
<trkpt lat="49.044483108446" lon="9.626701287925243">
<ele>363</ele>
<time>2024-05-07T12:15:42Z</time>
</trkpt>
<trkpt lat="49.04453658498824" lon="9.62668988853693">
<ele>363.2</ele>
<time>2024-05-07T12:15:43Z</time>
</trkpt>
<trkpt lat="49.04458997771144" lon="9.626676477491856">
<ele>363.2</ele>
<time>2024-05-07T12:15:44Z</time>
</trkpt>
<trkpt lat="49.04464337043464" lon="9.626661222428083">
<ele>363.2</ele>
<time>2024-05-07T12:15:45Z</time>
</trkpt>
<trkpt lat="49.044696763157845" lon="9.626645045354962">
<ele>363.2</ele>
<time>2024-05-07T12:15:46Z</time>
</trkpt>
<trkpt lat="49.044754011556506" lon="9.62662979029119">
<ele>363.2</ele>
<time>2024-05-07T12:15:47Z</time>
</trkpt>
<trkpt lat="49.044811176136136" lon="9.626620234921576">
<ele>363</ele>
<time>2024-05-07T12:15:48Z</time>
</trkpt>
<trkpt lat="49.0448684245348" lon="9.62660782970488">
<ele>363</ele>
<time>2024-05-07T12:15:49Z</time>
</trkpt>
<trkpt lat="49.044921817258" lon="9.626598358154297">
<ele>362.8</ele>
<time>2024-05-07T12:15:50Z</time>
</trkpt>
<trkpt lat="49.04497906565666" lon="9.62658972479403">
<ele>362.6</ele>
<time>2024-05-07T12:15:51Z</time>
</trkpt>
<trkpt lat="49.04503631405533" lon="9.626583019271491">
<ele>362.4</ele>
<time>2024-05-07T12:15:52Z</time>
</trkpt>
<trkpt lat="49.045089706778526" lon="9.626578325405715">
<ele>362.2</ele>
<time>2024-05-07T12:15:53Z</time>
</trkpt>
<trkpt lat="49.04514309950173" lon="9.62657161988318">
<ele>362</ele>
<time>2024-05-07T12:15:54Z</time>
</trkpt>
<trkpt lat="49.04519649222493" lon="9.626564914360642">
<ele>361.8</ele>
<time>2024-05-07T12:15:55Z</time>
</trkpt>
<trkpt lat="49.045249884948134" lon="9.626556364819407">
<ele>361.6</ele>
<time>2024-05-07T12:15:56Z</time>
</trkpt>
<trkpt lat="49.04530327767134" lon="9.62654965929687">
<ele>361.4</ele>
<time>2024-05-07T12:15:57Z</time>
</trkpt>
<trkpt lat="49.04535667039454" lon="9.626540103927256">
<ele>361.4</ele>
<time>2024-05-07T12:15:58Z</time>
</trkpt>
<trkpt lat="49.045410146936774" lon="9.626521999016404">
<ele>361.2</ele>
<time>2024-05-07T12:15:59Z</time>
</trkpt>
<trkpt lat="49.04545591212809" lon="9.62649534456432">
<ele>361.2</ele>
<time>2024-05-07T12:16:00Z</time>
</trkpt>
<trkpt lat="49.04550167731941" lon="9.626480089500546">
<ele>361</ele>
<time>2024-05-07T12:16:01Z</time>
</trkpt>
<trkpt lat="49.0455436706543" lon="9.626484867185354">
<ele>361</ele>
<time>2024-05-07T12:16:02Z</time>
</trkpt>
<trkpt lat="49.04557795263827" lon="9.62650959379971">
<ele>360.8</ele>
<time>2024-05-07T12:16:03Z</time>
</trkpt>
<trkpt lat="49.04560846276581" lon="9.626546809449792">
<ele>360.8</ele>
<time>2024-05-07T12:16:04Z</time>
</trkpt>
<trkpt lat="49.04562757350504" lon="9.626578325405715">
<ele>360.8</ele>
<time>2024-05-07T12:16:05Z</time>
</trkpt>
<trkpt lat="49.04565808363259" lon="9.626604979857802">
<ele>360.8</ele>
<time>2024-05-07T12:16:06Z</time>
</trkpt>
<trkpt lat="49.045684738084674" lon="9.626621240749955">
<ele>360.8</ele>
<time>2024-05-07T12:16:07Z</time>
</trkpt>
<trkpt lat="49.04571533203125" lon="9.626633562147616">
<ele>360.6</ele>
<time>2024-05-07T12:16:08Z</time>
</trkpt>
<trkpt lat="49.045745842158794" lon="9.626636495813727">
<ele>360.6</ele>
<time>2024-05-07T12:16:09Z</time>
</trkpt>
<trkpt lat="49.045780124142766" lon="9.626645045354962">
<ele>360.6</ele>
<time>2024-05-07T12:16:10Z</time>
</trkpt>
<trkpt lat="49.04581448994577" lon="9.6266517508775">
<ele>360.6</ele>
<time>2024-05-07T12:16:11Z</time>
</trkpt>
<trkpt lat="49.04584877192974" lon="9.626654600724578">
<ele>360.6</ele>
<time>2024-05-07T12:16:12Z</time>
</trkpt>
<trkpt lat="49.045883137732744" lon="9.626661222428083">
<ele>360.6</ele>
<time>2024-05-07T12:16:13Z</time>
</trkpt>
<trkpt lat="49.04591750353575" lon="9.626674633473158">
<ele>360.6</ele>
<time>2024-05-07T12:16:14Z</time>
</trkpt>
<trkpt lat="49.04595178551972" lon="9.6266879606992">
<ele>360.6</ele>
<time>2024-05-07T12:16:15Z</time>
</trkpt>
<trkpt lat="49.04598615132272" lon="9.626701287925243">
<ele>360.6</ele>
<time>2024-05-07T12:16:16Z</time>
</trkpt>
<trkpt lat="49.04601666145027" lon="9.626698438078163">
<ele>360.6</ele>
<time>2024-05-07T12:16:17Z</time>
</trkpt>
<trkpt lat="49.046039544045925" lon="9.626683183014393">
<ele>360.6</ele>
<time>2024-05-07T12:16:18Z</time>
</trkpt>
<trkpt lat="49.04606242664158" lon="9.626656528562307">
<ele>360.6</ele>
<time>2024-05-07T12:16:19Z</time>
</trkpt>
<trkpt lat="49.04609293676913" lon="9.62662786245346">
<ele>360.6</ele>
<time>2024-05-07T12:16:20Z</time>
</trkpt>
<trkpt lat="49.04612344689667" lon="9.626613613218067">
<ele>360.8</ele>
<time>2024-05-07T12:16:21Z</time>
</trkpt>
<trkpt lat="49.04615781269968" lon="9.626613613218067">
<ele>360.8</ele>
<time>2024-05-07T12:16:22Z</time>
</trkpt>
<trkpt lat="49.04618832282722" lon="9.626620234921576">
<ele>360.8</ele>
<time>2024-05-07T12:16:23Z</time>
</trkpt>
<trkpt lat="49.046214977279305" lon="9.626641273498535">
<ele>360.6</ele>
<time>2024-05-07T12:16:24Z</time>
</trkpt>
<trkpt lat="49.04624171555042" lon="9.626665078103542">
<ele>360.6</ele>
<time>2024-05-07T12:16:25Z</time>
</trkpt>
<trkpt lat="49.04627222567797" lon="9.62669181637466">
<ele>360.4</ele>
<time>2024-05-07T12:16:26Z</time>
</trkpt>
<trkpt lat="49.04630273580551" lon="9.626720398664474">
<ele>360.2</ele>
<time>2024-05-07T12:16:27Z</time>
</trkpt>
<trkpt lat="49.04632947407663" lon="9.626751830801368">
<ele>360</ele>
<time>2024-05-07T12:16:28Z</time>
</trkpt>
<trkpt lat="49.04635998420417" lon="9.626783346757293">
<ele>360</ele>
<time>2024-05-07T12:16:29Z</time>
</trkpt>
<trkpt lat="49.04639049433172" lon="9.62680522352457">
<ele>359.8</ele>
<time>2024-05-07T12:16:30Z</time>
</trkpt>
<trkpt lat="49.04642486013472" lon="9.626819556578994">
<ele>359.6</ele>
<time>2024-05-07T12:16:31Z</time>
</trkpt>
<trkpt lat="49.04646299779415" lon="9.626843445003033">
<ele>359.6</ele>
<time>2024-05-07T12:16:32Z</time>
</trkpt>
<trkpt lat="49.04650113545358" lon="9.626866327598693">
<ele>359.6</ele>
<time>2024-05-07T12:16:33Z</time>
</trkpt>
<trkpt lat="49.04653541743755" lon="9.626892060041428">
<ele>359.4</ele>
<time>2024-05-07T12:16:34Z</time>
</trkpt>
<trkpt lat="49.0465659275651" lon="9.626913014799356">
<ele>359.2</ele>
<time>2024-05-07T12:16:35Z</time>
</trkpt>
<trkpt lat="49.0466002933681" lon="9.626933047547936">
<ele>359.4</ele>
<time>2024-05-07T12:16:36Z</time>
</trkpt>
<trkpt lat="49.046634659171104" lon="9.626953080296516">
<ele>359.6</ele>
<time>2024-05-07T12:16:37Z</time>
</trkpt>
<trkpt lat="49.04666894115507" lon="9.626970263198018">
<ele>359.6</ele>
<time>2024-05-07T12:16:38Z</time>
</trkpt>
<trkpt lat="49.04670330695808" lon="9.62698359042406">
<ele>359.8</ele>
<time>2024-05-07T12:16:39Z</time>
</trkpt>
<trkpt lat="49.04674144461751" lon="9.626999851316214">
<ele>360</ele>
<time>2024-05-07T12:16:40Z</time>
</trkpt>
<trkpt lat="49.046771954745054" lon="9.627016950398684">
<ele>360.2</ele>
<time>2024-05-07T12:16:41Z</time>
</trkpt>
<trkpt lat="49.046810092404485" lon="9.627033211290836">
<ele>360.4</ele>
<time>2024-05-07T12:16:42Z</time>
</trkpt>
<trkpt lat="49.046848230063915" lon="9.627051316201689">
<ele>360.6</ele>
<time>2024-05-07T12:16:43Z</time>
</trkpt>
<trkpt lat="49.046886367723346" lon="9.627070426940918">
<ele>360.8</ele>
<time>2024-05-07T12:16:44Z</time>
</trkpt>
<trkpt lat="49.046928361058235" lon="9.62708660401404">
<ele>361</ele>
<time>2024-05-07T12:16:45Z</time>
</trkpt>
<trkpt lat="49.046970354393125" lon="9.62710378691554">
<ele>361.4</ele>
<time>2024-05-07T12:16:46Z</time>
</trkpt>
<trkpt lat="49.04701226390898" lon="9.627118036150932">
<ele>361.6</ele>
<time>2024-05-07T12:16:47Z</time>
</trkpt>
<trkpt lat="49.04705040156841" lon="9.627135219052434">
<ele>361.8</ele>
<time>2024-05-07T12:16:48Z</time>
</trkpt>
<trkpt lat="49.0470923949033" lon="9.627151479944589">
<ele>362</ele>
<time>2024-05-07T12:16:49Z</time>
</trkpt>
<trkpt lat="49.04713053256273" lon="9.62716673500836">
<ele>362.4</ele>
<time>2024-05-07T12:16:50Z</time>
</trkpt>
<trkpt lat="49.04717252589762" lon="9.627181990072131">
<ele>362.6</ele>
<time>2024-05-07T12:16:51Z</time>
</trkpt>
<trkpt lat="49.04721066355705" lon="9.627195317298174">
<ele>362.8</ele>
<time>2024-05-07T12:16:52Z</time>
</trkpt>
<trkpt lat="49.04724880121648" lon="9.62720487266779">
<ele>362.8</ele>
<time>2024-05-07T12:16:53Z</time>
</trkpt>
<trkpt lat="49.047283167019486" lon="9.627216272056105">
<ele>363</ele>
<time>2024-05-07T12:16:54Z</time>
</trkpt>
<trkpt lat="49.04731744900346" lon="9.627229683101175">
<ele>363.2</ele>
<time>2024-05-07T12:16:55Z</time>
</trkpt>
<trkpt lat="49.047347959131" lon="9.62724493816495">
<ele>363.2</ele>
<time>2024-05-07T12:16:56Z</time>
</trkpt>
<trkpt lat="49.04737846925855" lon="9.627256337553264">
<ele>363.4</ele>
<time>2024-05-07T12:16:57Z</time>
</trkpt>
<trkpt lat="49.04741283506155" lon="9.627266814932227">
<ele>363.4</ele>
<time>2024-05-07T12:16:58Z</time>
</trkpt>
<trkpt lat="49.047443345189095" lon="9.627280225977302">
<ele>363.6</ele>
<time>2024-05-07T12:16:59Z</time>
</trkpt>
<trkpt lat="49.04747008346021" lon="9.627291625365617">
<ele>363.6</ele>
<time>2024-05-07T12:17:00Z</time>
</trkpt>
<trkpt lat="49.0474967379123" lon="9.627304952591658">
<ele>363.6</ele>
<time>2024-05-07T12:17:01Z</time>
</trkpt>
<trkpt lat="49.047519620507956" lon="9.627316435799004">
<ele>363.6</ele>
<time>2024-05-07T12:17:02Z</time>
</trkpt>
<trkpt lat="49.04754635877907" lon="9.627327919006348">
<ele>363.6</ele>
<time>2024-05-07T12:17:03Z</time>
</trkpt>
<trkpt lat="49.04756924137473" lon="9.62734024040401">
<ele>363.6</ele>
<time>2024-05-07T12:17:04Z</time>
</trkpt>
<trkpt lat="49.04759212397039" lon="9.627349795773624">
<ele>363.4</ele>
<time>2024-05-07T12:17:05Z</time>
</trkpt>
<trkpt lat="49.04761500656605" lon="9.627354573458431">
<ele>363.2</ele>
<time>2024-05-07T12:17:06Z</time>
</trkpt>
<trkpt lat="49.04762648977339" lon="9.627358429133892">
<ele>363.2</ele>
<time>2024-05-07T12:17:07Z</time>
</trkpt>
<trkpt lat="49.04763026162982" lon="9.627358429133892">
<ele>363</ele>
<time>2024-05-07T12:17:08Z</time>
</trkpt>
<trkpt lat="49.04762648977339" lon="9.627358429133892">
<ele>363</ele>
<time>2024-05-07T12:17:09Z</time>
</trkpt>
<trkpt lat="49.04763026162982" lon="9.627356501296164">
<ele>363</ele>
<time>2024-05-07T12:17:10Z</time>
</trkpt>
<trkpt lat="49.04762648977339" lon="9.62736127898097">
<ele>363</ele>
<time>2024-05-07T12:17:11Z</time>
</trkpt>
<trkpt lat="49.04762648977339" lon="9.627367900684476">
<ele>363</ele>
<time>2024-05-07T12:17:12Z</time>
</trkpt>
<trkpt lat="49.04762648977339" lon="9.627374606207011">
<ele>363</ele>
<time>2024-05-07T12:17:13Z</time>
</trkpt>
<trkpt lat="49.04761500656605" lon="9.627387011423709">
<ele>363</ele>
<time>2024-05-07T12:17:14Z</time>
</trkpt>
<trkpt lat="49.047599751502275" lon="9.627396566793324">
<ele>363</ele>
<time>2024-05-07T12:17:15Z</time>
</trkpt>
<trkpt lat="49.0475844964385" lon="9.62740033864975">
<ele>363</ele>
<time>2024-05-07T12:17:16Z</time>
</trkpt>
<trkpt lat="49.04757301323116" lon="9.62739841081202">
<ele>363</ele>
<time>2024-05-07T12:17:17Z</time>
</trkpt>
<trkpt lat="49.047557758167386" lon="9.62740033864975">
<ele>363</ele>
<time>2024-05-07T12:17:18Z</time>
</trkpt>
<trkpt lat="49.04754635877907" lon="9.627409894019364">
<ele>363</ele>
<time>2024-05-07T12:17:19Z</time>
</trkpt>
<trkpt lat="49.0475311037153" lon="9.627423221245408">
<ele>363</ele>
<time>2024-05-07T12:17:20Z</time>
</trkpt>
<trkpt lat="49.04751584865153" lon="9.627443253993988">
<ele>363.2</ele>
<time>2024-05-07T12:17:21Z</time>
</trkpt>
<trkpt lat="49.04750822111964" lon="9.627466136589646">
<ele>363.2</ele>
<time>2024-05-07T12:17:22Z</time>
</trkpt>
<trkpt lat="49.04751584865153" lon="9.627486169338226">
<ele>363.2</ele>
<time>2024-05-07T12:17:23Z</time>
</trkpt>
<trkpt lat="49.04752724803984" lon="9.627494802698491">
<ele>363.2</ele>
<time>2024-05-07T12:17:24Z</time>
</trkpt>
<trkpt lat="49.047542503103614" lon="9.627503352239728">
<ele>363.2</ele>
<time>2024-05-07T12:17:25Z</time>
</trkpt>
<trkpt lat="49.047561613842845" lon="9.627514835447071">
<ele>363.2</ele>
<time>2024-05-07T12:17:26Z</time>
</trkpt>
<trkpt lat="49.04758064076304" lon="9.627525312826036">
<ele>363.2</ele>
<time>2024-05-07T12:17:27Z</time>
</trkpt>
<trkpt lat="49.047603607177734" lon="9.62753478437662">
<ele>363.2</ele>
<time>2024-05-07T12:17:28Z</time>
</trkpt>
<trkpt lat="49.04763411730528" lon="9.627550123259423">
<ele>363.2</ele>
<time>2024-05-07T12:17:29Z</time>
</trkpt>
<trkpt lat="49.04766839928925" lon="9.627568228170276">
<ele>363.2</ele>
<time>2024-05-07T12:17:30Z</time>
</trkpt>
<trkpt lat="49.04771039262414" lon="9.627586333081126">
<ele>363.2</ele>
<time>2024-05-07T12:17:31Z</time>
</trkpt>
<trkpt lat="49.04775992967189" lon="9.627606365829706">
<ele>363.2</ele>
<time>2024-05-07T12:17:32Z</time>
</trkpt>
<trkpt lat="49.04780577868223" lon="9.627632098272445">
<ele>363.4</ele>
<time>2024-05-07T12:17:33Z</time>
</trkpt>
<trkpt lat="49.047855315729976" lon="9.627653053030372">
<ele>363.6</ele>
<time>2024-05-07T12:17:34Z</time>
</trkpt>
<trkpt lat="49.04790870845318" lon="9.62767786346376">
<ele>363.6</ele>
<time>2024-05-07T12:17:35Z</time>
</trkpt>
<trkpt lat="49.04796595685184" lon="9.627699824050069">
<ele>363.8</ele>
<time>2024-05-07T12:17:36Z</time>
</trkpt>
<trkpt lat="49.0480232052505" lon="9.62771792896092">
<ele>363.8</ele>
<time>2024-05-07T12:17:37Z</time>
</trkpt>
<trkpt lat="49.048076597973704" lon="9.62773703970015">
<ele>364</ele>
<time>2024-05-07T12:17:38Z</time>
</trkpt>
<trkpt lat="49.048133846372366" lon="9.627755144611">
<ele>364</ele>
<time>2024-05-07T12:17:39Z</time>
</trkpt>
<trkpt lat="49.048191010952" lon="9.627771321684122">
<ele>364</ele>
<time>2024-05-07T12:17:40Z</time>
</trkpt>
<trkpt lat="49.04824825935066" lon="9.627791354432702">
<ele>364.2</ele>
<time>2024-05-07T12:17:41Z</time>
</trkpt>
<trkpt lat="49.04830165207386" lon="9.62781708687544">
<ele>364.2</ele>
<time>2024-05-07T12:17:42Z</time>
</trkpt>
<trkpt lat="49.04835890047252" lon="9.627841897308826">
<ele>364.4</ele>
<time>2024-05-07T12:17:43Z</time>
</trkpt>
<trkpt lat="49.04841992072761" lon="9.627866707742214">
<ele>364.6</ele>
<time>2024-05-07T12:17:44Z</time>
</trkpt>
<trkpt lat="49.04847716912627" lon="9.627889590337873">
<ele>364.8</ele>
<time>2024-05-07T12:17:45Z</time>
</trkpt>
<trkpt lat="49.0485343337059" lon="9.62791339494288">
<ele>364.8</ele>
<time>2024-05-07T12:17:46Z</time>
</trkpt>
<trkpt lat="49.04859158210456" lon="9.627938205376267">
<ele>365</ele>
<time>2024-05-07T12:17:47Z</time>
</trkpt>
<trkpt lat="49.048644974827766" lon="9.627963015809655">
<ele>365</ele>
<time>2024-05-07T12:17:48Z</time>
</trkpt>
<trkpt lat="49.048705995082855" lon="9.627989754080772">
<ele>365.2</ele>
<time>2024-05-07T12:17:49Z</time>
</trkpt>
<trkpt lat="49.04876324348152" lon="9.628016408532858">
<ele>365</ele>
<time>2024-05-07T12:17:50Z</time>
</trkpt>
<trkpt lat="49.04882049188018" lon="9.628041218966246">
<ele>365</ele>
<time>2024-05-07T12:17:51Z</time>
</trkpt>
<trkpt lat="49.04887765645981" lon="9.628065107390285">
<ele>365</ele>
<time>2024-05-07T12:17:52Z</time>
</trkpt>
<trkpt lat="49.04893490485847" lon="9.628087989985945">
<ele>365</ele>
<time>2024-05-07T12:17:53Z</time>
</trkpt>
<trkpt lat="49.04898829758167" lon="9.62810986675322">
<ele>365</ele>
<time>2024-05-07T12:17:54Z</time>
</trkpt>
<trkpt lat="49.049045545980334" lon="9.62813182733953">
<ele>364.8</ele>
<time>2024-05-07T12:17:55Z</time>
</trkpt>
<trkpt lat="49.04909893870354" lon="9.628154709935188">
<ele>364.8</ele>
<time>2024-05-07T12:17:56Z</time>
</trkpt>
<trkpt lat="49.04915233142674" lon="9.628178514540195">
<ele>364.8</ele>
<time>2024-05-07T12:17:57Z</time>
</trkpt>
<trkpt lat="49.0492095798254" lon="9.628199553117156">
<ele>364.8</ele>
<time>2024-05-07T12:17:58Z</time>
</trkpt>
<trkpt lat="49.04926674440503" lon="9.628223357722163">
<ele>365</ele>
<time>2024-05-07T12:17:59Z</time>
</trkpt>
<trkpt lat="49.04932399280369" lon="9.628246240317822">
<ele>365</ele>
<time>2024-05-07T12:18:00Z</time>
</trkpt>
<trkpt lat="49.04938501305878" lon="9.62827012874186">
<ele>365.2</ele>
<time>2024-05-07T12:18:01Z</time>
</trkpt>
<trkpt lat="49.04944226145744" lon="9.62829016149044">
<ele>365.2</ele>
<time>2024-05-07T12:18:02Z</time>
</trkpt>
<trkpt lat="49.049499509856105" lon="9.628319665789604">
<ele>365.2</ele>
<time>2024-05-07T12:18:03Z</time>
</trkpt>
<trkpt lat="49.049556674435735" lon="9.62834833189845">
<ele>365</ele>
<time>2024-05-07T12:18:04Z</time>
</trkpt>
<trkpt lat="49.04960629530251" lon="9.628376914188266">
<ele>365</ele>
<time>2024-05-07T12:18:05Z</time>
</trkpt>
<trkpt lat="49.04966354370117" lon="9.628399796783924">
<ele>365</ele>
<time>2024-05-07T12:18:06Z</time>
</trkpt>
<trkpt lat="49.049716936424375" lon="9.628417901694776">
<ele>365</ele>
<time>2024-05-07T12:18:07Z</time>
</trkpt>
<trkpt lat="49.04977032914758" lon="9.628435084596276">
<ele>365</ele>
<time>2024-05-07T12:18:08Z</time>
</trkpt>
<trkpt lat="49.049816094338894" lon="9.628453189507129">
<ele>365</ele>
<time>2024-05-07T12:18:09Z</time>
</trkpt>
<trkpt lat="49.04985808767378" lon="9.628471294417976">
<ele>365.2</ele>
<time>2024-05-07T12:18:10Z</time>
</trkpt>
<trkpt lat="49.0499038528651" lon="9.628490405157208">
<ele>365.2</ele>
<time>2024-05-07T12:18:11Z</time>
</trkpt>
<trkpt lat="49.04994199052453" lon="9.628504738211632">
<ele>365.2</ele>
<time>2024-05-07T12:18:12Z</time>
</trkpt>
<trkpt lat="49.04998012818396" lon="9.628517143428326">
<ele>365.2</ele>
<time>2024-05-07T12:18:13Z</time>
</trkpt>
<trkpt lat="49.050010638311505" lon="9.62852854281664">
<ele>365.2</ele>
<time>2024-05-07T12:18:14Z</time>
</trkpt>
<trkpt lat="49.05004500411451" lon="9.628540026023984">
<ele>365.4</ele>
<time>2024-05-07T12:18:15Z</time>
</trkpt>
<trkpt lat="49.05007928609848" lon="9.628549497574568">
<ele>365.4</ele>
<time>2024-05-07T12:18:16Z</time>
</trkpt>
<trkpt lat="49.050109796226025" lon="9.628560058772564">
<ele>365.6</ele>
<time>2024-05-07T12:18:17Z</time>
</trkpt>
<trkpt lat="49.05014030635357" lon="9.628569530323148">
<ele>365.6</ele>
<time>2024-05-07T12:18:18Z</time>
</trkpt>
<trkpt lat="49.05017081648111" lon="9.628580091521144">
<ele>365.8</ele>
<time>2024-05-07T12:18:19Z</time>
</trkpt>
<trkpt lat="49.05020141042769" lon="9.628591490909455">
<ele>366</ele>
<time>2024-05-07T12:18:20Z</time>
</trkpt>
<trkpt lat="49.050228064879775" lon="9.6286048181355">
<ele>366.2</ele>
<time>2024-05-07T12:18:21Z</time>
</trkpt>
<trkpt lat="49.05025857500732" lon="9.628611523658035">
<ele>366.4</ele>
<time>2024-05-07T12:18:22Z</time>
</trkpt>
<trkpt lat="49.050289085134864" lon="9.628615379333496">
<ele>366.6</ele>
<time>2024-05-07T12:18:23Z</time>
</trkpt>
<trkpt lat="49.05031582340598" lon="9.628620073199272">
<ele>366.8</ele>
<time>2024-05-07T12:18:24Z</time>
</trkpt>
<trkpt lat="49.050346333533525" lon="9.62862485088408">
<ele>367</ele>
<time>2024-05-07T12:18:25Z</time>
</trkpt>
<trkpt lat="49.05037307180464" lon="9.628631556406615">
<ele>367.2</ele>
<time>2024-05-07T12:18:26Z</time>
</trkpt>
<trkpt lat="49.05040358193219" lon="9.628635328263044">
<ele>367.4</ele>
<time>2024-05-07T12:18:27Z</time>
</trkpt>
<trkpt lat="49.05043786391616" lon="9.628638261929154">
<ele>367.4</ele>
<time>2024-05-07T12:18:28Z</time>
</trkpt>
<trkpt lat="49.0504683740437" lon="9.628638261929154">
<ele>367.6</ele>
<time>2024-05-07T12:18:29Z</time>
</trkpt>
<trkpt lat="49.050506511703134" lon="9.628638261929154">
<ele>367.6</ele>
<time>2024-05-07T12:18:30Z</time>
</trkpt>
<trkpt lat="49.05054087750614" lon="9.628638261929154">
<ele>367.8</ele>
<time>2024-05-07T12:18:31Z</time>
</trkpt>
<trkpt lat="49.05057524330914" lon="9.628638261929154">
<ele>367.8</ele>
<time>2024-05-07T12:18:32Z</time>
</trkpt>
<trkpt lat="49.05061338096857" lon="9.628636334091423">
<ele>367.8</ele>
<time>2024-05-07T12:18:33Z</time>
</trkpt>
<trkpt lat="49.050651518628" lon="9.628631556406615">
<ele>368</ele>
<time>2024-05-07T12:18:34Z</time>
</trkpt>
<trkpt lat="49.05068965628743" lon="9.62862485088408">
<ele>368.2</ele>
<time>2024-05-07T12:18:35Z</time>
</trkpt>
<trkpt lat="49.05072779394686" lon="9.628616301342843">
<ele>368.4</ele>
<time>2024-05-07T12:18:36Z</time>
</trkpt>
<trkpt lat="49.05076593160629" lon="9.628609595820308">
<ele>368.6</ele>
<time>2024-05-07T12:18:37Z</time>
</trkpt>
<trkpt lat="49.05080406926572" lon="9.628601968288422">
<ele>368.6</ele>
<time>2024-05-07T12:18:38Z</time>
</trkpt>
<trkpt lat="49.050842206925154" lon="9.628589563071728">
<ele>368.8</ele>
<time>2024-05-07T12:18:39Z</time>
</trkpt>
<trkpt lat="49.05088420026004" lon="9.628581935539842">
<ele>369</ele>
<time>2024-05-07T12:18:40Z</time>
</trkpt>
<trkpt lat="49.05092619359493" lon="9.628575313836336">
<ele>369.2</ele>
<time>2024-05-07T12:18:41Z</time>
</trkpt>
<trkpt lat="49.05096810311079" lon="9.628561902791262">
<ele>369.2</ele>
<time>2024-05-07T12:18:42Z</time>
</trkpt>
<trkpt lat="49.05101009644568" lon="9.62854664772749">
<ele>369.2</ele>
<time>2024-05-07T12:18:43Z</time>
</trkpt>
<trkpt lat="49.05105586163699" lon="9.628533320501449">
<ele>369.4</ele>
<time>2024-05-07T12:18:44Z</time>
</trkpt>
<trkpt lat="49.05110162682831" lon="9.628521837294102">
<ele>369.4</ele>
<time>2024-05-07T12:18:45Z</time>
</trkpt>
<trkpt lat="49.0511436201632" lon="9.62850951589644">
<ele>369.4</ele>
<time>2024-05-07T12:18:46Z</time>
</trkpt>
<trkpt lat="49.05118938535452" lon="9.628498032689096">
<ele>369.4</ele>
<time>2024-05-07T12:18:47Z</time>
</trkpt>
<trkpt lat="49.051235150545835" lon="9.62848663330078">
<ele>369.6</ele>
<time>2024-05-07T12:18:48Z</time>
</trkpt>
<trkpt lat="49.05128091573715" lon="9.628475150093436">
<ele>369.6</ele>
<time>2024-05-07T12:18:49Z</time>
</trkpt>
<trkpt lat="49.05132668092847" lon="9.628464672714472">
<ele>369.6</ele>
<time>2024-05-07T12:18:50Z</time>
</trkpt>
<trkpt lat="49.051372446119785" lon="9.628450339660048">
<ele>369.6</ele>
<time>2024-05-07T12:18:51Z</time>
</trkpt>
<trkpt lat="49.051414439454675" lon="9.628431312739847">
<ele>369.6</ele>
<time>2024-05-07T12:18:52Z</time>
</trkpt>
<trkpt lat="49.05145643278957" lon="9.628415051847696">
<ele>369.6</ele>
<time>2024-05-07T12:18:53Z</time>
</trkpt>
<trkpt lat="49.05150596983731" lon="9.628401724621654">
<ele>369.6</ele>
<time>2024-05-07T12:18:54Z</time>
</trkpt>
<trkpt lat="49.051551818847656" lon="9.628390241414309">
<ele>369.6</ele>
<time>2024-05-07T12:18:55Z</time>
</trkpt>
<trkpt lat="49.05159758403897" lon="9.628377836197616">
<ele>369.6</ele>
<time>2024-05-07T12:18:56Z</time>
</trkpt>
<trkpt lat="49.05164334923029" lon="9.628363586962225">
<ele>369.6</ele>
<time>2024-05-07T12:18:57Z</time>
</trkpt>
<trkpt lat="49.05169288627803" lon="9.62834640406072">
<ele>369.4</ele>
<time>2024-05-07T12:18:58Z</time>
</trkpt>
<trkpt lat="49.05173487961292" lon="9.628332071006298">
<ele>369.4</ele>
<time>2024-05-07T12:18:59Z</time>
</trkpt>
<trkpt lat="49.05178064480424" lon="9.628318743780255">
<ele>369.4</ele>
<time>2024-05-07T12:19:00Z</time>
</trkpt>
<trkpt lat="49.05182640999555" lon="9.628303488716483">
<ele>369.2</ele>
<time>2024-05-07T12:19:01Z</time>
</trkpt>
<trkpt lat="49.051868403330445" lon="9.62828630581498">
<ele>369.4</ele>
<time>2024-05-07T12:19:02Z</time>
</trkpt>
<trkpt lat="49.05191802419722" lon="9.628268200904133">
<ele>369.4</ele>
<time>2024-05-07T12:19:03Z</time>
</trkpt>
<trkpt lat="49.051967561244965" lon="9.62825009599328">
<ele>369.4</ele>
<time>2024-05-07T12:19:04Z</time>
</trkpt>
<trkpt lat="49.05201332643628" lon="9.62823291309178">
<ele>369.4</ele>
<time>2024-05-07T12:19:05Z</time>
</trkpt>
<trkpt lat="49.05206294730306" lon="9.628216736018658">
<ele>369.6</ele>
<time>2024-05-07T12:19:06Z</time>
</trkpt>
<trkpt lat="49.052104940637946" lon="9.628201480954884">
<ele>369.6</ele>
<time>2024-05-07T12:19:07Z</time>
</trkpt>
<trkpt lat="49.05215447768569" lon="9.628183292225003">
<ele>369.6</ele>
<time>2024-05-07T12:19:08Z</time>
</trkpt>
<trkpt lat="49.05219647102058" lon="9.628165187314153">
<ele>369.6</ele>
<time>2024-05-07T12:19:09Z</time>
</trkpt>
<trkpt lat="49.052242236211896" lon="9.628145154565573">
<ele>369.6</ele>
<time>2024-05-07T12:19:10Z</time>
</trkpt>
<trkpt lat="49.052280373871326" lon="9.628127971664073">
<ele>369.6</ele>
<time>2024-05-07T12:19:11Z</time>
</trkpt>
<trkpt lat="49.052322367206216" lon="9.62810986675322">
<ele>369.6</ele>
<time>2024-05-07T12:19:12Z</time>
</trkpt>
<trkpt lat="49.052360504865646" lon="9.6280936896801">
<ele>369.6</ele>
<time>2024-05-07T12:19:13Z</time>
</trkpt>
<trkpt lat="49.052402414381504" lon="9.628081284463406">
<ele>369.6</ele>
<time>2024-05-07T12:19:14Z</time>
</trkpt>
<trkpt lat="49.052440635859966" lon="9.628065107390285">
<ele>369.4</ele>
<time>2024-05-07T12:19:15Z</time>
</trkpt>
<trkpt lat="49.052463518455625" lon="9.628029819577932">
<ele>369.4</ele>
<time>2024-05-07T12:19:16Z</time>
</trkpt>
<trkpt lat="49.0524787735194" lon="9.627980198711157">
<ele>369.4</ele>
<time>2024-05-07T12:19:17Z</time>
</trkpt>
<trkpt lat="49.05248640105128" lon="9.627922028303146">
<ele>369.4</ele>
<time>2024-05-07T12:19:18Z</time>
</trkpt>
<trkpt lat="49.05249402858317" lon="9.62785623036325">
<ele>369.2</ele>
<time>2024-05-07T12:19:19Z</time>
</trkpt>
<trkpt lat="49.05250928364694" lon="9.62779805995524">
<ele>369.2</ele>
<time>2024-05-07T12:19:20Z</time>
</trkpt>
<trkpt lat="49.0525321662426" lon="9.627748439088464">
<ele>369.2</ele>
<time>2024-05-07T12:19:21Z</time>
</trkpt>
<trkpt lat="49.052562676370144" lon="9.627706445753574">
<ele>369.2</ele>
<time>2024-05-07T12:19:22Z</time>
</trkpt>
<trkpt lat="49.05259704217315" lon="9.627673085778952">
<ele>369</ele>
<time>2024-05-07T12:19:23Z</time>
</trkpt>
<trkpt lat="49.05262755230069" lon="9.62763494811952">
<ele>369</ele>
<time>2024-05-07T12:19:24Z</time>
</trkpt>
<trkpt lat="49.05266183428466" lon="9.62759488262236">
<ele>369</ele>
<time>2024-05-07T12:19:25Z</time>
</trkpt>
<trkpt lat="49.05269234441221" lon="9.627550123259423">
<ele>369</ele>
<time>2024-05-07T12:19:26Z</time>
</trkpt>
<trkpt lat="49.05272671021521" lon="9.627505280077456">
<ele>368.8</ele>
<time>2024-05-07T12:19:27Z</time>
</trkpt>
<trkpt lat="49.05275344848633" lon="9.627454737201331">
<ele>368.8</ele>
<time>2024-05-07T12:19:28Z</time>
</trkpt>
<trkpt lat="49.0527877304703" lon="9.627407044172289">
<ele>368.6</ele>
<time>2024-05-07T12:19:29Z</time>
</trkpt>
<trkpt lat="49.05281824059784" lon="9.627353651449084">
<ele>368.6</ele>
<time>2024-05-07T12:19:30Z</time>
</trkpt>
<trkpt lat="49.05285260640085" lon="9.627294475212691">
<ele>368.4</ele>
<time>2024-05-07T12:19:31Z</time>
</trkpt>
<trkpt lat="49.05288688838482" lon="9.627236304804685">
<ele>368.2</ele>
<time>2024-05-07T12:19:32Z</time>
</trkpt>
<trkpt lat="49.05292125418782" lon="9.627175284549594">
<ele>368.2</ele>
<time>2024-05-07T12:19:33Z</time>
</trkpt>
<trkpt lat="49.05295939184725" lon="9.627113342285156">
<ele>368</ele>
<time>2024-05-07T12:19:34Z</time>
</trkpt>
<trkpt lat="49.052993757650256" lon="9.627050394192338">
<ele>368</ele>
<time>2024-05-07T12:19:35Z</time>
</trkpt>
<trkpt lat="49.05302803963423" lon="9.62698359042406">
<ele>367.8</ele>
<time>2024-05-07T12:19:36Z</time>
</trkpt>
<trkpt lat="49.05305854976177" lon="9.626918714493511">
<ele>367.6</ele>
<time>2024-05-07T12:19:37Z</time>
</trkpt>
<trkpt lat="49.053096771240234" lon="9.626854844391346">
<ele>367.6</ele>
<time>2024-05-07T12:19:38Z</time>
</trkpt>
<trkpt lat="49.053131053224206" lon="9.626792902126908">
<ele>367.2</ele>
<time>2024-05-07T12:19:39Z</time>
</trkpt>
<trkpt lat="49.05316919088364" lon="9.626733725890515">
<ele>367</ele>
<time>2024-05-07T12:19:40Z</time>
</trkpt>
<trkpt lat="49.05320732854307" lon="9.626674633473158">
<ele>366.8</ele>
<time>2024-05-07T12:19:41Z</time>
</trkpt>
<trkpt lat="49.0532454662025" lon="9.626614535227418">
<ele>366.6</ele>
<time>2024-05-07T12:19:42Z</time>
</trkpt>
<trkpt lat="49.0532798320055" lon="9.62655544281006">
<ele>366.4</ele>
<time>2024-05-07T12:19:43Z</time>
</trkpt>
<trkpt lat="49.05332182534039" lon="9.62648956105113">
<ele>366.2</ele>
<time>2024-05-07T12:19:44Z</time>
</trkpt>
<trkpt lat="49.05335610732436" lon="9.626422841101885">
<ele>366</ele>
<time>2024-05-07T12:19:45Z</time>
</trkpt>
<trkpt lat="49.05339424498379" lon="9.62635511532426">
<ele>366</ele>
<time>2024-05-07T12:19:46Z</time>
</trkpt>
<trkpt lat="49.05343238264322" lon="9.626290239393713">
<ele>366</ele>
<time>2024-05-07T12:19:47Z</time>
</trkpt>
<trkpt lat="49.05347437597811" lon="9.626219747588038">
<ele>365.8</ele>
<time>2024-05-07T12:19:48Z</time>
</trkpt>
<trkpt lat="49.05351251363754" lon="9.626152021810412">
<ele>365.6</ele>
<time>2024-05-07T12:19:49Z</time>
</trkpt>
<trkpt lat="49.05355450697243" lon="9.626083374023438">
<ele>365.4</ele>
<time>2024-05-07T12:19:50Z</time>
</trkpt>
<trkpt lat="49.05359264463186" lon="9.62601464241743">
<ele>365.2</ele>
<time>2024-05-07T12:19:51Z</time>
</trkpt>
<trkpt lat="49.05363078229129" lon="9.625946916639805">
<ele>365</ele>
<time>2024-05-07T12:19:52Z</time>
</trkpt>
<trkpt lat="49.05367277562618" lon="9.62587826885283">
<ele>364.8</ele>
<time>2024-05-07T12:19:53Z</time>
</trkpt>
<trkpt lat="49.05371091328561" lon="9.625811548903584">
<ele>364.6</ele>
<time>2024-05-07T12:19:54Z</time>
</trkpt>
<trkpt lat="49.053745195269585" lon="9.625741895288227">
<ele>364.6</ele>
<time>2024-05-07T12:19:55Z</time>
</trkpt>
<trkpt lat="49.053787188604474" lon="9.625679953023791">
<ele>364.4</ele>
<time>2024-05-07T12:19:56Z</time>
</trkpt>
<trkpt lat="49.05382155440748" lon="9.625617004930971">
<ele>364.2</ele>
<time>2024-05-07T12:19:57Z</time>
</trkpt>
<trkpt lat="49.05385583639145" lon="9.625553051009774">
<ele>364.2</ele>
<time>2024-05-07T12:19:58Z</time>
</trkpt>
<trkpt lat="49.05389020219445" lon="9.625490186735988">
<ele>364</ele>
<time>2024-05-07T12:19:59Z</time>
</trkpt>
<trkpt lat="49.053924484178424" lon="9.625431932508944">
<ele>364</ele>
<time>2024-05-07T12:20:00Z</time>
</trkpt>
<trkpt lat="49.05395884998143" lon="9.625374767929316">
<ele>364</ele>
<time>2024-05-07T12:20:01Z</time>
</trkpt>
<trkpt lat="49.05399321578443" lon="9.625316597521303">
<ele>363.8</ele>
<time>2024-05-07T12:20:02Z</time>
</trkpt>
<trkpt lat="49.0540274977684" lon="9.625261276960371">
<ele>363.8</ele>
<time>2024-05-07T12:20:03Z</time>
</trkpt>
<trkpt lat="49.054061863571405" lon="9.62520788423717">
<ele>363.8</ele>
<time>2024-05-07T12:20:04Z</time>
</trkpt>
<trkpt lat="49.05409614555538" lon="9.625151557847856">
<ele>363.8</ele>
<time>2024-05-07T12:20:05Z</time>
</trkpt>
<trkpt lat="49.05412673950195" lon="9.625096321105955">
<ele>363.8</ele>
<time>2024-05-07T12:20:06Z</time>
</trkpt>
<trkpt lat="49.054161021485925" lon="9.625041922554374">
<ele>364</ele>
<time>2024-05-07T12:20:07Z</time>
</trkpt>
<trkpt lat="49.05419153161347" lon="9.624984674155712">
<ele>364</ele>
<time>2024-05-07T12:20:08Z</time>
</trkpt>
<trkpt lat="49.05422204174101" lon="9.624928431585433">
<ele>364.2</ele>
<time>2024-05-07T12:20:09Z</time>
</trkpt>
<trkpt lat="49.05425255186856" lon="9.624875038862228">
<ele>364.2</ele>
<time>2024-05-07T12:20:10Z</time>
</trkpt>
<trkpt lat="49.0542830619961" lon="9.624823490157723">
<ele>364.2</ele>
<time>2024-05-07T12:20:11Z</time>
</trkpt>
<trkpt lat="49.05431365594268" lon="9.624774875119328">
<ele>364.4</ele>
<time>2024-05-07T12:20:12Z</time>
</trkpt>
<trkpt lat="49.05434416607022" lon="9.624723410233855">
<ele>364.6</ele>
<time>2024-05-07T12:20:13Z</time>
</trkpt>
<trkpt lat="49.05437467619777" lon="9.62467479519546">
<ele>364.6</ele>
<time>2024-05-07T12:20:14Z</time>
</trkpt>
<trkpt lat="49.05440518632531" lon="9.624625174328685">
<ele>364.8</ele>
<time>2024-05-07T12:20:15Z</time>
</trkpt>
<trkpt lat="49.054435696452856" lon="9.62457362562418">
<ele>364.8</ele>
<time>2024-05-07T12:20:16Z</time>
</trkpt>
<trkpt lat="49.05446235090494" lon="9.624521238729358">
<ele>364.8</ele>
<time>2024-05-07T12:20:17Z</time>
</trkpt>
<trkpt lat="49.05449294485152" lon="9.624471617862582">
<ele>364.8</ele>
<time>2024-05-07T12:20:18Z</time>
</trkpt>
<trkpt lat="49.0545195993036" lon="9.624421996995808">
<ele>365</ele>
<time>2024-05-07T12:20:19Z</time>
</trkpt>
<trkpt lat="49.05455010943115" lon="9.62437530979514">
<ele>365</ele>
<time>2024-05-07T12:20:20Z</time>
</trkpt>
<trkpt lat="49.054576847702265" lon="9.624326694756746">
<ele>365.2</ele>
<time>2024-05-07T12:20:21Z</time>
</trkpt>
<trkpt lat="49.05460350215435" lon="9.62427707388997">
<ele>365.2</ele>
<time>2024-05-07T12:20:22Z</time>
</trkpt>
<trkpt lat="49.05462638475001" lon="9.624228458851576">
<ele>365.4</ele>
<time>2024-05-07T12:20:23Z</time>
</trkpt>
<trkpt lat="49.05464549548924" lon="9.62417975999415">
<ele>365.6</ele>
<time>2024-05-07T12:20:24Z</time>
</trkpt>
<trkpt lat="49.05466460622847" lon="9.624135000631211">
<ele>365.6</ele>
<time>2024-05-07T12:20:25Z</time>
</trkpt>
<trkpt lat="49.05468363314867" lon="9.624094935134051">
<ele>365.6</ele>
<time>2024-05-07T12:20:26Z</time>
</trkpt>
<trkpt lat="49.05470651574433" lon="9.624056797474625">
<ele>365.8</ele>
<time>2024-05-07T12:20:27Z</time>
</trkpt>
<trkpt lat="49.05473702587187" lon="9.62401958182454">
<ele>365.8</ele>
<time>2024-05-07T12:20:28Z</time>
</trkpt>
<trkpt lat="49.05475990846753" lon="9.62397951632738">
<ele>365.8</ele>
<time>2024-05-07T12:20:29Z</time>
</trkpt>
<trkpt lat="49.05478664673865" lon="9.62394137866795">
<ele>366</ele>
<time>2024-05-07T12:20:30Z</time>
</trkpt>
<trkpt lat="49.05480952933431" lon="9.62390324100852">
<ele>366</ele>
<time>2024-05-07T12:20:31Z</time>
</trkpt>
<trkpt lat="49.054832411929965" lon="9.623867953196168">
<ele>366.2</ele>
<time>2024-05-07T12:20:32Z</time>
</trkpt>
<trkpt lat="49.05485529452562" lon="9.623829815536736">
<ele>366.2</ele>
<time>2024-05-07T12:20:33Z</time>
</trkpt>
<trkpt lat="49.05487817712128" lon="9.623791677877309">
<ele>366.4</ele>
<time>2024-05-07T12:20:34Z</time>
</trkpt>
<trkpt lat="49.05490105971694" lon="9.623751612380149">
<ele>366.6</ele>
<time>2024-05-07T12:20:35Z</time>
</trkpt>
<trkpt lat="49.0549239423126" lon="9.623713474720716">
<ele>366.8</ele>
<time>2024-05-07T12:20:36Z</time>
</trkpt>
<trkpt lat="49.05494682490826" lon="9.623673409223557">
<ele>367</ele>
<time>2024-05-07T12:20:37Z</time>
</trkpt>
<trkpt lat="49.054969707503915" lon="9.623636193573477">
<ele>367.2</ele>
<time>2024-05-07T12:20:38Z</time>
</trkpt>
<trkpt lat="49.05499644577503" lon="9.623596128076317">
<ele>367.4</ele>
<time>2024-05-07T12:20:39Z</time>
</trkpt>
<trkpt lat="49.05502318404615" lon="9.623555140569806">
<ele>367.6</ele>
<time>2024-05-07T12:20:40Z</time>
</trkpt>
<trkpt lat="49.055049838498235" lon="9.62351130321622">
<ele>367.8</ele>
<time>2024-05-07T12:20:41Z</time>
</trkpt>
<trkpt lat="49.05507272109389" lon="9.62347123771906">
<ele>368</ele>
<time>2024-05-07T12:20:42Z</time>
</trkpt>
<trkpt lat="49.05509945936501" lon="9.623433100059628">
<ele>368.2</ele>
<time>2024-05-07T12:20:43Z</time>
</trkpt>
<trkpt lat="49.055126113817096" lon="9.623392028734088">
<ele>368.2</ele>
<time>2024-05-07T12:20:44Z</time>
</trkpt>
<trkpt lat="49.055148996412754" lon="9.6233481913805">
<ele>368.4</ele>
<time>2024-05-07T12:20:45Z</time>
</trkpt>
<trkpt lat="49.05517573468387" lon="9.623303348198531">
<ele>368.6</ele>
<time>2024-05-07T12:20:46Z</time>
</trkpt>
<trkpt lat="49.0551948454231" lon="9.623258588835595">
<ele>368.8</ele>
<time>2024-05-07T12:20:47Z</time>
</trkpt>
<trkpt lat="49.05522149987519" lon="9.623214667662978">
<ele>369</ele>
<time>2024-05-07T12:20:48Z</time>
</trkpt>
<trkpt lat="49.055244382470846" lon="9.62317175231874">
<ele>369.2</ele>
<time>2024-05-07T12:20:49Z</time>
</trkpt>
<trkpt lat="49.055267265066504" lon="9.623129842802882">
<ele>369.4</ele>
<time>2024-05-07T12:20:50Z</time>
</trkpt>
<trkpt lat="49.05529014766216" lon="9.623083071783183">
<ele>369.6</ele>
<time>2024-05-07T12:20:51Z</time>
</trkpt>
<trkpt lat="49.05531303025782" lon="9.623044934123756">
<ele>369.8</ele>
<time>2024-05-07T12:20:52Z</time>
</trkpt>
<trkpt lat="49.05533599667251" lon="9.623004868626596">
<ele>370</ele>
<time>2024-05-07T12:20:53Z</time>
</trkpt>
<trkpt lat="49.05535887926817" lon="9.622966730967164">
<ele>370.2</ele>
<time>2024-05-07T12:20:54Z</time>
</trkpt>
<trkpt lat="49.05538176186383" lon="9.622929515317082">
<ele>370.4</ele>
<time>2024-05-07T12:20:55Z</time>
</trkpt>
<trkpt lat="49.05540841631591" lon="9.62289523333311">
<ele>370.6</ele>
<time>2024-05-07T12:20:56Z</time>
</trkpt>
<trkpt lat="49.055427527055144" lon="9.62285516783595">
<ele>370.8</ele>
<time>2024-05-07T12:20:57Z</time>
</trkpt>
<trkpt lat="49.0554504096508" lon="9.62281703017652">
<ele>371</ele>
<time>2024-05-07T12:20:58Z</time>
</trkpt>
<trkpt lat="49.05547329224646" lon="9.62277788668871">
<ele>371</ele>
<time>2024-05-07T12:20:59Z</time>
</trkpt>
<trkpt lat="49.05549231916666" lon="9.62273782119155">
<ele>371.2</ele>
<time>2024-05-07T12:21:00Z</time>
</trkpt>
<trkpt lat="49.05551142990589" lon="9.62269968353212">
<ele>371.4</ele>
<time>2024-05-07T12:21:01Z</time>
</trkpt>
<trkpt lat="49.05553431250155" lon="9.62265961803496">
<ele>371.6</ele>
<time>2024-05-07T12:21:02Z</time>
</trkpt>
<trkpt lat="49.05555719509721" lon="9.622621480375528">
<ele>371.8</ele>
<time>2024-05-07T12:21:03Z</time>
</trkpt>
<trkpt lat="49.055580077692866" lon="9.622581414878368">
<ele>372</ele>
<time>2024-05-07T12:21:04Z</time>
</trkpt>
<trkpt lat="49.055602960288525" lon="9.622545205056667">
<ele>372</ele>
<time>2024-05-07T12:21:05Z</time>
</trkpt>
<trkpt lat="49.05562584288418" lon="9.622507989406586">
<ele>372.2</ele>
<time>2024-05-07T12:21:06Z</time>
</trkpt>
<trkpt lat="49.05564872547984" lon="9.622473707422614">
<ele>372.2</ele>
<time>2024-05-07T12:21:07Z</time>
</trkpt>
<trkpt lat="49.05567169189453" lon="9.622438419610262">
<ele>372.4</ele>
<time>2024-05-07T12:21:08Z</time>
</trkpt>
<trkpt lat="49.05569071881473" lon="9.622398354113102">
<ele>372.4</ele>
<time>2024-05-07T12:21:09Z</time>
</trkpt>
<trkpt lat="49.05570982955396" lon="9.62236206047237">
<ele>372.4</ele>
<time>2024-05-07T12:21:10Z</time>
</trkpt>
<trkpt lat="49.05573271214962" lon="9.622326772660015">
<ele>372.6</ele>
<time>2024-05-07T12:21:11Z</time>
</trkpt>
<trkpt lat="49.05575173906982" lon="9.622291484847665">
<ele>372.8</ele>
<time>2024-05-07T12:21:12Z</time>
</trkpt>
<trkpt lat="49.05577084980905" lon="9.622256197035313">
<ele>372.8</ele>
<time>2024-05-07T12:21:13Z</time>
</trkpt>
<trkpt lat="49.05578987672925" lon="9.622218059375882">
<ele>373</ele>
<time>2024-05-07T12:21:14Z</time>
</trkpt>
<trkpt lat="49.05580898746848" lon="9.62218184955418">
<ele>373.2</ele>
<time>2024-05-07T12:21:15Z</time>
</trkpt>
<trkpt lat="49.05583187006414" lon="9.622150417417288">
<ele>373.6</ele>
<time>2024-05-07T12:21:16Z</time>
</trkpt>
<trkpt lat="49.05585098080337" lon="9.622113201767206">
<ele>373.8</ele>
<time>2024-05-07T12:21:17Z</time>
</trkpt>
<trkpt lat="49.05587386339903" lon="9.62208168581128">
<ele>374</ele>
<time>2024-05-07T12:21:18Z</time>
</trkpt>
<trkpt lat="49.05589289031923" lon="9.62204354815185">
<ele>374.2</ele>
<time>2024-05-07T12:21:19Z</time>
</trkpt>
<trkpt lat="49.05591577291489" lon="9.6220064163208">
<ele>374.6</ele>
<time>2024-05-07T12:21:20Z</time>
</trkpt>
<trkpt lat="49.05593488365412" lon="9.621970122680068">
<ele>374.8</ele>
<time>2024-05-07T12:21:21Z</time>
</trkpt>
<trkpt lat="49.055957766249776" lon="9.621934834867716">
<ele>375.2</ele>
<time>2024-05-07T12:21:22Z</time>
</trkpt>
<trkpt lat="49.055976793169975" lon="9.621899547055364">
<ele>375.4</ele>
<time>2024-05-07T12:21:23Z</time>
</trkpt>
<trkpt lat="49.055999675765634" lon="9.621863337233664">
<ele>375.6</ele>
<time>2024-05-07T12:21:24Z</time>
</trkpt>
<trkpt lat="49.056018786504865" lon="9.621825199574232">
<ele>376</ele>
<time>2024-05-07T12:21:25Z</time>
</trkpt>
<trkpt lat="49.056037897244096" lon="9.621787061914802">
<ele>376.2</ele>
<time>2024-05-07T12:21:26Z</time>
</trkpt>
<trkpt lat="49.056056924164295" lon="9.621746996417642">
<ele>376.6</ele>
<time>2024-05-07T12:21:27Z</time>
</trkpt>
<trkpt lat="49.056076034903526" lon="9.621705003082752">
<ele>376.8</ele>
<time>2024-05-07T12:21:28Z</time>
</trkpt>
<trkpt lat="49.056095061823726" lon="9.62166778743267">
<ele>377</ele>
<time>2024-05-07T12:21:29Z</time>
</trkpt>
<trkpt lat="49.05611417256296" lon="9.621626799926162">
<ele>377.2</ele>
<time>2024-05-07T12:21:30Z</time>
</trkpt>
<trkpt lat="49.05613319948315" lon="9.62158958427608">
<ele>377.6</ele>
<time>2024-05-07T12:21:31Z</time>
</trkpt>
<trkpt lat="49.05615231022239" lon="9.62155144661665">
<ele>377.8</ele>
<time>2024-05-07T12:21:32Z</time>
</trkpt>
<trkpt lat="49.05616756528616" lon="9.62151138111949">
<ele>378.2</ele>
<time>2024-05-07T12:21:33Z</time>
</trkpt>
<trkpt lat="49.05618282034993" lon="9.621469471603632">
<ele>378.4</ele>
<time>2024-05-07T12:21:34Z</time>
</trkpt>
<trkpt lat="49.05619430355728" lon="9.621424628421664">
<ele>378.8</ele>
<time>2024-05-07T12:21:35Z</time>
</trkpt>
<trkpt lat="49.05620570294559" lon="9.621383640915155">
<ele>379.2</ele>
<time>2024-05-07T12:21:36Z</time>
</trkpt>
<trkpt lat="49.056217186152935" lon="9.62133787572384">
<ele>379.4</ele>
<time>2024-05-07T12:21:37Z</time>
</trkpt>
<trkpt lat="49.05622481368482" lon="9.6212949603796">
<ele>379.8</ele>
<time>2024-05-07T12:21:38Z</time>
</trkpt>
<trkpt lat="49.056236213073134" lon="9.621250117197633">
<ele>380</ele>
<time>2024-05-07T12:21:39Z</time>
</trkpt>
<trkpt lat="49.05624006874859" lon="9.621206279844046">
<ele>380.4</ele>
<time>2024-05-07T12:21:40Z</time>
</trkpt>
<trkpt lat="49.05624769628048" lon="9.621161436662078">
<ele>380.8</ele>
<time>2024-05-07T12:21:41Z</time>
</trkpt>
<trkpt lat="49.056255323812366" lon="9.62111852131784">
<ele>381</ele>
<time>2024-05-07T12:21:42Z</time>
</trkpt>
<trkpt lat="49.05626295134425" lon="9.62107460014522">
<ele>381.4</ele>
<time>2024-05-07T12:21:43Z</time>
</trkpt>
<trkpt lat="49.05626672320068" lon="9.621029840782285">
<ele>381.6</ele>
<time>2024-05-07T12:21:44Z</time>
</trkpt>
<trkpt lat="49.05627057887614" lon="9.620986925438046">
<ele>381.8</ele>
<time>2024-05-07T12:21:45Z</time>
</trkpt>
<trkpt lat="49.056278206408024" lon="9.620943004265428">
<ele>382</ele>
<time>2024-05-07T12:21:46Z</time>
</trkpt>
<trkpt lat="49.05628197826445" lon="9.62090008892119">
<ele>382.4</ele>
<time>2024-05-07T12:21:47Z</time>
</trkpt>
<trkpt lat="49.05628960579634" lon="9.620858179405332">
<ele>382.6</ele>
<time>2024-05-07T12:21:48Z</time>
</trkpt>
<trkpt lat="49.05629346147179" lon="9.620815264061092">
<ele>382.8</ele>
<time>2024-05-07T12:21:49Z</time>
</trkpt>
<trkpt lat="49.05629723332822" lon="9.620771342888474">
<ele>383</ele>
<time>2024-05-07T12:21:50Z</time>
</trkpt>
<trkpt lat="49.05630486086011" lon="9.620726583525538">
<ele>383.2</ele>
<time>2024-05-07T12:21:51Z</time>
</trkpt>
<trkpt lat="49.05630871653557" lon="9.620684590190647">
<ele>383.4</ele>
<time>2024-05-07T12:21:52Z</time>
</trkpt>
<trkpt lat="49.056312488391995" lon="9.62064167484641">
<ele>383.6</ele>
<time>2024-05-07T12:21:53Z</time>
</trkpt>
<trkpt lat="49.05632011592388" lon="9.62059968151152">
<ele>383.8</ele>
<time>2024-05-07T12:21:54Z</time>
</trkpt>
<trkpt lat="49.05632011592388" lon="9.620556766167285">
<ele>384</ele>
<time>2024-05-07T12:21:55Z</time>
</trkpt>
<trkpt lat="49.05632397159934" lon="9.620512928813696">
<ele>384.2</ele>
<time>2024-05-07T12:21:56Z</time>
</trkpt>
<trkpt lat="49.05632774345577" lon="9.620470013469458">
<ele>384.4</ele>
<time>2024-05-07T12:21:57Z</time>
</trkpt>
<trkpt lat="49.05633159913123" lon="9.62042617611587">
<ele>384.8</ele>
<time>2024-05-07T12:21:58Z</time>
</trkpt>
<trkpt lat="49.05633159913123" lon="9.62038510479033">
<ele>385</ele>
<time>2024-05-07T12:21:59Z</time>
</trkpt>
<trkpt lat="49.056335370987654" lon="9.620341267436745">
<ele>385.4</ele>
<time>2024-05-07T12:22:00Z</time>
</trkpt>
<trkpt lat="49.05633922666311" lon="9.620300279930234">
<ele>385.6</ele>
<time>2024-05-07T12:22:01Z</time>
</trkpt>
<trkpt lat="49.05633922666311" lon="9.620260214433074">
<ele>386</ele>
<time>2024-05-07T12:22:02Z</time>
</trkpt>
<trkpt lat="49.05634299851954" lon="9.620220148935914">
<ele>386.4</ele>
<time>2024-05-07T12:22:03Z</time>
</trkpt>
<trkpt lat="49.056346854195" lon="9.620178155601025">
<ele>386.6</ele>
<time>2024-05-07T12:22:04Z</time>
</trkpt>
<trkpt lat="49.056346854195" lon="9.620135240256786">
<ele>386.8</ele>
<time>2024-05-07T12:22:05Z</time>
</trkpt>
<trkpt lat="49.056350626051426" lon="9.620093330740929">
<ele>387.2</ele>
<time>2024-05-07T12:22:06Z</time>
</trkpt>
<trkpt lat="49.056358337402344" lon="9.62005041539669">
<ele>387.4</ele>
<time>2024-05-07T12:22:07Z</time>
</trkpt>
<trkpt lat="49.05636210925877" lon="9.620006494224072">
<ele>387.8</ele>
<time>2024-05-07T12:22:08Z</time>
</trkpt>
<trkpt lat="49.05636973679066" lon="9.619963578879831">
<ele>388</ele>
<time>2024-05-07T12:22:09Z</time>
</trkpt>
<trkpt lat="49.05637736432254" lon="9.619921669363976">
<ele>388.4</ele>
<time>2024-05-07T12:22:10Z</time>
</trkpt>
<trkpt lat="49.05638499185443" lon="9.619881603866816">
<ele>388.6</ele>
<time>2024-05-07T12:22:11Z</time>
</trkpt>
<trkpt lat="49.05638499185443" lon="9.619839610531926">
<ele>388.8</ele>
<time>2024-05-07T12:22:12Z</time>
</trkpt>
<trkpt lat="49.05638884752989" lon="9.619798623025416">
<ele>389.2</ele>
<time>2024-05-07T12:22:13Z</time>
</trkpt>
<trkpt lat="49.056392619386315" lon="9.619756629690528">
<ele>389.4</ele>
<time>2024-05-07T12:22:14Z</time>
</trkpt>
<trkpt lat="49.056396475061774" lon="9.61971472017467">
<ele>389.8</ele>
<time>2024-05-07T12:22:15Z</time>
</trkpt>
<trkpt lat="49.0564002469182" lon="9.61967364884913">
<ele>390</ele>
<time>2024-05-07T12:22:16Z</time>
</trkpt>
<trkpt lat="49.05640410259366" lon="9.619631739333272">
<ele>390.2</ele>
<time>2024-05-07T12:22:17Z</time>
</trkpt>
<trkpt lat="49.05640787445009" lon="9.619589745998384">
<ele>390.4</ele>
<time>2024-05-07T12:22:18Z</time>
</trkpt>
<trkpt lat="49.05640787445009" lon="9.619548758491874">
<ele>390.8</ele>
<time>2024-05-07T12:22:19Z</time>
</trkpt>
<trkpt lat="49.05641173012555" lon="9.619506765156984">
<ele>391</ele>
<time>2024-05-07T12:22:20Z</time>
</trkpt>
<trkpt lat="49.05641173012555" lon="9.619466699659824">
<ele>391.2</ele>
<time>2024-05-07T12:22:21Z</time>
</trkpt>
<trkpt lat="49.056415501981974" lon="9.619424790143968">
<ele>391.4</ele>
<time>2024-05-07T12:22:22Z</time>
</trkpt>
<trkpt lat="49.05641935765743" lon="9.619382796809075">
<ele>391.6</ele>
<time>2024-05-07T12:22:23Z</time>
</trkpt>
<trkpt lat="49.05642312951386" lon="9.61933988146484">
<ele>391.8</ele>
<time>2024-05-07T12:22:24Z</time>
</trkpt>
<trkpt lat="49.05642698518932" lon="9.61929981596768">
<ele>392</ele>
<time>2024-05-07T12:22:25Z</time>
</trkpt>
<trkpt lat="49.056430757045746" lon="9.61925983428955">
<ele>392.2</ele>
<time>2024-05-07T12:22:26Z</time>
</trkpt>
<trkpt lat="49.05643838457763" lon="9.61921876296401">
<ele>392.4</ele>
<time>2024-05-07T12:22:27Z</time>
</trkpt>
<trkpt lat="49.05644601210952" lon="9.619176853448153">
<ele>392.6</ele>
<time>2024-05-07T12:22:28Z</time>
</trkpt>
<trkpt lat="49.05645363964141" lon="9.619136787950993">
<ele>392.8</ele>
<time>2024-05-07T12:22:29Z</time>
</trkpt>
<trkpt lat="49.05646126717329" lon="9.619098650291562">
<ele>393</ele>
<time>2024-05-07T12:22:30Z</time>
</trkpt>
<trkpt lat="49.056468894705176" lon="9.619059506803753">
<ele>393.2</ele>
<time>2024-05-07T12:22:31Z</time>
</trkpt>
<trkpt lat="49.05648414976895" lon="9.61902136914432">
<ele>393.4</ele>
<time>2024-05-07T12:22:32Z</time>
</trkpt>
<trkpt lat="49.056495632976294" lon="9.61898323148489">
<ele>393.8</ele>
<time>2024-05-07T12:22:33Z</time>
</trkpt>
<trkpt lat="49.05650703236461" lon="9.618947021663187">
<ele>394</ele>
<time>2024-05-07T12:22:34Z</time>
</trkpt>
<trkpt lat="49.05652228742838" lon="9.618911733850837">
<ele>394.4</ele>
<time>2024-05-07T12:22:35Z</time>
</trkpt>
<trkpt lat="49.05653762631118" lon="9.618875440210104">
<ele>394.6</ele>
<time>2024-05-07T12:22:36Z</time>
</trkpt>
<trkpt lat="49.056549025699496" lon="9.618840152397752">
<ele>394.8</ele>
<time>2024-05-07T12:22:37Z</time>
</trkpt>
<trkpt lat="49.05656428076327" lon="9.6188048645854">
<ele>395.2</ele>
<time>2024-05-07T12:22:38Z</time>
</trkpt>
<trkpt lat="49.05657953582704" lon="9.618775360286236">
<ele>395.4</ele>
<time>2024-05-07T12:22:39Z</time>
</trkpt>
<trkpt lat="49.05659479089081" lon="9.618742922320962">
<ele>395.6</ele>
<time>2024-05-07T12:22:40Z</time>
</trkpt>
<trkpt lat="49.056610045954585" lon="9.618711406365035">
<ele>396</ele>
<time>2024-05-07T12:22:41Z</time>
</trkpt>
<trkpt lat="49.056629156693816" lon="9.618679974228144">
<ele>396.2</ele>
<time>2024-05-07T12:22:42Z</time>
</trkpt>
<trkpt lat="49.05664441175759" lon="9.61864845827222">
<ele>396.6</ele>
<time>2024-05-07T12:22:43Z</time>
</trkpt>
<trkpt lat="49.05666343867779" lon="9.618617948144674">
<ele>396.8</ele>
<time>2024-05-07T12:22:44Z</time>
</trkpt>
<trkpt lat="49.05667869374156" lon="9.61858844384551">
<ele>397.2</ele>
<time>2024-05-07T12:22:45Z</time>
</trkpt>
<trkpt lat="49.05669780448079" lon="9.618559777736664">
<ele>397.4</ele>
<time>2024-05-07T12:22:46Z</time>
</trkpt>
<trkpt lat="49.05671305954456" lon="9.6185302734375">
<ele>397.6</ele>
<time>2024-05-07T12:22:47Z</time>
</trkpt>
<trkpt lat="49.056732170283794" lon="9.618497835472226">
<ele>397.8</ele>
<time>2024-05-07T12:22:48Z</time>
</trkpt>
<trkpt lat="49.05674742534757" lon="9.618465397506952">
<ele>398.2</ele>
<time>2024-05-07T12:22:49Z</time>
</trkpt>
<trkpt lat="49.056766452267766" lon="9.618434887379408">
<ele>398.4</ele>
<time>2024-05-07T12:22:50Z</time>
</trkpt>
<trkpt lat="49.05678170733154" lon="9.61840622127056">
<ele>398.6</ele>
<time>2024-05-07T12:22:51Z</time>
</trkpt>
<trkpt lat="49.05680081807077" lon="9.618378560990095">
<ele>399</ele>
<time>2024-05-07T12:22:52Z</time>
</trkpt>
<trkpt lat="49.05681984499097" lon="9.61834997870028">
<ele>399.4</ele>
<time>2024-05-07T12:22:53Z</time>
</trkpt>
<trkpt lat="49.05683510005474" lon="9.618321396410463">
<ele>399.6</ele>
<time>2024-05-07T12:22:54Z</time>
</trkpt>
<trkpt lat="49.05685421079397" lon="9.61829180829227">
<ele>400</ele>
<time>2024-05-07T12:22:55Z</time>
</trkpt>
<trkpt lat="49.056869465857744" lon="9.618261298164724">
<ele>400.2</ele>
<time>2024-05-07T12:22:56Z</time>
</trkpt>
<trkpt lat="49.056888576596975" lon="9.618234559893608">
<ele>400.4</ele>
<time>2024-05-07T12:22:57Z</time>
</trkpt>
<trkpt lat="49.056907603517175" lon="9.618205055594444">
<ele>400.6</ele>
<time>2024-05-07T12:22:58Z</time>
</trkpt>
<trkpt lat="49.05692285858095" lon="9.618176389485598">
<ele>400.8</ele>
<time>2024-05-07T12:22:59Z</time>
</trkpt>
<trkpt lat="49.05693811364472" lon="9.618149735033512">
<ele>401</ele>
<time>2024-05-07T12:23:00Z</time>
</trkpt>
<trkpt lat="49.05695722438395" lon="9.618120146915317">
<ele>401</ele>
<time>2024-05-07T12:23:01Z</time>
</trkpt>
<trkpt lat="49.05697625130415" lon="9.618089636787772">
<ele>401.2</ele>
<time>2024-05-07T12:23:02Z</time>
</trkpt>
<trkpt lat="49.05699536204338" lon="9.618061976507306">
<ele>401.4</ele>
<time>2024-05-07T12:23:03Z</time>
</trkpt>
<trkpt lat="49.05701438896358" lon="9.618031466379762">
<ele>401.4</ele>
<time>2024-05-07T12:23:04Z</time>
</trkpt>
<trkpt lat="49.05703349970281" lon="9.618002884089949">
<ele>401.6</ele>
<time>2024-05-07T12:23:05Z</time>
</trkpt>
<trkpt lat="49.05705261044204" lon="9.61797522380948">
<ele>402</ele>
<time>2024-05-07T12:23:06Z</time>
</trkpt>
<trkpt lat="49.05707163736224" lon="9.617944713681936">
<ele>402.2</ele>
<time>2024-05-07T12:23:07Z</time>
</trkpt>
<trkpt lat="49.05709074810147" lon="9.61791512556374">
<ele>402.4</ele>
<time>2024-05-07T12:23:08Z</time>
</trkpt>
<trkpt lat="49.05710977502167" lon="9.617888387292624">
<ele>402.6</ele>
<time>2024-05-07T12:23:09Z</time>
</trkpt>
<trkpt lat="49.0571288857609" lon="9.61785787716508">
<ele>402.8</ele>
<time>2024-05-07T12:23:10Z</time>
</trkpt>
<trkpt lat="49.05715176835656" lon="9.617828289046884">
<ele>403.2</ele>
<time>2024-05-07T12:23:11Z</time>
</trkpt>
<trkpt lat="49.057167023420334" lon="9.61779777891934">
<ele>403.4</ele>
<time>2024-05-07T12:23:12Z</time>
</trkpt>
<trkpt lat="49.05718605034053" lon="9.617766346782446">
<ele>403.6</ele>
<time>2024-05-07T12:23:13Z</time>
</trkpt>
<trkpt lat="49.05720516107976" lon="9.61773675866425">
<ele>403.8</ele>
<time>2024-05-07T12:23:14Z</time>
</trkpt>
<trkpt lat="49.057224271818995" lon="9.617708176374435">
<ele>404.2</ele>
<time>2024-05-07T12:23:15Z</time>
</trkpt>
<trkpt lat="49.057243298739195" lon="9.617681438103318">
<ele>404.2</ele>
<time>2024-05-07T12:23:16Z</time>
</trkpt>
<trkpt lat="49.05725855380297" lon="9.617652855813503">
<ele>404.6</ele>
<time>2024-05-07T12:23:17Z</time>
</trkpt>
<trkpt lat="49.0572776645422" lon="9.617623267695308">
<ele>404.8</ele>
<time>2024-05-07T12:23:18Z</time>
</trkpt>
<trkpt lat="49.0572966914624" lon="9.617589907720683">
<ele>405</ele>
<time>2024-05-07T12:23:19Z</time>
</trkpt>
<trkpt lat="49.05731194652617" lon="9.61756031960249">
<ele>405.2</ele>
<time>2024-05-07T12:23:20Z</time>
</trkpt>
<trkpt lat="49.0573310572654" lon="9.617529809474943">
<ele>405.4</ele>
<time>2024-05-07T12:23:21Z</time>
</trkpt>
<trkpt lat="49.0573500841856" lon="9.61750030517578">
<ele>405.6</ele>
<time>2024-05-07T12:23:22Z</time>
</trkpt>
<trkpt lat="49.05736533924937" lon="9.617469711229203">
<ele>405.8</ele>
<time>2024-05-07T12:23:23Z</time>
</trkpt>
<trkpt lat="49.05738444998861" lon="9.61744305677712">
<ele>406</ele>
<time>2024-05-07T12:23:24Z</time>
</trkpt>
<trkpt lat="49.057403560727835" lon="9.617416318506002">
<ele>406.2</ele>
<time>2024-05-07T12:23:25Z</time>
</trkpt>
<trkpt lat="49.05741881579161" lon="9.617389664053915">
<ele>406.4</ele>
<time>2024-05-07T12:23:26Z</time>
</trkpt>
<trkpt lat="49.057437842711806" lon="9.61736200377345">
<ele>406.6</ele>
<time>2024-05-07T12:23:27Z</time>
</trkpt>
<trkpt lat="49.05745309777558" lon="9.617333337664604">
<ele>406.8</ele>
<time>2024-05-07T12:23:28Z</time>
</trkpt>
<trkpt lat="49.05746835283935" lon="9.617301905527713">
<ele>407</ele>
<time>2024-05-07T12:23:29Z</time>
</trkpt>
<trkpt lat="49.057479836046696" lon="9.617268545553088">
<ele>407.2</ele>
<time>2024-05-07T12:23:30Z</time>
</trkpt>
<trkpt lat="49.05749509111047" lon="9.617237029597163">
<ele>407.4</ele>
<time>2024-05-07T12:23:31Z</time>
</trkpt>
<trkpt lat="49.05751411803067" lon="9.617208447307348">
<ele>407.6</ele>
<time>2024-05-07T12:23:32Z</time>
</trkpt>
<trkpt lat="49.0575332287699" lon="9.617179865017532">
<ele>408</ele>
<time>2024-05-07T12:23:33Z</time>
</trkpt>
<trkpt lat="49.05754848383367" lon="9.617151198908688">
<ele>408</ele>
<time>2024-05-07T12:23:34Z</time>
</trkpt>
<trkpt lat="49.0575675945729" lon="9.6171245444566">
<ele>408.4</ele>
<time>2024-05-07T12:23:35Z</time>
</trkpt>
<trkpt lat="49.0575866214931" lon="9.617099734023212">
<ele>408.6</ele>
<time>2024-05-07T12:23:36Z</time>
</trkpt>
<trkpt lat="49.05760573223233" lon="9.617074923589826">
<ele>408.8</ele>
<time>2024-05-07T12:23:37Z</time>
</trkpt>
<trkpt lat="49.05762475915253" lon="9.61704634130001">
<ele>409</ele>
<time>2024-05-07T12:23:38Z</time>
</trkpt>
<trkpt lat="49.05764764174819" lon="9.617019603028892">
<ele>409.2</ele>
<time>2024-05-07T12:23:39Z</time>
</trkpt>
<trkpt lat="49.05766289681196" lon="9.616990014910698">
<ele>409.2</ele>
<time>2024-05-07T12:23:40Z</time>
</trkpt>
<trkpt lat="49.057678151875734" lon="9.616961432620885">
<ele>409.4</ele>
<time>2024-05-07T12:23:41Z</time>
</trkpt>
<trkpt lat="49.05769340693951" lon="9.616933772340415">
<ele>409.6</ele>
<time>2024-05-07T12:23:42Z</time>
</trkpt>
<trkpt lat="49.05770866200328" lon="9.616907117888331">
<ele>409.8</ele>
<time>2024-05-07T12:23:43Z</time>
</trkpt>
<trkpt lat="49.05773162841797" lon="9.616880379617214">
<ele>410</ele>
<time>2024-05-07T12:23:44Z</time>
</trkpt>
<trkpt lat="49.05774688348174" lon="9.616853641346095">
<ele>410.4</ele>
<time>2024-05-07T12:23:45Z</time>
</trkpt>
<trkpt lat="49.05776591040194" lon="9.616826986894011">
<ele>410.6</ele>
<time>2024-05-07T12:23:46Z</time>
</trkpt>
<trkpt lat="49.05778116546571" lon="9.616798320785165">
<ele>411</ele>
<time>2024-05-07T12:23:47Z</time>
</trkpt>
<trkpt lat="49.057796420529485" lon="9.61676781065762">
<ele>411.2</ele>
<time>2024-05-07T12:23:48Z</time>
</trkpt>
<trkpt lat="49.05781553126872" lon="9.616738306358457">
<ele>411.6</ele>
<time>2024-05-07T12:23:49Z</time>
</trkpt>
<trkpt lat="49.05783078633249" lon="9.616704862564802">
<ele>411.8</ele>
<time>2024-05-07T12:23:50Z</time>
</trkpt>
<trkpt lat="49.05784981325269" lon="9.616676280274987">
<ele>412.2</ele>
<time>2024-05-07T12:23:51Z</time>
</trkpt>
<trkpt lat="49.05786506831646" lon="9.616646692156792">
<ele>412.4</ele>
<time>2024-05-07T12:23:52Z</time>
</trkpt>
<trkpt lat="49.05788795091212" lon="9.616621965542436">
<ele>412.6</ele>
<time>2024-05-07T12:23:53Z</time>
</trkpt>
<trkpt lat="49.05791091732681" lon="9.61659137159586">
<ele>412.8</ele>
<time>2024-05-07T12:23:54Z</time>
</trkpt>
<trkpt lat="49.05792994424701" lon="9.6165684890002">
<ele>413</ele>
<time>2024-05-07T12:23:55Z</time>
</trkpt>
<trkpt lat="49.05794905498624" lon="9.616543762385843">
<ele>413.2</ele>
<time>2024-05-07T12:23:56Z</time>
</trkpt>
<trkpt lat="49.05796808190644" lon="9.616523729637263">
<ele>413.4</ele>
<time>2024-05-07T12:23:57Z</time>
</trkpt>
<trkpt lat="49.05798719264567" lon="9.616501769050956">
<ele>413.8</ele>
<time>2024-05-07T12:23:58Z</time>
</trkpt>
<trkpt lat="49.05801007524133" lon="9.616477964445949">
<ele>414</ele>
<time>2024-05-07T12:23:59Z</time>
</trkpt>
<trkpt lat="49.0580253303051" lon="9.616456925868988">
<ele>414.2</ele>
<time>2024-05-07T12:24:00Z</time>
</trkpt>
<trkpt lat="49.05804821290076" lon="9.61643312126398">
<ele>414.4</ele>
<time>2024-05-07T12:24:01Z</time>
</trkpt>
<trkpt lat="49.05806723982096" lon="9.616408310830591">
<ele>414.6</ele>
<time>2024-05-07T12:24:02Z</time>
</trkpt>
<trkpt lat="49.05809020623565" lon="9.616388278082011">
<ele>414.8</ele>
<time>2024-05-07T12:24:03Z</time>
</trkpt>
<trkpt lat="49.058113088831306" lon="9.616368245333431">
<ele>415</ele>
<time>2024-05-07T12:24:04Z</time>
</trkpt>
<trkpt lat="49.05813597142696" lon="9.616350140422584">
<ele>415.2</ele>
<time>2024-05-07T12:24:05Z</time>
</trkpt>
<trkpt lat="49.05815885402262" lon="9.616330107674004">
<ele>415.6</ele>
<time>2024-05-07T12:24:06Z</time>
</trkpt>
<trkpt lat="49.05818173661828" lon="9.61631485261023">
<ele>415.8</ele>
<time>2024-05-07T12:24:07Z</time>
</trkpt>
<trkpt lat="49.058208391070366" lon="9.61629674769938">
<ele>416</ele>
<time>2024-05-07T12:24:08Z</time>
</trkpt>
<trkpt lat="49.058231273666024" lon="9.616283336654304">
<ele>416.2</ele>
<time>2024-05-07T12:24:09Z</time>
</trkpt>
<trkpt lat="49.058254240080714" lon="9.616265231743457">
<ele>416.6</ele>
<time>2024-05-07T12:24:10Z</time>
</trkpt>
<trkpt lat="49.05827712267637" lon="9.616243354976175">
<ele>417</ele>
<time>2024-05-07T12:24:11Z</time>
</trkpt>
<trkpt lat="49.05830000527203" lon="9.616223322227595">
<ele>417.2</ele>
<time>2024-05-07T12:24:12Z</time>
</trkpt>
<trkpt lat="49.05831903219223" lon="9.61619851179421">
<ele>417.8</ele>
<time>2024-05-07T12:24:13Z</time>
</trkpt>
<trkpt lat="49.05834191478789" lon="9.6161765512079">
<ele>418</ele>
<time>2024-05-07T12:24:14Z</time>
</trkpt>
<trkpt lat="49.05836479738355" lon="9.616153668612242">
<ele>418.4</ele>
<time>2024-05-07T12:24:15Z</time>
</trkpt>
<trkpt lat="49.058387679979205" lon="9.616129864007236">
<ele>418.6</ele>
<time>2024-05-07T12:24:16Z</time>
</trkpt>
<trkpt lat="49.05840679071843" lon="9.616106981411576">
<ele>419</ele>
<time>2024-05-07T12:24:17Z</time>
</trkpt>
<trkpt lat="49.05843352898955" lon="9.616087870672343">
<ele>419.2</ele>
<time>2024-05-07T12:24:18Z</time>
</trkpt>
<trkpt lat="49.05845641158521" lon="9.616066915914416">
<ele>419.4</ele>
<time>2024-05-07T12:24:19Z</time>
</trkpt>
<trkpt lat="49.05847543850541" lon="9.616044955328109">
<ele>419.6</ele>
<time>2024-05-07T12:24:20Z</time>
</trkpt>
<trkpt lat="49.05850217677653" lon="9.616027772426603">
<ele>420</ele>
<time>2024-05-07T12:24:21Z</time>
</trkpt>
<trkpt lat="49.05852505937219" lon="9.616011595353484">
<ele>420.2</ele>
<time>2024-05-07T12:24:22Z</time>
</trkpt>
<trkpt lat="49.058544086292386" lon="9.615993490442634">
<ele>420.4</ele>
<time>2024-05-07T12:24:23Z</time>
</trkpt>
<trkpt lat="49.05856319703162" lon="9.615975301712751">
<ele>420.6</ele>
<time>2024-05-07T12:24:24Z</time>
</trkpt>
<trkpt lat="49.058589935302734" lon="9.615956274792552">
<ele>421</ele>
<time>2024-05-07T12:24:25Z</time>
</trkpt>
<trkpt lat="49.058608962222934" lon="9.615936242043972">
<ele>421</ele>
<time>2024-05-07T12:24:26Z</time>
</trkpt>
<trkpt lat="49.05863184481859" lon="9.615904726088049">
<ele>421.2</ele>
<time>2024-05-07T12:24:27Z</time>
</trkpt>
<trkpt lat="49.05865095555782" lon="9.615881843492389">
<ele>421.4</ele>
<time>2024-05-07T12:24:28Z</time>
</trkpt>
<trkpt lat="49.05867383815348" lon="9.615858038887382">
<ele>421.6</ele>
<time>2024-05-07T12:24:29Z</time>
</trkpt>
<trkpt lat="49.05869672074914" lon="9.615835156291723">
<ele>421.8</ele>
<time>2024-05-07T12:24:30Z</time>
</trkpt>
<trkpt lat="49.058723375201225" lon="9.615811267867684">
<ele>422</ele>
<time>2024-05-07T12:24:31Z</time>
</trkpt>
<trkpt lat="49.058742485940456" lon="9.615795090794563">
<ele>422</ele>
<time>2024-05-07T12:24:32Z</time>
</trkpt>
<trkpt lat="49.05876159667969" lon="9.615773130208254">
<ele>422.4</ele>
<time>2024-05-07T12:24:33Z</time>
</trkpt>
<trkpt lat="49.05878825113177" lon="9.615751253440976">
<ele>422.6</ele>
<time>2024-05-07T12:24:34Z</time>
</trkpt>
<trkpt lat="49.05880736187101" lon="9.615728370845318">
<ele>422.8</ele>
<time>2024-05-07T12:24:35Z</time>
</trkpt>
<trkpt lat="49.05883024446666" lon="9.61570356041193">
<ele>423</ele>
<time>2024-05-07T12:24:36Z</time>
</trkpt>
<trkpt lat="49.05885312706232" lon="9.615678749978542">
<ele>423.2</ele>
<time>2024-05-07T12:24:37Z</time>
</trkpt>
<trkpt lat="49.05886838212609" lon="9.615652011707423">
<ele>423.4</ele>
<time>2024-05-07T12:24:38Z</time>
</trkpt>
<trkpt lat="49.05889126472175" lon="9.61562535725534">
<ele>423.6</ele>
<time>2024-05-07T12:24:39Z</time>
</trkpt>
<trkpt lat="49.05890651978552" lon="9.615594847127795">
<ele>423.8</ele>
<time>2024-05-07T12:24:40Z</time>
</trkpt>
<trkpt lat="49.05892940238118" lon="9.615570036694407">
<ele>424</ele>
<time>2024-05-07T12:24:41Z</time>
</trkpt>
<trkpt lat="49.05895228497684" lon="9.615546148270369">
<ele>424.2</ele>
<time>2024-05-07T12:24:42Z</time>
</trkpt>
<trkpt lat="49.0589751675725" lon="9.615520415827632">
<ele>424.4</ele>
<time>2024-05-07T12:24:43Z</time>
</trkpt>
<trkpt lat="49.05899427831173" lon="9.615493761375546">
<ele>424.8</ele>
<time>2024-05-07T12:24:44Z</time>
</trkpt>
<trkpt lat="49.0590095333755" lon="9.615458473563194">
<ele>425</ele>
<time>2024-05-07T12:24:45Z</time>
</trkpt>
<trkpt lat="49.0590285602957" lon="9.615434585139155">
<ele>425.2</ele>
<time>2024-05-07T12:24:46Z</time>
</trkpt>
<trkpt lat="49.05904381535947" lon="9.61540692485869">
<ele>425.4</ele>
<time>2024-05-07T12:24:47Z</time>
</trkpt>
<trkpt lat="49.05905529856682" lon="9.615373564884068">
<ele>425.6</ele>
<time>2024-05-07T12:24:48Z</time>
</trkpt>
<trkpt lat="49.05907055363059" lon="9.615341126918793">
<ele>425.8</ele>
<time>2024-05-07T12:24:49Z</time>
</trkpt>
<trkpt lat="49.059081953018904" lon="9.61530684493482">
<ele>426</ele>
<time>2024-05-07T12:24:50Z</time>
</trkpt>
<trkpt lat="49.05908958055079" lon="9.615275328978896">
<ele>426.2</ele>
<time>2024-05-07T12:24:51Z</time>
</trkpt>
<trkpt lat="49.05909720808267" lon="9.615238113328816">
<ele>426.4</ele>
<time>2024-05-07T12:24:52Z</time>
</trkpt>
<trkpt lat="49.05910869129002" lon="9.615213386714458">
<ele>426.6</ele>
<time>2024-05-07T12:24:53Z</time>
</trkpt>
<trkpt lat="49.059120174497366" lon="9.615179942920804">
<ele>426.8</ele>
<time>2024-05-07T12:24:54Z</time>
</trkpt>
<trkpt lat="49.05913157388568" lon="9.61514658294618">
<ele>427.2</ele>
<time>2024-05-07T12:24:55Z</time>
</trkpt>
<trkpt lat="49.059143057093024" lon="9.61510844528675">
<ele>427.4</ele>
<time>2024-05-07T12:24:56Z</time>
</trkpt>
<trkpt lat="49.05915445648134" lon="9.61506645195186">
<ele>427.6</ele>
<time>2024-05-07T12:24:57Z</time>
</trkpt>
<trkpt lat="49.059162084013224" lon="9.615024542436004">
<ele>427.8</ele>
<time>2024-05-07T12:24:58Z</time>
</trkpt>
<trkpt lat="49.05916971154511" lon="9.614981627091764">
<ele>428</ele>
<time>2024-05-07T12:24:59Z</time>
</trkpt>
<trkpt lat="49.05917356722057" lon="9.614943489432337">
<ele>428.2</ele>
<time>2024-05-07T12:25:00Z</time>
</trkpt>
<trkpt lat="49.059181194752455" lon="9.614906273782251">
<ele>428.4</ele>
<time>2024-05-07T12:25:01Z</time>
</trkpt>
<trkpt lat="49.05918496660888" lon="9.61487291380763">
<ele>428.8</ele>
<time>2024-05-07T12:25:02Z</time>
</trkpt>
<trkpt lat="49.05919644981623" lon="9.614839553833008">
<ele>429</ele>
<time>2024-05-07T12:25:03Z</time>
</trkpt>
<trkpt lat="49.05920784920454" lon="9.614805188030005">
<ele>429.2</ele>
<time>2024-05-07T12:25:04Z</time>
</trkpt>
<trkpt lat="49.059219332411885" lon="9.614769900217652">
<ele>429.4</ele>
<time>2024-05-07T12:25:05Z</time>
</trkpt>
<trkpt lat="49.0592307318002" lon="9.614727906882765">
<ele>429.8</ele>
<time>2024-05-07T12:25:06Z</time>
</trkpt>
<trkpt lat="49.059242215007544" lon="9.614687841385605">
<ele>430</ele>
<time>2024-05-07T12:25:07Z</time>
</trkpt>
<trkpt lat="49.05924984253943" lon="9.614653559401631">
<ele>430.2</ele>
<time>2024-05-07T12:25:08Z</time>
</trkpt>
<trkpt lat="49.05925747007131" lon="9.614623049274089">
<ele>430.6</ele>
<time>2024-05-07T12:25:09Z</time>
</trkpt>
<trkpt lat="49.0592650976032" lon="9.614591533318162">
<ele>430.8</ele>
<time>2024-05-07T12:25:10Z</time>
</trkpt>
<trkpt lat="49.05927658081055" lon="9.614551467821002">
<ele>431</ele>
<time>2024-05-07T12:25:11Z</time>
</trkpt>
<trkpt lat="49.05928420834243" lon="9.614513330161572">
<ele>431.2</ele>
<time>2024-05-07T12:25:12Z</time>
</trkpt>
<trkpt lat="49.059295607730746" lon="9.614473264664412">
<ele>431.4</ele>
<time>2024-05-07T12:25:13Z</time>
</trkpt>
<trkpt lat="49.05930323526263" lon="9.61443705484271">
<ele>431.6</ele>
<time>2024-05-07T12:25:14Z</time>
</trkpt>
<trkpt lat="49.05931086279452" lon="9.61439698934555">
<ele>431.6</ele>
<time>2024-05-07T12:25:15Z</time>
</trkpt>
<trkpt lat="49.05931086279452" lon="9.614361701533198">
<ele>432</ele>
<time>2024-05-07T12:25:16Z</time>
</trkpt>
<trkpt lat="49.05931471846998" lon="9.614328341558576">
<ele>432.2</ele>
<time>2024-05-07T12:25:17Z</time>
</trkpt>
<trkpt lat="49.05932997353375" lon="9.614293053746223">
<ele>432.4</ele>
<time>2024-05-07T12:25:18Z</time>
</trkpt>
<trkpt lat="49.05933374539018" lon="9.614252988249063">
<ele>432.6</ele>
<time>2024-05-07T12:25:19Z</time>
</trkpt>
<trkpt lat="49.05934522859752" lon="9.614216778427362">
<ele>432.8</ele>
<time>2024-05-07T12:25:20Z</time>
</trkpt>
<trkpt lat="49.059356627985835" lon="9.61418341845274">
<ele>433.2</ele>
<time>2024-05-07T12:25:21Z</time>
</trkpt>
<trkpt lat="49.05936811119318" lon="9.614152908325195">
<ele>433.4</ele>
<time>2024-05-07T12:25:22Z</time>
</trkpt>
<trkpt lat="49.05936811119318" lon="9.614123320207">
<ele>433.8</ele>
<time>2024-05-07T12:25:23Z</time>
</trkpt>
<trkpt lat="49.05937951058149" lon="9.614089960232375">
<ele>434</ele>
<time>2024-05-07T12:25:24Z</time>
</trkpt>
<trkpt lat="49.05938336625695" lon="9.614051738753917">
<ele>434.2</ele>
<time>2024-05-07T12:25:25Z</time>
</trkpt>
<trkpt lat="49.05938336625695" lon="9.614014606922863">
<ele>434.6</ele>
<time>2024-05-07T12:25:26Z</time>
</trkpt>
<trkpt lat="49.05938713811338" lon="9.61398309096694">
<ele>434.8</ele>
<time>2024-05-07T12:25:27Z</time>
</trkpt>
<trkpt lat="49.059394765645266" lon="9.61394302546978">
<ele>435</ele>
<time>2024-05-07T12:25:28Z</time>
</trkpt>
<trkpt lat="49.05940239317715" lon="9.613903043791652">
<ele>435.4</ele>
<time>2024-05-07T12:25:29Z</time>
</trkpt>
<trkpt lat="49.05940624885261" lon="9.613860128447412">
<ele>435.6</ele>
<time>2024-05-07T12:25:30Z</time>
</trkpt>
<trkpt lat="49.0594138763845" lon="9.613821906968951">
<ele>435.8</ele>
<time>2024-05-07T12:25:31Z</time>
</trkpt>
<trkpt lat="49.05942150391638" lon="9.6137847751379">
<ele>436</ele>
<time>2024-05-07T12:25:32Z</time>
</trkpt>
<trkpt lat="49.059436758980155" lon="9.613755187019706">
<ele>436.2</ele>
<time>2024-05-07T12:25:33Z</time>
</trkpt>
<trkpt lat="49.05945201404393" lon="9.61372660472989">
<ele>436.4</ele>
<time>2024-05-07T12:25:34Z</time>
</trkpt>
<trkpt lat="49.05946349725127" lon="9.613697938621044">
<ele>436.6</ele>
<time>2024-05-07T12:25:35Z</time>
</trkpt>
<trkpt lat="49.0594672691077" lon="9.613661728799345">
<ele>436.8</ele>
<time>2024-05-07T12:25:36Z</time>
</trkpt>
<trkpt lat="49.0594672691077" lon="9.613623591139913">
<ele>436.8</ele>
<time>2024-05-07T12:25:37Z</time>
</trkpt>
<trkpt lat="49.05947112478316" lon="9.613592075183988">
<ele>437.2</ele>
<time>2024-05-07T12:25:38Z</time>
</trkpt>
<trkpt lat="49.05948637984693" lon="9.613553015515208">
<ele>437.4</ele>
<time>2024-05-07T12:25:39Z</time>
</trkpt>
<trkpt lat="49.05949400737882" lon="9.61351010017097">
<ele>437.6</ele>
<time>2024-05-07T12:25:40Z</time>
</trkpt>
<trkpt lat="49.0595016349107" lon="9.61346810683608">
<ele>437.8</ele>
<time>2024-05-07T12:25:41Z</time>
</trkpt>
<trkpt lat="49.059513034299016" lon="9.613423347473145">
<ele>438</ele>
<time>2024-05-07T12:25:42Z</time>
</trkpt>
<trkpt lat="49.05952451750636" lon="9.613381354138255">
<ele>438.2</ele>
<time>2024-05-07T12:25:43Z</time>
</trkpt>
<trkpt lat="49.05953214503825" lon="9.613340366631746">
<ele>438.4</ele>
<time>2024-05-07T12:25:44Z</time>
</trkpt>
<trkpt lat="49.05954354442656" lon="9.613301223143935">
<ele>438.4</ele>
<time>2024-05-07T12:25:45Z</time>
</trkpt>
<trkpt lat="49.05955117195845" lon="9.613265013322234">
<ele>438.6</ele>
<time>2024-05-07T12:25:46Z</time>
</trkpt>
<trkpt lat="49.05955879949033" lon="9.613229725509882">
<ele>438.8</ele>
<time>2024-05-07T12:25:47Z</time>
</trkpt>
<trkpt lat="49.05957028269768" lon="9.613189660012722">
<ele>439</ele>
<time>2024-05-07T12:25:48Z</time>
</trkpt>
<trkpt lat="49.05957791022957" lon="9.61315345019102">
<ele>439.2</ele>
<time>2024-05-07T12:25:49Z</time>
</trkpt>
<trkpt lat="49.05958930961788" lon="9.61311522871256">
<ele>439.4</ele>
<time>2024-05-07T12:25:50Z</time>
</trkpt>
<trkpt lat="49.05960079282522" lon="9.61307524703443">
<ele>439.6</ele>
<time>2024-05-07T12:25:51Z</time>
</trkpt>
<trkpt lat="49.05960842035711" lon="9.613037109375">
<ele>439.8</ele>
<time>2024-05-07T12:25:52Z</time>
</trkpt>
<trkpt lat="49.059616047888994" lon="9.612997965887187">
<ele>440</ele>
<time>2024-05-07T12:25:53Z</time>
</trkpt>
<trkpt lat="49.05962367542088" lon="9.612957900390027">
<ele>440.4</ele>
<time>2024-05-07T12:25:54Z</time>
</trkpt>
<trkpt lat="49.059631302952766" lon="9.612917834892867">
<ele>440.6</ele>
<time>2024-05-07T12:25:55Z</time>
</trkpt>
<trkpt lat="49.059635158628225" lon="9.612879697233438">
<ele>440.8</ele>
<time>2024-05-07T12:25:56Z</time>
</trkpt>
<trkpt lat="49.05964655801654" lon="9.612841559574008">
<ele>441.2</ele>
<time>2024-05-07T12:25:57Z</time>
</trkpt>
<trkpt lat="49.059650413692" lon="9.612803421914576">
<ele>441.4</ele>
<time>2024-05-07T12:25:58Z</time>
</trkpt>
<trkpt lat="49.05965804122389" lon="9.612766206264496">
<ele>441.6</ele>
<time>2024-05-07T12:25:59Z</time>
</trkpt>
<trkpt lat="49.05966181308031" lon="9.612732846289871">
<ele>442</ele>
<time>2024-05-07T12:26:00Z</time>
</trkpt>
<trkpt lat="49.05966566875577" lon="9.612696636468172">
<ele>442.2</ele>
<time>2024-05-07T12:26:01Z</time>
</trkpt>
<trkpt lat="49.0596694406122" lon="9.61266034282744">
<ele>442.6</ele>
<time>2024-05-07T12:26:02Z</time>
</trkpt>
<trkpt lat="49.059673296287656" lon="9.61262128315866">
<ele>443</ele>
<time>2024-05-07T12:26:03Z</time>
</trkpt>
<trkpt lat="49.05967706814408" lon="9.612584989517927">
<ele>443.2</ele>
<time>2024-05-07T12:26:04Z</time>
</trkpt>
<trkpt lat="49.05968092381954" lon="9.612548779696226">
<ele>443.4</ele>
<time>2024-05-07T12:26:05Z</time>
</trkpt>
<trkpt lat="49.05968092381954" lon="9.612509720027449">
<ele>443.6</ele>
<time>2024-05-07T12:26:06Z</time>
</trkpt>
<trkpt lat="49.05968092381954" lon="9.612469654530289">
<ele>443.8</ele>
<time>2024-05-07T12:26:07Z</time>
</trkpt>
<trkpt lat="49.05968469567597" lon="9.612433360889554">
<ele>444.2</ele>
<time>2024-05-07T12:26:08Z</time>
</trkpt>
<trkpt lat="49.05968092381954" lon="9.612398073077202">
<ele>444.4</ele>
<time>2024-05-07T12:26:09Z</time>
</trkpt>
<trkpt lat="49.05968092381954" lon="9.61236379109323">
<ele>444.6</ele>
<time>2024-05-07T12:26:10Z</time>
</trkpt>
<trkpt lat="49.05967706814408" lon="9.612326575443149">
<ele>444.8</ele>
<time>2024-05-07T12:26:11Z</time>
</trkpt>
<trkpt lat="49.05967706814408" lon="9.612286509945989">
<ele>445</ele>
<time>2024-05-07T12:26:12Z</time>
</trkpt>
<trkpt lat="49.05967706814408" lon="9.612250300124288">
<ele>445.2</ele>
<time>2024-05-07T12:26:13Z</time>
</trkpt>
<trkpt lat="49.05967706814408" lon="9.612211156636477">
<ele>445.4</ele>
<time>2024-05-07T12:26:14Z</time>
</trkpt>
<trkpt lat="49.059673296287656" lon="9.612176874652503">
<ele>445.8</ele>
<time>2024-05-07T12:26:15Z</time>
</trkpt>
<trkpt lat="49.059673296287656" lon="9.612136809155343">
<ele>446</ele>
<time>2024-05-07T12:26:16Z</time>
</trkpt>
<trkpt lat="49.059673296287656" lon="9.612096743658183">
<ele>446.2</ele>
<time>2024-05-07T12:26:17Z</time>
</trkpt>
<trkpt lat="49.05967706814408" lon="9.612051900476215">
<ele>446.4</ele>
<time>2024-05-07T12:26:18Z</time>
</trkpt>
<trkpt lat="49.05968092381954" lon="9.612011834979056">
<ele>446.8</ele>
<time>2024-05-07T12:26:19Z</time>
</trkpt>
<trkpt lat="49.05968469567597" lon="9.611971853300927">
<ele>447</ele>
<time>2024-05-07T12:26:20Z</time>
</trkpt>
<trkpt lat="49.05968855135143" lon="9.611934637650847">
<ele>447.2</ele>
<time>2024-05-07T12:26:21Z</time>
</trkpt>
<trkpt lat="49.05968855135143" lon="9.611901277676225">
<ele>447.4</ele>
<time>2024-05-07T12:26:22Z</time>
</trkpt>
<trkpt lat="49.05968469567597" lon="9.61187361739576">
<ele>447.6</ele>
<time>2024-05-07T12:26:23Z</time>
</trkpt>
<trkpt lat="49.05968469567597" lon="9.611838329583406">
<ele>447.8</ele>
<time>2024-05-07T12:26:24Z</time>
</trkpt>
<trkpt lat="49.059673296287656" lon="9.611800191923976">
<ele>448</ele>
<time>2024-05-07T12:26:25Z</time>
</trkpt>
<trkpt lat="49.059673296287656" lon="9.611764904111624">
<ele>448</ele>
<time>2024-05-07T12:26:26Z</time>
</trkpt>
<trkpt lat="49.05966566875577" lon="9.611726682633162">
<ele>448.2</ele>
<time>2024-05-07T12:26:27Z</time>
</trkpt>
<trkpt lat="49.05966566875577" lon="9.611679995432496">
<ele>448.2</ele>
<time>2024-05-07T12:26:28Z</time>
</trkpt>
<trkpt lat="49.05966566875577" lon="9.611635152250528">
<ele>448.4</ele>
<time>2024-05-07T12:26:29Z</time>
</trkpt>
<trkpt lat="49.05966181308031" lon="9.61159324273467">
<ele>448.6</ele>
<time>2024-05-07T12:26:30Z</time>
</trkpt>
<trkpt lat="49.05966181308031" lon="9.611550327390432">
<ele>448.8</ele>
<time>2024-05-07T12:26:31Z</time>
</trkpt>
<trkpt lat="49.05966566875577" lon="9.611504478380084">
<ele>449</ele>
<time>2024-05-07T12:26:32Z</time>
</trkpt>
<trkpt lat="49.05966181308031" lon="9.61145494133234">
<ele>449.2</ele>
<time>2024-05-07T12:26:33Z</time>
</trkpt>
<trkpt lat="49.059654185548425" lon="9.611418647691607">
<ele>449.2</ele>
<time>2024-05-07T12:26:34Z</time>
</trkpt>
<trkpt lat="49.059654185548425" lon="9.61137673817575">
<ele>449.4</ele>
<time>2024-05-07T12:26:35Z</time>
</trkpt>
<trkpt lat="49.059654185548425" lon="9.611339522525668">
<ele>449.6</ele>
<time>2024-05-07T12:26:36Z</time>
</trkpt>
<trkpt lat="49.05965804122389" lon="9.61129853501916">
<ele>449.8</ele>
<time>2024-05-07T12:26:37Z</time>
</trkpt>
<trkpt lat="49.05966566875577" lon="9.61125461384654">
<ele>450.2</ele>
<time>2024-05-07T12:26:38Z</time>
</trkpt>
<trkpt lat="49.05966566875577" lon="9.611213626340032">
<ele>450.4</ele>
<time>2024-05-07T12:26:39Z</time>
</trkpt>
<trkpt lat="49.05966566875577" lon="9.61117833852768">
<ele>450.6</ele>
<time>2024-05-07T12:26:40Z</time>
</trkpt>
<trkpt lat="49.05966566875577" lon="9.611141122877598">
<ele>451</ele>
<time>2024-05-07T12:26:41Z</time>
</trkpt>
<trkpt lat="49.0596694406122" lon="9.61109820753336">
<ele>451.2</ele>
<time>2024-05-07T12:26:42Z</time>
</trkpt>
<trkpt lat="49.059673296287656" lon="9.61105529218912">
<ele>451.2</ele>
<time>2024-05-07T12:26:43Z</time>
</trkpt>
<trkpt lat="49.05967706814408" lon="9.611015310510991">
<ele>451.4</ele>
<time>2024-05-07T12:26:44Z</time>
</trkpt>
<trkpt lat="49.05968092381954" lon="9.610975245013831">
<ele>451.6</ele>
<time>2024-05-07T12:26:45Z</time>
</trkpt>
<trkpt lat="49.05968469567597" lon="9.610933251678944">
<ele>451.8</ele>
<time>2024-05-07T12:26:46Z</time>
</trkpt>
<trkpt lat="49.05968855135143" lon="9.610890336334704">
<ele>452.2</ele>
<time>2024-05-07T12:26:47Z</time>
</trkpt>
<trkpt lat="49.059696178883314" lon="9.610850270837544">
<ele>452.4</ele>
<time>2024-05-07T12:26:48Z</time>
</trkpt>
<trkpt lat="49.05969995073974" lon="9.610811211168766">
<ele>452.6</ele>
<time>2024-05-07T12:26:49Z</time>
</trkpt>
<trkpt lat="49.0597038064152" lon="9.610773073509336">
<ele>452.8</ele>
<time>2024-05-07T12:26:50Z</time>
</trkpt>
<trkpt lat="49.059711433947086" lon="9.610733008012176">
<ele>453</ele>
<time>2024-05-07T12:26:51Z</time>
</trkpt>
<trkpt lat="49.05971906147897" lon="9.610694870352743">
<ele>453.2</ele>
<time>2024-05-07T12:26:52Z</time>
</trkpt>
<trkpt lat="49.05972668901086" lon="9.610658576712012">
<ele>453.4</ele>
<time>2024-05-07T12:26:53Z</time>
</trkpt>
<trkpt lat="49.05973808839917" lon="9.610621444880962">
<ele>453.6</ele>
<time>2024-05-07T12:26:54Z</time>
</trkpt>
<trkpt lat="49.059753343462944" lon="9.61058515124023">
<ele>453.8</ele>
<time>2024-05-07T12:26:55Z</time>
</trkpt>
<trkpt lat="49.05976859852672" lon="9.610553719103336">
<ele>454</ele>
<time>2024-05-07T12:26:56Z</time>
</trkpt>
<trkpt lat="49.05978770926595" lon="9.610518431290984">
<ele>454.2</ele>
<time>2024-05-07T12:26:57Z</time>
</trkpt>
<trkpt lat="49.05980296432972" lon="9.610483143478632">
<ele>454.4</ele>
<time>2024-05-07T12:26:58Z</time>
</trkpt>
<trkpt lat="49.05982207506895" lon="9.610454477369784">
<ele>454.6</ele>
<time>2024-05-07T12:26:59Z</time>
</trkpt>
<trkpt lat="49.05984495766461" lon="9.610423045232892">
<ele>455</ele>
<time>2024-05-07T12:27:00Z</time>
</trkpt>
<trkpt lat="49.05986398458481" lon="9.610396306961777">
<ele>455.4</ele>
<time>2024-05-07T12:27:01Z</time>
</trkpt>
<trkpt lat="49.05988686718047" lon="9.610373424366117">
<ele>455.6</ele>
<time>2024-05-07T12:27:02Z</time>
</trkpt>
<trkpt lat="49.0599059779197" lon="9.61034869775176">
<ele>456</ele>
<time>2024-05-07T12:27:03Z</time>
</trkpt>
<trkpt lat="49.05992886051536" lon="9.61032866500318">
<ele>456.2</ele>
<time>2024-05-07T12:27:04Z</time>
</trkpt>
<trkpt lat="49.059951743111014" lon="9.610306704416873">
<ele>456.6</ele>
<time>2024-05-07T12:27:05Z</time>
</trkpt>
<trkpt lat="49.05997462570667" lon="9.610286671668293">
<ele>456.8</ele>
<time>2024-05-07T12:27:06Z</time>
</trkpt>
<trkpt lat="49.05999750830233" lon="9.61026948876679">
<ele>457</ele>
<time>2024-05-07T12:27:07Z</time>
</trkpt>
<trkpt lat="49.06002039089799" lon="9.610258089378476">
<ele>457.4</ele>
<time>2024-05-07T12:27:08Z</time>
</trkpt>
<trkpt lat="49.06004327349365" lon="9.61024853400886">
<ele>457.6</ele>
<time>2024-05-07T12:27:09Z</time>
</trkpt>
<trkpt lat="49.060066156089306" lon="9.61023042909801">
<ele>458</ele>
<time>2024-05-07T12:27:10Z</time>
</trkpt>
<trkpt lat="49.06009289436042" lon="9.610219951719046">
<ele>458.2</ele>
<time>2024-05-07T12:27:11Z</time>
</trkpt>
<trkpt lat="49.06011577695608" lon="9.61021039634943">
<ele>458.6</ele>
<time>2024-05-07T12:27:12Z</time>
</trkpt>
<trkpt lat="49.0601425152272" lon="9.610201762989163">
<ele>458.8</ele>
<time>2024-05-07T12:27:13Z</time>
</trkpt>
<trkpt lat="49.06016916967928" lon="9.610184663906692">
<ele>459</ele>
<time>2024-05-07T12:27:14Z</time>
</trkpt>
<trkpt lat="49.06019205227494" lon="9.610166475176811">
<ele>459.4</ele>
<time>2024-05-07T12:27:15Z</time>
</trkpt>
<trkpt lat="49.06021879054606" lon="9.61015122011304">
<ele>459.6</ele>
<time>2024-05-07T12:27:16Z</time>
</trkpt>
<trkpt lat="49.06024167314172" lon="9.610136970877647">
<ele>459.8</ele>
<time>2024-05-07T12:27:17Z</time>
</trkpt>
<trkpt lat="49.060264555737376" lon="9.610123559832571">
<ele>460</ele>
<time>2024-05-07T12:27:18Z</time>
</trkpt>
<trkpt lat="49.060287438333035" lon="9.6101083047688">
<ele>460.4</ele>
<time>2024-05-07T12:27:19Z</time>
</trkpt>
<trkpt lat="49.06031032092869" lon="9.610094977542758">
<ele>460.6</ele>
<time>2024-05-07T12:27:20Z</time>
</trkpt>
<trkpt lat="49.06033320352435" lon="9.610081650316715">
<ele>460.6</ele>
<time>2024-05-07T12:27:21Z</time>
</trkpt>
<trkpt lat="49.06035994179547" lon="9.610063545405865">
<ele>460.8</ele>
<time>2024-05-07T12:27:22Z</time>
</trkpt>
<trkpt lat="49.06038282439113" lon="9.61005013436079">
<ele>461</ele>
<time>2024-05-07T12:27:23Z</time>
</trkpt>
<trkpt lat="49.060401851311326" lon="9.61003303527832">
<ele>461.2</ele>
<time>2024-05-07T12:27:24Z</time>
</trkpt>
<trkpt lat="49.060424733906984" lon="9.610019624233246">
<ele>461.4</ele>
<time>2024-05-07T12:27:25Z</time>
</trkpt>
<trkpt lat="49.06044761650264" lon="9.610008224844933">
<ele>461.6</ele>
<time>2024-05-07T12:27:26Z</time>
</trkpt>
<trkpt lat="49.0604704990983" lon="9.609994813799858">
<ele>461.8</ele>
<time>2024-05-07T12:27:27Z</time>
</trkpt>
<trkpt lat="49.06049346551299" lon="9.609979558736086">
<ele>462</ele>
<time>2024-05-07T12:27:28Z</time>
</trkpt>
<trkpt lat="49.06051249243319" lon="9.609968159347773">
<ele>462.2</ele>
<time>2024-05-07T12:27:29Z</time>
</trkpt>
<trkpt lat="49.06053160317242" lon="9.60995483212173">
<ele>462.4</ele>
<time>2024-05-07T12:27:30Z</time>
</trkpt>
<trkpt lat="49.06055063009262" lon="9.609941421076655">
<ele>462.6</ele>
<time>2024-05-07T12:27:31Z</time>
</trkpt>
<trkpt lat="49.06057736836374" lon="9.609930021688342">
<ele>462.8</ele>
<time>2024-05-07T12:27:32Z</time>
</trkpt>
<trkpt lat="49.06060025095939" lon="9.609920466318728">
<ele>463</ele>
<time>2024-05-07T12:27:33Z</time>
</trkpt>
<trkpt lat="49.060623133555055" lon="9.609909988939762">
<ele>463.2</ele>
<time>2024-05-07T12:27:34Z</time>
</trkpt>
<trkpt lat="49.06064601615071" lon="9.609896577894688">
<ele>463.4</ele>
<time>2024-05-07T12:27:35Z</time>
</trkpt>
<trkpt lat="49.06066889874637" lon="9.60987662896514">
<ele>463.6</ele>
<time>2024-05-07T12:27:36Z</time>
</trkpt>
<trkpt lat="49.0606880094856" lon="9.609865145757794">
<ele>463.8</ele>
<time>2024-05-07T12:27:37Z</time>
</trkpt>
<trkpt lat="49.0607070364058" lon="9.60985659621656">
<ele>464</ele>
<time>2024-05-07T12:27:38Z</time>
</trkpt>
<trkpt lat="49.06072991900146" lon="9.609847040846944">
<ele>464.2</ele>
<time>2024-05-07T12:27:39Z</time>
</trkpt>
<trkpt lat="49.06075665727258" lon="9.609827930107713">
<ele>464.6</ele>
<time>2024-05-07T12:27:40Z</time>
</trkpt>
<trkpt lat="49.06077568419278" lon="9.609809825196862">
<ele>465</ele>
<time>2024-05-07T12:27:41Z</time>
</trkpt>
<trkpt lat="49.060802422463894" lon="9.609787864610553">
<ele>465.2</ele>
<time>2024-05-07T12:27:42Z</time>
</trkpt>
<trkpt lat="49.06082530505955" lon="9.609780237078668">
<ele>465.4</ele>
<time>2024-05-07T12:27:43Z</time>
</trkpt>
<trkpt lat="49.06084818765521" lon="9.609764982014894">
<ele>465.8</ele>
<time>2024-05-07T12:27:44Z</time>
</trkpt>
<trkpt lat="49.06087492592633" lon="9.609747882932425">
<ele>466</ele>
<time>2024-05-07T12:27:45Z</time>
</trkpt>
<trkpt lat="49.06090158037841" lon="9.609723072499037">
<ele>466.2</ele>
<time>2024-05-07T12:27:46Z</time>
</trkpt>
<trkpt lat="49.06092069111765" lon="9.609700189903378">
<ele>466.4</ele>
<time>2024-05-07T12:27:47Z</time>
</trkpt>
<trkpt lat="49.0609435737133" lon="9.60967630147934">
<ele>466.6</ele>
<time>2024-05-07T12:27:48Z</time>
</trkpt>
<trkpt lat="49.06097408384085" lon="9.609662974253297">
<ele>466.6</ele>
<time>2024-05-07T12:27:49Z</time>
</trkpt>
<trkpt lat="49.06100459396839" lon="9.609648641198874">
<ele>466.8</ele>
<time>2024-05-07T12:27:50Z</time>
</trkpt>
<trkpt lat="49.061035104095936" lon="9.60964009165764">
<ele>467</ele>
<time>2024-05-07T12:27:51Z</time>
</trkpt>
<trkpt lat="49.06106184236705" lon="9.609624836593866">
<ele>467</ele>
<time>2024-05-07T12:27:52Z</time>
</trkpt>
<trkpt lat="49.0610923524946" lon="9.609609581530094">
<ele>467.2</ele>
<time>2024-05-07T12:27:53Z</time>
</trkpt>
<trkpt lat="49.06111900694668" lon="9.60960002616048">
<ele>467.4</ele>
<time>2024-05-07T12:27:54Z</time>
</trkpt>
<trkpt lat="49.06114951707423" lon="9.609591476619244">
<ele>467.6</ele>
<time>2024-05-07T12:27:55Z</time>
</trkpt>
<trkpt lat="49.06117248348892" lon="9.609582843258975">
<ele>467.8</ele>
<time>2024-05-07T12:27:56Z</time>
</trkpt>
<trkpt lat="49.061195366084576" lon="9.609568594023584">
<ele>468</ele>
<time>2024-05-07T12:27:57Z</time>
</trkpt>
<trkpt lat="49.061218248680234" lon="9.609551411122084">
<ele>468.2</ele>
<time>2024-05-07T12:27:58Z</time>
</trkpt>
<trkpt lat="49.06124490313232" lon="9.60953515022993">
<ele>468.2</ele>
<time>2024-05-07T12:27:59Z</time>
</trkpt>
<trkpt lat="49.06127164140344" lon="9.60951989516616">
<ele>468.4</ele>
<time>2024-05-07T12:28:00Z</time>
</trkpt>
<trkpt lat="49.06129829585552" lon="9.609504640102386">
<ele>468.6</ele>
<time>2024-05-07T12:28:01Z</time>
</trkpt>
<trkpt lat="49.06132503412664" lon="9.609490390866997">
<ele>469</ele>
<time>2024-05-07T12:28:02Z</time>
</trkpt>
<trkpt lat="49.06135177239776" lon="9.60947697982192">
<ele>469.2</ele>
<time>2024-05-07T12:28:03Z</time>
</trkpt>
<trkpt lat="49.0613822825253" lon="9.609461724758148">
<ele>469.4</ele>
<time>2024-05-07T12:28:04Z</time>
</trkpt>
<trkpt lat="49.06140893697739" lon="9.609448397532104">
<ele>469.6</ele>
<time>2024-05-07T12:28:05Z</time>
</trkpt>
<trkpt lat="49.06143944710493" lon="9.609431214630604">
<ele>469.8</ele>
<time>2024-05-07T12:28:06Z</time>
</trkpt>
<trkpt lat="49.06146618537605" lon="9.609415037557484">
<ele>469.8</ele>
<time>2024-05-07T12:28:07Z</time>
</trkpt>
<trkpt lat="49.061492839828134" lon="9.60939785465598">
<ele>470</ele>
<time>2024-05-07T12:28:08Z</time>
</trkpt>
<trkpt lat="49.06151957809925" lon="9.609383521601558">
<ele>470</ele>
<time>2024-05-07T12:28:09Z</time>
</trkpt>
<trkpt lat="49.06154631637037" lon="9.609365416690707">
<ele>470.2</ele>
<time>2024-05-07T12:28:10Z</time>
</trkpt>
<trkpt lat="49.06157682649791" lon="9.609348233789206">
<ele>470.2</ele>
<time>2024-05-07T12:28:11Z</time>
</trkpt>
<trkpt lat="49.06160348095" lon="9.609328201040626">
<ele>470.4</ele>
<time>2024-05-07T12:28:12Z</time>
</trkpt>
<trkpt lat="49.06163399107754" lon="9.609312023967505">
<ele>470.6</ele>
<time>2024-05-07T12:28:13Z</time>
</trkpt>
<trkpt lat="49.06166450120509" lon="9.609290063381197">
<ele>470.8</ele>
<time>2024-05-07T12:28:14Z</time>
</trkpt>
<trkpt lat="49.06169509515166" lon="9.609266258776188">
<ele>471</ele>
<time>2024-05-07T12:28:15Z</time>
</trkpt>
<trkpt lat="49.06172174960375" lon="9.6092414483428">
<ele>471</ele>
<time>2024-05-07T12:28:16Z</time>
</trkpt>
<trkpt lat="49.061748487874866" lon="9.609216637909412">
<ele>471.2</ele>
<time>2024-05-07T12:28:17Z</time>
</trkpt>
<trkpt lat="49.06177514232695" lon="9.609188055619596">
<ele>471.4</ele>
<time>2024-05-07T12:28:18Z</time>
</trkpt>
<trkpt lat="49.06179802492261" lon="9.609156539663672">
<ele>471.4</ele>
<time>2024-05-07T12:28:19Z</time>
</trkpt>
<trkpt lat="49.06182090751827" lon="9.60912125185132">
<ele>471.6</ele>
<time>2024-05-07T12:28:20Z</time>
</trkpt>
<trkpt lat="49.061847645789385" lon="9.60908311419189">
<ele>471.6</ele>
<time>2024-05-07T12:28:21Z</time>
</trkpt>
<trkpt lat="49.0618743840605" lon="9.609046904370189">
<ele>471.6</ele>
<time>2024-05-07T12:28:22Z</time>
</trkpt>
<trkpt lat="49.06189726665616" lon="9.609003067016602">
<ele>471.8</ele>
<time>2024-05-07T12:28:23Z</time>
</trkpt>
<trkpt lat="49.06192014925182" lon="9.608958223834634">
<ele>471.8</ele>
<time>2024-05-07T12:28:24Z</time>
</trkpt>
<trkpt lat="49.06193917617202" lon="9.608915308490396">
<ele>472</ele>
<time>2024-05-07T12:28:25Z</time>
</trkpt>
<trkpt lat="49.06195828691125" lon="9.608871387317777">
<ele>472</ele>
<time>2024-05-07T12:28:26Z</time>
</trkpt>
<trkpt lat="49.06198116950691" lon="9.608824700117111">
<ele>472.2</ele>
<time>2024-05-07T12:28:27Z</time>
</trkpt>
<trkpt lat="49.062004052102566" lon="9.608777929097414">
<ele>472.2</ele>
<time>2024-05-07T12:28:28Z</time>
</trkpt>
<trkpt lat="49.0620231628418" lon="9.608730236068368">
<ele>472.4</ele>
<time>2024-05-07T12:28:29Z</time>
</trkpt>
<trkpt lat="49.062046045437455" lon="9.608681621029971">
<ele>472.4</ele>
<time>2024-05-07T12:28:30Z</time>
</trkpt>
<trkpt lat="49.062065072357655" lon="9.6086301561445">
<ele>472.6</ele>
<time>2024-05-07T12:28:31Z</time>
</trkpt>
<trkpt lat="49.062084183096886" lon="9.608576763421295">
<ele>472.6</ele>
<time>2024-05-07T12:28:32Z</time>
</trkpt>
<trkpt lat="49.062103210017085" lon="9.608526220545173">
<ele>472.6</ele>
<time>2024-05-07T12:28:33Z</time>
</trkpt>
<trkpt lat="49.06212609261274" lon="9.60847374983132">
<ele>472.6</ele>
<time>2024-05-07T12:28:34Z</time>
</trkpt>
<trkpt lat="49.062145203351974" lon="9.608423206955194">
<ele>472.6</ele>
<time>2024-05-07T12:28:35Z</time>
</trkpt>
<trkpt lat="49.06216808594763" lon="9.60837165825069">
<ele>472.6</ele>
<time>2024-05-07T12:28:36Z</time>
</trkpt>
<trkpt lat="49.06218711286783" lon="9.608322121202946">
<ele>472.8</ele>
<time>2024-05-07T12:28:37Z</time>
</trkpt>
<trkpt lat="49.06220622360706" lon="9.608269650489092">
<ele>472.8</ele>
<time>2024-05-07T12:28:38Z</time>
</trkpt>
<trkpt lat="49.06222910620272" lon="9.608220029622316">
<ele>472.8</ele>
<time>2024-05-07T12:28:39Z</time>
</trkpt>
<trkpt lat="49.06224821694195" lon="9.60817141458392">
<ele>472.8</ele>
<time>2024-05-07T12:28:40Z</time>
</trkpt>
<trkpt lat="49.06226724386215" lon="9.608119949698448">
<ele>472.6</ele>
<time>2024-05-07T12:28:41Z</time>
</trkpt>
<trkpt lat="49.06228635460138" lon="9.608070328831673">
<ele>472.6</ele>
<time>2024-05-07T12:28:42Z</time>
</trkpt>
<trkpt lat="49.062301609665155" lon="9.60801500827074">
<ele>472.6</ele>
<time>2024-05-07T12:28:43Z</time>
</trkpt>
<trkpt lat="49.062320636585355" lon="9.607959687709808">
<ele>472.6</ele>
<time>2024-05-07T12:28:44Z</time>
</trkpt>
<trkpt lat="49.062339747324586" lon="9.607908222824337">
<ele>472.6</ele>
<time>2024-05-07T12:28:45Z</time>
</trkpt>
<trkpt lat="49.062358774244785" lon="9.607852902263405">
<ele>472.6</ele>
<time>2024-05-07T12:28:46Z</time>
</trkpt>
<trkpt lat="49.062381740659475" lon="9.607796659693122">
<ele>472.6</ele>
<time>2024-05-07T12:28:47Z</time>
</trkpt>
<trkpt lat="49.062404623255134" lon="9.607743183150887">
<ele>472.6</ele>
<time>2024-05-07T12:28:48Z</time>
</trkpt>
<trkpt lat="49.06242750585079" lon="9.607686940580606">
<ele>472.6</ele>
<time>2024-05-07T12:28:49Z</time>
</trkpt>
<trkpt lat="49.06245038844645" lon="9.607631620019674">
<ele>472.6</ele>
<time>2024-05-07T12:28:50Z</time>
</trkpt>
<trkpt lat="49.06247327104211" lon="9.607569677755237">
<ele>472.6</ele>
<time>2024-05-07T12:28:51Z</time>
</trkpt>
<trkpt lat="49.06249615363777" lon="9.607509579509497">
<ele>472.6</ele>
<time>2024-05-07T12:28:52Z</time>
</trkpt>
<trkpt lat="49.062515180557966" lon="9.607446631416678">
<ele>472.6</ele>
<time>2024-05-07T12:28:53Z</time>
</trkpt>
<trkpt lat="49.062538146972656" lon="9.60738368332386">
<ele>472.6</ele>
<time>2024-05-07T12:28:54Z</time>
</trkpt>
<trkpt lat="49.062561029568315" lon="9.607319813221691">
<ele>472.6</ele>
<time>2024-05-07T12:28:55Z</time>
</trkpt>
<trkpt lat="49.0625876840204" lon="9.607254937291144">
<ele>472.6</ele>
<time>2024-05-07T12:28:56Z</time>
</trkpt>
<trkpt lat="49.06261056661606" lon="9.6071882173419">
<ele>472.6</ele>
<time>2024-05-07T12:28:57Z</time>
</trkpt>
<trkpt lat="49.062637304887176" lon="9.607119485735891">
<ele>472.6</ele>
<time>2024-05-07T12:28:58Z</time>
</trkpt>
<trkpt lat="49.062660187482834" lon="9.6070518437773">
<ele>472.6</ele>
<time>2024-05-07T12:28:59Z</time>
</trkpt>
<trkpt lat="49.06268684193492" lon="9.606983112171292">
<ele>472.4</ele>
<time>2024-05-07T12:29:00Z</time>
</trkpt>
<trkpt lat="49.06270980834961" lon="9.606914464384316">
<ele>472.4</ele>
<time>2024-05-07T12:29:01Z</time>
</trkpt>
<trkpt lat="49.062736462801695" lon="9.606844894587994">
<ele>472.4</ele>
<time>2024-05-07T12:29:02Z</time>
</trkpt>
<trkpt lat="49.06276320107281" lon="9.606776162981989">
<ele>472.2</ele>
<time>2024-05-07T12:29:03Z</time>
</trkpt>
<trkpt lat="49.06278608366847" lon="9.606706593185663">
<ele>472.2</ele>
<time>2024-05-07T12:29:04Z</time>
</trkpt>
<trkpt lat="49.06281273812056" lon="9.606635011732578">
<ele>472</ele>
<time>2024-05-07T12:29:05Z</time>
</trkpt>
<trkpt lat="49.06283947639167" lon="9.606563514098523">
<ele>472</ele>
<time>2024-05-07T12:29:06Z</time>
</trkpt>
<trkpt lat="49.06286613084376" lon="9.606492016464472">
<ele>471.8</ele>
<time>2024-05-07T12:29:07Z</time>
</trkpt>
<trkpt lat="49.06289286911488" lon="9.60641859099269">
<ele>471.8</ele>
<time>2024-05-07T12:29:08Z</time>
</trkpt>
<trkpt lat="49.06292337924242" lon="9.606343237683175">
<ele>471.6</ele>
<time>2024-05-07T12:29:09Z</time>
</trkpt>
<trkpt lat="49.06295011751354" lon="9.606266962364316">
<ele>471.4</ele>
<time>2024-05-07T12:29:10Z</time>
</trkpt>
<trkpt lat="49.06297677196562" lon="9.606189681217074">
<ele>471.4</ele>
<time>2024-05-07T12:29:11Z</time>
</trkpt>
<trkpt lat="49.06300728209317" lon="9.606111478060484">
<ele>471.2</ele>
<time>2024-05-07T12:29:12Z</time>
</trkpt>
<trkpt lat="49.06303779222071" lon="9.606033274903892">
<ele>471</ele>
<time>2024-05-07T12:29:13Z</time>
</trkpt>
<trkpt lat="49.06306453049183" lon="9.605955071747305">
<ele>470.8</ele>
<time>2024-05-07T12:29:14Z</time>
</trkpt>
<trkpt lat="49.06309504061937" lon="9.605874940752985">
<ele>470.8</ele>
<time>2024-05-07T12:29:15Z</time>
</trkpt>
<trkpt lat="49.06312177889049" lon="9.605794893577697">
<ele>470.6</ele>
<time>2024-05-07T12:29:16Z</time>
</trkpt>
<trkpt lat="49.063152289018035" lon="9.605712834745646">
<ele>470.4</ele>
<time>2024-05-07T12:29:17Z</time>
</trkpt>
<trkpt lat="49.06318279914558" lon="9.605633709579706">
<ele>470.2</ele>
<time>2024-05-07T12:29:18Z</time>
</trkpt>
<trkpt lat="49.06321330927312" lon="9.605553578585386">
<ele>470</ele>
<time>2024-05-07T12:29:19Z</time>
</trkpt>
<trkpt lat="49.06324381940067" lon="9.605473447591066">
<ele>470</ele>
<time>2024-05-07T12:29:20Z</time>
</trkpt>
<trkpt lat="49.06327432952821" lon="9.605391472578049">
<ele>469.8</ele>
<time>2024-05-07T12:29:21Z</time>
</trkpt>
<trkpt lat="49.06330483965576" lon="9.60531041957438">
<ele>469.8</ele>
<time>2024-05-07T12:29:22Z</time>
</trkpt>
<trkpt lat="49.063331577926874" lon="9.605226516723633">
<ele>469.6</ele>
<time>2024-05-07T12:29:23Z</time>
</trkpt>
<trkpt lat="49.06336208805442" lon="9.605143535882236">
<ele>469.4</ele>
<time>2024-05-07T12:29:24Z</time>
</trkpt>
<trkpt lat="49.06339259818196" lon="9.605061477050183">
<ele>469.2</ele>
<time>2024-05-07T12:29:25Z</time>
</trkpt>
<trkpt lat="49.06342310830951" lon="9.604980424046516">
<ele>469</ele>
<time>2024-05-07T12:29:26Z</time>
</trkpt>
<trkpt lat="49.06345361843705" lon="9.6048984490335">
<ele>468.8</ele>
<time>2024-05-07T12:29:27Z</time>
</trkpt>
<trkpt lat="49.06348412856459" lon="9.60481639020145">
<ele>468.8</ele>
<time>2024-05-07T12:29:28Z</time>
</trkpt>
<trkpt lat="49.06351463869214" lon="9.60473818704486">
<ele>468.6</ele>
<time>2024-05-07T12:29:29Z</time>
</trkpt>
<trkpt lat="49.063545148819685" lon="9.604659983888268">
<ele>468.6</ele>
<time>2024-05-07T12:29:30Z</time>
</trkpt>
<trkpt lat="49.06357574276626" lon="9.604581780731678">
<ele>468.4</ele>
<time>2024-05-07T12:29:31Z</time>
</trkpt>
<trkpt lat="49.063606252893806" lon="9.604503577575088">
<ele>468.2</ele>
<time>2024-05-07T12:29:32Z</time>
</trkpt>
<trkpt lat="49.06363676302135" lon="9.604426380246878">
<ele>468.2</ele>
<time>2024-05-07T12:29:33Z</time>
</trkpt>
<trkpt lat="49.063663417473435" lon="9.604350021108983">
<ele>468</ele>
<time>2024-05-07T12:29:34Z</time>
</trkpt>
<trkpt lat="49.06369015574455" lon="9.604272823780777">
<ele>467.8</ele>
<time>2024-05-07T12:29:35Z</time>
</trkpt>
<trkpt lat="49.0637206658721" lon="9.604196548461914">
<ele>467.6</ele>
<time>2024-05-07T12:29:36Z</time>
</trkpt>
<trkpt lat="49.063747404143214" lon="9.6041230391711">
<ele>467.4</ele>
<time>2024-05-07T12:29:37Z</time>
</trkpt>
<trkpt lat="49.06377791427076" lon="9.604051541537046">
<ele>467.4</ele>
<time>2024-05-07T12:29:38Z</time>
</trkpt>
<trkpt lat="49.06380456872285" lon="9.603978116065264">
<ele>467.2</ele>
<time>2024-05-07T12:29:39Z</time>
</trkpt>
<trkpt lat="49.06383130699396" lon="9.603908462449908">
<ele>467.2</ele>
<time>2024-05-07T12:29:40Z</time>
</trkpt>
<trkpt lat="49.06385796144605" lon="9.603837886825204">
<ele>467.4</ele>
<time>2024-05-07T12:29:41Z</time>
</trkpt>
<trkpt lat="49.063880844041705" lon="9.60377024486661">
<ele>467.4</ele>
<time>2024-05-07T12:29:42Z</time>
</trkpt>
<trkpt lat="49.06390758231282" lon="9.603701513260605">
<ele>467.6</ele>
<time>2024-05-07T12:29:43Z</time>
</trkpt>
<trkpt lat="49.06393046490848" lon="9.603634793311356">
<ele>467.6</ele>
<time>2024-05-07T12:29:44Z</time>
</trkpt>
<trkpt lat="49.06395334750414" lon="9.60357184521854">
<ele>467.8</ele>
<time>2024-05-07T12:29:45Z</time>
</trkpt>
<trkpt lat="49.0639762300998" lon="9.603507975116372">
<ele>467.8</ele>
<time>2024-05-07T12:29:46Z</time>
</trkpt>
<trkpt lat="49.063999112695456" lon="9.603447876870632">
<ele>468</ele>
<time>2024-05-07T12:29:47Z</time>
</trkpt>
<trkpt lat="49.06401822343469" lon="9.603391634300351">
<ele>468.2</ele>
<time>2024-05-07T12:29:48Z</time>
</trkpt>
<trkpt lat="49.064037250354886" lon="9.603335307911038">
<ele>468.4</ele>
<time>2024-05-07T12:29:49Z</time>
</trkpt>
<trkpt lat="49.06405636109412" lon="9.603279987350106">
<ele>468.6</ele>
<time>2024-05-07T12:29:50Z</time>
</trkpt>
<trkpt lat="49.06407161615789" lon="9.603224750608206">
<ele>468.6</ele>
<time>2024-05-07T12:29:51Z</time>
</trkpt>
<trkpt lat="49.06408687122166" lon="9.6031732019037">
<ele>469</ele>
<time>2024-05-07T12:29:52Z</time>
</trkpt>
<trkpt lat="49.06410598196089" lon="9.603121737018228">
<ele>469.2</ele>
<time>2024-05-07T12:29:53Z</time>
</trkpt>
<trkpt lat="49.06412500888109" lon="9.60307496599853">
<ele>469.4</ele>
<time>2024-05-07T12:29:54Z</time>
</trkpt>
<trkpt lat="49.06414411962032" lon="9.603030122816564">
<ele>469.6</ele>
<time>2024-05-07T12:29:55Z</time>
</trkpt>
<trkpt lat="49.06416314654052" lon="9.602983435615895">
<ele>469.8</ele>
<time>2024-05-07T12:29:56Z</time>
</trkpt>
<trkpt lat="49.064178401604295" lon="9.60293859243393">
<ele>470.2</ele>
<time>2024-05-07T12:29:57Z</time>
</trkpt>
<trkpt lat="49.064197512343526" lon="9.602889977395536">
<ele>470.4</ele>
<time>2024-05-07T12:29:58Z</time>
</trkpt>
<trkpt lat="49.0642127674073" lon="9.602845134213569">
<ele>470.8</ele>
<time>2024-05-07T12:29:59Z</time>
</trkpt>
<trkpt lat="49.06422802247107" lon="9.602794591337442">
<ele>471</ele>
<time>2024-05-07T12:30:00Z</time>
</trkpt>
<trkpt lat="49.06424327753484" lon="9.602746898308396">
<ele>471.4</ele>
<time>2024-05-07T12:30:01Z</time>
</trkpt>
<trkpt lat="49.064262388274074" lon="9.60270021110773">
<ele>471.8</ele>
<time>2024-05-07T12:30:02Z</time>
</trkpt>
<trkpt lat="49.06428141519427" lon="9.602651596069336">
<ele>472.2</ele>
<time>2024-05-07T12:30:03Z</time>
</trkpt>
<trkpt lat="49.064300525933504" lon="9.60260482504964">
<ele>472.6</ele>
<time>2024-05-07T12:30:04Z</time>
</trkpt>
<trkpt lat="49.0643195528537" lon="9.602558054029942">
<ele>472.8</ele>
<time>2024-05-07T12:30:05Z</time>
</trkpt>
<trkpt lat="49.064338663592935" lon="9.602513294667006">
<ele>473</ele>
<time>2024-05-07T12:30:06Z</time>
</trkpt>
<trkpt lat="49.064357690513134" lon="9.602466523647308">
<ele>473.4</ele>
<time>2024-05-07T12:30:07Z</time>
</trkpt>
<trkpt lat="49.064376801252365" lon="9.602419836446645">
<ele>473.6</ele>
<time>2024-05-07T12:30:08Z</time>
</trkpt>
<trkpt lat="49.064395828172565" lon="9.602371137589216">
<ele>474</ele>
<time>2024-05-07T12:30:09Z</time>
</trkpt>
<trkpt lat="49.06441108323634" lon="9.602323528379202">
<ele>474.2</ele>
<time>2024-05-07T12:30:10Z</time>
</trkpt>
<trkpt lat="49.06443019397557" lon="9.602276757359505">
<ele>474.4</ele>
<time>2024-05-07T12:30:11Z</time>
</trkpt>
<trkpt lat="49.06444544903934" lon="9.602231914177535">
<ele>474.6</ele>
<time>2024-05-07T12:30:12Z</time>
</trkpt>
<trkpt lat="49.06446455977857" lon="9.602185226976871">
<ele>474.8</ele>
<time>2024-05-07T12:30:13Z</time>
</trkpt>
<trkpt lat="49.06447981484234" lon="9.602138455957174">
<ele>475</ele>
<time>2024-05-07T12:30:14Z</time>
</trkpt>
<trkpt lat="49.06449884176254" lon="9.602091768756509">
<ele>475.4</ele>
<time>2024-05-07T12:30:15Z</time>
</trkpt>
<trkpt lat="49.064514096826315" lon="9.602043069899082">
<ele>475.6</ele>
<time>2024-05-07T12:30:16Z</time>
</trkpt>
<trkpt lat="49.064533207565546" lon="9.601995460689068">
<ele>475.8</ele>
<time>2024-05-07T12:30:17Z</time>
</trkpt>
<trkpt lat="49.06454846262932" lon="9.60194868966937">
<ele>476</ele>
<time>2024-05-07T12:30:18Z</time>
</trkpt>
<trkpt lat="49.06455986201763" lon="9.601902924478054">
<ele>476</ele>
<time>2024-05-07T12:30:19Z</time>
</trkpt>
<trkpt lat="49.06457511708141" lon="9.601860009133816">
<ele>476.2</ele>
<time>2024-05-07T12:30:20Z</time>
</trkpt>
<trkpt lat="49.06458660028875" lon="9.601821871474383">
<ele>476.4</ele>
<time>2024-05-07T12:30:21Z</time>
</trkpt>
<trkpt lat="49.06460185535252" lon="9.601783733814957">
<ele>476.4</ele>
<time>2024-05-07T12:30:22Z</time>
</trkpt>
<trkpt lat="49.064613338559866" lon="9.601746518164871">
<ele>476.4</ele>
<time>2024-05-07T12:30:23Z</time>
</trkpt>
<trkpt lat="49.06462859362364" lon="9.601708380505444">
<ele>476.6</ele>
<time>2024-05-07T12:30:24Z</time>
</trkpt>
<trkpt lat="49.06464384868741" lon="9.601670242846012">
<ele>476.6</ele>
<time>2024-05-07T12:30:25Z</time>
</trkpt>
<trkpt lat="49.06465910375118" lon="9.60163302719593">
<ele>476.6</ele>
<time>2024-05-07T12:30:26Z</time>
</trkpt>
<trkpt lat="49.064674358814955" lon="9.6015948895365">
<ele>476.6</ele>
<time>2024-05-07T12:30:27Z</time>
</trkpt>
<trkpt lat="49.064693385735154" lon="9.60155482403934">
<ele>476.6</ele>
<time>2024-05-07T12:30:28Z</time>
</trkpt>
<trkpt lat="49.0647048689425" lon="9.60151283070445">
<ele>476.6</ele>
<time>2024-05-07T12:30:29Z</time>
</trkpt>
<trkpt lat="49.06472012400627" lon="9.601472849026322">
<ele>476.6</ele>
<time>2024-05-07T12:30:30Z</time>
</trkpt>
<trkpt lat="49.06473537907005" lon="9.60143462754786">
<ele>476.6</ele>
<time>2024-05-07T12:30:31Z</time>
</trkpt>
<trkpt lat="49.06474677845836" lon="9.601394645869732">
<ele>476.6</ele>
<time>2024-05-07T12:30:32Z</time>
</trkpt>
<trkpt lat="49.06476203352213" lon="9.601354580372572">
<ele>476.6</ele>
<time>2024-05-07T12:30:33Z</time>
</trkpt>
<trkpt lat="49.06477737240493" lon="9.601313509047031">
<ele>476.6</ele>
<time>2024-05-07T12:30:34Z</time>
</trkpt>
<trkpt lat="49.064792627468705" lon="9.601269671693444">
<ele>476.8</ele>
<time>2024-05-07T12:30:35Z</time>
</trkpt>
<trkpt lat="49.064811654388905" lon="9.601224828511477">
<ele>476.8</ele>
<time>2024-05-07T12:30:36Z</time>
</trkpt>
<trkpt lat="49.06482313759625" lon="9.601181913167238">
<ele>477</ele>
<time>2024-05-07T12:30:37Z</time>
</trkpt>
<trkpt lat="49.06484216451645" lon="9.601138075813653">
<ele>477</ele>
<time>2024-05-07T12:30:38Z</time>
</trkpt>
<trkpt lat="49.06485741958022" lon="9.60109993815422">
<ele>477</ele>
<time>2024-05-07T12:30:39Z</time>
</trkpt>
<trkpt lat="49.06487267464399" lon="9.60106372833252">
<ele>477</ele>
<time>2024-05-07T12:30:40Z</time>
</trkpt>
<trkpt lat="49.064887929707766" lon="9.601026512682438">
<ele>477</ele>
<time>2024-05-07T12:30:41Z</time>
</trkpt>
<trkpt lat="49.06490318477154" lon="9.600991224870086">
<ele>477</ele>
<time>2024-05-07T12:30:42Z</time>
</trkpt>
<trkpt lat="49.06492229551077" lon="9.600956859067082">
<ele>477</ele>
<time>2024-05-07T12:30:43Z</time>
</trkpt>
<trkpt lat="49.06493755057454" lon="9.60092157125473">
<ele>477</ele>
<time>2024-05-07T12:30:44Z</time>
</trkpt>
<trkpt lat="49.06495280563831" lon="9.600888211280107">
<ele>476.8</ele>
<time>2024-05-07T12:30:45Z</time>
</trkpt>
<trkpt lat="49.064968060702085" lon="9.600854851305485">
<ele>476.8</ele>
<time>2024-05-07T12:30:46Z</time>
</trkpt>
<trkpt lat="49.06497568823397" lon="9.600819563493133">
<ele>476.8</ele>
<time>2024-05-07T12:30:47Z</time>
</trkpt>
<trkpt lat="49.06497568823397" lon="9.600781425833702">
<ele>476.6</ele>
<time>2024-05-07T12:30:48Z</time>
</trkpt>
<trkpt lat="49.064971916377544" lon="9.600741360336542">
<ele>476.6</ele>
<time>2024-05-07T12:30:49Z</time>
</trkpt>
<trkpt lat="49.0649604331702" lon="9.60070506669581">
<ele>476.4</ele>
<time>2024-05-07T12:30:50Z</time>
</trkpt>
<trkpt lat="49.06494517810643" lon="9.60066692903638">
<ele>476.4</ele>
<time>2024-05-07T12:30:51Z</time>
</trkpt>
<trkpt lat="49.06493369489908" lon="9.600631641224028">
<ele>476.2</ele>
<time>2024-05-07T12:30:52Z</time>
</trkpt>
<trkpt lat="49.0649260673672" lon="9.600595431402326">
<ele>476.2</ele>
<time>2024-05-07T12:30:53Z</time>
</trkpt>
<trkpt lat="49.06493369489908" lon="9.600555365905166">
<ele>476</ele>
<time>2024-05-07T12:30:54Z</time>
</trkpt>
<trkpt lat="49.064949033781886" lon="9.600515300408006">
<ele>476</ele>
<time>2024-05-07T12:30:55Z</time>
</trkpt>
<trkpt lat="49.064968060702085" lon="9.60048479028046">
<ele>476</ele>
<time>2024-05-07T12:30:56Z</time>
</trkpt>
<trkpt lat="49.0649947989732" lon="9.600476240739226">
<ele>475.8</ele>
<time>2024-05-07T12:30:57Z</time>
</trkpt>
<trkpt lat="49.06502530910075" lon="9.600493423640728">
<ele>475.6</ele>
<time>2024-05-07T12:30:58Z</time>
</trkpt>
<trkpt lat="49.06505196355283" lon="9.60051152855158">
<ele>475.4</ele>
<time>2024-05-07T12:30:59Z</time>
</trkpt>
<trkpt lat="49.06507484614849" lon="9.600516306236386">
<ele>475.2</ele>
<time>2024-05-07T12:31:00Z</time>
</trkpt>
<trkpt lat="49.06510158441961" lon="9.60051152855158">
<ele>474.8</ele>
<time>2024-05-07T12:31:01Z</time>
</trkpt>
<trkpt lat="49.065128322690725" lon="9.600498117506504">
<ele>474.6</ele>
<time>2024-05-07T12:31:02Z</time>
</trkpt>
<trkpt lat="49.065151205286384" lon="9.600481940433385">
<ele>474.4</ele>
<time>2024-05-07T12:31:03Z</time>
</trkpt>
<trkpt lat="49.06517785973847" lon="9.600458135828376">
<ele>474.4</ele>
<time>2024-05-07T12:31:04Z</time>
</trkpt>
<trkpt lat="49.06520836986601" lon="9.60042854771018">
<ele>474.4</ele>
<time>2024-05-07T12:31:05Z</time>
</trkpt>
<trkpt lat="49.06523510813713" lon="9.6003913320601">
<ele>474.4</ele>
<time>2024-05-07T12:31:06Z</time>
</trkpt>
<trkpt lat="49.0652693901211" lon="9.600357050076129">
<ele>474.4</ele>
<time>2024-05-07T12:31:07Z</time>
</trkpt>
<trkpt lat="49.065307611599565" lon="9.600316984578969">
<ele>474.6</ele>
<time>2024-05-07T12:31:08Z</time>
</trkpt>
<trkpt lat="49.065345749258995" lon="9.600277841091156">
<ele>474.6</ele>
<time>2024-05-07T12:31:09Z</time>
</trkpt>
<trkpt lat="49.06538765877485" lon="9.600241631269457">
<ele>474.6</ele>
<time>2024-05-07T12:31:10Z</time>
</trkpt>
<trkpt lat="49.06543342396617" lon="9.60021304897964">
<ele>474.6</ele>
<time>2024-05-07T12:31:11Z</time>
</trkpt>
<trkpt lat="49.06547927297652" lon="9.600181533023717">
<ele>474.4</ele>
<time>2024-05-07T12:31:12Z</time>
</trkpt>
<trkpt lat="49.065525038167834" lon="9.6001529507339">
<ele>474.4</ele>
<time>2024-05-07T12:31:13Z</time>
</trkpt>
<trkpt lat="49.06557457521558" lon="9.600121434777977">
<ele>474.4</ele>
<time>2024-05-07T12:31:14Z</time>
</trkpt>
<trkpt lat="49.065620340406895" lon="9.600088074803352">
<ele>474.2</ele>
<time>2024-05-07T12:31:15Z</time>
</trkpt>
<trkpt lat="49.06566996127367" lon="9.600059492513536">
<ele>474.4</ele>
<time>2024-05-07T12:31:16Z</time>
</trkpt>
<trkpt lat="49.06572335399687" lon="9.600029904395342">
<ele>474.8</ele>
<time>2024-05-07T12:31:17Z</time>
</trkpt>
<trkpt lat="49.06576911918819" lon="9.59999369457364">
<ele>475</ele>
<time>2024-05-07T12:31:18Z</time>
</trkpt>
<trkpt lat="49.06581496819854" lon="9.59995455108583">
<ele>475</ele>
<time>2024-05-07T12:31:19Z</time>
</trkpt>
<trkpt lat="49.0658568777144" lon="9.599920269101858">
<ele>475</ele>
<time>2024-05-07T12:31:20Z</time>
</trkpt>
<trkpt lat="49.06590264290571" lon="9.599887831136584">
<ele>474.8</ele>
<time>2024-05-07T12:31:21Z</time>
</trkpt>
<trkpt lat="49.06594840809703" lon="9.59985631518066">
<ele>474.6</ele>
<time>2024-05-07T12:31:22Z</time>
</trkpt>
<trkpt lat="49.06599040143192" lon="9.599828654900191">
<ele>474.4</ele>
<time>2024-05-07T12:31:23Z</time>
</trkpt>
<trkpt lat="49.066036166623235" lon="9.599800072610378">
<ele>474.2</ele>
<time>2024-05-07T12:31:24Z</time>
</trkpt>
<trkpt lat="49.066074304282665" lon="9.599771490320563">
<ele>474</ele>
<time>2024-05-07T12:31:25Z</time>
</trkpt>
<trkpt lat="49.066116297617555" lon="9.599744752049446">
<ele>473.6</ele>
<time>2024-05-07T12:31:26Z</time>
</trkpt>
<trkpt lat="49.066154435276985" lon="9.599721869453788">
<ele>473.4</ele>
<time>2024-05-07T12:31:27Z</time>
</trkpt>
<trkpt lat="49.066196428611875" lon="9.59969513118267">
<ele>473.2</ele>
<time>2024-05-07T12:31:28Z</time>
</trkpt>
<trkpt lat="49.06623833812773" lon="9.599664621055126">
<ele>473</ele>
<time>2024-05-07T12:31:29Z</time>
</trkpt>
<trkpt lat="49.06627647578716" lon="9.59963696077466">
<ele>473</ele>
<time>2024-05-07T12:31:30Z</time>
</trkpt>
<trkpt lat="49.06632232479751" lon="9.599606450647116">
<ele>472.8</ele>
<time>2024-05-07T12:31:31Z</time>
</trkpt>
<trkpt lat="49.06636046245694" lon="9.59957979619503">
<ele>472.8</ele>
<time>2024-05-07T12:31:32Z</time>
</trkpt>
<trkpt lat="49.0664023719728" lon="9.599550208076836">
<ele>472.6</ele>
<time>2024-05-07T12:31:33Z</time>
</trkpt>
<trkpt lat="49.0664367377758" lon="9.59951969794929">
<ele>472.6</ele>
<time>2024-05-07T12:31:34Z</time>
</trkpt>
<trkpt lat="49.066471019759774" lon="9.599488181993364">
<ele>472.4</ele>
<time>2024-05-07T12:31:35Z</time>
</trkpt>
<trkpt lat="49.06650161370635" lon="9.599456749856472">
<ele>472.4</ele>
<time>2024-05-07T12:31:36Z</time>
</trkpt>
<trkpt lat="49.06653589569032" lon="9.599426239728928">
<ele>472.4</ele>
<time>2024-05-07T12:31:37Z</time>
</trkpt>
<trkpt lat="49.066570261493325" lon="9.59939950145781">
<ele>472.4</ele>
<time>2024-05-07T12:31:38Z</time>
</trkpt>
<trkpt lat="49.0666045434773" lon="9.599371841177344">
<ele>472.2</ele>
<time>2024-05-07T12:31:39Z</time>
</trkpt>
<trkpt lat="49.0666389092803" lon="9.5993413310498">
<ele>472.2</ele>
<time>2024-05-07T12:31:40Z</time>
</trkpt>
<trkpt lat="49.06667704693973" lon="9.599313670769334">
<ele>472</ele>
<time>2024-05-07T12:31:41Z</time>
</trkpt>
<trkpt lat="49.06671904027462" lon="9.599289866164328">
<ele>472</ele>
<time>2024-05-07T12:31:42Z</time>
</trkpt>
<trkpt lat="49.06676094979048" lon="9.599271761253476">
<ele>471.8</ele>
<time>2024-05-07T12:31:43Z</time>
</trkpt>
<trkpt lat="49.066806714981794" lon="9.599247872829435">
<ele>471.6</ele>
<time>2024-05-07T12:31:44Z</time>
</trkpt>
<trkpt lat="49.06684870831669" lon="9.59922306239605">
<ele>471.4</ele>
<time>2024-05-07T12:31:45Z</time>
</trkpt>
<trkpt lat="49.066894473508" lon="9.599198335781692">
<ele>471.2</ele>
<time>2024-05-07T12:31:46Z</time>
</trkpt>
<trkpt lat="49.06693646684289" lon="9.599169669672849">
<ele>471</ele>
<time>2024-05-07T12:31:47Z</time>
</trkpt>
<trkpt lat="49.066982232034206" lon="9.599135387688875">
<ele>470.8</ele>
<time>2024-05-07T12:31:48Z</time>
</trkpt>
<trkpt lat="49.06702799722552" lon="9.599095322191715">
<ele>470.4</ele>
<time>2024-05-07T12:31:49Z</time>
</trkpt>
<trkpt lat="49.0670776180923" lon="9.599058106541634">
<ele>470.4</ele>
<time>2024-05-07T12:31:50Z</time>
</trkpt>
<trkpt lat="49.06712715514004" lon="9.59902667440474">
<ele>470.2</ele>
<time>2024-05-07T12:31:51Z</time>
</trkpt>
<trkpt lat="49.06717677600682" lon="9.598993230611086">
<ele>470</ele>
<time>2024-05-07T12:31:52Z</time>
</trkpt>
<trkpt lat="49.06723016873002" lon="9.598957942798734">
<ele>470</ele>
<time>2024-05-07T12:31:53Z</time>
</trkpt>
<trkpt lat="49.0672797895968" lon="9.598923660814762">
<ele>470</ele>
<time>2024-05-07T12:31:54Z</time>
</trkpt>
<trkpt lat="49.067336954176426" lon="9.598884517326953">
<ele>469.8</ele>
<time>2024-05-07T12:31:55Z</time>
</trkpt>
<trkpt lat="49.06739420257509" lon="9.59884637966752">
<ele>469.8</ele>
<time>2024-05-07T12:31:56Z</time>
</trkpt>
<trkpt lat="49.06745145097375" lon="9.59880631417036">
<ele>469.6</ele>
<time>2024-05-07T12:31:57Z</time>
</trkpt>
<trkpt lat="49.06751247122884" lon="9.598765326663852">
<ele>469.4</ele>
<time>2024-05-07T12:31:58Z</time>
</trkpt>
<trkpt lat="49.06756586395204" lon="9.598725261166692">
<ele>469</ele>
<time>2024-05-07T12:31:59Z</time>
</trkpt>
<trkpt lat="49.06761925667524" lon="9.598680417984724">
<ele>468.8</ele>
<time>2024-05-07T12:32:00Z</time>
</trkpt>
<trkpt lat="49.067676505073905" lon="9.598636580631135">
<ele>468.4</ele>
<time>2024-05-07T12:32:01Z</time>
</trkpt>
<trkpt lat="49.06772989779711" lon="9.598589893430471">
<ele>468.2</ele>
<time>2024-05-07T12:32:02Z</time>
</trkpt>
<trkpt lat="49.06778329052031" lon="9.598546978086231">
<ele>468</ele>
<time>2024-05-07T12:32:03Z</time>
</trkpt>
<trkpt lat="49.06782905571163" lon="9.598501129075885">
<ele>467.6</ele>
<time>2024-05-07T12:32:04Z</time>
</trkpt>
<trkpt lat="49.067874904721975" lon="9.598458213731648">
<ele>467.4</ele>
<time>2024-05-07T12:32:05Z</time>
</trkpt>
<trkpt lat="49.06792066991329" lon="9.598415298387408">
<ele>467.2</ele>
<time>2024-05-07T12:32:06Z</time>
</trkpt>
<trkpt lat="49.06796643510461" lon="9.59837338887155">
<ele>466.8</ele>
<time>2024-05-07T12:32:07Z</time>
</trkpt>
<trkpt lat="49.068012200295925" lon="9.598341872915626">
<ele>466.6</ele>
<time>2024-05-07T12:32:08Z</time>
</trkpt>
<trkpt lat="49.0680618211627" lon="9.598318068310618">
<ele>466.2</ele>
<time>2024-05-07T12:32:09Z</time>
</trkpt>
<trkpt lat="49.068111358210444" lon="9.598301807418466">
<ele>466</ele>
<time>2024-05-07T12:32:10Z</time>
</trkpt>
<trkpt lat="49.06815712340176" lon="9.59829711355269">
<ele>465.8</ele>
<time>2024-05-07T12:32:11Z</time>
</trkpt>
<trkpt lat="49.06820674426854" lon="9.59829711355269">
<ele>465.6</ele>
<time>2024-05-07T12:32:12Z</time>
</trkpt>
<trkpt lat="49.06824488192797" lon="9.598299963399768">
<ele>465.4</ele>
<time>2024-05-07T12:32:13Z</time>
</trkpt>
<trkpt lat="49.06827162019909" lon="9.59829711355269">
<ele>465.2</ele>
<time>2024-05-07T12:32:14Z</time>
</trkpt>
<trkpt lat="49.068309757858515" lon="9.5982913300395">
<ele>464.8</ele>
<time>2024-05-07T12:32:15Z</time>
</trkpt>
<trkpt lat="49.068347895517945" lon="9.598283702507617">
<ele>464.4</ele>
<time>2024-05-07T12:32:16Z</time>
</trkpt>
<trkpt lat="49.068386033177376" lon="9.598281858488916">
<ele>464.2</ele>
<time>2024-05-07T12:32:17Z</time>
</trkpt>
<trkpt lat="49.068428026512265" lon="9.59827708080411">
<ele>463.8</ele>
<time>2024-05-07T12:32:18Z</time>
</trkpt>
<trkpt lat="49.06846230849624" lon="9.59827515296638">
<ele>463.8</ele>
<time>2024-05-07T12:32:19Z</time>
</trkpt>
<trkpt lat="49.06850044615567" lon="9.59827515296638">
<ele>463.6</ele>
<time>2024-05-07T12:32:20Z</time>
</trkpt>
<trkpt lat="49.06853481195867" lon="9.598270375281572">
<ele>463.6</ele>
<time>2024-05-07T12:32:21Z</time>
</trkpt>
<trkpt lat="49.0685729496181" lon="9.598259897902608">
<ele>463.8</ele>
<time>2024-05-07T12:32:22Z</time>
</trkpt>
<trkpt lat="49.068607315421104" lon="9.598243637010455">
<ele>463.8</ele>
<time>2024-05-07T12:32:23Z</time>
</trkpt>
<trkpt lat="49.068645453080535" lon="9.59823508746922">
<ele>463.8</ele>
<time>2024-05-07T12:32:24Z</time>
</trkpt>
<trkpt lat="49.06868736259639" lon="9.598224610090256">
<ele>464</ele>
<time>2024-05-07T12:32:25Z</time>
</trkpt>
<trkpt lat="49.068725584074855" lon="9.59821505472064">
<ele>464</ele>
<time>2024-05-07T12:32:26Z</time>
</trkpt>
<trkpt lat="49.06876749359071" lon="9.59819787181914">
<ele>464</ele>
<time>2024-05-07T12:32:27Z</time>
</trkpt>
<trkpt lat="49.06880563125014" lon="9.598179766908288">
<ele>464</ele>
<time>2024-05-07T12:32:28Z</time>
</trkpt>
<trkpt lat="49.068843768909574" lon="9.598168367519976">
<ele>464</ele>
<time>2024-05-07T12:32:29Z</time>
</trkpt>
<trkpt lat="49.06888190656901" lon="9.59815780632198">
<ele>464</ele>
<time>2024-05-07T12:32:30Z</time>
</trkpt>
<trkpt lat="49.06892389990389" lon="9.598146406933663">
<ele>464.2</ele>
<time>2024-05-07T12:32:31Z</time>
</trkpt>
<trkpt lat="49.06896203756333" lon="9.598128302022817">
<ele>464.4</ele>
<time>2024-05-07T12:32:32Z</time>
</trkpt>
<trkpt lat="49.069000175222754" lon="9.598112041130662">
<ele>464.4</ele>
<time>2024-05-07T12:32:33Z</time>
</trkpt>
<trkpt lat="49.069038312882185" lon="9.59809871390462">
<ele>464.6</ele>
<time>2024-05-07T12:32:34Z</time>
</trkpt>
<trkpt lat="49.06907653436065" lon="9.598085386678576">
<ele>464.8</ele>
<time>2024-05-07T12:32:35Z</time>
</trkpt>
<trkpt lat="49.069118443876505" lon="9.598071975633502">
<ele>465</ele>
<time>2024-05-07T12:32:36Z</time>
</trkpt>
<trkpt lat="49.06915280967951" lon="9.598054876551032">
<ele>465.2</ele>
<time>2024-05-07T12:32:37Z</time>
</trkpt>
<trkpt lat="49.06919094733894" lon="9.59803668782115">
<ele>465.4</ele>
<time>2024-05-07T12:32:38Z</time>
</trkpt>
<trkpt lat="49.06922522932291" lon="9.598014811053872">
<ele>465.4</ele>
<time>2024-05-07T12:32:39Z</time>
</trkpt>
<trkpt lat="49.06926345080137" lon="9.597994778305292">
<ele>465.6</ele>
<time>2024-05-07T12:32:40Z</time>
</trkpt>
<trkpt lat="49.0693015884608" lon="9.597976673394442">
<ele>465.8</ele>
<time>2024-05-07T12:32:41Z</time>
</trkpt>
<trkpt lat="49.06934349797666" lon="9.59795848466456">
<ele>466</ele>
<time>2024-05-07T12:32:42Z</time>
</trkpt>
<trkpt lat="49.069377863779664" lon="9.597938535735013">
<ele>466</ele>
<time>2024-05-07T12:32:43Z</time>
</trkpt>
<trkpt lat="49.069416001439095" lon="9.59792135283351">
<ele>466.2</ele>
<time>2024-05-07T12:32:44Z</time>
</trkpt>
<trkpt lat="49.0694503672421" lon="9.597894614562392">
<ele>466.4</ele>
<time>2024-05-07T12:32:45Z</time>
</trkpt>
<trkpt lat="49.06948464922607" lon="9.597869804129004">
<ele>466.4</ele>
<time>2024-05-07T12:32:46Z</time>
</trkpt>
<trkpt lat="49.06951901502907" lon="9.59784029982984">
<ele>466.6</ele>
<time>2024-05-07T12:32:47Z</time>
</trkpt>
<trkpt lat="49.06955329701304" lon="9.597816411405802">
<ele>466.8</ele>
<time>2024-05-07T12:32:48Z</time>
</trkpt>
<trkpt lat="49.06958766281605" lon="9.597795456647871">
<ele>467</ele>
<time>2024-05-07T12:32:49Z</time>
</trkpt>
<trkpt lat="49.06962202861905" lon="9.597769724205136">
<ele>467</ele>
<time>2024-05-07T12:32:50Z</time>
</trkpt>
<trkpt lat="49.06965631060302" lon="9.59774298593402">
<ele>467.2</ele>
<time>2024-05-07T12:32:51Z</time>
</trkpt>
<trkpt lat="49.06968682073057" lon="9.597713397815824">
<ele>467.4</ele>
<time>2024-05-07T12:32:52Z</time>
</trkpt>
<trkpt lat="49.06972118653357" lon="9.59768196567893">
<ele>467.6</ele>
<time>2024-05-07T12:32:53Z</time>
</trkpt>
<trkpt lat="49.069751696661115" lon="9.597649527713656">
<ele>467.6</ele>
<time>2024-05-07T12:32:54Z</time>
</trkpt>
<trkpt lat="49.06978606246412" lon="9.59762186743319">
<ele>467.8</ele>
<time>2024-05-07T12:32:55Z</time>
</trkpt>
<trkpt lat="49.06981657259166" lon="9.597591357305646">
<ele>468</ele>
<time>2024-05-07T12:32:56Z</time>
</trkpt>
<trkpt lat="49.069850854575634" lon="9.597559925168753">
<ele>468.2</ele>
<time>2024-05-07T12:32:57Z</time>
</trkpt>
<trkpt lat="49.06988136470318" lon="9.597533186897635">
<ele>468.2</ele>
<time>2024-05-07T12:32:58Z</time>
</trkpt>
<trkpt lat="49.06991573050618" lon="9.597508376464248">
<ele>468.4</ele>
<time>2024-05-07T12:32:59Z</time>
</trkpt>
<trkpt lat="49.069950096309185" lon="9.597479794174433">
<ele>468.6</ele>
<time>2024-05-07T12:33:00Z</time>
</trkpt>
<trkpt lat="49.06998060643673" lon="9.59744450636208">
<ele>468.8</ele>
<time>2024-05-07T12:33:01Z</time>
</trkpt>
<trkpt lat="49.070011116564274" lon="9.597408212721348">
<ele>469</ele>
<time>2024-05-07T12:33:02Z</time>
</trkpt>
<trkpt lat="49.07004162669182" lon="9.597374852746723">
<ele>469</ele>
<time>2024-05-07T12:33:03Z</time>
</trkpt>
<trkpt lat="49.07007213681936" lon="9.597343420609832">
<ele>469.2</ele>
<time>2024-05-07T12:33:04Z</time>
</trkpt>
<trkpt lat="49.07010264694691" lon="9.59730813279748">
<ele>469.4</ele>
<time>2024-05-07T12:33:05Z</time>
</trkpt>
<trkpt lat="49.07013315707445" lon="9.597276616841556">
<ele>469.4</ele>
<time>2024-05-07T12:33:06Z</time>
</trkpt>
<trkpt lat="49.070167522877455" lon="9.597243256866932">
<ele>469.4</ele>
<time>2024-05-07T12:33:07Z</time>
</trkpt>
<trkpt lat="49.070198033005" lon="9.597213668748736">
<ele>469.6</ele>
<time>2024-05-07T12:33:08Z</time>
</trkpt>
<trkpt lat="49.070228543132544" lon="9.597180308774114">
<ele>469.6</ele>
<time>2024-05-07T12:33:09Z</time>
</trkpt>
<trkpt lat="49.07026290893555" lon="9.59714787080884">
<ele>469.6</ele>
<time>2024-05-07T12:33:10Z</time>
</trkpt>
<trkpt lat="49.07030104659498" lon="9.597114510834215">
<ele>469.6</ele>
<time>2024-05-07T12:33:11Z</time>
</trkpt>
<trkpt lat="49.07033918425441" lon="9.597078301012516">
<ele>469.6</ele>
<time>2024-05-07T12:33:12Z</time>
</trkpt>
<trkpt lat="49.07037346623838" lon="9.597035385668278">
<ele>469.6</ele>
<time>2024-05-07T12:33:13Z</time>
</trkpt>
<trkpt lat="49.07041160389781" lon="9.59699146449566">
<ele>469.6</ele>
<time>2024-05-07T12:33:14Z</time>
</trkpt>
<trkpt lat="49.07044982537627" lon="9.59694854915142">
<ele>469.6</ele>
<time>2024-05-07T12:33:15Z</time>
</trkpt>
<trkpt lat="49.07049173489213" lon="9.596906639635565">
<ele>469.6</ele>
<time>2024-05-07T12:33:16Z</time>
</trkpt>
<trkpt lat="49.07052987255156" lon="9.596864646300672">
<ele>469.6</ele>
<time>2024-05-07T12:33:17Z</time>
</trkpt>
<trkpt lat="49.07057186588645" lon="9.596824580803514">
<ele>469.6</ele>
<time>2024-05-07T12:33:18Z</time>
</trkpt>
<trkpt lat="49.070617631077766" lon="9.596786443144085">
<ele>469.6</ele>
<time>2024-05-07T12:33:19Z</time>
</trkpt>
<trkpt lat="49.070659624412656" lon="9.596746377646925">
<ele>469.4</ele>
<time>2024-05-07T12:33:20Z</time>
</trkpt>
<trkpt lat="49.07070153392851" lon="9.596712095662951">
<ele>469.4</ele>
<time>2024-05-07T12:33:21Z</time>
</trkpt>
<trkpt lat="49.0707435272634" lon="9.596679657697678">
<ele>469.2</ele>
<time>2024-05-07T12:33:22Z</time>
</trkpt>
<trkpt lat="49.07078929245472" lon="9.596648141741753">
<ele>469.2</ele>
<time>2024-05-07T12:33:23Z</time>
</trkpt>
<trkpt lat="49.07083505764603" lon="9.596619559451938">
<ele>469</ele>
<time>2024-05-07T12:33:24Z</time>
</trkpt>
<trkpt lat="49.07088082283735" lon="9.59659474901855">
<ele>468.8</ele>
<time>2024-05-07T12:33:25Z</time>
</trkpt>
<trkpt lat="49.07093044370413" lon="9.59657471626997">
<ele>468.8</ele>
<time>2024-05-07T12:33:26Z</time>
</trkpt>
<trkpt lat="49.070980064570904" lon="9.596563316881657">
<ele>468.6</ele>
<time>2024-05-07T12:33:27Z</time>
</trkpt>
<trkpt lat="49.07102960161865" lon="9.59655661135912">
<ele>468.6</ele>
<time>2024-05-07T12:33:28Z</time>
</trkpt>
<trkpt lat="49.07108299434185" lon="9.59655468352139">
<ele>468.4</ele>
<time>2024-05-07T12:33:29Z</time>
</trkpt>
<trkpt lat="49.071136470884085" lon="9.59655376151204">
<ele>468.4</ele>
<time>2024-05-07T12:33:30Z</time>
</trkpt>
<trkpt lat="49.07118986360729" lon="9.596545211970806">
<ele>468.4</ele>
<time>2024-05-07T12:33:31Z</time>
</trkpt>
<trkpt lat="49.07124325633049" lon="9.596538506448267">
<ele>468.2</ele>
<time>2024-05-07T12:33:32Z</time>
</trkpt>
<trkpt lat="49.071292877197266" lon="9.59653372876346">
<ele>468.2</ele>
<time>2024-05-07T12:33:33Z</time>
</trkpt>
<trkpt lat="49.07134241424501" lon="9.596527023240924">
<ele>468.2</ele>
<time>2024-05-07T12:33:34Z</time>
</trkpt>
<trkpt lat="49.071388179436326" lon="9.59651654586196">
<ele>468.2</ele>
<time>2024-05-07T12:33:35Z</time>
</trkpt>
<trkpt lat="49.0714378003031" lon="9.596501290798187">
<ele>468.2</ele>
<time>2024-05-07T12:33:36Z</time>
</trkpt>
<trkpt lat="49.07147979363799" lon="9.596487041562796">
<ele>468.2</ele>
<time>2024-05-07T12:33:37Z</time>
</trkpt>
<trkpt lat="49.07152555882931" lon="9.596471786499023">
<ele>468.2</ele>
<time>2024-05-07T12:33:38Z</time>
</trkpt>
<trkpt lat="49.071571324020624" lon="9.596449825912714">
<ele>468.2</ele>
<time>2024-05-07T12:33:39Z</time>
</trkpt>
<trkpt lat="49.07161323353648" lon="9.596420237794518">
<ele>468.2</ele>
<time>2024-05-07T12:33:40Z</time>
</trkpt>
<trkpt lat="49.07165522687137" lon="9.596389727666974">
<ele>468.2</ele>
<time>2024-05-07T12:33:41Z</time>
</trkpt>
<trkpt lat="49.0716933645308" lon="9.59635536186397">
<ele>468.2</ele>
<time>2024-05-07T12:33:42Z</time>
</trkpt>
<trkpt lat="49.07173535786569" lon="9.596322001889348">
<ele>468.2</ele>
<time>2024-05-07T12:33:43Z</time>
</trkpt>
<trkpt lat="49.07176963984966" lon="9.596282942220569">
<ele>468</ele>
<time>2024-05-07T12:33:44Z</time>
</trkpt>
<trkpt lat="49.07179252244532" lon="9.596229549497366">
<ele>468</ele>
<time>2024-05-07T12:33:45Z</time>
</trkpt>
<trkpt lat="49.071804005652666" lon="9.596168445423244">
<ele>467.8</ele>
<time>2024-05-07T12:33:46Z</time>
</trkpt>
<trkpt lat="49.07180014997721" lon="9.59610365331173">
<ele>467.8</ele>
<time>2024-05-07T12:33:47Z</time>
</trkpt>
<trkpt lat="49.07179252244532" lon="9.596046404913068">
<ele>467.8</ele>
<time>2024-05-07T12:33:48Z</time>
</trkpt>
<trkpt lat="49.07178112305701" lon="9.595998711884022">
<ele>467.6</ele>
<time>2024-05-07T12:33:49Z</time>
</trkpt>
<trkpt lat="49.07177349552512" lon="9.595954874530436">
<ele>467.6</ele>
<time>2024-05-07T12:33:50Z</time>
</trkpt>
<trkpt lat="49.07176963984966" lon="9.595912881195543">
<ele>467.4</ele>
<time>2024-05-07T12:33:51Z</time>
</trkpt>
<trkpt lat="49.07176963984966" lon="9.595868038013576">
<ele>467.2</ele>
<time>2024-05-07T12:33:52Z</time>
</trkpt>
<trkpt lat="49.071784894913435" lon="9.59582327865064">
<ele>467.2</ele>
<time>2024-05-07T12:33:53Z</time>
</trkpt>
<trkpt lat="49.071804005652666" lon="9.595778435468674">
<ele>467</ele>
<time>2024-05-07T12:33:54Z</time>
</trkpt>
<trkpt lat="49.07182688824832" lon="9.595733592286706">
<ele>467</ele>
<time>2024-05-07T12:33:55Z</time>
</trkpt>
<trkpt lat="49.07185362651944" lon="9.595684977248313">
<ele>467</ele>
<time>2024-05-07T12:33:56Z</time>
</trkpt>
<trkpt lat="49.07188028097153" lon="9.595642983913422">
<ele>466.8</ele>
<time>2024-05-07T12:33:57Z</time>
</trkpt>
<trkpt lat="49.07190701924264" lon="9.59560870192945">
<ele>466.8</ele>
<time>2024-05-07T12:33:58Z</time>
</trkpt>
<trkpt lat="49.07193367369473" lon="9.595575258135796">
<ele>466.8</ele>
<time>2024-05-07T12:33:59Z</time>
</trkpt>
<trkpt lat="49.07195655629039" lon="9.59554667584598">
<ele>466.8</ele>
<time>2024-05-07T12:34:00Z</time>
</trkpt>
<trkpt lat="49.07197566702962" lon="9.595516165718436">
<ele>466.8</ele>
<time>2024-05-07T12:34:01Z</time>
</trkpt>
<trkpt lat="49.07199477776885" lon="9.59548850543797">
<ele>466.8</ele>
<time>2024-05-07T12:34:02Z</time>
</trkpt>
<trkpt lat="49.07201380468905" lon="9.595459923148155">
<ele>466.6</ele>
<time>2024-05-07T12:34:03Z</time>
</trkpt>
<trkpt lat="49.07203668728471" lon="9.595431257039309">
<ele>466.6</ele>
<time>2024-05-07T12:34:04Z</time>
</trkpt>
<trkpt lat="49.072059569880366" lon="9.595401752740145">
<ele>466.6</ele>
<time>2024-05-07T12:34:05Z</time>
</trkpt>
<trkpt lat="49.0720786806196" lon="9.59537023678422">
<ele>466.6</ele>
<time>2024-05-07T12:34:06Z</time>
</trkpt>
<trkpt lat="49.0720977075398" lon="9.595338804647326">
<ele>466.8</ele>
<time>2024-05-07T12:34:07Z</time>
</trkpt>
<trkpt lat="49.07211296260357" lon="9.595301588997245">
<ele>466.8</ele>
<time>2024-05-07T12:34:08Z</time>
</trkpt>
<trkpt lat="49.07212821766734" lon="9.595265379175544">
<ele>467</ele>
<time>2024-05-07T12:34:09Z</time>
</trkpt>
<trkpt lat="49.07214347273111" lon="9.595226235687733">
<ele>467</ele>
<time>2024-05-07T12:34:10Z</time>
</trkpt>
<trkpt lat="49.07215495593846" lon="9.595188098028302">
<ele>467</ele>
<time>2024-05-07T12:34:11Z</time>
</trkpt>
<trkpt lat="49.0721664391458" lon="9.595146104693413">
<ele>467</ele>
<time>2024-05-07T12:34:12Z</time>
</trkpt>
<trkpt lat="49.07217783853412" lon="9.595101345330477">
<ele>467</ele>
<time>2024-05-07T12:34:13Z</time>
</trkpt>
<trkpt lat="49.072185466066" lon="9.595049796625972">
<ele>467.2</ele>
<time>2024-05-07T12:34:14Z</time>
</trkpt>
<trkpt lat="49.07219309359789" lon="9.59499548189342">
<ele>467.2</ele>
<time>2024-05-07T12:34:15Z</time>
</trkpt>
<trkpt lat="49.072204576805234" lon="9.594944939017296">
<ele>467.4</ele>
<time>2024-05-07T12:34:16Z</time>
</trkpt>
<trkpt lat="49.07221597619355" lon="9.59489339031279">
<ele>467.4</ele>
<time>2024-05-07T12:34:17Z</time>
</trkpt>
<trkpt lat="49.07222360372543" lon="9.59483622573316">
<ele>467.4</ele>
<time>2024-05-07T12:34:18Z</time>
</trkpt>
<trkpt lat="49.07223508693278" lon="9.594781827181578">
<ele>467.4</ele>
<time>2024-05-07T12:34:19Z</time>
</trkpt>
<trkpt lat="49.072238858789206" lon="9.594723656773567">
<ele>467.6</ele>
<time>2024-05-07T12:34:20Z</time>
</trkpt>
<trkpt lat="49.07224648632109" lon="9.594668336212637">
<ele>467.6</ele>
<time>2024-05-07T12:34:21Z</time>
</trkpt>
<trkpt lat="49.07225034199655" lon="9.594612093642354">
<ele>467.6</ele>
<time>2024-05-07T12:34:22Z</time>
</trkpt>
<trkpt lat="49.07225796952844" lon="9.594558700919151">
<ele>467.8</ele>
<time>2024-05-07T12:34:23Z</time>
</trkpt>
<trkpt lat="49.07226559706032" lon="9.594505308195949">
<ele>467.8</ele>
<time>2024-05-07T12:34:24Z</time>
</trkpt>
<trkpt lat="49.07227322459221" lon="9.594449987635016">
<ele>467.8</ele>
<time>2024-05-07T12:34:25Z</time>
</trkpt>
<trkpt lat="49.072280852124095" lon="9.594393661245704">
<ele>467.8</ele>
<time>2024-05-07T12:34:26Z</time>
</trkpt>
<trkpt lat="49.07228462398052" lon="9.594334568828344">
<ele>467.8</ele>
<time>2024-05-07T12:34:27Z</time>
</trkpt>
<trkpt lat="49.07228847965598" lon="9.594276398420334">
<ele>468</ele>
<time>2024-05-07T12:34:28Z</time>
</trkpt>
<trkpt lat="49.07229610718787" lon="9.594218228012323">
<ele>468</ele>
<time>2024-05-07T12:34:29Z</time>
</trkpt>
<trkpt lat="49.07230373471975" lon="9.594158129766583">
<ele>468</ele>
<time>2024-05-07T12:34:30Z</time>
</trkpt>
<trkpt lat="49.07231136225164" lon="9.594098031520844">
<ele>468</ele>
<time>2024-05-07T12:34:31Z</time>
</trkpt>
<trkpt lat="49.072322845458984" lon="9.594041788950562">
<ele>468</ele>
<time>2024-05-07T12:34:32Z</time>
</trkpt>
<trkpt lat="49.07233047299087" lon="9.593983618542552">
<ele>468</ele>
<time>2024-05-07T12:34:33Z</time>
</trkpt>
<trkpt lat="49.07233810052276" lon="9.593923520296812">
<ele>468</ele>
<time>2024-05-07T12:34:34Z</time>
</trkpt>
<trkpt lat="49.07234949991107" lon="9.593865349888802">
<ele>468</ele>
<time>2024-05-07T12:34:35Z</time>
</trkpt>
<trkpt lat="49.07235712744296" lon="9.593799551948903">
<ele>468</ele>
<time>2024-05-07T12:34:36Z</time>
</trkpt>
<trkpt lat="49.07236475497484" lon="9.593734676018356">
<ele>468</ele>
<time>2024-05-07T12:34:37Z</time>
</trkpt>
<trkpt lat="49.07237238250673" lon="9.593666950240731">
<ele>468</ele>
<time>2024-05-07T12:34:38Z</time>
</trkpt>
<trkpt lat="49.07237623818219" lon="9.593600230291486">
<ele>468</ele>
<time>2024-05-07T12:34:39Z</time>
</trkpt>
<trkpt lat="49.0723686106503" lon="9.59352965466678">
<ele>468</ele>
<time>2024-05-07T12:34:40Z</time>
</trkpt>
<trkpt lat="49.07235712744296" lon="9.593461928889155">
<ele>468</ele>
<time>2024-05-07T12:34:41Z</time>
</trkpt>
<trkpt lat="49.072341872379184" lon="9.59339713677764">
<ele>468</ele>
<time>2024-05-07T12:34:42Z</time>
</trkpt>
<trkpt lat="49.07232661731541" lon="9.593331255018713">
<ele>468</ele>
<time>2024-05-07T12:34:43Z</time>
</trkpt>
<trkpt lat="49.07230750657618" lon="9.593266462907197">
<ele>468</ele>
<time>2024-05-07T12:34:44Z</time>
</trkpt>
<trkpt lat="49.07228847965598" lon="9.593203514814377">
<ele>468</ele>
<time>2024-05-07T12:34:45Z</time>
</trkpt>
<trkpt lat="49.072261741384864" lon="9.593141488730907">
<ele>468</ele>
<time>2024-05-07T12:34:46Z</time>
</trkpt>
<trkpt lat="49.072238858789206" lon="9.593083318322895">
<ele>468</ele>
<time>2024-05-07T12:34:47Z</time>
</trkpt>
<trkpt lat="49.07221597619355" lon="9.593023220077155">
<ele>468</ele>
<time>2024-05-07T12:34:48Z</time>
</trkpt>
<trkpt lat="49.07219309359789" lon="9.592966977506876">
<ele>467.8</ele>
<time>2024-05-07T12:34:49Z</time>
</trkpt>
<trkpt lat="49.0721664391458" lon="9.592906879261136">
<ele>467.6</ele>
<time>2024-05-07T12:34:50Z</time>
</trkpt>
<trkpt lat="49.072139700874686" lon="9.592849714681506">
<ele>467.6</ele>
<time>2024-05-07T12:34:51Z</time>
</trkpt>
<trkpt lat="49.07211296260357" lon="9.592791544273496">
<ele>467.6</ele>
<time>2024-05-07T12:34:52Z</time>
</trkpt>
<trkpt lat="49.07208630815148" lon="9.592735217884185">
<ele>467.6</ele>
<time>2024-05-07T12:34:53Z</time>
</trkpt>
<trkpt lat="49.07205579802394" lon="9.592678053304551">
<ele>467.4</ele>
<time>2024-05-07T12:34:54Z</time>
</trkpt>
<trkpt lat="49.07202905975282" lon="9.59262466058135">
<ele>467.4</ele>
<time>2024-05-07T12:34:55Z</time>
</trkpt>
<trkpt lat="49.07199854962528" lon="9.592575039714577">
<ele>467.4</ele>
<time>2024-05-07T12:34:56Z</time>
</trkpt>
<trkpt lat="49.071964183822274" lon="9.592528268694878">
<ele>467.4</ele>
<time>2024-05-07T12:34:57Z</time>
</trkpt>
<trkpt lat="49.0719299018383" lon="9.592483509331942">
<ele>467.4</ele>
<time>2024-05-07T12:34:58Z</time>
</trkpt>
<trkpt lat="49.0718955360353" lon="9.592436738312244">
<ele>467.4</ele>
<time>2024-05-07T12:34:59Z</time>
</trkpt>
<trkpt lat="49.07186125405133" lon="9.592391895130277">
<ele>467.6</ele>
<time>2024-05-07T12:35:00Z</time>
</trkpt>
<trkpt lat="49.07182688824832" lon="9.59234805777669">
<ele>467.6</ele>
<time>2024-05-07T12:35:01Z</time>
</trkpt>
<trkpt lat="49.07179252244532" lon="9.592301286756992">
<ele>467.6</ele>
<time>2024-05-07T12:35:02Z</time>
</trkpt>
<trkpt lat="49.07175824046135" lon="9.592254599556329">
<ele>467.6</ele>
<time>2024-05-07T12:35:03Z</time>
</trkpt>
<trkpt lat="49.071723874658346" lon="9.59220975637436">
<ele>467.6</ele>
<time>2024-05-07T12:35:04Z</time>
</trkpt>
<trkpt lat="49.0716933645308" lon="9.592164913192391">
<ele>467.6</ele>
<time>2024-05-07T12:35:05Z</time>
</trkpt>
<trkpt lat="49.07165522687137" lon="9.592121997848151">
<ele>467.6</ele>
<time>2024-05-07T12:35:06Z</time>
</trkpt>
<trkpt lat="49.07162086106837" lon="9.592076232656837">
<ele>467.6</ele>
<time>2024-05-07T12:35:07Z</time>
</trkpt>
<trkpt lat="49.0715865790844" lon="9.5920314732939">
<ele>467.4</ele>
<time>2024-05-07T12:35:08Z</time>
</trkpt>
<trkpt lat="49.07155606895685" lon="9.591986630111933">
<ele>467.4</ele>
<time>2024-05-07T12:35:09Z</time>
</trkpt>
<trkpt lat="49.07152170315385" lon="9.591943714767694">
<ele>467.4</ele>
<time>2024-05-07T12:35:10Z</time>
</trkpt>
<trkpt lat="49.071491193026304" lon="9.591899793595076">
<ele>467.4</ele>
<time>2024-05-07T12:35:11Z</time>
</trkpt>
<trkpt lat="49.0714568272233" lon="9.591859811916947">
<ele>467.4</ele>
<time>2024-05-07T12:35:12Z</time>
</trkpt>
<trkpt lat="49.07142631709576" lon="9.591819746419787">
<ele>467.4</ele>
<time>2024-05-07T12:35:13Z</time>
</trkpt>
<trkpt lat="49.071392035111785" lon="9.591778675094249">
<ele>467.4</ele>
<time>2024-05-07T12:35:14Z</time>
</trkpt>
<trkpt lat="49.07135766930878" lon="9.59173483774066">
<ele>467.4</ele>
<time>2024-05-07T12:35:15Z</time>
</trkpt>
<trkpt lat="49.07132338732481" lon="9.59169192239642">
<ele>467.4</ele>
<time>2024-05-07T12:35:16Z</time>
</trkpt>
<trkpt lat="49.07128902152181" lon="9.591648085042834">
<ele>467.4</ele>
<time>2024-05-07T12:35:17Z</time>
</trkpt>
<trkpt lat="49.0712546557188" lon="9.591603241860868">
<ele>467.4</ele>
<time>2024-05-07T12:35:18Z</time>
</trkpt>
<trkpt lat="49.07121651805937" lon="9.5915583986789">
<ele>467.2</ele>
<time>2024-05-07T12:35:19Z</time>
</trkpt>
<trkpt lat="49.07118600793183" lon="9.591513555496933">
<ele>467.2</ele>
<time>2024-05-07T12:35:20Z</time>
</trkpt>
<trkpt lat="49.07115172594786" lon="9.591468796133997">
<ele>467</ele>
<time>2024-05-07T12:35:21Z</time>
</trkpt>
<trkpt lat="49.071117360144854" lon="9.591420097276568">
<ele>467</ele>
<time>2024-05-07T12:35:22Z</time>
</trkpt>
<trkpt lat="49.07108299434185" lon="9.591369554400444">
<ele>467</ele>
<time>2024-05-07T12:35:23Z</time>
</trkpt>
<trkpt lat="49.071052484214306" lon="9.59131808951497">
<ele>466.8</ele>
<time>2024-05-07T12:35:24Z</time>
</trkpt>
<trkpt lat="49.071018202230334" lon="9.591266624629498">
<ele>466.8</ele>
<time>2024-05-07T12:35:25Z</time>
</trkpt>
<trkpt lat="49.07098383642733" lon="9.591217003762722">
<ele>466.8</ele>
<time>2024-05-07T12:35:26Z</time>
</trkpt>
<trkpt lat="49.07094955444336" lon="9.591164533048868">
<ele>466.8</ele>
<time>2024-05-07T12:35:27Z</time>
</trkpt>
<trkpt lat="49.07091518864035" lon="9.591113068163397">
<ele>466.6</ele>
<time>2024-05-07T12:35:28Z</time>
</trkpt>
<trkpt lat="49.070877050980926" lon="9.59106151945889">
<ele>466.6</ele>
<time>2024-05-07T12:35:29Z</time>
</trkpt>
<trkpt lat="49.07084268517792" lon="9.591008126735687">
<ele>466.6</ele>
<time>2024-05-07T12:35:30Z</time>
</trkpt>
<trkpt lat="49.07080454751849" lon="9.590956661850214">
<ele>466.6</ele>
<time>2024-05-07T12:35:31Z</time>
</trkpt>
<trkpt lat="49.07076640985906" lon="9.590905113145707">
<ele>466.6</ele>
<time>2024-05-07T12:35:32Z</time>
</trkpt>
<trkpt lat="49.07072827219963" lon="9.590853648260236">
<ele>466.6</ele>
<time>2024-05-07T12:35:33Z</time>
</trkpt>
<trkpt lat="49.0706901345402" lon="9.590801177546382">
<ele>466.4</ele>
<time>2024-05-07T12:35:34Z</time>
</trkpt>
<trkpt lat="49.07065199688077" lon="9.590749712660909">
<ele>466.2</ele>
<time>2024-05-07T12:35:35Z</time>
</trkpt>
<trkpt lat="49.07061385922134" lon="9.590698163956404">
<ele>466.2</ele>
<time>2024-05-07T12:35:36Z</time>
</trkpt>
<trkpt lat="49.07057563774288" lon="9.59064862690866">
<ele>466</ele>
<time>2024-05-07T12:35:37Z</time>
</trkpt>
<trkpt lat="49.07053750008345" lon="9.590601855888965">
<ele>465.8</ele>
<time>2024-05-07T12:35:38Z</time>
</trkpt>
<trkpt lat="49.070499362424016" lon="9.590555168688295">
<ele>465.8</ele>
<time>2024-05-07T12:35:39Z</time>
</trkpt>
<trkpt lat="49.070461224764585" lon="9.59051032550633">
<ele>465.8</ele>
<time>2024-05-07T12:35:40Z</time>
</trkpt>
<trkpt lat="49.070423087105155" lon="9.59046833217144">
<ele>465.6</ele>
<time>2024-05-07T12:35:41Z</time>
</trkpt>
<trkpt lat="49.070384949445724" lon="9.590425416827202">
<ele>465.6</ele>
<time>2024-05-07T12:35:42Z</time>
</trkpt>
<trkpt lat="49.070346811786294" lon="9.590381579473616">
<ele>465.6</ele>
<time>2024-05-07T12:35:43Z</time>
</trkpt>
<trkpt lat="49.07031244598329" lon="9.590341513976457">
<ele>465.6</ele>
<time>2024-05-07T12:35:44Z</time>
</trkpt>
<trkpt lat="49.07027816399932" lon="9.590303376317024">
<ele>465.6</ele>
<time>2024-05-07T12:35:45Z</time>
</trkpt>
<trkpt lat="49.07023994252086" lon="9.590261382982137">
<ele>465.6</ele>
<time>2024-05-07T12:35:46Z</time>
</trkpt>
<trkpt lat="49.070205660536885" lon="9.590218467637897">
<ele>465.4</ele>
<time>2024-05-07T12:35:47Z</time>
</trkpt>
<trkpt lat="49.07017129473388" lon="9.59017370827496">
<ele>465.4</ele>
<time>2024-05-07T12:35:48Z</time>
</trkpt>
<trkpt lat="49.07013701274991" lon="9.590126937255263">
<ele>465.4</ele>
<time>2024-05-07T12:35:49Z</time>
</trkpt>
<trkpt lat="49.070106502622366" lon="9.590080250054598">
<ele>465.2</ele>
<time>2024-05-07T12:35:50Z</time>
</trkpt>
<trkpt lat="49.07007590867579" lon="9.59003540687263">
<ele>465.2</ele>
<time>2024-05-07T12:35:51Z</time>
</trkpt>
<trkpt lat="49.070045398548245" lon="9.589989641681314">
<ele>465.2</ele>
<time>2024-05-07T12:35:52Z</time>
</trkpt>
<trkpt lat="49.070026371628046" lon="9.589940020814538">
<ele>465</ele>
<time>2024-05-07T12:35:53Z</time>
</trkpt>
<trkpt lat="49.07001874409616" lon="9.5898780785501">
<ele>465</ele>
<time>2024-05-07T12:35:54Z</time>
</trkpt>
<trkpt lat="49.07002251595259" lon="9.58981697447598">
<ele>465</ele>
<time>2024-05-07T12:35:55Z</time>
</trkpt>
<trkpt lat="49.07003399915993" lon="9.58975788205862">
<ele>464.8</ele>
<time>2024-05-07T12:35:56Z</time>
</trkpt>
<trkpt lat="49.07005302608013" lon="9.589704489335418">
<ele>464.8</ele>
<time>2024-05-07T12:35:57Z</time>
</trkpt>
<trkpt lat="49.07007976435125" lon="9.589652940630913">
<ele>464.6</ele>
<time>2024-05-07T12:35:58Z</time>
</trkpt>
<trkpt lat="49.07010264694691" lon="9.589603403583167">
<ele>464.6</ele>
<time>2024-05-07T12:35:59Z</time>
</trkpt>
<trkpt lat="49.070125529542565" lon="9.589550010859966">
<ele>464.4</ele>
<time>2024-05-07T12:36:00Z</time>
</trkpt>
<trkpt lat="49.07015226781368" lon="9.589494690299034">
<ele>464.4</ele>
<time>2024-05-07T12:36:01Z</time>
</trkpt>
<trkpt lat="49.07017892226577" lon="9.589434592053294">
<ele>464.2</ele>
<time>2024-05-07T12:36:02Z</time>
</trkpt>
<trkpt lat="49.07020943239331" lon="9.589374493807554">
<ele>464.2</ele>
<time>2024-05-07T12:36:03Z</time>
</trkpt>
<trkpt lat="49.07023617066443" lon="9.589311545714736">
<ele>464.2</ele>
<time>2024-05-07T12:36:04Z</time>
</trkpt>
<trkpt lat="49.07026290893555" lon="9.58924289792776">
<ele>464</ele>
<time>2024-05-07T12:36:05Z</time>
</trkpt>
<trkpt lat="49.07028956338763" lon="9.589175172150137">
<ele>464</ele>
<time>2024-05-07T12:36:06Z</time>
</trkpt>
<trkpt lat="49.07032007351518" lon="9.58910459652543">
<ele>464</ele>
<time>2024-05-07T12:36:07Z</time>
</trkpt>
<trkpt lat="49.070346811786294" lon="9.589036870747805">
<ele>464</ele>
<time>2024-05-07T12:36:08Z</time>
</trkpt>
<trkpt lat="49.07037732191384" lon="9.5889662951231">
<ele>463.8</ele>
<time>2024-05-07T12:36:09Z</time>
</trkpt>
<trkpt lat="49.07040397636592" lon="9.588899575173857">
<ele>463.8</ele>
<time>2024-05-07T12:36:10Z</time>
</trkpt>
<trkpt lat="49.07043071463704" lon="9.58883285522461">
<ele>464</ele>
<time>2024-05-07T12:36:11Z</time>
</trkpt>
<trkpt lat="49.07045745290816" lon="9.58876697346568">
<ele>464</ele>
<time>2024-05-07T12:36:12Z</time>
</trkpt>
<trkpt lat="49.0704879630357" lon="9.588705031201243">
<ele>464</ele>
<time>2024-05-07T12:36:13Z</time>
</trkpt>
<trkpt lat="49.07051847316325" lon="9.588643005117774">
<ele>464.2</ele>
<time>2024-05-07T12:36:14Z</time>
</trkpt>
<trkpt lat="49.07054512761533" lon="9.588584834709764">
<ele>464.2</ele>
<time>2024-05-07T12:36:15Z</time>
</trkpt>
<trkpt lat="49.07057563774288" lon="9.588526664301751">
<ele>464.4</ele>
<time>2024-05-07T12:36:16Z</time>
</trkpt>
<trkpt lat="49.07059474848211" lon="9.588466566056011">
<ele>464.4</ele>
<time>2024-05-07T12:36:17Z</time>
</trkpt>
<trkpt lat="49.07061385922134" lon="9.588406551629305">
<ele>464.6</ele>
<time>2024-05-07T12:36:18Z</time>
</trkpt>
<trkpt lat="49.070636741817" lon="9.5883550029248">
<ele>464.6</ele>
<time>2024-05-07T12:36:19Z</time>
</trkpt>
<trkpt lat="49.07065199688077" lon="9.588303538039328">
<ele>464.6</ele>
<time>2024-05-07T12:36:20Z</time>
</trkpt>
<trkpt lat="49.070678651332855" lon="9.588252995163202">
<ele>464.8</ele>
<time>2024-05-07T12:36:21Z</time>
</trkpt>
<trkpt lat="49.07070153392851" lon="9.58819859661162">
<ele>464.8</ele>
<time>2024-05-07T12:36:22Z</time>
</trkpt>
<trkpt lat="49.070720644667745" lon="9.588140426203609">
<ele>464.8</ele>
<time>2024-05-07T12:36:23Z</time>
</trkpt>
<trkpt lat="49.0707435272634" lon="9.58808133378625">
<ele>464.8</ele>
<time>2024-05-07T12:36:24Z</time>
</trkpt>
<trkpt lat="49.0707625541836" lon="9.58802123554051">
<ele>464.8</ele>
<time>2024-05-07T12:36:25Z</time>
</trkpt>
<trkpt lat="49.07078166492283" lon="9.587964992970228">
<ele>465</ele>
<time>2024-05-07T12:36:26Z</time>
</trkpt>
<trkpt lat="49.070800775662065" lon="9.587909672409296">
<ele>465</ele>
<time>2024-05-07T12:36:27Z</time>
</trkpt>
<trkpt lat="49.070819802582264" lon="9.587853429839017">
<ele>465</ele>
<time>2024-05-07T12:36:28Z</time>
</trkpt>
<trkpt lat="49.07084268517792" lon="9.587797103449702">
<ele>465</ele>
<time>2024-05-07T12:36:29Z</time>
</trkpt>
<trkpt lat="49.07086556777358" lon="9.5877437107265">
<ele>465</ele>
<time>2024-05-07T12:36:30Z</time>
</trkpt>
<trkpt lat="49.07088467851281" lon="9.587686462327838">
<ele>465</ele>
<time>2024-05-07T12:36:31Z</time>
</trkpt>
<trkpt lat="49.070899933576584" lon="9.587631225585938">
<ele>465</ele>
<time>2024-05-07T12:36:32Z</time>
</trkpt>
<trkpt lat="49.07091896049678" lon="9.587576827034354">
<ele>465.2</ele>
<time>2024-05-07T12:36:33Z</time>
</trkpt>
<trkpt lat="49.070938071236014" lon="9.587521506473422">
<ele>465.2</ele>
<time>2024-05-07T12:36:34Z</time>
</trkpt>
<trkpt lat="49.070957181975245" lon="9.58746526390314">
<ele>465.2</ele>
<time>2024-05-07T12:36:35Z</time>
</trkpt>
<trkpt lat="49.070976208895445" lon="9.587409943342209">
<ele>465.4</ele>
<time>2024-05-07T12:36:36Z</time>
</trkpt>
<trkpt lat="49.07099146395922" lon="9.587354622781277">
<ele>465.4</ele>
<time>2024-05-07T12:36:37Z</time>
</trkpt>
<trkpt lat="49.07101057469845" lon="9.587298380210996">
<ele>465.4</ele>
<time>2024-05-07T12:36:38Z</time>
</trkpt>
<trkpt lat="49.07102582976222" lon="9.587240209802983">
<ele>465.6</ele>
<time>2024-05-07T12:36:39Z</time>
</trkpt>
<trkpt lat="49.07104108482599" lon="9.587182961404324">
<ele>465.6</ele>
<time>2024-05-07T12:36:40Z</time>
</trkpt>
<trkpt lat="49.071056339889765" lon="9.58712956868112">
<ele>465.8</ele>
<time>2024-05-07T12:36:41Z</time>
</trkpt>
<trkpt lat="49.07107159495354" lon="9.587076175957918">
<ele>465.8</ele>
<time>2024-05-07T12:36:42Z</time>
</trkpt>
<trkpt lat="49.07108685001731" lon="9.587024627253411">
<ele>466</ele>
<time>2024-05-07T12:36:43Z</time>
</trkpt>
<trkpt lat="49.07110210508108" lon="9.58697316236794">
<ele>466</ele>
<time>2024-05-07T12:36:44Z</time>
</trkpt>
<trkpt lat="49.07112121582031" lon="9.586925469338894">
<ele>466.2</ele>
<time>2024-05-07T12:36:45Z</time>
</trkpt>
<trkpt lat="49.071136470884085" lon="9.5868768543005">
<ele>466.4</ele>
<time>2024-05-07T12:36:46Z</time>
</trkpt>
<trkpt lat="49.07115172594786" lon="9.586830083280802">
<ele>466.4</ele>
<time>2024-05-07T12:36:47Z</time>
</trkpt>
<trkpt lat="49.07116312533617" lon="9.586781468242409">
<ele>466.6</ele>
<time>2024-05-07T12:36:48Z</time>
</trkpt>
<trkpt lat="49.071174608543515" lon="9.586731847375631">
<ele>466.8</ele>
<time>2024-05-07T12:36:49Z</time>
</trkpt>
<trkpt lat="49.07118600793183" lon="9.586685160174966">
<ele>467</ele>
<time>2024-05-07T12:36:50Z</time>
</trkpt>
<trkpt lat="49.07119749113917" lon="9.586638389155269">
<ele>467.2</ele>
<time>2024-05-07T12:36:51Z</time>
</trkpt>
<trkpt lat="49.07120889052749" lon="9.586589774116874">
<ele>467.2</ele>
<time>2024-05-07T12:36:52Z</time>
</trkpt>
<trkpt lat="49.07122037373483" lon="9.586540153250098">
<ele>467.4</ele>
<time>2024-05-07T12:36:53Z</time>
</trkpt>
<trkpt lat="49.071231773123145" lon="9.586491538211703">
<ele>467.4</ele>
<time>2024-05-07T12:36:54Z</time>
</trkpt>
<trkpt lat="49.07124702818692" lon="9.586444851011038">
<ele>467.6</ele>
<time>2024-05-07T12:36:55Z</time>
</trkpt>
<trkpt lat="49.07126228325069" lon="9.58639807999134">
<ele>467.6</ele>
<time>2024-05-07T12:36:56Z</time>
</trkpt>
<trkpt lat="49.071269910782576" lon="9.586351392790675">
<ele>467.8</ele>
<time>2024-05-07T12:36:57Z</time>
</trkpt>
<trkpt lat="49.07128139398992" lon="9.5863017719239">
<ele>467.8</ele>
<time>2024-05-07T12:36:58Z</time>
</trkpt>
<trkpt lat="49.071292877197266" lon="9.586251229047775">
<ele>468</ele>
<time>2024-05-07T12:36:59Z</time>
</trkpt>
<trkpt lat="49.07130427658558" lon="9.586196830496192">
<ele>468.2</ele>
<time>2024-05-07T12:37:00Z</time>
</trkpt>
<trkpt lat="49.071311904117465" lon="9.58614343777299">
<ele>468.4</ele>
<time>2024-05-07T12:37:01Z</time>
</trkpt>
<trkpt lat="49.07132715918124" lon="9.586092894896863">
<ele>468.6</ele>
<time>2024-05-07T12:37:02Z</time>
</trkpt>
<trkpt lat="49.07134626992047" lon="9.58604335784912">
<ele>468.8</ele>
<time>2024-05-07T12:37:03Z</time>
</trkpt>
<trkpt lat="49.07135766930878" lon="9.585991809144616">
<ele>468.8</ele>
<time>2024-05-07T12:37:04Z</time>
</trkpt>
<trkpt lat="49.071372924372554" lon="9.585936488583684">
<ele>469</ele>
<time>2024-05-07T12:37:05Z</time>
</trkpt>
<trkpt lat="49.071388179436326" lon="9.585881168022752">
<ele>469</ele>
<time>2024-05-07T12:37:06Z</time>
</trkpt>
<trkpt lat="49.07139966264367" lon="9.58582492545247">
<ele>469</ele>
<time>2024-05-07T12:37:07Z</time>
</trkpt>
<trkpt lat="49.07141491770744" lon="9.58576868288219">
<ele>469.2</ele>
<time>2024-05-07T12:37:08Z</time>
</trkpt>
<trkpt lat="49.071430172771215" lon="9.585713362321258">
<ele>469.4</ele>
<time>2024-05-07T12:37:09Z</time>
</trkpt>
<trkpt lat="49.07144542783499" lon="9.585658041760324">
<ele>469.4</ele>
<time>2024-05-07T12:37:10Z</time>
</trkpt>
<trkpt lat="49.07146453857422" lon="9.585603643208742">
<ele>469.6</ele>
<time>2024-05-07T12:37:11Z</time>
</trkpt>
<trkpt lat="49.07147979363799" lon="9.58555125631392">
<ele>469.6</ele>
<time>2024-05-07T12:37:12Z</time>
</trkpt>
<trkpt lat="49.07149882055819" lon="9.585498785600066">
<ele>469.8</ele>
<time>2024-05-07T12:37:13Z</time>
</trkpt>
<trkpt lat="49.07151407562196" lon="9.585446314886212">
<ele>469.8</ele>
<time>2024-05-07T12:37:14Z</time>
</trkpt>
<trkpt lat="49.071533186361194" lon="9.58539485000074">
<ele>470</ele>
<time>2024-05-07T12:37:15Z</time>
</trkpt>
<trkpt lat="49.071548441424966" lon="9.585343301296234">
<ele>470</ele>
<time>2024-05-07T12:37:16Z</time>
</trkpt>
<trkpt lat="49.071571324020624" lon="9.58529376424849">
<ele>470.2</ele>
<time>2024-05-07T12:37:17Z</time>
</trkpt>
<trkpt lat="49.071590350940824" lon="9.585243221372366">
<ele>470.4</ele>
<time>2024-05-07T12:37:18Z</time>
</trkpt>
<trkpt lat="49.071609461680055" lon="9.585196450352669">
<ele>470.6</ele>
<time>2024-05-07T12:37:19Z</time>
</trkpt>
<trkpt lat="49.07163234427571" lon="9.585147835314274">
<ele>470.8</ele>
<time>2024-05-07T12:37:20Z</time>
</trkpt>
<trkpt lat="49.07165908254683" lon="9.585104919970036">
<ele>470.8</ele>
<time>2024-05-07T12:37:21Z</time>
</trkpt>
<trkpt lat="49.071689592674375" lon="9.585068626329305">
<ele>471</ele>
<time>2024-05-07T12:37:22Z</time>
</trkpt>
<trkpt lat="49.07171624712646" lon="9.585029566660523">
<ele>471.2</ele>
<time>2024-05-07T12:37:23Z</time>
</trkpt>
<trkpt lat="49.07175061292946" lon="9.58499520085752">
<ele>471.4</ele>
<time>2024-05-07T12:37:24Z</time>
</trkpt>
<trkpt lat="49.071784894913435" lon="9.58495513536036">
<ele>471.4</ele>
<time>2024-05-07T12:37:25Z</time>
</trkpt>
<trkpt lat="49.07181926071644" lon="9.584913225844502">
<ele>471.6</ele>
<time>2024-05-07T12:37:26Z</time>
</trkpt>
<trkpt lat="49.07184977084398" lon="9.584866454824803">
<ele>471.8</ele>
<time>2024-05-07T12:37:27Z</time>
</trkpt>
<trkpt lat="49.071884136646986" lon="9.584813062101604">
<ele>471.8</ele>
<time>2024-05-07T12:37:28Z</time>
</trkpt>
<trkpt lat="49.07191841863096" lon="9.5847596693784">
<ele>471.6</ele>
<time>2024-05-07T12:37:29Z</time>
</trkpt>
<trkpt lat="49.07195655629039" lon="9.58470342680812">
<ele>471.6</ele>
<time>2024-05-07T12:37:30Z</time>
</trkpt>
<trkpt lat="49.07199092209339" lon="9.584645256400108">
<ele>471.6</ele>
<time>2024-05-07T12:37:31Z</time>
</trkpt>
<trkpt lat="49.072025287896395" lon="9.584589935839176">
<ele>471.4</ele>
<time>2024-05-07T12:37:32Z</time>
</trkpt>
<trkpt lat="49.072059569880366" lon="9.584533609449863">
<ele>471.4</ele>
<time>2024-05-07T12:37:33Z</time>
</trkpt>
<trkpt lat="49.07209393568337" lon="9.584473595023155">
<ele>471.2</ele>
<time>2024-05-07T12:37:34Z</time>
</trkpt>
<trkpt lat="49.0721320733428" lon="9.584411568939686">
<ele>471</ele>
<time>2024-05-07T12:37:35Z</time>
</trkpt>
<trkpt lat="49.0721664391458" lon="9.584348620846868">
<ele>471</ele>
<time>2024-05-07T12:37:36Z</time>
</trkpt>
<trkpt lat="49.072204576805234" lon="9.584283828735352">
<ele>471</ele>
<time>2024-05-07T12:37:37Z</time>
</trkpt>
<trkpt lat="49.072242714464664" lon="9.584217946976423">
<ele>470.8</ele>
<time>2024-05-07T12:37:38Z</time>
</trkpt>
<trkpt lat="49.07227699644864" lon="9.584153154864907">
<ele>470.8</ele>
<time>2024-05-07T12:37:39Z</time>
</trkpt>
<trkpt lat="49.07231513410807" lon="9.58408542908728">
<ele>470.8</ele>
<time>2024-05-07T12:37:40Z</time>
</trkpt>
<trkpt lat="49.07235335558653" lon="9.584019631147385">
<ele>470.6</ele>
<time>2024-05-07T12:37:41Z</time>
</trkpt>
<trkpt lat="49.0723876375705" lon="9.583954755216835">
<ele>470.6</ele>
<time>2024-05-07T12:37:42Z</time>
</trkpt>
<trkpt lat="49.072422003373504" lon="9.58388987928629">
<ele>470.4</ele>
<time>2024-05-07T12:37:43Z</time>
</trkpt>
<trkpt lat="49.072456285357475" lon="9.583823159337044">
<ele>470.2</ele>
<time>2024-05-07T12:37:44Z</time>
</trkpt>
<trkpt lat="49.07249065116048" lon="9.583758283406496">
<ele>470.2</ele>
<time>2024-05-07T12:37:45Z</time>
</trkpt>
<trkpt lat="49.07252878881991" lon="9.583695335313678">
<ele>470</ele>
<time>2024-05-07T12:37:46Z</time>
</trkpt>
<trkpt lat="49.07256692647934" lon="9.58362953737378">
<ele>470</ele>
<time>2024-05-07T12:37:47Z</time>
</trkpt>
<trkpt lat="49.07260506413877" lon="9.583564745262263">
<ele>469.8</ele>
<time>2024-05-07T12:37:48Z</time>
</trkpt>
<trkpt lat="49.07263942994177" lon="9.583497941493988">
<ele>469.6</ele>
<time>2024-05-07T12:37:49Z</time>
</trkpt>
<trkpt lat="49.0726775676012" lon="9.583431221544744">
<ele>469.4</ele>
<time>2024-05-07T12:37:50Z</time>
</trkpt>
<trkpt lat="49.072715705260634" lon="9.583366345614197">
<ele>469.4</ele>
<time>2024-05-07T12:37:51Z</time>
</trkpt>
<trkpt lat="49.072753842920065" lon="9.583301469683647">
<ele>469.4</ele>
<time>2024-05-07T12:37:52Z</time>
</trkpt>
<trkpt lat="49.072791980579495" lon="9.583238521590827">
<ele>469.2</ele>
<time>2024-05-07T12:37:53Z</time>
</trkpt>
<trkpt lat="49.072830118238926" lon="9.583174651488662">
<ele>469.2</ele>
<time>2024-05-07T12:37:54Z</time>
</trkpt>
<trkpt lat="49.07286833971739" lon="9.583111703395844">
<ele>469</ele>
<time>2024-05-07T12:37:55Z</time>
</trkpt>
<trkpt lat="49.07290647737682" lon="9.583055460825562">
<ele>469</ele>
<time>2024-05-07T12:37:56Z</time>
</trkpt>
<trkpt lat="49.07294461503625" lon="9.58300206810236">
<ele>468.8</ele>
<time>2024-05-07T12:37:57Z</time>
</trkpt>
<trkpt lat="49.07298275269568" lon="9.582944819703698">
<ele>468.6</ele>
<time>2024-05-07T12:37:58Z</time>
</trkpt>
<trkpt lat="49.07302089035511" lon="9.582886649295688">
<ele>468.4</ele>
<time>2024-05-07T12:37:59Z</time>
</trkpt>
<trkpt lat="49.07305525615811" lon="9.582828478887675">
<ele>468.2</ele>
<time>2024-05-07T12:38:00Z</time>
</trkpt>
<trkpt lat="49.073089538142085" lon="9.582770308479668">
<ele>468.2</ele>
<time>2024-05-07T12:38:01Z</time>
</trkpt>
<trkpt lat="49.07312004826963" lon="9.582713060081003">
<ele>468</ele>
<time>2024-05-07T12:38:02Z</time>
</trkpt>
<trkpt lat="49.07315441407263" lon="9.58266352303326">
<ele>468</ele>
<time>2024-05-07T12:38:03Z</time>
</trkpt>
<trkpt lat="49.07318492420018" lon="9.582611974328756">
<ele>468</ele>
<time>2024-05-07T12:38:04Z</time>
</trkpt>
<trkpt lat="49.07321543432772" lon="9.582559503614902">
<ele>468</ele>
<time>2024-05-07T12:38:05Z</time>
</trkpt>
<trkpt lat="49.073245944455266" lon="9.58250803872943">
<ele>468.2</ele>
<time>2024-05-07T12:38:06Z</time>
</trkpt>
<trkpt lat="49.07327645458281" lon="9.582454646006228">
<ele>468.2</ele>
<time>2024-05-07T12:38:07Z</time>
</trkpt>
<trkpt lat="49.073306964710355" lon="9.582401253283024">
<ele>468.2</ele>
<time>2024-05-07T12:38:08Z</time>
</trkpt>
<trkpt lat="49.0733374748379" lon="9.58234970457852">
<ele>468.2</ele>
<time>2024-05-07T12:38:09Z</time>
</trkpt>
<trkpt lat="49.073368068784475" lon="9.582300167530777">
<ele>468.2</ele>
<time>2024-05-07T12:38:10Z</time>
</trkpt>
<trkpt lat="49.07339857891202" lon="9.582246774807572">
<ele>468.2</ele>
<time>2024-05-07T12:38:11Z</time>
</trkpt>
<trkpt lat="49.07342908903957" lon="9.58219145424664">
<ele>468.2</ele>
<time>2024-05-07T12:38:12Z</time>
</trkpt>
<trkpt lat="49.07345959916711" lon="9.582138061523438">
<ele>468</ele>
<time>2024-05-07T12:38:13Z</time>
</trkpt>
<trkpt lat="49.073486253619194" lon="9.582084584981205">
<ele>468.2</ele>
<time>2024-05-07T12:38:14Z</time>
</trkpt>
<trkpt lat="49.07351676374674" lon="9.582031192258">
<ele>468.2</ele>
<time>2024-05-07T12:38:15Z</time>
</trkpt>
<trkpt lat="49.073543502017856" lon="9.581977799534798">
<ele>468.2</ele>
<time>2024-05-07T12:38:16Z</time>
</trkpt>
<trkpt lat="49.07357786782086" lon="9.581926334649324">
<ele>468.4</ele>
<time>2024-05-07T12:38:17Z</time>
</trkpt>
<trkpt lat="49.0736083779484" lon="9.58187193609774">
<ele>468.6</ele>
<time>2024-05-07T12:38:18Z</time>
</trkpt>
<trkpt lat="49.07363888807595" lon="9.581816615536807">
<ele>468.6</ele>
<time>2024-05-07T12:38:19Z</time>
</trkpt>
<trkpt lat="49.07366939820349" lon="9.581760372966528">
<ele>468.8</ele>
<time>2024-05-07T12:38:20Z</time>
</trkpt>
<trkpt lat="49.07369990833104" lon="9.581703124567866">
<ele>468.8</ele>
<time>2024-05-07T12:38:21Z</time>
</trkpt>
<trkpt lat="49.073726646602154" lon="9.581646881997584">
<ele>469</ele>
<time>2024-05-07T12:38:22Z</time>
</trkpt>
<trkpt lat="49.0737571567297" lon="9.581591561436651">
<ele>469.2</ele>
<time>2024-05-07T12:38:23Z</time>
</trkpt>
<trkpt lat="49.07379143871367" lon="9.58153624087572">
<ele>469.4</ele>
<time>2024-05-07T12:38:24Z</time>
</trkpt>
<trkpt lat="49.07381817698479" lon="9.581482848152518">
<ele>469.6</ele>
<time>2024-05-07T12:38:25Z</time>
</trkpt>
<trkpt lat="49.07385245896876" lon="9.581428449600937">
<ele>469.8</ele>
<time>2024-05-07T12:38:26Z</time>
</trkpt>
<trkpt lat="49.07387919723987" lon="9.581375056877732">
<ele>470</ele>
<time>2024-05-07T12:38:27Z</time>
</trkpt>
<trkpt lat="49.07390970736742" lon="9.58132359199226">
<ele>470.2</ele>
<time>2024-05-07T12:38:28Z</time>
</trkpt>
<trkpt lat="49.07393644563854" lon="9.581272043287754">
<ele>470.4</ele>
<time>2024-05-07T12:38:29Z</time>
</trkpt>
<trkpt lat="49.07396310009062" lon="9.581219656392932">
<ele>470.6</ele>
<time>2024-05-07T12:38:30Z</time>
</trkpt>
<trkpt lat="49.07398983836174" lon="9.581172885373237">
<ele>470.8</ele>
<time>2024-05-07T12:38:31Z</time>
</trkpt>
<trkpt lat="49.07400886528194" lon="9.581129970028996">
<ele>471</ele>
<time>2024-05-07T12:38:32Z</time>
</trkpt>
<trkpt lat="49.0740317478776" lon="9.58108806051314">
<ele>471.2</ele>
<time>2024-05-07T12:38:33Z</time>
</trkpt>
<trkpt lat="49.07405471429229" lon="9.581049839034677">
<ele>471.6</ele>
<time>2024-05-07T12:38:34Z</time>
</trkpt>
<trkpt lat="49.07407374121249" lon="9.581011701375246">
<ele>471.8</ele>
<time>2024-05-07T12:38:35Z</time>
</trkpt>
<trkpt lat="49.07409285195172" lon="9.580974569544196">
<ele>472</ele>
<time>2024-05-07T12:38:36Z</time>
</trkpt>
<trkpt lat="49.07411573454738" lon="9.580938275903463">
<ele>472.4</ele>
<time>2024-05-07T12:38:37Z</time>
</trkpt>
<trkpt lat="49.074134761467576" lon="9.58090684376657">
<ele>472.6</ele>
<time>2024-05-07T12:38:38Z</time>
</trkpt>
<trkpt lat="49.074157644063234" lon="9.580875327810643">
<ele>473</ele>
<time>2024-05-07T12:38:39Z</time>
</trkpt>
<trkpt lat="49.074176754802465" lon="9.580838195979595">
<ele>473.2</ele>
<time>2024-05-07T12:38:40Z</time>
</trkpt>
<trkpt lat="49.07419963739813" lon="9.580802908167245">
<ele>473.6</ele>
<time>2024-05-07T12:38:41Z</time>
</trkpt>
<trkpt lat="49.07422251999378" lon="9.58076854236424">
<ele>474</ele>
<time>2024-05-07T12:38:42Z</time>
</trkpt>
<trkpt lat="49.07424163073301" lon="9.580733254551888">
<ele>474.4</ele>
<time>2024-05-07T12:38:43Z</time>
</trkpt>
<trkpt lat="49.07426451332867" lon="9.580699894577265">
<ele>474.8</ele>
<time>2024-05-07T12:38:44Z</time>
</trkpt>
<trkpt lat="49.07429116778076" lon="9.58066837862134">
<ele>475.2</ele>
<time>2024-05-07T12:38:45Z</time>
</trkpt>
<trkpt lat="49.074314050376415" lon="9.580637868493795">
<ele>475.4</ele>
<time>2024-05-07T12:38:46Z</time>
</trkpt>
<trkpt lat="49.074336932972074" lon="9.58061020821333">
<ele>475.8</ele>
<time>2024-05-07T12:38:47Z</time>
</trkpt>
<trkpt lat="49.07435981556773" lon="9.580577770248055">
<ele>476</ele>
<time>2024-05-07T12:38:48Z</time>
</trkpt>
<trkpt lat="49.07438655383885" lon="9.580546338111162">
<ele>476.2</ele>
<time>2024-05-07T12:38:49Z</time>
</trkpt>
<trkpt lat="49.074413292109966" lon="9.580516749992968">
<ele>476.4</ele>
<time>2024-05-07T12:38:50Z</time>
</trkpt>
<trkpt lat="49.07443994656205" lon="9.580488167703152">
<ele>476.6</ele>
<time>2024-05-07T12:38:51Z</time>
</trkpt>
<trkpt lat="49.07446668483317" lon="9.580459585413337">
<ele>477</ele>
<time>2024-05-07T12:38:52Z</time>
</trkpt>
<trkpt lat="49.074493339285254" lon="9.58043284714222">
<ele>477.2</ele>
<time>2024-05-07T12:38:53Z</time>
</trkpt>
<trkpt lat="49.07452007755637" lon="9.58041189238429">
<ele>477.4</ele>
<time>2024-05-07T12:38:54Z</time>
</trkpt>
<trkpt lat="49.07454673200846" lon="9.58038993179798">
<ele>477.6</ele>
<time>2024-05-07T12:38:55Z</time>
</trkpt>
<trkpt lat="49.07457732595503" lon="9.580367971211672">
<ele>478</ele>
<time>2024-05-07T12:38:56Z</time>
</trkpt>
<trkpt lat="49.07460783608258" lon="9.58034986630082">
<ele>478.2</ele>
<time>2024-05-07T12:38:57Z</time>
</trkpt>
<trkpt lat="49.07463834621012" lon="9.5803336892277">
<ele>478.6</ele>
<time>2024-05-07T12:38:58Z</time>
</trkpt>
<trkpt lat="49.07466500066221" lon="9.580325055867434">
<ele>479</ele>
<time>2024-05-07T12:38:59Z</time>
</trkpt>
<trkpt lat="49.07469551078975" lon="9.58031457848847">
<ele>479.2</ele>
<time>2024-05-07T12:39:00Z</time>
</trkpt>
<trkpt lat="49.07472610473633" lon="9.580306950956585">
<ele>479.6</ele>
<time>2024-05-07T12:39:01Z</time>
</trkpt>
<trkpt lat="49.074752759188414" lon="9.580300329253078">
<ele>479.8</ele>
<time>2024-05-07T12:39:02Z</time>
</trkpt>
<trkpt lat="49.07477564178407" lon="9.580286918208005">
<ele>480</ele>
<time>2024-05-07T12:39:03Z</time>
</trkpt>
<trkpt lat="49.0747947525233" lon="9.580284990370274">
<ele>480.2</ele>
<time>2024-05-07T12:39:04Z</time>
</trkpt>
<trkpt lat="49.0748137794435" lon="9.580281218513846">
<ele>480.4</ele>
<time>2024-05-07T12:39:05Z</time>
</trkpt>
<trkpt lat="49.07483289018273" lon="9.58027359098196">
<ele>480.4</ele>
<time>2024-05-07T12:39:06Z</time>
</trkpt>
<trkpt lat="49.07485191710293" lon="9.580263113602996">
<ele>480.6</ele>
<time>2024-05-07T12:39:07Z</time>
</trkpt>
<trkpt lat="49.07487479969859" lon="9.58025448024273">
<ele>480.6</ele>
<time>2024-05-07T12:39:08Z</time>
</trkpt>
<trkpt lat="49.07490539364517" lon="9.580249786376951">
<ele>480.6</ele>
<time>2024-05-07T12:39:09Z</time>
</trkpt>
<trkpt lat="49.07493967562914" lon="9.580243080854416">
<ele>480.6</ele>
<time>2024-05-07T12:39:10Z</time>
</trkpt>
<trkpt lat="49.07497404143214" lon="9.58023159764707">
<ele>480.6</ele>
<time>2024-05-07T12:39:11Z</time>
</trkpt>
<trkpt lat="49.07501217909157" lon="9.58021542057395">
<ele>480.6</ele>
<time>2024-05-07T12:39:12Z</time>
</trkpt>
<trkpt lat="49.075046461075544" lon="9.58019345998764">
<ele>480.6</ele>
<time>2024-05-07T12:39:13Z</time>
</trkpt>
<trkpt lat="49.07507705502212" lon="9.58017535507679">
<ele>480.6</ele>
<time>2024-05-07T12:39:14Z</time>
</trkpt>
<trkpt lat="49.07511519268155" lon="9.580162027850749">
<ele>480.6</ele>
<time>2024-05-07T12:39:15Z</time>
</trkpt>
<trkpt lat="49.07515333034098" lon="9.580146772786977">
<ele>480.6</ele>
<time>2024-05-07T12:39:16Z</time>
</trkpt>
<trkpt lat="49.07519146800041" lon="9.580129589885471">
<ele>480.6</ele>
<time>2024-05-07T12:39:17Z</time>
</trkpt>
<trkpt lat="49.07523723319173" lon="9.58011626265943">
<ele>480.4</ele>
<time>2024-05-07T12:39:18Z</time>
</trkpt>
<trkpt lat="49.075282998383045" lon="9.580098073929548">
<ele>480.2</ele>
<time>2024-05-07T12:39:19Z</time>
</trkpt>
<trkpt lat="49.07533261924982" lon="9.58007519133389">
<ele>480</ele>
<time>2024-05-07T12:39:20Z</time>
</trkpt>
<trkpt lat="49.075382156297565" lon="9.58005515858531">
<ele>479.8</ele>
<time>2024-05-07T12:39:21Z</time>
</trkpt>
<trkpt lat="49.07543177716434" lon="9.580031353980305">
<ele>479.6</ele>
<time>2024-05-07T12:39:22Z</time>
</trkpt>
<trkpt lat="49.07548516988754" lon="9.580011321231725">
<ele>479.4</ele>
<time>2024-05-07T12:39:23Z</time>
</trkpt>
<trkpt lat="49.07553479075432" lon="9.579995144158602">
<ele>479.2</ele>
<time>2024-05-07T12:39:24Z</time>
</trkpt>
<trkpt lat="49.07558818347752" lon="9.579975111410022">
<ele>478.8</ele>
<time>2024-05-07T12:39:25Z</time>
</trkpt>
<trkpt lat="49.07564157620072" lon="9.579953150823712">
<ele>478.4</ele>
<time>2024-05-07T12:39:26Z</time>
</trkpt>
<trkpt lat="49.07568734139204" lon="9.579926412552595">
<ele>478</ele>
<time>2024-05-07T12:39:27Z</time>
</trkpt>
<trkpt lat="49.075736962258816" lon="9.579896908253431">
<ele>477.6</ele>
<time>2024-05-07T12:39:28Z</time>
</trkpt>
<trkpt lat="49.075778955593705" lon="9.579868242144585">
<ele>477.2</ele>
<time>2024-05-07T12:39:29Z</time>
</trkpt>
<trkpt lat="49.07582086510956" lon="9.57983873784542">
<ele>476.8</ele>
<time>2024-05-07T12:39:30Z</time>
</trkpt>
<trkpt lat="49.07586285844445" lon="9.579792972654104">
<ele>476.4</ele>
<time>2024-05-07T12:39:31Z</time>
</trkpt>
<trkpt lat="49.075897140428424" lon="9.57973949611187">
<ele>476</ele>
<time>2024-05-07T12:39:32Z</time>
</trkpt>
<trkpt lat="49.07592387869954" lon="9.579685181379318">
<ele>475.6</ele>
<time>2024-05-07T12:39:33Z</time>
</trkpt>
<trkpt lat="49.07594298943877" lon="9.579621311277153">
<ele>475.2</ele>
<time>2024-05-07T12:39:34Z</time>
</trkpt>
<trkpt lat="49.07596587203443" lon="9.579553585499523">
<ele>474.6</ele>
<time>2024-05-07T12:39:35Z</time>
</trkpt>
<trkpt lat="49.0759811270982" lon="9.57948493771255">
<ele>474.2</ele>
<time>2024-05-07T12:39:36Z</time>
</trkpt>
<trkpt lat="49.075996382161975" lon="9.579415284097196">
<ele>473.8</ele>
<time>2024-05-07T12:39:37Z</time>
</trkpt>
<trkpt lat="49.07601163722575" lon="9.57934663631022">
<ele>473.4</ele>
<time>2024-05-07T12:39:38Z</time>
</trkpt>
<trkpt lat="49.07602689228952" lon="9.579276982694864">
<ele>473</ele>
<time>2024-05-07T12:39:39Z</time>
</trkpt>
<trkpt lat="49.07603829167783" lon="9.57920447923243">
<ele>472.8</ele>
<time>2024-05-07T12:39:40Z</time>
</trkpt>
<trkpt lat="49.07604977488518" lon="9.57912820391357">
<ele>472.6</ele>
<time>2024-05-07T12:39:41Z</time>
</trkpt>
<trkpt lat="49.076057402417064" lon="9.57905000075698">
<ele>472.2</ele>
<time>2024-05-07T12:39:42Z</time>
</trkpt>
<trkpt lat="49.07606880180538" lon="9.57896802574396">
<ele>472</ele>
<time>2024-05-07T12:39:43Z</time>
</trkpt>
<trkpt lat="49.07608028501272" lon="9.578881189227104">
<ele>471.8</ele>
<time>2024-05-07T12:39:44Z</time>
</trkpt>
<trkpt lat="49.076091684401035" lon="9.578798292204738">
<ele>471.6</ele>
<time>2024-05-07T12:39:45Z</time>
</trkpt>
<trkpt lat="49.07610702328384" lon="9.578720089048147">
<ele>471.6</ele>
<time>2024-05-07T12:39:46Z</time>
</trkpt>
<trkpt lat="49.07611842267215" lon="9.578646579757333">
<ele>471.4</ele>
<time>2024-05-07T12:39:47Z</time>
</trkpt>
<trkpt lat="49.07612605020404" lon="9.578570304438472">
<ele>471.2</ele>
<time>2024-05-07T12:39:48Z</time>
</trkpt>
<trkpt lat="49.076133677735925" lon="9.578493107110262">
<ele>471</ele>
<time>2024-05-07T12:39:49Z</time>
</trkpt>
<trkpt lat="49.07614516094327" lon="9.578412976115942">
<ele>470.8</ele>
<time>2024-05-07T12:39:50Z</time>
</trkpt>
<trkpt lat="49.07615656033158" lon="9.578332845121622">
<ele>470.4</ele>
<time>2024-05-07T12:39:51Z</time>
</trkpt>
<trkpt lat="49.076171815395355" lon="9.57825849764049">
<ele>470.2</ele>
<time>2024-05-07T12:39:52Z</time>
</trkpt>
<trkpt lat="49.07619469799101" lon="9.578181216493247">
<ele>469.8</ele>
<time>2024-05-07T12:39:53Z</time>
</trkpt>
<trkpt lat="49.07622143626213" lon="9.578115418553352">
<ele>469.2</ele>
<time>2024-05-07T12:39:54Z</time>
</trkpt>
<trkpt lat="49.076248090714216" lon="9.57806202583015">
<ele>468.8</ele>
<time>2024-05-07T12:39:55Z</time>
</trkpt>
<trkpt lat="49.07628245651722" lon="9.578016260638831">
<ele>468.4</ele>
<time>2024-05-07T12:39:56Z</time>
</trkpt>
<trkpt lat="49.07632059417665" lon="9.577978122979404">
<ele>468</ele>
<time>2024-05-07T12:39:57Z</time>
</trkpt>
<trkpt lat="49.07636635936797" lon="9.577949456870556">
<ele>467.6</ele>
<time>2024-05-07T12:39:58Z</time>
</trkpt>
<trkpt lat="49.076408352702856" lon="9.57792372442782">
<ele>467.2</ele>
<time>2024-05-07T12:39:59Z</time>
</trkpt>
<trkpt lat="49.07644649036229" lon="9.577918024733664">
<ele>466.8</ele>
<time>2024-05-07T12:40:00Z</time>
</trkpt>
<trkpt lat="49.07648462802172" lon="9.577917018905282">
<ele>466.2</ele>
<time>2024-05-07T12:40:01Z</time>
</trkpt>
<trkpt lat="49.07652276568115" lon="9.577918024733664">
<ele>465.8</ele>
<time>2024-05-07T12:40:02Z</time>
</trkpt>
<trkpt lat="49.07656090334058" lon="9.577919952571392">
<ele>465.2</ele>
<time>2024-05-07T12:40:03Z</time>
</trkpt>
<trkpt lat="49.07659904100001" lon="9.577924646437168">
<ele>464.8</ele>
<time>2024-05-07T12:40:04Z</time>
</trkpt>
<trkpt lat="49.0766410343349" lon="9.577933279797437">
<ele>464.2</ele>
<time>2024-05-07T12:40:05Z</time>
</trkpt>
<trkpt lat="49.076686799526215" lon="9.577939985319972">
<ele>463.6</ele>
<time>2024-05-07T12:40:06Z</time>
</trkpt>
<trkpt lat="49.076728792861104" lon="9.577953312546017">
<ele>463</ele>
<time>2024-05-07T12:40:07Z</time>
</trkpt>
<trkpt lat="49.07677455805242" lon="9.577968567609789">
<ele>462.4</ele>
<time>2024-05-07T12:40:08Z</time>
</trkpt>
<trkpt lat="49.07681269571185" lon="9.57798290066421">
<ele>461.8</ele>
<time>2024-05-07T12:40:09Z</time>
</trkpt>
<trkpt lat="49.07685083337128" lon="9.57800284959376">
<ele>461.4</ele>
<time>2024-05-07T12:40:10Z</time>
</trkpt>
<trkpt lat="49.076885199174285" lon="9.57802288234234">
<ele>460.8</ele>
<time>2024-05-07T12:40:11Z</time>
</trkpt>
<trkpt lat="49.07691948115826" lon="9.578035287559032">
<ele>460.4</ele>
<time>2024-05-07T12:40:12Z</time>
</trkpt>
<trkpt lat="49.0769499912858" lon="9.57804199308157">
<ele>460</ele>
<time>2024-05-07T12:40:13Z</time>
</trkpt>
<trkpt lat="49.07697295770049" lon="9.578049620613456">
<ele>459.8</ele>
<time>2024-05-07T12:40:14Z</time>
</trkpt>
<trkpt lat="49.07698821276426" lon="9.578048698604109">
<ele>459.6</ele>
<time>2024-05-07T12:40:15Z</time>
</trkpt>
<trkpt lat="49.076999612152576" lon="9.578035287559032">
<ele>459.4</ele>
<time>2024-05-07T12:40:16Z</time>
</trkpt>
<trkpt lat="49.07701109535992" lon="9.578009555116296">
<ele>459.4</ele>
<time>2024-05-07T12:40:17Z</time>
</trkpt>
<trkpt lat="49.077022494748235" lon="9.577988600358369">
<ele>459.2</ele>
<time>2024-05-07T12:40:18Z</time>
</trkpt>
<trkpt lat="49.077026350423694" lon="9.577953312546017">
<ele>459</ele>
<time>2024-05-07T12:40:19Z</time>
</trkpt>
<trkpt lat="49.077022494748235" lon="9.57792179659009">
<ele>459</ele>
<time>2024-05-07T12:40:20Z</time>
</trkpt>
<trkpt lat="49.07701486721635" lon="9.577886508777738">
<ele>458.8</ele>
<time>2024-05-07T12:40:21Z</time>
</trkpt>
<trkpt lat="49.07701109535992" lon="9.577850298956037">
<ele>458.6</ele>
<time>2024-05-07T12:40:22Z</time>
</trkpt>
<trkpt lat="49.07700723968446" lon="9.577808305621147">
<ele>458.6</ele>
<time>2024-05-07T12:40:23Z</time>
</trkpt>
<trkpt lat="49.077003467828035" lon="9.57776446826756">
<ele>458.6</ele>
<time>2024-05-07T12:40:24Z</time>
</trkpt>
<trkpt lat="49.076999612152576" lon="9.577718703076243">
<ele>458.4</ele>
<time>2024-05-07T12:40:25Z</time>
</trkpt>
<trkpt lat="49.07699198462069" lon="9.577672937884929">
<ele>458.4</ele>
<time>2024-05-07T12:40:26Z</time>
</trkpt>
<trkpt lat="49.07699198462069" lon="9.57762524485588">
<ele>458.2</ele>
<time>2024-05-07T12:40:27Z</time>
</trkpt>
<trkpt lat="49.07698821276426" lon="9.577576629817486">
<ele>458.2</ele>
<time>2024-05-07T12:40:28Z</time>
</trkpt>
<trkpt lat="49.0769843570888" lon="9.577529858797789">
<ele>458.2</ele>
<time>2024-05-07T12:40:29Z</time>
</trkpt>
<trkpt lat="49.07698058523238" lon="9.577483171597123">
<ele>458.2</ele>
<time>2024-05-07T12:40:30Z</time>
</trkpt>
<trkpt lat="49.07697672955692" lon="9.577436400577426">
<ele>458.2</ele>
<time>2024-05-07T12:40:31Z</time>
</trkpt>
<trkpt lat="49.07696910202503" lon="9.577391557395458">
<ele>458.4</ele>
<time>2024-05-07T12:40:32Z</time>
</trkpt>
<trkpt lat="49.076961474493146" lon="9.577344870194793">
<ele>458.4</ele>
<time>2024-05-07T12:40:33Z</time>
</trkpt>
<trkpt lat="49.076961474493146" lon="9.577298099175096">
<ele>458.4</ele>
<time>2024-05-07T12:40:34Z</time>
</trkpt>
<trkpt lat="49.07695770263672" lon="9.57725333981216">
<ele>458.4</ele>
<time>2024-05-07T12:40:35Z</time>
</trkpt>
<trkpt lat="49.0769499912858" lon="9.577206568792462">
<ele>458.4</ele>
<time>2024-05-07T12:40:36Z</time>
</trkpt>
<trkpt lat="49.076946219429374" lon="9.577159881591797">
<ele>458.6</ele>
<time>2024-05-07T12:40:37Z</time>
</trkpt>
<trkpt lat="49.07693859189749" lon="9.57711118273437">
<ele>458.6</ele>
<time>2024-05-07T12:40:38Z</time>
</trkpt>
<trkpt lat="49.07693473622203" lon="9.577066339552402">
<ele>458.6</ele>
<time>2024-05-07T12:40:39Z</time>
</trkpt>
<trkpt lat="49.0769309643656" lon="9.577021580189466">
<ele>458.6</ele>
<time>2024-05-07T12:40:40Z</time>
</trkpt>
<trkpt lat="49.076923336833715" lon="9.576978664845228">
<ele>458.6</ele>
<time>2024-05-07T12:40:41Z</time>
</trkpt>
<trkpt lat="49.07691570930183" lon="9.576938599348068">
<ele>458.8</ele>
<time>2024-05-07T12:40:42Z</time>
</trkpt>
<trkpt lat="49.07691185362637" lon="9.576900461688638">
<ele>458.8</ele>
<time>2024-05-07T12:40:43Z</time>
</trkpt>
<trkpt lat="49.07690808176994" lon="9.576863246038556">
<ele>458.8</ele>
<time>2024-05-07T12:40:44Z</time>
</trkpt>
<trkpt lat="49.07690808176994" lon="9.576827036216857">
<ele>458.8</ele>
<time>2024-05-07T12:40:45Z</time>
</trkpt>
<trkpt lat="49.07690422609448" lon="9.576791748404505">
<ele>458.8</ele>
<time>2024-05-07T12:40:46Z</time>
</trkpt>
<trkpt lat="49.07690045423806" lon="9.576751682907345">
<ele>458.8</ele>
<time>2024-05-07T12:40:47Z</time>
</trkpt>
<trkpt lat="49.0768965985626" lon="9.576713545247912">
<ele>458.8</ele>
<time>2024-05-07T12:40:48Z</time>
</trkpt>
<trkpt lat="49.07688897103071" lon="9.576669624075294">
<ele>458.8</ele>
<time>2024-05-07T12:40:49Z</time>
</trkpt>
<trkpt lat="49.076885199174285" lon="9.576626708731055">
<ele>458.8</ele>
<time>2024-05-07T12:40:50Z</time>
</trkpt>
<trkpt lat="49.076881343498826" lon="9.57658194936812">
<ele>458.8</ele>
<time>2024-05-07T12:40:51Z</time>
</trkpt>
<trkpt lat="49.0768775716424" lon="9.576535178348422">
<ele>458.8</ele>
<time>2024-05-07T12:40:52Z</time>
</trkpt>
<trkpt lat="49.0768775716424" lon="9.576486563310027">
<ele>458.6</ele>
<time>2024-05-07T12:40:53Z</time>
</trkpt>
<trkpt lat="49.07687371596694" lon="9.576437948271632">
<ele>458.6</ele>
<time>2024-05-07T12:40:54Z</time>
</trkpt>
<trkpt lat="49.076866088435054" lon="9.576388327404857">
<ele>458.6</ele>
<time>2024-05-07T12:40:55Z</time>
</trkpt>
<trkpt lat="49.07686231657863" lon="9.576339712366462">
<ele>458.6</ele>
<time>2024-05-07T12:40:56Z</time>
</trkpt>
<trkpt lat="49.07685846090317" lon="9.576290091499686">
<ele>458.6</ele>
<time>2024-05-07T12:40:57Z</time>
</trkpt>
<trkpt lat="49.07685846090317" lon="9.576238626614211">
<ele>458.8</ele>
<time>2024-05-07T12:40:58Z</time>
</trkpt>
<trkpt lat="49.07685468904674" lon="9.576188083738089">
<ele>458.8</ele>
<time>2024-05-07T12:40:59Z</time>
</trkpt>
<trkpt lat="49.07685083337128" lon="9.576140390709044">
<ele>459</ele>
<time>2024-05-07T12:41:00Z</time>
</trkpt>
<trkpt lat="49.076843205839396" lon="9.576089847832918">
<ele>459</ele>
<time>2024-05-07T12:41:01Z</time>
</trkpt>
<trkpt lat="49.076843205839396" lon="9.576038299128411">
<ele>459.2</ele>
<time>2024-05-07T12:41:02Z</time>
</trkpt>
<trkpt lat="49.07683943398297" lon="9.57598490640521">
<ele>459.2</ele>
<time>2024-05-07T12:41:03Z</time>
</trkpt>
<trkpt lat="49.07683943398297" lon="9.575931513682008">
<ele>459.4</ele>
<time>2024-05-07T12:41:04Z</time>
</trkpt>
<trkpt lat="49.07683557830751" lon="9.575875271111729">
<ele>459.4</ele>
<time>2024-05-07T12:41:05Z</time>
</trkpt>
<trkpt lat="49.07683180645108" lon="9.575819950550796">
<ele>459.4</ele>
<time>2024-05-07T12:41:06Z</time>
</trkpt>
<trkpt lat="49.07682795077562" lon="9.575764629989862">
<ele>459.4</ele>
<time>2024-05-07T12:41:07Z</time>
</trkpt>
<trkpt lat="49.07682795077562" lon="9.57571023143828">
<ele>459.6</ele>
<time>2024-05-07T12:41:08Z</time>
</trkpt>
<trkpt lat="49.0768241789192" lon="9.575654910877349">
<ele>459.6</ele>
<time>2024-05-07T12:41:09Z</time>
</trkpt>
<trkpt lat="49.07682032324374" lon="9.575598668307066">
<ele>459.8</ele>
<time>2024-05-07T12:41:10Z</time>
</trkpt>
<trkpt lat="49.07681655138731" lon="9.575543347746134">
<ele>459.8</ele>
<time>2024-05-07T12:41:11Z</time>
</trkpt>
<trkpt lat="49.07681655138731" lon="9.575489955022933">
<ele>460</ele>
<time>2024-05-07T12:41:12Z</time>
</trkpt>
<trkpt lat="49.07681269571185" lon="9.575438490137458">
<ele>460.2</ele>
<time>2024-05-07T12:41:13Z</time>
</trkpt>
<trkpt lat="49.07681269571185" lon="9.575386941432953">
<ele>460.4</ele>
<time>2024-05-07T12:41:14Z</time>
</trkpt>
<trkpt lat="49.076808923855424" lon="9.5753344707191">
<ele>460.8</ele>
<time>2024-05-07T12:41:15Z</time>
</trkpt>
<trkpt lat="49.076805068179965" lon="9.575284933671355">
<ele>461</ele>
<time>2024-05-07T12:41:16Z</time>
</trkpt>
<trkpt lat="49.076805068179965" lon="9.57523631863296">
<ele>461.2</ele>
<time>2024-05-07T12:41:17Z</time>
</trkpt>
<trkpt lat="49.076805068179965" lon="9.575189547613263">
<ele>461.4</ele>
<time>2024-05-07T12:41:18Z</time>
</trkpt>
<trkpt lat="49.07680129632354" lon="9.575141854584215">
<ele>461.6</ele>
<time>2024-05-07T12:41:19Z</time>
</trkpt>
<trkpt lat="49.07680129632354" lon="9.575093239545822">
<ele>461.8</ele>
<time>2024-05-07T12:41:20Z</time>
</trkpt>
<trkpt lat="49.07679744064808" lon="9.575044624507427">
<ele>462</ele>
<time>2024-05-07T12:41:21Z</time>
</trkpt>
<trkpt lat="49.07679744064808" lon="9.57499785348773">
<ele>462</ele>
<time>2024-05-07T12:41:22Z</time>
</trkpt>
<trkpt lat="49.07679744064808" lon="9.574950160458684">
<ele>462.2</ele>
<time>2024-05-07T12:41:23Z</time>
</trkpt>
<trkpt lat="49.07679366879165" lon="9.57489961758256">
<ele>462.4</ele>
<time>2024-05-07T12:41:24Z</time>
</trkpt>
<trkpt lat="49.07679366879165" lon="9.574851924553514">
<ele>462.6</ele>
<time>2024-05-07T12:41:25Z</time>
</trkpt>
<trkpt lat="49.07679366879165" lon="9.57480045966804">
<ele>462.8</ele>
<time>2024-05-07T12:41:26Z</time>
</trkpt>
<trkpt lat="49.07678981311619" lon="9.574747988954186">
<ele>463</ele>
<time>2024-05-07T12:41:27Z</time>
</trkpt>
<trkpt lat="49.076786041259766" lon="9.574696524068711">
<ele>463.2</ele>
<time>2024-05-07T12:41:28Z</time>
</trkpt>
<trkpt lat="49.07678218558431" lon="9.574647825211288">
<ele>463.6</ele>
<time>2024-05-07T12:41:29Z</time>
</trkpt>
<trkpt lat="49.07678218558431" lon="9.574600216001272">
<ele>463.8</ele>
<time>2024-05-07T12:41:30Z</time>
</trkpt>
<trkpt lat="49.07678218558431" lon="9.574549673125148">
<ele>464</ele>
<time>2024-05-07T12:41:31Z</time>
</trkpt>
<trkpt lat="49.07677832990885" lon="9.574501980096102">
<ele>464.2</ele>
<time>2024-05-07T12:41:32Z</time>
</trkpt>
<trkpt lat="49.07677455805242" lon="9.574448503553867">
<ele>464.4</ele>
<time>2024-05-07T12:41:33Z</time>
</trkpt>
<trkpt lat="49.07677070237696" lon="9.574397960677745">
<ele>464.4</ele>
<time>2024-05-07T12:41:34Z</time>
</trkpt>
<trkpt lat="49.076766930520535" lon="9.57434842363">
<ele>464.6</ele>
<time>2024-05-07T12:41:35Z</time>
</trkpt>
<trkpt lat="49.07676307484507" lon="9.574299808591604">
<ele>464.8</ele>
<time>2024-05-07T12:41:36Z</time>
</trkpt>
<trkpt lat="49.07675930298865" lon="9.574250187724829">
<ele>465</ele>
<time>2024-05-07T12:41:37Z</time>
</trkpt>
<trkpt lat="49.07676307484507" lon="9.574203416705132">
<ele>465.2</ele>
<time>2024-05-07T12:41:38Z</time>
</trkpt>
<trkpt lat="49.07675930298865" lon="9.574152873829007">
<ele>465.2</ele>
<time>2024-05-07T12:41:39Z</time>
</trkpt>
<trkpt lat="49.07675544731319" lon="9.574103336781263">
<ele>465.4</ele>
<time>2024-05-07T12:41:40Z</time>
</trkpt>
<trkpt lat="49.07675167545676" lon="9.574051788076758">
<ele>465.4</ele>
<time>2024-05-07T12:41:41Z</time>
</trkpt>
<trkpt lat="49.0767478197813" lon="9.573996467515826">
<ele>465.6</ele>
<time>2024-05-07T12:41:42Z</time>
</trkpt>
<trkpt lat="49.0767478197813" lon="9.573943074792624">
<ele>465.6</ele>
<time>2024-05-07T12:41:43Z</time>
</trkpt>
<trkpt lat="49.0767478197813" lon="9.573888760060072">
<ele>465.6</ele>
<time>2024-05-07T12:41:44Z</time>
</trkpt>
<trkpt lat="49.07674404792488" lon="9.573836289346218">
<ele>465.8</ele>
<time>2024-05-07T12:41:45Z</time>
</trkpt>
<trkpt lat="49.07674019224942" lon="9.573781890794637">
<ele>465.8</ele>
<time>2024-05-07T12:41:46Z</time>
</trkpt>
<trkpt lat="49.07673642039299" lon="9.573724726215003">
<ele>465.6</ele>
<time>2024-05-07T12:41:47Z</time>
</trkpt>
<trkpt lat="49.07673642039299" lon="9.573668399825692">
<ele>465.6</ele>
<time>2024-05-07T12:41:48Z</time>
</trkpt>
<trkpt lat="49.07673642039299" lon="9.573613163083792">
<ele>465.6</ele>
<time>2024-05-07T12:41:49Z</time>
</trkpt>
<trkpt lat="49.07673642039299" lon="9.573558764532208">
<ele>465.8</ele>
<time>2024-05-07T12:41:50Z</time>
</trkpt>
<trkpt lat="49.07673642039299" lon="9.573503443971276">
<ele>465.8</ele>
<time>2024-05-07T12:41:51Z</time>
</trkpt>
<trkpt lat="49.07673642039299" lon="9.573448123410344">
<ele>466</ele>
<time>2024-05-07T12:41:52Z</time>
</trkpt>
<trkpt lat="49.07673256471753" lon="9.573389953002334">
<ele>466.2</ele>
<time>2024-05-07T12:41:53Z</time>
</trkpt>
<trkpt lat="49.07673256471753" lon="9.573329854756594">
<ele>466.2</ele>
<time>2024-05-07T12:41:54Z</time>
</trkpt>
<trkpt lat="49.07673256471753" lon="9.573271684348583">
<ele>466.4</ele>
<time>2024-05-07T12:41:55Z</time>
</trkpt>
<trkpt lat="49.076728792861104" lon="9.573211669921877">
<ele>466.4</ele>
<time>2024-05-07T12:41:56Z</time>
</trkpt>
<trkpt lat="49.076724937185645" lon="9.573153415694833">
<ele>466.6</ele>
<time>2024-05-07T12:41:57Z</time>
</trkpt>
<trkpt lat="49.076724937185645" lon="9.573098178952932">
<ele>466.6</ele>
<time>2024-05-07T12:41:58Z</time>
</trkpt>
<trkpt lat="49.076724937185645" lon="9.573044702410698">
<ele>466.6</ele>
<time>2024-05-07T12:41:59Z</time>
</trkpt>
<trkpt lat="49.076724937185645" lon="9.572991309687495">
<ele>466.8</ele>
<time>2024-05-07T12:42:00Z</time>
</trkpt>
<trkpt lat="49.076724937185645" lon="9.572939844802022">
<ele>467</ele>
<time>2024-05-07T12:42:01Z</time>
</trkpt>
<trkpt lat="49.076724937185645" lon="9.572888296097515">
<ele>467</ele>
<time>2024-05-07T12:42:02Z</time>
</trkpt>
<trkpt lat="49.076728792861104" lon="9.572834903374314">
<ele>467.2</ele>
<time>2024-05-07T12:42:03Z</time>
</trkpt>
<trkpt lat="49.076728792861104" lon="9.572778660804032">
<ele>467.4</ele>
<time>2024-05-07T12:42:04Z</time>
</trkpt>
<trkpt lat="49.076728792861104" lon="9.572721412405372">
<ele>467.6</ele>
<time>2024-05-07T12:42:05Z</time>
</trkpt>
<trkpt lat="49.07673256471753" lon="9.57266516983509">
<ele>467.6</ele>
<time>2024-05-07T12:42:06Z</time>
</trkpt>
<trkpt lat="49.07673256471753" lon="9.57260699942708">
<ele>467.6</ele>
<time>2024-05-07T12:42:07Z</time>
</trkpt>
<trkpt lat="49.07673256471753" lon="9.572551678866148">
<ele>467.8</ele>
<time>2024-05-07T12:42:08Z</time>
</trkpt>
<trkpt lat="49.076724937185645" lon="9.572491580620408">
<ele>467.8</ele>
<time>2024-05-07T12:42:09Z</time>
</trkpt>
<trkpt lat="49.076724937185645" lon="9.572431482374668">
<ele>467.8</ele>
<time>2024-05-07T12:42:10Z</time>
</trkpt>
<trkpt lat="49.07672116532922" lon="9.572378089651464">
<ele>468</ele>
<time>2024-05-07T12:42:11Z</time>
</trkpt>
<trkpt lat="49.07672116532922" lon="9.572322769090531">
<ele>468</ele>
<time>2024-05-07T12:42:12Z</time>
</trkpt>
<trkpt lat="49.07672116532922" lon="9.572266526520252">
<ele>468</ele>
<time>2024-05-07T12:42:13Z</time>
</trkpt>
<trkpt lat="49.076724937185645" lon="9.572208356112242">
<ele>468.2</ele>
<time>2024-05-07T12:42:14Z</time>
</trkpt>
<trkpt lat="49.076724937185645" lon="9.572146413847804">
<ele>468.2</ele>
<time>2024-05-07T12:42:15Z</time>
</trkpt>
<trkpt lat="49.076724937185645" lon="9.572085309773684">
<ele>468.2</ele>
<time>2024-05-07T12:42:16Z</time>
</trkpt>
<trkpt lat="49.076728792861104" lon="9.572025295346975">
<ele>468.4</ele>
<time>2024-05-07T12:42:17Z</time>
</trkpt>
<trkpt lat="49.076728792861104" lon="9.571963269263506">
<ele>468.4</ele>
<time>2024-05-07T12:42:18Z</time>
</trkpt>
<trkpt lat="49.076728792861104" lon="9.571903171017766">
<ele>468.4</ele>
<time>2024-05-07T12:42:19Z</time>
</trkpt>
<trkpt lat="49.076724937185645" lon="9.57183837890625">
<ele>468.4</ele>
<time>2024-05-07T12:42:20Z</time>
</trkpt>
<trkpt lat="49.076724937185645" lon="9.57177828066051">
<ele>468.6</ele>
<time>2024-05-07T12:42:21Z</time>
</trkpt>
<trkpt lat="49.076728792861104" lon="9.571715332567692">
<ele>468.6</ele>
<time>2024-05-07T12:42:22Z</time>
</trkpt>
<trkpt lat="49.076724937185645" lon="9.571653306484222">
<ele>468.6</ele>
<time>2024-05-07T12:42:23Z</time>
</trkpt>
<trkpt lat="49.076724937185645" lon="9.57159706391394">
<ele>468.6</ele>
<time>2024-05-07T12:42:24Z</time>
</trkpt>
<trkpt lat="49.07672116532922" lon="9.5715369656682">
<ele>468.6</ele>
<time>2024-05-07T12:42:25Z</time>
</trkpt>
<trkpt lat="49.07671730965376" lon="9.571475023403764">
<ele>468.6</ele>
<time>2024-05-07T12:42:26Z</time>
</trkpt>
<trkpt lat="49.07670968212187" lon="9.571416852995752">
<ele>468.6</ele>
<time>2024-05-07T12:42:27Z</time>
</trkpt>
<trkpt lat="49.07670205458999" lon="9.571354826912284">
<ele>468.6</ele>
<time>2024-05-07T12:42:28Z</time>
</trkpt>
<trkpt lat="49.07670205458999" lon="9.571289950981736">
<ele>468.6</ele>
<time>2024-05-07T12:42:29Z</time>
</trkpt>
<trkpt lat="49.07669828273356" lon="9.571227002888918">
<ele>468.6</ele>
<time>2024-05-07T12:42:30Z</time>
</trkpt>
<trkpt lat="49.0766944270581" lon="9.57116698846221">
<ele>468.6</ele>
<time>2024-05-07T12:42:31Z</time>
</trkpt>
<trkpt lat="49.076686799526215" lon="9.57110496237874">
<ele>468.6</ele>
<time>2024-05-07T12:42:32Z</time>
</trkpt>
<trkpt lat="49.07668302766979" lon="9.571042936295273">
<ele>468.6</ele>
<time>2024-05-07T12:42:33Z</time>
</trkpt>
<trkpt lat="49.0766754001379" lon="9.57098476588726">
<ele>468.6</ele>
<time>2024-05-07T12:42:34Z</time>
</trkpt>
<trkpt lat="49.07667154446244" lon="9.570924751460552">
<ele>468.6</ele>
<time>2024-05-07T12:42:35Z</time>
</trkpt>
<trkpt lat="49.07667154446244" lon="9.570863647386432">
<ele>468.6</ele>
<time>2024-05-07T12:42:36Z</time>
</trkpt>
<trkpt lat="49.076667772606015" lon="9.570801705121994">
<ele>468.8</ele>
<time>2024-05-07T12:42:37Z</time>
</trkpt>
<trkpt lat="49.07666391693056" lon="9.570741606876254">
<ele>468.8</ele>
<time>2024-05-07T12:42:38Z</time>
</trkpt>
<trkpt lat="49.07666014507413" lon="9.570679664611816">
<ele>469</ele>
<time>2024-05-07T12:42:39Z</time>
</trkpt>
<trkpt lat="49.07666014507413" lon="9.570619566366076">
<ele>469.2</ele>
<time>2024-05-07T12:42:40Z</time>
</trkpt>
<trkpt lat="49.07665628939867" lon="9.570558546110988">
<ele>469.2</ele>
<time>2024-05-07T12:42:41Z</time>
</trkpt>
<trkpt lat="49.07665628939867" lon="9.570498447865248">
<ele>469.4</ele>
<time>2024-05-07T12:42:42Z</time>
</trkpt>
<trkpt lat="49.07665628939867" lon="9.570446899160745">
<ele>469.6</ele>
<time>2024-05-07T12:42:43Z</time>
</trkpt>
<trkpt lat="49.07665251754224" lon="9.57039157859981">
<ele>469.8</ele>
<time>2024-05-07T12:42:44Z</time>
</trkpt>
<trkpt lat="49.076648661866784" lon="9.57033533602953">
<ele>470</ele>
<time>2024-05-07T12:42:45Z</time>
</trkpt>
<trkpt lat="49.07664489001036" lon="9.57027624361217">
<ele>470</ele>
<time>2024-05-07T12:42:46Z</time>
</trkpt>
<trkpt lat="49.07664489001036" lon="9.57021706737578">
<ele>470.2</ele>
<time>2024-05-07T12:42:47Z</time>
</trkpt>
<trkpt lat="49.07664489001036" lon="9.57015512511134">
<ele>470.4</ele>
<time>2024-05-07T12:42:48Z</time>
</trkpt>
<trkpt lat="49.0766410343349" lon="9.570093099027872">
<ele>470.6</ele>
<time>2024-05-07T12:42:49Z</time>
</trkpt>
<trkpt lat="49.07663726247847" lon="9.570033000782132">
<ele>470.8</ele>
<time>2024-05-07T12:42:50Z</time>
</trkpt>
<trkpt lat="49.07663340680301" lon="9.569970052689314">
<ele>471</ele>
<time>2024-05-07T12:42:51Z</time>
</trkpt>
<trkpt lat="49.076629634946585" lon="9.569911882281303">
<ele>471.2</ele>
<time>2024-05-07T12:42:52Z</time>
</trkpt>
<trkpt lat="49.076625779271126" lon="9.569854717701674">
<ele>471.4</ele>
<time>2024-05-07T12:42:53Z</time>
</trkpt>
<trkpt lat="49.0766220074147" lon="9.569794619455934">
<ele>471.6</ele>
<time>2024-05-07T12:42:54Z</time>
</trkpt>
<trkpt lat="49.07661815173924" lon="9.569738376885653">
<ele>471.8</ele>
<time>2024-05-07T12:42:55Z</time>
</trkpt>
<trkpt lat="49.07661437988281" lon="9.569678278639913">
<ele>471.8</ele>
<time>2024-05-07T12:42:56Z</time>
</trkpt>
<trkpt lat="49.076610524207354" lon="9.569616252556443">
<ele>472</ele>
<time>2024-05-07T12:42:57Z</time>
</trkpt>
<trkpt lat="49.076606668531895" lon="9.569555232301354">
<ele>472</ele>
<time>2024-05-07T12:42:58Z</time>
</trkpt>
<trkpt lat="49.07660289667547" lon="9.569490356370808">
<ele>472.2</ele>
<time>2024-05-07T12:42:59Z</time>
</trkpt>
<trkpt lat="49.07659904100001" lon="9.569430341944098">
<ele>472.2</ele>
<time>2024-05-07T12:43:00Z</time>
</trkpt>
<trkpt lat="49.07659526914358" lon="9.56937024369836">
<ele>472.4</ele>
<time>2024-05-07T12:43:01Z</time>
</trkpt>
<trkpt lat="49.07659141346812" lon="9.56930821761489">
<ele>472.4</ele>
<time>2024-05-07T12:43:02Z</time>
</trkpt>
<trkpt lat="49.076587641611695" lon="9.569246275350451">
<ele>472.6</ele>
<time>2024-05-07T12:43:03Z</time>
</trkpt>
<trkpt lat="49.07658378593624" lon="9.56918709911406">
<ele>472.8</ele>
<time>2024-05-07T12:43:04Z</time>
</trkpt>
<trkpt lat="49.07658001407981" lon="9.569125156849625">
<ele>473</ele>
<time>2024-05-07T12:43:05Z</time>
</trkpt>
<trkpt lat="49.07658001407981" lon="9.569065058603885">
<ele>473</ele>
<time>2024-05-07T12:43:06Z</time>
</trkpt>
<trkpt lat="49.07657238654792" lon="9.569004960358145">
<ele>473</ele>
<time>2024-05-07T12:43:07Z</time>
</trkpt>
<trkpt lat="49.076568530872464" lon="9.568946789950132">
<ele>473</ele>
<time>2024-05-07T12:43:08Z</time>
</trkpt>
<trkpt lat="49.07656475901604" lon="9.568886691704392">
<ele>473</ele>
<time>2024-05-07T12:43:09Z</time>
</trkpt>
<trkpt lat="49.07656090334058" lon="9.568822821602224">
<ele>473</ele>
<time>2024-05-07T12:43:10Z</time>
</trkpt>
<trkpt lat="49.07655713148415" lon="9.568759873509409">
<ele>473</ele>
<time>2024-05-07T12:43:11Z</time>
</trkpt>
<trkpt lat="49.07655327580869" lon="9.568696925416589">
<ele>473</ele>
<time>2024-05-07T12:43:12Z</time>
</trkpt>
<trkpt lat="49.076549503952265" lon="9.56863204948604">
<ele>473</ele>
<time>2024-05-07T12:43:13Z</time>
</trkpt>
<trkpt lat="49.076545648276806" lon="9.568568179383874">
<ele>473.2</ele>
<time>2024-05-07T12:43:14Z</time>
</trkpt>
<trkpt lat="49.07654187642038" lon="9.568501459434628">
<ele>473.2</ele>
<time>2024-05-07T12:43:15Z</time>
</trkpt>
<trkpt lat="49.07653424888849" lon="9.56843658350408">
<ele>473</ele>
<time>2024-05-07T12:43:16Z</time>
</trkpt>
<trkpt lat="49.07652662135661" lon="9.568369863554835">
<ele>473</ele>
<time>2024-05-07T12:43:17Z</time>
</trkpt>
<trkpt lat="49.07652662135661" lon="9.568304987624288">
<ele>473</ele>
<time>2024-05-07T12:43:18Z</time>
</trkpt>
<trkpt lat="49.07651899382472" lon="9.56824203953147">
<ele>472.8</ele>
<time>2024-05-07T12:43:19Z</time>
</trkpt>
<trkpt lat="49.07651513814926" lon="9.568176241591573">
<ele>472.8</ele>
<time>2024-05-07T12:43:20Z</time>
</trkpt>
<trkpt lat="49.07651513814926" lon="9.568113293498756">
<ele>472.6</ele>
<time>2024-05-07T12:43:21Z</time>
</trkpt>
<trkpt lat="49.076511366292834" lon="9.568050345405936">
<ele>472.6</ele>
<time>2024-05-07T12:43:22Z</time>
</trkpt>
<trkpt lat="49.076507510617375" lon="9.567988319322469">
<ele>472.6</ele>
<time>2024-05-07T12:43:23Z</time>
</trkpt>
<trkpt lat="49.07650373876095" lon="9.567930148914456">
<ele>472.4</ele>
<time>2024-05-07T12:43:24Z</time>
</trkpt>
<trkpt lat="49.07649988308549" lon="9.567870134487748">
<ele>472.4</ele>
<time>2024-05-07T12:43:25Z</time>
</trkpt>
<trkpt lat="49.07649988308549" lon="9.567811964079738">
<ele>472.4</ele>
<time>2024-05-07T12:43:26Z</time>
</trkpt>
<trkpt lat="49.07649611122906" lon="9.567754715681076">
<ele>472.4</ele>
<time>2024-05-07T12:43:27Z</time>
</trkpt>
<trkpt lat="49.0764922555536" lon="9.567694617435336">
<ele>472.4</ele>
<time>2024-05-07T12:43:28Z</time>
</trkpt>
<trkpt lat="49.076488483697176" lon="9.567631669342518">
<ele>472.2</ele>
<time>2024-05-07T12:43:29Z</time>
</trkpt>
<trkpt lat="49.076488483697176" lon="9.5675687212497">
<ele>472.2</ele>
<time>2024-05-07T12:43:30Z</time>
</trkpt>
<trkpt lat="49.07648462802172" lon="9.567502001300454">
<ele>472.2</ele>
<time>2024-05-07T12:43:31Z</time>
</trkpt>
<trkpt lat="49.07648085616529" lon="9.567438047379255">
<ele>472.2</ele>
<time>2024-05-07T12:43:32Z</time>
</trkpt>
<trkpt lat="49.07648085616529" lon="9.567378032952549">
<ele>472.2</ele>
<time>2024-05-07T12:43:33Z</time>
</trkpt>
<trkpt lat="49.07648085616529" lon="9.567319862544537">
<ele>472.2</ele>
<time>2024-05-07T12:43:34Z</time>
</trkpt>
<trkpt lat="49.07648085616529" lon="9.567259764298797">
<ele>472.2</ele>
<time>2024-05-07T12:43:35Z</time>
</trkpt>
<trkpt lat="49.07648085616529" lon="9.567201593890786">
<ele>472.2</ele>
<time>2024-05-07T12:43:36Z</time>
</trkpt>
<trkpt lat="49.07648462802172" lon="9.567146273329854">
<ele>472.2</ele>
<time>2024-05-07T12:43:37Z</time>
</trkpt>
<trkpt lat="49.076488483697176" lon="9.567105285823343">
<ele>472.2</ele>
<time>2024-05-07T12:43:38Z</time>
</trkpt>
<trkpt lat="49.07649611122906" lon="9.5670766197145">
<ele>472</ele>
<time>2024-05-07T12:43:39Z</time>
</trkpt>
<trkpt lat="49.07649988308549" lon="9.567049965262411">
<ele>471.8</ele>
<time>2024-05-07T12:43:40Z</time>
</trkpt>
<trkpt lat="49.076507510617375" lon="9.567028004676104">
<ele>471.8</ele>
<time>2024-05-07T12:43:41Z</time>
</trkpt>
<trkpt lat="49.07651513814926" lon="9.567007049918177">
<ele>471.6</ele>
<time>2024-05-07T12:43:42Z</time>
</trkpt>
<trkpt lat="49.076530393213034" lon="9.566981233656406">
<ele>471.6</ele>
<time>2024-05-07T12:43:43Z</time>
</trkpt>
<trkpt lat="49.076549503952265" lon="9.566943095996976">
<ele>471.4</ele>
<time>2024-05-07T12:43:44Z</time>
</trkpt>
<trkpt lat="49.07656475901604" lon="9.56689640879631">
<ele>471.2</ele>
<time>2024-05-07T12:43:45Z</time>
</trkpt>
<trkpt lat="49.07658001407981" lon="9.56684016622603">
<ele>471.2</ele>
<time>2024-05-07T12:43:46Z</time>
</trkpt>
<trkpt lat="49.07659526914358" lon="9.56678006798029">
<ele>471.2</ele>
<time>2024-05-07T12:43:47Z</time>
</trkpt>
<trkpt lat="49.076606668531895" lon="9.566709492355583">
<ele>471</ele>
<time>2024-05-07T12:43:48Z</time>
</trkpt>
<trkpt lat="49.07661437988281" lon="9.566636988893151">
<ele>471</ele>
<time>2024-05-07T12:43:49Z</time>
</trkpt>
<trkpt lat="49.0766220074147" lon="9.566564485430716">
<ele>471</ele>
<time>2024-05-07T12:43:50Z</time>
</trkpt>
<trkpt lat="49.076629634946585" lon="9.566486282274129">
<ele>471</ele>
<time>2024-05-07T12:43:51Z</time>
</trkpt>
<trkpt lat="49.07663726247847" lon="9.566405229270458">
<ele>470.8</ele>
<time>2024-05-07T12:43:52Z</time>
</trkpt>
<trkpt lat="49.07664489001036" lon="9.566321326419711">
<ele>470.8</ele>
<time>2024-05-07T12:43:53Z</time>
</trkpt>
<trkpt lat="49.07665628939867" lon="9.566240273416042">
<ele>470.6</ele>
<time>2024-05-07T12:43:54Z</time>
</trkpt>
<trkpt lat="49.076667772606015" lon="9.566158214583991">
<ele>470.6</ele>
<time>2024-05-07T12:43:55Z</time>
</trkpt>
<trkpt lat="49.07668302766979" lon="9.566082945093513">
<ele>470.4</ele>
<time>2024-05-07T12:43:56Z</time>
</trkpt>
<trkpt lat="49.0766944270581" lon="9.56600658595562">
<ele>470.2</ele>
<time>2024-05-07T12:43:57Z</time>
</trkpt>
<trkpt lat="49.076705910265446" lon="9.565935088321568">
<ele>470</ele>
<time>2024-05-07T12:43:58Z</time>
</trkpt>
<trkpt lat="49.07671353779733" lon="9.565866440534592">
<ele>469.8</ele>
<time>2024-05-07T12:43:59Z</time>
</trkpt>
<trkpt lat="49.07672116532922" lon="9.565794942900538">
<ele>469.6</ele>
<time>2024-05-07T12:44:00Z</time>
</trkpt>
<trkpt lat="49.076728792861104" lon="9.565725289285185">
<ele>469.4</ele>
<time>2024-05-07T12:44:01Z</time>
</trkpt>
<trkpt lat="49.07673642039299" lon="9.56565471366048">
<ele>469.2</ele>
<time>2024-05-07T12:44:02Z</time>
</trkpt>
<trkpt lat="49.07674404792488" lon="9.565586987882853">
<ele>468.8</ele>
<time>2024-05-07T12:44:03Z</time>
</trkpt>
<trkpt lat="49.07675167545676" lon="9.565518340095878">
<ele>468.6</ele>
<time>2024-05-07T12:44:04Z</time>
</trkpt>
<trkpt lat="49.07676307484507" lon="9.565446842461824">
<ele>468.4</ele>
<time>2024-05-07T12:44:05Z</time>
</trkpt>
<trkpt lat="49.07677455805242" lon="9.56537526100874">
<ele>468.2</ele>
<time>2024-05-07T12:44:06Z</time>
</trkpt>
<trkpt lat="49.07678218558431" lon="9.565301835536957">
<ele>468.2</ele>
<time>2024-05-07T12:44:07Z</time>
</trkpt>
<trkpt lat="49.07679366879165" lon="9.565226482227445">
<ele>468</ele>
<time>2024-05-07T12:44:08Z</time>
</trkpt>
<trkpt lat="49.076805068179965" lon="9.565148279070854">
<ele>467.8</ele>
<time>2024-05-07T12:44:09Z</time>
</trkpt>
<trkpt lat="49.0768241789192" lon="9.565074853599072">
<ele>467.6</ele>
<time>2024-05-07T12:44:10Z</time>
</trkpt>
<trkpt lat="49.07685083337128" lon="9.565010061487556">
<ele>467</ele>
<time>2024-05-07T12:44:11Z</time>
</trkpt>
<trkpt lat="49.076885199174285" lon="9.564952813088894">
<ele>466.8</ele>
<time>2024-05-07T12:44:12Z</time>
</trkpt>
<trkpt lat="49.076923336833715" lon="9.56489841453731">
<ele>466.4</ele>
<time>2024-05-07T12:44:13Z</time>
</trkpt>
<trkpt lat="49.076961474493146" lon="9.564845021814108">
<ele>466.2</ele>
<time>2024-05-07T12:44:14Z</time>
</trkpt>
<trkpt lat="49.077003467828035" lon="9.564788779243829">
<ele>465.8</ele>
<time>2024-05-07T12:44:15Z</time>
</trkpt>
<trkpt lat="49.077041605487466" lon="9.564729686826468">
<ele>465.6</ele>
<time>2024-05-07T12:44:16Z</time>
</trkpt>
<trkpt lat="49.07708351500333" lon="9.564669588580728">
<ele>465.4</ele>
<time>2024-05-07T12:44:17Z</time>
</trkpt>
<trkpt lat="49.07712550833821" lon="9.56460856832564">
<ele>465.2</ele>
<time>2024-05-07T12:44:18Z</time>
</trkpt>
<trkpt lat="49.0771675016731" lon="9.5645484700799">
<ele>465</ele>
<time>2024-05-07T12:44:19Z</time>
</trkpt>
<trkpt lat="49.07720941118896" lon="9.564493149518968">
<ele>465</ele>
<time>2024-05-07T12:44:20Z</time>
</trkpt>
<trkpt lat="49.07724754884839" lon="9.564439756795764">
<ele>464.8</ele>
<time>2024-05-07T12:44:21Z</time>
</trkpt>
<trkpt lat="49.07728568650782" lon="9.564383430406451">
<ele>464.8</ele>
<time>2024-05-07T12:44:22Z</time>
</trkpt>
<trkpt lat="49.07732390798628" lon="9.564331965520978">
<ele>464.8</ele>
<time>2024-05-07T12:44:23Z</time>
</trkpt>
<trkpt lat="49.07736581750214" lon="9.564281422644854">
<ele>464.6</ele>
<time>2024-05-07T12:44:24Z</time>
</trkpt>
<trkpt lat="49.07740395516157" lon="9.564233729615808">
<ele>464.6</ele>
<time>2024-05-07T12:44:25Z</time>
</trkpt>
<trkpt lat="49.07744594849646" lon="9.564191736280918">
<ele>464.6</ele>
<time>2024-05-07T12:44:26Z</time>
</trkpt>
<trkpt lat="49.07748408615589" lon="9.564147898927333">
<ele>464.4</ele>
<time>2024-05-07T12:44:27Z</time>
</trkpt>
<trkpt lat="49.07752222381532" lon="9.564104983583093">
<ele>464.4</ele>
<time>2024-05-07T12:44:28Z</time>
</trkpt>
<trkpt lat="49.077556589618325" lon="9.564060140401123">
<ele>464.2</ele>
<time>2024-05-07T12:44:29Z</time>
</trkpt>
<trkpt lat="49.07759472727776" lon="9.564015381038187">
<ele>464.2</ele>
<time>2024-05-07T12:44:30Z</time>
</trkpt>
<trkpt lat="49.077632864937186" lon="9.56396953202784">
<ele>464.2</ele>
<time>2024-05-07T12:44:31Z</time>
</trkpt>
<trkpt lat="49.07766723074019" lon="9.563924772664905">
<ele>464.2</ele>
<time>2024-05-07T12:44:32Z</time>
</trkpt>
<trkpt lat="49.07770151272416" lon="9.56387707963586">
<ele>464.2</ele>
<time>2024-05-07T12:44:33Z</time>
</trkpt>
<trkpt lat="49.07773965038359" lon="9.56383315846324">
<ele>464.2</ele>
<time>2024-05-07T12:44:34Z</time>
</trkpt>
<trkpt lat="49.077774016186595" lon="9.563788399100304">
<ele>464.2</ele>
<time>2024-05-07T12:44:35Z</time>
</trkpt>
<trkpt lat="49.07780829817057" lon="9.563743555918336">
<ele>464.2</ele>
<time>2024-05-07T12:44:36Z</time>
</trkpt>
<trkpt lat="49.07783503644168" lon="9.563693013042212">
<ele>464.4</ele>
<time>2024-05-07T12:44:37Z</time>
</trkpt>
<trkpt lat="49.077850291505456" lon="9.563638614490628">
<ele>464.6</ele>
<time>2024-05-07T12:44:38Z</time>
</trkpt>
<trkpt lat="49.0778617747128" lon="9.56357860006392">
<ele>464.6</ele>
<time>2024-05-07T12:44:39Z</time>
</trkpt>
<trkpt lat="49.07786554656923" lon="9.56351657398045">
<ele>464.8</ele>
<time>2024-05-07T12:44:40Z</time>
</trkpt>
<trkpt lat="49.07786554656923" lon="9.563453625887632">
<ele>465</ele>
<time>2024-05-07T12:44:41Z</time>
</trkpt>
<trkpt lat="49.07786554656923" lon="9.563394533470271">
<ele>465</ele>
<time>2024-05-07T12:44:42Z</time>
</trkpt>
<trkpt lat="49.07786554656923" lon="9.56334013491869">
<ele>465</ele>
<time>2024-05-07T12:44:43Z</time>
</trkpt>
<trkpt lat="49.0778617747128" lon="9.563288670033216">
<ele>465</ele>
<time>2024-05-07T12:44:44Z</time>
</trkpt>
<trkpt lat="49.07786940224469" lon="9.56323997117579">
<ele>465</ele>
<time>2024-05-07T12:44:45Z</time>
</trkpt>
<trkpt lat="49.077873174101114" lon="9.563196133822204">
<ele>465</ele>
<time>2024-05-07T12:44:46Z</time>
</trkpt>
<trkpt lat="49.07788842916489" lon="9.563171323388817">
<ele>465</ele>
<time>2024-05-07T12:44:47Z</time>
</trkpt>
<trkpt lat="49.07789991237223" lon="9.56316470168531">
<ele>465</ele>
<time>2024-05-07T12:44:48Z</time>
</trkpt>
<trkpt lat="49.07789991237223" lon="9.5631617680192">
<ele>465</ele>
<time>2024-05-07T12:44:49Z</time>
</trkpt>
<trkpt lat="49.07790368422866" lon="9.563159924000502">
<ele>465</ele>
<time>2024-05-07T12:44:50Z</time>
</trkpt>
<trkpt lat="49.07790368422866" lon="9.563157996162772">
<ele>465</ele>
<time>2024-05-07T12:44:51Z</time>
</trkpt>
<trkpt lat="49.07790753990412" lon="9.563157996162772">
<ele>465</ele>
<time>2024-05-07T12:44:53Z</time>
</trkpt>
<trkpt lat="49.07790753990412" lon="9.563157074153423">
<ele>465</ele>
<time>2024-05-07T12:44:54Z</time>
</trkpt>
<trkpt lat="49.077911311760545" lon="9.563157074153423">
<ele>465</ele>
<time>2024-05-07T12:44:59Z</time>
</trkpt>
<trkpt lat="49.077911311760545" lon="9.563157996162772">
<ele>465</ele>
<time>2024-05-07T12:45:05Z</time>
</trkpt>
<trkpt lat="49.077915167436" lon="9.563157996162772">
<ele>465</ele>
<time>2024-05-07T12:45:08Z</time>
</trkpt>
<trkpt lat="49.077915167436" lon="9.563157074153423">
<ele>465</ele>
<time>2024-05-07T12:45:13Z</time>
</trkpt>
<trkpt lat="49.077915167436" lon="9.563155146315694">
<ele>465</ele>
<time>2024-05-07T12:45:20Z</time>
</trkpt>
<trkpt lat="49.077915167436" lon="9.563153218477964">
<ele>465</ele>
<time>2024-05-07T12:45:40Z</time>
</trkpt>
<trkpt lat="49.077915167436" lon="9.563155146315694">
<ele>464.8</ele>
<time>2024-05-07T12:45:42Z</time>
</trkpt>
<trkpt lat="49.077915167436" lon="9.563153218477964">
<ele>464.8</ele>
<time>2024-05-07T12:45:56Z</time>
</trkpt>
<trkpt lat="49.077915167436" lon="9.563143663108349">
<ele>464.8</ele>
<time>2024-05-07T12:45:59Z</time>
</trkpt>
<trkpt lat="49.077915167436" lon="9.563133185729384">
<ele>464.6</ele>
<time>2024-05-07T12:46:00Z</time>
</trkpt>
<trkpt lat="49.077911311760545" lon="9.563130335882306">
<ele>464.4</ele>
<time>2024-05-07T12:46:01Z</time>
</trkpt>
<trkpt lat="49.07790753990412" lon="9.56312463618815">
<ele>464.4</ele>
<time>2024-05-07T12:46:02Z</time>
</trkpt>
<trkpt lat="49.077892284840345" lon="9.56312656402588">
<ele>464.2</ele>
<time>2024-05-07T12:46:03Z</time>
</trkpt>
<trkpt lat="49.07788842916489" lon="9.563131257891657">
<ele>464</ele>
<time>2024-05-07T12:46:04Z</time>
</trkpt>
<trkpt lat="49.07788842916489" lon="9.563130335882306">
<ele>463.8</ele>
<time>2024-05-07T12:46:05Z</time>
</trkpt>
<trkpt lat="49.07788842916489" lon="9.563131257891657">
<ele>463.8</ele>
<time>2024-05-07T12:46:07Z</time>
</trkpt>
<trkpt lat="49.07788842916489" lon="9.563130335882306">
<ele>463.6</ele>
<time>2024-05-07T12:46:08Z</time>
</trkpt>
<trkpt lat="49.07788465730846" lon="9.563133185729384">
<ele>463.6</ele>
<time>2024-05-07T12:46:09Z</time>
</trkpt>
<trkpt lat="49.077880801633" lon="9.563131257891657">
<ele>463.6</ele>
<time>2024-05-07T12:46:11Z</time>
</trkpt>
<trkpt lat="49.07786940224469" lon="9.563143663108349">
<ele>463.6</ele>
<time>2024-05-07T12:46:12Z</time>
</trkpt>
<trkpt lat="49.077854147180915" lon="9.563157996162772">
<ele>463.6</ele>
<time>2024-05-07T12:46:13Z</time>
</trkpt>
<trkpt lat="49.07783889211714" lon="9.563171323388817">
<ele>463.6</ele>
<time>2024-05-07T12:46:14Z</time>
</trkpt>
<trkpt lat="49.07782363705337" lon="9.563186578452587">
<ele>463.6</ele>
<time>2024-05-07T12:46:15Z</time>
</trkpt>
<trkpt lat="49.07780829817057" lon="9.563198061659932">
<ele>463.4</ele>
<time>2024-05-07T12:46:16Z</time>
</trkpt>
<trkpt lat="49.07778927125037" lon="9.563213316723704">
<ele>463.4</ele>
<time>2024-05-07T12:46:17Z</time>
</trkpt>
<trkpt lat="49.077774016186595" lon="9.563231421634557">
<ele>463.4</ele>
<time>2024-05-07T12:46:18Z</time>
</trkpt>
<trkpt lat="49.07775490544736" lon="9.563253382220864">
<ele>463.2</ele>
<time>2024-05-07T12:46:19Z</time>
</trkpt>
<trkpt lat="49.077735878527164" lon="9.563273414969444">
<ele>463.2</ele>
<time>2024-05-07T12:46:20Z</time>
</trkpt>
<trkpt lat="49.07771676778793" lon="9.563293447718024">
<ele>463.2</ele>
<time>2024-05-07T12:46:21Z</time>
</trkpt>
<trkpt lat="49.077697740867734" lon="9.563311552628877">
<ele>463.2</ele>
<time>2024-05-07T12:46:22Z</time>
</trkpt>
<trkpt lat="49.0776786301285" lon="9.563326807692649">
<ele>463.2</ele>
<time>2024-05-07T12:46:23Z</time>
</trkpt>
<trkpt lat="49.077655747532845" lon="9.56333820708096">
<ele>463.2</ele>
<time>2024-05-07T12:46:24Z</time>
</trkpt>
<trkpt lat="49.07763663679361" lon="9.563351618126037">
<ele>463.2</ele>
<time>2024-05-07T12:46:25Z</time>
</trkpt>
<trkpt lat="49.077613754197955" lon="9.563364945352076">
<ele>463.4</ele>
<time>2024-05-07T12:46:26Z</time>
</trkpt>
<trkpt lat="49.0775908716023" lon="9.56338020041585">
<ele>463.4</ele>
<time>2024-05-07T12:46:27Z</time>
</trkpt>
<trkpt lat="49.07756798900664" lon="9.563393527641892">
<ele>463.4</ele>
<time>2024-05-07T12:46:28Z</time>
</trkpt>
<trkpt lat="49.07754510641098" lon="9.563405010849236">
<ele>463.6</ele>
<time>2024-05-07T12:46:29Z</time>
</trkpt>
<trkpt lat="49.07752607949078" lon="9.563413560390472">
<ele>463.6</ele>
<time>2024-05-07T12:46:30Z</time>
</trkpt>
<trkpt lat="49.07750696875155" lon="9.563423115760088">
<ele>463.8</ele>
<time>2024-05-07T12:46:31Z</time>
</trkpt>
<trkpt lat="49.07748408615589" lon="9.56343644298613">
<ele>463.8</ele>
<time>2024-05-07T12:46:32Z</time>
</trkpt>
<trkpt lat="49.07746497541666" lon="9.563445076346396">
<ele>464</ele>
<time>2024-05-07T12:46:33Z</time>
</trkpt>
<trkpt lat="49.077442092821" lon="9.563453625887632">
<ele>464</ele>
<time>2024-05-07T12:46:34Z</time>
</trkpt>
<trkpt lat="49.077419210225344" lon="9.563463181257248">
<ele>464</ele>
<time>2024-05-07T12:46:35Z</time>
</trkpt>
<trkpt lat="49.077400183305144" lon="9.56347843632102">
<ele>464.2</ele>
<time>2024-05-07T12:46:36Z</time>
</trkpt>
<trkpt lat="49.07738107256591" lon="9.563487991690636">
<ele>464.2</ele>
<time>2024-05-07T12:46:37Z</time>
</trkpt>
<trkpt lat="49.077358189970255" lon="9.5634984690696">
<ele>464.2</ele>
<time>2024-05-07T12:46:38Z</time>
</trkpt>
<trkpt lat="49.077339163050056" lon="9.563507018610837">
<ele>464.4</ele>
<time>2024-05-07T12:46:39Z</time>
</trkpt>
<trkpt lat="49.077320052310824" lon="9.563509868457912">
<ele>464.4</ele>
<time>2024-05-07T12:46:40Z</time>
</trkpt>
<trkpt lat="49.077301025390625" lon="9.563513724133372">
<ele>464.4</ele>
<time>2024-05-07T12:46:41Z</time>
</trkpt>
<trkpt lat="49.077278058975935" lon="9.563523279502988">
<ele>464.6</ele>
<time>2024-05-07T12:46:42Z</time>
</trkpt>
<trkpt lat="49.07725140452385" lon="9.563533756881952">
<ele>464.8</ele>
<time>2024-05-07T12:46:43Z</time>
</trkpt>
<trkpt lat="49.07723229378462" lon="9.563541384413838">
<ele>464.8</ele>
<time>2024-05-07T12:46:44Z</time>
</trkpt>
<trkpt lat="49.07721326686442" lon="9.563547084107997">
<ele>464.8</ele>
<time>2024-05-07T12:46:45Z</time>
</trkpt>
<trkpt lat="49.0771865285933" lon="9.56355471163988">
<ele>464.8</ele>
<time>2024-05-07T12:46:46Z</time>
</trkpt>
<trkpt lat="49.0771675016731" lon="9.563565189018846">
<ele>464.8</ele>
<time>2024-05-07T12:46:47Z</time>
</trkpt>
<trkpt lat="49.077140763401985" lon="9.56357667222619">
<ele>464.8</ele>
<time>2024-05-07T12:46:48Z</time>
</trkpt>
<trkpt lat="49.07711402513087" lon="9.563585221767426">
<ele>465</ele>
<time>2024-05-07T12:46:49Z</time>
</trkpt>
<trkpt lat="49.07709114253521" lon="9.563588071614504">
<ele>465</ele>
<time>2024-05-07T12:46:50Z</time>
</trkpt>
<trkpt lat="49.07706825993955" lon="9.563589999452232">
<ele>465</ele>
<time>2024-05-07T12:46:51Z</time>
</trkpt>
<trkpt lat="49.07704537734389" lon="9.563589999452232">
<ele>465.2</ele>
<time>2024-05-07T12:46:52Z</time>
</trkpt>
<trkpt lat="49.077022494748235" lon="9.563589999452232">
<ele>465.2</ele>
<time>2024-05-07T12:46:53Z</time>
</trkpt>
<trkpt lat="49.077003467828035" lon="9.563588071614504">
<ele>465.4</ele>
<time>2024-05-07T12:46:54Z</time>
</trkpt>
<trkpt lat="49.0769843570888" lon="9.563579522073267">
<ele>465.4</ele>
<time>2024-05-07T12:46:55Z</time>
</trkpt>
<trkpt lat="49.076965330168605" lon="9.563573822379112">
<ele>465.6</ele>
<time>2024-05-07T12:46:56Z</time>
</trkpt>
<trkpt lat="49.0769499912858" lon="9.563568038865924">
<ele>465.8</ele>
<time>2024-05-07T12:46:57Z</time>
</trkpt>
<trkpt lat="49.07693473622203" lon="9.563563345000148">
<ele>465.8</ele>
<time>2024-05-07T12:46:58Z</time>
</trkpt>
<trkpt lat="49.07691948115826" lon="9.563560411334038">
<ele>466</ele>
<time>2024-05-07T12:46:59Z</time>
</trkpt>
<trkpt lat="49.07690808176994" lon="9.563552783802152">
<ele>466.2</ele>
<time>2024-05-07T12:47:00Z</time>
</trkpt>
<trkpt lat="49.07690045423806" lon="9.563548006117344">
<ele>466.2</ele>
<time>2024-05-07T12:47:01Z</time>
</trkpt>
<trkpt lat="49.07689282670617" lon="9.563547084107997">
<ele>466.4</ele>
<time>2024-05-07T12:47:02Z</time>
</trkpt>
<trkpt lat="49.07688897103071" lon="9.563547084107997">
<ele>466.4</ele>
<time>2024-05-07T12:47:03Z</time>
</trkpt>
<trkpt lat="49.07689282670617" lon="9.563548006117344">
<ele>466.4</ele>
<time>2024-05-07T12:47:04Z</time>
</trkpt>
<trkpt lat="49.0768965985626" lon="9.563547084107997">
<ele>466.6</ele>
<time>2024-05-07T12:47:07Z</time>
</trkpt>
<trkpt lat="49.07689282670617" lon="9.563545156270266">
<ele>466.6</ele>
<time>2024-05-07T12:47:08Z</time>
</trkpt>
<trkpt lat="49.07688897103071" lon="9.563543312251568">
<ele>466.6</ele>
<time>2024-05-07T12:47:09Z</time>
</trkpt>
<trkpt lat="49.076885199174285" lon="9.563541384413838">
<ele>466.6</ele>
<time>2024-05-07T12:47:10Z</time>
</trkpt>
<trkpt lat="49.076885199174285" lon="9.56353853456676">
<ele>466.6</ele>
<time>2024-05-07T12:47:11Z</time>
</trkpt>
<trkpt lat="49.076885199174285" lon="9.56353660672903">
<ele>466.6</ele>
<time>2024-05-07T12:47:12Z</time>
</trkpt>
<trkpt lat="49.076885199174285" lon="9.5635346788913">
<ele>466.6</ele>
<time>2024-05-07T12:47:13Z</time>
</trkpt>
<trkpt lat="49.076885199174285" lon="9.563533756881952">
<ele>466.6</ele>
<time>2024-05-07T12:47:16Z</time>
</trkpt>
<trkpt lat="49.076885199174285" lon="9.563531829044225">
<ele>466.6</ele>
<time>2024-05-07T12:47:17Z</time>
</trkpt>
<trkpt lat="49.076885199174285" lon="9.563529901206492">
<ele>466.6</ele>
<time>2024-05-07T12:47:19Z</time>
</trkpt>
<trkpt lat="49.076885199174285" lon="9.563528057187796">
<ele>466.6</ele>
<time>2024-05-07T12:47:25Z</time>
</trkpt>
<trkpt lat="49.076885199174285" lon="9.563527051359417">
<ele>466.6</ele>
<time>2024-05-07T12:47:27Z</time>
</trkpt>
<trkpt lat="49.076885199174285" lon="9.563525123521686">
<ele>466.4</ele>
<time>2024-05-07T12:47:29Z</time>
</trkpt>
<trkpt lat="49.076885199174285" lon="9.563523279502988">
<ele>466.2</ele>
<time>2024-05-07T12:47:30Z</time>
</trkpt>
<trkpt lat="49.076881343498826" lon="9.563523279502988">
<ele>466.2</ele>
<time>2024-05-07T12:47:33Z</time>
</trkpt>
<trkpt lat="49.0768775716424" lon="9.563521351665258">
<ele>466.2</ele>
<time>2024-05-07T12:47:35Z</time>
</trkpt>
<trkpt lat="49.0768775716424" lon="9.563523279502988">
<ele>466.4</ele>
<time>2024-05-07T12:47:36Z</time>
</trkpt>
<trkpt lat="49.0768775716424" lon="9.563521351665258">
<ele>466.6</ele>
<time>2024-05-07T12:47:38Z</time>
</trkpt>
<trkpt lat="49.07687371596694" lon="9.56352042965591">
<ele>466.8</ele>
<time>2024-05-07T12:47:39Z</time>
</trkpt>
<trkpt lat="49.076866088435054" lon="9.56352042965591">
<ele>466.8</ele>
<time>2024-05-07T12:47:40Z</time>
</trkpt>
<trkpt lat="49.07685468904674" lon="9.563523279502988">
<ele>467</ele>
<time>2024-05-07T12:47:41Z</time>
</trkpt>
<trkpt lat="49.07683943398297" lon="9.563533756881952">
<ele>467</ele>
<time>2024-05-07T12:47:42Z</time>
</trkpt>
<trkpt lat="49.07682795077562" lon="9.563548006117344">
<ele>467</ele>
<time>2024-05-07T12:47:43Z</time>
</trkpt>
<trkpt lat="49.07681655138731" lon="9.563573822379112">
<ele>467</ele>
<time>2024-05-07T12:47:44Z</time>
</trkpt>
<trkpt lat="49.076808923855424" lon="9.563603326678276">
<ele>467</ele>
<time>2024-05-07T12:47:45Z</time>
</trkpt>
<trkpt lat="49.07680129632354" lon="9.563638614490628">
<ele>467</ele>
<time>2024-05-07T12:47:46Z</time>
</trkpt>
<trkpt lat="49.07678981311619" lon="9.563679685816169">
<ele>467</ele>
<time>2024-05-07T12:47:47Z</time>
</trkpt>
<trkpt lat="49.07678218558431" lon="9.563724445179105">
<ele>467</ele>
<time>2024-05-07T12:47:48Z</time>
</trkpt>
<trkpt lat="49.07677455805242" lon="9.563768366351724">
<ele>467</ele>
<time>2024-05-07T12:47:49Z</time>
</trkpt>
<trkpt lat="49.07676307484507" lon="9.56381698139012">
<ele>467</ele>
<time>2024-05-07T12:47:50Z</time>
</trkpt>
<trkpt lat="49.07675930298865" lon="9.563871379941702">
<ele>466.8</ele>
<time>2024-05-07T12:47:51Z</time>
</trkpt>
<trkpt lat="49.07675167545676" lon="9.563926616683602">
<ele>466.8</ele>
<time>2024-05-07T12:47:52Z</time>
</trkpt>
<trkpt lat="49.0767478197813" lon="9.563981937244534">
<ele>466.8</ele>
<time>2024-05-07T12:47:53Z</time>
</trkpt>
<trkpt lat="49.07674404792488" lon="9.564038263633847">
<ele>466.8</ele>
<time>2024-05-07T12:47:54Z</time>
</trkpt>
<trkpt lat="49.076728792861104" lon="9.564088806509972">
<ele>466.8</ele>
<time>2024-05-07T12:47:55Z</time>
</trkpt>
<trkpt lat="49.07670968212187" lon="9.564134571701288">
<ele>466.8</ele>
<time>2024-05-07T12:47:56Z</time>
</trkpt>
<trkpt lat="49.07667917199433" lon="9.564167931675913">
<ele>466.8</ele>
<time>2024-05-07T12:47:57Z</time>
</trkpt>
<trkpt lat="49.076648661866784" lon="9.564193664118648">
<ele>466.6</ele>
<time>2024-05-07T12:47:58Z</time>
</trkpt>
<trkpt lat="49.07661815173924" lon="9.564207075163722">
<ele>466.4</ele>
<time>2024-05-07T12:47:59Z</time>
</trkpt>
<trkpt lat="49.07658378593624" lon="9.564216546714306">
<ele>466.4</ele>
<time>2024-05-07T12:48:00Z</time>
</trkpt>
<trkpt lat="49.076545648276806" lon="9.564220402389765">
<ele>466.2</ele>
<time>2024-05-07T12:48:01Z</time>
</trkpt>
<trkpt lat="49.076511366292834" lon="9.564221324399114">
<ele>466</ele>
<time>2024-05-07T12:48:02Z</time>
</trkpt>
<trkpt lat="49.07647322863341" lon="9.564223252236845">
<ele>466</ele>
<time>2024-05-07T12:48:03Z</time>
</trkpt>
<trkpt lat="49.07644271850586" lon="9.564221324399114">
<ele>466</ele>
<time>2024-05-07T12:48:04Z</time>
</trkpt>
<trkpt lat="49.076408352702856" lon="9.564216546714306">
<ele>466</ele>
<time>2024-05-07T12:48:05Z</time>
</trkpt>
<trkpt lat="49.07637398689985" lon="9.564211769029498">
<ele>466</ele>
<time>2024-05-07T12:48:06Z</time>
</trkpt>
<trkpt lat="49.07633970491588" lon="9.564207075163722">
<ele>466</ele>
<time>2024-05-07T12:48:07Z</time>
</trkpt>
<trkpt lat="49.07630156725645" lon="9.564203219488263">
<ele>466</ele>
<time>2024-05-07T12:48:08Z</time>
</trkpt>
<trkpt lat="49.076271057128906" lon="9.564198441803455">
<ele>466.2</ele>
<time>2024-05-07T12:48:09Z</time>
</trkpt>
<trkpt lat="49.0762366913259" lon="9.564193664118648">
<ele>466.2</ele>
<time>2024-05-07T12:48:10Z</time>
</trkpt>
<trkpt lat="49.0762023255229" lon="9.56418989226222">
<ele>466.2</ele>
<time>2024-05-07T12:48:11Z</time>
</trkpt>
<trkpt lat="49.07616804353893" lon="9.564187964424493">
<ele>466.2</ele>
<time>2024-05-07T12:48:12Z</time>
</trkpt>
<trkpt lat="49.076133677735925" lon="9.56418989226222">
<ele>466.2</ele>
<time>2024-05-07T12:48:13Z</time>
</trkpt>
<trkpt lat="49.076095540076494" lon="9.564196513965726">
<ele>466.4</ele>
<time>2024-05-07T12:48:14Z</time>
</trkpt>
<trkpt lat="49.07606117427349" lon="9.564201291650534">
<ele>466.4</ele>
<time>2024-05-07T12:48:15Z</time>
</trkpt>
<trkpt lat="49.07602689228952" lon="9.564207997173073">
<ele>466.4</ele>
<time>2024-05-07T12:48:16Z</time>
</trkpt>
<trkpt lat="49.075996382161975" lon="9.5642099250108">
<ele>466.6</ele>
<time>2024-05-07T12:48:17Z</time>
</trkpt>
<trkpt lat="49.07596201635897" lon="9.5642099250108">
<ele>466.6</ele>
<time>2024-05-07T12:48:18Z</time>
</trkpt>
<trkpt lat="49.075927734375" lon="9.564196513965726">
<ele>466.6</ele>
<time>2024-05-07T12:48:19Z</time>
</trkpt>
<trkpt lat="49.075897140428424" lon="9.564167009666562">
<ele>466.6</ele>
<time>2024-05-07T12:48:20Z</time>
</trkpt>
<trkpt lat="49.07586663030088" lon="9.564120238646863">
<ele>466.6</ele>
<time>2024-05-07T12:48:21Z</time>
</trkpt>
<trkpt lat="49.07584374770522" lon="9.564064918085933">
<ele>466.4</ele>
<time>2024-05-07T12:48:22Z</time>
</trkpt>
<trkpt lat="49.07582086510956" lon="9.564002975821497">
<ele>466.4</ele>
<time>2024-05-07T12:48:23Z</time>
</trkpt>
<trkpt lat="49.07580183818936" lon="9.563935250043867">
<ele>466.4</ele>
<time>2024-05-07T12:48:24Z</time>
</trkpt>
<trkpt lat="49.075778955593705" lon="9.5638732239604">
<ele>466.4</ele>
<time>2024-05-07T12:48:25Z</time>
</trkpt>
<trkpt lat="49.075759844854474" lon="9.56381698139012">
<ele>466.4</ele>
<time>2024-05-07T12:48:26Z</time>
</trkpt>
<trkpt lat="49.07574073411524" lon="9.56375495530665">
<ele>466.4</ele>
<time>2024-05-07T12:48:27Z</time>
</trkpt>
<trkpt lat="49.07572170719504" lon="9.563690163195131">
<ele>466.4</ele>
<time>2024-05-07T12:48:28Z</time>
</trkpt>
<trkpt lat="49.07570259645581" lon="9.563623359426856">
<ele>466.2</ele>
<time>2024-05-07T12:48:29Z</time>
</trkpt>
<trkpt lat="49.075679713860154" lon="9.56355471163988">
<ele>466.2</ele>
<time>2024-05-07T12:48:30Z</time>
</trkpt>
<trkpt lat="49.075656831264496" lon="9.563481286168098">
<ele>466</ele>
<time>2024-05-07T12:48:31Z</time>
</trkpt>
<trkpt lat="49.07563394866884" lon="9.563403083011508">
<ele>466</ele>
<time>2024-05-07T12:48:32Z</time>
</trkpt>
<trkpt lat="49.07561492174864" lon="9.563322952017188">
<ele>465.8</ele>
<time>2024-05-07T12:48:33Z</time>
</trkpt>
<trkpt lat="49.07558818347752" lon="9.5632429048419">
<ele>465.8</ele>
<time>2024-05-07T12:48:34Z</time>
</trkpt>
<trkpt lat="49.07556907273829" lon="9.563163695856929">
<ele>465.8</ele>
<time>2024-05-07T12:48:35Z</time>
</trkpt>
<trkpt lat="49.07554619014263" lon="9.56308364868164">
<ele>465.6</ele>
<time>2024-05-07T12:48:36Z</time>
</trkpt>
<trkpt lat="49.07552330754697" lon="9.562998740002511">
<ele>465.6</ele>
<time>2024-05-07T12:48:37Z</time>
</trkpt>
<trkpt lat="49.0755080524832" lon="9.562921458855271">
<ele>465.6</ele>
<time>2024-05-07T12:48:38Z</time>
</trkpt>
<trkpt lat="49.075489025563" lon="9.562841411679983">
<ele>465.6</ele>
<time>2024-05-07T12:48:39Z</time>
</trkpt>
<trkpt lat="49.07546991482377" lon="9.562763208523393">
<ele>465.4</ele>
<time>2024-05-07T12:48:40Z</time>
</trkpt>
<trkpt lat="49.07544703222811" lon="9.562689699232578">
<ele>465.4</ele>
<time>2024-05-07T12:48:41Z</time>
</trkpt>
<trkpt lat="49.07542800530791" lon="9.562620129436256">
<ele>465.2</ele>
<time>2024-05-07T12:48:42Z</time>
</trkpt>
<trkpt lat="49.07540889456868" lon="9.562553325667976">
<ele>465</ele>
<time>2024-05-07T12:48:43Z</time>
</trkpt>
<trkpt lat="49.07538978382945" lon="9.56248853355646">
<ele>465</ele>
<time>2024-05-07T12:48:44Z</time>
</trkpt>
<trkpt lat="49.07537838444114" lon="9.56242843531072">
<ele>464.8</ele>
<time>2024-05-07T12:48:45Z</time>
</trkpt>
<trkpt lat="49.07537075690925" lon="9.562366409227252">
<ele>464.8</ele>
<time>2024-05-07T12:48:46Z</time>
</trkpt>
<trkpt lat="49.07537452876568" lon="9.562308238819242">
<ele>464.6</ele>
<time>2024-05-07T12:48:47Z</time>
</trkpt>
<trkpt lat="49.07538601197302" lon="9.562256773933768">
<ele>464.6</ele>
<time>2024-05-07T12:48:48Z</time>
</trkpt>
<trkpt lat="49.07540889456868" lon="9.56221293658018">
<ele>464.6</ele>
<time>2024-05-07T12:48:49Z</time>
</trkpt>
<trkpt lat="49.075443260371685" lon="9.562188126146792">
<ele>464.8</ele>
<time>2024-05-07T12:48:50Z</time>
</trkpt>
<trkpt lat="49.07547754235566" lon="9.562168093398212">
<ele>464.8</ele>
<time>2024-05-07T12:48:51Z</time>
</trkpt>
<trkpt lat="49.07551568001509" lon="9.562149988487365">
<ele>464.8</ele>
<time>2024-05-07T12:48:52Z</time>
</trkpt>
<trkpt lat="49.07555004581809" lon="9.56213473342359">
<ele>464.6</ele>
<time>2024-05-07T12:48:53Z</time>
</trkpt>
<trkpt lat="49.07558818347752" lon="9.562120400369167">
<ele>464.6</ele>
<time>2024-05-07T12:48:54Z</time>
</trkpt>
<trkpt lat="49.07562632113695" lon="9.562107073143125">
<ele>464.6</ele>
<time>2024-05-07T12:48:55Z</time>
</trkpt>
<trkpt lat="49.075660686939955" lon="9.56209366209805">
<ele>464.6</ele>
<time>2024-05-07T12:48:56Z</time>
</trkpt>
<trkpt lat="49.075698824599385" lon="9.562080334872007">
<ele>464.6</ele>
<time>2024-05-07T12:48:57Z</time>
</trkpt>
<trkpt lat="49.07573310658336" lon="9.562067007645965">
<ele>464.6</ele>
<time>2024-05-07T12:48:58Z</time>
</trkpt>
<trkpt lat="49.07577132806182" lon="9.56205460242927">
<ele>464.8</ele>
<time>2024-05-07T12:48:59Z</time>
</trkpt>
<trkpt lat="49.07580561004579" lon="9.562045047059655">
<ele>464.8</ele>
<time>2024-05-07T12:49:00Z</time>
</trkpt>
<trkpt lat="49.075839975848794" lon="9.562031719833612">
<ele>465</ele>
<time>2024-05-07T12:49:01Z</time>
</trkpt>
<trkpt lat="49.07586663030088" lon="9.562020236626267">
<ele>465</ele>
<time>2024-05-07T12:49:02Z</time>
</trkpt>
<trkpt lat="49.075897140428424" lon="9.562004981562495">
<ele>465.2</ele>
<time>2024-05-07T12:49:03Z</time>
</trkpt>
<trkpt lat="49.075927734375" lon="9.561986876651645">
<ele>465.2</ele>
<time>2024-05-07T12:49:04Z</time>
</trkpt>
<trkpt lat="49.075958244502544" lon="9.561960138380527">
<ele>465.2</ele>
<time>2024-05-07T12:49:05Z</time>
</trkpt>
<trkpt lat="49.07598489895463" lon="9.561923006549478">
<ele>465.4</ele>
<time>2024-05-07T12:49:06Z</time>
</trkpt>
<trkpt lat="49.07600400969386" lon="9.56187623552978">
<ele>465.2</ele>
<time>2024-05-07T12:49:07Z</time>
</trkpt>
<trkpt lat="49.07600778155029" lon="9.561822842806578">
<ele>465.2</ele>
<time>2024-05-07T12:49:08Z</time>
</trkpt>
<trkpt lat="49.07600778155029" lon="9.561766600236297">
<ele>465.2</ele>
<time>2024-05-07T12:49:09Z</time>
</trkpt>
<trkpt lat="49.07600778155029" lon="9.561717985197902">
<ele>465.2</ele>
<time>2024-05-07T12:49:10Z</time>
</trkpt>
<trkpt lat="49.0760001540184" lon="9.561670292168856">
<ele>465.2</ele>
<time>2024-05-07T12:49:11Z</time>
</trkpt>
<trkpt lat="49.07598875463009" lon="9.561621593311427">
<ele>465.2</ele>
<time>2024-05-07T12:49:12Z</time>
</trkpt>
<trkpt lat="49.075977271422744" lon="9.561572056263683">
<ele>465.2</ele>
<time>2024-05-07T12:49:13Z</time>
</trkpt>
<trkpt lat="49.07596587203443" lon="9.561518663540484">
<ele>465.2</ele>
<time>2024-05-07T12:49:14Z</time>
</trkpt>
<trkpt lat="49.075954388827085" lon="9.561465186998248">
<ele>465.2</ele>
<time>2024-05-07T12:49:15Z</time>
</trkpt>
<trkpt lat="49.07594298943877" lon="9.561409950256348">
<ele>465.4</ele>
<time>2024-05-07T12:49:16Z</time>
</trkpt>
<trkpt lat="49.075927734375" lon="9.561354629695415">
<ele>465.4</ele>
<time>2024-05-07T12:49:17Z</time>
</trkpt>
<trkpt lat="49.07591239549219" lon="9.561298303306105">
<ele>465.4</ele>
<time>2024-05-07T12:49:18Z</time>
</trkpt>
<trkpt lat="49.07590099610388" lon="9.561242060735822">
<ele>465.4</ele>
<time>2024-05-07T12:49:19Z</time>
</trkpt>
<trkpt lat="49.07588951289654" lon="9.561181962490082">
<ele>465.4</ele>
<time>2024-05-07T12:49:20Z</time>
</trkpt>
<trkpt lat="49.075878113508224" lon="9.561121864244342">
<ele>465.4</ele>
<time>2024-05-07T12:49:21Z</time>
</trkpt>
<trkpt lat="49.07587048597634" lon="9.561059921979904">
<ele>465.4</ele>
<time>2024-05-07T12:49:22Z</time>
</trkpt>
<trkpt lat="49.07586663030088" lon="9.561003679409623">
<ele>465.4</ele>
<time>2024-05-07T12:49:23Z</time>
</trkpt>
<trkpt lat="49.07586285844445" lon="9.560943581163883">
<ele>465.6</ele>
<time>2024-05-07T12:49:24Z</time>
</trkpt>
<trkpt lat="49.07586285844445" lon="9.560885410755873">
<ele>465.8</ele>
<time>2024-05-07T12:49:25Z</time>
</trkpt>
<trkpt lat="49.07586663030088" lon="9.560828162357211">
<ele>465.8</ele>
<time>2024-05-07T12:49:26Z</time>
</trkpt>
<trkpt lat="49.07586663030088" lon="9.56077284179628">
<ele>466</ele>
<time>2024-05-07T12:49:27Z</time>
</trkpt>
<trkpt lat="49.07587048597634" lon="9.560718527063727">
<ele>466.2</ele>
<time>2024-05-07T12:49:28Z</time>
</trkpt>
<trkpt lat="49.07586663030088" lon="9.560661278665066">
<ele>466.2</ele>
<time>2024-05-07T12:49:29Z</time>
</trkpt>
<trkpt lat="49.07587048597634" lon="9.560607885941865">
<ele>466.4</ele>
<time>2024-05-07T12:49:30Z</time>
</trkpt>
<trkpt lat="49.07587048597634" lon="9.560551643371582">
<ele>466.4</ele>
<time>2024-05-07T12:49:31Z</time>
</trkpt>
<trkpt lat="49.075874257832766" lon="9.56049338914454">
<ele>466.6</ele>
<time>2024-05-07T12:49:32Z</time>
</trkpt>
<trkpt lat="49.075878113508224" lon="9.560433374717832">
<ele>466.8</ele>
<time>2024-05-07T12:49:33Z</time>
</trkpt>
<trkpt lat="49.075878113508224" lon="9.560373276472092">
<ele>466.8</ele>
<time>2024-05-07T12:49:34Z</time>
</trkpt>
<trkpt lat="49.075878113508224" lon="9.56031510606408">
<ele>467</ele>
<time>2024-05-07T12:49:35Z</time>
</trkpt>
<trkpt lat="49.07588188536465" lon="9.56025693565607">
<ele>467.2</ele>
<time>2024-05-07T12:49:36Z</time>
</trkpt>
<trkpt lat="49.07588951289654" lon="9.560199687257407">
<ele>467.4</ele>
<time>2024-05-07T12:49:37Z</time>
</trkpt>
<trkpt lat="49.075893368572" lon="9.560143444687128">
<ele>467.4</ele>
<time>2024-05-07T12:49:38Z</time>
</trkpt>
<trkpt lat="49.075893368572" lon="9.560091895982625">
<ele>467.6</ele>
<time>2024-05-07T12:49:39Z</time>
</trkpt>
<trkpt lat="49.075893368572" lon="9.5600395090878">
<ele>467.8</ele>
<time>2024-05-07T12:49:40Z</time>
</trkpt>
<trkpt lat="49.07588951289654" lon="9.559989888221024">
<ele>467.8</ele>
<time>2024-05-07T12:49:41Z</time>
</trkpt>
<trkpt lat="49.07588574104011" lon="9.55994026735425">
<ele>468</ele>
<time>2024-05-07T12:49:42Z</time>
</trkpt>
<trkpt lat="49.07588188536465" lon="9.559893580153584">
<ele>468</ele>
<time>2024-05-07T12:49:43Z</time>
</trkpt>
<trkpt lat="49.075878113508224" lon="9.559848736971617">
<ele>468.2</ele>
<time>2024-05-07T12:49:44Z</time>
</trkpt>
<trkpt lat="49.07588188536465" lon="9.559806743636727">
<ele>468.2</ele>
<time>2024-05-07T12:49:45Z</time>
</trkpt>
<trkpt lat="49.075893368572" lon="9.559771455824375">
<ele>468.4</ele>
<time>2024-05-07T12:49:46Z</time>
</trkpt>
<trkpt lat="49.07591239549219" lon="9.559751506894829">
<ele>468.4</ele>
<time>2024-05-07T12:49:47Z</time>
</trkpt>
<trkpt lat="49.07593150623143" lon="9.559751506894829">
<ele>468.6</ele>
<time>2024-05-07T12:49:48Z</time>
</trkpt>
<trkpt lat="49.07595061697066" lon="9.5597667619586">
<ele>468.6</ele>
<time>2024-05-07T12:49:49Z</time>
</trkpt>
<trkpt lat="49.07596201635897" lon="9.559793416410685">
<ele>468.8</ele>
<time>2024-05-07T12:49:50Z</time>
</trkpt>
<trkpt lat="49.07597349956632" lon="9.55982493236661">
<ele>468.8</ele>
<time>2024-05-07T12:49:51Z</time>
</trkpt>
<trkpt lat="49.07598489895463" lon="9.559860220178962">
<ele>469</ele>
<time>2024-05-07T12:49:52Z</time>
</trkpt>
<trkpt lat="49.07598875463009" lon="9.559893580153584">
<ele>469</ele>
<time>2024-05-07T12:49:53Z</time>
</trkpt>
<trkpt lat="49.0760001540184" lon="9.55992316827178">
<ele>469</ele>
<time>2024-05-07T12:49:54Z</time>
</trkpt>
<trkpt lat="49.07601926475763" lon="9.559943117201328">
<ele>469.2</ele>
<time>2024-05-07T12:49:55Z</time>
</trkpt>
<trkpt lat="49.07604214735329" lon="9.559953678399324">
<ele>469.2</ele>
<time>2024-05-07T12:49:56Z</time>
</trkpt>
<trkpt lat="49.07606502994895" lon="9.559958456084132">
<ele>469.2</ele>
<time>2024-05-07T12:49:57Z</time>
</trkpt>
<trkpt lat="49.07608405686915" lon="9.559969855472444">
<ele>469.2</ele>
<time>2024-05-07T12:49:58Z</time>
</trkpt>
<trkpt lat="49.07610316760838" lon="9.55998033285141">
<ele>469.4</ele>
<time>2024-05-07T12:49:59Z</time>
</trkpt>
<trkpt lat="49.07611842267215" lon="9.559989888221024">
<ele>469.4</ele>
<time>2024-05-07T12:50:00Z</time>
</trkpt>
<trkpt lat="49.0761299058795" lon="9.55999843776226">
<ele>469.6</ele>
<time>2024-05-07T12:50:01Z</time>
</trkpt>
<trkpt lat="49.07614516094327" lon="9.560005143284798">
<ele>469.6</ele>
<time>2024-05-07T12:50:02Z</time>
</trkpt>
<trkpt lat="49.07616041600704" lon="9.560009920969604">
<ele>469.8</ele>
<time>2024-05-07T12:50:03Z</time>
</trkpt>
<trkpt lat="49.076171815395355" lon="9.560013692826033">
<ele>469.8</ele>
<time>2024-05-07T12:50:04Z</time>
</trkpt>
<trkpt lat="49.07617944292724" lon="9.560014698654411">
<ele>469.8</ele>
<time>2024-05-07T12:50:05Z</time>
</trkpt>
<trkpt lat="49.0761832986027" lon="9.560016626492144">
<ele>470</ele>
<time>2024-05-07T12:50:08Z</time>
</trkpt>
<trkpt lat="49.07617944292724" lon="9.560016626492144">
<ele>470</ele>
<time>2024-05-07T12:50:09Z</time>
</trkpt>
<trkpt lat="49.0761832986027" lon="9.560014698654411">
<ele>470</ele>
<time>2024-05-07T12:50:12Z</time>
</trkpt>
<trkpt lat="49.07617944292724" lon="9.560013692826033">
<ele>470</ele>
<time>2024-05-07T12:50:13Z</time>
</trkpt>
<trkpt lat="49.07617944292724" lon="9.560011848807337">
<ele>470</ele>
<time>2024-05-07T12:50:15Z</time>
</trkpt>
<trkpt lat="49.07617944292724" lon="9.560009920969604">
<ele>470</ele>
<time>2024-05-07T12:50:16Z</time>
</trkpt>
<trkpt lat="49.07617944292724" lon="9.560007993131876">
<ele>470.2</ele>
<time>2024-05-07T12:50:17Z</time>
</trkpt>
<trkpt lat="49.076175671070814" lon="9.560007993131876">
<ele>470.2</ele>
<time>2024-05-07T12:50:18Z</time>
</trkpt>
<trkpt lat="49.076175671070814" lon="9.560007071122527">
<ele>470.2</ele>
<time>2024-05-07T12:50:20Z</time>
</trkpt>
<trkpt lat="49.076171815395355" lon="9.560003215447068">
<ele>470.2</ele>
<time>2024-05-07T12:50:22Z</time>
</trkpt>
<trkpt lat="49.076171815395355" lon="9.56000137142837">
<ele>470.2</ele>
<time>2024-05-07T12:50:23Z</time>
</trkpt>
<trkpt lat="49.076171815395355" lon="9.55999843776226">
<ele>470.2</ele>
<time>2024-05-07T12:50:24Z</time>
</trkpt>
<trkpt lat="49.076171815395355" lon="9.559996593743564">
<ele>470</ele>
<time>2024-05-07T12:50:26Z</time>
</trkpt>
<trkpt lat="49.07616804353893" lon="9.559996593743564">
<ele>470</ele>
<time>2024-05-07T12:50:27Z</time>
</trkpt>
<trkpt lat="49.07616804353893" lon="9.559994665905831">
<ele>469.8</ele>
<time>2024-05-07T12:50:28Z</time>
</trkpt>
<trkpt lat="49.07616804353893" lon="9.559993743896484">
<ele>469.8</ele>
<time>2024-05-07T12:50:31Z</time>
</trkpt>
<trkpt lat="49.07616418786347" lon="9.559993743896484">
<ele>469.6</ele>
<time>2024-05-07T12:50:33Z</time>
</trkpt>
<trkpt lat="49.07616418786347" lon="9.559991816058757">
<ele>469.6</ele>
<time>2024-05-07T12:50:35Z</time>
</trkpt>
<trkpt lat="49.07616041600704" lon="9.559991816058757">
<ele>469.4</ele>
<time>2024-05-07T12:50:42Z</time>
</trkpt>
<trkpt lat="49.07616041600704" lon="9.559989888221024">
<ele>469.4</ele>
<time>2024-05-07T12:50:46Z</time>
</trkpt>
<trkpt lat="49.07616041600704" lon="9.559991816058757">
<ele>469.2</ele>
<time>2024-05-07T12:50:56Z</time>
</trkpt>
<trkpt lat="49.07615656033158" lon="9.559993743896484">
<ele>469.2</ele>
<time>2024-05-07T12:50:58Z</time>
</trkpt>
<trkpt lat="49.07615656033158" lon="9.559991816058757">
<ele>469</ele>
<time>2024-05-07T12:51:03Z</time>
</trkpt>
<trkpt lat="49.07615656033158" lon="9.559989888221024">
<ele>469</ele>
<time>2024-05-07T12:51:06Z</time>
</trkpt>
<trkpt lat="49.07615656033158" lon="9.559987038373947">
<ele>469</ele>
<time>2024-05-07T12:51:10Z</time>
</trkpt>
<trkpt lat="49.07615656033158" lon="9.559983182698488">
<ele>469</ele>
<time>2024-05-07T12:51:11Z</time>
</trkpt>
<trkpt lat="49.07615656033158" lon="9.559985110536218">
<ele>469</ele>
<time>2024-05-07T12:51:16Z</time>
</trkpt>
<trkpt lat="49.07616041600704" lon="9.559987038373947">
<ele>469</ele>
<time>2024-05-07T12:51:17Z</time>
</trkpt>
<trkpt lat="49.07616041600704" lon="9.559987960383296">
<ele>469</ele>
<time>2024-05-07T12:51:18Z</time>
</trkpt>
<trkpt lat="49.07616041600704" lon="9.559989888221024">
<ele>469</ele>
<time>2024-05-07T12:51:20Z</time>
</trkpt>
<trkpt lat="49.07616418786347" lon="9.559989888221024">
<ele>469.2</ele>
<time>2024-05-07T12:51:22Z</time>
</trkpt>
<trkpt lat="49.07616418786347" lon="9.559991816058757">
<ele>469.2</ele>
<time>2024-05-07T12:51:23Z</time>
</trkpt>
<trkpt lat="49.07616418786347" lon="9.559993743896484">
<ele>469.2</ele>
<time>2024-05-07T12:51:24Z</time>
</trkpt>
<trkpt lat="49.07616418786347" lon="9.559991816058757">
<ele>469.2</ele>
<time>2024-05-07T12:51:25Z</time>
</trkpt>
<trkpt lat="49.07616418786347" lon="9.559989888221024">
<ele>469.2</ele>
<time>2024-05-07T12:51:26Z</time>
</trkpt>
<trkpt lat="49.07616418786347" lon="9.559991816058757">
<ele>469.2</ele>
<time>2024-05-07T12:51:27Z</time>
</trkpt>
<trkpt lat="49.07616418786347" lon="9.559993743896484">
<ele>469.2</ele>
<time>2024-05-07T12:51:30Z</time>
</trkpt>
<trkpt lat="49.07616804353893" lon="9.559993743896484">
<ele>469.2</ele>
<time>2024-05-07T12:51:31Z</time>
</trkpt>
<trkpt lat="49.07616804353893" lon="9.559991816058757">
<ele>469.2</ele>
<time>2024-05-07T12:51:33Z</time>
</trkpt>
<trkpt lat="49.07616804353893" lon="9.559989888221024">
<ele>469.2</ele>
<time>2024-05-07T12:51:36Z</time>
</trkpt>
<trkpt lat="49.076171815395355" lon="9.559991816058757">
<ele>469.4</ele>
<time>2024-05-07T12:51:38Z</time>
</trkpt>
<trkpt lat="49.076171815395355" lon="9.559993743896484">
<ele>469.4</ele>
<time>2024-05-07T12:51:40Z</time>
</trkpt>
<trkpt lat="49.076171815395355" lon="9.559994665905831">
<ele>469.4</ele>
<time>2024-05-07T12:51:44Z</time>
</trkpt>
<trkpt lat="49.076171815395355" lon="9.559996593743564">
<ele>469.4</ele>
<time>2024-05-07T12:51:45Z</time>
</trkpt>
<trkpt lat="49.076171815395355" lon="9.55999843776226">
<ele>469.2</ele>
<time>2024-05-07T12:51:46Z</time>
</trkpt>
<trkpt lat="49.076175671070814" lon="9.56000137142837">
<ele>469.2</ele>
<time>2024-05-07T12:51:48Z</time>
</trkpt>
<trkpt lat="49.076175671070814" lon="9.55999843776226">
<ele>469.2</ele>
<time>2024-05-07T12:51:51Z</time>
</trkpt>
<trkpt lat="49.076175671070814" lon="9.559996593743564">
<ele>469.2</ele>
<time>2024-05-07T12:51:52Z</time>
</trkpt>
<trkpt lat="49.076171815395355" lon="9.559994665905831">
<ele>469.2</ele>
<time>2024-05-07T12:51:53Z</time>
</trkpt>
<trkpt lat="49.076171815395355" lon="9.559991816058757">
<ele>469</ele>
<time>2024-05-07T12:51:54Z</time>
</trkpt>
<trkpt lat="49.076175671070814" lon="9.559991816058757">
<ele>469</ele>
<time>2024-05-07T12:51:56Z</time>
</trkpt>
<trkpt lat="49.076175671070814" lon="9.559989888221024">
<ele>469</ele>
<time>2024-05-07T12:51:58Z</time>
</trkpt>
<trkpt lat="49.076171815395355" lon="9.559989888221024">
<ele>468.8</ele>
<time>2024-05-07T12:51:59Z</time>
</trkpt>
<trkpt lat="49.076171815395355" lon="9.559987960383296">
<ele>468.8</ele>
<time>2024-05-07T12:52:00Z</time>
</trkpt>
<trkpt lat="49.076171815395355" lon="9.559989888221024">
<ele>468.8</ele>
<time>2024-05-07T12:52:04Z</time>
</trkpt>
<trkpt lat="49.076171815395355" lon="9.559991816058757">
<ele>468.8</ele>
<time>2024-05-07T12:52:05Z</time>
</trkpt>
<trkpt lat="49.076171815395355" lon="9.559994665905831">
<ele>468.8</ele>
<time>2024-05-07T12:52:06Z</time>
</trkpt>
<trkpt lat="49.076175671070814" lon="9.559994665905831">
<ele>468.8</ele>
<time>2024-05-07T12:52:07Z</time>
</trkpt>
<trkpt lat="49.076171815395355" lon="9.559993743896484">
<ele>468.8</ele>
<time>2024-05-07T12:52:08Z</time>
</trkpt>
<trkpt lat="49.076171815395355" lon="9.559994665905831">
<ele>468.8</ele>
<time>2024-05-07T12:52:12Z</time>
</trkpt>
<trkpt lat="49.076171815395355" lon="9.559996593743564">
<ele>468.8</ele>
<time>2024-05-07T12:52:14Z</time>
</trkpt>
<trkpt lat="49.07616804353893" lon="9.55999843776226">
<ele>468.8</ele>
<time>2024-05-07T12:52:21Z</time>
</trkpt>
<trkpt lat="49.076171815395355" lon="9.56000036559999">
<ele>469</ele>
<time>2024-05-07T12:52:28Z</time>
</trkpt>
<trkpt lat="49.07616804353893" lon="9.56000036559999">
<ele>469</ele>
<time>2024-05-07T12:52:29Z</time>
</trkpt>
<trkpt lat="49.076171815395355" lon="9.56000036559999">
<ele>469.2</ele>
<time>2024-05-07T12:52:32Z</time>
</trkpt>
<trkpt lat="49.07616804353893" lon="9.56000036559999">
<ele>469.2</ele>
<time>2024-05-07T12:52:33Z</time>
</trkpt>
<trkpt lat="49.07616804353893" lon="9.55999843776226">
<ele>469.2</ele>
<time>2024-05-07T12:52:40Z</time>
</trkpt>
<trkpt lat="49.07616804353893" lon="9.559996593743564">
<ele>469.2</ele>
<time>2024-05-07T12:52:51Z</time>
</trkpt>
<trkpt lat="49.07616804353893" lon="9.55999843776226">
<ele>469.2</ele>
<time>2024-05-07T12:52:53Z</time>
</trkpt>
<trkpt lat="49.07616804353893" lon="9.559996593743564">
<ele>469.2</ele>
<time>2024-05-07T12:52:54Z</time>
</trkpt>
<trkpt lat="49.07616804353893" lon="9.55999843776226">
<ele>469.4</ele>
<time>2024-05-07T12:52:58Z</time>
</trkpt>
<trkpt lat="49.07616418786347" lon="9.55999843776226">
<ele>469.2</ele>
<time>2024-05-07T12:53:02Z</time>
</trkpt>
<trkpt lat="49.07616804353893" lon="9.55999843776226">
<ele>469.2</ele>
<time>2024-05-07T12:53:11Z</time>
</trkpt>
<trkpt lat="49.07616418786347" lon="9.559996593743564">
<ele>469.2</ele>
<time>2024-05-07T12:53:13Z</time>
</trkpt>
<trkpt lat="49.07616804353893" lon="9.559996593743564">
<ele>469.2</ele>
<time>2024-05-07T12:53:14Z</time>
</trkpt>
<trkpt lat="49.07616804353893" lon="9.559994665905831">
<ele>469.4</ele>
<time>2024-05-07T12:53:15Z</time>
</trkpt>
<trkpt lat="49.07616804353893" lon="9.559993743896484">
<ele>469.4</ele>
<time>2024-05-07T12:53:24Z</time>
</trkpt>
<trkpt lat="49.07616804353893" lon="9.559991816058757">
<ele>469.4</ele>
<time>2024-05-07T12:53:25Z</time>
</trkpt>
<trkpt lat="49.07616804353893" lon="9.559993743896484">
<ele>469.4</ele>
<time>2024-05-07T12:53:26Z</time>
</trkpt>
<trkpt lat="49.07616804353893" lon="9.559989888221024">
<ele>469.6</ele>
<time>2024-05-07T12:53:27Z</time>
</trkpt>
<trkpt lat="49.07616804353893" lon="9.559991816058757">
<ele>469.6</ele>
<time>2024-05-07T12:53:29Z</time>
</trkpt>
<trkpt lat="49.07616804353893" lon="9.559989888221024">
<ele>469.6</ele>
<time>2024-05-07T12:53:37Z</time>
</trkpt>
<trkpt lat="49.07616418786347" lon="9.559989888221024">
<ele>469.6</ele>
<time>2024-05-07T12:53:59Z</time>
</trkpt>
<trkpt lat="49.07616418786347" lon="9.559987960383296">
<ele>469.6</ele>
<time>2024-05-07T12:54:03Z</time>
</trkpt>
<trkpt lat="49.07616418786347" lon="9.559987038373947">
<ele>469.8</ele>
<time>2024-05-07T12:54:05Z</time>
</trkpt>
<trkpt lat="49.07616418786347" lon="9.559985110536218">
<ele>469.8</ele>
<time>2024-05-07T12:54:06Z</time>
</trkpt>
<trkpt lat="49.07616418786347" lon="9.559983182698488">
<ele>469.8</ele>
<time>2024-05-07T12:54:08Z</time>
</trkpt>
<trkpt lat="49.07616418786347" lon="9.55998133867979">
<ele>469.8</ele>
<time>2024-05-07T12:54:10Z</time>
</trkpt>
<trkpt lat="49.07616418786347" lon="9.55998033285141">
<ele>469.8</ele>
<time>2024-05-07T12:54:12Z</time>
</trkpt>
<trkpt lat="49.07616418786347" lon="9.55997840501368">
<ele>469.8</ele>
<time>2024-05-07T12:54:16Z</time>
</trkpt>
<trkpt lat="49.07616041600704" lon="9.55997840501368">
<ele>469.8</ele>
<time>2024-05-07T12:54:24Z</time>
</trkpt>
<trkpt lat="49.07616041600704" lon="9.55998033285141">
<ele>469.8</ele>
<time>2024-05-07T12:54:27Z</time>
</trkpt>
<trkpt lat="49.07616041600704" lon="9.55998133867979">
<ele>469.8</ele>
<time>2024-05-07T12:54:30Z</time>
</trkpt>
<trkpt lat="49.07616041600704" lon="9.55998033285141">
<ele>469.6</ele>
<time>2024-05-07T12:54:37Z</time>
</trkpt>
<trkpt lat="49.07616041600704" lon="9.55998133867979">
<ele>469.6</ele>
<time>2024-05-07T12:54:45Z</time>
</trkpt>
<trkpt lat="49.07616041600704" lon="9.559983182698488">
<ele>469.4</ele>
<time>2024-05-07T12:54:51Z</time>
</trkpt>
<trkpt lat="49.07616041600704" lon="9.559985110536218">
<ele>469.4</ele>
<time>2024-05-07T12:54:54Z</time>
</trkpt>
<trkpt lat="49.07616041600704" lon="9.559987038373947">
<ele>469.2</ele>
<time>2024-05-07T12:54:59Z</time>
</trkpt>
<trkpt lat="49.07616041600704" lon="9.559987960383296">
<ele>469.2</ele>
<time>2024-05-07T12:55:03Z</time>
</trkpt>
<trkpt lat="49.07616041600704" lon="9.559989888221024">
<ele>469.2</ele>
<time>2024-05-07T12:55:13Z</time>
</trkpt>
<trkpt lat="49.07616041600704" lon="9.559991816058757">
<ele>469</ele>
<time>2024-05-07T12:55:15Z</time>
</trkpt>
<trkpt lat="49.07616041600704" lon="9.559996593743564">
<ele>469</ele>
<time>2024-05-07T12:55:16Z</time>
</trkpt>
<trkpt lat="49.07616418786347" lon="9.56000036559999">
<ele>469</ele>
<time>2024-05-07T12:55:17Z</time>
</trkpt>
<trkpt lat="49.07616418786347" lon="9.560003215447068">
<ele>469</ele>
<time>2024-05-07T12:55:18Z</time>
</trkpt>
<trkpt lat="49.07616418786347" lon="9.560007071122527">
<ele>469</ele>
<time>2024-05-07T12:55:19Z</time>
</trkpt>
<trkpt lat="49.07616804353893" lon="9.560009920969604">
<ele>468.8</ele>
<time>2024-05-07T12:55:20Z</time>
</trkpt>
<trkpt lat="49.07616804353893" lon="9.560014698654411">
<ele>468.8</ele>
<time>2024-05-07T12:55:21Z</time>
</trkpt>
<trkpt lat="49.076171815395355" lon="9.56001847051084">
<ele>468.8</ele>
<time>2024-05-07T12:55:22Z</time>
</trkpt>
<trkpt lat="49.076171815395355" lon="9.560023248195648">
<ele>468.8</ele>
<time>2024-05-07T12:55:23Z</time>
</trkpt>
<trkpt lat="49.076171815395355" lon="9.560028025880456">
<ele>468.8</ele>
<time>2024-05-07T12:55:24Z</time>
</trkpt>
<trkpt lat="49.076171815395355" lon="9.560031881555917">
<ele>468.8</ele>
<time>2024-05-07T12:55:25Z</time>
</trkpt>
<trkpt lat="49.076175671070814" lon="9.560034731402991">
<ele>468.8</ele>
<time>2024-05-07T12:55:26Z</time>
</trkpt>
<trkpt lat="49.076175671070814" lon="9.56003850325942">
<ele>468.8</ele>
<time>2024-05-07T12:55:27Z</time>
</trkpt>
<trkpt lat="49.076175671070814" lon="9.5600413531065">
<ele>468.8</ele>
<time>2024-05-07T12:55:28Z</time>
</trkpt>
<trkpt lat="49.07617944292724" lon="9.560045208781958">
<ele>468.8</ele>
<time>2024-05-07T12:55:29Z</time>
</trkpt>
<trkpt lat="49.07617944292724" lon="9.560048058629036">
<ele>468.8</ele>
<time>2024-05-07T12:55:30Z</time>
</trkpt>
<trkpt lat="49.07617944292724" lon="9.560049986466764">
<ele>468.8</ele>
<time>2024-05-07T12:55:31Z</time>
</trkpt>
<trkpt lat="49.07617944292724" lon="9.560051914304497">
<ele>468.8</ele>
<time>2024-05-07T12:55:32Z</time>
</trkpt>
<trkpt lat="49.07617944292724" lon="9.560048058629036">
<ele>468.8</ele>
<time>2024-05-07T12:55:34Z</time>
</trkpt>
<trkpt lat="49.07617944292724" lon="9.560047136619689">
<ele>468.8</ele>
<time>2024-05-07T12:55:35Z</time>
</trkpt>
<trkpt lat="49.076175671070814" lon="9.560045208781958">
<ele>468.8</ele>
<time>2024-05-07T12:55:36Z</time>
</trkpt>
<trkpt lat="49.076175671070814" lon="9.560043280944228">
<ele>468.8</ele>
<time>2024-05-07T12:55:39Z</time>
</trkpt>
<trkpt lat="49.076175671070814" lon="9.5600413531065">
<ele>468.8</ele>
<time>2024-05-07T12:55:40Z</time>
</trkpt>
<trkpt lat="49.076175671070814" lon="9.5600395090878">
<ele>468.8</ele>
<time>2024-05-07T12:55:42Z</time>
</trkpt>
<trkpt lat="49.076175671070814" lon="9.56003850325942">
<ele>468.8</ele>
<time>2024-05-07T12:55:43Z</time>
</trkpt>
<trkpt lat="49.076175671070814" lon="9.560036659240724">
<ele>468.8</ele>
<time>2024-05-07T12:55:45Z</time>
</trkpt>
<trkpt lat="49.076175671070814" lon="9.560034731402991">
<ele>468.8</ele>
<time>2024-05-07T12:55:47Z</time>
</trkpt>
<trkpt lat="49.076175671070814" lon="9.560033725574613">
<ele>468.8</ele>
<time>2024-05-07T12:55:49Z</time>
</trkpt>
<trkpt lat="49.076175671070814" lon="9.560031881555917">
<ele>468.8</ele>
<time>2024-05-07T12:55:50Z</time>
</trkpt>
<trkpt lat="49.076171815395355" lon="9.560031881555917">
<ele>468.8</ele>
<time>2024-05-07T12:55:51Z</time>
</trkpt>
<trkpt lat="49.076171815395355" lon="9.560029953718184">
<ele>468.8</ele>
<time>2024-05-07T12:55:54Z</time>
</trkpt>
<trkpt lat="49.076171815395355" lon="9.560028025880456">
<ele>468.8</ele>
<time>2024-05-07T12:55:59Z</time>
</trkpt>
<trkpt lat="49.076171815395355" lon="9.560029953718184">
<ele>469</ele>
<time>2024-05-07T12:56:00Z</time>
</trkpt>
<trkpt lat="49.076171815395355" lon="9.560031881555917">
<ele>469</ele>
<time>2024-05-07T12:56:05Z</time>
</trkpt>
<trkpt lat="49.076171815395355" lon="9.560029953718184">
<ele>469</ele>
<time>2024-05-07T12:56:17Z</time>
</trkpt>
<trkpt lat="49.076171815395355" lon="9.560028025880456">
<ele>469</ele>
<time>2024-05-07T12:56:23Z</time>
</trkpt>
<trkpt lat="49.076171815395355" lon="9.560026098042728">
<ele>469</ele>
<time>2024-05-07T12:56:27Z</time>
</trkpt>
<trkpt lat="49.076171815395355" lon="9.560025176033378">
<ele>469</ele>
<time>2024-05-07T12:56:29Z</time>
</trkpt>
<trkpt lat="49.07616804353893" lon="9.560025176033378">
<ele>469</ele>
<time>2024-05-07T12:56:31Z</time>
</trkpt>
<trkpt lat="49.07616804353893" lon="9.560023248195648">
<ele>469</ele>
<time>2024-05-07T12:56:33Z</time>
</trkpt>
<trkpt lat="49.076171815395355" lon="9.560023248195648">
<ele>469</ele>
<time>2024-05-07T12:56:35Z</time>
</trkpt>
<trkpt lat="49.07616804353893" lon="9.560023248195648">
<ele>469</ele>
<time>2024-05-07T12:56:37Z</time>
</trkpt>
<trkpt lat="49.07616804353893" lon="9.56002132035792">
<ele>469</ele>
<time>2024-05-07T12:56:38Z</time>
</trkpt>
<trkpt lat="49.07616804353893" lon="9.56002039834857">
<ele>469</ele>
<time>2024-05-07T12:56:58Z</time>
</trkpt>
<trkpt lat="49.07616804353893" lon="9.56001847051084">
<ele>469</ele>
<time>2024-05-07T12:57:08Z</time>
</trkpt>
<trkpt lat="49.07616804353893" lon="9.560016626492144">
<ele>469</ele>
<time>2024-05-07T12:57:13Z</time>
</trkpt>
<trkpt lat="49.07616804353893" lon="9.560014698654411">
<ele>469</ele>
<time>2024-05-07T12:57:21Z</time>
</trkpt>
<trkpt lat="49.07616418786347" lon="9.560014698654411">
<ele>469</ele>
<time>2024-05-07T12:57:24Z</time>
</trkpt>
<trkpt lat="49.07616418786347" lon="9.560013692826033">
<ele>469</ele>
<time>2024-05-07T12:57:32Z</time>
</trkpt>
<trkpt lat="49.07616418786347" lon="9.560014698654411">
<ele>469</ele>
<time>2024-05-07T12:57:35Z</time>
</trkpt>
<trkpt lat="49.07616418786347" lon="9.560013692826033">
<ele>469</ele>
<time>2024-05-07T12:57:36Z</time>
</trkpt>
<trkpt lat="49.07616418786347" lon="9.560014698654411">
<ele>469</ele>
<time>2024-05-07T12:57:38Z</time>
</trkpt>
<trkpt lat="49.07616418786347" lon="9.560013692826033">
<ele>469</ele>
<time>2024-05-07T12:57:39Z</time>
</trkpt>
<trkpt lat="49.07616418786347" lon="9.560014698654411">
<ele>469</ele>
<time>2024-05-07T12:57:44Z</time>
</trkpt>
<trkpt lat="49.07616418786347" lon="9.560013692826033">
<ele>469</ele>
<time>2024-05-07T12:58:02Z</time>
</trkpt>
<trkpt lat="49.07616418786347" lon="9.560014698654411">
<ele>469</ele>
<time>2024-05-07T12:58:06Z</time>
</trkpt>
<trkpt lat="49.07616418786347" lon="9.560013692826033">
<ele>469</ele>
<time>2024-05-07T12:58:23Z</time>
</trkpt>
<trkpt lat="49.07616418786347" lon="9.560011848807337">
<ele>469</ele>
<time>2024-05-07T12:58:31Z</time>
</trkpt>
<trkpt lat="49.07616418786347" lon="9.560009920969604">
<ele>469</ele>
<time>2024-05-07T12:58:43Z</time>
</trkpt>
<trkpt lat="49.07616804353893" lon="9.560009920969604">
<ele>469</ele>
<time>2024-05-07T12:58:52Z</time>
</trkpt>
<trkpt lat="49.07616804353893" lon="9.560007993131876">
<ele>469</ele>
<time>2024-05-07T12:58:53Z</time>
</trkpt>
<trkpt lat="49.07616804353893" lon="9.560007071122527">
<ele>469</ele>
<time>2024-05-07T12:59:00Z</time>
</trkpt>
<trkpt lat="49.07616804353893" lon="9.560005143284798">
<ele>469</ele>
<time>2024-05-07T12:59:08Z</time>
</trkpt>
<trkpt lat="49.07616804353893" lon="9.560003215447068">
<ele>469</ele>
<time>2024-05-07T12:59:14Z</time>
</trkpt>
<trkpt lat="49.07616804353893" lon="9.56000137142837">
<ele>469</ele>
<time>2024-05-07T12:59:18Z</time>
</trkpt>
<trkpt lat="49.07616804353893" lon="9.56000036559999">
<ele>469</ele>
<time>2024-05-07T12:59:21Z</time>
</trkpt>
<trkpt lat="49.07616804353893" lon="9.55999843776226">
<ele>469</ele>
<time>2024-05-07T12:59:26Z</time>
</trkpt>
<trkpt lat="49.07616804353893" lon="9.559996593743564">
<ele>469</ele>
<time>2024-05-07T12:59:30Z</time>
</trkpt>
<trkpt lat="49.07616804353893" lon="9.559994665905831">
<ele>469</ele>
<time>2024-05-07T12:59:34Z</time>
</trkpt>
<trkpt lat="49.07616804353893" lon="9.559993743896484">
<ele>469</ele>
<time>2024-05-07T12:59:38Z</time>
</trkpt>
<trkpt lat="49.07616418786347" lon="9.559993743896484">
<ele>469</ele>
<time>2024-05-07T12:59:42Z</time>
</trkpt>
<trkpt lat="49.07616418786347" lon="9.559991816058757">
<ele>469</ele>
<time>2024-05-07T12:59:43Z</time>
</trkpt>
<trkpt lat="49.07616418786347" lon="9.559993743896484">
<ele>469</ele>
<time>2024-05-07T13:00:00Z</time>
</trkpt>
<trkpt lat="49.07616041600704" lon="9.559993743896484">
<ele>469</ele>
<time>2024-05-07T13:00:05Z</time>
</trkpt>
<trkpt lat="49.07616041600704" lon="9.559994665905831">
<ele>469</ele>
<time>2024-05-07T13:00:21Z</time>
</trkpt>
<trkpt lat="49.07616041600704" lon="9.559993743896484">
<ele>469</ele>
<time>2024-05-07T13:00:26Z</time>
</trkpt>
<trkpt lat="49.07615656033158" lon="9.559993743896484">
<ele>469</ele>
<time>2024-05-07T13:00:27Z</time>
</trkpt>
<trkpt lat="49.07615656033158" lon="9.559991816058757">
<ele>469</ele>
<time>2024-05-07T13:00:30Z</time>
</trkpt>
<trkpt lat="49.07615656033158" lon="9.559989888221024">
<ele>469</ele>
<time>2024-05-07T13:00:37Z</time>
</trkpt>
<trkpt lat="49.07615656033158" lon="9.559987960383296">
<ele>469</ele>
<time>2024-05-07T13:00:41Z</time>
</trkpt>
<trkpt lat="49.07615656033158" lon="9.559987038373947">
<ele>469</ele>
<time>2024-05-07T13:00:44Z</time>
</trkpt>
<trkpt lat="49.07615656033158" lon="9.559985110536218">
<ele>469</ele>
<time>2024-05-07T13:00:52Z</time>
</trkpt>
<trkpt lat="49.07615656033158" lon="9.55998133867979">
<ele>469</ele>
<time>2024-05-07T13:01:00Z</time>
</trkpt>
<trkpt lat="49.07615656033158" lon="9.55998033285141">
<ele>469</ele>
<time>2024-05-07T13:01:07Z</time>
</trkpt>
<trkpt lat="49.07615656033158" lon="9.55997840501368">
<ele>469</ele>
<time>2024-05-07T13:01:13Z</time>
</trkpt>
<trkpt lat="49.07615656033158" lon="9.559976560994984">
<ele>469</ele>
<time>2024-05-07T13:01:17Z</time>
</trkpt>
<trkpt lat="49.07615656033158" lon="9.559974633157251">
<ele>469</ele>
<time>2024-05-07T13:01:21Z</time>
</trkpt>
<trkpt lat="49.07615656033158" lon="9.559973711147904">
<ele>469</ele>
<time>2024-05-07T13:01:29Z</time>
</trkpt>
<trkpt lat="49.07615656033158" lon="9.559971783310177">
<ele>469</ele>
<time>2024-05-07T13:01:32Z</time>
</trkpt>
<trkpt lat="49.07615656033158" lon="9.559969855472444">
<ele>469</ele>
<time>2024-05-07T13:01:36Z</time>
</trkpt>
<trkpt lat="49.07615656033158" lon="9.559967927634716">
<ele>469</ele>
<time>2024-05-07T13:01:45Z</time>
</trkpt>
<trkpt lat="49.07615278847515" lon="9.559967927634716">
<ele>469</ele>
<time>2024-05-07T13:01:53Z</time>
</trkpt>
<trkpt lat="49.07615278847515" lon="9.559967005625367">
<ele>469</ele>
<time>2024-05-07T13:01:54Z</time>
</trkpt>
<trkpt lat="49.07615278847515" lon="9.559965077787638">
<ele>469</ele>
<time>2024-05-07T13:01:58Z</time>
</trkpt>
<trkpt lat="49.0761489327997" lon="9.559965077787638">
<ele>469</ele>
<time>2024-05-07T13:02:00Z</time>
</trkpt>
<trkpt lat="49.0761489327997" lon="9.559963149949908">
<ele>469</ele>
<time>2024-05-07T13:02:02Z</time>
</trkpt>
<trkpt lat="49.0761489327997" lon="9.55996130593121">
<ele>469</ele>
<time>2024-05-07T13:02:04Z</time>
</trkpt>
<trkpt lat="49.0761489327997" lon="9.55996030010283">
<ele>469</ele>
<time>2024-05-07T13:02:07Z</time>
</trkpt>
<trkpt lat="49.0761489327997" lon="9.559958456084132">
<ele>469</ele>
<time>2024-05-07T13:02:10Z</time>
</trkpt>
<trkpt lat="49.0761489327997" lon="9.559956528246405">
<ele>469</ele>
<time>2024-05-07T13:02:12Z</time>
</trkpt>
<trkpt lat="49.07614516094327" lon="9.559956528246405">
<ele>469</ele>
<time>2024-05-07T13:02:15Z</time>
</trkpt>
<trkpt lat="49.07614516094327" lon="9.559954600408672">
<ele>469</ele>
<time>2024-05-07T13:02:17Z</time>
</trkpt>
<trkpt lat="49.07614516094327" lon="9.559953678399324">
<ele>469</ele>
<time>2024-05-07T13:02:18Z</time>
</trkpt>
<trkpt lat="49.07614516094327" lon="9.559951750561597">
<ele>469</ele>
<time>2024-05-07T13:02:28Z</time>
</trkpt>
<trkpt lat="49.07614516094327" lon="9.559949822723866">
<ele>469</ele>
<time>2024-05-07T13:02:29Z</time>
</trkpt>
<trkpt lat="49.07614516094327" lon="9.559947894886136">
<ele>469</ele>
<time>2024-05-07T13:02:37Z</time>
</trkpt>
<trkpt lat="49.07614516094327" lon="9.559946972876787">
<ele>469</ele>
<time>2024-05-07T13:02:51Z</time>
</trkpt>
<trkpt lat="49.07614516094327" lon="9.559945045039058">
<ele>469</ele>
<time>2024-05-07T13:02:58Z</time>
</trkpt>
<trkpt lat="49.07614516094327" lon="9.559943117201328">
<ele>469</ele>
<time>2024-05-07T13:03:07Z</time>
</trkpt>
<trkpt lat="49.07614516094327" lon="9.55994127318263">
<ele>469</ele>
<time>2024-05-07T13:03:09Z</time>
</trkpt>
<trkpt lat="49.07614130526781" lon="9.55994127318263">
<ele>469</ele>
<time>2024-05-07T13:03:10Z</time>
</trkpt>
<trkpt lat="49.07614130526781" lon="9.55994026735425">
<ele>469</ele>
<time>2024-05-07T13:03:20Z</time>
</trkpt>
<trkpt lat="49.07614130526781" lon="9.55994127318263">
<ele>469</ele>
<time>2024-05-07T13:03:21Z</time>
</trkpt>
<trkpt lat="49.07614130526781" lon="9.55994026735425">
<ele>469</ele>
<time>2024-05-07T13:03:25Z</time>
</trkpt>
<trkpt lat="49.07614130526781" lon="9.559938423335552">
<ele>469</ele>
<time>2024-05-07T13:03:27Z</time>
</trkpt>
<trkpt lat="49.07614130526781" lon="9.559936495497825">
<ele>469</ele>
<time>2024-05-07T13:03:36Z</time>
</trkpt>
<trkpt lat="49.07614130526781" lon="9.559938423335552">
<ele>469</ele>
<time>2024-05-07T13:03:47Z</time>
</trkpt>
<trkpt lat="49.07614130526781" lon="9.55994026735425">
<ele>469</ele>
<time>2024-05-07T13:03:50Z</time>
</trkpt>
<trkpt lat="49.07614130526781" lon="9.55994127318263">
<ele>469</ele>
<time>2024-05-07T13:03:55Z</time>
</trkpt>
<trkpt lat="49.076137533411384" lon="9.55994127318263">
<ele>469</ele>
<time>2024-05-07T13:04:10Z</time>
</trkpt>
<trkpt lat="49.076137533411384" lon="9.55994026735425">
<ele>469</ele>
<time>2024-05-07T13:04:13Z</time>
</trkpt>
<trkpt lat="49.076137533411384" lon="9.559938423335552">
<ele>469</ele>
<time>2024-05-07T13:04:15Z</time>
</trkpt>
<trkpt lat="49.076137533411384" lon="9.559936495497825">
<ele>469</ele>
<time>2024-05-07T13:04:18Z</time>
</trkpt>
<trkpt lat="49.076133677735925" lon="9.559936495497825">
<ele>469</ele>
<time>2024-05-07T13:04:21Z</time>
</trkpt>
<trkpt lat="49.076137533411384" lon="9.559936495497825">
<ele>469</ele>
<time>2024-05-07T13:04:27Z</time>
</trkpt>
<trkpt lat="49.076137533411384" lon="9.559938423335552">
<ele>469</ele>
<time>2024-05-07T13:04:34Z</time>
</trkpt>
<trkpt lat="49.076137533411384" lon="9.55994026735425">
<ele>469</ele>
<time>2024-05-07T13:04:38Z</time>
</trkpt>
<trkpt lat="49.076137533411384" lon="9.55994127318263">
<ele>469</ele>
<time>2024-05-07T13:04:40Z</time>
</trkpt>
<trkpt lat="49.076137533411384" lon="9.55994026735425">
<ele>469</ele>
<time>2024-05-07T13:04:41Z</time>
</trkpt>
<trkpt lat="49.076137533411384" lon="9.559938423335552">
<ele>469</ele>
<time>2024-05-07T13:04:50Z</time>
</trkpt>
<trkpt lat="49.076137533411384" lon="9.55994026735425">
<ele>469</ele>
<time>2024-05-07T13:04:55Z</time>
</trkpt>
<trkpt lat="49.076137533411384" lon="9.55994127318263">
<ele>469</ele>
<time>2024-05-07T13:04:59Z</time>
</trkpt>
<trkpt lat="49.076137533411384" lon="9.559943117201328">
<ele>469</ele>
<time>2024-05-07T13:05:01Z</time>
</trkpt>
<trkpt lat="49.076137533411384" lon="9.55994127318263">
<ele>469</ele>
<time>2024-05-07T13:05:02Z</time>
</trkpt>
<trkpt lat="49.076137533411384" lon="9.559943117201328">
<ele>469</ele>
<time>2024-05-07T13:05:07Z</time>
</trkpt>
<trkpt lat="49.076137533411384" lon="9.55994127318263">
<ele>469</ele>
<time>2024-05-07T13:05:23Z</time>
</trkpt>
<trkpt lat="49.076137533411384" lon="9.559943117201328">
<ele>469</ele>
<time>2024-05-07T13:05:26Z</time>
</trkpt>
<trkpt lat="49.076133677735925" lon="9.55994127318263">
<ele>469</ele>
<time>2024-05-07T13:05:41Z</time>
</trkpt>
<trkpt lat="49.076133677735925" lon="9.559943117201328">
<ele>469</ele>
<time>2024-05-07T13:05:50Z</time>
</trkpt>
<trkpt lat="49.076133677735925" lon="9.559945045039058">
<ele>469</ele>
<time>2024-05-07T13:05:55Z</time>
</trkpt>
<trkpt lat="49.076133677735925" lon="9.559946972876787">
<ele>469</ele>
<time>2024-05-07T13:05:59Z</time>
</trkpt>
<trkpt lat="49.076133677735925" lon="9.559947894886136">
<ele>469</ele>
<time>2024-05-07T13:06:03Z</time>
</trkpt>
<trkpt lat="49.076133677735925" lon="9.559946972876787">
<ele>469</ele>
<time>2024-05-07T13:06:10Z</time>
</trkpt>
<trkpt lat="49.0761299058795" lon="9.559946972876787">
<ele>469</ele>
<time>2024-05-07T13:06:12Z</time>
</trkpt>
<trkpt lat="49.0761299058795" lon="9.559947894886136">
<ele>469</ele>
<time>2024-05-07T13:06:17Z</time>
</trkpt>
<trkpt lat="49.0761299058795" lon="9.559949822723866">
<ele>469</ele>
<time>2024-05-07T13:06:23Z</time>
</trkpt>
<trkpt lat="49.0761299058795" lon="9.559951750561597">
<ele>469</ele>
<time>2024-05-07T13:06:34Z</time>
</trkpt>
<trkpt lat="49.0761299058795" lon="9.559949822723866">
<ele>469</ele>
<time>2024-05-07T13:06:35Z</time>
</trkpt>
<trkpt lat="49.0761299058795" lon="9.559951750561597">
<ele>469</ele>
<time>2024-05-07T13:06:50Z</time>
</trkpt>
<trkpt lat="49.0761299058795" lon="9.559949822723866">
<ele>469</ele>
<time>2024-05-07T13:06:53Z</time>
</trkpt>
<trkpt lat="49.0761299058795" lon="9.559947894886136">
<ele>469</ele>
<time>2024-05-07T13:07:09Z</time>
</trkpt>
<trkpt lat="49.0761299058795" lon="9.559946972876787">
<ele>469</ele>
<time>2024-05-07T13:07:12Z</time>
</trkpt>
<trkpt lat="49.0761299058795" lon="9.559947894886136">
<ele>469</ele>
<time>2024-05-07T13:07:15Z</time>
</trkpt>
<trkpt lat="49.0761299058795" lon="9.559946972876787">
<ele>469</ele>
<time>2024-05-07T13:07:16Z</time>
</trkpt>
<trkpt lat="49.0761299058795" lon="9.559947894886136">
<ele>469</ele>
<time>2024-05-07T13:07:17Z</time>
</trkpt>
<trkpt lat="49.07612605020404" lon="9.559947894886136">
<ele>469</ele>
<time>2024-05-07T13:07:25Z</time>
</trkpt>
<trkpt lat="49.0761299058795" lon="9.559949822723866">
<ele>469</ele>
<time>2024-05-07T13:07:32Z</time>
</trkpt>
<trkpt lat="49.0761299058795" lon="9.559951750561597">
<ele>469</ele>
<time>2024-05-07T13:07:34Z</time>
</trkpt>
<trkpt lat="49.0761299058795" lon="9.559949822723866">
<ele>469</ele>
<time>2024-05-07T13:07:39Z</time>
</trkpt>
<trkpt lat="49.0761299058795" lon="9.559947894886136">
<ele>469</ele>
<time>2024-05-07T13:07:46Z</time>
</trkpt>
<trkpt lat="49.0761299058795" lon="9.559949822723866">
<ele>469</ele>
<time>2024-05-07T13:07:49Z</time>
</trkpt>
<trkpt lat="49.0761299058795" lon="9.559951750561597">
<ele>469</ele>
<time>2024-05-07T13:07:58Z</time>
</trkpt>
<trkpt lat="49.0761299058795" lon="9.559953678399324">
<ele>469</ele>
<time>2024-05-07T13:08:02Z</time>
</trkpt>
<trkpt lat="49.0761299058795" lon="9.559951750561597">
<ele>469</ele>
<time>2024-05-07T13:08:03Z</time>
</trkpt>
<trkpt lat="49.0761299058795" lon="9.559953678399324">
<ele>469</ele>
<time>2024-05-07T13:08:04Z</time>
</trkpt>
<trkpt lat="49.0761299058795" lon="9.559954600408672">
<ele>469</ele>
<time>2024-05-07T13:08:13Z</time>
</trkpt>
<trkpt lat="49.0761299058795" lon="9.559953678399324">
<ele>469</ele>
<time>2024-05-07T13:08:14Z</time>
</trkpt>
<trkpt lat="49.0761299058795" lon="9.559954600408672">
<ele>469</ele>
<time>2024-05-07T13:08:15Z</time>
</trkpt>
<trkpt lat="49.0761299058795" lon="9.559956528246405">
<ele>469</ele>
<time>2024-05-07T13:08:19Z</time>
</trkpt>
<trkpt lat="49.0761299058795" lon="9.559954600408672">
<ele>469</ele>
<time>2024-05-07T13:08:21Z</time>
</trkpt>
<trkpt lat="49.0761299058795" lon="9.559956528246405">
<ele>469</ele>
<time>2024-05-07T13:08:25Z</time>
</trkpt>
<trkpt lat="49.0761299058795" lon="9.559958456084132">
<ele>469</ele>
<time>2024-05-07T13:08:30Z</time>
</trkpt>
<trkpt lat="49.0761299058795" lon="9.55996030010283">
<ele>469</ele>
<time>2024-05-07T13:08:32Z</time>
</trkpt>
<trkpt lat="49.0761299058795" lon="9.559958456084132">
<ele>469</ele>
<time>2024-05-07T13:08:33Z</time>
</trkpt>
<trkpt lat="49.0761299058795" lon="9.55996130593121">
<ele>469</ele>
<time>2024-05-07T13:08:34Z</time>
</trkpt>
<trkpt lat="49.0761299058795" lon="9.559963149949908">
<ele>469</ele>
<time>2024-05-07T13:08:35Z</time>
</trkpt>
<trkpt lat="49.0761299058795" lon="9.55996130593121">
<ele>469</ele>
<time>2024-05-07T13:08:41Z</time>
</trkpt>
<trkpt lat="49.0761299058795" lon="9.559963149949908">
<ele>469</ele>
<time>2024-05-07T13:08:42Z</time>
</trkpt>
<trkpt lat="49.0761299058795" lon="9.559967005625367">
<ele>469</ele>
<time>2024-05-07T13:08:44Z</time>
</trkpt>
<trkpt lat="49.0761299058795" lon="9.559967927634716">
<ele>469</ele>
<time>2024-05-07T13:08:46Z</time>
</trkpt>
<trkpt lat="49.0761299058795" lon="9.559969855472444">
<ele>469</ele>
<time>2024-05-07T13:08:51Z</time>
</trkpt>
<trkpt lat="49.0761299058795" lon="9.559971783310177">
<ele>469</ele>
<time>2024-05-07T13:08:54Z</time>
</trkpt>
<trkpt lat="49.076133677735925" lon="9.559971783310177">
<ele>469</ele>
<time>2024-05-07T13:08:56Z</time>
</trkpt>
<trkpt lat="49.076133677735925" lon="9.559973711147904">
<ele>469</ele>
<time>2024-05-07T13:08:59Z</time>
</trkpt>
<trkpt lat="49.076133677735925" lon="9.559974633157251">
<ele>469</ele>
<time>2024-05-07T13:09:01Z</time>
</trkpt>
<trkpt lat="49.076133677735925" lon="9.559976560994984">
<ele>469</ele>
<time>2024-05-07T13:09:03Z</time>
</trkpt>
<trkpt lat="49.076133677735925" lon="9.55997840501368">
<ele>469</ele>
<time>2024-05-07T13:09:06Z</time>
</trkpt>
<trkpt lat="49.076137533411384" lon="9.55997840501368">
<ele>469</ele>
<time>2024-05-07T13:09:07Z</time>
</trkpt>
<trkpt lat="49.076137533411384" lon="9.55998033285141">
<ele>469</ele>
<time>2024-05-07T13:09:08Z</time>
</trkpt>
<trkpt lat="49.076137533411384" lon="9.559983182698488">
<ele>469</ele>
<time>2024-05-07T13:09:09Z</time>
</trkpt>
<trkpt lat="49.076137533411384" lon="9.559985110536218">
<ele>469</ele>
<time>2024-05-07T13:09:11Z</time>
</trkpt>
<trkpt lat="49.07614130526781" lon="9.559987038373947">
<ele>469</ele>
<time>2024-05-07T13:09:13Z</time>
</trkpt>
<trkpt lat="49.07614130526781" lon="9.559987960383296">
<ele>469</ele>
<time>2024-05-07T13:09:17Z</time>
</trkpt>
<trkpt lat="49.07614130526781" lon="9.559989888221024">
<ele>469</ele>
<time>2024-05-07T13:09:19Z</time>
</trkpt>
<trkpt lat="49.07614130526781" lon="9.559991816058757">
<ele>469</ele>
<time>2024-05-07T13:09:20Z</time>
</trkpt>
<trkpt lat="49.07614516094327" lon="9.559991816058757">
<ele>469</ele>
<time>2024-05-07T13:09:21Z</time>
</trkpt>
<trkpt lat="49.07614516094327" lon="9.559993743896484">
<ele>469</ele>
<time>2024-05-07T13:09:22Z</time>
</trkpt>
<trkpt lat="49.07614516094327" lon="9.559994665905831">
<ele>469</ele>
<time>2024-05-07T13:09:23Z</time>
</trkpt>
<trkpt lat="49.07614516094327" lon="9.559996593743564">
<ele>469</ele>
<time>2024-05-07T13:09:25Z</time>
</trkpt>
<trkpt lat="49.07614516094327" lon="9.55999843776226">
<ele>469</ele>
<time>2024-05-07T13:09:27Z</time>
</trkpt>
<trkpt lat="49.07614516094327" lon="9.56000036559999">
<ele>469</ele>
<time>2024-05-07T13:09:30Z</time>
</trkpt>
<trkpt lat="49.0761489327997" lon="9.56000036559999">
<ele>469</ele>
<time>2024-05-07T13:09:31Z</time>
</trkpt>
<trkpt lat="49.0761489327997" lon="9.56000137142837">
<ele>469</ele>
<time>2024-05-07T13:09:32Z</time>
</trkpt>
<trkpt lat="49.0761489327997" lon="9.560003215447068">
<ele>469</ele>
<time>2024-05-07T13:09:34Z</time>
</trkpt>
<trkpt lat="49.0761489327997" lon="9.560005143284798">
<ele>469</ele>
<time>2024-05-07T13:09:37Z</time>
</trkpt>
<trkpt lat="49.0761489327997" lon="9.560007071122527">
<ele>469</ele>
<time>2024-05-07T13:09:43Z</time>
</trkpt>
<trkpt lat="49.0761489327997" lon="9.560005143284798">
<ele>469</ele>
<time>2024-05-07T13:09:44Z</time>
</trkpt>
<trkpt lat="49.0761489327997" lon="9.560003215447068">
<ele>469</ele>
<time>2024-05-07T13:09:55Z</time>
</trkpt>
<trkpt lat="49.0761489327997" lon="9.560005143284798">
<ele>469</ele>
<time>2024-05-07T13:09:58Z</time>
</trkpt>
<trkpt lat="49.0761489327997" lon="9.560007071122527">
<ele>469</ele>
<time>2024-05-07T13:10:06Z</time>
</trkpt>
<trkpt lat="49.0761489327997" lon="9.560007993131876">
<ele>469</ele>
<time>2024-05-07T13:10:08Z</time>
</trkpt>
<trkpt lat="49.0761489327997" lon="9.560007071122527">
<ele>469</ele>
<time>2024-05-07T13:10:11Z</time>
</trkpt>
<trkpt lat="49.0761489327997" lon="9.560005143284798">
<ele>469</ele>
<time>2024-05-07T13:10:13Z</time>
</trkpt>
<trkpt lat="49.0761489327997" lon="9.560003215447068">
<ele>469</ele>
<time>2024-05-07T13:10:18Z</time>
</trkpt>
<trkpt lat="49.07614516094327" lon="9.560003215447068">
<ele>469</ele>
<time>2024-05-07T13:10:21Z</time>
</trkpt>
<trkpt lat="49.07614516094327" lon="9.56000137142837">
<ele>469</ele>
<time>2024-05-07T13:10:22Z</time>
</trkpt>
<trkpt lat="49.07614516094327" lon="9.56000036559999">
<ele>469</ele>
<time>2024-05-07T13:10:30Z</time>
</trkpt>
<trkpt lat="49.07614516094327" lon="9.55999843776226">
<ele>469</ele>
<time>2024-05-07T13:10:32Z</time>
</trkpt>
<trkpt lat="49.07614516094327" lon="9.559996593743564">
<ele>469</ele>
<time>2024-05-07T13:10:35Z</time>
</trkpt>
<trkpt lat="49.07614516094327" lon="9.559994665905831">
<ele>469</ele>
<time>2024-05-07T13:10:37Z</time>
</trkpt>
<trkpt lat="49.07614516094327" lon="9.559993743896484">
<ele>469</ele>
<time>2024-05-07T13:10:41Z</time>
</trkpt>
<trkpt lat="49.07614516094327" lon="9.559991816058757">
<ele>469</ele>
<time>2024-05-07T13:10:48Z</time>
</trkpt>
<trkpt lat="49.07614516094327" lon="9.559989888221024">
<ele>469</ele>
<time>2024-05-07T13:10:52Z</time>
</trkpt>
<trkpt lat="49.07614516094327" lon="9.559987960383296">
<ele>469</ele>
<time>2024-05-07T13:10:57Z</time>
</trkpt>
<trkpt lat="49.07614516094327" lon="9.559987038373947">
<ele>469</ele>
<time>2024-05-07T13:11:00Z</time>
</trkpt>
<trkpt lat="49.07614516094327" lon="9.559985110536218">
<ele>469</ele>
<time>2024-05-07T13:11:09Z</time>
</trkpt>
<trkpt lat="49.07614516094327" lon="9.559987038373947">
<ele>469</ele>
<time>2024-05-07T13:11:14Z</time>
</trkpt>
<trkpt lat="49.07614516094327" lon="9.559985110536218">
<ele>469</ele>
<time>2024-05-07T13:11:15Z</time>
</trkpt>
<trkpt lat="49.07614516094327" lon="9.559983182698488">
<ele>469</ele>
<time>2024-05-07T13:11:33Z</time>
</trkpt>
<trkpt lat="49.07614516094327" lon="9.55998133867979">
<ele>469</ele>
<time>2024-05-07T13:11:45Z</time>
</trkpt>
<trkpt lat="49.07614516094327" lon="9.55998033285141">
<ele>469</ele>
<time>2024-05-07T13:11:51Z</time>
</trkpt>
<trkpt lat="49.07614516094327" lon="9.55998133867979">
<ele>469</ele>
<time>2024-05-07T13:12:27Z</time>
</trkpt>
<trkpt lat="49.07614516094327" lon="9.55998033285141">
<ele>469</ele>
<time>2024-05-07T13:12:33Z</time>
</trkpt>
<trkpt lat="49.07614130526781" lon="9.55998033285141">
<ele>469</ele>
<time>2024-05-07T13:12:38Z</time>
</trkpt>
<trkpt lat="49.07614130526781" lon="9.55997840501368">
<ele>469</ele>
<time>2024-05-07T13:12:40Z</time>
</trkpt>
<trkpt lat="49.07614130526781" lon="9.55998033285141">
<ele>469</ele>
<time>2024-05-07T13:12:42Z</time>
</trkpt>
<trkpt lat="49.07614130526781" lon="9.55997840501368">
<ele>469</ele>
<time>2024-05-07T13:12:43Z</time>
</trkpt>
<trkpt lat="49.07614130526781" lon="9.559976560994984">
<ele>469</ele>
<time>2024-05-07T13:12:48Z</time>
</trkpt>
<trkpt lat="49.07614130526781" lon="9.55997840501368">
<ele>469</ele>
<time>2024-05-07T13:12:54Z</time>
</trkpt>
<trkpt lat="49.07614130526781" lon="9.55998033285141">
<ele>469</ele>
<time>2024-05-07T13:12:59Z</time>
</trkpt>
<trkpt lat="49.07614516094327" lon="9.55998033285141">
<ele>469</ele>
<time>2024-05-07T13:13:01Z</time>
</trkpt>
<trkpt lat="49.07614516094327" lon="9.55998133867979">
<ele>469</ele>
<time>2024-05-07T13:13:03Z</time>
</trkpt>
<trkpt lat="49.07614516094327" lon="9.55997840501368">
<ele>469</ele>
<time>2024-05-07T13:13:38Z</time>
</trkpt>
<trkpt lat="49.07614516094327" lon="9.55998033285141">
<ele>469</ele>
<time>2024-05-07T13:13:40Z</time>
</trkpt>
<trkpt lat="49.0761489327997" lon="9.559985110536218">
<ele>469</ele>
<time>2024-05-07T13:13:42Z</time>
</trkpt>
<trkpt lat="49.0761489327997" lon="9.559987038373947">
<ele>469</ele>
<time>2024-05-07T13:13:43Z</time>
</trkpt>
<trkpt lat="49.0761489327997" lon="9.559991816058757">
<ele>469</ele>
<time>2024-05-07T13:13:44Z</time>
</trkpt>
<trkpt lat="49.0761489327997" lon="9.559993743896484">
<ele>469</ele>
<time>2024-05-07T13:13:45Z</time>
</trkpt>
<trkpt lat="49.0761489327997" lon="9.559991816058757">
<ele>469</ele>
<time>2024-05-07T13:13:47Z</time>
</trkpt>
<trkpt lat="49.0761489327997" lon="9.559993743896484">
<ele>469</ele>
<time>2024-05-07T13:13:48Z</time>
</trkpt>
<trkpt lat="49.0761489327997" lon="9.559991816058757">
<ele>469</ele>
<time>2024-05-07T13:13:49Z</time>
</trkpt>
<trkpt lat="49.0761489327997" lon="9.559987038373947">
<ele>469</ele>
<time>2024-05-07T13:13:50Z</time>
</trkpt>
<trkpt lat="49.0761489327997" lon="9.559985110536218">
<ele>469</ele>
<time>2024-05-07T13:13:51Z</time>
</trkpt>
<trkpt lat="49.07614516094327" lon="9.559983182698488">
<ele>469</ele>
<time>2024-05-07T13:13:52Z</time>
</trkpt>
<trkpt lat="49.07614516094327" lon="9.55998133867979">
<ele>469</ele>
<time>2024-05-07T13:13:54Z</time>
</trkpt>
<trkpt lat="49.0761489327997" lon="9.559985110536218">
<ele>469</ele>
<time>2024-05-07T13:13:57Z</time>
</trkpt>
<trkpt lat="49.07614516094327" lon="9.55998033285141">
<ele>469</ele>
<time>2024-05-07T13:14:05Z</time>
</trkpt>
<trkpt lat="49.07614516094327" lon="9.55997840501368">
<ele>469</ele>
<time>2024-05-07T13:14:09Z</time>
</trkpt>
<trkpt lat="49.0761489327997" lon="9.55998133867979">
<ele>469</ele>
<time>2024-05-07T13:14:15Z</time>
</trkpt>
<trkpt lat="49.0761489327997" lon="9.559983182698488">
<ele>469</ele>
<time>2024-05-07T13:14:26Z</time>
</trkpt>
<trkpt lat="49.07615278847515" lon="9.55998133867979">
<ele>469</ele>
<time>2024-05-07T13:14:27Z</time>
</trkpt>
<trkpt lat="49.07615278847515" lon="9.559983182698488">
<ele>469</ele>
<time>2024-05-07T13:14:29Z</time>
</trkpt>
<trkpt lat="49.07615656033158" lon="9.559983182698488">
<ele>469</ele>
<time>2024-05-07T13:14:41Z</time>
</trkpt>
<trkpt lat="49.07615656033158" lon="9.559985110536218">
<ele>469</ele>
<time>2024-05-07T13:14:43Z</time>
</trkpt>
<trkpt lat="49.07615656033158" lon="9.559987038373947">
<ele>469</ele>
<time>2024-05-07T13:14:48Z</time>
</trkpt>
<trkpt lat="49.07615656033158" lon="9.559985110536218">
<ele>469</ele>
<time>2024-05-07T13:14:51Z</time>
</trkpt>
<trkpt lat="49.07615656033158" lon="9.559987038373947">
<ele>469</ele>
<time>2024-05-07T13:14:59Z</time>
</trkpt>
<trkpt lat="49.07616041600704" lon="9.559987038373947">
<ele>469</ele>
<time>2024-05-07T13:15:05Z</time>
</trkpt>
<trkpt lat="49.07616041600704" lon="9.559985110536218">
<ele>469</ele>
<time>2024-05-07T13:15:14Z</time>
</trkpt>
<trkpt lat="49.07615656033158" lon="9.559985110536218">
<ele>469</ele>
<time>2024-05-07T13:15:15Z</time>
</trkpt>
<trkpt lat="49.07615656033158" lon="9.559983182698488">
<ele>469</ele>
<time>2024-05-07T13:15:17Z</time>
</trkpt>
<trkpt lat="49.07615656033158" lon="9.55998133867979">
<ele>469</ele>
<time>2024-05-07T13:15:27Z</time>
</trkpt>
<trkpt lat="49.07615656033158" lon="9.55998033285141">
<ele>469</ele>
<time>2024-05-07T13:15:32Z</time>
</trkpt>
<trkpt lat="49.07616041600704" lon="9.55998033285141">
<ele>469</ele>
<time>2024-05-07T13:15:40Z</time>
</trkpt>
<trkpt lat="49.07616041600704" lon="9.55997840501368">
<ele>469</ele>
<time>2024-05-07T13:15:44Z</time>
</trkpt>
<trkpt lat="49.07616041600704" lon="9.559976560994984">
<ele>469</ele>
<time>2024-05-07T13:15:46Z</time>
</trkpt>
<trkpt lat="49.07616041600704" lon="9.559974633157251">
<ele>469</ele>
<time>2024-05-07T13:15:48Z</time>
</trkpt>
<trkpt lat="49.07616041600704" lon="9.559976560994984">
<ele>469</ele>
<time>2024-05-07T13:16:01Z</time>
</trkpt>
<trkpt lat="49.07616041600704" lon="9.559974633157251">
<ele>469</ele>
<time>2024-05-07T13:16:27Z</time>
</trkpt>
<trkpt lat="49.07616041600704" lon="9.559976560994984">
<ele>469</ele>
<time>2024-05-07T13:16:28Z</time>
</trkpt>
<trkpt lat="49.07616041600704" lon="9.559974633157251">
<ele>469</ele>
<time>2024-05-07T13:16:34Z</time>
</trkpt>
<trkpt lat="49.07616041600704" lon="9.559976560994984">
<ele>469</ele>
<time>2024-05-07T13:16:36Z</time>
</trkpt>
<trkpt lat="49.07615656033158" lon="9.559974633157251">
<ele>469</ele>
<time>2024-05-07T13:16:40Z</time>
</trkpt>
<trkpt lat="49.07615656033158" lon="9.559973711147904">
<ele>469</ele>
<time>2024-05-07T13:17:01Z</time>
</trkpt>
<trkpt lat="49.07615656033158" lon="9.559971783310177">
<ele>469</ele>
<time>2024-05-07T13:17:05Z</time>
</trkpt>
<trkpt lat="49.07615656033158" lon="9.559969855472444">
<ele>469</ele>
<time>2024-05-07T13:17:12Z</time>
</trkpt>
<trkpt lat="49.07615656033158" lon="9.559971783310177">
<ele>469</ele>
<time>2024-05-07T13:17:25Z</time>
</trkpt>
<trkpt lat="49.07615656033158" lon="9.559973711147904">
<ele>469</ele>
<time>2024-05-07T13:17:29Z</time>
</trkpt>
<trkpt lat="49.07615656033158" lon="9.559974633157251">
<ele>469</ele>
<time>2024-05-07T13:17:33Z</time>
</trkpt>
<trkpt lat="49.07615656033158" lon="9.559973711147904">
<ele>469</ele>
<time>2024-05-07T13:17:38Z</time>
</trkpt>
<trkpt lat="49.07615656033158" lon="9.559971783310177">
<ele>469</ele>
<time>2024-05-07T13:17:40Z</time>
</trkpt>
<trkpt lat="49.07615656033158" lon="9.559973711147904">
<ele>469</ele>
<time>2024-05-07T13:18:01Z</time>
</trkpt>
<trkpt lat="49.07615656033158" lon="9.559974633157251">
<ele>469</ele>
<time>2024-05-07T13:18:16Z</time>
</trkpt>
<trkpt lat="49.07615278847515" lon="9.559973711147904">
<ele>469</ele>
<time>2024-05-07T13:18:18Z</time>
</trkpt>
<trkpt lat="49.07615278847515" lon="9.559974633157251">
<ele>469</ele>
<time>2024-05-07T13:18:20Z</time>
</trkpt>
<trkpt lat="49.07615278847515" lon="9.559976560994984">
<ele>469</ele>
<time>2024-05-07T13:18:25Z</time>
</trkpt>
<trkpt lat="49.0761489327997" lon="9.559976560994984">
<ele>469</ele>
<time>2024-05-07T13:18:30Z</time>
</trkpt>
<trkpt lat="49.0761489327997" lon="9.559974633157251">
<ele>469</ele>
<time>2024-05-07T13:18:35Z</time>
</trkpt>
<trkpt lat="49.0761489327997" lon="9.559976560994984">
<ele>469</ele>
<time>2024-05-07T13:18:36Z</time>
</trkpt>
<trkpt lat="49.0761489327997" lon="9.55997840501368">
<ele>469</ele>
<time>2024-05-07T13:18:47Z</time>
</trkpt>
<trkpt lat="49.0761489327997" lon="9.559976560994984">
<ele>469</ele>
<time>2024-05-07T13:18:48Z</time>
</trkpt>
<trkpt lat="49.0761489327997" lon="9.55997840501368">
<ele>469</ele>
<time>2024-05-07T13:18:49Z</time>
</trkpt>
<trkpt lat="49.0761489327997" lon="9.559976560994984">
<ele>469</ele>
<time>2024-05-07T13:18:51Z</time>
</trkpt>
<trkpt lat="49.0761489327997" lon="9.55997840501368">
<ele>469</ele>
<time>2024-05-07T13:18:52Z</time>
</trkpt>
<trkpt lat="49.0761489327997" lon="9.559976560994984">
<ele>469</ele>
<time>2024-05-07T13:18:53Z</time>
</trkpt>
<trkpt lat="49.07614516094327" lon="9.559976560994984">
<ele>469</ele>
<time>2024-05-07T13:18:58Z</time>
</trkpt>
<trkpt lat="49.0761489327997" lon="9.559976560994984">
<ele>469</ele>
<time>2024-05-07T13:19:03Z</time>
</trkpt>
<trkpt lat="49.07614516094327" lon="9.559976560994984">
<ele>469</ele>
<time>2024-05-07T13:19:04Z</time>
</trkpt>
<trkpt lat="49.07614516094327" lon="9.55997840501368">
<ele>469</ele>
<time>2024-05-07T13:19:07Z</time>
</trkpt>
<trkpt lat="49.07614130526781" lon="9.55998033285141">
<ele>469</ele>
<time>2024-05-07T13:19:09Z</time>
</trkpt>
<trkpt lat="49.076137533411384" lon="9.55998133867979">
<ele>469</ele>
<time>2024-05-07T13:19:11Z</time>
</trkpt>
<trkpt lat="49.076133677735925" lon="9.55998133867979">
<ele>469</ele>
<time>2024-05-07T13:19:12Z</time>
</trkpt>
<trkpt lat="49.076133677735925" lon="9.559983182698488">
<ele>469</ele>
<time>2024-05-07T13:19:13Z</time>
</trkpt>
<trkpt lat="49.076133677735925" lon="9.55998133867979">
<ele>469</ele>
<time>2024-05-07T13:19:15Z</time>
</trkpt>
<trkpt lat="49.076133677735925" lon="9.559983182698488">
<ele>469</ele>
<time>2024-05-07T13:19:16Z</time>
</trkpt>
<trkpt lat="49.076137533411384" lon="9.559985110536218">
<ele>469</ele>
<time>2024-05-07T13:19:17Z</time>
</trkpt>
<trkpt lat="49.076137533411384" lon="9.559983182698488">
<ele>469</ele>
<time>2024-05-07T13:19:21Z</time>
</trkpt>
<trkpt lat="49.076137533411384" lon="9.559985110536218">
<ele>469</ele>
<time>2024-05-07T13:19:23Z</time>
</trkpt>
<trkpt lat="49.076137533411384" lon="9.559987038373947">
<ele>469</ele>
<time>2024-05-07T13:19:25Z</time>
</trkpt>
<trkpt lat="49.07614130526781" lon="9.559987038373947">
<ele>469</ele>
<time>2024-05-07T13:19:26Z</time>
</trkpt>
<trkpt lat="49.07614130526781" lon="9.559987960383296">
<ele>469</ele>
<time>2024-05-07T13:19:28Z</time>
</trkpt>
<trkpt lat="49.07614130526781" lon="9.559987038373947">
<ele>469</ele>
<time>2024-05-07T13:19:43Z</time>
</trkpt>
<trkpt lat="49.07614130526781" lon="9.559987960383296">
<ele>469</ele>
<time>2024-05-07T13:19:44Z</time>
</trkpt>
<trkpt lat="49.07614516094327" lon="9.559987960383296">
<ele>469</ele>
<time>2024-05-07T13:19:50Z</time>
</trkpt>
<trkpt lat="49.07614516094327" lon="9.559989888221024">
<ele>469</ele>
<time>2024-05-07T13:19:56Z</time>
</trkpt>
<trkpt lat="49.07614130526781" lon="9.559989888221024">
<ele>469</ele>
<time>2024-05-07T13:20:02Z</time>
</trkpt>
<trkpt lat="49.07614516094327" lon="9.559989888221024">
<ele>469</ele>
<time>2024-05-07T13:20:04Z</time>
</trkpt>
<trkpt lat="49.07614516094327" lon="9.559991816058757">
<ele>469</ele>
<time>2024-05-07T13:20:05Z</time>
</trkpt>
<trkpt lat="49.07614130526781" lon="9.559989888221024">
<ele>469</ele>
<time>2024-05-07T13:20:06Z</time>
</trkpt>
<trkpt lat="49.07614130526781" lon="9.559991816058757">
<ele>469</ele>
<time>2024-05-07T13:20:07Z</time>
</trkpt>
<trkpt lat="49.07614516094327" lon="9.559991816058757">
<ele>469</ele>
<time>2024-05-07T13:20:15Z</time>
</trkpt>
<trkpt lat="49.07614516094327" lon="9.559993743896484">
<ele>469</ele>
<time>2024-05-07T13:20:21Z</time>
</trkpt>
<trkpt lat="49.07614516094327" lon="9.559994665905831">
<ele>469</ele>
<time>2024-05-07T13:20:33Z</time>
</trkpt>
<trkpt lat="49.07614516094327" lon="9.559996593743564">
<ele>469</ele>
<time>2024-05-07T13:20:40Z</time>
</trkpt>
<trkpt lat="49.07614516094327" lon="9.55999843776226">
<ele>469</ele>
<time>2024-05-07T13:20:42Z</time>
</trkpt>
<trkpt lat="49.07614130526781" lon="9.55999843776226">
<ele>469</ele>
<time>2024-05-07T13:20:56Z</time>
</trkpt>
<trkpt lat="49.07614130526781" lon="9.559996593743564">
<ele>469</ele>
<time>2024-05-07T13:21:03Z</time>
</trkpt>
<trkpt lat="49.07614130526781" lon="9.55999843776226">
<ele>469</ele>
<time>2024-05-07T13:21:38Z</time>
</trkpt>
<trkpt lat="49.07614130526781" lon="9.559996593743564">
<ele>469</ele>
<time>2024-05-07T13:21:44Z</time>
</trkpt>
<trkpt lat="49.07614130526781" lon="9.559994665905831">
<ele>469</ele>
<time>2024-05-07T13:21:49Z</time>
</trkpt>
<trkpt lat="49.07614130526781" lon="9.56000036559999">
<ele>469</ele>
<time>2024-05-07T13:21:54Z</time>
</trkpt>
<trkpt lat="49.07614516094327" lon="9.560003215447068">
<ele>469</ele>
<time>2024-05-07T13:21:55Z</time>
</trkpt>
<trkpt lat="49.07614516094327" lon="9.560005143284798">
<ele>469</ele>
<time>2024-05-07T13:21:56Z</time>
</trkpt>
<trkpt lat="49.07614516094327" lon="9.560007993131876">
<ele>469</ele>
<time>2024-05-07T13:21:57Z</time>
</trkpt>
<trkpt lat="49.0761489327997" lon="9.560007993131876">
<ele>469</ele>
<time>2024-05-07T13:21:58Z</time>
</trkpt>
<trkpt lat="49.07614516094327" lon="9.560007993131876">
<ele>469</ele>
<time>2024-05-07T13:21:59Z</time>
</trkpt>
<trkpt lat="49.0761489327997" lon="9.560007993131876">
<ele>469</ele>
<time>2024-05-07T13:22:01Z</time>
</trkpt>
<trkpt lat="49.07614516094327" lon="9.560007993131876">
<ele>469</ele>
<time>2024-05-07T13:22:07Z</time>
</trkpt>
<trkpt lat="49.07614516094327" lon="9.560007071122527">
<ele>469</ele>
<time>2024-05-07T13:22:10Z</time>
</trkpt>
<trkpt lat="49.07614130526781" lon="9.560007071122527">
<ele>469</ele>
<time>2024-05-07T13:22:19Z</time>
</trkpt>
<trkpt lat="49.07614130526781" lon="9.560005143284798">
<ele>469</ele>
<time>2024-05-07T13:22:20Z</time>
</trkpt>
<trkpt lat="49.07614130526781" lon="9.560007071122527">
<ele>469</ele>
<time>2024-05-07T13:22:34Z</time>
</trkpt>
<trkpt lat="49.076137533411384" lon="9.560007071122527">
<ele>469</ele>
<time>2024-05-07T13:22:35Z</time>
</trkpt>
<trkpt lat="49.076137533411384" lon="9.560007993131876">
<ele>469</ele>
<time>2024-05-07T13:22:46Z</time>
</trkpt>
<trkpt lat="49.076137533411384" lon="9.560009920969604">
<ele>469</ele>
<time>2024-05-07T13:22:53Z</time>
</trkpt>
<trkpt lat="49.076137533411384" lon="9.560011848807337">
<ele>469</ele>
<time>2024-05-07T13:23:01Z</time>
</trkpt>
<trkpt lat="49.076137533411384" lon="9.560009920969604">
<ele>469</ele>
<time>2024-05-07T13:23:06Z</time>
</trkpt>
<trkpt lat="49.07614130526781" lon="9.560009920969604">
<ele>469</ele>
<time>2024-05-07T13:23:21Z</time>
</trkpt>
<trkpt lat="49.07614130526781" lon="9.560007993131876">
<ele>469</ele>
<time>2024-05-07T13:23:31Z</time>
</trkpt>
<trkpt lat="49.07614130526781" lon="9.560009920969604">
<ele>469</ele>
<time>2024-05-07T13:23:34Z</time>
</trkpt>
<trkpt lat="49.07614130526781" lon="9.560011848807337">
<ele>469</ele>
<time>2024-05-07T13:23:35Z</time>
</trkpt>
<trkpt lat="49.07614516094327" lon="9.560013692826033">
<ele>469</ele>
<time>2024-05-07T13:23:37Z</time>
</trkpt>
<trkpt lat="49.07614130526781" lon="9.560009920969604">
<ele>469</ele>
<time>2024-05-07T13:23:40Z</time>
</trkpt>
<trkpt lat="49.07614516094327" lon="9.560009920969604">
<ele>469</ele>
<time>2024-05-07T13:23:41Z</time>
</trkpt>
<trkpt lat="49.07614130526781" lon="9.560009920969604">
<ele>469</ele>
<time>2024-05-07T13:23:42Z</time>
</trkpt>
<trkpt lat="49.07614516094327" lon="9.560009920969604">
<ele>469</ele>
<time>2024-05-07T13:23:43Z</time>
</trkpt>
<trkpt lat="49.07614516094327" lon="9.560007993131876">
<ele>469</ele>
<time>2024-05-07T13:23:46Z</time>
</trkpt>
<trkpt lat="49.07614516094327" lon="9.560009920969604">
<ele>469</ele>
<time>2024-05-07T13:23:53Z</time>
</trkpt>
<trkpt lat="49.07614516094327" lon="9.560011848807337">
<ele>469</ele>
<time>2024-05-07T13:24:00Z</time>
</trkpt>
<trkpt lat="49.07614516094327" lon="9.560013692826033">
<ele>469</ele>
<time>2024-05-07T13:24:03Z</time>
</trkpt>
<trkpt lat="49.07614516094327" lon="9.560009920969604">
<ele>469</ele>
<time>2024-05-07T13:24:04Z</time>
</trkpt>
<trkpt lat="49.07614516094327" lon="9.560007993131876">
<ele>469</ele>
<time>2024-05-07T13:24:05Z</time>
</trkpt>
<trkpt lat="49.07614516094327" lon="9.560005143284798">
<ele>469</ele>
<time>2024-05-07T13:24:06Z</time>
</trkpt>
<trkpt lat="49.07614130526781" lon="9.56000137142837">
<ele>469</ele>
<time>2024-05-07T13:24:07Z</time>
</trkpt>
<trkpt lat="49.07614130526781" lon="9.56000036559999">
<ele>469</ele>
<time>2024-05-07T13:24:08Z</time>
</trkpt>
<trkpt lat="49.07614130526781" lon="9.55999843776226">
<ele>469</ele>
<time>2024-05-07T13:24:09Z</time>
</trkpt>
<trkpt lat="49.076137533411384" lon="9.559996593743564">
<ele>469</ele>
<time>2024-05-07T13:24:10Z</time>
</trkpt>
<trkpt lat="49.076137533411384" lon="9.559994665905831">
<ele>469</ele>
<time>2024-05-07T13:24:12Z</time>
</trkpt>
<trkpt lat="49.076137533411384" lon="9.559996593743564">
<ele>469</ele>
<time>2024-05-07T13:24:14Z</time>
</trkpt>
<trkpt lat="49.076137533411384" lon="9.55999843776226">
<ele>469</ele>
<time>2024-05-07T13:24:17Z</time>
</trkpt>
<trkpt lat="49.076137533411384" lon="9.56000036559999">
<ele>469</ele>
<time>2024-05-07T13:24:20Z</time>
</trkpt>
<trkpt lat="49.076137533411384" lon="9.56000137142837">
<ele>469</ele>
<time>2024-05-07T13:24:23Z</time>
</trkpt>
<trkpt lat="49.076137533411384" lon="9.560003215447068">
<ele>469</ele>
<time>2024-05-07T13:24:25Z</time>
</trkpt>
<trkpt lat="49.076137533411384" lon="9.560005143284798">
<ele>469</ele>
<time>2024-05-07T13:24:28Z</time>
</trkpt>
<trkpt lat="49.076137533411384" lon="9.560003215447068">
<ele>469</ele>
<time>2024-05-07T13:25:01Z</time>
</trkpt>
<trkpt lat="49.07614130526781" lon="9.560005143284798">
<ele>469</ele>
<time>2024-05-07T13:25:04Z</time>
</trkpt>
<trkpt lat="49.076137533411384" lon="9.560005143284798">
<ele>469</ele>
<time>2024-05-07T13:25:05Z</time>
</trkpt>
<trkpt lat="49.07614130526781" lon="9.560005143284798">
<ele>469</ele>
<time>2024-05-07T13:25:06Z</time>
</trkpt>
<trkpt lat="49.07614130526781" lon="9.560007071122527">
<ele>469</ele>
<time>2024-05-07T13:25:14Z</time>
</trkpt>
<trkpt lat="49.076137533411384" lon="9.560007071122527">
<ele>469</ele>
<time>2024-05-07T13:25:25Z</time>
</trkpt>
<trkpt lat="49.07614130526781" lon="9.560007071122527">
<ele>469</ele>
<time>2024-05-07T13:25:28Z</time>
</trkpt>
<trkpt lat="49.076137533411384" lon="9.560005143284798">
<ele>469</ele>
<time>2024-05-07T13:25:32Z</time>
</trkpt>
<trkpt lat="49.076137533411384" lon="9.560007071122527">
<ele>469</ele>
<time>2024-05-07T13:25:33Z</time>
</trkpt>
<trkpt lat="49.076137533411384" lon="9.560005143284798">
<ele>469</ele>
<time>2024-05-07T13:25:37Z</time>
</trkpt>
<trkpt lat="49.076137533411384" lon="9.560007071122527">
<ele>469</ele>
<time>2024-05-07T13:25:50Z</time>
</trkpt>
<trkpt lat="49.076137533411384" lon="9.560005143284798">
<ele>469</ele>
<time>2024-05-07T13:25:51Z</time>
</trkpt>
<trkpt lat="49.076137533411384" lon="9.560007071122527">
<ele>469</ele>
<time>2024-05-07T13:25:53Z</time>
</trkpt>
<trkpt lat="49.076137533411384" lon="9.560005143284798">
<ele>469</ele>
<time>2024-05-07T13:25:56Z</time>
</trkpt>
<trkpt lat="49.076133677735925" lon="9.560005143284798">
<ele>469</ele>
<time>2024-05-07T13:26:18Z</time>
</trkpt>
<trkpt lat="49.076133677735925" lon="9.560003215447068">
<ele>469</ele>
<time>2024-05-07T13:26:22Z</time>
</trkpt>
<trkpt lat="49.076137533411384" lon="9.560003215447068">
<ele>469</ele>
<time>2024-05-07T13:26:31Z</time>
</trkpt>
<trkpt lat="49.076137533411384" lon="9.56000137142837">
<ele>469</ele>
<time>2024-05-07T13:26:32Z</time>
</trkpt>
<trkpt lat="49.076137533411384" lon="9.560003215447068">
<ele>469</ele>
<time>2024-05-07T13:26:40Z</time>
</trkpt>
<trkpt lat="49.076137533411384" lon="9.56000137142837">
<ele>469</ele>
<time>2024-05-07T13:26:42Z</time>
</trkpt>
<trkpt lat="49.076137533411384" lon="9.560003215447068">
<ele>469</ele>
<time>2024-05-07T13:26:45Z</time>
</trkpt>
<trkpt lat="49.076137533411384" lon="9.56000137142837">
<ele>469</ele>
<time>2024-05-07T13:26:46Z</time>
</trkpt>
<trkpt lat="49.076137533411384" lon="9.56000036559999">
<ele>469</ele>
<time>2024-05-07T13:27:03Z</time>
</trkpt>
<trkpt lat="49.07614130526781" lon="9.56000036559999">
<ele>469</ele>
<time>2024-05-07T13:27:04Z</time>
</trkpt>
<trkpt lat="49.07614130526781" lon="9.55999843776226">
<ele>469</ele>
<time>2024-05-07T13:27:19Z</time>
</trkpt>
<trkpt lat="49.07614130526781" lon="9.559996593743564">
<ele>469</ele>
<time>2024-05-07T13:27:33Z</time>
</trkpt>
<trkpt lat="49.07614516094327" lon="9.559996593743564">
<ele>469</ele>
<time>2024-05-07T13:27:44Z</time>
</trkpt>
<trkpt lat="49.07614516094327" lon="9.55999843776226">
<ele>469</ele>
<time>2024-05-07T13:27:47Z</time>
</trkpt>
<trkpt lat="49.07614130526781" lon="9.55999843776226">
<ele>469</ele>
<time>2024-05-07T13:27:49Z</time>
</trkpt>
<trkpt lat="49.07614516094327" lon="9.55999843776226">
<ele>469</ele>
<time>2024-05-07T13:27:51Z</time>
</trkpt>
<trkpt lat="49.07614516094327" lon="9.56000036559999">
<ele>469</ele>
<time>2024-05-07T13:27:54Z</time>
</trkpt>
<trkpt lat="49.07614130526781" lon="9.55999843776226">
<ele>469</ele>
<time>2024-05-07T13:27:56Z</time>
</trkpt>
<trkpt lat="49.07614516094327" lon="9.55999843776226">
<ele>469</ele>
<time>2024-05-07T13:27:59Z</time>
</trkpt>
<trkpt lat="49.07614516094327" lon="9.559996593743564">
<ele>469</ele>
<time>2024-05-07T13:28:20Z</time>
</trkpt>
<trkpt lat="49.07614516094327" lon="9.55999843776226">
<ele>469</ele>
<time>2024-05-07T13:28:21Z</time>
</trkpt>
<trkpt lat="49.07614516094327" lon="9.559996593743564">
<ele>469</ele>
<time>2024-05-07T13:28:22Z</time>
</trkpt>
<trkpt lat="49.07614516094327" lon="9.55999843776226">
<ele>469</ele>
<time>2024-05-07T13:28:29Z</time>
</trkpt>
<trkpt lat="49.07614516094327" lon="9.56000036559999">
<ele>469</ele>
<time>2024-05-07T13:28:40Z</time>
</trkpt>
<trkpt lat="49.07614130526781" lon="9.56000036559999">
<ele>469</ele>
<time>2024-05-07T13:28:47Z</time>
</trkpt>
<trkpt lat="49.07614516094327" lon="9.56000137142837">
<ele>469</ele>
<time>2024-05-07T13:28:50Z</time>
</trkpt>
<trkpt lat="49.07614130526781" lon="9.56000137142837">
<ele>469</ele>
<time>2024-05-07T13:28:51Z</time>
</trkpt>
<trkpt lat="49.07614516094327" lon="9.56000036559999">
<ele>469</ele>
<time>2024-05-07T13:28:56Z</time>
</trkpt>
<trkpt lat="49.07614130526781" lon="9.55999843776226">
<ele>469</ele>
<time>2024-05-07T13:28:58Z</time>
</trkpt>
<trkpt lat="49.07614130526781" lon="9.559996593743564">
<ele>469</ele>
<time>2024-05-07T13:28:59Z</time>
</trkpt>
<trkpt lat="49.076137533411384" lon="9.559994665905831">
<ele>469</ele>
<time>2024-05-07T13:29:00Z</time>
</trkpt>
<trkpt lat="49.076133677735925" lon="9.559993743896484">
<ele>469</ele>
<time>2024-05-07T13:29:04Z</time>
</trkpt>
<trkpt lat="49.0761299058795" lon="9.559993743896484">
<ele>469</ele>
<time>2024-05-07T13:29:06Z</time>
</trkpt>
<trkpt lat="49.07612605020404" lon="9.559993743896484">
<ele>469</ele>
<time>2024-05-07T13:29:07Z</time>
</trkpt>
<trkpt lat="49.07612605020404" lon="9.559994665905831">
<ele>469</ele>
<time>2024-05-07T13:29:09Z</time>
</trkpt>
<trkpt lat="49.07612605020404" lon="9.559996593743564">
<ele>469</ele>
<time>2024-05-07T13:29:14Z</time>
</trkpt>
<trkpt lat="49.07612227834761" lon="9.55999843776226">
<ele>469</ele>
<time>2024-05-07T13:29:15Z</time>
</trkpt>
<trkpt lat="49.07612227834761" lon="9.56000036559999">
<ele>469</ele>
<time>2024-05-07T13:29:20Z</time>
</trkpt>
<trkpt lat="49.07612227834761" lon="9.55999843776226">
<ele>469</ele>
<time>2024-05-07T13:29:24Z</time>
</trkpt>
<trkpt lat="49.07612605020404" lon="9.56000036559999">
<ele>469</ele>
<time>2024-05-07T13:29:26Z</time>
</trkpt>
<trkpt lat="49.07612227834761" lon="9.56000036559999">
<ele>469</ele>
<time>2024-05-07T13:29:27Z</time>
</trkpt>
<trkpt lat="49.07612605020404" lon="9.56000036559999">
<ele>469</ele>
<time>2024-05-07T13:29:28Z</time>
</trkpt>
<trkpt lat="49.07612227834761" lon="9.56000036559999">
<ele>469</ele>
<time>2024-05-07T13:29:29Z</time>
</trkpt>
<trkpt lat="49.07612605020404" lon="9.56000036559999">
<ele>469</ele>
<time>2024-05-07T13:29:30Z</time>
</trkpt>
<trkpt lat="49.07612227834761" lon="9.56000036559999">
<ele>469</ele>
<time>2024-05-07T13:29:35Z</time>
</trkpt>
<trkpt lat="49.07612605020404" lon="9.56000036559999">
<ele>469</ele>
<time>2024-05-07T13:29:47Z</time>
</trkpt>
<trkpt lat="49.07612227834761" lon="9.56000036559999">
<ele>469</ele>
<time>2024-05-07T13:29:48Z</time>
</trkpt>
<trkpt lat="49.07612605020404" lon="9.56000036559999">
<ele>469</ele>
<time>2024-05-07T13:29:49Z</time>
</trkpt>
<trkpt lat="49.07612605020404" lon="9.55999843776226">
<ele>469</ele>
<time>2024-05-07T13:30:01Z</time>
</trkpt>
<trkpt lat="49.07612605020404" lon="9.559996593743564">
<ele>469</ele>
<time>2024-05-07T13:30:11Z</time>
</trkpt>
<trkpt lat="49.0761299058795" lon="9.559996593743564">
<ele>469</ele>
<time>2024-05-07T13:30:14Z</time>
</trkpt>
<trkpt lat="49.07612605020404" lon="9.559996593743564">
<ele>469</ele>
<time>2024-05-07T13:30:17Z</time>
</trkpt>
<trkpt lat="49.07611842267215" lon="9.559996593743564">
<ele>469</ele>
<time>2024-05-07T13:30:23Z</time>
</trkpt>
<trkpt lat="49.07610316760838" lon="9.55999843776226">
<ele>469</ele>
<time>2024-05-07T13:30:24Z</time>
</trkpt>
<trkpt lat="49.07608791254461" lon="9.56000036559999">
<ele>469</ele>
<time>2024-05-07T13:30:25Z</time>
</trkpt>
<trkpt lat="49.07606502994895" lon="9.56000137142837">
<ele>469</ele>
<time>2024-05-07T13:30:26Z</time>
</trkpt>
<trkpt lat="49.07604977488518" lon="9.56000137142837">
<ele>469</ele>
<time>2024-05-07T13:30:27Z</time>
</trkpt>
<trkpt lat="49.07602689228952" lon="9.55999843776226">
<ele>469</ele>
<time>2024-05-07T13:30:28Z</time>
</trkpt>
<trkpt lat="49.07600400969386" lon="9.559983182698488">
<ele>469</ele>
<time>2024-05-07T13:30:29Z</time>
</trkpt>
<trkpt lat="49.07598875463009" lon="9.559963149949908">
<ele>469</ele>
<time>2024-05-07T13:30:30Z</time>
</trkpt>
<trkpt lat="49.07597349956632" lon="9.55994127318263">
<ele>469</ele>
<time>2024-05-07T13:30:31Z</time>
</trkpt>
<trkpt lat="49.075958244502544" lon="9.559918390586972">
<ele>469</ele>
<time>2024-05-07T13:30:32Z</time>
</trkpt>
<trkpt lat="49.075954388827085" lon="9.559893580153584">
<ele>469</ele>
<time>2024-05-07T13:30:33Z</time>
</trkpt>
<trkpt lat="49.075954388827085" lon="9.55986307002604">
<ele>469</ele>
<time>2024-05-07T13:30:34Z</time>
</trkpt>
<trkpt lat="49.075954388827085" lon="9.559828704223037">
<ele>469</ele>
<time>2024-05-07T13:30:35Z</time>
</trkpt>
<trkpt lat="49.075958244502544" lon="9.559793416410685">
<ele>469</ele>
<time>2024-05-07T13:30:36Z</time>
</trkpt>
<trkpt lat="49.075958244502544" lon="9.559756200760605">
<ele>469</ele>
<time>2024-05-07T13:30:37Z</time>
</trkpt>
<trkpt lat="49.075958244502544" lon="9.559715213254094">
<ele>469</ele>
<time>2024-05-07T13:30:38Z</time>
</trkpt>
<trkpt lat="49.075958244502544" lon="9.559679925441742">
<ele>469</ele>
<time>2024-05-07T13:30:39Z</time>
</trkpt>
<trkpt lat="49.07596201635897" lon="9.559653270989656">
<ele>469</ele>
<time>2024-05-07T13:30:40Z</time>
</trkpt>
<trkpt lat="49.07597349956632" lon="9.55962653271854">
<ele>469</ele>
<time>2024-05-07T13:30:41Z</time>
</trkpt>
<trkpt lat="49.0759811270982" lon="9.55960457213223">
<ele>469</ele>
<time>2024-05-07T13:30:42Z</time>
</trkpt>
<trkpt lat="49.07599252648651" lon="9.55958646722138">
<ele>469</ele>
<time>2024-05-07T13:30:43Z</time>
</trkpt>
<trkpt lat="49.076015409082174" lon="9.559561656787992">
<ele>469</ele>
<time>2024-05-07T13:30:44Z</time>
</trkpt>
<trkpt lat="49.07603829167783" lon="9.559541624039412">
<ele>469</ele>
<time>2024-05-07T13:30:45Z</time>
</trkpt>
<trkpt lat="49.07606117427349" lon="9.559521675109863">
<ele>469</ele>
<time>2024-05-07T13:30:46Z</time>
</trkpt>
<trkpt lat="49.07608028501272" lon="9.559499714523554">
<ele>469</ele>
<time>2024-05-07T13:30:47Z</time>
</trkpt>
<trkpt lat="49.07610702328384" lon="9.5594834536314">
<ele>469</ele>
<time>2024-05-07T13:30:48Z</time>
</trkpt>
<trkpt lat="49.0761299058795" lon="9.559470126405358">
<ele>469</ele>
<time>2024-05-07T13:30:49Z</time>
</trkpt>
<trkpt lat="49.07615656033158" lon="9.559454871341586">
<ele>469</ele>
<time>2024-05-07T13:30:50Z</time>
</trkpt>
<trkpt lat="49.0761832986027" lon="9.559436766430736">
<ele>469</ele>
<time>2024-05-07T13:30:51Z</time>
</trkpt>
<trkpt lat="49.076209953054786" lon="9.559416733682156">
<ele>469</ele>
<time>2024-05-07T13:30:52Z</time>
</trkpt>
<trkpt lat="49.07622906379402" lon="9.559401478618383">
<ele>469</ele>
<time>2024-05-07T13:30:53Z</time>
</trkpt>
<trkpt lat="49.076248090714216" lon="9.559391923248768">
<ele>469</ele>
<time>2024-05-07T13:30:54Z</time>
</trkpt>
<trkpt lat="49.076271057128906" lon="9.559378596022723">
<ele>469</ele>
<time>2024-05-07T13:30:55Z</time>
</trkpt>
<trkpt lat="49.076290084049106" lon="9.559366190806031">
<ele>469</ele>
<time>2024-05-07T13:30:56Z</time>
</trkpt>
<trkpt lat="49.07630919478834" lon="9.559358563274143">
<ele>469</ele>
<time>2024-05-07T13:30:57Z</time>
</trkpt>
<trkpt lat="49.07632444985211" lon="9.55934808589518">
<ele>469</ele>
<time>2024-05-07T13:30:58Z</time>
</trkpt>
<trkpt lat="49.07633584924042" lon="9.559336602687836">
<ele>469</ele>
<time>2024-05-07T13:30:59Z</time>
</trkpt>
<trkpt lat="49.07634733244777" lon="9.5593280531466">
<ele>469</ele>
<time>2024-05-07T13:31:00Z</time>
</trkpt>
<trkpt lat="49.07635495997965" lon="9.559326125308871">
<ele>469</ele>
<time>2024-05-07T13:31:01Z</time>
</trkpt>
<trkpt lat="49.07635873183608" lon="9.559325203299522">
<ele>469</ele>
<time>2024-05-07T13:31:02Z</time>
</trkpt>
<trkpt lat="49.07635873183608" lon="9.559323275461791">
<ele>469</ele>
<time>2024-05-07T13:31:03Z</time>
</trkpt>
<trkpt lat="49.07636258751154" lon="9.559321347624063">
<ele>469</ele>
<time>2024-05-07T13:31:04Z</time>
</trkpt>
<trkpt lat="49.07636258751154" lon="9.559320425614716">
<ele>469</ele>
<time>2024-05-07T13:31:08Z</time>
</trkpt>
<trkpt lat="49.07636258751154" lon="9.559314725920558">
<ele>469.2</ele>
<time>2024-05-07T13:31:09Z</time>
</trkpt>
<trkpt lat="49.07636258751154" lon="9.559305170550942">
<ele>469.4</ele>
<time>2024-05-07T13:31:10Z</time>
</trkpt>
<trkpt lat="49.07635873183608" lon="9.559291759505868">
<ele>469.4</ele>
<time>2024-05-07T13:31:11Z</time>
</trkpt>
<trkpt lat="49.07635495997965" lon="9.559280360117556">
<ele>469.6</ele>
<time>2024-05-07T13:31:12Z</time>
</trkpt>
<trkpt lat="49.07634347677231" lon="9.559263177216051">
<ele>469.8</ele>
<time>2024-05-07T13:31:13Z</time>
</trkpt>
<trkpt lat="49.076328221708536" lon="9.559241216629744">
<ele>469.8</ele>
<time>2024-05-07T13:31:14Z</time>
</trkpt>
<trkpt lat="49.07631682232022" lon="9.559216490015388">
<ele>470</ele>
<time>2024-05-07T13:31:15Z</time>
</trkpt>
<trkpt lat="49.07630919478834" lon="9.559194529429078">
<ele>470</ele>
<time>2024-05-07T13:31:16Z</time>
</trkpt>
<trkpt lat="49.076293939724565" lon="9.559178352355955">
<ele>470</ele>
<time>2024-05-07T13:31:17Z</time>
</trkpt>
<trkpt lat="49.076290084049106" lon="9.559158319607375">
<ele>470</ele>
<time>2024-05-07T13:31:18Z</time>
</trkpt>
<trkpt lat="49.07628245651722" lon="9.55912965349853">
<ele>470.2</ele>
<time>2024-05-07T13:31:19Z</time>
</trkpt>
<trkpt lat="49.07627868466079" lon="9.559102999046443">
<ele>470.2</ele>
<time>2024-05-07T13:31:20Z</time>
</trkpt>
<trkpt lat="49.07627482898533" lon="9.559076260775328">
<ele>470.2</ele>
<time>2024-05-07T13:31:21Z</time>
</trkpt>
<trkpt lat="49.07627482898533" lon="9.559046672657132">
<ele>470.2</ele>
<time>2024-05-07T13:31:22Z</time>
</trkpt>
<trkpt lat="49.07627868466079" lon="9.559029573574662">
<ele>470.2</ele>
<time>2024-05-07T13:31:23Z</time>
</trkpt>
<trkpt lat="49.07628245651722" lon="9.559021946042776">
<ele>470.2</ele>
<time>2024-05-07T13:31:24Z</time>
</trkpt>
<trkpt lat="49.07628631219268" lon="9.55901524052024">
<ele>470.2</ele>
<time>2024-05-07T13:31:25Z</time>
</trkpt>
<trkpt lat="49.07628631219268" lon="9.55901331268251">
<ele>470.2</ele>
<time>2024-05-07T13:31:26Z</time>
</trkpt>
<trkpt lat="49.076290084049106" lon="9.559006690979004">
<ele>470.2</ele>
<time>2024-05-07T13:31:27Z</time>
</trkpt>
<trkpt lat="49.076293939724565" lon="9.559003757312894">
<ele>470.2</ele>
<time>2024-05-07T13:31:28Z</time>
</trkpt>
<trkpt lat="49.076290084049106" lon="9.559003757312894">
<ele>470.2</ele>
<time>2024-05-07T13:31:29Z</time>
</trkpt>
<trkpt lat="49.076290084049106" lon="9.559001913294196">
<ele>470.2</ele>
<time>2024-05-07T13:31:30Z</time>
</trkpt>
<trkpt lat="49.076290084049106" lon="9.558999985456468">
<ele>470</ele>
<time>2024-05-07T13:31:32Z</time>
</trkpt>
<trkpt lat="49.076293939724565" lon="9.558996129781008">
<ele>469.8</ele>
<time>2024-05-07T13:31:33Z</time>
</trkpt>
<trkpt lat="49.07630919478834" lon="9.559001913294196">
<ele>469.8</ele>
<time>2024-05-07T13:31:35Z</time>
</trkpt>
<trkpt lat="49.07632444985211" lon="9.559016162529588">
<ele>470</ele>
<time>2024-05-07T13:31:36Z</time>
</trkpt>
<trkpt lat="49.07634347677231" lon="9.559016162529588">
<ele>470.2</ele>
<time>2024-05-07T13:31:37Z</time>
</trkpt>
<trkpt lat="49.07636635936797" lon="9.55903334543109">
<ele>470.2</ele>
<time>2024-05-07T13:31:38Z</time>
</trkpt>
<trkpt lat="49.0763854701072" lon="9.559056228026748">
<ele>470.4</ele>
<time>2024-05-07T13:31:39Z</time>
</trkpt>
<trkpt lat="49.076408352702856" lon="9.559084810316564">
<ele>470.6</ele>
<time>2024-05-07T13:31:40Z</time>
</trkpt>
<trkpt lat="49.07642360776663" lon="9.559123031795025">
<ele>470.6</ele>
<time>2024-05-07T13:31:41Z</time>
</trkpt>
<trkpt lat="49.07644271850586" lon="9.55915354192257">
<ele>470.6</ele>
<time>2024-05-07T13:31:42Z</time>
</trkpt>
<trkpt lat="49.076469372957945" lon="9.559180196374657">
<ele>470.6</ele>
<time>2024-05-07T13:31:43Z</time>
</trkpt>
<trkpt lat="49.0764922555536" lon="9.559196457266808">
<ele>470.4</ele>
<time>2024-05-07T13:31:44Z</time>
</trkpt>
<trkpt lat="49.07651899382472" lon="9.55920785665512">
<ele>470.4</ele>
<time>2024-05-07T13:31:45Z</time>
</trkpt>
<trkpt lat="49.07654187642038" lon="9.55921171233058">
<ele>470.4</ele>
<time>2024-05-07T13:31:46Z</time>
</trkpt>
<trkpt lat="49.07656475901604" lon="9.559205006808044">
<ele>470.4</ele>
<time>2024-05-07T13:31:47Z</time>
</trkpt>
<trkpt lat="49.07659141346812" lon="9.559194529429078">
<ele>470.4</ele>
<time>2024-05-07T13:31:48Z</time>
</trkpt>
<trkpt lat="49.07661815173924" lon="9.559183046221731">
<ele>470.6</ele>
<time>2024-05-07T13:31:49Z</time>
</trkpt>
<trkpt lat="49.07663726247847" lon="9.55916971899569">
<ele>470.6</ele>
<time>2024-05-07T13:31:50Z</time>
</trkpt>
<trkpt lat="49.07666391693056" lon="9.55915161408484">
<ele>470.6</ele>
<time>2024-05-07T13:31:51Z</time>
</trkpt>
<trkpt lat="49.076686799526215" lon="9.559128731489182">
<ele>470.8</ele>
<time>2024-05-07T13:31:52Z</time>
</trkpt>
<trkpt lat="49.07671730965376" lon="9.559106770902872">
<ele>470.8</ele>
<time>2024-05-07T13:31:53Z</time>
</trkpt>
<trkpt lat="49.07675167545676" lon="9.559082966297863">
<ele>470.8</ele>
<time>2024-05-07T13:31:54Z</time>
</trkpt>
<trkpt lat="49.076786041259766" lon="9.559049606323242">
<ele>470.8</ele>
<time>2024-05-07T13:31:55Z</time>
</trkpt>
<trkpt lat="49.07682032324374" lon="9.55901524052024">
<ele>470.8</ele>
<time>2024-05-07T13:31:56Z</time>
</trkpt>
<trkpt lat="49.07685846090317" lon="9.558988502249122">
<ele>470.8</ele>
<time>2024-05-07T13:31:57Z</time>
</trkpt>
<trkpt lat="49.07690045423806" lon="9.558957992121575">
<ele>471</ele>
<time>2024-05-07T13:31:58Z</time>
</trkpt>
<trkpt lat="49.07693859189749" lon="9.558931337669492">
<ele>471</ele>
<time>2024-05-07T13:31:59Z</time>
</trkpt>
<trkpt lat="49.07697295770049" lon="9.558911304920912">
<ele>471</ele>
<time>2024-05-07T13:32:00Z</time>
</trkpt>
<trkpt lat="49.07701109535992" lon="9.558888422325252">
<ele>471</ele>
<time>2024-05-07T13:32:01Z</time>
</trkpt>
<trkpt lat="49.07704537734389" lon="9.558859756216409">
<ele>471</ele>
<time>2024-05-07T13:32:02Z</time>
</trkpt>
<trkpt lat="49.07708351500333" lon="9.55883502960205">
<ele>471.2</ele>
<time>2024-05-07T13:32:03Z</time>
</trkpt>
<trkpt lat="49.077121652662754" lon="9.558806363493204">
<ele>471.2</ele>
<time>2024-05-07T13:32:04Z</time>
</trkpt>
<trkpt lat="49.07716364599764" lon="9.558781553059816">
<ele>471.4</ele>
<time>2024-05-07T13:32:05Z</time>
</trkpt>
<trkpt lat="49.07720563933253" lon="9.558758670464158">
<ele>471.6</ele>
<time>2024-05-07T13:32:06Z</time>
</trkpt>
<trkpt lat="49.07725517638028" lon="9.55873964354396">
<ele>471.8</ele>
<time>2024-05-07T13:32:07Z</time>
</trkpt>
<trkpt lat="49.07730479724705" lon="9.55873486585915">
<ele>472</ele>
<time>2024-05-07T13:32:08Z</time>
</trkpt>
<trkpt lat="49.07735441811383" lon="9.558732016012073">
<ele>472.2</ele>
<time>2024-05-07T13:32:09Z</time>
</trkpt>
<trkpt lat="49.07740395516157" lon="9.55873293802142">
<ele>472.2</ele>
<time>2024-05-07T13:32:10Z</time>
</trkpt>
<trkpt lat="49.07745357602835" lon="9.55873964354396">
<ele>472.4</ele>
<time>2024-05-07T13:32:11Z</time>
</trkpt>
<trkpt lat="49.07750696875155" lon="9.558746265247464">
<ele>472.6</ele>
<time>2024-05-07T13:32:12Z</time>
</trkpt>
<trkpt lat="49.077556589618325" lon="9.558752048760653">
<ele>472.6</ele>
<time>2024-05-07T13:32:13Z</time>
</trkpt>
<trkpt lat="49.07760998234153" lon="9.55875682644546">
<ele>472.6</ele>
<time>2024-05-07T13:32:14Z</time>
</trkpt>
<trkpt lat="49.0776596032083" lon="9.558761520311236">
<ele>472.8</ele>
<time>2024-05-07T13:32:15Z</time>
</trkpt>
<trkpt lat="49.07770914025605" lon="9.558766297996044">
<ele>472.8</ele>
<time>2024-05-07T13:32:16Z</time>
</trkpt>
<trkpt lat="49.07776253297925" lon="9.55877493135631">
<ele>472.8</ele>
<time>2024-05-07T13:32:17Z</time>
</trkpt>
<trkpt lat="49.07781600952149" lon="9.558781553059816">
<ele>472.8</ele>
<time>2024-05-07T13:32:18Z</time>
</trkpt>
<trkpt lat="49.07786940224469" lon="9.558785408735275">
<ele>473</ele>
<time>2024-05-07T13:32:19Z</time>
</trkpt>
<trkpt lat="49.07792279496789" lon="9.558788258582354">
<ele>473</ele>
<time>2024-05-07T13:32:20Z</time>
</trkpt>
<trkpt lat="49.07797618769109" lon="9.558790186420085">
<ele>473</ele>
<time>2024-05-07T13:32:21Z</time>
</trkpt>
<trkpt lat="49.07802580855787" lon="9.558792114257813">
<ele>472.8</ele>
<time>2024-05-07T13:32:22Z</time>
</trkpt>
<trkpt lat="49.07807534560561" lon="9.55879303626716">
<ele>472.8</ele>
<time>2024-05-07T13:32:23Z</time>
</trkpt>
<trkpt lat="49.078128738328815" lon="9.558790186420085">
<ele>472.6</ele>
<time>2024-05-07T13:32:24Z</time>
</trkpt>
<trkpt lat="49.07817458733916" lon="9.558785408735275">
<ele>472.4</ele>
<time>2024-05-07T13:32:25Z</time>
</trkpt>
<trkpt lat="49.07821649685502" lon="9.558786330744624">
<ele>472.2</ele>
<time>2024-05-07T13:32:26Z</time>
</trkpt>
<trkpt lat="49.07825463451445" lon="9.558788258582354">
<ele>472</ele>
<time>2024-05-07T13:32:27Z</time>
</trkpt>
<trkpt lat="49.078289000317454" lon="9.558788258582354">
<ele>472</ele>
<time>2024-05-07T13:32:28Z</time>
</trkpt>
<trkpt lat="49.078327137976885" lon="9.558786330744624">
<ele>471.8</ele>
<time>2024-05-07T13:32:29Z</time>
</trkpt>
<trkpt lat="49.0783729031682" lon="9.55877970904112">
<ele>471.6</ele>
<time>2024-05-07T13:32:30Z</time>
</trkpt>
<trkpt lat="49.07841866835952" lon="9.55875967629254">
<ele>471.6</ele>
<time>2024-05-07T13:32:31Z</time>
</trkpt>
<trkpt lat="49.078468289226294" lon="9.558728160336614">
<ele>471.4</ele>
<time>2024-05-07T13:32:32Z</time>
</trkpt>
<trkpt lat="49.07851405441761" lon="9.558705277740955">
<ele>471.4</ele>
<time>2024-05-07T13:32:33Z</time>
</trkpt>
<trkpt lat="49.07855981960893" lon="9.558688094839454">
<ele>471.2</ele>
<time>2024-05-07T13:32:34Z</time>
</trkpt>
<trkpt lat="49.0786094404757" lon="9.558668062090874">
<ele>471</ele>
<time>2024-05-07T13:32:35Z</time>
</trkpt>
<trkpt lat="49.078658977523446" lon="9.558651885017753">
<ele>470.6</ele>
<time>2024-05-07T13:32:36Z</time>
</trkpt>
<trkpt lat="49.07870859839022" lon="9.558633780106902">
<ele>470.4</ele>
<time>2024-05-07T13:32:37Z</time>
</trkpt>
<trkpt lat="49.078758219257" lon="9.558614669367673">
<ele>470.2</ele>
<time>2024-05-07T13:32:38Z</time>
</trkpt>
<trkpt lat="49.07880775630474" lon="9.558594636619093">
<ele>469.8</ele>
<time>2024-05-07T13:32:39Z</time>
</trkpt>
<trkpt lat="49.07885360531509" lon="9.55857653170824">
<ele>469.4</ele>
<time>2024-05-07T13:32:40Z</time>
</trkpt>
<trkpt lat="49.07890314236283" lon="9.558563204482198">
<ele>469</ele>
<time>2024-05-07T13:32:41Z</time>
</trkpt>
<trkpt lat="49.07894890755415" lon="9.558549877256157">
<ele>468.6</ele>
<time>2024-05-07T13:32:42Z</time>
</trkpt>
<trkpt lat="49.078998528420925" lon="9.55853646621108">
<ele>468</ele>
<time>2024-05-07T13:32:43Z</time>
</trkpt>
<trkpt lat="49.0790481492877" lon="9.558531688526273">
<ele>467.6</ele>
<time>2024-05-07T13:32:44Z</time>
</trkpt>
<trkpt lat="49.0791015420109" lon="9.558527916669846">
<ele>467</ele>
<time>2024-05-07T13:32:45Z</time>
</trkpt>
<trkpt lat="49.07914730720222" lon="9.558521211147308">
<ele>466.4</ele>
<time>2024-05-07T13:32:46Z</time>
</trkpt>
<trkpt lat="49.07918930053711" lon="9.55851836130023">
<ele>466</ele>
<time>2024-05-07T13:32:47Z</time>
</trkpt>
<trkpt lat="49.079235065728426" lon="9.558511655777693">
<ele>465.6</ele>
<time>2024-05-07T13:32:48Z</time>
</trkpt>
<trkpt lat="49.07927697524429" lon="9.558509811758997">
<ele>465</ele>
<time>2024-05-07T13:32:49Z</time>
</trkpt>
<trkpt lat="49.07931896857917" lon="9.558506961911917">
<ele>464.4</ele>
<time>2024-05-07T13:32:50Z</time>
</trkpt>
<trkpt lat="49.07936096191406" lon="9.55849640071392">
<ele>463.8</ele>
<time>2024-05-07T13:32:51Z</time>
</trkpt>
<trkpt lat="49.07940287142992" lon="9.5584802236408">
<ele>463.4</ele>
<time>2024-05-07T13:32:52Z</time>
</trkpt>
<trkpt lat="49.07944486476481" lon="9.55846019089222">
<ele>462.8</ele>
<time>2024-05-07T13:32:53Z</time>
</trkpt>
<trkpt lat="49.07948677428067" lon="9.558433452621102">
<ele>462.2</ele>
<time>2024-05-07T13:32:54Z</time>
</trkpt>
<trkpt lat="49.07952114008367" lon="9.558402020484207">
<ele>461.6</ele>
<time>2024-05-07T13:32:55Z</time>
</trkpt>
<trkpt lat="49.079555505886674" lon="9.558364804834127">
<ele>461</ele>
<time>2024-05-07T13:32:56Z</time>
</trkpt>
<trkpt lat="49.079589787870646" lon="9.558324739336967">
<ele>460.4</ele>
<time>2024-05-07T13:32:57Z</time>
</trkpt>
<trkpt lat="49.07962029799819" lon="9.558279979974031">
<ele>459.6</ele>
<time>2024-05-07T13:32:58Z</time>
</trkpt>
<trkpt lat="49.079650808125734" lon="9.558235136792064">
<ele>459</ele>
<time>2024-05-07T13:32:59Z</time>
</trkpt>
<trkpt lat="49.07968131825328" lon="9.55818358808756">
<ele>458.2</ele>
<time>2024-05-07T13:33:00Z</time>
</trkpt>
<trkpt lat="49.0797080565244" lon="9.558119717985392">
<ele>457.4</ele>
<time>2024-05-07T13:33:01Z</time>
</trkpt>
<trkpt lat="49.07973479479551" lon="9.55804537050426">
<ele>456.8</ele>
<time>2024-05-07T13:33:02Z</time>
</trkpt>
<trkpt lat="49.07975382171571" lon="9.557966161519287">
<ele>456.2</ele>
<time>2024-05-07T13:33:03Z</time>
</trkpt>
<trkpt lat="49.07977670431137" lon="9.55788703635335">
<ele>455.4</ele>
<time>2024-05-07T13:33:04Z</time>
</trkpt>
<trkpt lat="49.07979195937514" lon="9.557814532890916">
<ele>454.8</ele>
<time>2024-05-07T13:33:05Z</time>
</trkpt>
<trkpt lat="49.079811070114374" lon="9.557756362482904">
<ele>454.2</ele>
<time>2024-05-07T13:33:06Z</time>
</trkpt>
<trkpt lat="49.07983395271003" lon="9.557702969759704">
<ele>453.6</ele>
<time>2024-05-07T13:33:07Z</time>
</trkpt>
<trkpt lat="49.07985683530569" lon="9.557655276730657">
<ele>453.2</ele>
<time>2024-05-07T13:33:08Z</time>
</trkpt>
<trkpt lat="49.07987209036946" lon="9.557616217061875">
<ele>452.6</ele>
<time>2024-05-07T13:33:09Z</time>
</trkpt>
<trkpt lat="49.079887345433235" lon="9.557582773268225">
<ele>452.2</ele>
<time>2024-05-07T13:33:10Z</time>
</trkpt>
<trkpt lat="49.07990260049701" lon="9.557558046653869">
<ele>451.8</ele>
<time>2024-05-07T13:33:11Z</time>
</trkpt>
<trkpt lat="49.07991785556078" lon="9.557537008076906">
<ele>451.4</ele>
<time>2024-05-07T13:33:12Z</time>
</trkpt>
<trkpt lat="49.07993311062455" lon="9.557517981156709">
<ele>451</ele>
<time>2024-05-07T13:33:13Z</time>
</trkpt>
<trkpt lat="49.07995599322021" lon="9.557503648102283">
<ele>450.6</ele>
<time>2024-05-07T13:33:14Z</time>
</trkpt>
<trkpt lat="49.07997887581587" lon="9.55749124288559">
<ele>450.4</ele>
<time>2024-05-07T13:33:15Z</time>
</trkpt>
<trkpt lat="49.08000938594341" lon="9.55749124288559">
<ele>450.2</ele>
<time>2024-05-07T13:33:16Z</time>
</trkpt>
<trkpt lat="49.080043751746416" lon="9.557499876245856">
<ele>450</ele>
<time>2024-05-07T13:33:17Z</time>
</trkpt>
<trkpt lat="49.08007811754942" lon="9.557517981156709">
<ele>449.8</ele>
<time>2024-05-07T13:33:18Z</time>
</trkpt>
<trkpt lat="49.08012002706528" lon="9.557538013905289">
<ele>449.8</ele>
<time>2024-05-07T13:33:19Z</time>
</trkpt>
<trkpt lat="49.08016202040017" lon="9.55755134113133">
<ele>449.6</ele>
<time>2024-05-07T13:33:20Z</time>
</trkpt>
<trkpt lat="49.08020778559148" lon="9.55756944604218">
<ele>449.6</ele>
<time>2024-05-07T13:33:21Z</time>
</trkpt>
<trkpt lat="49.0802535507828" lon="9.55759048461914">
<ele>449.4</ele>
<time>2024-05-07T13:33:22Z</time>
</trkpt>
<trkpt lat="49.080306943506" lon="9.557601884007454">
<ele>449.2</ele>
<time>2024-05-07T13:33:23Z</time>
</trkpt>
<trkpt lat="49.080364191904664" lon="9.55761143937707">
<ele>449.2</ele>
<time>2024-05-07T13:33:24Z</time>
</trkpt>
<trkpt lat="49.080421440303326" lon="9.557618061080577">
<ele>449</ele>
<time>2024-05-07T13:33:25Z</time>
</trkpt>
<trkpt lat="49.08047483302653" lon="9.557621916756034">
<ele>448.8</ele>
<time>2024-05-07T13:33:26Z</time>
</trkpt>
<trkpt lat="49.08052437007427" lon="9.557621916756034">
<ele>448.8</ele>
<time>2024-05-07T13:33:27Z</time>
</trkpt>
<trkpt lat="49.08057784661651" lon="9.557616217061875">
<ele>448.6</ele>
<time>2024-05-07T13:33:28Z</time>
</trkpt>
<trkpt lat="49.08062361180782" lon="9.5576133672148">
<ele>448.4</ele>
<time>2024-05-07T13:33:29Z</time>
</trkpt>
<trkpt lat="49.080677004531026" lon="9.557608589529991">
<ele>448.2</ele>
<time>2024-05-07T13:33:30Z</time>
</trkpt>
<trkpt lat="49.08073039725423" lon="9.557601884007454">
<ele>448</ele>
<time>2024-05-07T13:33:31Z</time>
</trkpt>
<trkpt lat="49.080776162445545" lon="9.55760951153934">
<ele>447.8</ele>
<time>2024-05-07T13:33:32Z</time>
</trkpt>
<trkpt lat="49.08082192763686" lon="9.557622838765385">
<ele>447.6</ele>
<time>2024-05-07T13:33:33Z</time>
</trkpt>
<trkpt lat="49.08086769282818" lon="9.557641949504614">
<ele>447.6</ele>
<time>2024-05-07T13:33:34Z</time>
</trkpt>
<trkpt lat="49.08091354183853" lon="9.557664832100272">
<ele>447.4</ele>
<time>2024-05-07T13:33:35Z</time>
</trkpt>
<trkpt lat="49.08096693456173" lon="9.557682937011124">
<ele>447.2</ele>
<time>2024-05-07T13:33:36Z</time>
</trkpt>
<trkpt lat="49.08102409914136" lon="9.557702969759704">
<ele>447.2</ele>
<time>2024-05-07T13:33:37Z</time>
</trkpt>
<trkpt lat="49.081073720008135" lon="9.557726858183742">
<ele>447</ele>
<time>2024-05-07T13:33:38Z</time>
</trkpt>
<trkpt lat="49.0811309684068" lon="9.557744963094592">
<ele>447</ele>
<time>2024-05-07T13:33:39Z</time>
</trkpt>
<trkpt lat="49.08117673359811" lon="9.557756362482904">
<ele>446.8</ele>
<time>2024-05-07T13:33:40Z</time>
</trkpt>
<trkpt lat="49.08122249878943" lon="9.557764995843172">
<ele>446.6</ele>
<time>2024-05-07T13:33:41Z</time>
</trkpt>
<trkpt lat="49.08125686459243" lon="9.557771617546678">
<ele>446.4</ele>
<time>2024-05-07T13:33:42Z</time>
</trkpt>
<trkpt lat="49.08128351904452" lon="9.55778787843883">
<ele>446.4</ele>
<time>2024-05-07T13:33:43Z</time>
</trkpt>
<trkpt lat="49.08131025731563" lon="9.55780690535903">
<ele>446.2</ele>
<time>2024-05-07T13:33:44Z</time>
</trkpt>
<trkpt lat="49.081333139911294" lon="9.55782693810761">
<ele>446.2</ele>
<time>2024-05-07T13:33:45Z</time>
</trkpt>
<trkpt lat="49.08135602250695" lon="9.557840265333652">
<ele>446</ele>
<time>2024-05-07T13:33:46Z</time>
</trkpt>
<trkpt lat="49.08138267695904" lon="9.557841271162031">
<ele>445.8</ele>
<time>2024-05-07T13:33:47Z</time>
</trkpt>
<trkpt lat="49.08140178769827" lon="9.557841271162031">
<ele>445.6</ele>
<time>2024-05-07T13:33:48Z</time>
</trkpt>
<trkpt lat="49.08141704276204" lon="9.55782794393599">
<ele>445.4</ele>
<time>2024-05-07T13:33:49Z</time>
</trkpt>
<trkpt lat="49.08143229782581" lon="9.557809755206108">
<ele>445.4</ele>
<time>2024-05-07T13:33:50Z</time>
</trkpt>
<trkpt lat="49.08145140856504" lon="9.557780250906944">
<ele>445.2</ele>
<time>2024-05-07T13:33:51Z</time>
</trkpt>
<trkpt lat="49.08146666362882" lon="9.557754434645176">
<ele>445.2</ele>
<time>2024-05-07T13:33:52Z</time>
</trkpt>
<trkpt lat="49.08148191869259" lon="9.557724930346012">
<ele>445</ele>
<time>2024-05-07T13:33:53Z</time>
</trkpt>
<trkpt lat="49.0814933180809" lon="9.557698192074897">
<ele>445</ele>
<time>2024-05-07T13:33:54Z</time>
</trkpt>
<trkpt lat="49.081508573144674" lon="9.557676315307615">
<ele>444.8</ele>
<time>2024-05-07T13:33:55Z</time>
</trkpt>
<trkpt lat="49.08152005635202" lon="9.557660054415464">
<ele>444.8</ele>
<time>2024-05-07T13:33:56Z</time>
</trkpt>
<trkpt lat="49.08153908327222" lon="9.557648655027153">
<ele>444.6</ele>
<time>2024-05-07T13:33:57Z</time>
</trkpt>
<trkpt lat="49.08155433833599" lon="9.557638093829157">
<ele>444.6</ele>
<time>2024-05-07T13:33:58Z</time>
</trkpt>
<trkpt lat="49.08157344907522" lon="9.55763339996338">
<ele>444.6</ele>
<time>2024-05-07T13:33:59Z</time>
</trkpt>
<trkpt lat="49.081603959202766" lon="9.557638093829157">
<ele>444.4</ele>
<time>2024-05-07T13:34:00Z</time>
</trkpt>
<trkpt lat="49.081645952537656" lon="9.557655276730657">
<ele>444.2</ele>
<time>2024-05-07T13:34:01Z</time>
</trkpt>
<trkpt lat="49.081703117117286" lon="9.557684864848852">
<ele>444</ele>
<time>2024-05-07T13:34:02Z</time>
</trkpt>
<trkpt lat="49.08176799304783" lon="9.55770866945386">
<ele>443.8</ele>
<time>2024-05-07T13:34:03Z</time>
</trkpt>
<trkpt lat="49.08183286897838" lon="9.557731552049518">
<ele>443.6</ele>
<time>2024-05-07T13:34:04Z</time>
</trkpt>
<trkpt lat="49.08189388923347" lon="9.55774873495102">
<ele>443.4</ele>
<time>2024-05-07T13:34:05Z</time>
</trkpt>
<trkpt lat="49.08195490948856" lon="9.557758290320637">
<ele>443.4</ele>
<time>2024-05-07T13:34:06Z</time>
</trkpt>
<trkpt lat="49.08200830221176" lon="9.557764995843172">
<ele>443.2</ele>
<time>2024-05-07T13:34:07Z</time>
</trkpt>
<trkpt lat="49.08206169493496" lon="9.55776784569025">
<ele>443</ele>
<time>2024-05-07T13:34:08Z</time>
</trkpt>
<trkpt lat="49.082118943333626" lon="9.557771617546678">
<ele>442.8</ele>
<time>2024-05-07T13:34:09Z</time>
</trkpt>
<trkpt lat="49.08216470852494" lon="9.557776395231484">
<ele>442.4</ele>
<time>2024-05-07T13:34:10Z</time>
</trkpt>
<trkpt lat="49.08221432939172" lon="9.557783100754024">
<ele>442.2</ele>
<time>2024-05-07T13:34:11Z</time>
</trkpt>
<trkpt lat="49.08226386643946" lon="9.55778787843883">
<ele>441.8</ele>
<time>2024-05-07T13:34:12Z</time>
</trkpt>
<trkpt lat="49.08231348730624" lon="9.557793578132989">
<ele>441.4</ele>
<time>2024-05-07T13:34:13Z</time>
</trkpt>
<trkpt lat="49.08236688002944" lon="9.557801205664871">
<ele>441</ele>
<time>2024-05-07T13:34:14Z</time>
</trkpt>
<trkpt lat="49.08243175595999" lon="9.557809755206108">
<ele>440.8</ele>
<time>2024-05-07T13:34:15Z</time>
</trkpt>
<trkpt lat="49.08249277621507" lon="9.557823166251184">
<ele>440.4</ele>
<time>2024-05-07T13:34:16Z</time>
</trkpt>
<trkpt lat="49.082553796470165" lon="9.557836493477224">
<ele>440</ele>
<time>2024-05-07T13:34:17Z</time>
</trkpt>
<trkpt lat="49.08261104486883" lon="9.55784797668457">
<ele>439.6</ele>
<time>2024-05-07T13:34:18Z</time>
</trkpt>
<trkpt lat="49.0826606657356" lon="9.557860298082232">
<ele>439.2</ele>
<time>2024-05-07T13:34:19Z</time>
</trkpt>
<trkpt lat="49.082714058458805" lon="9.557876558974383">
<ele>438.8</ele>
<time>2024-05-07T13:34:20Z</time>
</trkpt>
<trkpt lat="49.08276745118201" lon="9.557894663885236">
<ele>438.2</ele>
<time>2024-05-07T13:34:21Z</time>
</trkpt>
<trkpt lat="49.08281321637333" lon="9.557914696633816">
<ele>438</ele>
<time>2024-05-07T13:34:22Z</time>
</trkpt>
<trkpt lat="49.08285898156464" lon="9.557926096022127">
<ele>437.6</ele>
<time>2024-05-07T13:34:23Z</time>
</trkpt>
<trkpt lat="49.08290097489953" lon="9.55794713459909">
<ele>437.2</ele>
<time>2024-05-07T13:34:24Z</time>
</trkpt>
<trkpt lat="49.08293911255896" lon="9.557954762130976">
<ele>436.8</ele>
<time>2024-05-07T13:34:25Z</time>
</trkpt>
<trkpt lat="49.08297347836197" lon="9.557966161519287">
<ele>436.6</ele>
<time>2024-05-07T13:34:26Z</time>
</trkpt>
<trkpt lat="49.08300013281405" lon="9.557974794879556">
<ele>436.2</ele>
<time>2024-05-07T13:34:27Z</time>
</trkpt>
<trkpt lat="49.08302687108517" lon="9.557979572564363">
<ele>435.8</ele>
<time>2024-05-07T13:34:28Z</time>
</trkpt>
<trkpt lat="49.083049753680825" lon="9.55798141658306">
<ele>435.6</ele>
<time>2024-05-07T13:34:29Z</time>
</trkpt>
<trkpt lat="49.08307640813291" lon="9.55798141658306">
<ele>435.4</ele>
<time>2024-05-07T13:34:30Z</time>
</trkpt>
<trkpt lat="49.083106918260455" lon="9.55798334442079">
<ele>435</ele>
<time>2024-05-07T13:34:31Z</time>
</trkpt>
<trkpt lat="49.08314513973892" lon="9.557991977781056">
<ele>434.8</ele>
<time>2024-05-07T13:34:32Z</time>
</trkpt>
<trkpt lat="49.08317942172289" lon="9.557999605312943">
<ele>434.6</ele>
<time>2024-05-07T13:34:33Z</time>
</trkpt>
<trkpt lat="49.08321378752589" lon="9.55800337716937">
<ele>434.4</ele>
<time>2024-05-07T13:34:34Z</time>
</trkpt>
<trkpt lat="49.08325569704175" lon="9.558006227016447">
<ele>434</ele>
<time>2024-05-07T13:34:35Z</time>
</trkpt>
<trkpt lat="49.08330146223307" lon="9.55800144933164">
<ele>433.8</ele>
<time>2024-05-07T13:34:36Z</time>
</trkpt>
<trkpt lat="49.083347311243415" lon="9.557990049943328">
<ele>433.4</ele>
<time>2024-05-07T13:34:37Z</time>
</trkpt>
<trkpt lat="49.08339307643473" lon="9.557972867041826">
<ele>433</ele>
<time>2024-05-07T13:34:38Z</time>
</trkpt>
<trkpt lat="49.083446469157934" lon="9.557948056608438">
<ele>432.6</ele>
<time>2024-05-07T13:34:39Z</time>
</trkpt>
<trkpt lat="49.08349609002471" lon="9.557918468490245">
<ele>432.2</ele>
<time>2024-05-07T13:34:40Z</time>
</trkpt>
<trkpt lat="49.08354562707245" lon="9.55788318067789">
<ele>432</ele>
<time>2024-05-07T13:34:41Z</time>
</trkpt>
<trkpt lat="49.083599019795656" lon="9.55784504301846">
<ele>431.6</ele>
<time>2024-05-07T13:34:42Z</time>
</trkpt>
<trkpt lat="49.08364864066243" lon="9.557798355817797">
<ele>431.2</ele>
<time>2024-05-07T13:34:43Z</time>
</trkpt>
<trkpt lat="49.08369826152921" lon="9.557760218158364">
<ele>430.6</ele>
<time>2024-05-07T13:34:44Z</time>
</trkpt>
<trkpt lat="49.08374402672053" lon="9.557720152661204">
<ele>430.2</ele>
<time>2024-05-07T13:34:45Z</time>
</trkpt>
<trkpt lat="49.08378979191184" lon="9.557682015001774">
<ele>429.6</ele>
<time>2024-05-07T13:34:46Z</time>
</trkpt>
<trkpt lat="49.08383555710316" lon="9.557641949504614">
<ele>429</ele>
<time>2024-05-07T13:34:47Z</time>
</trkpt>
<trkpt lat="49.08388517796993" lon="9.557604733854532">
<ele>428.4</ele>
<time>2024-05-07T13:34:48Z</time>
</trkpt>
<trkpt lat="49.083938570693135" lon="9.557578079402449">
<ele>427.8</ele>
<time>2024-05-07T13:34:49Z</time>
</trkpt>
<trkpt lat="49.08398433588445" lon="9.557557040825486">
<ele>427.2</ele>
<time>2024-05-07T13:34:50Z</time>
</trkpt>
<trkpt lat="49.08403010107577" lon="9.55753323622048">
<ele>426.6</ele>
<time>2024-05-07T13:34:51Z</time>
</trkpt>
<trkpt lat="49.0840682387352" lon="9.55751127563417">
<ele>426</ele>
<time>2024-05-07T13:34:52Z</time>
</trkpt>
<trkpt lat="49.08411023207009" lon="9.557486465200782">
<ele>425.4</ele>
<time>2024-05-07T13:34:53Z</time>
</trkpt>
<trkpt lat="49.084152141585946" lon="9.557466432452202">
<ele>424.8</ele>
<time>2024-05-07T13:34:54Z</time>
</trkpt>
<trkpt lat="49.08418650738895" lon="9.55745117738843">
<ele>424.2</ele>
<time>2024-05-07T13:34:55Z</time>
</trkpt>
<trkpt lat="49.084217017516494" lon="9.557436928153038">
<ele>423.6</ele>
<time>2024-05-07T13:34:56Z</time>
</trkpt>
<trkpt lat="49.08424375578761" lon="9.557421673089266">
<ele>423</ele>
<time>2024-05-07T13:34:57Z</time>
</trkpt>
<trkpt lat="49.0842704102397" lon="9.55741111189127">
<ele>422.6</ele>
<time>2024-05-07T13:34:58Z</time>
</trkpt>
<trkpt lat="49.08430092036724" lon="9.557394934818149">
<ele>421.8</ele>
<time>2024-05-07T13:34:59Z</time>
</trkpt>
<trkpt lat="49.084331430494785" lon="9.557383535429835">
<ele>421.2</ele>
<time>2024-05-07T13:35:00Z</time>
</trkpt>
<trkpt lat="49.08436579629779" lon="9.557368196547031">
<ele>420.6</ele>
<time>2024-05-07T13:35:01Z</time>
</trkpt>
<trkpt lat="49.08440016210079" lon="9.557348247617483">
<ele>420</ele>
<time>2024-05-07T13:35:02Z</time>
</trkpt>
<trkpt lat="49.08443829976022" lon="9.557328214868903">
<ele>419.4</ele>
<time>2024-05-07T13:35:03Z</time>
</trkpt>
<trkpt lat="49.08447643741965" lon="9.55731195397675">
<ele>419</ele>
<time>2024-05-07T13:35:04Z</time>
</trkpt>
<trkpt lat="49.0845069475472" lon="9.557292927056553">
<ele>418.4</ele>
<time>2024-05-07T13:35:05Z</time>
</trkpt>
<trkpt lat="49.0845413133502" lon="9.557272894307973">
<ele>417.8</ele>
<time>2024-05-07T13:35:06Z</time>
</trkpt>
<trkpt lat="49.08457559533417" lon="9.557238528504968">
<ele>417.2</ele>
<time>2024-05-07T13:35:07Z</time>
</trkpt>
<trkpt lat="49.08460233360529" lon="9.557208018377423">
<ele>416.6</ele>
<time>2024-05-07T13:35:08Z</time>
</trkpt>
<trkpt lat="49.084628988057375" lon="9.557171808555722">
<ele>416</ele>
<time>2024-05-07T13:35:09Z</time>
</trkpt>
<trkpt lat="49.08465187065303" lon="9.557129815220833">
<ele>415.2</ele>
<time>2024-05-07T13:35:10Z</time>
</trkpt>
<trkpt lat="49.08468246459961" lon="9.557086899876596">
<ele>414.8</ele>
<time>2024-05-07T13:35:11Z</time>
</trkpt>
<trkpt lat="49.084709119051695" lon="9.557043062523007">
<ele>414</ele>
<time>2024-05-07T13:35:12Z</time>
</trkpt>
<trkpt lat="49.08473585732281" lon="9.55699536949396">
<ele>413.4</ele>
<time>2024-05-07T13:35:13Z</time>
</trkpt>
<trkpt lat="49.08475488424301" lon="9.556942898780107">
<ele>412.8</ele>
<time>2024-05-07T13:35:14Z</time>
</trkpt>
<trkpt lat="49.08477776683867" lon="9.556891433894634">
<ele>412.4</ele>
<time>2024-05-07T13:35:15Z</time>
</trkpt>
<trkpt lat="49.08480064943433" lon="9.556835107505322">
<ele>411.8</ele>
<time>2024-05-07T13:35:16Z</time>
</trkpt>
<trkpt lat="49.08481976017356" lon="9.55677978694439">
<ele>411</ele>
<time>2024-05-07T13:35:17Z</time>
</trkpt>
<trkpt lat="49.08484264276922" lon="9.556730249896646">
<ele>410.4</ele>
<time>2024-05-07T13:35:18Z</time>
</trkpt>
<trkpt lat="49.08486552536488" lon="9.55667870119214">
<ele>409.8</ele>
<time>2024-05-07T13:35:19Z</time>
</trkpt>
<trkpt lat="49.08488463610411" lon="9.55662153661251">
<ele>409.2</ele>
<time>2024-05-07T13:35:20Z</time>
</trkpt>
<trkpt lat="49.084903663024306" lon="9.556569987908006">
<ele>408.8</ele>
<time>2024-05-07T13:35:21Z</time>
</trkpt>
<trkpt lat="49.08492277376354" lon="9.556518523022532">
<ele>408.4</ele>
<time>2024-05-07T13:35:22Z</time>
</trkpt>
<trkpt lat="49.08494180068374" lon="9.55646513029933">
<ele>407.8</ele>
<time>2024-05-07T13:35:23Z</time>
</trkpt>
<trkpt lat="49.08496091142297" lon="9.556407881900668">
<ele>407.2</ele>
<time>2024-05-07T13:35:24Z</time>
</trkpt>
<trkpt lat="49.08497993834317" lon="9.556348789483309">
<ele>406.6</ele>
<time>2024-05-07T13:35:25Z</time>
</trkpt>
<trkpt lat="49.0849990490824" lon="9.556296318769457">
<ele>406</ele>
<time>2024-05-07T13:35:26Z</time>
</trkpt>
<trkpt lat="49.0850180760026" lon="9.55624669790268">
<ele>405.6</ele>
<time>2024-05-07T13:35:27Z</time>
</trkpt>
<trkpt lat="49.085044814273715" lon="9.556198082864285">
<ele>405</ele>
<time>2024-05-07T13:35:28Z</time>
</trkpt>
<trkpt lat="49.08507155254483" lon="9.556148461997507">
<ele>404.6</ele>
<time>2024-05-07T13:35:29Z</time>
</trkpt>
<trkpt lat="49.08509820699692" lon="9.5560902915895">
<ele>403.8</ele>
<time>2024-05-07T13:35:30Z</time>
</trkpt>
<trkpt lat="49.08511731773615" lon="9.556037820875645">
<ele>403</ele>
<time>2024-05-07T13:35:31Z</time>
</trkpt>
<trkpt lat="49.08514020033181" lon="9.5559882838279">
<ele>402.2</ele>
<time>2024-05-07T13:35:32Z</time>
</trkpt>
<trkpt lat="49.08515922725201" lon="9.555943440645931">
<ele>401.8</ele>
<time>2024-05-07T13:35:33Z</time>
</trkpt>
<trkpt lat="49.08517833799124" lon="9.55589197576046">
<ele>401.2</ele>
<time>2024-05-07T13:35:34Z</time>
</trkpt>
<trkpt lat="49.08519359305501" lon="9.555839505046606">
<ele>400.8</ele>
<time>2024-05-07T13:35:35Z</time>
</trkpt>
<trkpt lat="49.085205076262355" lon="9.55579373985529">
<ele>400.4</ele>
<time>2024-05-07T13:35:36Z</time>
</trkpt>
<trkpt lat="49.08522033132613" lon="9.555743196979163">
<ele>399.8</ele>
<time>2024-05-07T13:35:37Z</time>
</trkpt>
<trkpt lat="49.0852355863899" lon="9.555689804255962">
<ele>399.2</ele>
<time>2024-05-07T13:35:38Z</time>
</trkpt>
<trkpt lat="49.0852546133101" lon="9.555636327713728">
<ele>398.8</ele>
<time>2024-05-07T13:35:39Z</time>
</trkpt>
<trkpt lat="49.08526986837387" lon="9.555586790665984">
<ele>398</ele>
<time>2024-05-07T13:35:40Z</time>
</trkpt>
<trkpt lat="49.08528512343764" lon="9.555542869493364">
<ele>397.4</ele>
<time>2024-05-07T13:35:41Z</time>
</trkpt>
<trkpt lat="49.085300378501415" lon="9.555501881986856">
<ele>397</ele>
<time>2024-05-07T13:35:42Z</time>
</trkpt>
<trkpt lat="49.08531186170876" lon="9.555459972471">
<ele>396.4</ele>
<time>2024-05-07T13:35:43Z</time>
</trkpt>
<trkpt lat="49.08532711677253" lon="9.55541797913611">
<ele>395.8</ele>
<time>2024-05-07T13:35:44Z</time>
</trkpt>
<trkpt lat="49.085338516160846" lon="9.55537984147668">
<ele>395.4</ele>
<time>2024-05-07T13:35:45Z</time>
</trkpt>
<trkpt lat="49.08535377122462" lon="9.555343547835946">
<ele>395</ele>
<time>2024-05-07T13:35:46Z</time>
</trkpt>
<trkpt lat="49.08536525443196" lon="9.555306416004896">
<ele>394.6</ele>
<time>2024-05-07T13:35:47Z</time>
</trkpt>
<trkpt lat="49.08537673763931" lon="9.55527875572443">
<ele>394</ele>
<time>2024-05-07T13:35:48Z</time>
</trkpt>
<trkpt lat="49.08538813702762" lon="9.555250089615583">
<ele>393.6</ele>
<time>2024-05-07T13:35:49Z</time>
</trkpt>
<trkpt lat="49.085399620234966" lon="9.555223435163498">
<ele>393</ele>
<time>2024-05-07T13:35:50Z</time>
</trkpt>
<trkpt lat="49.08540724776685" lon="9.55519954673946">
<ele>392.4</ele>
<time>2024-05-07T13:35:51Z</time>
</trkpt>
<trkpt lat="49.08541487529874" lon="9.55517859198153">
<ele>392</ele>
<time>2024-05-07T13:35:52Z</time>
</trkpt>
<trkpt lat="49.08542627468705" lon="9.555161409080029">
<ele>391.6</ele>
<time>2024-05-07T13:35:53Z</time>
</trkpt>
<trkpt lat="49.08543390221894" lon="9.555151937529445">
<ele>391.2</ele>
<time>2024-05-07T13:35:54Z</time>
</trkpt>
<trkpt lat="49.08544538542628" lon="9.555150009691715">
<ele>390.8</ele>
<time>2024-05-07T13:35:55Z</time>
</trkpt>
<trkpt lat="49.085460640490055" lon="9.555151937529445">
<ele>390.4</ele>
<time>2024-05-07T13:35:56Z</time>
</trkpt>
<trkpt lat="49.085479667410254" lon="9.55515956506133">
<ele>390.2</ele>
<time>2024-05-07T13:35:57Z</time>
</trkpt>
<trkpt lat="49.085498778149486" lon="9.555185297504067">
<ele>389.8</ele>
<time>2024-05-07T13:35:58Z</time>
</trkpt>
<trkpt lat="49.0855101775378" lon="9.555225363001227">
<ele>389.4</ele>
<time>2024-05-07T13:35:59Z</time>
</trkpt>
<trkpt lat="49.08552928827703" lon="9.555268278345466">
<ele>389</ele>
<time>2024-05-07T13:36:00Z</time>
</trkpt>
<trkpt lat="49.08553691580891" lon="9.55531974323094">
<ele>388.6</ele>
<time>2024-05-07T13:36:01Z</time>
</trkpt>
<trkpt lat="49.085540771484375" lon="9.555373135954142">
<ele>388.4</ele>
<time>2024-05-07T13:36:02Z</time>
</trkpt>
<trkpt lat="49.0855445433408" lon="9.555424684658648">
<ele>388</ele>
<time>2024-05-07T13:36:03Z</time>
</trkpt>
<trkpt lat="49.085540771484375" lon="9.555477071553469">
<ele>388</ele>
<time>2024-05-07T13:36:04Z</time>
</trkpt>
<trkpt lat="49.085540771484375" lon="9.555524764582517">
<ele>387.8</ele>
<time>2024-05-07T13:36:05Z</time>
</trkpt>
<trkpt lat="49.0855445433408" lon="9.55557631328702">
<ele>387.6</ele>
<time>2024-05-07T13:36:06Z</time>
</trkpt>
<trkpt lat="49.0855445433408" lon="9.555626856163144">
<ele>387.6</ele>
<time>2024-05-07T13:36:07Z</time>
</trkpt>
<trkpt lat="49.0855445433408" lon="9.555676393210888">
<ele>387.4</ele>
<time>2024-05-07T13:36:08Z</time>
</trkpt>
<trkpt lat="49.08554839901626" lon="9.555727941915393">
<ele>387.4</ele>
<time>2024-05-07T13:36:09Z</time>
</trkpt>
<trkpt lat="49.08554839901626" lon="9.555778484791515">
<ele>387.2</ele>
<time>2024-05-07T13:36:10Z</time>
</trkpt>
<trkpt lat="49.08554839901626" lon="9.55582802183926">
<ele>387.2</ele>
<time>2024-05-07T13:36:11Z</time>
</trkpt>
<trkpt lat="49.08554839901626" lon="9.555874792858958">
<ele>387.2</ele>
<time>2024-05-07T13:36:12Z</time>
</trkpt>
<trkpt lat="49.08554839901626" lon="9.555918630212544">
<ele>387.4</ele>
<time>2024-05-07T13:36:13Z</time>
</trkpt>
<trkpt lat="49.08554839901626" lon="9.555963473394511">
<ele>387.6</ele>
<time>2024-05-07T13:36:14Z</time>
</trkpt>
<trkpt lat="49.08554839901626" lon="9.55600831657648">
<ele>387.6</ele>
<time>2024-05-07T13:36:15Z</time>
</trkpt>
<trkpt lat="49.08554839901626" lon="9.556057853624225">
<ele>387.6</ele>
<time>2024-05-07T13:36:16Z</time>
</trkpt>
<trkpt lat="49.08554839901626" lon="9.556104624643922">
<ele>387.8</ele>
<time>2024-05-07T13:36:17Z</time>
</trkpt>
<trkpt lat="49.08554839901626" lon="9.556146617978811">
<ele>387.8</ele>
<time>2024-05-07T13:36:18Z</time>
</trkpt>
<trkpt lat="49.0855445433408" lon="9.556188527494667">
<ele>387.8</ele>
<time>2024-05-07T13:36:19Z</time>
</trkpt>
<trkpt lat="49.085540771484375" lon="9.556233370676637">
<ele>387.8</ele>
<time>2024-05-07T13:36:20Z</time>
</trkpt>
<trkpt lat="49.0855445433408" lon="9.556280057877302">
<ele>387.6</ele>
<time>2024-05-07T13:36:21Z</time>
</trkpt>
<trkpt lat="49.0855445433408" lon="9.556328756734729">
<ele>387.4</ele>
<time>2024-05-07T13:36:22Z</time>
</trkpt>
<trkpt lat="49.0855445433408" lon="9.556376449763777">
<ele>387</ele>
<time>2024-05-07T13:36:23Z</time>
</trkpt>
<trkpt lat="49.08554839901626" lon="9.556421209126713">
<ele>386.8</ele>
<time>2024-05-07T13:36:24Z</time>
</trkpt>
<trkpt lat="49.08554839901626" lon="9.55646513029933">
<ele>386.6</ele>
<time>2024-05-07T13:36:25Z</time>
</trkpt>
<trkpt lat="49.08554839901626" lon="9.55650519579649">
<ele>386.4</ele>
<time>2024-05-07T13:36:26Z</time>
</trkpt>
<trkpt lat="49.08555217087269" lon="9.556536627933385">
<ele>386.4</ele>
<time>2024-05-07T13:36:27Z</time>
</trkpt>
<trkpt lat="49.08557128161192" lon="9.5565633662045">
<ele>386.2</ele>
<time>2024-05-07T13:36:28Z</time>
</trkpt>
<trkpt lat="49.08559416420758" lon="9.556569987908006">
<ele>386</ele>
<time>2024-05-07T13:36:29Z</time>
</trkpt>
<trkpt lat="49.08562081865966" lon="9.556556660681965">
<ele>385.8</ele>
<time>2024-05-07T13:36:30Z</time>
</trkpt>
<trkpt lat="49.08565132878721" lon="9.556518523022532">
<ele>385.6</ele>
<time>2024-05-07T13:36:31Z</time>
</trkpt>
<trkpt lat="49.085674211382866" lon="9.556469907984138">
<ele>385.2</ele>
<time>2024-05-07T13:36:32Z</time>
</trkpt>
<trkpt lat="49.08569709397853" lon="9.556411737576129">
<ele>385</ele>
<time>2024-05-07T13:36:33Z</time>
</trkpt>
<trkpt lat="49.085720060393214" lon="9.55634686164558">
<ele>384.8</ele>
<time>2024-05-07T13:36:34Z</time>
</trkpt>
<trkpt lat="49.0857467148453" lon="9.556275364011526">
<ele>384.6</ele>
<time>2024-05-07T13:36:35Z</time>
</trkpt>
<trkpt lat="49.08577345311642" lon="9.556196155026557">
<ele>384.2</ele>
<time>2024-05-07T13:36:36Z</time>
</trkpt>
<trkpt lat="49.085796335712075" lon="9.55611133016646">
<ele>384.2</ele>
<time>2024-05-07T13:36:37Z</time>
</trkpt>
<trkpt lat="49.085815362632275" lon="9.556024493649602">
<ele>384</ele>
<time>2024-05-07T13:36:38Z</time>
</trkpt>
<trkpt lat="49.08583061769605" lon="9.555934891104698">
<ele>383.8</ele>
<time>2024-05-07T13:36:39Z</time>
</trkpt>
<trkpt lat="49.08584587275982" lon="9.555838583037255">
<ele>383.6</ele>
<time>2024-05-07T13:36:40Z</time>
</trkpt>
<trkpt lat="49.08586112782359" lon="9.555740347132089">
<ele>383.4</ele>
<time>2024-05-07T13:36:41Z</time>
</trkpt>
<trkpt lat="49.085872611030936" lon="9.555636327713728">
<ele>383.4</ele>
<time>2024-05-07T13:36:42Z</time>
</trkpt>
<trkpt lat="49.08588023856282" lon="9.55551814287901">
<ele>383</ele>
<time>2024-05-07T13:36:43Z</time>
</trkpt>
<trkpt lat="49.08588409423828" lon="9.555406495928764">
<ele>382.8</ele>
<time>2024-05-07T13:36:44Z</time>
</trkpt>
<trkpt lat="49.08588409423828" lon="9.555293004959822">
<ele>382.6</ele>
<time>2024-05-07T13:36:45Z</time>
</trkpt>
<trkpt lat="49.08588409423828" lon="9.555168114602566">
<ele>382.2</ele>
<time>2024-05-07T13:36:46Z</time>
</trkpt>
<trkpt lat="49.08588023856282" lon="9.555043140426278">
<ele>382</ele>
<time>2024-05-07T13:36:47Z</time>
</trkpt>
<trkpt lat="49.08587638288736" lon="9.554915400221944">
<ele>381.6</ele>
<time>2024-05-07T13:36:48Z</time>
</trkpt>
<trkpt lat="49.08586112782359" lon="9.554786654189227">
<ele>381.2</ele>
<time>2024-05-07T13:36:49Z</time>
</trkpt>
<trkpt lat="49.08584587275982" lon="9.554671235382555">
<ele>380.8</ele>
<time>2024-05-07T13:36:50Z</time>
</trkpt>
<trkpt lat="49.085834473371506" lon="9.554552966728806">
<ele>380.4</ele>
<time>2024-05-07T13:36:51Z</time>
</trkpt>
<trkpt lat="49.08582299016416" lon="9.55443000420928">
<ele>379.8</ele>
<time>2024-05-07T13:36:52Z</time>
</trkpt>
<trkpt lat="49.08581159077585" lon="9.554314585402608">
<ele>379.2</ele>
<time>2024-05-07T13:36:53Z</time>
</trkpt>
<trkpt lat="49.08581159077585" lon="9.554202016443014">
<ele>378.8</ele>
<time>2024-05-07T13:36:54Z</time>
</trkpt>
<trkpt lat="49.085815362632275" lon="9.554081903770566">
<ele>378.2</ele>
<time>2024-05-07T13:36:55Z</time>
</trkpt>
<trkpt lat="49.08582299016416" lon="9.553964557126164">
<ele>377.6</ele>
<time>2024-05-07T13:36:56Z</time>
</trkpt>
<trkpt lat="49.08582684583962" lon="9.553845366463063">
<ele>377</ele>
<time>2024-05-07T13:36:57Z</time>
</trkpt>
<trkpt lat="49.08583061769605" lon="9.553739503026009">
<ele>376.4</ele>
<time>2024-05-07T13:36:58Z</time>
</trkpt>
<trkpt lat="49.08583061769605" lon="9.55364034511149">
<ele>376</ele>
<time>2024-05-07T13:36:59Z</time>
</trkpt>
<trkpt lat="49.08583061769605" lon="9.553535403683782">
<ele>375.4</ele>
<time>2024-05-07T13:37:00Z</time>
</trkpt>
<trkpt lat="49.08583824522793" lon="9.553435323759912">
<ele>374.8</ele>
<time>2024-05-07T13:37:01Z</time>
</trkpt>
<trkpt lat="49.08584972843528" lon="9.553343709558249">
<ele>374.4</ele>
<time>2024-05-07T13:37:02Z</time>
</trkpt>
<trkpt lat="49.08586498349905" lon="9.553230218589306">
<ele>373.6</ele>
<time>2024-05-07T13:37:03Z</time>
</trkpt>
<trkpt lat="49.08588786609471" lon="9.55312536098063">
<ele>373</ele>
<time>2024-05-07T13:37:04Z</time>
</trkpt>
<trkpt lat="49.0859298594296" lon="9.553020419552922">
<ele>372.4</ele>
<time>2024-05-07T13:37:05Z</time>
</trkpt>
<trkpt lat="49.085971768945456" lon="9.55290692858398">
<ele>372</ele>
<time>2024-05-07T13:37:06Z</time>
</trkpt>
<trkpt lat="49.08602901734412" lon="9.552824953570962">
<ele>371.4</ele>
<time>2024-05-07T13:37:07Z</time>
</trkpt>
<trkpt lat="49.08608626574278" lon="9.552766783162951">
<ele>370.8</ele>
<time>2024-05-07T13:37:08Z</time>
</trkpt>
<trkpt lat="49.08614343032241" lon="9.552715234458448">
<ele>370.4</ele>
<time>2024-05-07T13:37:09Z</time>
</trkpt>
<trkpt lat="49.086189195513725" lon="9.552646586671472">
<ele>370</ele>
<time>2024-05-07T13:37:10Z</time>
</trkpt>
<trkpt lat="49.086231188848615" lon="9.552579866722226">
<ele>369.6</ele>
<time>2024-05-07T13:37:11Z</time>
</trkpt>
<trkpt lat="49.08626169897616" lon="9.552486408501863">
<ele>369.2</ele>
<time>2024-05-07T13:37:12Z</time>
</trkpt>
<trkpt lat="49.08627695403993" lon="9.55239194445312">
<ele>369</ele>
<time>2024-05-07T13:37:13Z</time>
</trkpt>
<trkpt lat="49.08629606477916" lon="9.552299492061138">
<ele>368.8</ele>
<time>2024-05-07T13:37:14Z</time>
</trkpt>
<trkpt lat="49.086311319842935" lon="9.55221458338201">
<ele>368.4</ele>
<time>2024-05-07T13:37:15Z</time>
</trkpt>
<trkpt lat="49.08632271923125" lon="9.552131602540612">
<ele>368.2</ele>
<time>2024-05-07T13:37:16Z</time>
</trkpt>
<trkpt lat="49.08633420243859" lon="9.552051471546292">
<ele>368.2</ele>
<time>2024-05-07T13:37:17Z</time>
</trkpt>
<trkpt lat="49.086349457502365" lon="9.55197997391224">
<ele>368</ele>
<time>2024-05-07T13:37:18Z</time>
</trkpt>
<trkpt lat="49.086368484422565" lon="9.551908476278186">
<ele>368</ele>
<time>2024-05-07T13:37:19Z</time>
</trkpt>
<trkpt lat="49.08637996762991" lon="9.551839828491213">
<ele>368</ele>
<time>2024-05-07T13:37:20Z</time>
</trkpt>
<trkpt lat="49.08639136701822" lon="9.551776880398393">
<ele>368.2</ele>
<time>2024-05-07T13:37:21Z</time>
</trkpt>
<trkpt lat="49.08639907836914" lon="9.551719631999733">
<ele>368.2</ele>
<time>2024-05-07T13:37:22Z</time>
</trkpt>
<trkpt lat="49.08640670590103" lon="9.551666239276528">
<ele>368.4</ele>
<time>2024-05-07T13:37:23Z</time>
</trkpt>
<trkpt lat="49.08641433343291" lon="9.551616618409753">
<ele>368.4</ele>
<time>2024-05-07T13:37:24Z</time>
</trkpt>
<trkpt lat="49.0864219609648" lon="9.551566997542976">
<ele>368.6</ele>
<time>2024-05-07T13:37:25Z</time>
</trkpt>
<trkpt lat="49.086429588496685" lon="9.551513604819776">
<ele>368.8</ele>
<time>2024-05-07T13:37:26Z</time>
</trkpt>
<trkpt lat="49.08643721602857" lon="9.551456440240145">
<ele>369</ele>
<time>2024-05-07T13:37:27Z</time>
</trkpt>
<trkpt lat="49.08644484356046" lon="9.551400113850832">
<ele>369.2</ele>
<time>2024-05-07T13:37:28Z</time>
</trkpt>
<trkpt lat="49.08645247109234" lon="9.551340099424124">
<ele>369.4</ele>
<time>2024-05-07T13:37:29Z</time>
</trkpt>
<trkpt lat="49.08646387048066" lon="9.55128662288189">
<ele>369.6</ele>
<time>2024-05-07T13:37:30Z</time>
</trkpt>
<trkpt lat="49.08647149801254" lon="9.551237085834146">
<ele>369.8</ele>
<time>2024-05-07T13:37:31Z</time>
</trkpt>
<trkpt lat="49.08648298121989" lon="9.551191320642827">
<ele>369.8</ele>
<time>2024-05-07T13:37:32Z</time>
</trkpt>
<trkpt lat="49.086486753076315" lon="9.551151255145667">
<ele>370</ele>
<time>2024-05-07T13:37:33Z</time>
</trkpt>
<trkpt lat="49.08649823628366" lon="9.551114961504936">
<ele>370.4</ele>
<time>2024-05-07T13:37:34Z</time>
</trkpt>
<trkpt lat="49.086505863815546" lon="9.551078751683235">
<ele>370.6</ele>
<time>2024-05-07T13:37:35Z</time>
</trkpt>
<trkpt lat="49.08651726320386" lon="9.551038686186075">
<ele>370.8</ele>
<time>2024-05-07T13:37:36Z</time>
</trkpt>
<trkpt lat="49.086524890735745" lon="9.550999626517296">
<ele>371.2</ele>
<time>2024-05-07T13:37:37Z</time>
</trkpt>
<trkpt lat="49.08653637394309" lon="9.550959561020136">
<ele>371.4</ele>
<time>2024-05-07T13:37:38Z</time>
</trkpt>
<trkpt lat="49.08654777333141" lon="9.550921423360704">
<ele>371.6</ele>
<time>2024-05-07T13:37:39Z</time>
</trkpt>
<trkpt lat="49.08655540086329" lon="9.550883285701277">
<ele>371.8</ele>
<time>2024-05-07T13:37:40Z</time>
</trkpt>
<trkpt lat="49.086566884070635" lon="9.550845064222813">
<ele>372.2</ele>
<time>2024-05-07T13:37:41Z</time>
</trkpt>
<trkpt lat="49.08658213913441" lon="9.550807932391765">
<ele>372.4</ele>
<time>2024-05-07T13:37:42Z</time>
</trkpt>
<trkpt lat="49.08659739419818" lon="9.55077356658876">
<ele>372.8</ele>
<time>2024-05-07T13:37:43Z</time>
</trkpt>
<trkpt lat="49.08661264926195" lon="9.550740206614137">
<ele>373</ele>
<time>2024-05-07T13:37:44Z</time>
</trkpt>
<trkpt lat="49.08663176000118" lon="9.550706846639514">
<ele>373.4</ele>
<time>2024-05-07T13:37:45Z</time>
</trkpt>
<trkpt lat="49.086647015064955" lon="9.55067633651197">
<ele>373.6</ele>
<time>2024-05-07T13:37:46Z</time>
</trkpt>
<trkpt lat="49.08666989766061" lon="9.550649598240852">
<ele>373.8</ele>
<time>2024-05-07T13:37:47Z</time>
</trkpt>
<trkpt lat="49.08669278025627" lon="9.550622859969735">
<ele>374.2</ele>
<time>2024-05-07T13:37:48Z</time>
</trkpt>
<trkpt lat="49.08671566285193" lon="9.5505952835083">
<ele>374.4</ele>
<time>2024-05-07T13:37:49Z</time>
</trkpt>
<trkpt lat="49.08673854544759" lon="9.550573322921991">
<ele>374.8</ele>
<time>2024-05-07T13:37:50Z</time>
</trkpt>
<trkpt lat="49.086765283718705" lon="9.550551362335682">
<ele>375</ele>
<time>2024-05-07T13:37:51Z</time>
</trkpt>
<trkpt lat="49.08679193817079" lon="9.550533257424831">
<ele>375.4</ele>
<time>2024-05-07T13:37:52Z</time>
</trkpt>
<trkpt lat="49.08681867644191" lon="9.550513224676251">
<ele>375.8</ele>
<time>2024-05-07T13:37:53Z</time>
</trkpt>
<trkpt lat="49.08684918656945" lon="9.5504951197654">
<ele>376</ele>
<time>2024-05-07T13:37:54Z</time>
</trkpt>
<trkpt lat="49.08687206916511" lon="9.5504779368639">
<ele>376.2</ele>
<time>2024-05-07T13:37:55Z</time>
</trkpt>
<trkpt lat="49.086902579292655" lon="9.550468381494284">
<ele>376.6</ele>
<time>2024-05-07T13:37:56Z</time>
</trkpt>
<trkpt lat="49.08692931756377" lon="9.550463603809476">
<ele>376.8</ele>
<time>2024-05-07T13:37:57Z</time>
</trkpt>
<trkpt lat="49.08695597201586" lon="9.550463603809476">
<ele>377.2</ele>
<time>2024-05-07T13:37:58Z</time>
</trkpt>
<trkpt lat="49.0869864821434" lon="9.550464609637856">
<ele>377.4</ele>
<time>2024-05-07T13:37:59Z</time>
</trkpt>
<trkpt lat="49.08701699227095" lon="9.550470309332011">
<ele>377.6</ele>
<time>2024-05-07T13:38:00Z</time>
</trkpt>
<trkpt lat="49.087043730542064" lon="9.550473159179091">
<ele>377.8</ele>
<time>2024-05-07T13:38:01Z</time>
</trkpt>
<trkpt lat="49.08707038499415" lon="9.550479864701629">
<ele>378</ele>
<time>2024-05-07T13:38:02Z</time>
</trkpt>
<trkpt lat="49.087097123265266" lon="9.550490342080591">
<ele>378.4</ele>
<time>2024-05-07T13:38:03Z</time>
</trkpt>
<trkpt lat="49.087123861536384" lon="9.55049796961248">
<ele>378.6</ele>
<time>2024-05-07T13:38:04Z</time>
</trkpt>
<trkpt lat="49.08715437166393" lon="9.550508446991444">
<ele>378.8</ele>
<time>2024-05-07T13:38:05Z</time>
</trkpt>
<trkpt lat="49.08718102611601" lon="9.550519930198789">
<ele>379.2</ele>
<time>2024-05-07T13:38:06Z</time>
</trkpt>
<trkpt lat="49.08720776438713" lon="9.550531329587102">
<ele>379.4</ele>
<time>2024-05-07T13:38:07Z</time>
</trkpt>
<trkpt lat="49.087234418839216" lon="9.550544656813145">
<ele>379.8</ele>
<time>2024-05-07T13:38:08Z</time>
</trkpt>
<trkpt lat="49.08726115711033" lon="9.55055806785822">
<ele>380</ele>
<time>2024-05-07T13:38:09Z</time>
</trkpt>
<trkpt lat="49.08728789538145" lon="9.550571395084262">
<ele>380.4</ele>
<time>2024-05-07T13:38:10Z</time>
</trkpt>
<trkpt lat="49.087314549833536" lon="9.550584722310305">
<ele>380.6</ele>
<time>2024-05-07T13:38:11Z</time>
</trkpt>
<trkpt lat="49.08734128810465" lon="9.55059813335538">
<ele>380.8</ele>
<time>2024-05-07T13:38:12Z</time>
</trkpt>
<trkpt lat="49.08736794255674" lon="9.550613388419151">
<ele>381.2</ele>
<time>2024-05-07T13:38:13Z</time>
</trkpt>
<trkpt lat="49.087394680827856" lon="9.550624787807465">
<ele>381.4</ele>
<time>2024-05-07T13:38:14Z</time>
</trkpt>
<trkpt lat="49.087417563423514" lon="9.55063819885254">
<ele>381.6</ele>
<time>2024-05-07T13:38:15Z</time>
</trkpt>
<trkpt lat="49.08744430169463" lon="9.550653453916311">
<ele>381.8</ele>
<time>2024-05-07T13:38:16Z</time>
</trkpt>
<trkpt lat="49.08747095614672" lon="9.550664853304625">
<ele>382</ele>
<time>2024-05-07T13:38:17Z</time>
</trkpt>
<trkpt lat="49.087497694417834" lon="9.55067340284586">
<ele>382.4</ele>
<time>2024-05-07T13:38:18Z</time>
</trkpt>
<trkpt lat="49.08752057701349" lon="9.550682958215477">
<ele>382.8</ele>
<time>2024-05-07T13:38:19Z</time>
</trkpt>
<trkpt lat="49.08754723146558" lon="9.550695363432167">
<ele>383</ele>
<time>2024-05-07T13:38:20Z</time>
</trkpt>
<trkpt lat="49.087573969736695" lon="9.550711624324322">
<ele>383.4</ele>
<time>2024-05-07T13:38:21Z</time>
</trkpt>
<trkpt lat="49.087596852332354" lon="9.550724951550364">
<ele>383.6</ele>
<time>2024-05-07T13:38:22Z</time>
</trkpt>
<trkpt lat="49.08762359060347" lon="9.550740206614137">
<ele>384</ele>
<time>2024-05-07T13:38:23Z</time>
</trkpt>
<trkpt lat="49.08764647319913" lon="9.55075353384018">
<ele>384.2</ele>
<time>2024-05-07T13:38:24Z</time>
</trkpt>
<trkpt lat="49.08766935579479" lon="9.550765017047524">
<ele>384.4</ele>
<time>2024-05-07T13:38:25Z</time>
</trkpt>
<trkpt lat="49.08769601024687" lon="9.55077163875103">
<ele>384.6</ele>
<time>2024-05-07T13:38:26Z</time>
</trkpt>
<trkpt lat="49.08771889284253" lon="9.550780272111297">
<ele>385</ele>
<time>2024-05-07T13:38:27Z</time>
</trkpt>
<trkpt lat="49.08774177543819" lon="9.55079167149961">
<ele>385.2</ele>
<time>2024-05-07T13:38:28Z</time>
</trkpt>
<trkpt lat="49.08776851370931" lon="9.550805082544684">
<ele>385.6</ele>
<time>2024-05-07T13:38:29Z</time>
</trkpt>
<trkpt lat="49.087791396304965" lon="9.550814554095268">
<ele>385.8</ele>
<time>2024-05-07T13:38:30Z</time>
</trkpt>
<trkpt lat="49.08781813457608" lon="9.550827965140344">
<ele>386</ele>
<time>2024-05-07T13:38:31Z</time>
</trkpt>
<trkpt lat="49.08784478902817" lon="9.550840370357037">
<ele>386.4</ele>
<time>2024-05-07T13:38:32Z</time>
</trkpt>
<trkpt lat="49.0878638997674" lon="9.55084984190762">
<ele>386.6</ele>
<time>2024-05-07T13:38:33Z</time>
</trkpt>
<trkpt lat="49.08788678236306" lon="9.550861325114964">
<ele>386.8</ele>
<time>2024-05-07T13:38:34Z</time>
</trkpt>
<trkpt lat="49.08791343681514" lon="9.550874652341008">
<ele>387</ele>
<time>2024-05-07T13:38:35Z</time>
</trkpt>
<trkpt lat="49.0879363194108" lon="9.550887979567053">
<ele>387.4</ele>
<time>2024-05-07T13:38:36Z</time>
</trkpt>
<trkpt lat="49.08795928582549" lon="9.550898540765049">
<ele>387.6</ele>
<time>2024-05-07T13:38:37Z</time>
</trkpt>
<trkpt lat="49.08797831274569" lon="9.550914717838168">
<ele>387.8</ele>
<time>2024-05-07T13:38:38Z</time>
</trkpt>
<trkpt lat="49.08800119534135" lon="9.550926201045511">
<ele>388</ele>
<time>2024-05-07T13:38:39Z</time>
</trkpt>
<trkpt lat="49.08802407793701" lon="9.550938606262209">
<ele>388.2</ele>
<time>2024-05-07T13:38:40Z</time>
</trkpt>
<trkpt lat="49.088046960532665" lon="9.5509528554976">
<ele>388.4</ele>
<time>2024-05-07T13:38:41Z</time>
</trkpt>
<trkpt lat="49.08806984312832" lon="9.55096811056137">
<ele>388.6</ele>
<time>2024-05-07T13:38:42Z</time>
</trkpt>
<trkpt lat="49.088085098192096" lon="9.550983365625145">
<ele>388.8</ele>
<time>2024-05-07T13:38:43Z</time>
</trkpt>
<trkpt lat="49.08810420893133" lon="9.550998620688915">
<ele>389</ele>
<time>2024-05-07T13:38:44Z</time>
</trkpt>
<trkpt lat="49.08812331967056" lon="9.55101295374334">
<ele>389.2</ele>
<time>2024-05-07T13:38:45Z</time>
</trkpt>
<trkpt lat="49.08814234659076" lon="9.55102628096938">
<ele>389.4</ele>
<time>2024-05-07T13:38:46Z</time>
</trkpt>
<trkpt lat="49.088165229186416" lon="9.551039692014456">
<ele>389.6</ele>
<time>2024-05-07T13:38:47Z</time>
</trkpt>
<trkpt lat="49.08818433992565" lon="9.5510530192405">
<ele>390</ele>
<time>2024-05-07T13:38:48Z</time>
</trkpt>
<trkpt lat="49.088203366845846" lon="9.55106634646654">
<ele>390.2</ele>
<time>2024-05-07T13:38:49Z</time>
</trkpt>
<trkpt lat="49.08822247758508" lon="9.551081601530312">
<ele>390.6</ele>
<time>2024-05-07T13:38:50Z</time>
</trkpt>
<trkpt lat="49.08824150450528" lon="9.551103562116625">
<ele>390.8</ele>
<time>2024-05-07T13:38:51Z</time>
</trkpt>
<trkpt lat="49.08825675956905" lon="9.551123594865205">
<ele>391.2</ele>
<time>2024-05-07T13:38:52Z</time>
</trkpt>
<trkpt lat="49.088268242776394" lon="9.55114647746086">
<ele>391.4</ele>
<time>2024-05-07T13:38:53Z</time>
</trkpt>
<trkpt lat="49.088283497840166" lon="9.551170282065868">
<ele>391.6</ele>
<time>2024-05-07T13:38:54Z</time>
</trkpt>
<trkpt lat="49.08829112537205" lon="9.551193164661528">
<ele>391.8</ele>
<time>2024-05-07T13:38:55Z</time>
</trkpt>
<trkpt lat="49.08829875290394" lon="9.551217053085566">
<ele>392.2</ele>
<time>2024-05-07T13:38:56Z</time>
</trkpt>
<trkpt lat="49.088306380435824" lon="9.551244713366032">
<ele>392.4</ele>
<time>2024-05-07T13:38:57Z</time>
</trkpt>
<trkpt lat="49.08831400796771" lon="9.55126851797104">
<ele>392.8</ele>
<time>2024-05-07T13:38:58Z</time>
</trkpt>
<trkpt lat="49.08831786364317" lon="9.551293328404428">
<ele>393</ele>
<time>2024-05-07T13:38:59Z</time>
</trkpt>
<trkpt lat="49.0883216354996" lon="9.551322916522622">
<ele>393.2</ele>
<time>2024-05-07T13:39:00Z</time>
</trkpt>
<trkpt lat="49.0883216354996" lon="9.551356276497245">
<ele>393.6</ele>
<time>2024-05-07T13:39:01Z</time>
</trkpt>
<trkpt lat="49.0883216354996" lon="9.55138871446252">
<ele>393.8</ele>
<time>2024-05-07T13:39:02Z</time>
</trkpt>
<trkpt lat="49.0883216354996" lon="9.551420146599412">
<ele>394.2</ele>
<time>2024-05-07T13:39:03Z</time>
</trkpt>
<trkpt lat="49.0883216354996" lon="9.551453590393066">
<ele>394.4</ele>
<time>2024-05-07T13:39:04Z</time>
</trkpt>
<trkpt lat="49.08831786364317" lon="9.55148309469223">
<ele>394.6</ele>
<time>2024-05-07T13:39:05Z</time>
</trkpt>
<trkpt lat="49.08831400796771" lon="9.551513604819776">
<ele>394.8</ele>
<time>2024-05-07T13:39:06Z</time>
</trkpt>
<trkpt lat="49.08831023611128" lon="9.551549898460507">
<ele>395</ele>
<time>2024-05-07T13:39:07Z</time>
</trkpt>
<trkpt lat="49.0883026085794" lon="9.55158518627286">
<ele>395.4</ele>
<time>2024-05-07T13:39:08Z</time>
</trkpt>
<trkpt lat="49.08829875290394" lon="9.551620474085212">
<ele>395.6</ele>
<time>2024-05-07T13:39:09Z</time>
</trkpt>
<trkpt lat="49.08829875290394" lon="9.551656683906913">
<ele>396</ele>
<time>2024-05-07T13:39:10Z</time>
</trkpt>
<trkpt lat="49.08829875290394" lon="9.551694821566343">
<ele>396.2</ele>
<time>2024-05-07T13:39:11Z</time>
</trkpt>
<trkpt lat="49.0883026085794" lon="9.551734887063503">
<ele>396.6</ele>
<time>2024-05-07T13:39:12Z</time>
</trkpt>
<trkpt lat="49.088306380435824" lon="9.551773024722934">
<ele>396.8</ele>
<time>2024-05-07T13:39:13Z</time>
</trkpt>
<trkpt lat="49.08831023611128" lon="9.551811162382364">
<ele>397</ele>
<time>2024-05-07T13:39:14Z</time>
</trkpt>
<trkpt lat="49.08831023611128" lon="9.551848378032446">
<ele>397.4</ele>
<time>2024-05-07T13:39:15Z</time>
</trkpt>
<trkpt lat="49.088306380435824" lon="9.551886515691876">
<ele>397.6</ele>
<time>2024-05-07T13:39:16Z</time>
</trkpt>
<trkpt lat="49.08831023611128" lon="9.551923731341958">
<ele>398</ele>
<time>2024-05-07T13:39:17Z</time>
</trkpt>
<trkpt lat="49.08831023611128" lon="9.551961869001389">
<ele>398.2</ele>
<time>2024-05-07T13:39:18Z</time>
</trkpt>
<trkpt lat="49.08831023611128" lon="9.55200000666082">
<ele>398.6</ele>
<time>2024-05-07T13:39:19Z</time>
</trkpt>
<trkpt lat="49.08831400796771" lon="9.55203621648252">
<ele>399</ele>
<time>2024-05-07T13:39:20Z</time>
</trkpt>
<trkpt lat="49.08831400796771" lon="9.55207628197968">
<ele>399.4</ele>
<time>2024-05-07T13:39:21Z</time>
</trkpt>
<trkpt lat="49.0883216354996" lon="9.552113497629762">
<ele>399.6</ele>
<time>2024-05-07T13:39:22Z</time>
</trkpt>
<trkpt lat="49.088325491175056" lon="9.552153563126922">
<ele>400</ele>
<time>2024-05-07T13:39:23Z</time>
</trkpt>
<trkpt lat="49.088325491175056" lon="9.55219455063343">
<ele>400.4</ele>
<time>2024-05-07T13:39:24Z</time>
</trkpt>
<trkpt lat="49.08832926303148" lon="9.552233694121242">
<ele>400.8</ele>
<time>2024-05-07T13:39:25Z</time>
</trkpt>
<trkpt lat="49.08833311870694" lon="9.552269903942944">
<ele>401</ele>
<time>2024-05-07T13:39:26Z</time>
</trkpt>
<trkpt lat="49.08834074623883" lon="9.552307119593024">
<ele>401.4</ele>
<time>2024-05-07T13:39:27Z</time>
</trkpt>
<trkpt lat="49.088348373770714" lon="9.552343329414724">
<ele>401.8</ele>
<time>2024-05-07T13:39:28Z</time>
</trkpt>
<trkpt lat="49.08835214562714" lon="9.552381467074156">
<ele>402</ele>
<time>2024-05-07T13:39:29Z</time>
</trkpt>
<trkpt lat="49.08835977315903" lon="9.552416754886508">
<ele>402.4</ele>
<time>2024-05-07T13:39:30Z</time>
</trkpt>
<trkpt lat="49.08835977315903" lon="9.552452964708207">
<ele>402.8</ele>
<time>2024-05-07T13:39:31Z</time>
</trkpt>
<trkpt lat="49.088363628834486" lon="9.55249018035829">
<ele>403.2</ele>
<time>2024-05-07T13:39:32Z</time>
</trkpt>
<trkpt lat="49.088363628834486" lon="9.55252831801772">
<ele>403.6</ele>
<time>2024-05-07T13:39:33Z</time>
</trkpt>
<trkpt lat="49.088363628834486" lon="9.552564611658454">
<ele>404</ele>
<time>2024-05-07T13:39:34Z</time>
</trkpt>
<trkpt lat="49.088363628834486" lon="9.552603671327232">
<ele>404.4</ele>
<time>2024-05-07T13:39:35Z</time>
</trkpt>
<trkpt lat="49.088363628834486" lon="9.552639881148934">
<ele>404.8</ele>
<time>2024-05-07T13:39:36Z</time>
</trkpt>
<trkpt lat="49.088363628834486" lon="9.552677096799016">
<ele>405.2</ele>
<time>2024-05-07T13:39:37Z</time>
</trkpt>
<trkpt lat="49.088363628834486" lon="9.552715234458448">
<ele>405.6</ele>
<time>2024-05-07T13:39:38Z</time>
</trkpt>
<trkpt lat="49.08836740069091" lon="9.552755299955606">
<ele>406</ele>
<time>2024-05-07T13:39:39Z</time>
</trkpt>
<trkpt lat="49.08836740069091" lon="9.552793437615035">
<ele>406.4</ele>
<time>2024-05-07T13:39:40Z</time>
</trkpt>
<trkpt lat="49.088363628834486" lon="9.552833503112195">
<ele>406.8</ele>
<time>2024-05-07T13:39:41Z</time>
</trkpt>
<trkpt lat="49.08835977315903" lon="9.552873568609357">
<ele>407.2</ele>
<time>2024-05-07T13:39:42Z</time>
</trkpt>
<trkpt lat="49.08835977315903" lon="9.552913634106517">
<ele>407.6</ele>
<time>2024-05-07T13:39:43Z</time>
</trkpt>
<trkpt lat="49.08835977315903" lon="9.552951771765947">
<ele>408</ele>
<time>2024-05-07T13:39:44Z</time>
</trkpt>
<trkpt lat="49.088363628834486" lon="9.552991837263107">
<ele>408.4</ele>
<time>2024-05-07T13:39:45Z</time>
</trkpt>
<trkpt lat="49.08836740069091" lon="9.553029974922538">
<ele>408.8</ele>
<time>2024-05-07T13:39:46Z</time>
</trkpt>
<trkpt lat="49.08837125636637" lon="9.553068112581968">
<ele>409.4</ele>
<time>2024-05-07T13:39:47Z</time>
</trkpt>
<trkpt lat="49.0883750282228" lon="9.5531062502414">
<ele>409.8</ele>
<time>2024-05-07T13:39:48Z</time>
</trkpt>
<trkpt lat="49.08837125636637" lon="9.55314539372921">
<ele>410</ele>
<time>2024-05-07T13:39:49Z</time>
</trkpt>
<trkpt lat="49.08837125636637" lon="9.55318353138864">
<ele>410.4</ele>
<time>2024-05-07T13:39:50Z</time>
</trkpt>
<trkpt lat="49.0883750282228" lon="9.55322451889515">
<ele>410.8</ele>
<time>2024-05-07T13:39:51Z</time>
</trkpt>
<trkpt lat="49.0883750282228" lon="9.55326458439231">
<ele>411.2</ele>
<time>2024-05-07T13:39:52Z</time>
</trkpt>
<trkpt lat="49.08837888389826" lon="9.5533065777272">
<ele>411.8</ele>
<time>2024-05-07T13:39:53Z</time>
</trkpt>
<trkpt lat="49.08837888389826" lon="9.553348487243056">
<ele>412.2</ele>
<time>2024-05-07T13:39:54Z</time>
</trkpt>
<trkpt lat="49.088386511430144" lon="9.553391402587296">
<ele>412.6</ele>
<time>2024-05-07T13:39:55Z</time>
</trkpt>
<trkpt lat="49.08839028328657" lon="9.553433395922184">
<ele>412.8</ele>
<time>2024-05-07T13:39:56Z</time>
</trkpt>
<trkpt lat="49.08839791081846" lon="9.553475305438042">
<ele>413.2</ele>
<time>2024-05-07T13:39:57Z</time>
</trkpt>
<trkpt lat="49.08840176649392" lon="9.553516376763582">
<ele>413.4</ele>
<time>2024-05-07T13:39:58Z</time>
</trkpt>
<trkpt lat="49.088405538350344" lon="9.55356021411717">
<ele>413.8</ele>
<time>2024-05-07T13:39:59Z</time>
</trkpt>
<trkpt lat="49.088405538350344" lon="9.553601201623678">
<ele>414</ele>
<time>2024-05-07T13:40:00Z</time>
</trkpt>
<trkpt lat="49.0884093940258" lon="9.553641267120838">
<ele>414.4</ele>
<time>2024-05-07T13:40:01Z</time>
</trkpt>
<trkpt lat="49.08841702155769" lon="9.55368041060865">
<ele>414.8</ele>
<time>2024-05-07T13:40:02Z</time>
</trkpt>
<trkpt lat="49.088428420946" lon="9.55371662043035">
<ele>415</ele>
<time>2024-05-07T13:40:03Z</time>
</trkpt>
<trkpt lat="49.08843990415335" lon="9.55375475808978">
<ele>415.4</ele>
<time>2024-05-07T13:40:04Z</time>
</trkpt>
<trkpt lat="49.08844753168523" lon="9.55379482358694">
<ele>415.8</ele>
<time>2024-05-07T13:40:05Z</time>
</trkpt>
<trkpt lat="49.088462786749005" lon="9.553832039237022">
<ele>416.2</ele>
<time>2024-05-07T13:40:06Z</time>
</trkpt>
<trkpt lat="49.08847804181278" lon="9.553865399211643">
<ele>416.6</ele>
<time>2024-05-07T13:40:07Z</time>
</trkpt>
<trkpt lat="49.08849329687655" lon="9.55389783717692">
<ele>417</ele>
<time>2024-05-07T13:40:08Z</time>
</trkpt>
<trkpt lat="49.08850855194032" lon="9.553933124989271">
<ele>417.4</ele>
<time>2024-05-07T13:40:09Z</time>
</trkpt>
<trkpt lat="49.08853143453598" lon="9.553964557126164">
<ele>417.8</ele>
<time>2024-05-07T13:40:10Z</time>
</trkpt>
<trkpt lat="49.08855431713164" lon="9.553993223235013">
<ele>418.2</ele>
<time>2024-05-07T13:40:11Z</time>
</trkpt>
<trkpt lat="49.0885771997273" lon="9.554015100002289">
<ele>418.6</ele>
<time>2024-05-07T13:40:12Z</time>
</trkpt>
<trkpt lat="49.088603937998414" lon="9.554037060588598">
<ele>418.8</ele>
<time>2024-05-07T13:40:13Z</time>
</trkpt>
<trkpt lat="49.08863067626953" lon="9.554056087508798">
<ele>419</ele>
<time>2024-05-07T13:40:14Z</time>
</trkpt>
<trkpt lat="49.08865355886519" lon="9.554077126085758">
<ele>419.4</ele>
<time>2024-05-07T13:40:15Z</time>
</trkpt>
<trkpt lat="49.08867644146085" lon="9.55409330315888">
<ele>419.6</ele>
<time>2024-05-07T13:40:16Z</time>
</trkpt>
<trkpt lat="49.08870309591293" lon="9.554104786366224">
<ele>420</ele>
<time>2024-05-07T13:40:17Z</time>
</trkpt>
<trkpt lat="49.08872597850859" lon="9.554116185754538">
<ele>420.4</ele>
<time>2024-05-07T13:40:18Z</time>
</trkpt>
<trkpt lat="49.08874886110425" lon="9.554128590971231">
<ele>420.6</ele>
<time>2024-05-07T13:40:19Z</time>
</trkpt>
<trkpt lat="49.08877174369991" lon="9.554140074178576">
<ele>421</ele>
<time>2024-05-07T13:40:20Z</time>
</trkpt>
<trkpt lat="49.08879462629557" lon="9.55414954572916">
<ele>421.4</ele>
<time>2024-05-07T13:40:21Z</time>
</trkpt>
<trkpt lat="49.0888137370348" lon="9.554162956774237">
<ele>421.6</ele>
<time>2024-05-07T13:40:22Z</time>
</trkpt>
<trkpt lat="49.088840475305915" lon="9.55417150631547">
<ele>422</ele>
<time>2024-05-07T13:40:23Z</time>
</trkpt>
<trkpt lat="49.08886335790157" lon="9.554180139675736">
<ele>422.4</ele>
<time>2024-05-07T13:40:24Z</time>
</trkpt>
<trkpt lat="49.08888624049723" lon="9.554186761379242">
<ele>422.8</ele>
<time>2024-05-07T13:40:25Z</time>
</trkpt>
<trkpt lat="49.08891289494932" lon="9.55419153906405">
<ele>423</ele>
<time>2024-05-07T13:40:26Z</time>
</trkpt>
<trkpt lat="49.088935777544975" lon="9.554195394739509">
<ele>423.4</ele>
<time>2024-05-07T13:40:27Z</time>
</trkpt>
<trkpt lat="49.088958660140634" lon="9.554204866290092">
<ele>423.8</ele>
<time>2024-05-07T13:40:28Z</time>
</trkpt>
<trkpt lat="49.08898162655533" lon="9.55421349965036">
<ele>424.2</ele>
<time>2024-05-07T13:40:29Z</time>
</trkpt>
<trkpt lat="49.08900065347552" lon="9.554223055019976">
<ele>424.6</ele>
<time>2024-05-07T13:40:30Z</time>
</trkpt>
<trkpt lat="49.08902353607118" lon="9.554235376417637">
<ele>424.8</ele>
<time>2024-05-07T13:40:31Z</time>
</trkpt>
<trkpt lat="49.08904641866684" lon="9.554244931787252">
<ele>425</ele>
<time>2024-05-07T13:40:32Z</time>
</trkpt>
<trkpt lat="49.08907315693796" lon="9.554260186851025">
<ele>425.4</ele>
<time>2024-05-07T13:40:33Z</time>
</trkpt>
<trkpt lat="49.08909981139004" lon="9.554276447743176">
<ele>425.6</ele>
<time>2024-05-07T13:40:34Z</time>
</trkpt>
<trkpt lat="49.08913032151759" lon="9.55428977496922">
<ele>426</ele>
<time>2024-05-07T13:40:35Z</time>
</trkpt>
<trkpt lat="49.08916091546416" lon="9.554303102195265">
<ele>426.2</ele>
<time>2024-05-07T13:40:36Z</time>
</trkpt>
<trkpt lat="49.08919142559171" lon="9.554320285096765">
<ele>426.4</ele>
<time>2024-05-07T13:40:37Z</time>
</trkpt>
<trkpt lat="49.08921808004379" lon="9.554341239854692">
<ele>426.8</ele>
<time>2024-05-07T13:40:38Z</time>
</trkpt>
<trkpt lat="49.08924481831491" lon="9.554367056116462">
<ele>427</ele>
<time>2024-05-07T13:40:39Z</time>
</trkpt>
<trkpt lat="49.089271472766995" lon="9.554387088865042">
<ele>427.4</ele>
<time>2024-05-07T13:40:40Z</time>
</trkpt>
<trkpt lat="49.08929058350623" lon="9.554416593164206">
<ele>427.8</ele>
<time>2024-05-07T13:40:41Z</time>
</trkpt>
<trkpt lat="49.089313466101885" lon="9.5544461812824">
<ele>428</ele>
<time>2024-05-07T13:40:42Z</time>
</trkpt>
<trkpt lat="49.089340204373" lon="9.554481469094751">
<ele>428.4</ele>
<time>2024-05-07T13:40:43Z</time>
</trkpt>
<trkpt lat="49.08936308696866" lon="9.554516756907104">
<ele>428.6</ele>
<time>2024-05-07T13:40:44Z</time>
</trkpt>
<trkpt lat="49.08938596956432" lon="9.554554894566536">
<ele>428.8</ele>
<time>2024-05-07T13:40:45Z</time>
</trkpt>
<trkpt lat="49.08940499648452" lon="9.554592110216618">
<ele>429</ele>
<time>2024-05-07T13:40:46Z</time>
</trkpt>
<trkpt lat="49.089427879080176" lon="9.554631169885395">
<ele>429.4</ele>
<time>2024-05-07T13:40:47Z</time>
</trkpt>
<trkpt lat="49.08944698981941" lon="9.55466452986002">
<ele>429.6</ele>
<time>2024-05-07T13:40:48Z</time>
</trkpt>
<trkpt lat="49.089469872415066" lon="9.554697973653674">
<ele>430</ele>
<time>2024-05-07T13:40:49Z</time>
</trkpt>
<trkpt lat="49.0894889831543" lon="9.554731333628297">
<ele>430.2</ele>
<time>2024-05-07T13:40:50Z</time>
</trkpt>
<trkpt lat="49.089511865749955" lon="9.55476377159357">
<ele>430.6</ele>
<time>2024-05-07T13:40:51Z</time>
</trkpt>
<trkpt lat="49.089530892670155" lon="9.554799981415272">
<ele>431</ele>
<time>2024-05-07T13:40:52Z</time>
</trkpt>
<trkpt lat="49.089550003409386" lon="9.554835269227624">
<ele>431.2</ele>
<time>2024-05-07T13:40:53Z</time>
</trkpt>
<trkpt lat="49.089569030329585" lon="9.554868629202248">
<ele>431.6</ele>
<time>2024-05-07T13:40:54Z</time>
</trkpt>
<trkpt lat="49.089588141068816" lon="9.55490299500525">
<ele>431.8</ele>
<time>2024-05-07T13:40:55Z</time>
</trkpt>
<trkpt lat="49.089611023664474" lon="9.554936354979873">
<ele>432</ele>
<time>2024-05-07T13:40:56Z</time>
</trkpt>
<trkpt lat="49.08963390626013" lon="9.554971642792225">
<ele>432.4</ele>
<time>2024-05-07T13:40:57Z</time>
</trkpt>
<trkpt lat="49.08965678885579" lon="9.555006930604575">
<ele>432.6</ele>
<time>2024-05-07T13:40:58Z</time>
</trkpt>
<trkpt lat="49.08968352712691" lon="9.55504129640758">
<ele>433</ele>
<time>2024-05-07T13:40:59Z</time>
</trkpt>
<trkpt lat="49.089710181578994" lon="9.555069878697395">
<ele>433.4</ele>
<time>2024-05-07T13:41:00Z</time>
</trkpt>
<trkpt lat="49.08974069170654" lon="9.55509846098721">
<ele>433.8</ele>
<time>2024-05-07T13:41:01Z</time>
</trkpt>
<trkpt lat="49.089767429977655" lon="9.555126121267676">
<ele>434.2</ele>
<time>2024-05-07T13:41:02Z</time>
</trkpt>
<trkpt lat="49.08979408442974" lon="9.555152859538794">
<ele>434.6</ele>
<time>2024-05-07T13:41:03Z</time>
</trkpt>
<trkpt lat="49.08982082270086" lon="9.55517859198153">
<ele>435</ele>
<time>2024-05-07T13:41:04Z</time>
</trkpt>
<trkpt lat="49.08984370529651" lon="9.555203402414918">
<ele>435.2</ele>
<time>2024-05-07T13:41:05Z</time>
</trkpt>
<trkpt lat="49.089870443567634" lon="9.555225363001227">
<ele>435.6</ele>
<time>2024-05-07T13:41:06Z</time>
</trkpt>
<trkpt lat="49.08990095369518" lon="9.555246317759156">
<ele>435.8</ele>
<time>2024-05-07T13:41:07Z</time>
</trkpt>
<trkpt lat="49.08992760814726" lon="9.555270122364163">
<ele>436.2</ele>
<time>2024-05-07T13:41:08Z</time>
</trkpt>
<trkpt lat="49.08995049074292" lon="9.55529686063528">
<ele>436.4</ele>
<time>2024-05-07T13:41:09Z</time>
</trkpt>
<trkpt lat="49.08997722901404" lon="9.555321671068668">
<ele>436.6</ele>
<time>2024-05-07T13:41:10Z</time>
</trkpt>
<trkpt lat="49.0900001116097" lon="9.555343547835946">
<ele>437</ele>
<time>2024-05-07T13:41:11Z</time>
</trkpt>
<trkpt lat="49.090026849880815" lon="9.555363580584526">
<ele>437.2</ele>
<time>2024-05-07T13:41:12Z</time>
</trkpt>
<trkpt lat="49.0900535043329" lon="9.555384619161488">
<ele>437.6</ele>
<time>2024-05-07T13:41:13Z</time>
</trkpt>
<trkpt lat="49.09007638692856" lon="9.555406495928764">
<ele>437.8</ele>
<time>2024-05-07T13:41:14Z</time>
</trkpt>
<trkpt lat="49.09010312519968" lon="9.555426528677344">
<ele>438</ele>
<time>2024-05-07T13:41:15Z</time>
</trkpt>
<trkpt lat="49.090126007795334" lon="9.555446561425924">
<ele>438.2</ele>
<time>2024-05-07T13:41:16Z</time>
</trkpt>
<trkpt lat="49.09014889039099" lon="9.555469444021584">
<ele>438.2</ele>
<time>2024-05-07T13:41:17Z</time>
</trkpt>
<trkpt lat="49.09017562866211" lon="9.555495260283353">
<ele>438.4</ele>
<time>2024-05-07T13:41:18Z</time>
</trkpt>
<trkpt lat="49.09019851125777" lon="9.55551814287901">
<ele>438.6</ele>
<time>2024-05-07T13:41:19Z</time>
</trkpt>
<trkpt lat="49.090221393853426" lon="9.555541947484016">
<ele>438.6</ele>
<time>2024-05-07T13:41:20Z</time>
</trkpt>
<trkpt lat="49.09024427644909" lon="9.555564830079676">
<ele>438.8</ele>
<time>2024-05-07T13:41:21Z</time>
</trkpt>
<trkpt lat="49.09026715904474" lon="9.555589640513062">
<ele>439</ele>
<time>2024-05-07T13:41:22Z</time>
</trkpt>
<trkpt lat="49.0902900416404" lon="9.555618222802876">
<ele>439</ele>
<time>2024-05-07T13:41:23Z</time>
</trkpt>
<trkpt lat="49.090316696092486" lon="9.555644961073996">
<ele>439.2</ele>
<time>2024-05-07T13:41:24Z</time>
</trkpt>
<trkpt lat="49.090339578688145" lon="9.555669771507382">
<ele>439.2</ele>
<time>2024-05-07T13:41:25Z</time>
</trkpt>
<trkpt lat="49.09036631695926" lon="9.555701203644276">
<ele>439.4</ele>
<time>2024-05-07T13:41:26Z</time>
</trkpt>
<trkpt lat="49.09038919955492" lon="9.55573364160955">
<ele>439.6</ele>
<time>2024-05-07T13:41:27Z</time>
</trkpt>
<trkpt lat="49.09041593782604" lon="9.555765073746445">
<ele>439.8</ele>
<time>2024-05-07T13:41:28Z</time>
</trkpt>
<trkpt lat="49.09044644795358" lon="9.555794661864638">
<ele>439.8</ele>
<time>2024-05-07T13:41:29Z</time>
</trkpt>
<trkpt lat="49.09047310240567" lon="9.55583187751472">
<ele>440</ele>
<time>2024-05-07T13:41:30Z</time>
</trkpt>
<trkpt lat="49.090499840676785" lon="9.55586808733642">
<ele>440.2</ele>
<time>2024-05-07T13:41:31Z</time>
</trkpt>
<trkpt lat="49.09053035080433" lon="9.555905302986504">
<ele>440.4</ele>
<time>2024-05-07T13:41:32Z</time>
</trkpt>
<trkpt lat="49.090557089075446" lon="9.555941512808204">
<ele>440.4</ele>
<time>2024-05-07T13:41:33Z</time>
</trkpt>
<trkpt lat="49.09058374352753" lon="9.555978728458284">
<ele>440.6</ele>
<time>2024-05-07T13:41:34Z</time>
</trkpt>
<trkpt lat="49.09061048179865" lon="9.556014938279986">
<ele>440.6</ele>
<time>2024-05-07T13:41:35Z</time>
</trkpt>
<trkpt lat="49.09063336439431" lon="9.55605123192072">
<ele>440.6</ele>
<time>2024-05-07T13:41:36Z</time>
</trkpt>
<trkpt lat="49.09066001884639" lon="9.55609129741788">
<ele>440.6</ele>
<time>2024-05-07T13:41:37Z</time>
</trkpt>
<trkpt lat="49.09068290144205" lon="9.556130357086658">
<ele>440.6</ele>
<time>2024-05-07T13:41:38Z</time>
</trkpt>
<trkpt lat="49.09070586785674" lon="9.556168494746087">
<ele>440.6</ele>
<time>2024-05-07T13:41:39Z</time>
</trkpt>
<trkpt lat="49.090736377984285" lon="9.556202860549092">
<ele>440.8</ele>
<time>2024-05-07T13:41:40Z</time>
</trkpt>
<trkpt lat="49.09076303243637" lon="9.556241920217872">
<ele>440.8</ele>
<time>2024-05-07T13:41:41Z</time>
</trkpt>
<trkpt lat="49.09078591503203" lon="9.556282991543412">
<ele>441</ele>
<time>2024-05-07T13:41:42Z</time>
</trkpt>
<trkpt lat="49.090812653303146" lon="9.55632297322154">
<ele>441</ele>
<time>2024-05-07T13:41:43Z</time>
</trkpt>
<trkpt lat="49.09084316343069" lon="9.556360188871622">
<ele>440.2</ele>
<time>2024-05-07T13:41:44Z</time>
</trkpt>
<trkpt lat="49.09086990170181" lon="9.556394554674624">
<ele>439.8</ele>
<time>2024-05-07T13:41:45Z</time>
</trkpt>
<trkpt lat="49.090892784297466" lon="9.556427914649248">
<ele>439.6</ele>
<time>2024-05-07T13:41:46Z</time>
</trkpt>
<trkpt lat="49.09091943874955" lon="9.556456496939065">
<ele>439.6</ele>
<time>2024-05-07T13:41:47Z</time>
</trkpt>
<trkpt lat="49.090949948877096" lon="9.55648323521018">
<ele>439.6</ele>
<time>2024-05-07T13:41:48Z</time>
</trkpt>
<trkpt lat="49.09097668714821" lon="9.556512823328376">
<ele>439.8</ele>
<time>2024-05-07T13:41:49Z</time>
</trkpt>
<trkpt lat="49.09100719727576" lon="9.556545177474618">
<ele>440</ele>
<time>2024-05-07T13:41:50Z</time>
</trkpt>
<trkpt lat="49.091030079871416" lon="9.556576693430545">
<ele>440.2</ele>
<time>2024-05-07T13:41:51Z</time>
</trkpt>
<trkpt lat="49.09105681814253" lon="9.55660343170166">
<ele>440.2</ele>
<time>2024-05-07T13:41:52Z</time>
</trkpt>
<trkpt lat="49.09108347259462" lon="9.556626314297318">
<ele>440.4</ele>
<time>2024-05-07T13:41:53Z</time>
</trkpt>
<trkpt lat="49.09111783839762" lon="9.55663964152336">
<ele>440.6</ele>
<time>2024-05-07T13:41:54Z</time>
</trkpt>
<trkpt lat="49.09114449284971" lon="9.55665967427194">
<ele>440.8</ele>
<time>2024-05-07T13:41:55Z</time>
</trkpt>
<trkpt lat="49.09117500297725" lon="9.556683478876948">
<ele>441</ele>
<time>2024-05-07T13:41:56Z</time>
</trkpt>
<trkpt lat="49.091209368780255" lon="9.556705439463258">
<ele>441</ele>
<time>2024-05-07T13:41:57Z</time>
</trkpt>
<trkpt lat="49.0912398789078" lon="9.556728322058916">
<ele>441.2</ele>
<time>2024-05-07T13:41:58Z</time>
</trkpt>
<trkpt lat="49.0912742447108" lon="9.556753132492304">
<ele>441.2</ele>
<time>2024-05-07T13:41:59Z</time>
</trkpt>
<trkpt lat="49.091308526694775" lon="9.556776937097313">
<ele>441.2</ele>
<time>2024-05-07T13:42:00Z</time>
</trkpt>
<trkpt lat="49.091346664354205" lon="9.556795042008162">
<ele>441.4</ele>
<time>2024-05-07T13:42:01Z</time>
</trkpt>
<trkpt lat="49.09137725830078" lon="9.556813230738044">
<ele>441.4</ele>
<time>2024-05-07T13:42:02Z</time>
</trkpt>
<trkpt lat="49.09141154028475" lon="9.556828485801816">
<ele>441.4</ele>
<time>2024-05-07T13:42:03Z</time>
</trkpt>
<trkpt lat="49.09143827855587" lon="9.556835107505322">
<ele>441.6</ele>
<time>2024-05-07T13:42:04Z</time>
</trkpt>
<trkpt lat="49.091468788683414" lon="9.556828485801816">
<ele>441.8</ele>
<time>2024-05-07T13:42:05Z</time>
</trkpt>
<trkpt lat="49.091503070667386" lon="9.556815074756742">
<ele>442</ele>
<time>2024-05-07T13:42:06Z</time>
</trkpt>
<trkpt lat="49.0915298089385" lon="9.556796969845893">
<ele>442</ele>
<time>2024-05-07T13:42:07Z</time>
</trkpt>
<trkpt lat="49.09155654720962" lon="9.556775093078612">
<ele>442</ele>
<time>2024-05-07T13:42:08Z</time>
</trkpt>
<trkpt lat="49.091583201661706" lon="9.556748354807496">
<ele>442.2</ele>
<time>2024-05-07T13:42:09Z</time>
</trkpt>
<trkpt lat="49.09160993993282" lon="9.55671977251768">
<ele>442.2</ele>
<time>2024-05-07T13:42:10Z</time>
</trkpt>
<trkpt lat="49.09163659438491" lon="9.556692112237217">
<ele>442.2</ele>
<time>2024-05-07T13:42:11Z</time>
</trkpt>
<trkpt lat="49.09165570512414" lon="9.556665373966098">
<ele>442</ele>
<time>2024-05-07T13:42:12Z</time>
</trkpt>
<trkpt lat="49.09167473204434" lon="9.55663964152336">
<ele>442</ele>
<time>2024-05-07T13:42:13Z</time>
</trkpt>
<trkpt lat="49.09169761464" lon="9.556618686765432">
<ele>442</ele>
<time>2024-05-07T13:42:14Z</time>
</trkpt>
<trkpt lat="49.09172058105469" lon="9.556598654016852">
<ele>442</ele>
<time>2024-05-07T13:42:15Z</time>
</trkpt>
<trkpt lat="49.091743463650346" lon="9.556585242971778">
<ele>442</ele>
<time>2024-05-07T13:42:16Z</time>
</trkpt>
<trkpt lat="49.091766346246" lon="9.556572837755084">
<ele>442</ele>
<time>2024-05-07T13:42:17Z</time>
</trkpt>
<trkpt lat="49.09179300069809" lon="9.5565633662045">
<ele>442.2</ele>
<time>2024-05-07T13:42:18Z</time>
</trkpt>
<trkpt lat="49.09181973896921" lon="9.556549955159426">
<ele>442.2</ele>
<time>2024-05-07T13:42:19Z</time>
</trkpt>
<trkpt lat="49.091838765889406" lon="9.556538555771112">
<ele>442.4</ele>
<time>2024-05-07T13:42:20Z</time>
</trkpt>
<trkpt lat="49.09185787662864" lon="9.556533778086305">
<ele>442.4</ele>
<time>2024-05-07T13:42:21Z</time>
</trkpt>
<trkpt lat="49.091880759224296" lon="9.55652522854507">
<ele>442.4</ele>
<time>2024-05-07T13:42:22Z</time>
</trkpt>
<trkpt lat="49.09190749749541" lon="9.55652137286961">
<ele>442.4</ele>
<time>2024-05-07T13:42:23Z</time>
</trkpt>
<trkpt lat="49.09193800762296" lon="9.556514667347074">
<ele>442.2</ele>
<time>2024-05-07T13:42:24Z</time>
</trkpt>
<trkpt lat="49.0919685177505" lon="9.55650326795876">
<ele>442.2</ele>
<time>2024-05-07T13:42:25Z</time>
</trkpt>
<trkpt lat="49.09199517220259" lon="9.556493712589145">
<ele>442</ele>
<time>2024-05-07T13:42:26Z</time>
</trkpt>
<trkpt lat="49.09202568233013" lon="9.556487007066607">
<ele>442</ele>
<time>2024-05-07T13:42:27Z</time>
</trkpt>
<trkpt lat="49.09205619245768" lon="9.556473679840565">
<ele>441.8</ele>
<time>2024-05-07T13:42:28Z</time>
</trkpt>
<trkpt lat="49.09209441393614" lon="9.55646127462387">
<ele>441.8</ele>
<time>2024-05-07T13:42:29Z</time>
</trkpt>
<trkpt lat="49.092121068388224" lon="9.556453647091985">
<ele>441.6</ele>
<time>2024-05-07T13:42:30Z</time>
</trkpt>
<trkpt lat="49.09215157851577" lon="9.55644509755075">
<ele>441.6</ele>
<time>2024-05-07T13:42:31Z</time>
</trkpt>
<trkpt lat="49.09218594431877" lon="9.556433614343405">
<ele>441.4</ele>
<time>2024-05-07T13:42:32Z</time>
</trkpt>
<trkpt lat="49.09221645444632" lon="9.556421209126713">
<ele>441.4</ele>
<time>2024-05-07T13:42:33Z</time>
</trkpt>
<trkpt lat="49.092254592105746" lon="9.556409809738398">
<ele>441.4</ele>
<time>2024-05-07T13:42:34Z</time>
</trkpt>
<trkpt lat="49.09228895790875" lon="9.556400254368782">
<ele>441.4</ele>
<time>2024-05-07T13:42:35Z</time>
</trkpt>
<trkpt lat="49.09232323989272" lon="9.556389776989818">
<ele>441.4</ele>
<time>2024-05-07T13:42:36Z</time>
</trkpt>
<trkpt lat="49.09236137755215" lon="9.556376449763777">
<ele>441.2</ele>
<time>2024-05-07T13:42:37Z</time>
</trkpt>
<trkpt lat="49.092395743355155" lon="9.556360188871622">
<ele>441.2</ele>
<time>2024-05-07T13:42:38Z</time>
</trkpt>
<trkpt lat="49.092433881014585" lon="9.55634493380785">
<ele>441</ele>
<time>2024-05-07T13:42:39Z</time>
</trkpt>
<trkpt lat="49.09246824681759" lon="9.556331606581807">
<ele>441</ele>
<time>2024-05-07T13:42:40Z</time>
</trkpt>
<trkpt lat="49.09251015633345" lon="9.556316351518037">
<ele>440.8</ele>
<time>2024-05-07T13:42:41Z</time>
</trkpt>
<trkpt lat="49.09254829399288" lon="9.55630486831069">
<ele>440.8</ele>
<time>2024-05-07T13:42:42Z</time>
</trkpt>
<trkpt lat="49.09258265979588" lon="9.556293468922377">
<ele>440.8</ele>
<time>2024-05-07T13:42:43Z</time>
</trkpt>
<trkpt lat="49.09261702559888" lon="9.556280057877302">
<ele>440.6</ele>
<time>2024-05-07T13:42:44Z</time>
</trkpt>
<trkpt lat="49.092651307582855" lon="9.556273436173797">
<ele>440.6</ele>
<time>2024-05-07T13:42:45Z</time>
</trkpt>
<trkpt lat="49.0926818177104" lon="9.556273436173797">
<ele>440.4</ele>
<time>2024-05-07T13:42:46Z</time>
</trkpt>
<trkpt lat="49.0927161835134" lon="9.556276286020877">
<ele>440.4</ele>
<time>2024-05-07T13:42:47Z</time>
</trkpt>
<trkpt lat="49.092750549316406" lon="9.556278213858604">
<ele>440.2</ele>
<time>2024-05-07T13:42:48Z</time>
</trkpt>
<trkpt lat="49.09278483130038" lon="9.556275364011526">
<ele>440.2</ele>
<time>2024-05-07T13:42:49Z</time>
</trkpt>
<trkpt lat="49.09282296895981" lon="9.556273436173797">
<ele>440</ele>
<time>2024-05-07T13:42:50Z</time>
</trkpt>
<trkpt lat="49.09286110661924" lon="9.556273436173797">
<ele>440</ele>
<time>2024-05-07T13:42:51Z</time>
</trkpt>
<trkpt lat="49.09289924427867" lon="9.556273436173797">
<ele>440.2</ele>
<time>2024-05-07T13:42:52Z</time>
</trkpt>
<trkpt lat="49.09293746575713" lon="9.556273436173797">
<ele>440.2</ele>
<time>2024-05-07T13:42:53Z</time>
</trkpt>
<trkpt lat="49.09297560341656" lon="9.556276286020877">
<ele>440.2</ele>
<time>2024-05-07T13:42:54Z</time>
</trkpt>
<trkpt lat="49.093009885400534" lon="9.556278213858604">
<ele>440.2</ele>
<time>2024-05-07T13:42:55Z</time>
</trkpt>
<trkpt lat="49.09304802305997" lon="9.556282991543412">
<ele>440.2</ele>
<time>2024-05-07T13:42:56Z</time>
</trkpt>
<trkpt lat="49.093086160719395" lon="9.556291541084647">
<ele>440.4</ele>
<time>2024-05-07T13:42:57Z</time>
</trkpt>
<trkpt lat="49.09312438219786" lon="9.556296318769457">
<ele>440.4</ele>
<time>2024-05-07T13:42:58Z</time>
</trkpt>
<trkpt lat="49.09315866418183" lon="9.55630486831069">
<ele>440.4</ele>
<time>2024-05-07T13:42:59Z</time>
</trkpt>
<trkpt lat="49.09319680184126" lon="9.556311573833227">
<ele>440.6</ele>
<time>2024-05-07T13:43:00Z</time>
</trkpt>
<trkpt lat="49.09323116764426" lon="9.556320123374462">
<ele>440.6</ele>
<time>2024-05-07T13:43:01Z</time>
</trkpt>
<trkpt lat="49.093265533447266" lon="9.556326828897">
<ele>440.6</ele>
<time>2024-05-07T13:43:02Z</time>
</trkpt>
<trkpt lat="49.09329981543124" lon="9.556333534419537">
<ele>440.8</ele>
<time>2024-05-07T13:43:03Z</time>
</trkpt>
<trkpt lat="49.09333795309067" lon="9.55634300597012">
<ele>440.8</ele>
<time>2024-05-07T13:43:04Z</time>
</trkpt>
<trkpt lat="49.0933760907501" lon="9.556353567168117">
<ele>440.8</ele>
<time>2024-05-07T13:43:05Z</time>
</trkpt>
<trkpt lat="49.0934104565531" lon="9.556362116709352">
<ele>440.8</ele>
<time>2024-05-07T13:43:06Z</time>
</trkpt>
<trkpt lat="49.093444822356105" lon="9.55636496655643">
<ele>440.8</ele>
<time>2024-05-07T13:43:07Z</time>
</trkpt>
<trkpt lat="49.09348673187196" lon="9.55636689439416">
<ele>440.8</ele>
<time>2024-05-07T13:43:08Z</time>
</trkpt>
<trkpt lat="49.09352486953139" lon="9.5563630387187">
<ele>441</ele>
<time>2024-05-07T13:43:09Z</time>
</trkpt>
<trkpt lat="49.093563007190824" lon="9.556358261033893">
<ele>441</ele>
<time>2024-05-07T13:43:10Z</time>
</trkpt>
<trkpt lat="49.09359737299383" lon="9.556353567168117">
<ele>441.2</ele>
<time>2024-05-07T13:43:11Z</time>
</trkpt>
<trkpt lat="49.09363173879683" lon="9.55634493380785">
<ele>441.2</ele>
<time>2024-05-07T13:43:12Z</time>
</trkpt>
<trkpt lat="49.09366987645626" lon="9.556338228285313">
<ele>441.4</ele>
<time>2024-05-07T13:43:13Z</time>
</trkpt>
<trkpt lat="49.09370415844023" lon="9.556326828897">
<ele>441.4</ele>
<time>2024-05-07T13:43:14Z</time>
</trkpt>
<trkpt lat="49.09374229609966" lon="9.556313501670957">
<ele>441.6</ele>
<time>2024-05-07T13:43:15Z</time>
</trkpt>
<trkpt lat="49.093776661902666" lon="9.556300090625882">
<ele>441.6</ele>
<time>2024-05-07T13:43:16Z</time>
</trkpt>
<trkpt lat="49.09381102770567" lon="9.55628676339984">
<ele>441.6</ele>
<time>2024-05-07T13:43:17Z</time>
</trkpt>
<trkpt lat="49.0938491653651" lon="9.556276286020877">
<ele>441.8</ele>
<time>2024-05-07T13:43:18Z</time>
</trkpt>
<trkpt lat="49.09388344734907" lon="9.55626673065126">
<ele>441.8</ele>
<time>2024-05-07T13:43:19Z</time>
</trkpt>
<trkpt lat="49.0939215850085" lon="9.556256253272297">
<ele>441.8</ele>
<time>2024-05-07T13:43:20Z</time>
</trkpt>
<trkpt lat="49.093955950811505" lon="9.55624477006495">
<ele>441.8</ele>
<time>2024-05-07T13:43:21Z</time>
</trkpt>
<trkpt lat="49.093994088470936" lon="9.556235298514366">
<ele>441.8</ele>
<time>2024-05-07T13:43:22Z</time>
</trkpt>
<trkpt lat="49.09402845427394" lon="9.556224821135402">
<ele>442</ele>
<time>2024-05-07T13:43:23Z</time>
</trkpt>
<trkpt lat="49.09406659193337" lon="9.556213337928057">
<ele>442</ele>
<time>2024-05-07T13:43:24Z</time>
</trkpt>
<trkpt lat="49.0941047295928" lon="9.556200010702014">
<ele>442.2</ele>
<time>2024-05-07T13:43:25Z</time>
</trkpt>
<trkpt lat="49.0941390953958" lon="9.556190455332398">
<ele>442.4</ele>
<time>2024-05-07T13:43:26Z</time>
</trkpt>
<trkpt lat="49.094177233055234" lon="9.556178050115705">
<ele>442.4</ele>
<time>2024-05-07T13:43:27Z</time>
</trkpt>
<trkpt lat="49.094215370714664" lon="9.55616656690836">
<ele>442.6</ele>
<time>2024-05-07T13:43:28Z</time>
</trkpt>
<trkpt lat="49.094253508374095" lon="9.556155167520046">
<ele>442.8</ele>
<time>2024-05-07T13:43:29Z</time>
</trkpt>
<trkpt lat="49.094291646033525" lon="9.556144690141082">
<ele>443</ele>
<time>2024-05-07T13:43:30Z</time>
</trkpt>
<trkpt lat="49.09432978369296" lon="9.556137984618545">
<ele>443</ele>
<time>2024-05-07T13:43:31Z</time>
</trkpt>
<trkpt lat="49.094371777027845" lon="9.55613136291504">
<ele>443.2</ele>
<time>2024-05-07T13:43:32Z</time>
</trkpt>
<trkpt lat="49.09440605901182" lon="9.556124657392502">
<ele>443.4</ele>
<time>2024-05-07T13:43:33Z</time>
</trkpt>
<trkpt lat="49.09444042481482" lon="9.556117951869965">
<ele>443.4</ele>
<time>2024-05-07T13:43:34Z</time>
</trkpt>
<trkpt lat="49.094474790617824" lon="9.556113174185157">
<ele>443.6</ele>
<time>2024-05-07T13:43:35Z</time>
</trkpt>
<trkpt lat="49.09451670013368" lon="9.556108396500347">
<ele>443.6</ele>
<time>2024-05-07T13:43:36Z</time>
</trkpt>
<trkpt lat="49.09455483779311" lon="9.556108396500347">
<ele>443.6</ele>
<time>2024-05-07T13:43:37Z</time>
</trkpt>
<trkpt lat="49.094596831128" lon="9.556104624643922">
<ele>442.8</ele>
<time>2024-05-07T13:43:38Z</time>
</trkpt>
<trkpt lat="49.09463882446289" lon="9.556101774796844">
<ele>442.4</ele>
<time>2024-05-07T13:43:39Z</time>
</trkpt>
<trkpt lat="49.09468073397875" lon="9.556097919121385">
<ele>442.2</ele>
<time>2024-05-07T13:43:40Z</time>
</trkpt>
<trkpt lat="49.09472272731364" lon="9.556097919121385">
<ele>442.2</ele>
<time>2024-05-07T13:43:41Z</time>
</trkpt>
<trkpt lat="49.09476086497307" lon="9.556103702634571">
<ele>442.2</ele>
<time>2024-05-07T13:43:42Z</time>
</trkpt>
<trkpt lat="49.0947990026325" lon="9.556108396500347">
<ele>442.4</ele>
<time>2024-05-07T13:43:43Z</time>
</trkpt>
<trkpt lat="49.09483714029193" lon="9.556113174185157">
<ele>442.6</ele>
<time>2024-05-07T13:43:44Z</time>
</trkpt>
<trkpt lat="49.09487913362682" lon="9.556117951869965">
<ele>442.8</ele>
<time>2024-05-07T13:43:45Z</time>
</trkpt>
<trkpt lat="49.09492104314267" lon="9.556124657392502">
<ele>443</ele>
<time>2024-05-07T13:43:46Z</time>
</trkpt>
<trkpt lat="49.094963036477566" lon="9.55613136291504">
<ele>443.4</ele>
<time>2024-05-07T13:43:47Z</time>
</trkpt>
<trkpt lat="49.095005029812455" lon="9.556137984618545">
<ele>443.6</ele>
<time>2024-05-07T13:43:48Z</time>
</trkpt>
<trkpt lat="49.09504693932831" lon="9.556144690141082">
<ele>443.6</ele>
<time>2024-05-07T13:43:49Z</time>
</trkpt>
<trkpt lat="49.09509270451963" lon="9.556155167520046">
<ele>443.8</ele>
<time>2024-05-07T13:43:50Z</time>
</trkpt>
<trkpt lat="49.09513469785452" lon="9.556168494746087">
<ele>444</ele>
<time>2024-05-07T13:43:51Z</time>
</trkpt>
<trkpt lat="49.09517669118941" lon="9.556181905791163">
<ele>444.2</ele>
<time>2024-05-07T13:43:52Z</time>
</trkpt>
<trkpt lat="49.095218600705266" lon="9.556195233017206">
<ele>444.2</ele>
<time>2024-05-07T13:43:53Z</time>
</trkpt>
<trkpt lat="49.095260594040155" lon="9.55620663240552">
<ele>444.2</ele>
<time>2024-05-07T13:43:54Z</time>
</trkpt>
<trkpt lat="49.09530250355601" lon="9.556222893297672">
<ele>444.4</ele>
<time>2024-05-07T13:43:55Z</time>
</trkpt>
<trkpt lat="49.095340725034475" lon="9.556238148361444">
<ele>444.4</ele>
<time>2024-05-07T13:43:56Z</time>
</trkpt>
<trkpt lat="49.095378862693906" lon="9.556253403425217">
<ele>444.4</ele>
<time>2024-05-07T13:43:57Z</time>
</trkpt>
<trkpt lat="49.095417000353336" lon="9.55626673065126">
<ele>444.6</ele>
<time>2024-05-07T13:43:58Z</time>
</trkpt>
<trkpt lat="49.095458909869194" lon="9.556278213858604">
<ele>444.6</ele>
<time>2024-05-07T13:43:59Z</time>
</trkpt>
<trkpt lat="49.095497131347656" lon="9.556289613246918">
<ele>444.8</ele>
<time>2024-05-07T13:44:00Z</time>
</trkpt>
<trkpt lat="49.09553526900709" lon="9.55630486831069">
<ele>444.8</ele>
<time>2024-05-07T13:44:01Z</time>
</trkpt>
<trkpt lat="49.09557340666652" lon="9.55632297322154">
<ele>445</ele>
<time>2024-05-07T13:44:02Z</time>
</trkpt>
<trkpt lat="49.09561154432595" lon="9.55634493380785">
<ele>445</ele>
<time>2024-05-07T13:44:03Z</time>
</trkpt>
<trkpt lat="49.09564968198538" lon="9.556371672078969">
<ele>445.2</ele>
<time>2024-05-07T13:44:04Z</time>
</trkpt>
<trkpt lat="49.09568781964481" lon="9.556396482512357">
<ele>445.2</ele>
<time>2024-05-07T13:44:05Z</time>
</trkpt>
<trkpt lat="49.09572218544781" lon="9.556421209126713">
<ele>445.4</ele>
<time>2024-05-07T13:44:06Z</time>
</trkpt>
<trkpt lat="49.095756467431784" lon="9.55644702538848">
<ele>445.4</ele>
<time>2024-05-07T13:44:07Z</time>
</trkpt>
<trkpt lat="49.095794605091214" lon="9.556471752002835">
<ele>445.6</ele>
<time>2024-05-07T13:44:08Z</time>
</trkpt>
<trkpt lat="49.09582897089422" lon="9.556493712589145">
<ele>445.6</ele>
<time>2024-05-07T13:44:09Z</time>
</trkpt>
<trkpt lat="49.09586333669722" lon="9.556514667347074">
<ele>445.8</ele>
<time>2024-05-07T13:44:10Z</time>
</trkpt>
<trkpt lat="49.09590147435665" lon="9.556536627933385">
<ele>445.8</ele>
<time>2024-05-07T13:44:11Z</time>
</trkpt>
<trkpt lat="49.09593198448419" lon="9.556556660681965">
<ele>446</ele>
<time>2024-05-07T13:44:12Z</time>
</trkpt>
<trkpt lat="49.095970122143626" lon="9.556578621268272">
<ele>446</ele>
<time>2024-05-07T13:44:13Z</time>
</trkpt>
<trkpt lat="49.09600063227117" lon="9.5565995760262">
<ele>446.2</ele>
<time>2024-05-07T13:44:14Z</time>
</trkpt>
<trkpt lat="49.096034998074174" lon="9.556616758927705">
<ele>446.2</ele>
<time>2024-05-07T13:44:15Z</time>
</trkpt>
<trkpt lat="49.096069280058146" lon="9.556634863838552">
<ele>446.4</ele>
<time>2024-05-07T13:44:16Z</time>
</trkpt>
<trkpt lat="49.09609979018569" lon="9.556648191064596">
<ele>446.4</ele>
<time>2024-05-07T13:44:17Z</time>
</trkpt>
<trkpt lat="49.09613415598869" lon="9.556666295975448">
<ele>446.4</ele>
<time>2024-05-07T13:44:18Z</time>
</trkpt>
<trkpt lat="49.096168437972665" lon="9.556686328724028">
<ele>446.6</ele>
<time>2024-05-07T13:44:19Z</time>
</trkpt>
<trkpt lat="49.09620280377567" lon="9.556706361472608">
<ele>446.6</ele>
<time>2024-05-07T13:44:20Z</time>
</trkpt>
<trkpt lat="49.0962409414351" lon="9.556726394221188">
<ele>446.8</ele>
<time>2024-05-07T13:44:21Z</time>
</trkpt>
<trkpt lat="49.09627907909453" lon="9.556746426969768">
<ele>446.8</ele>
<time>2024-05-07T13:44:22Z</time>
</trkpt>
<trkpt lat="49.09632107242942" lon="9.556763609871268">
<ele>446.8</ele>
<time>2024-05-07T13:44:23Z</time>
</trkpt>
<trkpt lat="49.09636306576431" lon="9.55677978694439">
<ele>446.8</ele>
<time>2024-05-07T13:44:24Z</time>
</trkpt>
<trkpt lat="49.09640120342374" lon="9.556793197989464">
<ele>446.8</ele>
<time>2024-05-07T13:44:25Z</time>
</trkpt>
<trkpt lat="49.0964431129396" lon="9.556804597377775">
<ele>446.8</ele>
<time>2024-05-07T13:44:26Z</time>
</trkpt>
<trkpt lat="49.096485106274486" lon="9.556815074756742">
<ele>446.8</ele>
<time>2024-05-07T13:44:27Z</time>
</trkpt>
<trkpt lat="49.09652324393392" lon="9.55681985244155">
<ele>446.6</ele>
<time>2024-05-07T13:44:28Z</time>
</trkpt>
<trkpt lat="49.09656138159335" lon="9.55681985244155">
<ele>446.8</ele>
<time>2024-05-07T13:44:29Z</time>
</trkpt>
<trkpt lat="49.09659951925278" lon="9.55682178027928">
<ele>446.8</ele>
<time>2024-05-07T13:44:30Z</time>
</trkpt>
<trkpt lat="49.09663388505578" lon="9.556824630126355">
<ele>447</ele>
<time>2024-05-07T13:44:31Z</time>
</trkpt>
<trkpt lat="49.096660539507866" lon="9.556831335648894">
<ele>447</ele>
<time>2024-05-07T13:44:32Z</time>
</trkpt>
<trkpt lat="49.09669104963541" lon="9.5568379573524">
<ele>447.2</ele>
<time>2024-05-07T13:44:33Z</time>
</trkpt>
<trkpt lat="49.09671778790653" lon="9.556844662874935">
<ele>447.2</ele>
<time>2024-05-07T13:44:34Z</time>
</trkpt>
<trkpt lat="49.096744526177645" lon="9.556848518550396">
<ele>447.4</ele>
<time>2024-05-07T13:44:35Z</time>
</trkpt>
<trkpt lat="49.0967674087733" lon="9.556857068091633">
<ele>447.4</ele>
<time>2024-05-07T13:44:36Z</time>
</trkpt>
<trkpt lat="49.09679029136896" lon="9.556866623461246">
<ele>447.4</ele>
<time>2024-05-07T13:44:37Z</time>
</trkpt>
<trkpt lat="49.096820801496506" lon="9.55687802284956">
<ele>447.6</ele>
<time>2024-05-07T13:44:38Z</time>
</trkpt>
<trkpt lat="49.09685508348048" lon="9.556886656209826">
<ele>447.6</ele>
<time>2024-05-07T13:44:39Z</time>
</trkpt>
<trkpt lat="49.09688944928348" lon="9.556891433894634">
<ele>447.6</ele>
<time>2024-05-07T13:44:40Z</time>
</trkpt>
<trkpt lat="49.09692758694291" lon="9.55689612776041">
<ele>447.8</ele>
<time>2024-05-07T13:44:41Z</time>
</trkpt>
<trkpt lat="49.0969695802778" lon="9.556903839111328">
<ele>447.8</ele>
<time>2024-05-07T13:44:42Z</time>
</trkpt>
<trkpt lat="49.09701148979366" lon="9.556906688958406">
<ele>448</ele>
<time>2024-05-07T13:44:43Z</time>
</trkpt>
<trkpt lat="49.09705348312855" lon="9.556913310661912">
<ele>448.2</ele>
<time>2024-05-07T13:44:44Z</time>
</trkpt>
<trkpt lat="49.097099248319864" lon="9.55692194402218">
<ele>448.2</ele>
<time>2024-05-07T13:44:45Z</time>
</trkpt>
<trkpt lat="49.09714501351118" lon="9.556929571554065">
<ele>448.4</ele>
<time>2024-05-07T13:44:46Z</time>
</trkpt>
<trkpt lat="49.09718700684607" lon="9.55693619325757">
<ele>448.4</ele>
<time>2024-05-07T13:44:47Z</time>
</trkpt>
<trkpt lat="49.097236627712846" lon="9.556942898780107">
<ele>448.4</ele>
<time>2024-05-07T13:44:48Z</time>
</trkpt>
<trkpt lat="49.09728616476059" lon="9.556951448321342">
<ele>448.6</ele>
<time>2024-05-07T13:44:49Z</time>
</trkpt>
<trkpt lat="49.097331929951906" lon="9.55695622600615">
<ele>448.6</ele>
<time>2024-05-07T13:44:50Z</time>
</trkpt>
<trkpt lat="49.09738155081868" lon="9.556962931528687">
<ele>448.4</ele>
<time>2024-05-07T13:44:51Z</time>
</trkpt>
<trkpt lat="49.09743117168546" lon="9.556968631222844">
<ele>448.4</ele>
<time>2024-05-07T13:44:52Z</time>
</trkpt>
<trkpt lat="49.0974807087332" lon="9.55697533674538">
<ele>448.4</ele>
<time>2024-05-07T13:44:53Z</time>
</trkpt>
<trkpt lat="49.09753032959998" lon="9.55697818659246">
<ele>448.2</ele>
<time>2024-05-07T13:44:54Z</time>
</trkpt>
<trkpt lat="49.09757995046675" lon="9.556981958448889">
<ele>448.2</ele>
<time>2024-05-07T13:44:55Z</time>
</trkpt>
<trkpt lat="49.097633343189955" lon="9.556988663971424">
<ele>448</ele>
<time>2024-05-07T13:44:56Z</time>
</trkpt>
<trkpt lat="49.09768673591316" lon="9.55699536949396">
<ele>448</ele>
<time>2024-05-07T13:44:57Z</time>
</trkpt>
<trkpt lat="49.09774012863636" lon="9.557002997025847">
<ele>448</ele>
<time>2024-05-07T13:44:58Z</time>
</trkpt>
<trkpt lat="49.09779352135956" lon="9.557009618729351">
<ele>447.8</ele>
<time>2024-05-07T13:44:59Z</time>
</trkpt>
<trkpt lat="49.097846914082766" lon="9.55701632425189">
<ele>447.8</ele>
<time>2024-05-07T13:45:00Z</time>
</trkpt>
<trkpt lat="49.097900390625" lon="9.557024873793123">
<ele>447.8</ele>
<time>2024-05-07T13:45:01Z</time>
</trkpt>
<trkpt lat="49.0979537833482" lon="9.557031579315662">
<ele>447.8</ele>
<time>2024-05-07T13:45:02Z</time>
</trkpt>
<trkpt lat="49.098007176071405" lon="9.557040212675927">
<ele>447.8</ele>
<time>2024-05-07T13:45:03Z</time>
</trkpt>
<trkpt lat="49.09805671311915" lon="9.557048762217164">
<ele>447.8</ele>
<time>2024-05-07T13:45:04Z</time>
</trkpt>
<trkpt lat="49.098110189661384" lon="9.55705831758678">
<ele>447.8</ele>
<time>2024-05-07T13:45:05Z</time>
</trkpt>
<trkpt lat="49.09815972670913" lon="9.557062089443209">
<ele>447.8</ele>
<time>2024-05-07T13:45:06Z</time>
</trkpt>
<trkpt lat="49.0982093475759" lon="9.557064939290283">
<ele>447.8</ele>
<time>2024-05-07T13:45:07Z</time>
</trkpt>
<trkpt lat="49.09825511276722" lon="9.557066867128016">
<ele>448</ele>
<time>2024-05-07T13:45:08Z</time>
</trkpt>
<trkpt lat="49.098300877958536" lon="9.557073572650552">
<ele>448</ele>
<time>2024-05-07T13:45:09Z</time>
</trkpt>
<trkpt lat="49.09834664314985" lon="9.557080194354056">
<ele>448</ele>
<time>2024-05-07T13:45:10Z</time>
</trkpt>
<trkpt lat="49.09838863648474" lon="9.557087821885943">
<ele>448</ele>
<time>2024-05-07T13:45:11Z</time>
</trkpt>
<trkpt lat="49.09843440167606" lon="9.55709645524621">
<ele>448</ele>
<time>2024-05-07T13:45:12Z</time>
</trkpt>
<trkpt lat="49.098480166867375" lon="9.557106932625176">
<ele>447.8</ele>
<time>2024-05-07T13:45:13Z</time>
</trkpt>
<trkpt lat="49.09852978773415" lon="9.55711841583252">
<ele>447.8</ele>
<time>2024-05-07T13:45:14Z</time>
</trkpt>
<trkpt lat="49.09857169725001" lon="9.557125037536023">
<ele>447.8</ele>
<time>2024-05-07T13:45:15Z</time>
</trkpt>
<trkpt lat="49.098621318116784" lon="9.557131743058562">
<ele>447.8</ele>
<time>2024-05-07T13:45:16Z</time>
</trkpt>
<trkpt lat="49.0986670833081" lon="9.55713652074337">
<ele>447.8</ele>
<time>2024-05-07T13:45:17Z</time>
</trkpt>
<trkpt lat="49.09871284849942" lon="9.557143142446876">
<ele>447.8</ele>
<time>2024-05-07T13:45:18Z</time>
</trkpt>
<trkpt lat="49.09876246936619" lon="9.557151775807142">
<ele>447.8</ele>
<time>2024-05-07T13:45:19Z</time>
</trkpt>
<trkpt lat="49.09881209023297" lon="9.557160325348375">
<ele>447.8</ele>
<time>2024-05-07T13:45:20Z</time>
</trkpt>
<trkpt lat="49.098857855424285" lon="9.557167952880263">
<ele>447.8</ele>
<time>2024-05-07T13:45:21Z</time>
</trkpt>
<trkpt lat="49.09890739247203" lon="9.55717658624053">
<ele>447.8</ele>
<time>2024-05-07T13:45:22Z</time>
</trkpt>
<trkpt lat="49.09895324148238" lon="9.557180358096955">
<ele>447.8</ele>
<time>2024-05-07T13:45:23Z</time>
</trkpt>
<trkpt lat="49.09900277853012" lon="9.557183207944036">
<ele>447.8</ele>
<time>2024-05-07T13:45:24Z</time>
</trkpt>
<trkpt lat="49.09904477186501" lon="9.557187063619494">
<ele>448</ele>
<time>2024-05-07T13:45:25Z</time>
</trkpt>
<trkpt lat="49.099094308912754" lon="9.557187985628843">
<ele>448</ele>
<time>2024-05-07T13:45:26Z</time>
</trkpt>
<trkpt lat="49.0991401579231" lon="9.55719469115138">
<ele>448</ele>
<time>2024-05-07T13:45:27Z</time>
</trkpt>
<trkpt lat="49.09918592311442" lon="9.557201312854886">
<ele>448.2</ele>
<time>2024-05-07T13:45:28Z</time>
</trkpt>
<trkpt lat="49.099231688305736" lon="9.557212796062233">
<ele>448.2</ele>
<time>2024-05-07T13:45:29Z</time>
</trkpt>
<trkpt lat="49.09927745349705" lon="9.557221345603466">
<ele>448.2</ele>
<time>2024-05-07T13:45:30Z</time>
</trkpt>
<trkpt lat="49.09932321868837" lon="9.557229978963733">
<ele>448.4</ele>
<time>2024-05-07T13:45:31Z</time>
</trkpt>
<trkpt lat="49.099372839555144" lon="9.557236600667238">
<ele>448.4</ele>
<time>2024-05-07T13:45:32Z</time>
</trkpt>
<trkpt lat="49.09942237660289" lon="9.557239450514317">
<ele>448.4</ele>
<time>2024-05-07T13:45:33Z</time>
</trkpt>
<trkpt lat="49.09947585314512" lon="9.557243306189775">
<ele>448.6</ele>
<time>2024-05-07T13:45:34Z</time>
</trkpt>
<trkpt lat="49.099529245868325" lon="9.557250011712313">
<ele>448.6</ele>
<time>2024-05-07T13:45:35Z</time>
</trkpt>
<trkpt lat="49.09958263859153" lon="9.557256633415818">
<ele>448.4</ele>
<time>2024-05-07T13:45:36Z</time>
</trkpt>
<trkpt lat="49.09963988699019" lon="9.557259483262897">
<ele>448.4</ele>
<time>2024-05-07T13:45:37Z</time>
</trkpt>
<trkpt lat="49.09969327971339" lon="9.557263338938355">
<ele>448.2</ele>
<time>2024-05-07T13:45:38Z</time>
</trkpt>
<trkpt lat="49.09975429996848" lon="9.557268116623163">
<ele>448.2</ele>
<time>2024-05-07T13:45:39Z</time>
</trkpt>
<trkpt lat="49.09981154836714" lon="9.557276666164398">
<ele>448</ele>
<time>2024-05-07T13:45:40Z</time>
</trkpt>
<trkpt lat="49.09987256862223" lon="9.557285299524665">
<ele>448</ele>
<time>2024-05-07T13:45:41Z</time>
</trkpt>
<trkpt lat="49.09992973320186" lon="9.557292927056553">
<ele>447.8</ele>
<time>2024-05-07T13:45:42Z</time>
</trkpt>
<trkpt lat="49.09998698160052" lon="9.557299548760056">
<ele>447.8</ele>
<time>2024-05-07T13:45:43Z</time>
</trkpt>
<trkpt lat="49.100044229999185" lon="9.557306254282594">
<ele>447.6</ele>
<time>2024-05-07T13:45:44Z</time>
</trkpt>
<trkpt lat="49.10010525025427" lon="9.55731195397675">
<ele>447.6</ele>
<time>2024-05-07T13:45:45Z</time>
</trkpt>
<trkpt lat="49.10016627050936" lon="9.557319581508636">
<ele>447.4</ele>
<time>2024-05-07T13:45:46Z</time>
</trkpt>
<trkpt lat="49.100223518908024" lon="9.5573300588876">
<ele>447.4</ele>
<time>2024-05-07T13:45:47Z</time>
</trkpt>
<trkpt lat="49.100280683487654" lon="9.557338692247868">
<ele>447.4</ele>
<time>2024-05-07T13:45:48Z</time>
</trkpt>
<trkpt lat="49.100341787561774" lon="9.557348247617483">
<ele>447.4</ele>
<time>2024-05-07T13:45:49Z</time>
</trkpt>
<trkpt lat="49.10039895214141" lon="9.557356797158718">
<ele>447.4</ele>
<time>2024-05-07T13:45:50Z</time>
</trkpt>
<trkpt lat="49.10045997239649" lon="9.557363502681255">
<ele>447.2</ele>
<time>2024-05-07T13:45:51Z</time>
</trkpt>
<trkpt lat="49.100517220795155" lon="9.55737012438476">
<ele>447.2</ele>
<time>2024-05-07T13:45:52Z</time>
</trkpt>
<trkpt lat="49.10057824105024" lon="9.557376829907298">
<ele>447</ele>
<time>2024-05-07T13:45:53Z</time>
</trkpt>
<trkpt lat="49.10063926130533" lon="9.557383535429835">
<ele>447</ele>
<time>2024-05-07T13:45:54Z</time>
</trkpt>
<trkpt lat="49.10070036537945" lon="9.55739015713334">
<ele>446.8</ele>
<time>2024-05-07T13:45:55Z</time>
</trkpt>
<trkpt lat="49.10076138563454" lon="9.557396862655878">
<ele>446.6</ele>
<time>2024-05-07T13:45:56Z</time>
</trkpt>
<trkpt lat="49.1008186340332" lon="9.557405412197111">
<ele>446.6</ele>
<time>2024-05-07T13:45:57Z</time>
</trkpt>
<trkpt lat="49.10087965428829" lon="9.55741111189127">
<ele>446.4</ele>
<time>2024-05-07T13:45:58Z</time>
</trkpt>
<trkpt lat="49.10093681886792" lon="9.557418823242188">
<ele>446.2</ele>
<time>2024-05-07T13:45:59Z</time>
</trkpt>
<trkpt lat="49.10099792294204" lon="9.557424522936344">
<ele>446.2</ele>
<time>2024-05-07T13:46:00Z</time>
</trkpt>
<trkpt lat="49.10105508752167" lon="9.55743307247758">
<ele>446.2</ele>
<time>2024-05-07T13:46:01Z</time>
</trkpt>
<trkpt lat="49.101112335920334" lon="9.557441705837846">
<ele>446</ele>
<time>2024-05-07T13:46:02Z</time>
</trkpt>
<trkpt lat="49.101169584318995" lon="9.557448327541351">
<ele>446</ele>
<time>2024-05-07T13:46:03Z</time>
</trkpt>
<trkpt lat="49.101226748898625" lon="9.557455033063889">
<ele>446</ele>
<time>2024-05-07T13:46:04Z</time>
</trkpt>
<trkpt lat="49.10128014162183" lon="9.557466432452202">
<ele>446</ele>
<time>2024-05-07T13:46:05Z</time>
</trkpt>
<trkpt lat="49.10133739002049" lon="9.557476993650198">
<ele>446</ele>
<time>2024-05-07T13:46:06Z</time>
</trkpt>
<trkpt lat="49.10139463841915" lon="9.557483615353703">
<ele>446</ele>
<time>2024-05-07T13:46:07Z</time>
</trkpt>
<trkpt lat="49.10145180299878" lon="9.557488393038511">
<ele>445.8</ele>
<time>2024-05-07T13:46:08Z</time>
</trkpt>
<trkpt lat="49.10150905139744" lon="9.557495098561049">
<ele>445.8</ele>
<time>2024-05-07T13:46:09Z</time>
</trkpt>
<trkpt lat="49.101566299796104" lon="9.557503648102283">
<ele>445.6</ele>
<time>2024-05-07T13:46:10Z</time>
</trkpt>
<trkpt lat="49.10161969251931" lon="9.55751035362482">
<ele>445.6</ele>
<time>2024-05-07T13:46:11Z</time>
</trkpt>
<trkpt lat="49.10167308524251" lon="9.557517981156709">
<ele>445.4</ele>
<time>2024-05-07T13:46:12Z</time>
</trkpt>
<trkpt lat="49.10172647796571" lon="9.557523680850863">
<ele>445.4</ele>
<time>2024-05-07T13:46:13Z</time>
</trkpt>
<trkpt lat="49.10177609883249" lon="9.55753130838275">
<ele>445.2</ele>
<time>2024-05-07T13:46:14Z</time>
</trkpt>
<trkpt lat="49.10182563588023" lon="9.557539857923985">
<ele>445.2</ele>
<time>2024-05-07T13:46:15Z</time>
</trkpt>
<trkpt lat="49.10187525674701" lon="9.557543713599443">
<ele>445.2</ele>
<time>2024-05-07T13:46:16Z</time>
</trkpt>
<trkpt lat="49.10192487761378" lon="9.55755041912198">
<ele>445.2</ele>
<time>2024-05-07T13:46:17Z</time>
</trkpt>
<trkpt lat="49.1019706428051" lon="9.557558046653869">
<ele>445.4</ele>
<time>2024-05-07T13:46:18Z</time>
</trkpt>
<trkpt lat="49.102016407996416" lon="9.557563746348023">
<ele>445.4</ele>
<time>2024-05-07T13:46:19Z</time>
</trkpt>
<trkpt lat="49.10206217318773" lon="9.557568524032831">
<ele>445.6</ele>
<time>2024-05-07T13:46:20Z</time>
</trkpt>
<trkpt lat="49.10210793837905" lon="9.55757330171764">
<ele>445.6</ele>
<time>2024-05-07T13:46:21Z</time>
</trkpt>
<trkpt lat="49.10214993171394" lon="9.557578079402449">
<ele>445.8</ele>
<time>2024-05-07T13:46:22Z</time>
</trkpt>
<trkpt lat="49.10218421369791" lon="9.557582773268225">
<ele>445.8</ele>
<time>2024-05-07T13:46:23Z</time>
</trkpt>
<trkpt lat="49.10222243517637" lon="9.55759048461914">
<ele>445.8</ele>
<time>2024-05-07T13:46:24Z</time>
</trkpt>
<trkpt lat="49.1022605728358" lon="9.557595178484917">
<ele>446</ele>
<time>2024-05-07T13:46:25Z</time>
</trkpt>
<trkpt lat="49.102294854819775" lon="9.557603811845183">
<ele>446.2</ele>
<time>2024-05-07T13:46:26Z</time>
</trkpt>
<trkpt lat="49.10232922062278" lon="9.557615211233497">
<ele>446.4</ele>
<time>2024-05-07T13:46:27Z</time>
</trkpt>
<trkpt lat="49.10235973075032" lon="9.557635243982077">
<ele>446.4</ele>
<time>2024-05-07T13:46:28Z</time>
</trkpt>
<trkpt lat="49.10238646902144" lon="9.557653348892927">
<ele>446.6</ele>
<time>2024-05-07T13:46:29Z</time>
</trkpt>
<trkpt lat="49.10239786840975" lon="9.557661982253194">
<ele>446.8</ele>
<time>2024-05-07T13:46:30Z</time>
</trkpt>
<trkpt lat="49.10240549594164" lon="9.557661982253194">
<ele>446.8</ele>
<time>2024-05-07T13:46:31Z</time>
</trkpt>
<trkpt lat="49.10240549594164" lon="9.557664832100272">
<ele>446.8</ele>
<time>2024-05-07T13:46:33Z</time>
</trkpt>
<trkpt lat="49.10240549594164" lon="9.557666759938002">
<ele>447</ele>
<time>2024-05-07T13:46:34Z</time>
</trkpt>
<trkpt lat="49.1024093516171" lon="9.557666759938002">
<ele>447</ele>
<time>2024-05-07T13:46:36Z</time>
</trkpt>
<trkpt lat="49.1024093516171" lon="9.557664832100272">
<ele>447.2</ele>
<time>2024-05-07T13:46:40Z</time>
</trkpt>
<trkpt lat="49.1024093516171" lon="9.557666759938002">
<ele>447.2</ele>
<time>2024-05-07T13:46:41Z</time>
</trkpt>
<trkpt lat="49.102413123473525" lon="9.557666759938002">
<ele>447.4</ele>
<time>2024-05-07T13:46:43Z</time>
</trkpt>
<trkpt lat="49.102413123473525" lon="9.557664832100272">
<ele>447.4</ele>
<time>2024-05-07T13:46:49Z</time>
</trkpt>
<trkpt lat="49.102413123473525" lon="9.557662904262545">
<ele>447.6</ele>
<time>2024-05-07T13:46:54Z</time>
</trkpt>
<trkpt lat="49.102413123473525" lon="9.557664832100272">
<ele>447.6</ele>
<time>2024-05-07T13:46:55Z</time>
</trkpt>
<trkpt lat="49.102416979148984" lon="9.557662904262545">
<ele>447.6</ele>
<time>2024-05-07T13:46:58Z</time>
</trkpt>
<trkpt lat="49.102416979148984" lon="9.557661982253194">
<ele>447.6</ele>
<time>2024-05-07T13:47:00Z</time>
</trkpt>
<trkpt lat="49.102413123473525" lon="9.557661982253194">
<ele>447.8</ele>
<time>2024-05-07T13:47:02Z</time>
</trkpt>
<trkpt lat="49.102413123473525" lon="9.557660054415464">
<ele>447.8</ele>
<time>2024-05-07T13:47:03Z</time>
</trkpt>
<trkpt lat="49.102416979148984" lon="9.557658126577737">
<ele>447.8</ele>
<time>2024-05-07T13:47:04Z</time>
</trkpt>
<trkpt lat="49.102416979148984" lon="9.557656282559035">
<ele>447.8</ele>
<time>2024-05-07T13:47:07Z</time>
</trkpt>
<trkpt lat="49.102413123473525" lon="9.557656282559035">
<ele>447.8</ele>
<time>2024-05-07T13:47:17Z</time>
</trkpt>
<trkpt lat="49.102413123473525" lon="9.557658126577737">
<ele>447.8</ele>
<time>2024-05-07T13:47:21Z</time>
</trkpt>
<trkpt lat="49.102416979148984" lon="9.557656282559035">
<ele>448</ele>
<time>2024-05-07T13:47:25Z</time>
</trkpt>
<trkpt lat="49.102416979148984" lon="9.557658126577737">
<ele>448</ele>
<time>2024-05-07T13:47:26Z</time>
</trkpt>
<trkpt lat="49.102413123473525" lon="9.557658126577737">
<ele>448</ele>
<time>2024-05-07T13:47:33Z</time>
</trkpt>
<trkpt lat="49.102416979148984" lon="9.557660054415464">
<ele>448</ele>
<time>2024-05-07T13:47:37Z</time>
</trkpt>
<trkpt lat="49.102413123473525" lon="9.557660054415464">
<ele>448</ele>
<time>2024-05-07T13:47:38Z</time>
</trkpt>
<trkpt lat="49.102413123473525" lon="9.557658126577737">
<ele>448</ele>
<time>2024-05-07T13:47:40Z</time>
</trkpt>
<trkpt lat="49.102416979148984" lon="9.557658126577737">
<ele>448</ele>
<time>2024-05-07T13:47:41Z</time>
</trkpt>
<trkpt lat="49.102413123473525" lon="9.557656282559035">
<ele>448</ele>
<time>2024-05-07T13:47:42Z</time>
</trkpt>
<trkpt lat="49.102416979148984" lon="9.557655276730657">
<ele>448</ele>
<time>2024-05-07T13:47:44Z</time>
</trkpt>
<trkpt lat="49.102413123473525" lon="9.557655276730657">
<ele>447.8</ele>
<time>2024-05-07T13:47:47Z</time>
</trkpt>
<trkpt lat="49.102416979148984" lon="9.557653348892927">
<ele>447.8</ele>
<time>2024-05-07T13:47:48Z</time>
</trkpt>
<trkpt lat="49.102416979148984" lon="9.55765150487423">
<ele>447.6</ele>
<time>2024-05-07T13:47:49Z</time>
</trkpt>
<trkpt lat="49.102416979148984" lon="9.557653348892927">
<ele>447.4</ele>
<time>2024-05-07T13:47:50Z</time>
</trkpt>
<trkpt lat="49.102416979148984" lon="9.557655276730657">
<ele>447.4</ele>
<time>2024-05-07T13:48:00Z</time>
</trkpt>
<trkpt lat="49.102416979148984" lon="9.557656282559035">
<ele>447.2</ele>
<time>2024-05-07T13:48:03Z</time>
</trkpt>
<trkpt lat="49.102416979148984" lon="9.557658126577737">
<ele>447.2</ele>
<time>2024-05-07T13:48:04Z</time>
</trkpt>
<trkpt lat="49.102416979148984" lon="9.557660054415464">
<ele>447</ele>
<time>2024-05-07T13:48:06Z</time>
</trkpt>
<trkpt lat="49.102416979148984" lon="9.557656282559035">
<ele>447</ele>
<time>2024-05-07T13:48:07Z</time>
</trkpt>
<trkpt lat="49.102416979148984" lon="9.557655276730657">
<ele>447</ele>
<time>2024-05-07T13:48:08Z</time>
</trkpt>
<trkpt lat="49.102416979148984" lon="9.557653348892927">
<ele>447</ele>
<time>2024-05-07T13:48:09Z</time>
</trkpt>
<trkpt lat="49.102416979148984" lon="9.557655276730657">
<ele>447.2</ele>
<time>2024-05-07T13:48:10Z</time>
</trkpt>
<trkpt lat="49.102416979148984" lon="9.557653348892927">
<ele>447.2</ele>
<time>2024-05-07T13:48:15Z</time>
</trkpt>
<trkpt lat="49.102416979148984" lon="9.557655276730657">
<ele>447.2</ele>
<time>2024-05-07T13:48:18Z</time>
</trkpt>
<trkpt lat="49.102416979148984" lon="9.557653348892927">
<ele>447.2</ele>
<time>2024-05-07T13:48:20Z</time>
</trkpt>
<trkpt lat="49.102416979148984" lon="9.5576495770365">
<ele>447.2</ele>
<time>2024-05-07T13:48:23Z</time>
</trkpt>
<trkpt lat="49.102416979148984" lon="9.557648655027153">
<ele>447.2</ele>
<time>2024-05-07T13:48:24Z</time>
</trkpt>
<trkpt lat="49.10242075100541" lon="9.557646727189422">
<ele>447.2</ele>
<time>2024-05-07T13:48:25Z</time>
</trkpt>
<trkpt lat="49.102416979148984" lon="9.557646727189422">
<ele>447.4</ele>
<time>2024-05-07T13:48:26Z</time>
</trkpt>
<trkpt lat="49.10242075100541" lon="9.557648655027153">
<ele>447.4</ele>
<time>2024-05-07T13:48:28Z</time>
</trkpt>
<trkpt lat="49.102416979148984" lon="9.557648655027153">
<ele>447.4</ele>
<time>2024-05-07T13:48:31Z</time>
</trkpt>
<trkpt lat="49.10242075100541" lon="9.557648655027153">
<ele>447.4</ele>
<time>2024-05-07T13:48:33Z</time>
</trkpt>
<trkpt lat="49.10242075100541" lon="9.557646727189422">
<ele>447.4</ele>
<time>2024-05-07T13:48:39Z</time>
</trkpt>
<trkpt lat="49.10242075100541" lon="9.557648655027153">
<ele>447.4</ele>
<time>2024-05-07T13:48:43Z</time>
</trkpt>
<trkpt lat="49.10242075100541" lon="9.557646727189422">
<ele>447.4</ele>
<time>2024-05-07T13:48:45Z</time>
</trkpt>
<trkpt lat="49.10242075100541" lon="9.557648655027153">
<ele>447.4</ele>
<time>2024-05-07T13:48:48Z</time>
</trkpt>
<trkpt lat="49.10242075100541" lon="9.5576495770365">
<ele>447.4</ele>
<time>2024-05-07T13:48:51Z</time>
</trkpt>
<trkpt lat="49.10242075100541" lon="9.557648655027153">
<ele>447.4</ele>
<time>2024-05-07T13:49:01Z</time>
</trkpt>
<trkpt lat="49.10242460668087" lon="9.557648655027153">
<ele>447.4</ele>
<time>2024-05-07T13:49:09Z</time>
</trkpt>
<trkpt lat="49.10242460668087" lon="9.5576495770365">
<ele>447.2</ele>
<time>2024-05-07T13:49:14Z</time>
</trkpt>
<trkpt lat="49.10242460668087" lon="9.55765150487423">
<ele>447.2</ele>
<time>2024-05-07T13:49:16Z</time>
</trkpt>
<trkpt lat="49.10242460668087" lon="9.557653348892927">
<ele>447.2</ele>
<time>2024-05-07T13:49:19Z</time>
</trkpt>
<trkpt lat="49.10242460668087" lon="9.557655276730657">
<ele>447.2</ele>
<time>2024-05-07T13:49:22Z</time>
</trkpt>
<trkpt lat="49.10242460668087" lon="9.557653348892927">
<ele>447.2</ele>
<time>2024-05-07T13:49:23Z</time>
</trkpt>
<trkpt lat="49.10242460668087" lon="9.557655276730657">
<ele>447.2</ele>
<time>2024-05-07T13:49:26Z</time>
</trkpt>
<trkpt lat="49.10242460668087" lon="9.557653348892927">
<ele>447.2</ele>
<time>2024-05-07T13:49:27Z</time>
</trkpt>
<trkpt lat="49.10242460668087" lon="9.55765150487423">
<ele>447.2</ele>
<time>2024-05-07T13:49:29Z</time>
</trkpt>
<trkpt lat="49.10242460668087" lon="9.557653348892927">
<ele>447</ele>
<time>2024-05-07T13:49:32Z</time>
</trkpt>
<trkpt lat="49.10242075100541" lon="9.557653348892927">
<ele>447</ele>
<time>2024-05-07T13:49:35Z</time>
</trkpt>
<trkpt lat="49.10242075100541" lon="9.557655276730657">
<ele>447</ele>
<time>2024-05-07T13:49:40Z</time>
</trkpt>
<trkpt lat="49.10242460668087" lon="9.557655276730657">
<ele>447</ele>
<time>2024-05-07T13:49:42Z</time>
</trkpt>
<trkpt lat="49.10242075100541" lon="9.557655276730657">
<ele>447.2</ele>
<time>2024-05-07T13:49:43Z</time>
</trkpt>
<trkpt lat="49.10242460668087" lon="9.557653348892927">
<ele>447.2</ele>
<time>2024-05-07T13:49:46Z</time>
</trkpt>
<trkpt lat="49.10242075100541" lon="9.557653348892927">
<ele>447.2</ele>
<time>2024-05-07T13:49:47Z</time>
</trkpt>
<trkpt lat="49.10242460668087" lon="9.557653348892927">
<ele>447.2</ele>
<time>2024-05-07T13:49:49Z</time>
</trkpt>
<trkpt lat="49.10242460668087" lon="9.55765150487423">
<ele>447.4</ele>
<time>2024-05-07T13:49:50Z</time>
</trkpt>
<trkpt lat="49.10242460668087" lon="9.5576495770365">
<ele>447.4</ele>
<time>2024-05-07T13:49:54Z</time>
</trkpt>
<trkpt lat="49.10242460668087" lon="9.557648655027153">
<ele>447.4</ele>
<time>2024-05-07T13:49:56Z</time>
</trkpt>
<trkpt lat="49.10242460668087" lon="9.5576495770365">
<ele>447.4</ele>
<time>2024-05-07T13:49:57Z</time>
</trkpt>
<trkpt lat="49.10242460668087" lon="9.557648655027153">
<ele>447.4</ele>
<time>2024-05-07T13:49:59Z</time>
</trkpt>
<trkpt lat="49.1024283785373" lon="9.5576495770365">
<ele>447.4</ele>
<time>2024-05-07T13:50:00Z</time>
</trkpt>
<trkpt lat="49.1024283785373" lon="9.55765150487423">
<ele>447.4</ele>
<time>2024-05-07T13:50:01Z</time>
</trkpt>
<trkpt lat="49.1024283785373" lon="9.5576495770365">
<ele>447.6</ele>
<time>2024-05-07T13:50:05Z</time>
</trkpt>
<trkpt lat="49.10242460668087" lon="9.557648655027153">
<ele>447.4</ele>
<time>2024-05-07T13:50:06Z</time>
</trkpt>
<trkpt lat="49.10242460668087" lon="9.5576495770365">
<ele>447.4</ele>
<time>2024-05-07T13:50:10Z</time>
</trkpt>
<trkpt lat="49.1024283785373" lon="9.557648655027153">
<ele>447.4</ele>
<time>2024-05-07T13:50:11Z</time>
</trkpt>
<trkpt lat="49.10242460668087" lon="9.557648655027153">
<ele>447.4</ele>
<time>2024-05-07T13:50:12Z</time>
</trkpt>
<trkpt lat="49.10242460668087" lon="9.5576495770365">
<ele>447.2</ele>
<time>2024-05-07T13:50:16Z</time>
</trkpt>
<trkpt lat="49.1024283785373" lon="9.557648655027153">
<ele>447.2</ele>
<time>2024-05-07T13:50:19Z</time>
</trkpt>
<trkpt lat="49.1024283785373" lon="9.557646727189422">
<ele>447</ele>
<time>2024-05-07T13:50:25Z</time>
</trkpt>
<trkpt lat="49.1024283785373" lon="9.557644799351692">
<ele>447</ele>
<time>2024-05-07T13:50:26Z</time>
</trkpt>
<trkpt lat="49.1024283785373" lon="9.557642871513965">
<ele>446.8</ele>
<time>2024-05-07T13:50:28Z</time>
</trkpt>
<trkpt lat="49.1024283785373" lon="9.557644799351692">
<ele>446.8</ele>
<time>2024-05-07T13:50:29Z</time>
</trkpt>
<trkpt lat="49.1024283785373" lon="9.557641949504614">
<ele>446.8</ele>
<time>2024-05-07T13:50:30Z</time>
</trkpt>
<trkpt lat="49.1024283785373" lon="9.557642871513965">
<ele>446.8</ele>
<time>2024-05-07T13:50:32Z</time>
</trkpt>
<trkpt lat="49.1024283785373" lon="9.557641949504614">
<ele>446.8</ele>
<time>2024-05-07T13:50:34Z</time>
</trkpt>
<trkpt lat="49.10243223421275" lon="9.557641949504614">
<ele>446.8</ele>
<time>2024-05-07T13:50:36Z</time>
</trkpt>
<trkpt lat="49.10243223421275" lon="9.557640021666884">
<ele>446.6</ele>
<time>2024-05-07T13:50:37Z</time>
</trkpt>
<trkpt lat="49.10243223421275" lon="9.557638093829157">
<ele>446.6</ele>
<time>2024-05-07T13:50:39Z</time>
</trkpt>
<trkpt lat="49.10243600606918" lon="9.557638093829157">
<ele>446.6</ele>
<time>2024-05-07T13:50:42Z</time>
</trkpt>
<trkpt lat="49.10243223421275" lon="9.557638093829157">
<ele>446.6</ele>
<time>2024-05-07T13:50:43Z</time>
</trkpt>
<trkpt lat="49.10243600606918" lon="9.557638093829157">
<ele>446.6</ele>
<time>2024-05-07T13:50:44Z</time>
</trkpt>
<trkpt lat="49.10243600606918" lon="9.557640021666884">
<ele>446.4</ele>
<time>2024-05-07T13:50:45Z</time>
</trkpt>
<trkpt lat="49.10243986174464" lon="9.557640021666884">
<ele>446.4</ele>
<time>2024-05-07T13:50:46Z</time>
</trkpt>
<trkpt lat="49.10243986174464" lon="9.557636249810455">
<ele>446.4</ele>
<time>2024-05-07T13:50:47Z</time>
</trkpt>
<trkpt lat="49.10244748927653" lon="9.55763147212565">
<ele>446.4</ele>
<time>2024-05-07T13:50:48Z</time>
</trkpt>
<trkpt lat="49.10247799940407" lon="9.557626694440842">
<ele>446.4</ele>
<time>2024-05-07T13:50:49Z</time>
</trkpt>
<trkpt lat="49.10250465385616" lon="9.557626694440842">
<ele>446.4</ele>
<time>2024-05-07T13:50:50Z</time>
</trkpt>
<trkpt lat="49.102535247802734" lon="9.55762954428792">
<ele>446.4</ele>
<time>2024-05-07T13:50:51Z</time>
</trkpt>
<trkpt lat="49.102569529786706" lon="9.55763147212565">
<ele>446.4</ele>
<time>2024-05-07T13:50:52Z</time>
</trkpt>
<trkpt lat="49.10260389558971" lon="9.557635243982077">
<ele>446.4</ele>
<time>2024-05-07T13:50:53Z</time>
</trkpt>
<trkpt lat="49.10263817757368" lon="9.557638093829157">
<ele>446.4</ele>
<time>2024-05-07T13:50:54Z</time>
</trkpt>
<trkpt lat="49.10267254337669" lon="9.557641949504614">
<ele>446.6</ele>
<time>2024-05-07T13:50:55Z</time>
</trkpt>
<trkpt lat="49.10270690917969" lon="9.5576495770365">
<ele>446.6</ele>
<time>2024-05-07T13:50:56Z</time>
</trkpt>
<trkpt lat="49.10274119116366" lon="9.557653348892927">
<ele>446.8</ele>
<time>2024-05-07T13:50:57Z</time>
</trkpt>
<trkpt lat="49.10277555696666" lon="9.557660054415464">
<ele>446.8</ele>
<time>2024-05-07T13:50:58Z</time>
</trkpt>
<trkpt lat="49.10281369462609" lon="9.557666759938002">
<ele>447.2</ele>
<time>2024-05-07T13:50:59Z</time>
</trkpt>
<trkpt lat="49.10285183228552" lon="9.557673381641507">
<ele>447.4</ele>
<time>2024-05-07T13:51:00Z</time>
</trkpt>
<trkpt lat="49.102889969944954" lon="9.557675309479237">
<ele>447.6</ele>
<time>2024-05-07T13:51:01Z</time>
</trkpt>
<trkpt lat="49.102928107604384" lon="9.557676315307615">
<ele>447.8</ele>
<time>2024-05-07T13:51:02Z</time>
</trkpt>
<trkpt lat="49.102966245263815" lon="9.557682015001774">
<ele>448</ele>
<time>2024-05-07T13:51:03Z</time>
</trkpt>
<trkpt lat="49.10300061106682" lon="9.557686792686582">
<ele>448.2</ele>
<time>2024-05-07T13:51:04Z</time>
</trkpt>
<trkpt lat="49.10303489305079" lon="9.557693414390087">
<ele>448.4</ele>
<time>2024-05-07T13:51:05Z</time>
</trkpt>
<trkpt lat="49.103065486997366" lon="9.557695342227817">
<ele>448.8</ele>
<time>2024-05-07T13:51:06Z</time>
</trkpt>
<trkpt lat="49.1031036246568" lon="9.557693414390087">
<ele>449</ele>
<time>2024-05-07T13:51:07Z</time>
</trkpt>
<trkpt lat="49.10313790664077" lon="9.557695342227817">
<ele>449.2</ele>
<time>2024-05-07T13:51:08Z</time>
</trkpt>
<trkpt lat="49.1031760443002" lon="9.557696264237164">
<ele>449.4</ele>
<time>2024-05-07T13:51:09Z</time>
</trkpt>
<trkpt lat="49.10320655442774" lon="9.557700119912624">
<ele>449.6</ele>
<time>2024-05-07T13:51:10Z</time>
</trkpt>
<trkpt lat="49.103240920230746" lon="9.557706825435162">
<ele>449.8</ele>
<time>2024-05-07T13:51:11Z</time>
</trkpt>
<trkpt lat="49.10327528603375" lon="9.557716296985744">
<ele>450</ele>
<time>2024-05-07T13:51:12Z</time>
</trkpt>
<trkpt lat="49.103301940485835" lon="9.557722080498934">
<ele>450.2</ele>
<time>2024-05-07T13:51:13Z</time>
</trkpt>
<trkpt lat="49.10333630628884" lon="9.557733479887249">
<ele>450.4</ele>
<time>2024-05-07T13:51:14Z</time>
</trkpt>
<trkpt lat="49.10337058827281" lon="9.557743035256864">
<ele>450.6</ele>
<time>2024-05-07T13:51:15Z</time>
</trkpt>
<trkpt lat="49.10340495407581" lon="9.557756362482904">
<ele>450.8</ele>
<time>2024-05-07T13:51:16Z</time>
</trkpt>
<trkpt lat="49.10343931987882" lon="9.55776977352798">
<ele>451</ele>
<time>2024-05-07T13:51:17Z</time>
</trkpt>
<trkpt lat="49.10347360186279" lon="9.557781172916291">
<ele>451.2</ele>
<time>2024-05-07T13:51:18Z</time>
</trkpt>
<trkpt lat="49.10350796766579" lon="9.557793578132989">
<ele>451.4</ele>
<time>2024-05-07T13:51:19Z</time>
</trkpt>
<trkpt lat="49.103538477793336" lon="9.55780791118741">
<ele>451.4</ele>
<time>2024-05-07T13:51:20Z</time>
</trkpt>
<trkpt lat="49.10356521606445" lon="9.55782693810761">
<ele>451.6</ele>
<time>2024-05-07T13:51:21Z</time>
</trkpt>
<trkpt lat="49.103595726192" lon="9.557843198999764">
<ele>451.8</ele>
<time>2024-05-07T13:51:22Z</time>
</trkpt>
<trkpt lat="49.10363000817597" lon="9.55786700360477">
<ele>452</ele>
<time>2024-05-07T13:51:23Z</time>
</trkpt>
<trkpt lat="49.1036681458354" lon="9.557889886200428">
<ele>452.2</ele>
<time>2024-05-07T13:51:24Z</time>
</trkpt>
<trkpt lat="49.1037025116384" lon="9.557913774624469">
<ele>452.4</ele>
<time>2024-05-07T13:51:25Z</time>
</trkpt>
<trkpt lat="49.103736877441406" lon="9.557938501238825">
<ele>452.6</ele>
<time>2024-05-07T13:51:26Z</time>
</trkpt>
<trkpt lat="49.10377501510084" lon="9.55796331167221">
<ele>452.8</ele>
<time>2024-05-07T13:51:27Z</time>
</trkpt>
<trkpt lat="49.10380929708481" lon="9.557991977781056">
<ele>453</ele>
<time>2024-05-07T13:51:28Z</time>
</trkpt>
<trkpt lat="49.10383980721235" lon="9.55802340991795">
<ele>453.2</ele>
<time>2024-05-07T13:51:29Z</time>
</trkpt>
<trkpt lat="49.10387417301536" lon="9.558054842054844">
<ele>453.4</ele>
<time>2024-05-07T13:51:30Z</time>
</trkpt>
<trkpt lat="49.10390853881836" lon="9.55808350816369">
<ele>453.6</ele>
<time>2024-05-07T13:51:31Z</time>
</trkpt>
<trkpt lat="49.103939048945904" lon="9.558110162615776">
<ele>453.8</ele>
<time>2024-05-07T13:51:32Z</time>
</trkpt>
<trkpt lat="49.10396955907345" lon="9.558139750733972">
<ele>454</ele>
<time>2024-05-07T13:51:33Z</time>
</trkpt>
<trkpt lat="49.10400006920099" lon="9.558166489005089">
<ele>454.2</ele>
<time>2024-05-07T13:51:34Z</time>
</trkpt>
<trkpt lat="49.10403057932854" lon="9.558193143457174">
<ele>454.4</ele>
<time>2024-05-07T13:51:35Z</time>
</trkpt>
<trkpt lat="49.10406486131251" lon="9.558217953890562">
<ele>454.6</ele>
<time>2024-05-07T13:51:36Z</time>
</trkpt>
<trkpt lat="49.10409922711551" lon="9.5582436863333">
<ele>454.8</ele>
<time>2024-05-07T13:51:37Z</time>
</trkpt>
<trkpt lat="49.104133592918515" lon="9.558269418776035">
<ele>454.8</ele>
<time>2024-05-07T13:51:38Z</time>
</trkpt>
<trkpt lat="49.104171730577946" lon="9.558296157047153">
<ele>455</ele>
<time>2024-05-07T13:51:39Z</time>
</trkpt>
<trkpt lat="49.104209868237376" lon="9.558320045471191">
<ele>455</ele>
<time>2024-05-07T13:51:40Z</time>
</trkpt>
<trkpt lat="49.10424800589681" lon="9.558344772085547">
<ele>455</ele>
<time>2024-05-07T13:51:41Z</time>
</trkpt>
<trkpt lat="49.10428614355624" lon="9.558364804834127">
<ele>455.2</ele>
<time>2024-05-07T13:51:42Z</time>
</trkpt>
<trkpt lat="49.10432428121567" lon="9.558382909744978">
<ele>455.2</ele>
<time>2024-05-07T13:51:43Z</time>
</trkpt>
<trkpt lat="49.1043624188751" lon="9.558402020484207">
<ele>455.4</ele>
<time>2024-05-07T13:51:44Z</time>
</trkpt>
<trkpt lat="49.1043967846781" lon="9.55842012539506">
<ele>455.6</ele>
<time>2024-05-07T13:51:45Z</time>
</trkpt>
<trkpt lat="49.10443492233753" lon="9.558435380458832">
<ele>455.6</ele>
<time>2024-05-07T13:51:46Z</time>
</trkpt>
<trkpt lat="49.104469288140535" lon="9.558446863666177">
<ele>455.8</ele>
<time>2024-05-07T13:51:47Z</time>
</trkpt>
<trkpt lat="49.104507425799966" lon="9.55846019089222">
<ele>456</ele>
<time>2024-05-07T13:51:48Z</time>
</trkpt>
<trkpt lat="49.10454170778394" lon="9.558475445955992">
<ele>456</ele>
<time>2024-05-07T13:51:49Z</time>
</trkpt>
<trkpt lat="49.10457984544337" lon="9.558487851172686">
<ele>456.2</ele>
<time>2024-05-07T13:51:50Z</time>
</trkpt>
<trkpt lat="49.10461421124637" lon="9.558501178398728">
<ele>456.2</ele>
<time>2024-05-07T13:51:51Z</time>
</trkpt>
<trkpt lat="49.104648577049375" lon="9.5585164334625">
<ele>456.4</ele>
<time>2024-05-07T13:51:52Z</time>
</trkpt>
<trkpt lat="49.104686714708805" lon="9.558531688526273">
<ele>456.6</ele>
<time>2024-05-07T13:51:53Z</time>
</trkpt>
<trkpt lat="49.10472485236824" lon="9.558545099571347">
<ele>456.8</ele>
<time>2024-05-07T13:51:54Z</time>
</trkpt>
<trkpt lat="49.104762990027666" lon="9.55855649895966">
<ele>457</ele>
<time>2024-05-07T13:51:55Z</time>
</trkpt>
<trkpt lat="49.10479735583067" lon="9.558571754023433">
<ele>457</ele>
<time>2024-05-07T13:51:56Z</time>
</trkpt>
<trkpt lat="49.10483163781464" lon="9.558588014915586">
<ele>457.2</ele>
<time>2024-05-07T13:51:57Z</time>
</trkpt>
<trkpt lat="49.10486977547407" lon="9.558603269979358">
<ele>457.2</ele>
<time>2024-05-07T13:51:58Z</time>
</trkpt>
<trkpt lat="49.104904141277075" lon="9.55861852504313">
<ele>457.4</ele>
<time>2024-05-07T13:51:59Z</time>
</trkpt>
<trkpt lat="49.104942278936505" lon="9.558631852269173">
<ele>457.6</ele>
<time>2024-05-07T13:52:00Z</time>
</trkpt>
<trkpt lat="49.10497664473951" lon="9.558643335476518">
<ele>457.8</ele>
<time>2024-05-07T13:52:01Z</time>
</trkpt>
<trkpt lat="49.10501478239894" lon="9.558654734864833">
<ele>458</ele>
<time>2024-05-07T13:52:02Z</time>
</trkpt>
<trkpt lat="49.10505292005837" lon="9.558666218072176">
<ele>458.2</ele>
<time>2024-05-07T13:52:03Z</time>
</trkpt>
<trkpt lat="49.10508720204234" lon="9.55867862328887">
<ele>458.4</ele>
<time>2024-05-07T13:52:04Z</time>
</trkpt>
<trkpt lat="49.1051254235208" lon="9.558690022677183">
<ele>458.4</ele>
<time>2024-05-07T13:52:05Z</time>
</trkpt>
<trkpt lat="49.105163561180234" lon="9.558701505884528">
<ele>458.6</ele>
<time>2024-05-07T13:52:06Z</time>
</trkpt>
<trkpt lat="49.105201698839664" lon="9.5587167609483">
<ele>458.8</ele>
<time>2024-05-07T13:52:07Z</time>
</trkpt>
<trkpt lat="49.105239836499095" lon="9.558732016012073">
<ele>459</ele>
<time>2024-05-07T13:52:08Z</time>
</trkpt>
<trkpt lat="49.10527411848307" lon="9.558746265247464">
<ele>459.2</ele>
<time>2024-05-07T13:52:09Z</time>
</trkpt>
<trkpt lat="49.10531233996153" lon="9.558761520311236">
<ele>459.4</ele>
<time>2024-05-07T13:52:10Z</time>
</trkpt>
<trkpt lat="49.1053466219455" lon="9.55877493135631">
<ele>459.6</ele>
<time>2024-05-07T13:52:11Z</time>
</trkpt>
<trkpt lat="49.10538475960493" lon="9.558788258582354">
<ele>459.6</ele>
<time>2024-05-07T13:52:12Z</time>
</trkpt>
<trkpt lat="49.10542289726436" lon="9.558801585808396">
<ele>459.8</ele>
<time>2024-05-07T13:52:13Z</time>
</trkpt>
<trkpt lat="49.105461118742824" lon="9.55881499685347">
<ele>460</ele>
<time>2024-05-07T13:52:14Z</time>
</trkpt>
<trkpt lat="49.10550302825868" lon="9.558826396241784">
<ele>460</ele>
<time>2024-05-07T13:52:15Z</time>
</trkpt>
<trkpt lat="49.10554502159357" lon="9.558836873620749">
<ele>460.2</ele>
<time>2024-05-07T13:52:16Z</time>
</trkpt>
<trkpt lat="49.10557930357754" lon="9.558848356828094">
<ele>460.4</ele>
<time>2024-05-07T13:52:17Z</time>
</trkpt>
<trkpt lat="49.10562129691243" lon="9.558861684054136">
<ele>460.6</ele>
<time>2024-05-07T13:52:18Z</time>
</trkpt>
<trkpt lat="49.105655662715435" lon="9.558876939117908">
<ele>461</ele>
<time>2024-05-07T13:52:19Z</time>
</trkpt>
<trkpt lat="49.105693800374866" lon="9.558890266343951">
<ele>461.2</ele>
<time>2024-05-07T13:52:20Z</time>
</trkpt>
<trkpt lat="49.10572808235884" lon="9.558899821713569">
<ele>461.4</ele>
<time>2024-05-07T13:52:21Z</time>
</trkpt>
<trkpt lat="49.10576244816184" lon="9.55891314893961">
<ele>461.6</ele>
<time>2024-05-07T13:52:22Z</time>
</trkpt>
<trkpt lat="49.105792958289385" lon="9.558924632146956">
<ele>461.8</ele>
<time>2024-05-07T13:52:23Z</time>
</trkpt>
<trkpt lat="49.10582732409239" lon="9.558939887210729">
<ele>461.8</ele>
<time>2024-05-07T13:52:24Z</time>
</trkpt>
<trkpt lat="49.10586160607636" lon="9.558959919959308">
<ele>462</ele>
<time>2024-05-07T13:52:25Z</time>
</trkpt>
<trkpt lat="49.10589597187936" lon="9.558979952707888">
<ele>462</ele>
<time>2024-05-07T13:52:26Z</time>
</trkpt>
<trkpt lat="49.105930253863335" lon="9.559003757312894">
<ele>462.2</ele>
<time>2024-05-07T13:52:27Z</time>
</trkpt>
<trkpt lat="49.10596461966634" lon="9.559021946042776">
<ele>462.2</ele>
<time>2024-05-07T13:52:28Z</time>
</trkpt>
<trkpt lat="49.10599512979388" lon="9.559046672657132">
<ele>462.4</ele>
<time>2024-05-07T13:52:29Z</time>
</trkpt>
<trkpt lat="49.10603326745331" lon="9.55907148309052">
<ele>462.4</ele>
<time>2024-05-07T13:52:30Z</time>
</trkpt>
<trkpt lat="49.10607140511274" lon="9.559100149199368">
<ele>462.6</ele>
<time>2024-05-07T13:52:31Z</time>
</trkpt>
<trkpt lat="49.10610577091575" lon="9.55912965349853">
<ele>462.6</ele>
<time>2024-05-07T13:52:32Z</time>
</trkpt>
<trkpt lat="49.10614013671875" lon="9.559160163626077">
<ele>462.8</ele>
<time>2024-05-07T13:52:33Z</time>
</trkpt>
<trkpt lat="49.10617441870272" lon="9.559191679582">
<ele>462.8</ele>
<time>2024-05-07T13:52:34Z</time>
</trkpt>
<trkpt lat="49.106208784505725" lon="9.559225039556624">
<ele>462.8</ele>
<time>2024-05-07T13:52:35Z</time>
</trkpt>
<trkpt lat="49.1062430664897" lon="9.559258399531243">
<ele>463</ele>
<time>2024-05-07T13:52:36Z</time>
</trkpt>
<trkpt lat="49.106285059824586" lon="9.55928991548717">
<ele>463</ele>
<time>2024-05-07T13:52:37Z</time>
</trkpt>
<trkpt lat="49.106323197484016" lon="9.559325203299522">
<ele>463.2</ele>
<time>2024-05-07T13:52:38Z</time>
</trkpt>
<trkpt lat="49.106365190818906" lon="9.559361413121223">
<ele>463.2</ele>
<time>2024-05-07T13:52:39Z</time>
</trkpt>
<trkpt lat="49.10640710033476" lon="9.559396700933576">
<ele>463.4</ele>
<time>2024-05-07T13:52:40Z</time>
</trkpt>
<trkpt lat="49.10644909366965" lon="9.559430060908198">
<ele>463.4</ele>
<time>2024-05-07T13:52:41Z</time>
</trkpt>
<trkpt lat="49.10649108700454" lon="9.559461576864123">
<ele>463.6</ele>
<time>2024-05-07T13:52:42Z</time>
</trkpt>
<trkpt lat="49.10653685219586" lon="9.55948538146913">
<ele>463.6</ele>
<time>2024-05-07T13:52:43Z</time>
</trkpt>
<trkpt lat="49.106582617387176" lon="9.559497786685824">
<ele>463.6</ele>
<time>2024-05-07T13:52:44Z</time>
</trkpt>
<trkpt lat="49.10662838257849" lon="9.55950541421771">
<ele>463.6</ele>
<time>2024-05-07T13:52:45Z</time>
</trkpt>
<trkpt lat="49.10667414776981" lon="9.559513041749597">
<ele>463.6</ele>
<time>2024-05-07T13:52:46Z</time>
</trkpt>
<trkpt lat="49.106719912961125" lon="9.559519747272134">
<ele>463.6</ele>
<time>2024-05-07T13:52:47Z</time>
</trkpt>
<trkpt lat="49.106761906296015" lon="9.55952351912856">
<ele>463.4</ele>
<time>2024-05-07T13:52:48Z</time>
</trkpt>
<trkpt lat="49.10680767148733" lon="9.55952351912856">
<ele>463.2</ele>
<time>2024-05-07T13:52:49Z</time>
</trkpt>
<trkpt lat="49.10685343667865" lon="9.559524524956942">
<ele>463.2</ele>
<time>2024-05-07T13:52:50Z</time>
</trkpt>
<trkpt lat="49.106899201869965" lon="9.55952636897564">
<ele>463</ele>
<time>2024-05-07T13:52:51Z</time>
</trkpt>
<trkpt lat="49.106941195204854" lon="9.559530224651098">
<ele>463</ele>
<time>2024-05-07T13:52:52Z</time>
</trkpt>
<trkpt lat="49.10698696039617" lon="9.559530224651098">
<ele>462.8</ele>
<time>2024-05-07T13:52:53Z</time>
</trkpt>
<trkpt lat="49.10703272558749" lon="9.559530224651098">
<ele>462.8</ele>
<time>2024-05-07T13:52:54Z</time>
</trkpt>
<trkpt lat="49.1070784907788" lon="9.559528296813369">
<ele>462.8</ele>
<time>2024-05-07T13:52:55Z</time>
</trkpt>
<trkpt lat="49.10712048411369" lon="9.55952636897564">
<ele>462.6</ele>
<time>2024-05-07T13:52:56Z</time>
</trkpt>
<trkpt lat="49.10716624930501" lon="9.559528296813369">
<ele>462.6</ele>
<time>2024-05-07T13:52:57Z</time>
</trkpt>
<trkpt lat="49.107212014496326" lon="9.559532152488828">
<ele>462.6</ele>
<time>2024-05-07T13:52:58Z</time>
</trkpt>
<trkpt lat="49.10725777968764" lon="9.559533074498177">
<ele>462.6</ele>
<time>2024-05-07T13:52:59Z</time>
</trkpt>
<trkpt lat="49.10730354487896" lon="9.559533074498177">
<ele>462.6</ele>
<time>2024-05-07T13:53:00Z</time>
</trkpt>
<trkpt lat="49.10734939388931" lon="9.559533074498177">
<ele>462.6</ele>
<time>2024-05-07T13:53:01Z</time>
</trkpt>
<trkpt lat="49.107391303405166" lon="9.559533074498177">
<ele>462.8</ele>
<time>2024-05-07T13:53:02Z</time>
</trkpt>
<trkpt lat="49.10743706859648" lon="9.559533074498177">
<ele>462.8</ele>
<time>2024-05-07T13:53:03Z</time>
</trkpt>
<trkpt lat="49.1074828337878" lon="9.559533074498177">
<ele>463</ele>
<time>2024-05-07T13:53:04Z</time>
</trkpt>
<trkpt lat="49.10752482712269" lon="9.559532152488828">
<ele>463</ele>
<time>2024-05-07T13:53:05Z</time>
</trkpt>
<trkpt lat="49.107570592314005" lon="9.559530224651098">
<ele>463</ele>
<time>2024-05-07T13:53:06Z</time>
</trkpt>
<trkpt lat="49.10762021318078" lon="9.559528296813369">
<ele>463</ele>
<time>2024-05-07T13:53:07Z</time>
</trkpt>
<trkpt lat="49.1076659783721" lon="9.55952636897564">
<ele>463</ele>
<time>2024-05-07T13:53:08Z</time>
</trkpt>
<trkpt lat="49.107711743563414" lon="9.55952636897564">
<ele>463.2</ele>
<time>2024-05-07T13:53:09Z</time>
</trkpt>
<trkpt lat="49.10775750875473" lon="9.559524524956942">
<ele>463.2</ele>
<time>2024-05-07T13:53:10Z</time>
</trkpt>
<trkpt lat="49.10780327394605" lon="9.559521675109863">
<ele>463.2</ele>
<time>2024-05-07T13:53:11Z</time>
</trkpt>
<trkpt lat="49.10785289481282" lon="9.559519747272134">
<ele>463.4</ele>
<time>2024-05-07T13:53:12Z</time>
</trkpt>
<trkpt lat="49.10789866000414" lon="9.559519747272134">
<ele>463.4</ele>
<time>2024-05-07T13:53:13Z</time>
</trkpt>
<trkpt lat="49.107944425195456" lon="9.559519747272134">
<ele>463.4</ele>
<time>2024-05-07T13:53:14Z</time>
</trkpt>
<trkpt lat="49.10799019038677" lon="9.559518741443751">
<ele>463.4</ele>
<time>2024-05-07T13:53:15Z</time>
</trkpt>
<trkpt lat="49.10803603939712" lon="9.559516897425056">
<ele>463.4</ele>
<time>2024-05-07T13:53:16Z</time>
</trkpt>
<trkpt lat="49.10808180458844" lon="9.559514969587326">
<ele>463.4</ele>
<time>2024-05-07T13:53:17Z</time>
</trkpt>
<trkpt lat="49.108127569779754" lon="9.559513041749597">
<ele>463.4</ele>
<time>2024-05-07T13:53:18Z</time>
</trkpt>
<trkpt lat="49.10817333497107" lon="9.559508264064789">
<ele>463.4</ele>
<time>2024-05-07T13:53:19Z</time>
</trkpt>
<trkpt lat="49.10821532830596" lon="9.559501642361283">
<ele>463.4</ele>
<time>2024-05-07T13:53:20Z</time>
</trkpt>
<trkpt lat="49.1082648653537" lon="9.559497786685824">
<ele>463.4</ele>
<time>2024-05-07T13:53:21Z</time>
</trkpt>
<trkpt lat="49.10831063054502" lon="9.559494936838746">
<ele>463.4</ele>
<time>2024-05-07T13:53:22Z</time>
</trkpt>
<trkpt lat="49.10835639573634" lon="9.559493009001017">
<ele>463.4</ele>
<time>2024-05-07T13:53:23Z</time>
</trkpt>
<trkpt lat="49.108398389071226" lon="9.559490159153938">
<ele>463.4</ele>
<time>2024-05-07T13:53:24Z</time>
</trkpt>
<trkpt lat="49.108448009938" lon="9.559486387297513">
<ele>463.4</ele>
<time>2024-05-07T13:53:25Z</time>
</trkpt>
<trkpt lat="49.10849377512932" lon="9.55948538146913">
<ele>463.4</ele>
<time>2024-05-07T13:53:26Z</time>
</trkpt>
<trkpt lat="49.108543395996094" lon="9.559481609612703">
<ele>463.4</ele>
<time>2024-05-07T13:53:27Z</time>
</trkpt>
<trkpt lat="49.10858916118741" lon="9.559479681774974">
<ele>463.4</ele>
<time>2024-05-07T13:53:28Z</time>
</trkpt>
<trkpt lat="49.10863492637873" lon="9.559478759765623">
<ele>463.4</ele>
<time>2024-05-07T13:53:29Z</time>
</trkpt>
<trkpt lat="49.10868069157005" lon="9.559476831927896">
<ele>463.4</ele>
<time>2024-05-07T13:53:30Z</time>
</trkpt>
<trkpt lat="49.10872645676136" lon="9.559472976252437">
<ele>463.4</ele>
<time>2024-05-07T13:53:31Z</time>
</trkpt>
<trkpt lat="49.10877222195268" lon="9.559470126405358">
<ele>463.4</ele>
<time>2024-05-07T13:53:32Z</time>
</trkpt>
<trkpt lat="49.10881798714399" lon="9.55946534872055">
<ele>463.4</ele>
<time>2024-05-07T13:53:33Z</time>
</trkpt>
<trkpt lat="49.10886375233531" lon="9.559456799179316">
<ele>463.4</ele>
<time>2024-05-07T13:53:34Z</time>
</trkpt>
<trkpt lat="49.108913373202085" lon="9.559450093656778">
<ele>463.4</ele>
<time>2024-05-07T13:53:35Z</time>
</trkpt>
<trkpt lat="49.1089591383934" lon="9.559441544115543">
<ele>463.4</ele>
<time>2024-05-07T13:53:36Z</time>
</trkpt>
<trkpt lat="49.10900490358472" lon="9.559432910755277">
<ele>463.6</ele>
<time>2024-05-07T13:53:37Z</time>
</trkpt>
<trkpt lat="49.109050668776035" lon="9.559421511366963">
<ele>463.6</ele>
<time>2024-05-07T13:53:38Z</time>
</trkpt>
<trkpt lat="49.109096517786384" lon="9.55940818414092">
<ele>463.6</ele>
<time>2024-05-07T13:53:39Z</time>
</trkpt>
<trkpt lat="49.1091422829777" lon="9.559394773095846">
<ele>463.6</ele>
<time>2024-05-07T13:53:40Z</time>
</trkpt>
<trkpt lat="49.10919182002544" lon="9.55938521772623">
<ele>463.6</ele>
<time>2024-05-07T13:53:41Z</time>
</trkpt>
<trkpt lat="49.10924144089222" lon="9.559371890500188">
<ele>463.6</ele>
<time>2024-05-07T13:53:42Z</time>
</trkpt>
<trkpt lat="49.109287206083536" lon="9.559358563274143">
<ele>463.6</ele>
<time>2024-05-07T13:53:43Z</time>
</trkpt>
<trkpt lat="49.10933682695031" lon="9.559343308210371">
<ele>463.8</ele>
<time>2024-05-07T13:53:44Z</time>
</trkpt>
<trkpt lat="49.109386363998055" lon="9.559325203299522">
<ele>463.8</ele>
<time>2024-05-07T13:53:45Z</time>
</trkpt>
<trkpt lat="49.10943598486483" lon="9.559307098388672">
<ele>464</ele>
<time>2024-05-07T13:53:46Z</time>
</trkpt>
<trkpt lat="49.10948560573161" lon="9.559287065640092">
<ele>464</ele>
<time>2024-05-07T13:53:47Z</time>
</trkpt>
<trkpt lat="49.10953514277935" lon="9.559267032891512">
<ele>464</ele>
<time>2024-05-07T13:53:48Z</time>
</trkpt>
<trkpt lat="49.109584763646126" lon="9.559247000142932">
<ele>464.2</ele>
<time>2024-05-07T13:53:49Z</time>
</trkpt>
<trkpt lat="49.10963815636933" lon="9.559226967394352">
<ele>464.2</ele>
<time>2024-05-07T13:53:50Z</time>
</trkpt>
<trkpt lat="49.109687777236104" lon="9.559203078970311">
<ele>464.2</ele>
<time>2024-05-07T13:53:51Z</time>
</trkpt>
<trkpt lat="49.10973731428385" lon="9.559180196374657">
<ele>464</ele>
<time>2024-05-07T13:53:52Z</time>
</trkpt>
<trkpt lat="49.10978693515062" lon="9.559160163626077">
<ele>464</ele>
<time>2024-05-07T13:53:53Z</time>
</trkpt>
<trkpt lat="49.1098365560174" lon="9.559136359021068">
<ele>463.8</ele>
<time>2024-05-07T13:53:54Z</time>
</trkpt>
<trkpt lat="49.10988609306514" lon="9.55910962074995">
<ele>463.8</ele>
<time>2024-05-07T13:53:55Z</time>
</trkpt>
<trkpt lat="49.10993194207549" lon="9.559080116450788">
<ele>463.6</ele>
<time>2024-05-07T13:53:56Z</time>
</trkpt>
<trkpt lat="49.109981479123235" lon="9.559048600494862">
<ele>463.6</ele>
<time>2024-05-07T13:53:57Z</time>
</trkpt>
<trkpt lat="49.11002724431455" lon="9.55901138484478">
<ele>463.6</ele>
<time>2024-05-07T13:53:58Z</time>
</trkpt>
<trkpt lat="49.11007300950587" lon="9.55897324718535">
<ele>463.4</ele>
<time>2024-05-07T13:53:59Z</time>
</trkpt>
<trkpt lat="49.11011500284076" lon="9.55893318168819">
<ele>463.4</ele>
<time>2024-05-07T13:54:00Z</time>
</trkpt>
<trkpt lat="49.11015699617565" lon="9.558890266343951">
<ele>463.4</ele>
<time>2024-05-07T13:54:01Z</time>
</trkpt>
<trkpt lat="49.110198905691504" lon="9.558844501152636">
<ele>463.4</ele>
<time>2024-05-07T13:54:02Z</time>
</trkpt>
<trkpt lat="49.110237043350935" lon="9.558796808123589">
<ele>463.4</ele>
<time>2024-05-07T13:54:03Z</time>
</trkpt>
<trkpt lat="49.1102752648294" lon="9.558743415400386">
<ele>463.2</ele>
<time>2024-05-07T13:54:04Z</time>
</trkpt>
<trkpt lat="49.11031340248883" lon="9.558690022677183">
<ele>463.2</ele>
<time>2024-05-07T13:54:05Z</time>
</trkpt>
<trkpt lat="49.11035154014826" lon="9.55863662995398">
<ele>463.2</ele>
<time>2024-05-07T13:54:06Z</time>
</trkpt>
<trkpt lat="49.11039344966411" lon="9.558583237230778">
<ele>463.2</ele>
<time>2024-05-07T13:54:07Z</time>
</trkpt>
<trkpt lat="49.11043167114258" lon="9.558527916669846">
<ele>463.2</ele>
<time>2024-05-07T13:54:08Z</time>
</trkpt>
<trkpt lat="49.11046980880201" lon="9.55847636796534">
<ele>463.2</ele>
<time>2024-05-07T13:54:09Z</time>
</trkpt>
<trkpt lat="49.110511718317866" lon="9.558422975242138">
<ele>463.2</ele>
<time>2024-05-07T13:54:10Z</time>
</trkpt>
<trkpt lat="49.1105498559773" lon="9.558371510356665">
<ele>463.2</ele>
<time>2024-05-07T13:54:11Z</time>
</trkpt>
<trkpt lat="49.110591849312186" lon="9.558320045471191">
<ele>463.2</ele>
<time>2024-05-07T13:54:12Z</time>
</trkpt>
<trkpt lat="49.11063384264707" lon="9.558269418776035">
<ele>463.2</ele>
<time>2024-05-07T13:54:13Z</time>
</trkpt>
<trkpt lat="49.11067575216293" lon="9.558217953890562">
<ele>463.2</ele>
<time>2024-05-07T13:54:14Z</time>
</trkpt>
<trkpt lat="49.11071388982237" lon="9.55816456116736">
<ele>463.2</ele>
<time>2024-05-07T13:54:15Z</time>
</trkpt>
<trkpt lat="49.11075588315725" lon="9.558113096281886">
<ele>463.2</ele>
<time>2024-05-07T13:54:16Z</time>
</trkpt>
<trkpt lat="49.11079787649214" lon="9.558059619739652">
<ele>463.2</ele>
<time>2024-05-07T13:54:17Z</time>
</trkpt>
<trkpt lat="49.110839786008" lon="9.558008154854178">
<ele>463.2</ele>
<time>2024-05-07T13:54:18Z</time>
</trkpt>
<trkpt lat="49.11088177934289" lon="9.557956689968703">
<ele>463.2</ele>
<time>2024-05-07T13:54:19Z</time>
</trkpt>
<trkpt lat="49.11091991700232" lon="9.5579051412642">
<ele>463.2</ele>
<time>2024-05-07T13:54:20Z</time>
</trkpt>
<trkpt lat="49.11096191033721" lon="9.557853676378729">
<ele>463.2</ele>
<time>2024-05-07T13:54:21Z</time>
</trkpt>
<trkpt lat="49.11100004799664" lon="9.557800283655524">
<ele>463.2</ele>
<time>2024-05-07T13:54:22Z</time>
</trkpt>
<trkpt lat="49.1110419575125" lon="9.5577497407794">
<ele>463.2</ele>
<time>2024-05-07T13:54:23Z</time>
</trkpt>
<trkpt lat="49.11108395084739" lon="9.557700119912624">
<ele>463.2</ele>
<time>2024-05-07T13:54:24Z</time>
</trkpt>
<trkpt lat="49.11112594418228" lon="9.557648655027153">
<ele>463.2</ele>
<time>2024-05-07T13:54:25Z</time>
</trkpt>
<trkpt lat="49.111167853698134" lon="9.557595178484917">
<ele>463.2</ele>
<time>2024-05-07T13:54:26Z</time>
</trkpt>
<trkpt lat="49.111205991357565" lon="9.557541785761714">
<ele>463.2</ele>
<time>2024-05-07T13:54:27Z</time>
</trkpt>
<trkpt lat="49.111247984692454" lon="9.557488393038511">
<ele>463.2</ele>
<time>2024-05-07T13:54:28Z</time>
</trkpt>
<trkpt lat="49.111289978027344" lon="9.55743307247758">
<ele>463.2</ele>
<time>2024-05-07T13:54:29Z</time>
</trkpt>
<trkpt lat="49.1113318875432" lon="9.557378757745028">
<ele>463.2</ele>
<time>2024-05-07T13:54:30Z</time>
</trkpt>
<trkpt lat="49.11137388087809" lon="9.557326287031174">
<ele>463.2</ele>
<time>2024-05-07T13:54:31Z</time>
</trkpt>
<trkpt lat="49.11141964606941" lon="9.557274738326669">
<ele>463</ele>
<time>2024-05-07T13:54:32Z</time>
</trkpt>
<trkpt lat="49.1114616394043" lon="9.557221345603466">
<ele>463</ele>
<time>2024-05-07T13:54:33Z</time>
</trkpt>
<trkpt lat="49.11149977706373" lon="9.557167952880263">
<ele>462.8</ele>
<time>2024-05-07T13:54:34Z</time>
</trkpt>
<trkpt lat="49.111541686579585" lon="9.55711456015706">
<ele>462.8</ele>
<time>2024-05-07T13:54:35Z</time>
</trkpt>
<trkpt lat="49.111579824239016" lon="9.557062089443209">
<ele>462.6</ele>
<time>2024-05-07T13:54:36Z</time>
</trkpt>
<trkpt lat="49.111621817573905" lon="9.557009618729351">
<ele>462.6</ele>
<time>2024-05-07T13:54:37Z</time>
</trkpt>
<trkpt lat="49.111659955233335" lon="9.55695622600615">
<ele>462.4</ele>
<time>2024-05-07T13:54:38Z</time>
</trkpt>
<trkpt lat="49.111701948568225" lon="9.556903839111328">
<ele>462.4</ele>
<time>2024-05-07T13:54:39Z</time>
</trkpt>
<trkpt lat="49.111740086227655" lon="9.556853212416172">
<ele>462.4</ele>
<time>2024-05-07T13:54:40Z</time>
</trkpt>
<trkpt lat="49.11178199574351" lon="9.556804597377775">
<ele>462.4</ele>
<time>2024-05-07T13:54:41Z</time>
</trkpt>
<trkpt lat="49.1118239890784" lon="9.556753132492304">
<ele>462.4</ele>
<time>2024-05-07T13:54:42Z</time>
</trkpt>
<trkpt lat="49.11186212673783" lon="9.556703511625528">
<ele>462.4</ele>
<time>2024-05-07T13:54:43Z</time>
</trkpt>
<trkpt lat="49.11190412007272" lon="9.556652046740057">
<ele>462.6</ele>
<time>2024-05-07T13:54:44Z</time>
</trkpt>
<trkpt lat="49.11194225773215" lon="9.5565995760262">
<ele>462.8</ele>
<time>2024-05-07T13:54:45Z</time>
</trkpt>
<trkpt lat="49.11198425106704" lon="9.556551882997155">
<ele>462.8</ele>
<time>2024-05-07T13:54:46Z</time>
</trkpt>
<trkpt lat="49.1120261605829" lon="9.55650134012103">
<ele>463</ele>
<time>2024-05-07T13:54:47Z</time>
</trkpt>
<trkpt lat="49.11206815391779" lon="9.556449875235558">
<ele>463</ele>
<time>2024-05-07T13:54:48Z</time>
</trkpt>
<trkpt lat="49.11211006343365" lon="9.556398326531053">
<ele>463.2</ele>
<time>2024-05-07T13:54:49Z</time>
</trkpt>
<trkpt lat="49.11214828491211" lon="9.55634686164558">
<ele>463.2</ele>
<time>2024-05-07T13:54:50Z</time>
</trkpt>
<trkpt lat="49.11218642257154" lon="9.556295312941074">
<ele>463.2</ele>
<time>2024-05-07T13:54:51Z</time>
</trkpt>
<trkpt lat="49.1122283320874" lon="9.55624477006495">
<ele>463.2</ele>
<time>2024-05-07T13:54:52Z</time>
</trkpt>
<trkpt lat="49.11227032542229" lon="9.556195233017206">
<ele>463.2</ele>
<time>2024-05-07T13:54:53Z</time>
</trkpt>
<trkpt lat="49.11230846308172" lon="9.556144690141082">
<ele>463.2</ele>
<time>2024-05-07T13:54:54Z</time>
</trkpt>
<trkpt lat="49.11235045641661" lon="9.556095069274306">
<ele>463.2</ele>
<time>2024-05-07T13:54:55Z</time>
</trkpt>
<trkpt lat="49.11238859407604" lon="9.556044526398182">
<ele>463.2</ele>
<time>2024-05-07T13:54:56Z</time>
</trkpt>
<trkpt lat="49.11242673173547" lon="9.555994905531406">
<ele>463.2</ele>
<time>2024-05-07T13:54:57Z</time>
</trkpt>
<trkpt lat="49.112468641251326" lon="9.555941512808204">
<ele>463.2</ele>
<time>2024-05-07T13:54:58Z</time>
</trkpt>
<trkpt lat="49.11250686272979" lon="9.555888120085">
<ele>463.4</ele>
<time>2024-05-07T13:54:59Z</time>
</trkpt>
<trkpt lat="49.112548772245646" lon="9.555834727361798">
<ele>463.4</ele>
<time>2024-05-07T13:55:00Z</time>
</trkpt>
<trkpt lat="49.112590765580535" lon="9.555780328810217">
<ele>463.4</ele>
<time>2024-05-07T13:55:01Z</time>
</trkpt>
<trkpt lat="49.11263267509639" lon="9.55572978593409">
<ele>463.4</ele>
<time>2024-05-07T13:55:02Z</time>
</trkpt>
<trkpt lat="49.11267466843128" lon="9.555676393210888">
<ele>463.4</ele>
<time>2024-05-07T13:55:03Z</time>
</trkpt>
<trkpt lat="49.11271666176617" lon="9.555622078478336">
<ele>463.4</ele>
<time>2024-05-07T13:55:04Z</time>
</trkpt>
<trkpt lat="49.11275857128203" lon="9.555568685755134">
<ele>463.6</ele>
<time>2024-05-07T13:55:05Z</time>
</trkpt>
<trkpt lat="49.11280056461692" lon="9.5555152092129">
<ele>463.6</ele>
<time>2024-05-07T13:55:06Z</time>
</trkpt>
<trkpt lat="49.11284255795181" lon="9.555461816489697">
<ele>463.6</ele>
<time>2024-05-07T13:55:07Z</time>
</trkpt>
<trkpt lat="49.112884467467666" lon="9.555408423766494">
<ele>463.8</ele>
<time>2024-05-07T13:55:08Z</time>
</trkpt>
<trkpt lat="49.112922605127096" lon="9.555355031043293">
<ele>463.6</ele>
<time>2024-05-07T13:55:09Z</time>
</trkpt>
<trkpt lat="49.112964598461986" lon="9.55529971048236">
<ele>463.6</ele>
<time>2024-05-07T13:55:10Z</time>
</trkpt>
<trkpt lat="49.113006591796875" lon="9.555248245596886">
<ele>463.6</ele>
<time>2024-05-07T13:55:11Z</time>
</trkpt>
<trkpt lat="49.11304850131273" lon="9.55519669689238">
<ele>463.4</ele>
<time>2024-05-07T13:55:12Z</time>
</trkpt>
<trkpt lat="49.11308663897216" lon="9.555145232006907">
<ele>463.4</ele>
<time>2024-05-07T13:55:13Z</time>
</trkpt>
<trkpt lat="49.11312863230705" lon="9.555091839283705">
<ele>463.2</ele>
<time>2024-05-07T13:55:14Z</time>
</trkpt>
<trkpt lat="49.11317439749837" lon="9.55504129640758">
<ele>463.2</ele>
<time>2024-05-07T13:55:15Z</time>
</trkpt>
<trkpt lat="49.11321639083326" lon="9.554991675540805">
<ele>463</ele>
<time>2024-05-07T13:55:16Z</time>
</trkpt>
<trkpt lat="49.11325830034912" lon="9.554938282817602">
<ele>462.8</ele>
<time>2024-05-07T13:55:17Z</time>
</trkpt>
<trkpt lat="49.113300293684006" lon="9.554886817932127">
<ele>462.6</ele>
<time>2024-05-07T13:55:18Z</time>
</trkpt>
<trkpt lat="49.11334220319986" lon="9.554831497371197">
<ele>462.4</ele>
<time>2024-05-07T13:55:19Z</time>
</trkpt>
<trkpt lat="49.11338419653475" lon="9.554777098819612">
<ele>462.4</ele>
<time>2024-05-07T13:55:20Z</time>
</trkpt>
<trkpt lat="49.11342618986964" lon="9.55472370609641">
<ele>462.2</ele>
<time>2024-05-07T13:55:21Z</time>
</trkpt>
<trkpt lat="49.1134680993855" lon="9.55466838553548">
<ele>462.2</ele>
<time>2024-05-07T13:55:22Z</time>
</trkpt>
<trkpt lat="49.11351009272039" lon="9.554613064974546">
<ele>462</ele>
<time>2024-05-07T13:55:23Z</time>
</trkpt>
<trkpt lat="49.11355208605528" lon="9.554559672251344">
<ele>462</ele>
<time>2024-05-07T13:55:24Z</time>
</trkpt>
<trkpt lat="49.11359399557114" lon="9.55450820736587">
<ele>462</ele>
<time>2024-05-07T13:55:25Z</time>
</trkpt>
<trkpt lat="49.11363213323057" lon="9.554456658661366">
<ele>461.8</ele>
<time>2024-05-07T13:55:26Z</time>
</trkpt>
<trkpt lat="49.113674126565456" lon="9.554401338100432">
<ele>461.8</ele>
<time>2024-05-07T13:55:27Z</time>
</trkpt>
<trkpt lat="49.11371989175677" lon="9.554347023367882">
<ele>461.8</ele>
<time>2024-05-07T13:55:28Z</time>
</trkpt>
<trkpt lat="49.11376188509166" lon="9.55429363064468">
<ele>461.8</ele>
<time>2024-05-07T13:55:29Z</time>
</trkpt>
<trkpt lat="49.11380765028298" lon="9.554240154102445">
<ele>461.8</ele>
<time>2024-05-07T13:55:30Z</time>
</trkpt>
<trkpt lat="49.11384955979884" lon="9.554184833541512">
<ele>461.8</ele>
<time>2024-05-07T13:55:31Z</time>
</trkpt>
<trkpt lat="49.113891553133726" lon="9.55413144081831">
<ele>461.8</ele>
<time>2024-05-07T13:55:32Z</time>
</trkpt>
<trkpt lat="49.113933546468616" lon="9.554078048095109">
<ele>461.8</ele>
<time>2024-05-07T13:55:33Z</time>
</trkpt>
<trkpt lat="49.11397545598447" lon="9.554024655371904">
<ele>461.8</ele>
<time>2024-05-07T13:55:34Z</time>
</trkpt>
<trkpt lat="49.11401744931936" lon="9.553971262648702">
<ele>461.8</ele>
<time>2024-05-07T13:55:35Z</time>
</trkpt>
<trkpt lat="49.11406321451068" lon="9.553918791934848">
<ele>461.8</ele>
<time>2024-05-07T13:55:36Z</time>
</trkpt>
<trkpt lat="49.11410135217011" lon="9.553865399211643">
<ele>461.6</ele>
<time>2024-05-07T13:55:37Z</time>
</trkpt>
<trkpt lat="49.114143345505" lon="9.553812006488442">
<ele>461.6</ele>
<time>2024-05-07T13:55:38Z</time>
</trkpt>
<trkpt lat="49.11418525502086" lon="9.553759535774589">
<ele>461.6</ele>
<time>2024-05-07T13:55:39Z</time>
</trkpt>
<trkpt lat="49.114231104031205" lon="9.553708070889115">
<ele>461.4</ele>
<time>2024-05-07T13:55:40Z</time>
</trkpt>
<trkpt lat="49.11427301354706" lon="9.55365652218461">
<ele>461.4</ele>
<time>2024-05-07T13:55:41Z</time>
</trkpt>
<trkpt lat="49.11431500688195" lon="9.553603129461408">
<ele>461.4</ele>
<time>2024-05-07T13:55:42Z</time>
</trkpt>
<trkpt lat="49.11435691639781" lon="9.553551664575934">
<ele>461.6</ele>
<time>2024-05-07T13:55:43Z</time>
</trkpt>
<trkpt lat="49.1143989097327" lon="9.5534981880337">
<ele>461.6</ele>
<time>2024-05-07T13:55:44Z</time>
</trkpt>
<trkpt lat="49.11444090306759" lon="9.553444795310496">
<ele>461.6</ele>
<time>2024-05-07T13:55:45Z</time>
</trkpt>
<trkpt lat="49.11447904072702" lon="9.553391402587296">
<ele>461.6</ele>
<time>2024-05-07T13:55:46Z</time>
</trkpt>
<trkpt lat="49.11452095024288" lon="9.55333993770182">
<ele>461.6</ele>
<time>2024-05-07T13:55:47Z</time>
</trkpt>
<trkpt lat="49.11455917172134" lon="9.553288388997316">
<ele>461.6</ele>
<time>2024-05-07T13:55:48Z</time>
</trkpt>
<trkpt lat="49.1146010812372" lon="9.553236924111845">
<ele>461.8</ele>
<time>2024-05-07T13:55:49Z</time>
</trkpt>
<trkpt lat="49.11463921889663" lon="9.553181603550913">
<ele>461.8</ele>
<time>2024-05-07T13:55:50Z</time>
</trkpt>
<trkpt lat="49.11468121223152" lon="9.553128210827708">
<ele>461.8</ele>
<time>2024-05-07T13:55:51Z</time>
</trkpt>
<trkpt lat="49.11471549421549" lon="9.553074818104506">
<ele>461.8</ele>
<time>2024-05-07T13:55:52Z</time>
</trkpt>
<trkpt lat="49.11475371569395" lon="9.553020419552922">
<ele>461.8</ele>
<time>2024-05-07T13:55:53Z</time>
</trkpt>
<trkpt lat="49.11479562520981" lon="9.552967948839068">
<ele>461.8</ele>
<time>2024-05-07T13:55:54Z</time>
</trkpt>
<trkpt lat="49.11483376286924" lon="9.552918411791325">
<ele>461.8</ele>
<time>2024-05-07T13:55:55Z</time>
</trkpt>
<trkpt lat="49.114879528060555" lon="9.5528678689152">
<ele>461.8</ele>
<time>2024-05-07T13:55:56Z</time>
</trkpt>
<trkpt lat="49.114921521395445" lon="9.552822103723884">
<ele>461.8</ele>
<time>2024-05-07T13:55:57Z</time>
</trkpt>
<trkpt lat="49.114963514730334" lon="9.552775332704186">
<ele>461.8</ele>
<time>2024-05-07T13:55:58Z</time>
</trkpt>
<trkpt lat="49.115001652389765" lon="9.552724789828062">
<ele>461.8</ele>
<time>2024-05-07T13:55:59Z</time>
</trkpt>
<trkpt lat="49.115039790049195" lon="9.55267139710486">
<ele>461.8</ele>
<time>2024-05-07T13:56:00Z</time>
</trkpt>
<trkpt lat="49.115081783384085" lon="9.552616998553276">
<ele>461.8</ele>
<time>2024-05-07T13:56:01Z</time>
</trkpt>
<trkpt lat="49.11512369289994" lon="9.552563605830072">
<ele>461.8</ele>
<time>2024-05-07T13:56:02Z</time>
</trkpt>
<trkpt lat="49.11516568623483" lon="9.552514990791678">
<ele>461.8</ele>
<time>2024-05-07T13:56:03Z</time>
</trkpt>
<trkpt lat="49.11521145142615" lon="9.552463525906203">
<ele>461.8</ele>
<time>2024-05-07T13:56:04Z</time>
</trkpt>
<trkpt lat="49.11525344476104" lon="9.55241004936397">
<ele>462</ele>
<time>2024-05-07T13:56:05Z</time>
</trkpt>
<trkpt lat="49.115295354276896" lon="9.55235481262207">
<ele>462</ele>
<time>2024-05-07T13:56:06Z</time>
</trkpt>
<trkpt lat="49.11534111946821" lon="9.552296558395028">
<ele>462</ele>
<time>2024-05-07T13:56:07Z</time>
</trkpt>
<trkpt lat="49.11538688465953" lon="9.55223461613059">
<ele>462.2</ele>
<time>2024-05-07T13:56:08Z</time>
</trkpt>
<trkpt lat="49.115436505526304" lon="9.552171668037772">
<ele>462.2</ele>
<time>2024-05-07T13:56:09Z</time>
</trkpt>
<trkpt lat="49.11548612639308" lon="9.552109641954305">
<ele>462.2</ele>
<time>2024-05-07T13:56:10Z</time>
</trkpt>
<trkpt lat="49.1155318915844" lon="9.552046693861485">
<ele>462.2</ele>
<time>2024-05-07T13:56:11Z</time>
</trkpt>
<trkpt lat="49.1155852843076" lon="9.551984751597049">
<ele>462.2</ele>
<time>2024-05-07T13:56:12Z</time>
</trkpt>
<trkpt lat="49.115634905174375" lon="9.551923731341958">
<ele>462</ele>
<time>2024-05-07T13:56:13Z</time>
</trkpt>
<trkpt lat="49.11568829789758" lon="9.551861705258489">
<ele>462</ele>
<time>2024-05-07T13:56:14Z</time>
</trkpt>
<trkpt lat="49.11574169062078" lon="9.551793057471514">
<ele>461.8</ele>
<time>2024-05-07T13:56:15Z</time>
</trkpt>
<trkpt lat="49.115791311487556" lon="9.551725331693888">
<ele>461.6</ele>
<time>2024-05-07T13:56:16Z</time>
</trkpt>
<trkpt lat="49.11584470421076" lon="9.551652828231454">
<ele>461.4</ele>
<time>2024-05-07T13:56:17Z</time>
</trkpt>
<trkpt lat="49.11589809693396" lon="9.55158518627286">
<ele>461.2</ele>
<time>2024-05-07T13:56:18Z</time>
</trkpt>
<trkpt lat="49.11595148965717" lon="9.551513604819776">
<ele>461</ele>
<time>2024-05-07T13:56:19Z</time>
</trkpt>
<trkpt lat="49.116008738055825" lon="9.551438251510262">
<ele>460.8</ele>
<time>2024-05-07T13:56:20Z</time>
</trkpt>
<trkpt lat="49.116065902635455" lon="9.55136675387621">
<ele>460.4</ele>
<time>2024-05-07T13:56:21Z</time>
</trkpt>
<trkpt lat="49.116127006709576" lon="9.551291400566695">
<ele>460.2</ele>
<time>2024-05-07T13:56:22Z</time>
</trkpt>
<trkpt lat="49.116188026964664" lon="9.551219902932644">
<ele>460</ele>
<time>2024-05-07T13:56:23Z</time>
</trkpt>
<trkpt lat="49.116245191544294" lon="9.551144549623132">
<ele>459.8</ele>
<time>2024-05-07T13:56:24Z</time>
</trkpt>
<trkpt lat="49.116306295618415" lon="9.551070202142">
<ele>459.6</ele>
<time>2024-05-07T13:56:25Z</time>
</trkpt>
<trkpt lat="49.116363460198045" lon="9.55099292099476">
<ele>459.4</ele>
<time>2024-05-07T13:56:26Z</time>
</trkpt>
<trkpt lat="49.11641308106482" lon="9.550918573513629">
<ele>459</ele>
<time>2024-05-07T13:56:27Z</time>
</trkpt>
<trkpt lat="49.11646647378802" lon="9.550841292366384">
<ele>458.8</ele>
<time>2024-05-07T13:56:28Z</time>
</trkpt>
<trkpt lat="49.116523722186685" lon="9.550765017047524">
<ele>458.4</ele>
<time>2024-05-07T13:56:29Z</time>
</trkpt>
<trkpt lat="49.116580886766315" lon="9.55069343559444">
<ele>458</ele>
<time>2024-05-07T13:56:30Z</time>
</trkpt>
<trkpt lat="49.116641990840435" lon="9.55061816610396">
<ele>457.6</ele>
<time>2024-05-07T13:56:31Z</time>
</trkpt>
<trkpt lat="49.11670301109552" lon="9.550541806966066">
<ele>457.4</ele>
<time>2024-05-07T13:56:32Z</time>
</trkpt>
<trkpt lat="49.11675640381873" lon="9.55047508701682">
<ele>457</ele>
<time>2024-05-07T13:56:33Z</time>
</trkpt>
<trkpt lat="49.11681365221739" lon="9.550401661545038">
<ele>456.8</ele>
<time>2024-05-07T13:56:34Z</time>
</trkpt>
<trkpt lat="49.11687081679702" lon="9.55033678561449">
<ele>456.4</ele>
<time>2024-05-07T13:56:35Z</time>
</trkpt>
<trkpt lat="49.11692420952022" lon="9.550265287980436">
<ele>456</ele>
<time>2024-05-07T13:56:36Z</time>
</trkpt>
<trkpt lat="49.11698145791888" lon="9.550189934670923">
<ele>455.8</ele>
<time>2024-05-07T13:56:37Z</time>
</trkpt>
<trkpt lat="49.11704247817397" lon="9.550118437036872">
<ele>455.4</ele>
<time>2024-05-07T13:56:38Z</time>
</trkpt>
<trkpt lat="49.11710735410452" lon="9.55004501156509">
<ele>455.2</ele>
<time>2024-05-07T13:56:39Z</time>
</trkpt>
<trkpt lat="49.117176001891494" lon="9.549968652427197">
<ele>454.8</ele>
<time>2024-05-07T13:56:40Z</time>
</trkpt>
<trkpt lat="49.11724850535393" lon="9.549889527261255">
<ele>454.6</ele>
<time>2024-05-07T13:56:41Z</time>
</trkpt>
<trkpt lat="49.1173171531409" lon="9.549808474257588">
<ele>454.4</ele>
<time>2024-05-07T13:56:42Z</time>
</trkpt>
<trkpt lat="49.11738580092788" lon="9.549730271100998">
<ele>454.2</ele>
<time>2024-05-07T13:56:43Z</time>
</trkpt>
<trkpt lat="49.117446821182966" lon="9.549650140106678">
<ele>453.8</ele>
<time>2024-05-07T13:56:44Z</time>
</trkpt>
<trkpt lat="49.11750792525709" lon="9.54956816509366">
<ele>453.6</ele>
<time>2024-05-07T13:56:45Z</time>
</trkpt>
<trkpt lat="49.1175727173686" lon="9.549486106261613">
<ele>453.4</ele>
<time>2024-05-07T13:56:46Z</time>
</trkpt>
<trkpt lat="49.11763373762369" lon="9.54940983094275">
<ele>453.2</ele>
<time>2024-05-07T13:56:47Z</time>
</trkpt>
<trkpt lat="49.11769484169781" lon="9.54933162778616">
<ele>453</ele>
<time>2024-05-07T13:56:48Z</time>
</trkpt>
<trkpt lat="49.1177558619529" lon="9.549253424629567">
<ele>452.6</ele>
<time>2024-05-07T13:56:49Z</time>
</trkpt>
<trkpt lat="49.11782073788345" lon="9.54917329363525">
<ele>452.4</ele>
<time>2024-05-07T13:56:50Z</time>
</trkpt>
<trkpt lat="49.11788175813854" lon="9.549088468775151">
<ele>452</ele>
<time>2024-05-07T13:56:51Z</time>
</trkpt>
<trkpt lat="49.11794655025005" lon="9.549004482105374">
<ele>451.8</ele>
<time>2024-05-07T13:56:52Z</time>
</trkpt>
<trkpt lat="49.118007654324174" lon="9.5489168073982">
<ele>451.6</ele>
<time>2024-05-07T13:56:53Z</time>
</trkpt>
<trkpt lat="49.11807244643569" lon="9.548828043043612">
<ele>451.2</ele>
<time>2024-05-07T13:56:54Z</time>
</trkpt>
<trkpt lat="49.11813346669078" lon="9.548743218183516">
<ele>451</ele>
<time>2024-05-07T13:56:55Z</time>
</trkpt>
<trkpt lat="49.1181945707649" lon="9.548663087189198">
<ele>450.8</ele>
<time>2024-05-07T13:56:56Z</time>
</trkpt>
<trkpt lat="49.11825559101999" lon="9.548586811870337">
<ele>450.4</ele>
<time>2024-05-07T13:56:57Z</time>
</trkpt>
<trkpt lat="49.118320383131504" lon="9.548511458560824">
<ele>450.2</ele>
<time>2024-05-07T13:56:58Z</time>
</trkpt>
<trkpt lat="49.118381487205625" lon="9.548435183241963">
<ele>449.8</ele>
<time>2024-05-07T13:56:59Z</time>
</trkpt>
<trkpt lat="49.11844250746071" lon="9.548356980085371">
<ele>449.6</ele>
<time>2024-05-07T13:57:00Z</time>
</trkpt>
<trkpt lat="49.1185035277158" lon="9.548288332298398">
<ele>449.2</ele>
<time>2024-05-07T13:57:01Z</time>
</trkpt>
<trkpt lat="49.11856454797089" lon="9.548219600692391">
<ele>448.8</ele>
<time>2024-05-07T13:57:02Z</time>
</trkpt>
<trkpt lat="49.11862942390144" lon="9.548154808580875">
<ele>448.6</ele>
<time>2024-05-07T13:57:03Z</time>
</trkpt>
<trkpt lat="49.11869044415653" lon="9.5481051877141">
<ele>448.4</ele>
<time>2024-05-07T13:57:04Z</time>
</trkpt>
<trkpt lat="49.118755320087075" lon="9.548054644837976">
<ele>448.2</ele>
<time>2024-05-07T13:57:05Z</time>
</trkpt>
<trkpt lat="49.11881634034216" lon="9.548011729493735">
<ele>448</ele>
<time>2024-05-07T13:57:06Z</time>
</trkpt>
<trkpt lat="49.11888121627271" lon="9.547971663996575">
<ele>447.8</ele>
<time>2024-05-07T13:57:07Z</time>
</trkpt>
<trkpt lat="49.11894600838423" lon="9.547933526337149">
<ele>447.6</ele>
<time>2024-05-07T13:57:08Z</time>
</trkpt>
<trkpt lat="49.11900702863932" lon="9.547896310687063">
<ele>447.4</ele>
<time>2024-05-07T13:57:09Z</time>
</trkpt>
<trkpt lat="49.119071904569864" lon="9.547862950712442">
<ele>447.4</ele>
<time>2024-05-07T13:57:10Z</time>
</trkpt>
<trkpt lat="49.11913678050041" lon="9.547833362594249">
<ele>447.2</ele>
<time>2024-05-07T13:57:11Z</time>
</trkpt>
<trkpt lat="49.1191978007555" lon="9.547804780304432">
<ele>447</ele>
<time>2024-05-07T13:57:12Z</time>
</trkpt>
<trkpt lat="49.11926267668605" lon="9.54777334816754">
<ele>447</ele>
<time>2024-05-07T13:57:13Z</time>
</trkpt>
<trkpt lat="49.11932369694114" lon="9.547741832211614">
<ele>446.8</ele>
<time>2024-05-07T13:57:14Z</time>
</trkpt>
<trkpt lat="49.119388572871685" lon="9.5477132499218">
<ele>446.8</ele>
<time>2024-05-07T13:57:15Z</time>
</trkpt>
<trkpt lat="49.1194533649832" lon="9.547688439488413">
<ele>446.8</ele>
<time>2024-05-07T13:57:16Z</time>
</trkpt>
<trkpt lat="49.11951824091375" lon="9.547661701217294">
<ele>446.8</ele>
<time>2024-05-07T13:57:17Z</time>
</trkpt>
<trkpt lat="49.11957926116884" lon="9.54763119108975">
<ele>446.6</ele>
<time>2024-05-07T13:57:18Z</time>
</trkpt>
<trkpt lat="49.119640281423926" lon="9.547603530809283">
<ele>446.6</ele>
<time>2024-05-07T13:57:19Z</time>
</trkpt>
<trkpt lat="49.119705157354474" lon="9.54757302068174">
<ele>446.4</ele>
<time>2024-05-07T13:57:20Z</time>
</trkpt>
<trkpt lat="49.11976617760956" lon="9.547543516382577">
<ele>446.4</ele>
<time>2024-05-07T13:57:21Z</time>
</trkpt>
<trkpt lat="49.11982719786465" lon="9.54751200042665">
<ele>446.4</ele>
<time>2024-05-07T13:57:22Z</time>
</trkpt>
<trkpt lat="49.11988830193877" lon="9.547483418136837">
<ele>446.2</ele>
<time>2024-05-07T13:57:23Z</time>
</trkpt>
<trkpt lat="49.11994932219386" lon="9.547454752027988">
<ele>446.2</ele>
<time>2024-05-07T13:57:24Z</time>
</trkpt>
<trkpt lat="49.12001034244895" lon="9.547428097575905">
<ele>446</ele>
<time>2024-05-07T13:57:25Z</time>
</trkpt>
<trkpt lat="49.12007136270404" lon="9.547403287142515">
<ele>445.8</ele>
<time>2024-05-07T13:57:26Z</time>
</trkpt>
<trkpt lat="49.12013238295913" lon="9.54737663269043">
<ele>445.8</ele>
<time>2024-05-07T13:57:27Z</time>
</trkpt>
<trkpt lat="49.120193403214216" lon="9.547349894419312">
<ele>445.8</ele>
<time>2024-05-07T13:57:28Z</time>
</trkpt>
<trkpt lat="49.12025065161288" lon="9.547323156148195">
<ele>445.8</ele>
<time>2024-05-07T13:57:29Z</time>
</trkpt>
<trkpt lat="49.12030790001154" lon="9.54729457385838">
<ele>445.8</ele>
<time>2024-05-07T13:57:30Z</time>
</trkpt>
<trkpt lat="49.12036506459117" lon="9.547264985740185">
<ele>445.8</ele>
<time>2024-05-07T13:57:31Z</time>
</trkpt>
<trkpt lat="49.12042231298983" lon="9.54723640345037">
<ele>445.8</ele>
<time>2024-05-07T13:57:32Z</time>
</trkpt>
<trkpt lat="49.12047956138849" lon="9.547209665179253">
<ele>445.6</ele>
<time>2024-05-07T13:57:33Z</time>
</trkpt>
<trkpt lat="49.12053672596812" lon="9.547183010727167">
<ele>445.6</ele>
<time>2024-05-07T13:57:34Z</time>
</trkpt>
<trkpt lat="49.12059020251036" lon="9.547160128131509">
<ele>445.6</ele>
<time>2024-05-07T13:57:35Z</time>
</trkpt>
<trkpt lat="49.12064736708999" lon="9.547133389860392">
<ele>445.6</ele>
<time>2024-05-07T13:57:36Z</time>
</trkpt>
<trkpt lat="49.12070075981319" lon="9.547108579427004">
<ele>445.6</ele>
<time>2024-05-07T13:57:37Z</time>
</trkpt>
<trkpt lat="49.120754236355424" lon="9.547081924974918">
<ele>445.6</ele>
<time>2024-05-07T13:57:38Z</time>
</trkpt>
<trkpt lat="49.12080762907863" lon="9.5470551867038">
<ele>445.6</ele>
<time>2024-05-07T13:57:39Z</time>
</trkpt>
<trkpt lat="49.12085716612637" lon="9.547031382098794">
<ele>445.4</ele>
<time>2024-05-07T13:57:40Z</time>
</trkpt>
<trkpt lat="49.120910642668605" lon="9.547008499503136">
<ele>445.4</ele>
<time>2024-05-07T13:57:41Z</time>
</trkpt>
<trkpt lat="49.12096017971635" lon="9.546983689069748">
<ele>445.6</ele>
<time>2024-05-07T13:57:42Z</time>
</trkpt>
<trkpt lat="49.121005944907665" lon="9.546959800645707">
<ele>445.6</ele>
<time>2024-05-07T13:57:43Z</time>
</trkpt>
<trkpt lat="49.12105556577444" lon="9.54693691805005">
<ele>445.6</ele>
<time>2024-05-07T13:57:44Z</time>
</trkpt>
<trkpt lat="49.121105186641216" lon="9.546915041282771">
<ele>445.8</ele>
<time>2024-05-07T13:57:45Z</time>
</trkpt>
<trkpt lat="49.12115095183253" lon="9.546892158687116">
<ele>445.8</ele>
<time>2024-05-07T13:57:46Z</time>
</trkpt>
<trkpt lat="49.12119671702385" lon="9.546866342425346">
<ele>446</ele>
<time>2024-05-07T13:57:47Z</time>
</trkpt>
<trkpt lat="49.121246337890625" lon="9.54684161581099">
<ele>446</ele>
<time>2024-05-07T13:57:48Z</time>
</trkpt>
<trkpt lat="49.12129210308194" lon="9.546818733215332">
<ele>446</ele>
<time>2024-05-07T13:57:49Z</time>
</trkpt>
<trkpt lat="49.121341640129685" lon="9.546792916953564">
<ele>446.2</ele>
<time>2024-05-07T13:57:50Z</time>
</trkpt>
<trkpt lat="49.121387405321" lon="9.546771962195637">
<ele>446.2</ele>
<time>2024-05-07T13:57:51Z</time>
</trkpt>
<trkpt lat="49.12143325433135" lon="9.546752851456404">
<ele>446.4</ele>
<time>2024-05-07T13:57:52Z</time>
</trkpt>
<trkpt lat="49.12147516384721" lon="9.546729968860744">
<ele>446.6</ele>
<time>2024-05-07T13:57:53Z</time>
</trkpt>
<trkpt lat="49.121520929038525" lon="9.546707086265087">
<ele>446.8</ele>
<time>2024-05-07T13:57:54Z</time>
</trkpt>
<trkpt lat="49.121562922373414" lon="9.54668135382235">
<ele>447</ele>
<time>2024-05-07T13:57:55Z</time>
</trkpt>
<trkpt lat="49.12160868756473" lon="9.546658471226692">
<ele>447.4</ele>
<time>2024-05-07T13:57:56Z</time>
</trkpt>
<trkpt lat="49.12165445275605" lon="9.546638438478112">
<ele>447.6</ele>
<time>2024-05-07T13:57:57Z</time>
</trkpt>
<trkpt lat="49.12169644609094" lon="9.546620333567262">
<ele>447.8</ele>
<time>2024-05-07T13:57:58Z</time>
</trkpt>
<trkpt lat="49.121738355606794" lon="9.54660122282803">
<ele>448</ele>
<time>2024-05-07T13:57:59Z</time>
</trkpt>
<trkpt lat="49.12178034894168" lon="9.54658119007945">
<ele>448.2</ele>
<time>2024-05-07T13:58:00Z</time>
</trkpt>
<trkpt lat="49.12182234227657" lon="9.546560235321522">
<ele>448.4</ele>
<time>2024-05-07T13:58:01Z</time>
</trkpt>
<trkpt lat="49.12186425179243" lon="9.546538274735212">
<ele>448.6</ele>
<time>2024-05-07T13:58:02Z</time>
</trkpt>
<trkpt lat="49.12190624512732" lon="9.546516397967936">
<ele>448.8</ele>
<time>2024-05-07T13:58:03Z</time>
</trkpt>
<trkpt lat="49.12194823846221" lon="9.546493515372276">
<ele>448.8</ele>
<time>2024-05-07T13:58:04Z</time>
</trkpt>
<trkpt lat="49.12199014797807" lon="9.546468704938889">
<ele>449</ele>
<time>2024-05-07T13:58:05Z</time>
</trkpt>
<trkpt lat="49.122035913169384" lon="9.54644674435258">
<ele>449.2</ele>
<time>2024-05-07T13:58:06Z</time>
</trkpt>
<trkpt lat="49.12207790650427" lon="9.546426711604">
<ele>449.4</ele>
<time>2024-05-07T13:58:07Z</time>
</trkpt>
<trkpt lat="49.12211989983916" lon="9.54640483483672">
<ele>449.6</ele>
<time>2024-05-07T13:58:08Z</time>
</trkpt>
<trkpt lat="49.12216566503048" lon="9.54638480208814">
<ele>449.8</ele>
<time>2024-05-07T13:58:09Z</time>
</trkpt>
<trkpt lat="49.12220757454634" lon="9.54636376351118">
<ele>450</ele>
<time>2024-05-07T13:58:10Z</time>
</trkpt>
<trkpt lat="49.12224956788123" lon="9.546341886743903">
<ele>450.2</ele>
<time>2024-05-07T13:58:11Z</time>
</trkpt>
<trkpt lat="49.12228770554066" lon="9.546317076310515">
<ele>450.4</ele>
<time>2024-05-07T13:58:12Z</time>
</trkpt>
<trkpt lat="49.12232969887555" lon="9.546293187886477">
<ele>450.6</ele>
<time>2024-05-07T13:58:13Z</time>
</trkpt>
<trkpt lat="49.12237160839141" lon="9.5462713111192">
<ele>450.6</ele>
<time>2024-05-07T13:58:14Z</time>
</trkpt>
<trkpt lat="49.122409746050835" lon="9.54624842852354">
<ele>450.8</ele>
<time>2024-05-07T13:58:15Z</time>
</trkpt>
<trkpt lat="49.12245173938573" lon="9.546224540099502">
<ele>450.8</ele>
<time>2024-05-07T13:58:16Z</time>
</trkpt>
<trkpt lat="49.12249373272061" lon="9.546199729666114">
<ele>451</ele>
<time>2024-05-07T13:58:17Z</time>
</trkpt>
<trkpt lat="49.12253564223647" lon="9.546176847070456">
<ele>451</ele>
<time>2024-05-07T13:58:18Z</time>
</trkpt>
<trkpt lat="49.12258140742779" lon="9.546153042465448">
<ele>451.2</ele>
<time>2024-05-07T13:58:19Z</time>
</trkpt>
<trkpt lat="49.122627256438136" lon="9.54613208770752">
<ele>451.2</ele>
<time>2024-05-07T13:58:20Z</time>
</trkpt>
<trkpt lat="49.122669165953994" lon="9.546106271445751">
<ele>451.2</ele>
<time>2024-05-07T13:58:21Z</time>
</trkpt>
<trkpt lat="49.12271493114531" lon="9.546081461012363">
<ele>451.4</ele>
<time>2024-05-07T13:58:22Z</time>
</trkpt>
<trkpt lat="49.122764552012086" lon="9.546056734398007">
<ele>451.2</ele>
<time>2024-05-07T13:58:23Z</time>
</trkpt>
<trkpt lat="49.122806545346975" lon="9.546034773811698">
<ele>450.8</ele>
<time>2024-05-07T13:58:24Z</time>
</trkpt>
<trkpt lat="49.12284845486283" lon="9.546012813225389">
<ele>450.6</ele>
<time>2024-05-07T13:58:25Z</time>
</trkpt>
<trkpt lat="49.12288659252226" lon="9.54598993062973">
<ele>450.6</ele>
<time>2024-05-07T13:58:26Z</time>
</trkpt>
<trkpt lat="49.122924730181694" lon="9.545967048034072">
<ele>450.4</ele>
<time>2024-05-07T13:58:27Z</time>
</trkpt>
<trkpt lat="49.1229590959847" lon="9.545945087447762">
<ele>450.4</ele>
<time>2024-05-07T13:58:28Z</time>
</trkpt>
<trkpt lat="49.12299723364413" lon="9.545923210680485">
<ele>450.4</ele>
<time>2024-05-07T13:58:29Z</time>
</trkpt>
<trkpt lat="49.12303159944713" lon="9.545903177931905">
<ele>450.4</ele>
<time>2024-05-07T13:58:30Z</time>
</trkpt>
<trkpt lat="49.123084992170334" lon="9.54587459564209">
<ele>450.4</ele>
<time>2024-05-07T13:58:31Z</time>
</trkpt>
<trkpt lat="49.12313461303711" lon="9.54585355706513">
<ele>450.6</ele>
<time>2024-05-07T13:58:32Z</time>
</trkpt>
<trkpt lat="49.12318415008485" lon="9.545831680297852">
<ele>450.6</ele>
<time>2024-05-07T13:58:33Z</time>
</trkpt>
<trkpt lat="49.123237542808056" lon="9.545806869864464">
<ele>450.4</ele>
<time>2024-05-07T13:58:34Z</time>
</trkpt>
<trkpt lat="49.12328716367483" lon="9.545780131593348">
<ele>450.4</ele>
<time>2024-05-07T13:58:35Z</time>
</trkpt>
<trkpt lat="49.123340556398034" lon="9.54575347714126">
<ele>450.2</ele>
<time>2024-05-07T13:58:36Z</time>
</trkpt>
<trkpt lat="49.12339017726481" lon="9.545728666707872">
<ele>450.2</ele>
<time>2024-05-07T13:58:37Z</time>
</trkpt>
<trkpt lat="49.123435942456126" lon="9.545702934265137">
<ele>450</ele>
<time>2024-05-07T13:58:38Z</time>
</trkpt>
<trkpt lat="49.123500818386674" lon="9.54567334614694">
<ele>450</ele>
<time>2024-05-07T13:58:39Z</time>
</trkpt>
<trkpt lat="49.12358472123742" lon="9.545619953423738">
<ele>449.8</ele>
<time>2024-05-07T13:58:40Z</time>
</trkpt>
<trkpt lat="49.12364574149251" lon="9.545566476881504">
<ele>449.8</ele>
<time>2024-05-07T13:58:41Z</time>
</trkpt>
<trkpt lat="49.123714389279485" lon="9.545490201562645">
<ele>449.6</ele>
<time>2024-05-07T13:58:42Z</time>
</trkpt>
<trkpt lat="49.123775409534574" lon="9.545411998406053">
<ele>449.4</ele>
<time>2024-05-07T13:58:43Z</time>
</trkpt>
<trkpt lat="49.123832657933235" lon="9.545334801077844">
<ele>449.2</ele>
<time>2024-05-07T13:58:44Z</time>
</trkpt>
<trkpt lat="49.12389753386378" lon="9.545254670083525">
<ele>449</ele>
<time>2024-05-07T13:58:45Z</time>
</trkpt>
<trkpt lat="49.12395469844341" lon="9.545156434178352">
<ele>448.8</ele>
<time>2024-05-07T13:58:46Z</time>
</trkpt>
<trkpt lat="49.12400817498565" lon="9.545051492750645">
<ele>448.4</ele>
<time>2024-05-07T13:58:47Z</time>
</trkpt>
<trkpt lat="49.12406156770885" lon="9.544955184683204">
<ele>448.2</ele>
<time>2024-05-07T13:58:48Z</time>
</trkpt>
<trkpt lat="49.12411873228848" lon="9.544824594631791">
<ele>447.8</ele>
<time>2024-05-07T13:58:49Z</time>
</trkpt>
<trkpt lat="49.124172208830714" lon="9.54470632597804">
<ele>447.4</ele>
<time>2024-05-07T13:58:50Z</time>
</trkpt>
<trkpt lat="49.12422174587846" lon="9.544583279639482">
<ele>447.2</ele>
<time>2024-05-07T13:58:51Z</time>
</trkpt>
<trkpt lat="49.12427513860166" lon="9.544458389282228">
<ele>446.8</ele>
<time>2024-05-07T13:58:52Z</time>
</trkpt>
<trkpt lat="49.12432090379298" lon="9.544326709583402">
<ele>446.4</ele>
<time>2024-05-07T13:58:53Z</time>
</trkpt>
<trkpt lat="49.124366752803326" lon="9.544208524748685">
<ele>446</ele>
<time>2024-05-07T13:58:54Z</time>
</trkpt>
<trkpt lat="49.12441251799464" lon="9.544090256094933">
<ele>445.6</ele>
<time>2024-05-07T13:58:55Z</time>
</trkpt>
<trkpt lat="49.12445828318596" lon="9.54397676512599">
<ele>445.2</ele>
<time>2024-05-07T13:58:56Z</time>
</trkpt>
<trkpt lat="49.12450019270182" lon="9.543848019093277">
<ele>444.8</ele>
<time>2024-05-07T13:58:57Z</time>
</trkpt>
<trkpt lat="49.124542186036706" lon="9.543727822601795">
<ele>444.4</ele>
<time>2024-05-07T13:58:58Z</time>
</trkpt>
<trkpt lat="49.12458032369614" lon="9.543606704100966">
<ele>444.2</ele>
<time>2024-05-07T13:58:59Z</time>
</trkpt>
<trkpt lat="49.124622317031026" lon="9.543477958068252">
<ele>443.6</ele>
<time>2024-05-07T13:59:00Z</time>
</trkpt>
<trkpt lat="49.12466422654688" lon="9.54336354508996">
<ele>443.2</ele>
<time>2024-05-07T13:59:01Z</time>
</trkpt>
<trkpt lat="49.12469859234989" lon="9.54324334859848">
<ele>442.8</ele>
<time>2024-05-07T13:59:02Z</time>
</trkpt>
<trkpt lat="49.12473673000932" lon="9.543133713304996">
<ele>442.4</ele>
<time>2024-05-07T13:59:03Z</time>
</trkpt>
<trkpt lat="49.12477486766875" lon="9.543033549562097">
<ele>442</ele>
<time>2024-05-07T13:59:04Z</time>
</trkpt>
<trkpt lat="49.12481686100364" lon="9.542955346405506">
<ele>441.6</ele>
<time>2024-05-07T13:59:05Z</time>
</trkpt>
<trkpt lat="49.12485499866307" lon="9.54287144355476">
<ele>441.2</ele>
<time>2024-05-07T13:59:06Z</time>
</trkpt>
<trkpt lat="49.12490461952984" lon="9.542784690856934">
<ele>440.8</ele>
<time>2024-05-07T13:59:07Z</time>
</trkpt>
<trkpt lat="49.12495415657759" lon="9.54270833171904">
<ele>440.6</ele>
<time>2024-05-07T13:59:08Z</time>
</trkpt>
<trkpt lat="49.12500754930079" lon="9.542634906247258">
<ele>440.4</ele>
<time>2024-05-07T13:59:09Z</time>
</trkpt>
<trkpt lat="49.12506479769945" lon="9.542566258460283">
<ele>440.2</ele>
<time>2024-05-07T13:59:10Z</time>
</trkpt>
<trkpt lat="49.12512581795454" lon="9.542501382529736">
<ele>440.2</ele>
<time>2024-05-07T13:59:11Z</time>
</trkpt>
<trkpt lat="49.12520217709243" lon="9.542441368103027">
<ele>440</ele>
<time>2024-05-07T13:59:12Z</time>
</trkpt>
<trkpt lat="49.12527082487941" lon="9.542387891560791">
<ele>439.8</ele>
<time>2024-05-07T13:59:13Z</time>
</trkpt>
<trkpt lat="49.1253318451345" lon="9.542343132197855">
<ele>439.6</ele>
<time>2024-05-07T13:59:14Z</time>
</trkpt>
<trkpt lat="49.12538146600127" lon="9.542311616241932">
<ele>439.4</ele>
<time>2024-05-07T13:59:15Z</time>
</trkpt>
<trkpt lat="49.125434858724475" lon="9.54227632842958">
<ele>439.2</ele>
<time>2024-05-07T13:59:16Z</time>
</trkpt>
<trkpt lat="49.12548825144768" lon="9.542235340923073">
<ele>439</ele>
<time>2024-05-07T13:59:17Z</time>
</trkpt>
<trkpt lat="49.12554549984634" lon="9.54219334758818">
<ele>438.8</ele>
<time>2024-05-07T13:59:18Z</time>
</trkpt>
<trkpt lat="49.12560652010143" lon="9.542146660387516">
<ele>438.4</ele>
<time>2024-05-07T13:59:19Z</time>
</trkpt>
<trkpt lat="49.12566368468106" lon="9.542093267664312">
<ele>438.2</ele>
<time>2024-05-07T13:59:20Z</time>
</trkpt>
<trkpt lat="49.12571716122329" lon="9.54203979112208">
<ele>437.8</ele>
<time>2024-05-07T13:59:21Z</time>
</trkpt>
<trkpt lat="49.12576292641461" lon="9.541988326236606">
<ele>437.4</ele>
<time>2024-05-07T13:59:22Z</time>
</trkpt>
<trkpt lat="49.125808691605926" lon="9.541928227990866">
<ele>437</ele>
<time>2024-05-07T13:59:23Z</time>
</trkpt>
<trkpt lat="49.12586208432913" lon="9.54186343587935">
<ele>436.6</ele>
<time>2024-05-07T13:59:24Z</time>
</trkpt>
<trkpt lat="49.125907849520445" lon="9.54180140979588">
<ele>436.2</ele>
<time>2024-05-07T13:59:25Z</time>
</trkpt>
<trkpt lat="49.12595747038722" lon="9.541736533865333">
<ele>435.8</ele>
<time>2024-05-07T13:59:26Z</time>
</trkpt>
<trkpt lat="49.12600700743496" lon="9.541671741753817">
<ele>435.4</ele>
<time>2024-05-07T13:59:27Z</time>
</trkpt>
<trkpt lat="49.1260604839772" lon="9.541608793660998">
<ele>435.2</ele>
<time>2024-05-07T13:59:28Z</time>
</trkpt>
<trkpt lat="49.1261138767004" lon="9.5415448397398">
<ele>435</ele>
<time>2024-05-07T13:59:29Z</time>
</trkpt>
<trkpt lat="49.12615578621626" lon="9.541486669331787">
<ele>434.8</ele>
<time>2024-05-07T13:59:30Z</time>
</trkpt>
<trkpt lat="49.126205407083035" lon="9.541424727067351">
<ele>434.6</ele>
<time>2024-05-07T13:59:31Z</time>
</trkpt>
<trkpt lat="49.12624740041792" lon="9.54136655665934">
<ele>434.6</ele>
<time>2024-05-07T13:59:32Z</time>
</trkpt>
<trkpt lat="49.12628930993378" lon="9.541310230270028">
<ele>434.4</ele>
<time>2024-05-07T13:59:33Z</time>
</trkpt>
<trkpt lat="49.1263350751251" lon="9.541253065690398">
<ele>434.4</ele>
<time>2024-05-07T13:59:34Z</time>
</trkpt>
<trkpt lat="49.12637706845999" lon="9.541199672967196">
<ele>434.4</ele>
<time>2024-05-07T13:59:35Z</time>
</trkpt>
<trkpt lat="49.12641520611942" lon="9.54114619642496">
<ele>434.4</ele>
<time>2024-05-07T13:59:36Z</time>
</trkpt>
<trkpt lat="49.12645334377885" lon="9.541094731539488">
<ele>434.6</ele>
<time>2024-05-07T13:59:37Z</time>
</trkpt>
<trkpt lat="49.12649148143828" lon="9.541043266654016">
<ele>434.6</ele>
<time>2024-05-07T13:59:38Z</time>
</trkpt>
<trkpt lat="49.12653347477317" lon="9.540989873930812">
<ele>434.6</ele>
<time>2024-05-07T13:59:39Z</time>
</trkpt>
<trkpt lat="49.1265716124326" lon="9.540938325226309">
<ele>434.8</ele>
<time>2024-05-07T13:59:40Z</time>
</trkpt>
<trkpt lat="49.12660975009203" lon="9.540887782350184">
<ele>434.8</ele>
<time>2024-05-07T13:59:41Z</time>
</trkpt>
<trkpt lat="49.12664788775146" lon="9.540840089321136">
<ele>434.8</ele>
<time>2024-05-07T13:59:42Z</time>
</trkpt>
<trkpt lat="49.12668602541089" lon="9.540789546445012">
<ele>435</ele>
<time>2024-05-07T13:59:43Z</time>
</trkpt>
<trkpt lat="49.12672416307032" lon="9.540742859244348">
<ele>435</ele>
<time>2024-05-07T13:59:44Z</time>
</trkpt>
<trkpt lat="49.12676238454878" lon="9.54069801606238">
<ele>435.2</ele>
<time>2024-05-07T13:59:45Z</time>
</trkpt>
<trkpt lat="49.126796666532755" lon="9.540653172880411">
<ele>435.2</ele>
<time>2024-05-07T13:59:46Z</time>
</trkpt>
<trkpt lat="49.126834804192185" lon="9.540604557842016">
<ele>435.4</ele>
<time>2024-05-07T13:59:47Z</time>
</trkpt>
<trkpt lat="49.126876797527075" lon="9.54055778682232">
<ele>435.4</ele>
<time>2024-05-07T13:59:48Z</time>
</trkpt>
<trkpt lat="49.126914935186505" lon="9.540510177612305">
<ele>435.6</ele>
<time>2024-05-07T13:59:49Z</time>
</trkpt>
<trkpt lat="49.126953072845936" lon="9.540461478754878">
<ele>435.6</ele>
<time>2024-05-07T13:59:50Z</time>
</trkpt>
<trkpt lat="49.12700269371271" lon="9.540412863716483">
<ele>435.8</ele>
<time>2024-05-07T13:59:51Z</time>
</trkpt>
<trkpt lat="49.12704460322857" lon="9.540367098525168">
<ele>436</ele>
<time>2024-05-07T13:59:52Z</time>
</trkpt>
<trkpt lat="49.12708659656346" lon="9.540313705801964">
<ele>436</ele>
<time>2024-05-07T13:59:53Z</time>
</trkpt>
<trkpt lat="49.12712473422289" lon="9.540256457403302">
<ele>436.2</ele>
<time>2024-05-07T13:59:54Z</time>
</trkpt>
<trkpt lat="49.12716672755778" lon="9.5402030646801">
<ele>436.2</ele>
<time>2024-05-07T13:59:55Z</time>
</trkpt>
<trkpt lat="49.12720486521721" lon="9.540148666128516">
<ele>436.4</ele>
<time>2024-05-07T13:59:56Z</time>
</trkpt>
<trkpt lat="49.12724677473307" lon="9.54010005109012">
<ele>436.4</ele>
<time>2024-05-07T13:59:57Z</time>
</trkpt>
<trkpt lat="49.12728114053607" lon="9.540055207908154">
<ele>436.6</ele>
<time>2024-05-07T13:59:58Z</time>
</trkpt>
<trkpt lat="49.12731550633907" lon="9.540011370554566">
<ele>436.8</ele>
<time>2024-05-07T13:59:59Z</time>
</trkpt>
<trkpt lat="49.127349788323045" lon="9.539968455210328">
<ele>436.8</ele>
<time>2024-05-07T14:00:00Z</time>
</trkpt>
<trkpt lat="49.12738415412605" lon="9.539917912334204">
<ele>437</ele>
<time>2024-05-07T14:00:01Z</time>
</trkpt>
<trkpt lat="49.12741843611002" lon="9.539876924827697">
<ele>437.2</ele>
<time>2024-05-07T14:00:02Z</time>
</trkpt>
<trkpt lat="49.12744903005659" lon="9.539834931492804">
<ele>437.4</ele>
<time>2024-05-07T14:00:03Z</time>
</trkpt>
<trkpt lat="49.12748331204057" lon="9.539792938157916">
<ele>437.6</ele>
<time>2024-05-07T14:00:04Z</time>
</trkpt>
<trkpt lat="49.12751767784357" lon="9.539751950651407">
<ele>437.8</ele>
<time>2024-05-07T14:00:05Z</time>
</trkpt>
<trkpt lat="49.127548187971115" lon="9.53971004113555">
<ele>438</ele>
<time>2024-05-07T14:00:06Z</time>
</trkpt>
<trkpt lat="49.12758246995509" lon="9.539671819657087">
<ele>438.4</ele>
<time>2024-05-07T14:00:07Z</time>
</trkpt>
<trkpt lat="49.12761683575809" lon="9.53963183797896">
<ele>438.6</ele>
<time>2024-05-07T14:00:08Z</time>
</trkpt>
<trkpt lat="49.127647345885634" lon="9.539586994796991">
<ele>439</ele>
<time>2024-05-07T14:00:09Z</time>
</trkpt>
<trkpt lat="49.12768171168864" lon="9.539538379758596">
<ele>439.2</ele>
<time>2024-05-07T14:00:10Z</time>
</trkpt>
<trkpt lat="49.12771599367261" lon="9.539493536576629">
<ele>439.6</ele>
<time>2024-05-07T14:00:11Z</time>
</trkpt>
<trkpt lat="49.12775035947561" lon="9.53944869339466">
<ele>440</ele>
<time>2024-05-07T14:00:12Z</time>
</trkpt>
<trkpt lat="49.12778849713504" lon="9.539402928203344">
<ele>440.2</ele>
<time>2024-05-07T14:00:13Z</time>
</trkpt>
<trkpt lat="49.127826634794474" lon="9.539355235174298">
<ele>440.4</ele>
<time>2024-05-07T14:00:14Z</time>
</trkpt>
<trkpt lat="49.12786862812936" lon="9.539304692298174">
<ele>440.6</ele>
<time>2024-05-07T14:00:15Z</time>
</trkpt>
<trkpt lat="49.12791053764522" lon="9.539251299574971">
<ele>440.8</ele>
<time>2024-05-07T14:00:16Z</time>
</trkpt>
<trkpt lat="49.12795253098011" lon="9.539197906851768">
<ele>441</ele>
<time>2024-05-07T14:00:17Z</time>
</trkpt>
<trkpt lat="49.12799066863954" lon="9.539144514128566">
<ele>441.2</ele>
<time>2024-05-07T14:00:18Z</time>
</trkpt>
<trkpt lat="49.12802880629897" lon="9.539092043414712">
<ele>441.4</ele>
<time>2024-05-07T14:00:19Z</time>
</trkpt>
<trkpt lat="49.128063172101974" lon="9.539039572700858">
<ele>441.4</ele>
<time>2024-05-07T14:00:20Z</time>
</trkpt>
<trkpt lat="49.128101309761405" lon="9.538989951834084">
<ele>441.4</ele>
<time>2024-05-07T14:00:21Z</time>
</trkpt>
<trkpt lat="49.12813181988895" lon="9.53893848694861">
<ele>441.4</ele>
<time>2024-05-07T14:00:22Z</time>
</trkpt>
<trkpt lat="49.12816618569195" lon="9.538883166387675">
<ele>441.6</ele>
<time>2024-05-07T14:00:23Z</time>
</trkpt>
<trkpt lat="49.12820046767592" lon="9.538829773664474">
<ele>441.6</ele>
<time>2024-05-07T14:00:24Z</time>
</trkpt>
<trkpt lat="49.12823097780347" lon="9.538773531094192">
<ele>441.8</ele>
<time>2024-05-07T14:00:25Z</time>
</trkpt>
<trkpt lat="49.12826148793101" lon="9.538713432848454">
<ele>441.8</ele>
<time>2024-05-07T14:00:26Z</time>
</trkpt>
<trkpt lat="49.12828822620213" lon="9.538656184449792">
<ele>441.8</ele>
<time>2024-05-07T14:00:27Z</time>
</trkpt>
<trkpt lat="49.128318736329675" lon="9.53859801404178">
<ele>442</ele>
<time>2024-05-07T14:00:28Z</time>
</trkpt>
<trkpt lat="49.12834547460079" lon="9.538539843633773">
<ele>442</ele>
<time>2024-05-07T14:00:29Z</time>
</trkpt>
<trkpt lat="49.128375984728336" lon="9.538477817550302">
<ele>442</ele>
<time>2024-05-07T14:00:30Z</time>
</trkpt>
<trkpt lat="49.12841026671231" lon="9.538418725132942">
<ele>442.2</ele>
<time>2024-05-07T14:00:31Z</time>
</trkpt>
<trkpt lat="49.128437004983425" lon="9.538354855030777">
<ele>442.2</ele>
<time>2024-05-07T14:00:32Z</time>
</trkpt>
<trkpt lat="49.12847137078643" lon="9.538293834775686">
<ele>442.2</ele>
<time>2024-05-07T14:00:33Z</time>
</trkpt>
<trkpt lat="49.12850188091397" lon="9.538229880854487">
<ele>442</ele>
<time>2024-05-07T14:00:34Z</time>
</trkpt>
<trkpt lat="49.128536162897944" lon="9.53816693276167">
<ele>442</ele>
<time>2024-05-07T14:00:35Z</time>
</trkpt>
<trkpt lat="49.12856667302549" lon="9.538103062659502">
<ele>442</ele>
<time>2024-05-07T14:00:36Z</time>
</trkpt>
<trkpt lat="49.128593411296606" lon="9.538044892251492">
<ele>442</ele>
<time>2024-05-07T14:00:37Z</time>
</trkpt>
<trkpt lat="49.12862392142415" lon="9.537984794005752">
<ele>442.2</ele>
<time>2024-05-07T14:00:38Z</time>
</trkpt>
<trkpt lat="49.128654431551695" lon="9.53792662359774">
<ele>442.2</ele>
<time>2024-05-07T14:00:39Z</time>
</trkpt>
<trkpt lat="49.12868494167924" lon="9.537864681333303">
<ele>442.2</ele>
<time>2024-05-07T14:00:40Z</time>
</trkpt>
<trkpt lat="49.12871167995036" lon="9.537803577259185">
<ele>442.2</ele>
<time>2024-05-07T14:00:41Z</time>
</trkpt>
<trkpt lat="49.1287421900779" lon="9.537743562832476">
<ele>442.2</ele>
<time>2024-05-07T14:00:42Z</time>
</trkpt>
<trkpt lat="49.128768844529986" lon="9.537688242271544">
<ele>442.2</ele>
<time>2024-05-07T14:00:43Z</time>
</trkpt>
<trkpt lat="49.128795582801104" lon="9.53763484954834">
<ele>442.2</ele>
<time>2024-05-07T14:00:44Z</time>
</trkpt>
<trkpt lat="49.12882994860411" lon="9.537576595321298">
<ele>442.2</ele>
<time>2024-05-07T14:00:45Z</time>
</trkpt>
<trkpt lat="49.12885660305619" lon="9.537521358579395">
<ele>442.2</ele>
<time>2024-05-07T14:00:46Z</time>
</trkpt>
<trkpt lat="49.12888711318374" lon="9.537463188171388">
<ele>442.2</ele>
<time>2024-05-07T14:00:47Z</time>
</trkpt>
<trkpt lat="49.12891762331128" lon="9.537413567304611">
<ele>442.2</ele>
<time>2024-05-07T14:00:48Z</time>
</trkpt>
<trkpt lat="49.128948133438826" lon="9.537364952266216">
<ele>442.2</ele>
<time>2024-05-07T14:00:49Z</time>
</trkpt>
<trkpt lat="49.12897109985352" lon="9.53731818124652">
<ele>442.2</ele>
<time>2024-05-07T14:00:50Z</time>
</trkpt>
<trkpt lat="49.128990126773715" lon="9.537271494045854">
<ele>442.2</ele>
<time>2024-05-07T14:00:51Z</time>
</trkpt>
<trkpt lat="49.12901300936937" lon="9.537224723026156">
<ele>442.2</ele>
<time>2024-05-07T14:00:52Z</time>
</trkpt>
<trkpt lat="49.12903974764049" lon="9.537173258140683">
<ele>442.4</ele>
<time>2024-05-07T14:00:53Z</time>
</trkpt>
<trkpt lat="49.129066402092576" lon="9.537128414958715">
<ele>442.4</ele>
<time>2024-05-07T14:00:54Z</time>
</trkpt>
<trkpt lat="49.12910453975201" lon="9.537083571776748">
<ele>442.6</ele>
<time>2024-05-07T14:00:55Z</time>
</trkpt>
<trkpt lat="49.12913127802312" lon="9.53704166226089">
<ele>442.8</ele>
<time>2024-05-07T14:00:56Z</time>
</trkpt>
<trkpt lat="49.12916564382613" lon="9.536998746916652">
<ele>442.8</ele>
<time>2024-05-07T14:00:57Z</time>
</trkpt>
<trkpt lat="49.1291999258101" lon="9.536952897906303">
<ele>443</ele>
<time>2024-05-07T14:00:58Z</time>
</trkpt>
<trkpt lat="49.1292342916131" lon="9.536906210705638">
<ele>443.2</ele>
<time>2024-05-07T14:00:59Z</time>
</trkpt>
<trkpt lat="49.12927242927253" lon="9.536856589838862">
<ele>443.4</ele>
<time>2024-05-07T14:01:00Z</time>
</trkpt>
<trkpt lat="49.12931056693196" lon="9.53680319711566">
<ele>443.6</ele>
<time>2024-05-07T14:01:01Z</time>
</trkpt>
<trkpt lat="49.12935256026685" lon="9.536747876554728">
<ele>443.8</ele>
<time>2024-05-07T14:01:02Z</time>
</trkpt>
<trkpt lat="49.129386842250824" lon="9.53670018352568">
<ele>444</ele>
<time>2024-05-07T14:01:03Z</time>
</trkpt>
<trkpt lat="49.12942120805383" lon="9.536653496325016">
<ele>444.2</ele>
<time>2024-05-07T14:01:04Z</time>
</trkpt>
<trkpt lat="49.12945171818137" lon="9.536611502990128">
<ele>444.4</ele>
<time>2024-05-07T14:01:05Z</time>
</trkpt>
<trkpt lat="49.1294898558408" lon="9.536573365330696">
<ele>444.6</ele>
<time>2024-05-07T14:01:06Z</time>
</trkpt>
<trkpt lat="49.12952799350023" lon="9.536538077518344">
<ele>444.8</ele>
<time>2024-05-07T14:01:07Z</time>
</trkpt>
<trkpt lat="49.12955850362778" lon="9.536499939858912">
<ele>445</ele>
<time>2024-05-07T14:01:08Z</time>
</trkpt>
<trkpt lat="49.12959664128721" lon="9.536457946524024">
<ele>445.2</ele>
<time>2024-05-07T14:01:09Z</time>
</trkpt>
<trkpt lat="49.12963100709021" lon="9.536413187161088">
<ele>445.4</ele>
<time>2024-05-07T14:01:10Z</time>
</trkpt>
<trkpt lat="49.129661517217755" lon="9.5363711938262">
<ele>445.6</ele>
<time>2024-05-07T14:01:11Z</time>
</trkpt>
<trkpt lat="49.12969588302076" lon="9.53633020631969">
<ele>445.8</ele>
<time>2024-05-07T14:01:12Z</time>
</trkpt>
<trkpt lat="49.12973016500473" lon="9.536285363137722">
<ele>445.8</ele>
<time>2024-05-07T14:01:13Z</time>
</trkpt>
<trkpt lat="49.12976453080773" lon="9.536245297640562">
<ele>446.2</ele>
<time>2024-05-07T14:01:14Z</time>
</trkpt>
<trkpt lat="49.129798812791705" lon="9.536201460286977">
<ele>446.4</ele>
<time>2024-05-07T14:01:15Z</time>
</trkpt>
<trkpt lat="49.12983317859471" lon="9.536163322627544">
<ele>446.6</ele>
<time>2024-05-07T14:01:16Z</time>
</trkpt>
<trkpt lat="49.12986754439771" lon="9.536123257130384">
<ele>446.8</ele>
<time>2024-05-07T14:01:17Z</time>
</trkpt>
<trkpt lat="49.12990182638168" lon="9.536080341786146">
<ele>447</ele>
<time>2024-05-07T14:01:18Z</time>
</trkpt>
<trkpt lat="49.129939964041114" lon="9.53603164292872">
<ele>447.2</ele>
<time>2024-05-07T14:01:19Z</time>
</trkpt>
<trkpt lat="49.12997432984412" lon="9.535978250205517">
<ele>447.4</ele>
<time>2024-05-07T14:01:20Z</time>
</trkpt>
<trkpt lat="49.129997212439775" lon="9.53593349084258">
<ele>447.4</ele>
<time>2024-05-07T14:01:21Z</time>
</trkpt>
<trkpt lat="49.13002395071089" lon="9.535880014300346">
<ele>447.6</ele>
<time>2024-05-07T14:01:22Z</time>
</trkpt>
<trkpt lat="49.13005446083844" lon="9.53583617694676">
<ele>447.8</ele>
<time>2024-05-07T14:01:23Z</time>
</trkpt>
<trkpt lat="49.13008874282241" lon="9.535779934376478">
<ele>448</ele>
<time>2024-05-07T14:01:24Z</time>
</trkpt>
<trkpt lat="49.13012310862541" lon="9.535717908293009">
<ele>448.2</ele>
<time>2024-05-07T14:01:25Z</time>
</trkpt>
<trkpt lat="49.1301497630775" lon="9.535663593560455">
<ele>448.4</ele>
<time>2024-05-07T14:01:26Z</time>
</trkpt>
<trkpt lat="49.130180357024074" lon="9.535605423152449">
<ele>448.6</ele>
<time>2024-05-07T14:01:27Z</time>
</trkpt>
<trkpt lat="49.13020701147616" lon="9.535548174753783">
<ele>448.6</ele>
<time>2024-05-07T14:01:28Z</time>
</trkpt>
<trkpt lat="49.13024137727916" lon="9.535494782030582">
<ele>448.8</ele>
<time>2024-05-07T14:01:29Z</time>
</trkpt>
<trkpt lat="49.13027188740671" lon="9.53544138930738">
<ele>448.8</ele>
<time>2024-05-07T14:01:30Z</time>
</trkpt>
<trkpt lat="49.130294770002365" lon="9.535387912765144">
<ele>449</ele>
<time>2024-05-07T14:01:31Z</time>
</trkpt>
<trkpt lat="49.13032142445445" lon="9.535331670194864">
<ele>449</ele>
<time>2024-05-07T14:01:32Z</time>
</trkpt>
<trkpt lat="49.130355790257454" lon="9.535271571949124">
<ele>449</ele>
<time>2024-05-07T14:01:33Z</time>
</trkpt>
<trkpt lat="49.13039392791688" lon="9.535206779837608">
<ele>449</ele>
<time>2024-05-07T14:01:34Z</time>
</trkpt>
<trkpt lat="49.130435921251774" lon="9.53514190390706">
<ele>449</ele>
<time>2024-05-07T14:01:35Z</time>
</trkpt>
<trkpt lat="49.1304740589112" lon="9.535077027976511">
<ele>449</ele>
<time>2024-05-07T14:01:36Z</time>
</trkpt>
<trkpt lat="49.130516052246094" lon="9.535010308027267">
<ele>449</ele>
<time>2024-05-07T14:01:37Z</time>
</trkpt>
<trkpt lat="49.130550334230065" lon="9.534936882555485">
<ele>448.8</ele>
<time>2024-05-07T14:01:38Z</time>
</trkpt>
<trkpt lat="49.130592327564955" lon="9.534870078787208">
<ele>448.6</ele>
<time>2024-05-07T14:01:39Z</time>
</trkpt>
<trkpt lat="49.13063809275627" lon="9.534796653315423">
<ele>448.6</ele>
<time>2024-05-07T14:01:40Z</time>
</trkpt>
<trkpt lat="49.1306762304157" lon="9.534716606140137">
<ele>448.4</ele>
<time>2024-05-07T14:01:41Z</time>
</trkpt>
<trkpt lat="49.130710596218705" lon="9.534633625298738">
<ele>448.2</ele>
<time>2024-05-07T14:01:42Z</time>
</trkpt>
<trkpt lat="49.13074110634625" lon="9.534543016925454">
<ele>448</ele>
<time>2024-05-07T14:01:43Z</time>
</trkpt>
<trkpt lat="49.130771616473794" lon="9.534444781020284">
<ele>447.8</ele>
<time>2024-05-07T14:01:44Z</time>
</trkpt>
<trkpt lat="49.13079827092588" lon="9.534337995573878">
<ele>447.6</ele>
<time>2024-05-07T14:01:45Z</time>
</trkpt>
<trkpt lat="49.13083640858531" lon="9.534238753840327">
<ele>447.4</ele>
<time>2024-05-07T14:01:46Z</time>
</trkpt>
<trkpt lat="49.130867002531886" lon="9.53413867391646">
<ele>447.2</ele>
<time>2024-05-07T14:01:47Z</time>
</trkpt>
<trkpt lat="49.13089751265943" lon="9.534041360020638">
<ele>447</ele>
<time>2024-05-07T14:01:48Z</time>
</trkpt>
<trkpt lat="49.1309317946434" lon="9.533943124115469">
<ele>446.6</ele>
<time>2024-05-07T14:01:49Z</time>
</trkpt>
<trkpt lat="49.130966160446405" lon="9.533844888210297">
<ele>446.4</ele>
<time>2024-05-07T14:01:50Z</time>
</trkpt>
<trkpt lat="49.13100044243038" lon="9.533751429989934">
<ele>446.2</ele>
<time>2024-05-07T14:01:51Z</time>
</trkpt>
<trkpt lat="49.13103866390884" lon="9.533653194084764">
<ele>445.8</ele>
<time>2024-05-07T14:01:52Z</time>
</trkpt>
<trkpt lat="49.13107294589281" lon="9.5335597358644">
<ele>445.4</ele>
<time>2024-05-07T14:01:53Z</time>
</trkpt>
<trkpt lat="49.131107311695814" lon="9.533466277644038">
<ele>445.2</ele>
<time>2024-05-07T14:01:54Z</time>
</trkpt>
<trkpt lat="49.131141593679786" lon="9.53336711972952">
<ele>444.8</ele>
<time>2024-05-07T14:01:55Z</time>
</trkpt>
<trkpt lat="49.13117595948279" lon="9.533263184130192">
<ele>444.6</ele>
<time>2024-05-07T14:01:56Z</time>
</trkpt>
<trkpt lat="49.13120646961033" lon="9.533158242702484">
<ele>444.4</ele>
<time>2024-05-07T14:01:57Z</time>
</trkpt>
<trkpt lat="49.13124083541334" lon="9.533058162778616">
<ele>444</ele>
<time>2024-05-07T14:01:58Z</time>
</trkpt>
<trkpt lat="49.13127511739731" lon="9.532963698729873">
<ele>443.8</ele>
<time>2024-05-07T14:01:59Z</time>
</trkpt>
<trkpt lat="49.13131325505674" lon="9.532877868041396">
<ele>443.6</ele>
<time>2024-05-07T14:02:00Z</time>
</trkpt>
<trkpt lat="49.131359020248055" lon="9.532808298245072">
<ele>443.4</ele>
<time>2024-05-07T14:02:01Z</time>
</trkpt>
<trkpt lat="49.13140864111483" lon="9.53275197185576">
<ele>443</ele>
<time>2024-05-07T14:02:02Z</time>
</trkpt>
<trkpt lat="49.13146588951349" lon="9.532699584960938">
<ele>442.8</ele>
<time>2024-05-07T14:02:03Z</time>
</trkpt>
<trkpt lat="49.13151542656123" lon="9.532651891931891">
<ele>442.6</ele>
<time>2024-05-07T14:02:04Z</time>
</trkpt>
<trkpt lat="49.1315726749599" lon="9.532611826434731">
<ele>442.4</ele>
<time>2024-05-07T14:02:05Z</time>
</trkpt>
<trkpt lat="49.1316260676831" lon="9.532571760937572">
<ele>442.2</ele>
<time>2024-05-07T14:02:06Z</time>
</trkpt>
<trkpt lat="49.13167568854987" lon="9.532531695440412">
<ele>442</ele>
<time>2024-05-07T14:02:07Z</time>
</trkpt>
<trkpt lat="49.13172145374119" lon="9.53249548561871">
<ele>441.8</ele>
<time>2024-05-07T14:02:08Z</time>
</trkpt>
<trkpt lat="49.13176721893251" lon="9.53245349228382">
<ele>441.8</ele>
<time>2024-05-07T14:02:09Z</time>
</trkpt>
<trkpt lat="49.131816839799285" lon="9.532402027398348">
<ele>441.6</ele>
<time>2024-05-07T14:02:10Z</time>
</trkpt>
<trkpt lat="49.13185874931514" lon="9.532351484522223">
<ele>441.6</ele>
<time>2024-05-07T14:02:11Z</time>
</trkpt>
<trkpt lat="49.13190459832549" lon="9.53229993581772">
<ele>441.4</ele>
<time>2024-05-07T14:02:12Z</time>
</trkpt>
<trkpt lat="49.13194650784135" lon="9.532246543094516">
<ele>441.4</ele>
<time>2024-05-07T14:02:13Z</time>
</trkpt>
<trkpt lat="49.13198087364435" lon="9.532190300524237">
<ele>441.4</ele>
<time>2024-05-07T14:02:14Z</time>
</trkpt>
<trkpt lat="49.132011383771896" lon="9.532126346603036">
<ele>441.4</ele>
<time>2024-05-07T14:02:15Z</time>
</trkpt>
<trkpt lat="49.13204189389944" lon="9.532058704644442">
<ele>441.4</ele>
<time>2024-05-07T14:02:16Z</time>
</trkpt>
<trkpt lat="49.13206863217056" lon="9.531986201182008">
<ele>441.4</ele>
<time>2024-05-07T14:02:17Z</time>
</trkpt>
<trkpt lat="49.13209528662264" lon="9.531914703547956">
<ele>441.4</ele>
<time>2024-05-07T14:02:18Z</time>
</trkpt>
<trkpt lat="49.1321181692183" lon="9.531840272247791">
<ele>441.4</ele>
<time>2024-05-07T14:02:19Z</time>
</trkpt>
<trkpt lat="49.13214105181396" lon="9.531760141253471">
<ele>441.2</ele>
<time>2024-05-07T14:02:20Z</time>
</trkpt>
<trkpt lat="49.13216016255319" lon="9.531678166240454">
<ele>441.2</ele>
<time>2024-05-07T14:02:21Z</time>
</trkpt>
<trkpt lat="49.13218304514885" lon="9.531595185399055">
<ele>441</ele>
<time>2024-05-07T14:02:22Z</time>
</trkpt>
<trkpt lat="49.13219830021262" lon="9.531513210386038">
<ele>440.8</ele>
<time>2024-05-07T14:02:23Z</time>
</trkpt>
<trkpt lat="49.132213555276394" lon="9.53143022954464">
<ele>440.8</ele>
<time>2024-05-07T14:02:24Z</time>
</trkpt>
<trkpt lat="49.13222495466471" lon="9.53135009855032">
<ele>440.6</ele>
<time>2024-05-07T14:02:25Z</time>
</trkpt>
<trkpt lat="49.13224029354751" lon="9.531269967556">
<ele>440.6</ele>
<time>2024-05-07T14:02:26Z</time>
</trkpt>
<trkpt lat="49.13225554861128" lon="9.53119369223714">
<ele>440.6</ele>
<time>2024-05-07T14:02:27Z</time>
</trkpt>
<trkpt lat="49.132270803675056" lon="9.531118338927628">
<ele>440.4</ele>
<time>2024-05-07T14:02:28Z</time>
</trkpt>
<trkpt lat="49.13228605873883" lon="9.531046841293572">
<ele>440.4</ele>
<time>2024-05-07T14:02:29Z</time>
</trkpt>
<trkpt lat="49.1323013138026" lon="9.530976265668867">
<ele>440.4</ele>
<time>2024-05-07T14:02:30Z</time>
</trkpt>
<trkpt lat="49.13231271319091" lon="9.530904768034816">
<ele>440.4</ele>
<time>2024-05-07T14:02:31Z</time>
</trkpt>
<trkpt lat="49.132327968254685" lon="9.53083704225719">
<ele>440.4</ele>
<time>2024-05-07T14:02:32Z</time>
</trkpt>
<trkpt lat="49.13233945146203" lon="9.530766466632484">
<ele>440.4</ele>
<time>2024-05-07T14:02:33Z</time>
</trkpt>
<trkpt lat="49.1323547065258" lon="9.5306948851794">
<ele>440.2</ele>
<time>2024-05-07T14:02:34Z</time>
</trkpt>
<trkpt lat="49.132369961589575" lon="9.530621459707618">
<ele>440.2</ele>
<time>2024-05-07T14:02:35Z</time>
</trkpt>
<trkpt lat="49.13238521665335" lon="9.530546106398106">
<ele>440.2</ele>
<time>2024-05-07T14:02:36Z</time>
</trkpt>
<trkpt lat="49.13239661604166" lon="9.530466981232166">
<ele>440.2</ele>
<time>2024-05-07T14:02:37Z</time>
</trkpt>
<trkpt lat="49.132411954924464" lon="9.530385006219149">
<ele>440.2</ele>
<time>2024-05-07T14:02:38Z</time>
</trkpt>
<trkpt lat="49.13242720998824" lon="9.530298169702291">
<ele>440</ele>
<time>2024-05-07T14:02:39Z</time>
</trkpt>
<trkpt lat="49.13244246505201" lon="9.530211417004466">
<ele>440</ele>
<time>2024-05-07T14:02:40Z</time>
</trkpt>
<trkpt lat="49.13245772011578" lon="9.53012365847826">
<ele>439.8</ele>
<time>2024-05-07T14:02:41Z</time>
</trkpt>
<trkpt lat="49.13247674703598" lon="9.530031122267246">
<ele>439.8</ele>
<time>2024-05-07T14:02:42Z</time>
</trkpt>
<trkpt lat="49.13249585777521" lon="9.529934814199803">
<ele>439.6</ele>
<time>2024-05-07T14:02:43Z</time>
</trkpt>
<trkpt lat="49.13251488469541" lon="9.529832806438208">
<ele>439.6</ele>
<time>2024-05-07T14:02:44Z</time>
</trkpt>
<trkpt lat="49.13253776729107" lon="9.529725015163422">
<ele>439.4</ele>
<time>2024-05-07T14:02:45Z</time>
</trkpt>
<trkpt lat="49.13255302235484" lon="9.529613452032208">
<ele>439.2</ele>
<time>2024-05-07T14:02:46Z</time>
</trkpt>
<trkpt lat="49.132564505562186" lon="9.529498033225536">
<ele>439</ele>
<time>2024-05-07T14:02:47Z</time>
</trkpt>
<trkpt lat="49.13257598876953" lon="9.529381692409515">
<ele>438.8</ele>
<time>2024-05-07T14:02:48Z</time>
</trkpt>
<trkpt lat="49.1325912438333" lon="9.529261579737067">
<ele>438.6</ele>
<time>2024-05-07T14:02:49Z</time>
</trkpt>
<trkpt lat="49.13260649889707" lon="9.529143311083317">
<ele>438.4</ele>
<time>2024-05-07T14:02:50Z</time>
</trkpt>
<trkpt lat="49.13262175396085" lon="9.529025042429566">
<ele>438.2</ele>
<time>2024-05-07T14:02:51Z</time>
</trkpt>
<trkpt lat="49.13263700902462" lon="9.528911551460624">
<ele>438</ele>
<time>2024-05-07T14:02:52Z</time>
</trkpt>
<trkpt lat="49.132663663476706" lon="9.528802838176489">
<ele>437.6</ele>
<time>2024-05-07T14:02:53Z</time>
</trkpt>
<trkpt lat="49.132701801136136" lon="9.52870175242424">
<ele>437.4</ele>
<time>2024-05-07T14:02:54Z</time>
</trkpt>
<trkpt lat="49.13273616693914" lon="9.528606366366148">
<ele>437.2</ele>
<time>2024-05-07T14:02:55Z</time>
</trkpt>
<trkpt lat="49.13277816027403" lon="9.528518607839942">
<ele>437</ele>
<time>2024-05-07T14:02:56Z</time>
</trkpt>
<trkpt lat="49.13283155299723" lon="9.528440404683352">
<ele>436.8</ele>
<time>2024-05-07T14:02:57Z</time>
</trkpt>
<trkpt lat="49.13288871757686" lon="9.528376534581184">
<ele>436.6</ele>
<time>2024-05-07T14:02:58Z</time>
</trkpt>
<trkpt lat="49.13294596597552" lon="9.528320292010903">
<ele>436.4</ele>
<time>2024-05-07T14:02:59Z</time>
</trkpt>
<trkpt lat="49.13300698623061" lon="9.528268743306398">
<ele>436.2</ele>
<time>2024-05-07T14:03:00Z</time>
</trkpt>
<trkpt lat="49.13307186216116" lon="9.528222056105731">
<ele>436</ele>
<time>2024-05-07T14:03:01Z</time>
</trkpt>
<trkpt lat="49.13312525488436" lon="9.528178134933114">
<ele>435.8</ele>
<time>2024-05-07T14:03:02Z</time>
</trkpt>
<trkpt lat="49.133182503283024" lon="9.528136225417256">
<ele>435.6</ele>
<time>2024-05-07T14:03:03Z</time>
</trkpt>
<trkpt lat="49.13323589600623" lon="9.528095237910748">
<ele>435.6</ele>
<time>2024-05-07T14:03:04Z</time>
</trkpt>
<trkpt lat="49.13328928872943" lon="9.528055172413588">
<ele>435.4</ele>
<time>2024-05-07T14:03:05Z</time>
</trkpt>
<trkpt lat="49.133338909596205" lon="9.528017034754155">
<ele>435.2</ele>
<time>2024-05-07T14:03:06Z</time>
</trkpt>
<trkpt lat="49.13338844664395" lon="9.527979819104075">
<ele>435.2</ele>
<time>2024-05-07T14:03:07Z</time>
</trkpt>
<trkpt lat="49.13343806751072" lon="9.527944531291723">
<ele>435.2</ele>
<time>2024-05-07T14:03:08Z</time>
</trkpt>
<trkpt lat="49.13348383270204" lon="9.52791016548872">
<ele>435.2</ele>
<time>2024-05-07T14:03:09Z</time>
</trkpt>
<trkpt lat="49.133533453568816" lon="9.52787303365767">
<ele>435.4</ele>
<time>2024-05-07T14:03:10Z</time>
</trkpt>
<trkpt lat="49.13358299061656" lon="9.527839589864016">
<ele>435.4</ele>
<time>2024-05-07T14:03:11Z</time>
</trkpt>
<trkpt lat="49.133632611483335" lon="9.527808157727122">
<ele>435.4</ele>
<time>2024-05-07T14:03:12Z</time>
</trkpt>
<trkpt lat="49.13368600420654" lon="9.5277747977525">
<ele>435.6</ele>
<time>2024-05-07T14:03:13Z</time>
</trkpt>
<trkpt lat="49.133735625073314" lon="9.527741353958843">
<ele>435.6</ele>
<time>2024-05-07T14:03:14Z</time>
</trkpt>
<trkpt lat="49.13378901779651" lon="9.527709921821952">
<ele>435.8</ele>
<time>2024-05-07T14:03:15Z</time>
</trkpt>
<trkpt lat="49.13384241051972" lon="9.527680333703756">
<ele>435.8</ele>
<time>2024-05-07T14:03:16Z</time>
</trkpt>
<trkpt lat="49.13389580324292" lon="9.527649823576212">
<ele>436</ele>
<time>2024-05-07T14:03:17Z</time>
</trkpt>
<trkpt lat="49.1339454241097" lon="9.527621241286395">
<ele>436</ele>
<time>2024-05-07T14:03:18Z</time>
</trkpt>
<trkpt lat="49.1339988168329" lon="9.527589725330472">
<ele>436</ele>
<time>2024-05-07T14:03:19Z</time>
</trkpt>
<trkpt lat="49.1340522095561" lon="9.527561143040655">
<ele>436</ele>
<time>2024-05-07T14:03:20Z</time>
</trkpt>
<trkpt lat="49.13410945795477" lon="9.527533482760193">
<ele>436.2</ele>
<time>2024-05-07T14:03:21Z</time>
</trkpt>
<trkpt lat="49.134166706353426" lon="9.527502050623298">
<ele>436.2</ele>
<time>2024-05-07T14:03:22Z</time>
</trkpt>
<trkpt lat="49.134223870933056" lon="9.527468606829643">
<ele>436.2</ele>
<time>2024-05-07T14:03:23Z</time>
</trkpt>
<trkpt lat="49.13428111933172" lon="9.527433319017293">
<ele>436.2</ele>
<time>2024-05-07T14:03:24Z</time>
</trkpt>
<trkpt lat="49.13433836773038" lon="9.527401886880398">
<ele>436.2</ele>
<time>2024-05-07T14:03:25Z</time>
</trkpt>
<trkpt lat="49.13439176045358" lon="9.527370370924473">
<ele>436.2</ele>
<time>2024-05-07T14:03:26Z</time>
</trkpt>
<trkpt lat="49.13445278070867" lon="9.527339860796928">
<ele>436.2</ele>
<time>2024-05-07T14:03:27Z</time>
</trkpt>
<trkpt lat="49.13450617343187" lon="9.527311278507112">
<ele>436</ele>
<time>2024-05-07T14:03:28Z</time>
</trkpt>
<trkpt lat="49.134563421830535" lon="9.527283618226647">
<ele>436</ele>
<time>2024-05-07T14:03:29Z</time>
</trkpt>
<trkpt lat="49.13461681455374" lon="9.527253108099105">
<ele>435.8</ele>
<time>2024-05-07T14:03:30Z</time>
</trkpt>
<trkpt lat="49.13466643542051" lon="9.527226369827986">
<ele>435.8</ele>
<time>2024-05-07T14:03:31Z</time>
</trkpt>
<trkpt lat="49.13471982814371" lon="9.52720164321363">
<ele>435.6</ele>
<time>2024-05-07T14:03:32Z</time>
</trkpt>
<trkpt lat="49.13476559333503" lon="9.527174904942513">
<ele>435.6</ele>
<time>2024-05-07T14:03:33Z</time>
</trkpt>
<trkpt lat="49.13481521420181" lon="9.527146322652698">
<ele>435.4</ele>
<time>2024-05-07T14:03:34Z</time>
</trkpt>
<trkpt lat="49.134860979393125" lon="9.52711958438158">
<ele>435.4</ele>
<time>2024-05-07T14:03:35Z</time>
</trkpt>
<trkpt lat="49.13491051644087" lon="9.527094773948193">
<ele>435.4</ele>
<time>2024-05-07T14:03:36Z</time>
</trkpt>
<trkpt lat="49.13496013730765" lon="9.527068119496109">
<ele>435.2</ele>
<time>2024-05-07T14:03:37Z</time>
</trkpt>
<trkpt lat="49.13500213064253" lon="9.527034759521484">
<ele>435</ele>
<time>2024-05-07T14:03:38Z</time>
</trkpt>
<trkpt lat="49.13505166769028" lon="9.526996538043022">
<ele>435</ele>
<time>2024-05-07T14:03:39Z</time>
</trkpt>
<trkpt lat="49.135097432881594" lon="9.526954628527164">
<ele>434.8</ele>
<time>2024-05-07T14:03:40Z</time>
</trkpt>
<trkpt lat="49.13514319807291" lon="9.526911713182926">
<ele>434.6</ele>
<time>2024-05-07T14:03:41Z</time>
</trkpt>
<trkpt lat="49.13518904708326" lon="9.526863098144531">
<ele>434.6</ele>
<time>2024-05-07T14:03:42Z</time>
</trkpt>
<trkpt lat="49.135234812274575" lon="9.526809621602297">
<ele>434.4</ele>
<time>2024-05-07T14:03:43Z</time>
</trkpt>
<trkpt lat="49.135272949934006" lon="9.526751451194286">
<ele>434.4</ele>
<time>2024-05-07T14:03:44Z</time>
</trkpt>
<trkpt lat="49.13530723191798" lon="9.526693280786276">
<ele>434.4</ele>
<time>2024-05-07T14:03:45Z</time>
</trkpt>
<trkpt lat="49.13534159772098" lon="9.526633182540536">
<ele>434.4</ele>
<time>2024-05-07T14:03:46Z</time>
</trkpt>
<trkpt lat="49.13537973538041" lon="9.526575012132524">
<ele>434.2</ele>
<time>2024-05-07T14:03:47Z</time>
</trkpt>
<trkpt lat="49.135410245507956" lon="9.52650829218328">
<ele>434</ele>
<time>2024-05-07T14:03:48Z</time>
</trkpt>
<trkpt lat="49.13543698377907" lon="9.526434866711496">
<ele>433.8</ele>
<time>2024-05-07T14:03:49Z</time>
</trkpt>
<trkpt lat="49.13546749390662" lon="9.526363369077444">
<ele>433.6</ele>
<time>2024-05-07T14:03:50Z</time>
</trkpt>
<trkpt lat="49.13549800403416" lon="9.526285165920854">
<ele>433.4</ele>
<time>2024-05-07T14:03:51Z</time>
</trkpt>
<trkpt lat="49.135528514161706" lon="9.526207884773612">
<ele>433.2</ele>
<time>2024-05-07T14:03:52Z</time>
</trkpt>
<trkpt lat="49.13555902428925" lon="9.526129681617022">
<ele>433</ele>
<time>2024-05-07T14:03:53Z</time>
</trkpt>
<trkpt lat="49.135593390092254" lon="9.52605625614524">
<ele>432.8</ele>
<time>2024-05-07T14:03:54Z</time>
</trkpt>
<trkpt lat="49.13563152775168" lon="9.525988530367613">
<ele>432.6</ele>
<time>2024-05-07T14:03:55Z</time>
</trkpt>
<trkpt lat="49.135669665411115" lon="9.525926588103175">
<ele>432.4</ele>
<time>2024-05-07T14:03:56Z</time>
</trkpt>
<trkpt lat="49.13571928627789" lon="9.525879817083478">
<ele>432.2</ele>
<time>2024-05-07T14:03:57Z</time>
</trkpt>
<trkpt lat="49.13577267900109" lon="9.525841679424047">
<ele>431.8</ele>
<time>2024-05-07T14:03:58Z</time>
</trkpt>
<trkpt lat="49.135826071724296" lon="9.525810163468122">
<ele>431.6</ele>
<time>2024-05-07T14:03:59Z</time>
</trkpt>
<trkpt lat="49.1358794644475" lon="9.52579683624208">
<ele>431.4</ele>
<time>2024-05-07T14:04:00Z</time>
</trkpt>
<trkpt lat="49.13593671284616" lon="9.525793064385653">
<ele>431.2</ele>
<time>2024-05-07T14:04:01Z</time>
</trkpt>
<trkpt lat="49.13599387742579" lon="9.525803541764615">
<ele>431</ele>
<time>2024-05-07T14:04:02Z</time>
</trkpt>
<trkpt lat="49.13605498149991" lon="9.525819718837738">
<ele>430.8</ele>
<time>2024-05-07T14:04:03Z</time>
</trkpt>
<trkpt lat="49.13611214607954" lon="9.525846457108855">
<ele>430.6</ele>
<time>2024-05-07T14:04:04Z</time>
</trkpt>
<trkpt lat="49.13616553880274" lon="9.525877889245749">
<ele>430.4</ele>
<time>2024-05-07T14:04:05Z</time>
</trkpt>
<trkpt lat="49.13621515966952" lon="9.5259131770581">
<ele>430.2</ele>
<time>2024-05-07T14:04:06Z</time>
</trkpt>
<trkpt lat="49.136264780536294" lon="9.525950392708182">
<ele>430.2</ele>
<time>2024-05-07T14:04:07Z</time>
</trkpt>
<trkpt lat="49.1363181732595" lon="9.525989452376962">
<ele>430</ele>
<time>2024-05-07T14:04:08Z</time>
</trkpt>
<trkpt lat="49.13636779412627" lon="9.52603622339666">
<ele>430</ele>
<time>2024-05-07T14:04:09Z</time>
</trkpt>
<trkpt lat="49.136421186849475" lon="9.526082910597324">
<ele>429.8</ele>
<time>2024-05-07T14:04:10Z</time>
</trkpt>
<trkpt lat="49.13647457957268" lon="9.52613638713956">
<ele>429.8</ele>
<time>2024-05-07T14:04:11Z</time>
</trkpt>
<trkpt lat="49.136520344763994" lon="9.526205034926534">
<ele>429.6</ele>
<time>2024-05-07T14:04:12Z</time>
</trkpt>
<trkpt lat="49.13656233809888" lon="9.526280388236046">
<ele>429.4</ele>
<time>2024-05-07T14:04:13Z</time>
</trkpt>
<trkpt lat="49.13660424761474" lon="9.526361441239716">
<ele>429.2</ele>
<time>2024-05-07T14:04:14Z</time>
</trkpt>
<trkpt lat="49.13664238527417" lon="9.526445344090462">
<ele>429</ele>
<time>2024-05-07T14:04:15Z</time>
</trkpt>
<trkpt lat="49.1366805229336" lon="9.526531174778938">
<ele>428.8</ele>
<time>2024-05-07T14:04:16Z</time>
</trkpt>
<trkpt lat="49.136714888736606" lon="9.526621783152224">
<ele>428.4</ele>
<time>2024-05-07T14:04:17Z</time>
</trkpt>
<trkpt lat="49.13675302639603" lon="9.526716163381934">
<ele>428.2</ele>
<time>2024-05-07T14:04:18Z</time>
</trkpt>
<trkpt lat="49.13679116405547" lon="9.526813477277756">
<ele>427.8</ele>
<time>2024-05-07T14:04:19Z</time>
</trkpt>
<trkpt lat="49.13682552985847" lon="9.526913641020656">
<ele>427.4</ele>
<time>2024-05-07T14:04:20Z</time>
</trkpt>
<trkpt lat="49.13685981184244" lon="9.527016570791602">
<ele>427</ele>
<time>2024-05-07T14:04:21Z</time>
</trkpt>
<trkpt lat="49.136898033320904" lon="9.527118662372231">
<ele>426.6</ele>
<time>2024-05-07T14:04:22Z</time>
</trkpt>
<trkpt lat="49.136936170980334" lon="9.527223519980907">
<ele>426</ele>
<time>2024-05-07T14:04:23Z</time>
</trkpt>
<trkpt lat="49.136974308639765" lon="9.527323683723807">
<ele>425.6</ele>
<time>2024-05-07T14:04:24Z</time>
</trkpt>
<trkpt lat="49.137012446299195" lon="9.527419991791248">
<ele>425</ele>
<time>2024-05-07T14:04:25Z</time>
</trkpt>
<trkpt lat="49.137054439634085" lon="9.52751537784934">
<ele>424.4</ele>
<time>2024-05-07T14:04:26Z</time>
</trkpt>
<trkpt lat="49.1371002048254" lon="9.52759835869074">
<ele>424</ele>
<time>2024-05-07T14:04:27Z</time>
</trkpt>
<trkpt lat="49.137149741873145" lon="9.527667006477714">
<ele>423.4</ele>
<time>2024-05-07T14:04:28Z</time>
</trkpt>
<trkpt lat="49.13720699027181" lon="9.527719477191567">
<ele>423</ele>
<time>2024-05-07T14:04:29Z</time>
</trkpt>
<trkpt lat="49.137268010526896" lon="9.52775476500392">
<ele>422.6</ele>
<time>2024-05-07T14:04:30Z</time>
</trkpt>
<trkpt lat="49.13733665831387" lon="9.527763314545156">
<ele>422</ele>
<time>2024-05-07T14:04:31Z</time>
</trkpt>
<trkpt lat="49.13740153424442" lon="9.527743281796576">
<ele>421.6</ele>
<time>2024-05-07T14:04:32Z</time>
</trkpt>
<trkpt lat="49.137466410174966" lon="9.527703216299416">
<ele>421.2</ele>
<time>2024-05-07T14:04:33Z</time>
</trkpt>
<trkpt lat="49.13751980289817" lon="9.52763649635017">
<ele>420.8</ele>
<time>2024-05-07T14:04:34Z</time>
</trkpt>
<trkpt lat="49.13756179623306" lon="9.527547815814614">
<ele>420.4</ele>
<time>2024-05-07T14:04:35Z</time>
</trkpt>
<trkpt lat="49.13759993389249" lon="9.527441952377558">
<ele>420</ele>
<time>2024-05-07T14:04:36Z</time>
</trkpt>
<trkpt lat="49.13762281648815" lon="9.527319828048348">
<ele>419.6</ele>
<time>2024-05-07T14:04:37Z</time>
</trkpt>
<trkpt lat="49.137641843408346" lon="9.52719870954752">
<ele>419.2</ele>
<time>2024-05-07T14:04:38Z</time>
</trkpt>
<trkpt lat="49.13765709847212" lon="9.527069963514805">
<ele>418.8</ele>
<time>2024-05-07T14:04:39Z</time>
</trkpt>
<trkpt lat="49.137664726004" lon="9.52694029547274">
<ele>418.4</ele>
<time>2024-05-07T14:04:40Z</time>
</trkpt>
<trkpt lat="49.13767998106778" lon="9.526813477277756">
<ele>418</ele>
<time>2024-05-07T14:04:41Z</time>
</trkpt>
<trkpt lat="49.13768760859966" lon="9.52668372541666">
<ele>417.4</ele>
<time>2024-05-07T14:04:42Z</time>
</trkpt>
<trkpt lat="49.13769146427512" lon="9.526554979383944">
<ele>417</ele>
<time>2024-05-07T14:04:43Z</time>
</trkpt>
<trkpt lat="49.13769909180701" lon="9.52642816118896">
<ele>416.4</ele>
<time>2024-05-07T14:04:44Z</time>
</trkpt>
<trkpt lat="49.137706719338894" lon="9.526301342993976">
<ele>415.8</ele>
<time>2024-05-07T14:04:45Z</time>
</trkpt>
<trkpt lat="49.13771811872721" lon="9.526173518970609">
<ele>415.2</ele>
<time>2024-05-07T14:04:46Z</time>
</trkpt>
<trkpt lat="49.137725830078125" lon="9.526046700775623">
<ele>414.6</ele>
<time>2024-05-07T14:04:47Z</time>
</trkpt>
<trkpt lat="49.13772960193455" lon="9.525919882580638">
<ele>414</ele>
<time>2024-05-07T14:04:48Z</time>
</trkpt>
<trkpt lat="49.13773722946644" lon="9.52579490840435">
<ele>413.4</ele>
<time>2024-05-07T14:04:49Z</time>
</trkpt>
<trkpt lat="49.13774485699832" lon="9.525671945884824">
<ele>412.8</ele>
<time>2024-05-07T14:04:50Z</time>
</trkpt>
<trkpt lat="49.13775634020567" lon="9.525547977536917">
<ele>412.2</ele>
<time>2024-05-07T14:04:51Z</time>
</trkpt>
<trkpt lat="49.137763967737556" lon="9.525428703054786">
<ele>411.6</ele>
<time>2024-05-07T14:04:52Z</time>
</trkpt>
<trkpt lat="49.13777159526944" lon="9.525313368067144">
<ele>410.8</ele>
<time>2024-05-07T14:04:53Z</time>
</trkpt>
<trkpt lat="49.137786850333214" lon="9.52520364895463">
<ele>410.2</ele>
<time>2024-05-07T14:04:54Z</time>
</trkpt>
<trkpt lat="49.137802105396986" lon="9.525094935670497">
<ele>409.6</ele>
<time>2024-05-07T14:04:55Z</time>
</trkpt>
<trkpt lat="49.13781736046076" lon="9.52499007806182">
<ele>409</ele>
<time>2024-05-07T14:04:56Z</time>
</trkpt>
<trkpt lat="49.13783638738096" lon="9.52488798648119">
<ele>408.4</ele>
<time>2024-05-07T14:04:57Z</time>
</trkpt>
<trkpt lat="49.137859269976616" lon="9.524783128872514">
<ele>407.8</ele>
<time>2024-05-07T14:04:58Z</time>
</trkpt>
<trkpt lat="49.13788978010416" lon="9.524676259607077">
<ele>407.2</ele>
<time>2024-05-07T14:04:59Z</time>
</trkpt>
<trkpt lat="49.137920374050736" lon="9.524579951539636">
<ele>406.6</ele>
<time>2024-05-07T14:05:00Z</time>
</trkpt>
<trkpt lat="49.13795851171017" lon="9.524486493319271">
<ele>406</ele>
<time>2024-05-07T14:05:01Z</time>
</trkpt>
<trkpt lat="49.1379966493696" lon="9.524399740621448">
<ele>405.4</ele>
<time>2024-05-07T14:05:02Z</time>
</trkpt>
<trkpt lat="49.138038558885455" lon="9.52431675978005">
<ele>404.8</ele>
<time>2024-05-07T14:05:03Z</time>
</trkpt>
<trkpt lat="49.138080552220345" lon="9.524232856929302">
<ele>404.4</ele>
<time>2024-05-07T14:05:04Z</time>
</trkpt>
<trkpt lat="49.138122545555234" lon="9.524147948250176">
<ele>403.8</ele>
<time>2024-05-07T14:05:05Z</time>
</trkpt>
<trkpt lat="49.13816445507109" lon="9.524068823084235">
<ele>403.2</ele>
<time>2024-05-07T14:05:06Z</time>
</trkpt>
<trkpt lat="49.13820644840598" lon="9.5239963196218">
<ele>402.8</ele>
<time>2024-05-07T14:05:07Z</time>
</trkpt>
<trkpt lat="49.1382522135973" lon="9.523921888321638">
<ele>402.2</ele>
<time>2024-05-07T14:05:08Z</time>
</trkpt>
<trkpt lat="49.13830183446407" lon="9.523843685165048">
<ele>401.8</ele>
<time>2024-05-07T14:05:09Z</time>
</trkpt>
<trkpt lat="49.13834759965539" lon="9.523768415674567">
<ele>401.4</ele>
<time>2024-05-07T14:05:10Z</time>
</trkpt>
<trkpt lat="49.138393364846706" lon="9.523696834221482">
<ele>401.2</ele>
<time>2024-05-07T14:05:11Z</time>
</trkpt>
<trkpt lat="49.13844675756991" lon="9.5236234087497">
<ele>401</ele>
<time>2024-05-07T14:05:12Z</time>
</trkpt>
<trkpt lat="49.138496378436685" lon="9.523552833124995">
<ele>400.6</ele>
<time>2024-05-07T14:05:13Z</time>
</trkpt>
<trkpt lat="49.13854591548443" lon="9.5234870351851">
<ele>400.4</ele>
<time>2024-05-07T14:05:14Z</time>
</trkpt>
<trkpt lat="49.13859939202666" lon="9.523423165082932">
<ele>400.2</ele>
<time>2024-05-07T14:05:15Z</time>
</trkpt>
<trkpt lat="49.13865655660629" lon="9.523360216990111">
<ele>400</ele>
<time>2024-05-07T14:05:16Z</time>
</trkpt>
<trkpt lat="49.138709949329495" lon="9.523298190906644">
<ele>399.8</ele>
<time>2024-05-07T14:05:17Z</time>
</trkpt>
<trkpt lat="49.13876342587173" lon="9.523240020498632">
<ele>399.8</ele>
<time>2024-05-07T14:05:18Z</time>
</trkpt>
<trkpt lat="49.13882059045136" lon="9.5231846999377">
<ele>399.6</ele>
<time>2024-05-07T14:05:19Z</time>
</trkpt>
<trkpt lat="49.13888161070645" lon="9.52313038520515">
<ele>399.6</ele>
<time>2024-05-07T14:05:20Z</time>
</trkpt>
<trkpt lat="49.13894271478057" lon="9.523079842329023">
<ele>399.6</ele>
<time>2024-05-07T14:05:21Z</time>
</trkpt>
<trkpt lat="49.1389998793602" lon="9.523036926984789">
<ele>399.6</ele>
<time>2024-05-07T14:05:22Z</time>
</trkpt>
<trkpt lat="49.13906475529075" lon="9.522996861487629">
<ele>399.4</ele>
<time>2024-05-07T14:05:23Z</time>
</trkpt>
<trkpt lat="49.139125775545835" lon="9.522959645837544">
<ele>399.4</ele>
<time>2024-05-07T14:05:24Z</time>
</trkpt>
<trkpt lat="49.13918679580093" lon="9.522926285862924">
<ele>399.2</ele>
<time>2024-05-07T14:05:25Z</time>
</trkpt>
<trkpt lat="49.13925167173147" lon="9.522896697744727">
<ele>399.2</ele>
<time>2024-05-07T14:05:26Z</time>
</trkpt>
<trkpt lat="49.13931269198656" lon="9.522870043292642">
<ele>399.2</ele>
<time>2024-05-07T14:05:27Z</time>
</trkpt>
<trkpt lat="49.13937756791711" lon="9.522845232859254">
<ele>399</ele>
<time>2024-05-07T14:05:28Z</time>
</trkpt>
<trkpt lat="49.1394385881722" lon="9.522823272272944">
<ele>399</ele>
<time>2024-05-07T14:05:29Z</time>
</trkpt>
<trkpt lat="49.139499608427286" lon="9.522800389677286">
<ele>399</ele>
<time>2024-05-07T14:05:30Z</time>
</trkpt>
<trkpt lat="49.139560628682375" lon="9.522780356928706">
<ele>399</ele>
<time>2024-05-07T14:05:31Z</time>
</trkpt>
<trkpt lat="49.139621732756495" lon="9.522758480161428">
<ele>399</ele>
<time>2024-05-07T14:05:32Z</time>
</trkpt>
<trkpt lat="49.139682753011584" lon="9.52273651957512">
<ele>399</ele>
<time>2024-05-07T14:05:33Z</time>
</trkpt>
<trkpt lat="49.13974377326667" lon="9.52271648682654">
<ele>399</ele>
<time>2024-05-07T14:05:34Z</time>
</trkpt>
<trkpt lat="49.13980479352176" lon="9.52269645407796">
<ele>399</ele>
<time>2024-05-07T14:05:35Z</time>
</trkpt>
<trkpt lat="49.13986204192042" lon="9.52267642132938">
<ele>399</ele>
<time>2024-05-07T14:05:36Z</time>
</trkpt>
<trkpt lat="49.13991920650005" lon="9.5226563885808">
<ele>399</ele>
<time>2024-05-07T14:05:37Z</time>
</trkpt>
<trkpt lat="49.13997268304229" lon="9.52263635583222">
<ele>399</ele>
<time>2024-05-07T14:05:38Z</time>
</trkpt>
<trkpt lat="49.14002607576549" lon="9.522618250921369">
<ele>399</ele>
<time>2024-05-07T14:05:39Z</time>
</trkpt>
<trkpt lat="49.14007184095681" lon="9.52259536832571">
<ele>399</ele>
<time>2024-05-07T14:05:40Z</time>
</trkpt>
<trkpt lat="49.14012137800455" lon="9.522568630054591">
<ele>399</ele>
<time>2024-05-07T14:05:41Z</time>
</trkpt>
<trkpt lat="49.140170998871326" lon="9.52253527007997">
<ele>399</ele>
<time>2024-05-07T14:05:42Z</time>
</trkpt>
<trkpt lat="49.14022439159453" lon="9.522506687790155">
<ele>398.8</ele>
<time>2024-05-07T14:05:43Z</time>
</trkpt>
<trkpt lat="49.14028163999319" lon="9.522470394149424">
<ele>398.8</ele>
<time>2024-05-07T14:05:44Z</time>
</trkpt>
<trkpt lat="49.14033503271639" lon="9.522431334480643">
<ele>398.6</ele>
<time>2024-05-07T14:05:45Z</time>
</trkpt>
<trkpt lat="49.140392281115055" lon="9.522384563460946">
<ele>398.6</ele>
<time>2024-05-07T14:05:46Z</time>
</trkpt>
<trkpt lat="49.140453301370144" lon="9.522331170737743">
<ele>398.4</ele>
<time>2024-05-07T14:05:47Z</time>
</trkpt>
<trkpt lat="49.14051432162523" lon="9.522276856005192">
<ele>398.4</ele>
<time>2024-05-07T14:05:48Z</time>
</trkpt>
<trkpt lat="49.14057534188032" lon="9.52221960760653">
<ele>398.2</ele>
<time>2024-05-07T14:05:49Z</time>
</trkpt>
<trkpt lat="49.14063636213541" lon="9.52215950936079">
<ele>398.2</ele>
<time>2024-05-07T14:05:50Z</time>
</trkpt>
<trkpt lat="49.14069361053407" lon="9.522093711420894">
<ele>398</ele>
<time>2024-05-07T14:05:51Z</time>
</trkpt>
<trkpt lat="49.140747003257275" lon="9.522027913480995">
<ele>397.8</ele>
<time>2024-05-07T14:05:52Z</time>
</trkpt>
<trkpt lat="49.14080802351236" lon="9.521958343684672">
<ele>397.6</ele>
<time>2024-05-07T14:05:53Z</time>
</trkpt>
<trkpt lat="49.140865271911025" lon="9.52188491821289">
<ele>397.4</ele>
<time>2024-05-07T14:05:54Z</time>
</trkpt>
<trkpt lat="49.14092252030969" lon="9.521808559074998">
<ele>397.2</ele>
<time>2024-05-07T14:05:55Z</time>
</trkpt>
<trkpt lat="49.14097968488932" lon="9.521735133603215">
<ele>396.8</ele>
<time>2024-05-07T14:05:56Z</time>
</trkpt>
<trkpt lat="49.14103693328798" lon="9.521657936275004">
<ele>396.6</ele>
<time>2024-05-07T14:05:57Z</time>
</trkpt>
<trkpt lat="49.14109795354307" lon="9.521579733118417">
<ele>396.4</ele>
<time>2024-05-07T14:05:58Z</time>
</trkpt>
<trkpt lat="49.14115520194173" lon="9.521496752277017">
<ele>396</ele>
<time>2024-05-07T14:05:59Z</time>
</trkpt>
<trkpt lat="49.14122007787227" lon="9.521413771435618">
<ele>395.8</ele>
<time>2024-05-07T14:06:00Z</time>
</trkpt>
<trkpt lat="49.141281098127365" lon="9.521327018737791">
<ele>395.4</ele>
<time>2024-05-07T14:06:01Z</time>
</trkpt>
<trkpt lat="49.14134597405791" lon="9.521240182220936">
<ele>395</ele>
<time>2024-05-07T14:06:02Z</time>
</trkpt>
<trkpt lat="49.141406994313" lon="9.521156279370189">
<ele>394.8</ele>
<time>2024-05-07T14:06:03Z</time>
</trkpt>
<trkpt lat="49.14146801456809" lon="9.52107137069106">
<ele>394.4</ele>
<time>2024-05-07T14:06:04Z</time>
</trkpt>
<trkpt lat="49.14152526296675" lon="9.520988389849665">
<ele>394</ele>
<time>2024-05-07T14:06:05Z</time>
</trkpt>
<trkpt lat="49.14158628322184" lon="9.520912114530802">
<ele>393.6</ele>
<time>2024-05-07T14:06:06Z</time>
</trkpt>
<trkpt lat="49.14164344780147" lon="9.520839611068368">
<ele>393.2</ele>
<time>2024-05-07T14:06:07Z</time>
</trkpt>
<trkpt lat="49.141693068668246" lon="9.520771969109774">
<ele>393</ele>
<time>2024-05-07T14:06:08Z</time>
</trkpt>
<trkpt lat="49.14174646139145" lon="9.520705165341496">
<ele>392.6</ele>
<time>2024-05-07T14:06:09Z</time>
</trkpt>
<trkpt lat="49.141796082258224" lon="9.520636517554522">
<ele>392.4</ele>
<time>2024-05-07T14:06:10Z</time>
</trkpt>
<trkpt lat="49.14184184744954" lon="9.520574491471052">
<ele>392.2</ele>
<time>2024-05-07T14:06:11Z</time>
</trkpt>
<trkpt lat="49.14189146831632" lon="9.520518248900771">
<ele>392</ele>
<time>2024-05-07T14:06:12Z</time>
</trkpt>
<trkpt lat="49.14194486103952" lon="9.520466784015298">
<ele>392</ele>
<time>2024-05-07T14:06:13Z</time>
</trkpt>
<trkpt lat="49.14199825376272" lon="9.520418085157871">
<ele>391.8</ele>
<time>2024-05-07T14:06:14Z</time>
</trkpt>
<trkpt lat="49.142051646485925" lon="9.520384725183249">
<ele>391.8</ele>
<time>2024-05-07T14:06:15Z</time>
</trkpt>
<trkpt lat="49.14210503920913" lon="9.52036284841597">
<ele>391.8</ele>
<time>2024-05-07T14:06:16Z</time>
</trkpt>
<trkpt lat="49.14216228760779" lon="9.52034373767674">
<ele>391.6</ele>
<time>2024-05-07T14:06:17Z</time>
</trkpt>
<trkpt lat="49.14221568033099" lon="9.520331332460046">
<ele>391.6</ele>
<time>2024-05-07T14:06:18Z</time>
</trkpt>
<trkpt lat="49.142269073054194" lon="9.520337032154202">
<ele>391.8</ele>
<time>2024-05-07T14:06:19Z</time>
</trkpt>
<trkpt lat="49.142326321452856" lon="9.520335188135505">
<ele>391.8</ele>
<time>2024-05-07T14:06:20Z</time>
</trkpt>
<trkpt lat="49.142387341707945" lon="9.520333260297775">
<ele>392</ele>
<time>2024-05-07T14:06:21Z</time>
</trkpt>
<trkpt lat="49.142448361963034" lon="9.520330410450695">
<ele>392</ele>
<time>2024-05-07T14:06:22Z</time>
</trkpt>
<trkpt lat="49.142505610361695" lon="9.520326554775238">
<ele>392.2</ele>
<time>2024-05-07T14:06:23Z</time>
</trkpt>
<trkpt lat="49.142566630616784" lon="9.520318005234005">
<ele>392.2</ele>
<time>2024-05-07T14:06:24Z</time>
</trkpt>
<trkpt lat="49.14263150654733" lon="9.520311299711466">
<ele>392.4</ele>
<time>2024-05-07T14:06:25Z</time>
</trkpt>
<trkpt lat="49.14269629865885" lon="9.52030174434185">
<ele>392.4</ele>
<time>2024-05-07T14:06:26Z</time>
</trkpt>
<trkpt lat="49.14275740273297" lon="9.52028464525938">
<ele>392.6</ele>
<time>2024-05-07T14:06:27Z</time>
</trkpt>
<trkpt lat="49.14281842298806" lon="9.520268384367228">
<ele>392.6</ele>
<time>2024-05-07T14:06:28Z</time>
</trkpt>
<trkpt lat="49.142879443243146" lon="9.520251201465726">
<ele>392.8</ele>
<time>2024-05-07T14:06:29Z</time>
</trkpt>
<trkpt lat="49.14293669164181" lon="9.520236952230334">
<ele>392.8</ele>
<time>2024-05-07T14:06:30Z</time>
</trkpt>
<trkpt lat="49.142997711896896" lon="9.520216919481754">
<ele>392.8</ele>
<time>2024-05-07T14:06:31Z</time>
</trkpt>
<trkpt lat="49.14305496029556" lon="9.520193031057715">
<ele>392.8</ele>
<time>2024-05-07T14:06:32Z</time>
</trkpt>
<trkpt lat="49.14310835301876" lon="9.52016637660563">
<ele>392.8</ele>
<time>2024-05-07T14:06:33Z</time>
</trkpt>
<trkpt lat="49.14316551759839" lon="9.520139638334513">
<ele>392.8</ele>
<time>2024-05-07T14:06:34Z</time>
</trkpt>
<trkpt lat="49.143218994140625" lon="9.520111978054048">
<ele>392.8</ele>
<time>2024-05-07T14:06:35Z</time>
</trkpt>
<trkpt lat="49.14327238686383" lon="9.520079540088773">
<ele>392.8</ele>
<time>2024-05-07T14:06:36Z</time>
</trkpt>
<trkpt lat="49.14332577958703" lon="9.520050035789607">
<ele>392.8</ele>
<time>2024-05-07T14:06:37Z</time>
</trkpt>
<trkpt lat="49.14337917231023" lon="9.520013742148876">
<ele>392.8</ele>
<time>2024-05-07T14:06:38Z</time>
</trkpt>
<trkpt lat="49.14343256503344" lon="9.519978454336524">
<ele>392.6</ele>
<time>2024-05-07T14:06:39Z</time>
</trkpt>
<trkpt lat="49.14348595775664" lon="9.519940316677094">
<ele>392.6</ele>
<time>2024-05-07T14:06:40Z</time>
</trkpt>
<trkpt lat="49.14353935047984" lon="9.519901257008314">
<ele>392.6</ele>
<time>2024-05-07T14:06:41Z</time>
</trkpt>
<trkpt lat="49.14358897134662" lon="9.519863119348884">
<ele>392.6</ele>
<time>2024-05-07T14:06:42Z</time>
</trkpt>
<trkpt lat="49.14364236406982" lon="9.519821126013994">
<ele>392.6</ele>
<time>2024-05-07T14:06:43Z</time>
</trkpt>
<trkpt lat="49.143691984936595" lon="9.519778210669756">
<ele>392.6</ele>
<time>2024-05-07T14:06:44Z</time>
</trkpt>
<trkpt lat="49.14374160580337" lon="9.519735295325518">
<ele>392.6</ele>
<time>2024-05-07T14:06:45Z</time>
</trkpt>
<trkpt lat="49.14379499852657" lon="9.519693301990628">
<ele>392.6</ele>
<time>2024-05-07T14:06:46Z</time>
</trkpt>
<trkpt lat="49.14384453557432" lon="9.51964946463704">
<ele>392.6</ele>
<time>2024-05-07T14:06:47Z</time>
</trkpt>
<trkpt lat="49.14389415644109" lon="9.519601771607997">
<ele>392.6</ele>
<time>2024-05-07T14:06:48Z</time>
</trkpt>
<trkpt lat="49.143947549164295" lon="9.519546451047065">
<ele>392.6</ele>
<time>2024-05-07T14:06:49Z</time>
</trkpt>
<trkpt lat="49.14400479756296" lon="9.519490208476782">
<ele>392.6</ele>
<time>2024-05-07T14:06:50Z</time>
</trkpt>
<trkpt lat="49.14405819028616" lon="9.519432038068771">
<ele>392.6</ele>
<time>2024-05-07T14:06:51Z</time>
</trkpt>
<trkpt lat="49.14411543868482" lon="9.519371939823031">
<ele>392.6</ele>
<time>2024-05-07T14:06:52Z</time>
</trkpt>
<trkpt lat="49.144168831408024" lon="9.51931376941502">
<ele>392.6</ele>
<time>2024-05-07T14:06:53Z</time>
</trkpt>
<trkpt lat="49.144225995987654" lon="9.519254676997662">
<ele>392.6</ele>
<time>2024-05-07T14:06:54Z</time>
</trkpt>
<trkpt lat="49.144283244386315" lon="9.519196506589653">
<ele>392.6</ele>
<time>2024-05-07T14:06:55Z</time>
</trkpt>
<trkpt lat="49.14433663710952" lon="9.51913833618164">
<ele>392.4</ele>
<time>2024-05-07T14:06:56Z</time>
</trkpt>
<trkpt lat="49.14439002983272" lon="9.519080081954598">
<ele>392.4</ele>
<time>2024-05-07T14:06:57Z</time>
</trkpt>
<trkpt lat="49.144443506374955" lon="9.51902006752789">
<ele>392.2</ele>
<time>2024-05-07T14:06:58Z</time>
</trkpt>
<trkpt lat="49.14449689909816" lon="9.51896189711988">
<ele>392</ele>
<time>2024-05-07T14:06:59Z</time>
</trkpt>
<trkpt lat="49.14455406367779" lon="9.51890372671187">
<ele>392</ele>
<time>2024-05-07T14:07:00Z</time>
</trkpt>
<trkpt lat="49.14461516775191" lon="9.518846478313208">
<ele>392</ele>
<time>2024-05-07T14:07:01Z</time>
</trkpt>
<trkpt lat="49.14466856047511" lon="9.518788307905195">
<ele>391.8</ele>
<time>2024-05-07T14:07:02Z</time>
</trkpt>
<trkpt lat="49.14472572505474" lon="9.518732987344263">
<ele>391.6</ele>
<time>2024-05-07T14:07:03Z</time>
</trkpt>
<trkpt lat="49.144779201596975" lon="9.518678588792682">
<ele>391.4</ele>
<time>2024-05-07T14:07:04Z</time>
</trkpt>
<trkpt lat="49.14483259432018" lon="9.518621424213052">
<ele>391.4</ele>
<time>2024-05-07T14:07:05Z</time>
</trkpt>
<trkpt lat="49.14488213136792" lon="9.518568031489847">
<ele>391.2</ele>
<time>2024-05-07T14:07:06Z</time>
</trkpt>
<trkpt lat="49.14493560791016" lon="9.518518410623074">
<ele>391</ele>
<time>2024-05-07T14:07:07Z</time>
</trkpt>
<trkpt lat="49.1449851449579" lon="9.51846786774695">
<ele>391</ele>
<time>2024-05-07T14:07:08Z</time>
</trkpt>
<trkpt lat="49.14503476582467" lon="9.518418246880174">
<ele>390.8</ele>
<time>2024-05-07T14:07:09Z</time>
</trkpt>
<trkpt lat="49.14508430287242" lon="9.518371559679508">
<ele>390.8</ele>
<time>2024-05-07T14:07:10Z</time>
</trkpt>
<trkpt lat="49.145137779414654" lon="9.51832864433527">
<ele>390.8</ele>
<time>2024-05-07T14:07:11Z</time>
</trkpt>
<trkpt lat="49.1451873164624" lon="9.518284723162653">
<ele>390.6</ele>
<time>2024-05-07T14:07:12Z</time>
</trkpt>
<trkpt lat="49.1452407091856" lon="9.518244741484525">
<ele>390.6</ele>
<time>2024-05-07T14:07:13Z</time>
</trkpt>
<trkpt lat="49.145290330052376" lon="9.51820844784379">
<ele>390.6</ele>
<time>2024-05-07T14:07:14Z</time>
</trkpt>
<trkpt lat="49.14534372277558" lon="9.518177015706897">
<ele>390.6</ele>
<time>2024-05-07T14:07:15Z</time>
</trkpt>
<trkpt lat="49.145393343642354" lon="9.51815027743578">
<ele>390.6</ele>
<time>2024-05-07T14:07:16Z</time>
</trkpt>
<trkpt lat="49.14544673636556" lon="9.518121695145965">
<ele>390.6</ele>
<time>2024-05-07T14:07:17Z</time>
</trkpt>
<trkpt lat="49.14550012908876" lon="9.518098812550306">
<ele>390.6</ele>
<time>2024-05-07T14:07:18Z</time>
</trkpt>
<trkpt lat="49.145549749955535" lon="9.518079701811075">
<ele>390.6</ele>
<time>2024-05-07T14:07:19Z</time>
</trkpt>
<trkpt lat="49.14560314267874" lon="9.518064446747305">
<ele>390.6</ele>
<time>2024-05-07T14:07:20Z</time>
</trkpt>
<trkpt lat="49.1456603910774" lon="9.518048269674182">
<ele>390.6</ele>
<time>2024-05-07T14:07:21Z</time>
</trkpt>
<trkpt lat="49.14572141133249" lon="9.518038714304566">
<ele>390.6</ele>
<time>2024-05-07T14:07:22Z</time>
</trkpt>
<trkpt lat="49.14577480405569" lon="9.518028236925602">
<ele>390.6</ele>
<time>2024-05-07T14:07:23Z</time>
</trkpt>
<trkpt lat="49.14583582431078" lon="9.518021531403065">
<ele>390.6</ele>
<time>2024-05-07T14:07:24Z</time>
</trkpt>
<trkpt lat="49.14589307270944" lon="9.518016753718255">
<ele>390.6</ele>
<time>2024-05-07T14:07:25Z</time>
</trkpt>
<trkpt lat="49.14595023728907" lon="9.518014825880527">
<ele>390.6</ele>
<time>2024-05-07T14:07:26Z</time>
</trkpt>
<trkpt lat="49.146003713831306" lon="9.51801298186183">
<ele>390.6</ele>
<time>2024-05-07T14:07:27Z</time>
</trkpt>
<trkpt lat="49.146064734086394" lon="9.518010132014751">
<ele>390.6</ele>
<time>2024-05-07T14:07:28Z</time>
</trkpt>
<trkpt lat="49.1461181268096" lon="9.518006276339293">
<ele>390.6</ele>
<time>2024-05-07T14:07:29Z</time>
</trkpt>
<trkpt lat="49.146179147064686" lon="9.518001498654485">
<ele>390.6</ele>
<time>2024-05-07T14:07:30Z</time>
</trkpt>
<trkpt lat="49.146240167319775" lon="9.51799294911325">
<ele>390.6</ele>
<time>2024-05-07T14:07:31Z</time>
</trkpt>
<trkpt lat="49.14629741571843" lon="9.517985321581364">
<ele>390.6</ele>
<time>2024-05-07T14:07:32Z</time>
</trkpt>
<trkpt lat="49.1463546641171" lon="9.517976688221095">
<ele>390.8</ele>
<time>2024-05-07T14:07:33Z</time>
</trkpt>
<trkpt lat="49.14641182869673" lon="9.517968138679862">
<ele>390.8</ele>
<time>2024-05-07T14:07:34Z</time>
</trkpt>
<trkpt lat="49.14647284895182" lon="9.517959589138629">
<ele>390.8</ele>
<time>2024-05-07T14:07:35Z</time>
</trkpt>
<trkpt lat="49.14653009735048" lon="9.517950033769011">
<ele>390.8</ele>
<time>2024-05-07T14:07:36Z</time>
</trkpt>
<trkpt lat="49.14659111760557" lon="9.517938550561666">
<ele>391</ele>
<time>2024-05-07T14:07:37Z</time>
</trkpt>
<trkpt lat="49.14664836600423" lon="9.517927151173351">
<ele>391</ele>
<time>2024-05-07T14:07:38Z</time>
</trkpt>
<trkpt lat="49.146713241934776" lon="9.51791374012828">
<ele>391.2</ele>
<time>2024-05-07T14:07:39Z</time>
</trkpt>
<trkpt lat="49.146770406514406" lon="9.517901418730617">
<ele>391.2</ele>
<time>2024-05-07T14:07:40Z</time>
</trkpt>
<trkpt lat="49.14683151058853" lon="9.517888007685542">
<ele>391.2</ele>
<time>2024-05-07T14:07:41Z</time>
</trkpt>
<trkpt lat="49.14688867516816" lon="9.51787183061242">
<ele>391.2</ele>
<time>2024-05-07T14:07:42Z</time>
</trkpt>
<trkpt lat="49.146949695423245" lon="9.51785464771092">
<ele>391</ele>
<time>2024-05-07T14:07:43Z</time>
</trkpt>
<trkpt lat="49.14700694382191" lon="9.517836542800069">
<ele>391</ele>
<time>2024-05-07T14:07:44Z</time>
</trkpt>
<trkpt lat="49.14706419222057" lon="9.517816510051489">
<ele>391</ele>
<time>2024-05-07T14:07:45Z</time>
</trkpt>
<trkpt lat="49.1471213568002" lon="9.51779454946518">
<ele>391</ele>
<time>2024-05-07T14:07:46Z</time>
</trkpt>
<trkpt lat="49.14717860519886" lon="9.51777359470725">
<ele>390.8</ele>
<time>2024-05-07T14:07:47Z</time>
</trkpt>
<trkpt lat="49.14723962545395" lon="9.517747862264514">
<ele>390.8</ele>
<time>2024-05-07T14:07:48Z</time>
</trkpt>
<trkpt lat="49.14729687385261" lon="9.517724979668856">
<ele>390.8</ele>
<time>2024-05-07T14:07:49Z</time>
</trkpt>
<trkpt lat="49.1473578941077" lon="9.517700169235468">
<ele>390.8</ele>
<time>2024-05-07T14:07:50Z</time>
</trkpt>
<trkpt lat="49.14741891436279" lon="9.51767150312662">
<ele>390.8</ele>
<time>2024-05-07T14:07:51Z</time>
</trkpt>
<trkpt lat="49.14747993461788" lon="9.517641998827456">
<ele>390.6</ele>
<time>2024-05-07T14:07:52Z</time>
</trkpt>
<trkpt lat="49.147544810548425" lon="9.51761333271861">
<ele>390.6</ele>
<time>2024-05-07T14:07:53Z</time>
</trkpt>
<trkpt lat="49.14760583080351" lon="9.517581900581716">
<ele>390.6</ele>
<time>2024-05-07T14:07:54Z</time>
</trkpt>
<trkpt lat="49.1476668510586" lon="9.517549462616444">
<ele>390.6</ele>
<time>2024-05-07T14:07:55Z</time>
</trkpt>
<trkpt lat="49.14772795513272" lon="9.517519874498248">
<ele>390.6</ele>
<time>2024-05-07T14:07:56Z</time>
</trkpt>
<trkpt lat="49.14778511971235" lon="9.517490370199084">
<ele>390.6</ele>
<time>2024-05-07T14:07:57Z</time>
</trkpt>
<trkpt lat="49.14784613996744" lon="9.51745986007154">
<ele>390.6</ele>
<time>2024-05-07T14:07:58Z</time>
</trkpt>
<trkpt lat="49.1479033883661" lon="9.517428344115617">
<ele>390.6</ele>
<time>2024-05-07T14:07:59Z</time>
</trkpt>
<trkpt lat="49.147956781089306" lon="9.517394984140992">
<ele>390.6</ele>
<time>2024-05-07T14:08:00Z</time>
</trkpt>
<trkpt lat="49.14800640195608" lon="9.517363468185067">
<ele>390.6</ele>
<time>2024-05-07T14:08:01Z</time>
</trkpt>
<trkpt lat="49.14805979467928" lon="9.517332036048174">
<ele>390.6</ele>
<time>2024-05-07T14:08:02Z</time>
</trkpt>
<trkpt lat="49.14811318740249" lon="9.51730345375836">
<ele>390.6</ele>
<time>2024-05-07T14:08:03Z</time>
</trkpt>
<trkpt lat="49.14816658012569" lon="9.517274787649512">
<ele>390.6</ele>
<time>2024-05-07T14:08:04Z</time>
</trkpt>
<trkpt lat="49.14822005666792" lon="9.517250061035156">
<ele>390.6</ele>
<time>2024-05-07T14:08:05Z</time>
</trkpt>
<trkpt lat="49.14827344939113" lon="9.51722332276404">
<ele>390.6</ele>
<time>2024-05-07T14:08:06Z</time>
</trkpt>
<trkpt lat="49.14832684211433" lon="9.517192812636496">
<ele>390.6</ele>
<time>2024-05-07T14:08:07Z</time>
</trkpt>
<trkpt lat="49.148376462981105" lon="9.51716037467122">
<ele>390.6</ele>
<time>2024-05-07T14:08:08Z</time>
</trkpt>
<trkpt lat="49.14842985570431" lon="9.517129864543676">
<ele>390.6</ele>
<time>2024-05-07T14:08:09Z</time>
</trkpt>
<trkpt lat="49.14848702028394" lon="9.51710312627256">
<ele>390.6</ele>
<time>2024-05-07T14:08:10Z</time>
</trkpt>
<trkpt lat="49.14854049682617" lon="9.517071694135666">
<ele>390.6</ele>
<time>2024-05-07T14:08:11Z</time>
</trkpt>
<trkpt lat="49.14859003387392" lon="9.51704017817974">
<ele>390.6</ele>
<time>2024-05-07T14:08:12Z</time>
</trkpt>
<trkpt lat="49.14864342659712" lon="9.517009668052197">
<ele>390.6</ele>
<time>2024-05-07T14:08:13Z</time>
</trkpt>
<trkpt lat="49.14870067499578" lon="9.516976308077574">
<ele>390.6</ele>
<time>2024-05-07T14:08:14Z</time>
</trkpt>
<trkpt lat="49.14875406771898" lon="9.516942948102953">
<ele>390.6</ele>
<time>2024-05-07T14:08:15Z</time>
</trkpt>
<trkpt lat="49.14880368858576" lon="9.516909588128328">
<ele>390.6</ele>
<time>2024-05-07T14:08:16Z</time>
</trkpt>
<trkpt lat="49.14885708130896" lon="9.516878072172403">
<ele>390.6</ele>
<time>2024-05-07T14:08:17Z</time>
</trkpt>
<trkpt lat="49.148906702175736" lon="9.51684471219778">
<ele>390.6</ele>
<time>2024-05-07T14:08:18Z</time>
</trkpt>
<trkpt lat="49.14896009489894" lon="9.516803724691272">
<ele>390.6</ele>
<time>2024-05-07T14:08:19Z</time>
</trkpt>
<trkpt lat="49.14900963194668" lon="9.516759803518651">
<ele>390.6</ele>
<time>2024-05-07T14:08:20Z</time>
</trkpt>
<trkpt lat="49.14905925281346" lon="9.516716888174416">
<ele>390.6</ele>
<time>2024-05-07T14:08:21Z</time>
</trkpt>
<trkpt lat="49.149108873680234" lon="9.51667020097375">
<ele>390.6</ele>
<time>2024-05-07T14:08:22Z</time>
</trkpt>
<trkpt lat="49.14915841072798" lon="9.516619658097625">
<ele>390.6</ele>
<time>2024-05-07T14:08:23Z</time>
</trkpt>
<trkpt lat="49.149204175919294" lon="9.51656810939312">
<ele>390.6</ele>
<time>2024-05-07T14:08:24Z</time>
</trkpt>
<trkpt lat="49.14925379678607" lon="9.516516644507648">
<ele>390.6</ele>
<time>2024-05-07T14:08:25Z</time>
</trkpt>
<trkpt lat="49.149303417652845" lon="9.516467023640873">
<ele>390.8</ele>
<time>2024-05-07T14:08:26Z</time>
</trkpt>
<trkpt lat="49.14935295470059" lon="9.516418408602476">
<ele>390.8</ele>
<time>2024-05-07T14:08:27Z</time>
</trkpt>
<trkpt lat="49.149406431242824" lon="9.51636979356408">
<ele>391</ele>
<time>2024-05-07T14:08:28Z</time>
</trkpt>
<trkpt lat="49.14945596829057" lon="9.516316400840878">
<ele>391</ele>
<time>2024-05-07T14:08:29Z</time>
</trkpt>
<trkpt lat="49.14950936101377" lon="9.51625630259514">
<ele>391</ele>
<time>2024-05-07T14:08:30Z</time>
</trkpt>
<trkpt lat="49.14956275373697" lon="9.516198132187128">
<ele>391</ele>
<time>2024-05-07T14:08:31Z</time>
</trkpt>
<trkpt lat="49.14961623027921" lon="9.516139961779118">
<ele>390.8</ele>
<time>2024-05-07T14:08:32Z</time>
</trkpt>
<trkpt lat="49.14966576732695" lon="9.516084641218184">
<ele>390.8</ele>
<time>2024-05-07T14:08:33Z</time>
</trkpt>
<trkpt lat="49.14972301572561" lon="9.516031248494984">
<ele>390.6</ele>
<time>2024-05-07T14:08:34Z</time>
</trkpt>
<trkpt lat="49.149776408448815" lon="9.5159768499434">
<ele>390.4</ele>
<time>2024-05-07T14:08:35Z</time>
</trkpt>
<trkpt lat="49.14982980117202" lon="9.515921529382467">
<ele>390.2</ele>
<time>2024-05-07T14:08:36Z</time>
</trkpt>
<trkpt lat="49.149879422038794" lon="9.515866208821537">
<ele>390.2</ele>
<time>2024-05-07T14:08:37Z</time>
</trkpt>
<trkpt lat="49.14992904290557" lon="9.515813821926711">
<ele>390</ele>
<time>2024-05-07T14:08:38Z</time>
</trkpt>
<trkpt lat="49.14997857995331" lon="9.515767050907016">
<ele>390</ele>
<time>2024-05-07T14:08:39Z</time>
</trkpt>
<trkpt lat="49.15002820082009" lon="9.5157212857157">
<ele>389.8</ele>
<time>2024-05-07T14:08:40Z</time>
</trkpt>
<trkpt lat="49.15008159354329" lon="9.515674514696002">
<ele>389.8</ele>
<time>2024-05-07T14:08:41Z</time>
</trkpt>
<trkpt lat="49.15013121441007" lon="9.515628749504684">
<ele>389.6</ele>
<time>2024-05-07T14:08:42Z</time>
</trkpt>
<trkpt lat="49.15018075145781" lon="9.515582984313369">
<ele>389.6</ele>
<time>2024-05-07T14:08:43Z</time>
</trkpt>
<trkpt lat="49.150230372324586" lon="9.515536297112703">
<ele>389.6</ele>
<time>2024-05-07T14:08:44Z</time>
</trkpt>
<trkpt lat="49.15027999319136" lon="9.515488604083655">
<ele>389.4</ele>
<time>2024-05-07T14:08:45Z</time>
</trkpt>
<trkpt lat="49.15033338591456" lon="9.51544183306396">
<ele>389.4</ele>
<time>2024-05-07T14:08:46Z</time>
</trkpt>
<trkpt lat="49.15038677863777" lon="9.515393218025563">
<ele>389.4</ele>
<time>2024-05-07T14:08:47Z</time>
</trkpt>
<trkpt lat="49.15044017136097" lon="9.51534359715879">
<ele>389.4</ele>
<time>2024-05-07T14:08:48Z</time>
</trkpt>
<trkpt lat="49.15049356408417" lon="9.515294982120396">
<ele>389.6</ele>
<time>2024-05-07T14:08:49Z</time>
</trkpt>
<trkpt lat="49.150546956807375" lon="9.51524536125362">
<ele>389.6</ele>
<time>2024-05-07T14:08:50Z</time>
</trkpt>
<trkpt lat="49.15060043334961" lon="9.515192974358795">
<ele>389.6</ele>
<time>2024-05-07T14:08:51Z</time>
</trkpt>
<trkpt lat="49.15065382607281" lon="9.515139497816564">
<ele>389.6</ele>
<time>2024-05-07T14:08:52Z</time>
</trkpt>
<trkpt lat="49.15071099065244" lon="9.515079483389854">
<ele>389.4</ele>
<time>2024-05-07T14:08:53Z</time>
</trkpt>
<trkpt lat="49.150764383375645" lon="9.515020307153463">
<ele>389.4</ele>
<time>2024-05-07T14:08:54Z</time>
</trkpt>
<trkpt lat="49.150821631774306" lon="9.514961214736104">
<ele>389.4</ele>
<time>2024-05-07T14:08:55Z</time>
</trkpt>
<trkpt lat="49.15087502449751" lon="9.514903044328094">
<ele>389.2</ele>
<time>2024-05-07T14:08:56Z</time>
</trkpt>
<trkpt lat="49.15093227289617" lon="9.514844873920085">
<ele>389.2</ele>
<time>2024-05-07T14:08:57Z</time>
</trkpt>
<trkpt lat="49.15098952129483" lon="9.51478854753077">
<ele>389</ele>
<time>2024-05-07T14:08:58Z</time>
</trkpt>
<trkpt lat="49.151042914018035" lon="9.51473037712276">
<ele>389</ele>
<time>2024-05-07T14:08:59Z</time>
</trkpt>
<trkpt lat="49.151100078597665" lon="9.5146712847054">
<ele>388.8</ele>
<time>2024-05-07T14:09:00Z</time>
</trkpt>
<trkpt lat="49.1511535551399" lon="9.51461311429739">
<ele>388.8</ele>
<time>2024-05-07T14:09:01Z</time>
</trkpt>
<trkpt lat="49.1512069478631" lon="9.51455301605165">
<ele>388.6</ele>
<time>2024-05-07T14:09:02Z</time>
</trkpt>
<trkpt lat="49.151260340586305" lon="9.51449484564364">
<ele>388.4</ele>
<time>2024-05-07T14:09:03Z</time>
</trkpt>
<trkpt lat="49.15131373330951" lon="9.5144347473979">
<ele>388.2</ele>
<time>2024-05-07T14:09:04Z</time>
</trkpt>
<trkpt lat="49.15136712603271" lon="9.51437657698989">
<ele>388.2</ele>
<time>2024-05-07T14:09:05Z</time>
</trkpt>
<trkpt lat="49.15142051875591" lon="9.51431840658188">
<ele>388</ele>
<time>2024-05-07T14:09:06Z</time>
</trkpt>
<trkpt lat="49.15147399529815" lon="9.51425830833614">
<ele>388</ele>
<time>2024-05-07T14:09:07Z</time>
</trkpt>
<trkpt lat="49.15152738802135" lon="9.51419829390943">
<ele>387.8</ele>
<time>2024-05-07T14:09:08Z</time>
</trkpt>
<trkpt lat="49.15158078074455" lon="9.51413626782596">
<ele>387.6</ele>
<time>2024-05-07T14:09:09Z</time>
</trkpt>
<trkpt lat="49.151634173467755" lon="9.514073319733145">
<ele>387.6</ele>
<time>2024-05-07T14:09:10Z</time>
</trkpt>
<trkpt lat="49.15168756619096" lon="9.514004671946168">
<ele>387.4</ele>
<time>2024-05-07T14:09:11Z</time>
</trkpt>
<trkpt lat="49.15173718705773" lon="9.513936946168542">
<ele>387.2</ele>
<time>2024-05-07T14:09:12Z</time>
</trkpt>
<trkpt lat="49.151790579780936" lon="9.513864442706108">
<ele>387</ele>
<time>2024-05-07T14:09:13Z</time>
</trkpt>
<trkpt lat="49.15184397250414" lon="9.513792945072057">
<ele>386.8</ele>
<time>2024-05-07T14:09:14Z</time>
</trkpt>
<trkpt lat="49.15189736522734" lon="9.513718597590923">
<ele>386.6</ele>
<time>2024-05-07T14:09:15Z</time>
</trkpt>
<trkpt lat="49.151950757950544" lon="9.513643244281411">
<ele>386.6</ele>
<time>2024-05-07T14:09:16Z</time>
</trkpt>
<trkpt lat="49.15200037881732" lon="9.51356696896255">
<ele>386.4</ele>
<time>2024-05-07T14:09:17Z</time>
</trkpt>
<trkpt lat="49.152049999684095" lon="9.51348683796823">
<ele>386.2</ele>
<time>2024-05-07T14:09:18Z</time>
</trkpt>
<trkpt lat="49.15209953673184" lon="9.51340670697391">
<ele>386</ele>
<time>2024-05-07T14:09:19Z</time>
</trkpt>
<trkpt lat="49.15214538574219" lon="9.513322804123163">
<ele>385.6</ele>
<time>2024-05-07T14:09:20Z</time>
</trkpt>
<trkpt lat="49.152191150933504" lon="9.513236973434688">
<ele>385.4</ele>
<time>2024-05-07T14:09:21Z</time>
</trkpt>
<trkpt lat="49.15223306044936" lon="9.513148292899132">
<ele>385.2</ele>
<time>2024-05-07T14:09:22Z</time>
</trkpt>
<trkpt lat="49.15227505378425" lon="9.513061456382276">
<ele>385.2</ele>
<time>2024-05-07T14:09:23Z</time>
</trkpt>
<trkpt lat="49.15231704711914" lon="9.51297470368445">
<ele>385</ele>
<time>2024-05-07T14:09:24Z</time>
</trkpt>
<trkpt lat="49.152358956635" lon="9.512885017320514">
<ele>384.8</ele>
<time>2024-05-07T14:09:25Z</time>
</trkpt>
<trkpt lat="49.15239709429443" lon="9.51279633678496">
<ele>384.8</ele>
<time>2024-05-07T14:09:26Z</time>
</trkpt>
<trkpt lat="49.15243908762932" lon="9.512708662077785">
<ele>384.6</ele>
<time>2024-05-07T14:09:27Z</time>
</trkpt>
<trkpt lat="49.152480997145176" lon="9.5126180537045">
<ele>384.4</ele>
<time>2024-05-07T14:09:28Z</time>
</trkpt>
<trkpt lat="49.15251921862364" lon="9.512524595484138">
<ele>384.2</ele>
<time>2024-05-07T14:09:29Z</time>
</trkpt>
<trkpt lat="49.152564983814955" lon="9.512432981282473">
<ele>384.2</ele>
<time>2024-05-07T14:09:30Z</time>
</trkpt>
<trkpt lat="49.152603121474385" lon="9.512343378737569">
<ele>384</ele>
<time>2024-05-07T14:09:31Z</time>
</trkpt>
<trkpt lat="49.15264503099024" lon="9.512251848354936">
<ele>384</ele>
<time>2024-05-07T14:09:32Z</time>
</trkpt>
<trkpt lat="49.15268702432513" lon="9.512158390134571">
<ele>383.8</ele>
<time>2024-05-07T14:09:33Z</time>
</trkpt>
<trkpt lat="49.15272901766002" lon="9.512060154229404">
<ele>383.6</ele>
<time>2024-05-07T14:09:34Z</time>
</trkpt>
<trkpt lat="49.15277478285134" lon="9.511968540027738">
<ele>383.4</ele>
<time>2024-05-07T14:09:35Z</time>
</trkpt>
<trkpt lat="49.152820548042655" lon="9.511877009645104">
<ele>383.2</ele>
<time>2024-05-07T14:09:36Z</time>
</trkpt>
<trkpt lat="49.15286631323397" lon="9.511781623587012">
<ele>383</ele>
<time>2024-05-07T14:09:37Z</time>
</trkpt>
<trkpt lat="49.15291593410075" lon="9.511683387681842">
<ele>382.8</ele>
<time>2024-05-07T14:09:38Z</time>
</trkpt>
<trkpt lat="49.152961699292064" lon="9.511585235595703">
<ele>382.6</ele>
<time>2024-05-07T14:09:39Z</time>
</trkpt>
<trkpt lat="49.15301132015884" lon="9.511486999690533">
<ele>382.4</ele>
<time>2024-05-07T14:09:40Z</time>
</trkpt>
<trkpt lat="49.15306085720658" lon="9.511388763785362">
<ele>382.2</ele>
<time>2024-05-07T14:09:41Z</time>
</trkpt>
<trkpt lat="49.15311047807336" lon="9.51129337772727">
<ele>382</ele>
<time>2024-05-07T14:09:42Z</time>
</trkpt>
<trkpt lat="49.1531600151211" lon="9.5111951418221">
<ele>381.8</ele>
<time>2024-05-07T14:09:43Z</time>
</trkpt>
<trkpt lat="49.15321349166334" lon="9.511103611439466">
<ele>381.4</ele>
<time>2024-05-07T14:09:44Z</time>
</trkpt>
<trkpt lat="49.15326302871108" lon="9.511008225381374">
<ele>381.2</ele>
<time>2024-05-07T14:09:45Z</time>
</trkpt>
<trkpt lat="49.153312649577856" lon="9.510912839323282">
<ele>381</ele>
<time>2024-05-07T14:09:46Z</time>
</trkpt>
<trkpt lat="49.15336227044463" lon="9.510813681408765">
<ele>380.8</ele>
<time>2024-05-07T14:09:47Z</time>
</trkpt>
<trkpt lat="49.153411807492375" lon="9.510715445503592">
<ele>380.4</ele>
<time>2024-05-07T14:09:48Z</time>
</trkpt>
<trkpt lat="49.15346142835915" lon="9.510613437741997">
<ele>380.2</ele>
<time>2024-05-07T14:09:49Z</time>
</trkpt>
<trkpt lat="49.153514821082354" lon="9.510517045855522">
<ele>379.8</ele>
<time>2024-05-07T14:09:50Z</time>
</trkpt>
<trkpt lat="49.15356444194913" lon="9.510416965931654">
<ele>379.4</ele>
<time>2024-05-07T14:09:51Z</time>
</trkpt>
<trkpt lat="49.153610207140446" lon="9.510316802188754">
<ele>379</ele>
<time>2024-05-07T14:09:52Z</time>
</trkpt>
<trkpt lat="49.15365974418819" lon="9.510219572111964">
<ele>378.8</ele>
<time>2024-05-07T14:09:53Z</time>
</trkpt>
<trkpt lat="49.153709365054965" lon="9.510120330378411">
<ele>378.4</ele>
<time>2024-05-07T14:09:54Z</time>
</trkpt>
<trkpt lat="49.15376275777817" lon="9.510016394779086">
<ele>378.2</ele>
<time>2024-05-07T14:09:55Z</time>
</trkpt>
<trkpt lat="49.15381615050137" lon="9.509915309026836">
<ele>378</ele>
<time>2024-05-07T14:09:56Z</time>
</trkpt>
<trkpt lat="49.153869627043605" lon="9.509806595742702">
<ele>377.6</ele>
<time>2024-05-07T14:09:57Z</time>
</trkpt>
<trkpt lat="49.15391916409135" lon="9.50969310477376">
<ele>377.2</ele>
<time>2024-05-07T14:09:58Z</time>
</trkpt>
<trkpt lat="49.15396878495813" lon="9.509583469480276">
<ele>377</ele>
<time>2024-05-07T14:09:59Z</time>
</trkpt>
<trkpt lat="49.15401069447398" lon="9.509469978511332">
<ele>376.6</ele>
<time>2024-05-07T14:10:00Z</time>
</trkpt>
<trkpt lat="49.15407557040453" lon="9.509367886930704">
<ele>376.2</ele>
<time>2024-05-07T14:10:01Z</time>
</trkpt>
<trkpt lat="49.15413281880319" lon="9.509246768429875">
<ele>375.6</ele>
<time>2024-05-07T14:10:02Z</time>
</trkpt>
<trkpt lat="49.15419383905828" lon="9.50911995023489">
<ele>375</ele>
<time>2024-05-07T14:10:03Z</time>
</trkpt>
<trkpt lat="49.15425871498883" lon="9.509003609418867">
<ele>374.6</ele>
<time>2024-05-07T14:10:04Z</time>
</trkpt>
<trkpt lat="49.154323507100344" lon="9.508881568908691">
<ele>374</ele>
<time>2024-05-07T14:10:05Z</time>
</trkpt>
<trkpt lat="49.15439601056278" lon="9.508761372417212">
<ele>373.6</ele>
<time>2024-05-07T14:10:06Z</time>
</trkpt>
<trkpt lat="49.15446851402521" lon="9.50866313651204">
<ele>373</ele>
<time>2024-05-07T14:10:07Z</time>
</trkpt>
<trkpt lat="49.15454093366861" lon="9.508535312488675">
<ele>372.4</ele>
<time>2024-05-07T14:10:08Z</time>
</trkpt>
<trkpt lat="49.15461343713105" lon="9.508419977501037">
<ele>371.8</ele>
<time>2024-05-07T14:10:09Z</time>
</trkpt>
<trkpt lat="49.15468971244991" lon="9.508317885920404">
<ele>371.2</ele>
<time>2024-05-07T14:10:10Z</time>
</trkpt>
<trkpt lat="49.15476984344423" lon="9.508216800168157">
<ele>370.4</ele>
<time>2024-05-07T14:10:11Z</time>
</trkpt>
<trkpt lat="49.154872857034206" lon="9.508110014721751">
<ele>369.8</ele>
<time>2024-05-07T14:10:12Z</time>
</trkpt>
<trkpt lat="49.15496438741684" lon="9.508023262023926">
<ele>369.2</ele>
<time>2024-05-07T14:10:13Z</time>
</trkpt>
<trkpt lat="49.15506362915039" lon="9.507886804640291">
<ele>368.8</ele>
<time>2024-05-07T14:10:14Z</time>
</trkpt>
<trkpt lat="49.15510176680982" lon="9.507862078025935">
<ele>368.4</ele>
<time>2024-05-07T14:10:15Z</time>
</trkpt>
<trkpt lat="49.15517418645322" lon="9.507781947031615">
<ele>367.8</ele>
<time>2024-05-07T14:10:16Z</time>
</trkpt>
<trkpt lat="49.15524291805923" lon="9.507704665884376">
<ele>367.4</ele>
<time>2024-05-07T14:10:17Z</time>
</trkpt>
<trkpt lat="49.15531533770263" lon="9.507624618709087">
<ele>367</ele>
<time>2024-05-07T14:10:18Z</time>
</trkpt>
<trkpt lat="49.15538398548961" lon="9.507548259571196">
<ele>366.8</ele>
<time>2024-05-07T14:10:19Z</time>
</trkpt>
<trkpt lat="49.15545648895204" lon="9.50747676193714">
<ele>366.4</ele>
<time>2024-05-07T14:10:20Z</time>
</trkpt>
<trkpt lat="49.15552136488259" lon="9.507414735853672">
<ele>366.2</ele>
<time>2024-05-07T14:10:21Z</time>
</trkpt>
<trkpt lat="49.155586240813136" lon="9.507365198805928">
<ele>366</ele>
<time>2024-05-07T14:10:22Z</time>
</trkpt>
<trkpt lat="49.15563577786088" lon="9.50734038837254">
<ele>366</ele>
<time>2024-05-07T14:10:23Z</time>
</trkpt>
<trkpt lat="49.15569302625954" lon="9.507305100560188">
<ele>366</ele>
<time>2024-05-07T14:10:24Z</time>
</trkpt>
<trkpt lat="49.155746418982744" lon="9.507269812747836">
<ele>366</ele>
<time>2024-05-07T14:10:25Z</time>
</trkpt>
<trkpt lat="49.15579981170595" lon="9.507227819412948">
<ele>366</ele>
<time>2024-05-07T14:10:26Z</time>
</trkpt>
<trkpt lat="49.15585706010461" lon="9.507186831906438">
<ele>366</ele>
<time>2024-05-07T14:10:27Z</time>
</trkpt>
<trkpt lat="49.1559180803597" lon="9.507146766409278">
<ele>366.2</ele>
<time>2024-05-07T14:10:28Z</time>
</trkpt>
<trkpt lat="49.15597532875836" lon="9.507108628749847">
<ele>366.4</ele>
<time>2024-05-07T14:10:29Z</time>
</trkpt>
<trkpt lat="49.15603634901345" lon="9.507069569081068">
<ele>366.4</ele>
<time>2024-05-07T14:10:30Z</time>
</trkpt>
<trkpt lat="49.15609359741211" lon="9.507028497755527">
<ele>366.4</ele>
<time>2024-05-07T14:10:31Z</time>
</trkpt>
<trkpt lat="49.156158389523625" lon="9.506991365924478">
<ele>366.6</ele>
<time>2024-05-07T14:10:32Z</time>
</trkpt>
<trkpt lat="49.156219409778714" lon="9.506951300427318">
<ele>366.6</ele>
<time>2024-05-07T14:10:33Z</time>
</trkpt>
<trkpt lat="49.15628428570926" lon="9.506911234930158">
<ele>366.6</ele>
<time>2024-05-07T14:10:34Z</time>
</trkpt>
<trkpt lat="49.15634530596435" lon="9.506870247423649">
<ele>366.6</ele>
<time>2024-05-07T14:10:35Z</time>
</trkpt>
<trkpt lat="49.1564101818949" lon="9.506830181926489">
<ele>366.6</ele>
<time>2024-05-07T14:10:36Z</time>
</trkpt>
<trkpt lat="49.15647120214999" lon="9.506790116429327">
<ele>366.6</ele>
<time>2024-05-07T14:10:37Z</time>
</trkpt>
<trkpt lat="49.15652845054865" lon="9.506746279075742">
<ele>366.6</ele>
<time>2024-05-07T14:10:38Z</time>
</trkpt>
<trkpt lat="49.15658947080374" lon="9.506701435893774">
<ele>366.6</ele>
<time>2024-05-07T14:10:39Z</time>
</trkpt>
<trkpt lat="49.156650491058826" lon="9.506656592711806">
<ele>366.6</ele>
<time>2024-05-07T14:10:40Z</time>
</trkpt>
<trkpt lat="49.15670388378203" lon="9.50661174952984">
<ele>366.6</ele>
<time>2024-05-07T14:10:41Z</time>
</trkpt>
<trkpt lat="49.15676113218069" lon="9.506566990166904">
<ele>366.6</ele>
<time>2024-05-07T14:10:42Z</time>
</trkpt>
<trkpt lat="49.15681452490389" lon="9.506520219147204">
<ele>366.4</ele>
<time>2024-05-07T14:10:43Z</time>
</trkpt>
<trkpt lat="49.15686414577067" lon="9.506475375965238">
<ele>366.4</ele>
<time>2024-05-07T14:10:44Z</time>
</trkpt>
<trkpt lat="49.15691753849387" lon="9.50643153861165">
<ele>366.2</ele>
<time>2024-05-07T14:10:45Z</time>
</trkpt>
<trkpt lat="49.15696715936065" lon="9.50638954527676">
<ele>366.2</ele>
<time>2024-05-07T14:10:46Z</time>
</trkpt>
<trkpt lat="49.15701669640839" lon="9.506344785913823">
<ele>366</ele>
<time>2024-05-07T14:10:47Z</time>
</trkpt>
<trkpt lat="49.15706246159971" lon="9.506301870569589">
<ele>366</ele>
<time>2024-05-07T14:10:48Z</time>
</trkpt>
<trkpt lat="49.15711208246648" lon="9.506259877234696">
<ele>365.8</ele>
<time>2024-05-07T14:10:49Z</time>
</trkpt>
<trkpt lat="49.15716170333326" lon="9.50621696189046">
<ele>365.6</ele>
<time>2024-05-07T14:10:50Z</time>
</trkpt>
<trkpt lat="49.157207468524575" lon="9.506171196699142">
<ele>365.4</ele>
<time>2024-05-07T14:10:51Z</time>
</trkpt>
<trkpt lat="49.15725700557232" lon="9.506128281354904">
<ele>365.4</ele>
<time>2024-05-07T14:10:52Z</time>
</trkpt>
<trkpt lat="49.157306626439095" lon="9.506083438172936">
<ele>365.4</ele>
<time>2024-05-07T14:10:53Z</time>
</trkpt>
<trkpt lat="49.15735624730587" lon="9.506032895296812">
<ele>365.4</ele>
<time>2024-05-07T14:10:54Z</time>
</trkpt>
<trkpt lat="49.157405784353614" lon="9.50598143041134">
<ele>365.4</ele>
<time>2024-05-07T14:10:55Z</time>
</trkpt>
<trkpt lat="49.15745540522039" lon="9.505933737382293">
<ele>365.4</ele>
<time>2024-05-07T14:10:56Z</time>
</trkpt>
<trkpt lat="49.15750879794359" lon="9.505887972190976">
<ele>365.4</ele>
<time>2024-05-07T14:10:57Z</time>
</trkpt>
<trkpt lat="49.157562190666795" lon="9.50584027916193">
<ele>365.4</ele>
<time>2024-05-07T14:10:58Z</time>
</trkpt>
<trkpt lat="49.15761181153357" lon="9.505788730457423">
<ele>365.2</ele>
<time>2024-05-07T14:10:59Z</time>
</trkpt>
<trkpt lat="49.15766905993223" lon="9.505735337734222">
<ele>365.2</ele>
<time>2024-05-07T14:11:00Z</time>
</trkpt>
<trkpt lat="49.15772622451186" lon="9.505678173154593">
<ele>365.2</ele>
<time>2024-05-07T14:11:01Z</time>
</trkpt>
<trkpt lat="49.15778347291052" lon="9.50562285259366">
<ele>365</ele>
<time>2024-05-07T14:11:02Z</time>
</trkpt>
<trkpt lat="49.157836865633726" lon="9.50556468218565">
<ele>365</ele>
<time>2024-05-07T14:11:03Z</time>
</trkpt>
<trkpt lat="49.15789411403239" lon="9.50550651177764">
<ele>365</ele>
<time>2024-05-07T14:11:04Z</time>
</trkpt>
<trkpt lat="49.15794750675559" lon="9.505448341369627">
<ele>365</ele>
<time>2024-05-07T14:11:05Z</time>
</trkpt>
<trkpt lat="49.15800089947879" lon="9.505392014980316">
<ele>364.8</ele>
<time>2024-05-07T14:11:06Z</time>
</trkpt>
<trkpt lat="49.158058147877455" lon="9.505332922562957">
<ele>364.8</ele>
<time>2024-05-07T14:11:07Z</time>
</trkpt>
<trkpt lat="49.15811154060066" lon="9.505276679992676">
<ele>364.6</ele>
<time>2024-05-07T14:11:08Z</time>
</trkpt>
<trkpt lat="49.15816493332386" lon="9.505214653909206">
<ele>364.6</ele>
<time>2024-05-07T14:11:09Z</time>
</trkpt>
<trkpt lat="49.15821455419064" lon="9.505151705816388">
<ele>364.4</ele>
<time>2024-05-07T14:11:10Z</time>
</trkpt>
<trkpt lat="49.15826031938195" lon="9.505084985867144">
<ele>364.2</ele>
<time>2024-05-07T14:11:11Z</time>
</trkpt>
<trkpt lat="49.15830608457327" lon="9.505018182098866">
<ele>364</ele>
<time>2024-05-07T14:11:12Z</time>
</trkpt>
<trkpt lat="49.158351849764585" lon="9.504953306168318">
<ele>364</ele>
<time>2024-05-07T14:11:13Z</time>
</trkpt>
<trkpt lat="49.158393843099475" lon="9.504884658381345">
<ele>363.8</ele>
<time>2024-05-07T14:11:14Z</time>
</trkpt>
<trkpt lat="49.15843575261533" lon="9.50481508858502">
<ele>363.6</ele>
<time>2024-05-07T14:11:15Z</time>
</trkpt>
<trkpt lat="49.15847774595022" lon="9.504745434969664">
<ele>363.6</ele>
<time>2024-05-07T14:11:16Z</time>
</trkpt>
<trkpt lat="49.15851588360965" lon="9.50467485934496">
<ele>363.4</ele>
<time>2024-05-07T14:11:17Z</time>
</trkpt>
<trkpt lat="49.15855402126908" lon="9.504605289548635">
<ele>363.2</ele>
<time>2024-05-07T14:11:18Z</time>
</trkpt>
<trkpt lat="49.158588387072086" lon="9.50453370809555">
<ele>363.2</ele>
<time>2024-05-07T14:11:19Z</time>
</trkpt>
<trkpt lat="49.15861889719963" lon="9.50445651076734">
<ele>363.2</ele>
<time>2024-05-07T14:11:20Z</time>
</trkpt>
<trkpt lat="49.158649407327175" lon="9.504383085295558">
<ele>363.2</ele>
<time>2024-05-07T14:11:21Z</time>
</trkpt>
<trkpt lat="49.15867991745472" lon="9.504311503842471">
<ele>363</ele>
<time>2024-05-07T14:11:22Z</time>
</trkpt>
<trkpt lat="49.158710427582264" lon="9.50423807837069">
<ele>363</ele>
<time>2024-05-07T14:11:23Z</time>
</trkpt>
<trkpt lat="49.15873716585338" lon="9.50416373088956">
<ele>363</ele>
<time>2024-05-07T14:11:24Z</time>
</trkpt>
<trkpt lat="49.15877144783735" lon="9.504091227427123">
<ele>363</ele>
<time>2024-05-07T14:11:25Z</time>
</trkpt>
<trkpt lat="49.15879818610847" lon="9.504018723964691">
<ele>363</ele>
<time>2024-05-07T14:11:26Z</time>
</trkpt>
<trkpt lat="49.158824840560555" lon="9.503945298492908">
<ele>363</ele>
<time>2024-05-07T14:11:27Z</time>
</trkpt>
<trkpt lat="49.15885920636356" lon="9.5038681011647">
<ele>363</ele>
<time>2024-05-07T14:11:28Z</time>
</trkpt>
<trkpt lat="49.1588897164911" lon="9.503800375387073">
<ele>363</ele>
<time>2024-05-07T14:11:29Z</time>
</trkpt>
<trkpt lat="49.15892022661865" lon="9.503731727600098">
<ele>363</ele>
<time>2024-05-07T14:11:30Z</time>
</trkpt>
<trkpt lat="49.15895459242165" lon="9.503662073984742">
<ele>363</ele>
<time>2024-05-07T14:11:31Z</time>
</trkpt>
<trkpt lat="49.15898887440562" lon="9.503591498360038">
<ele>363</ele>
<time>2024-05-07T14:11:32Z</time>
</trkpt>
<trkpt lat="49.159023240208626" lon="9.503522850573065">
<ele>363</ele>
<time>2024-05-07T14:11:33Z</time>
</trkpt>
<trkpt lat="49.159061377868056" lon="9.503453196957707">
<ele>363</ele>
<time>2024-05-07T14:11:34Z</time>
</trkpt>
<trkpt lat="49.15909951552749" lon="9.503384549170732">
<ele>363</ele>
<time>2024-05-07T14:11:35Z</time>
</trkpt>
<trkpt lat="49.15913765318692" lon="9.50331305153668">
<ele>363</ele>
<time>2024-05-07T14:11:36Z</time>
</trkpt>
<trkpt lat="49.15917964652181" lon="9.503241470083594">
<ele>363</ele>
<time>2024-05-07T14:11:37Z</time>
</trkpt>
<trkpt lat="49.15921778418124" lon="9.50317190028727">
<ele>363</ele>
<time>2024-05-07T14:11:38Z</time>
</trkpt>
<trkpt lat="49.15925977751613" lon="9.503100318834186">
<ele>363</ele>
<time>2024-05-07T14:11:39Z</time>
</trkpt>
<trkpt lat="49.15929791517556" lon="9.50303359888494">
<ele>363</ele>
<time>2024-05-07T14:11:40Z</time>
</trkpt>
<trkpt lat="49.15933605283499" lon="9.502966878935696">
<ele>362.8</ele>
<time>2024-05-07T14:11:41Z</time>
</trkpt>
<trkpt lat="49.15937419049442" lon="9.502900075167418">
<ele>362.8</ele>
<time>2024-05-07T14:11:42Z</time>
</trkpt>
<trkpt lat="49.15941618382931" lon="9.50283519923687">
<ele>362.6</ele>
<time>2024-05-07T14:11:43Z</time>
</trkpt>
<trkpt lat="49.159458093345165" lon="9.502768479287624">
<ele>362.6</ele>
<time>2024-05-07T14:11:44Z</time>
</trkpt>
<trkpt lat="49.15949245914817" lon="9.50269983150065">
<ele>362.6</ele>
<time>2024-05-07T14:11:45Z</time>
</trkpt>
<trkpt lat="49.1595305968076" lon="9.502626406028869">
<ele>362.4</ele>
<time>2024-05-07T14:11:46Z</time>
</trkpt>
<trkpt lat="49.15956873446703" lon="9.502554824575782">
<ele>362.4</ele>
<time>2024-05-07T14:11:47Z</time>
</trkpt>
<trkpt lat="49.15961072780192" lon="9.502488104626536">
<ele>362.4</ele>
<time>2024-05-07T14:11:48Z</time>
</trkpt>
<trkpt lat="49.15965649299323" lon="9.50242037884891">
<ele>362.2</ele>
<time>2024-05-07T14:11:49Z</time>
</trkpt>
<trkpt lat="49.159698486328125" lon="9.502346953377128">
<ele>362.2</ele>
<time>2024-05-07T14:11:50Z</time>
</trkpt>
<trkpt lat="49.159736623987556" lon="9.502275455743074">
<ele>362</ele>
<time>2024-05-07T14:11:51Z</time>
</trkpt>
<trkpt lat="49.15977853350341" lon="9.502198174595833">
<ele>361.8</ele>
<time>2024-05-07T14:11:52Z</time>
</trkpt>
<trkpt lat="49.15982429869473" lon="9.502118043601511">
<ele>361.8</ele>
<time>2024-05-07T14:11:53Z</time>
</trkpt>
<trkpt lat="49.15986629202962" lon="9.502035062760116">
<ele>361.6</ele>
<time>2024-05-07T14:11:54Z</time>
</trkpt>
<trkpt lat="49.15990828536451" lon="9.50195023790002">
<ele>361.4</ele>
<time>2024-05-07T14:11:55Z</time>
</trkpt>
<trkpt lat="49.159950194880366" lon="9.501863401383162">
<ele>361.2</ele>
<time>2024-05-07T14:11:56Z</time>
</trkpt>
<trkpt lat="49.15999596007168" lon="9.5017699431628">
<ele>361</ele>
<time>2024-05-07T14:11:57Z</time>
</trkpt>
<trkpt lat="49.16004180908203" lon="9.501674640923738">
<ele>360.6</ele>
<time>2024-05-07T14:11:58Z</time>
</trkpt>
<trkpt lat="49.16008371859789" lon="9.501578249037266">
<ele>360.4</ele>
<time>2024-05-07T14:11:59Z</time>
</trkpt>
<trkpt lat="49.16012185625732" lon="9.501482946798204">
<ele>360.2</ele>
<time>2024-05-07T14:12:00Z</time>
</trkpt>
<trkpt lat="49.16016384959221" lon="9.501384710893037">
<ele>359.8</ele>
<time>2024-05-07T14:12:01Z</time>
</trkpt>
<trkpt lat="49.16020575910807" lon="9.501286474987864">
<ele>359.4</ele>
<time>2024-05-07T14:12:02Z</time>
</trkpt>
<trkpt lat="49.16024775244296" lon="9.501190166920424">
<ele>359.2</ele>
<time>2024-05-07T14:12:03Z</time>
</trkpt>
<trkpt lat="49.160289745777845" lon="9.501091931015251">
<ele>358.8</ele>
<time>2024-05-07T14:12:04Z</time>
</trkpt>
<trkpt lat="49.1603316552937" lon="9.500993695110084">
<ele>358.4</ele>
<time>2024-05-07T14:12:05Z</time>
</trkpt>
<trkpt lat="49.160369792953134" lon="9.500893531367185">
<ele>358.2</ele>
<time>2024-05-07T14:12:06Z</time>
</trkpt>
<trkpt lat="49.1604080144316" lon="9.500791523605583">
<ele>357.8</ele>
<time>2024-05-07T14:12:07Z</time>
</trkpt>
<trkpt lat="49.16044229641557" lon="9.50068281032145">
<ele>357.6</ele>
<time>2024-05-07T14:12:08Z</time>
</trkpt>
<trkpt lat="49.16047666221857" lon="9.500571247190235">
<ele>357.2</ele>
<time>2024-05-07T14:12:09Z</time>
</trkpt>
<trkpt lat="49.160503316670656" lon="9.500458678230643">
<ele>357</ele>
<time>2024-05-07T14:12:10Z</time>
</trkpt>
<trkpt lat="49.16053005494177" lon="9.5003451872617">
<ele>356.6</ele>
<time>2024-05-07T14:12:11Z</time>
</trkpt>
<trkpt lat="49.160545310005546" lon="9.500231696292758">
<ele>356.2</ele>
<time>2024-05-07T14:12:12Z</time>
</trkpt>
<trkpt lat="49.16055293753743" lon="9.500115355476735">
<ele>355.8</ele>
<time>2024-05-07T14:12:13Z</time>
</trkpt>
<trkpt lat="49.160545310005546" lon="9.499995158985255">
<ele>355.4</ele>
<time>2024-05-07T14:12:14Z</time>
</trkpt>
<trkpt lat="49.160526199266315" lon="9.499876974150538">
<ele>355</ele>
<time>2024-05-07T14:12:15Z</time>
</trkpt>
<trkpt lat="49.16049568913877" lon="9.499766333028674">
<ele>354.4</ele>
<time>2024-05-07T14:12:16Z</time>
</trkpt>
<trkpt lat="49.16045377962291" lon="9.49965661391616">
<ele>354</ele>
<time>2024-05-07T14:12:17Z</time>
</trkpt>
<trkpt lat="49.16041178628802" lon="9.499549828469751">
<ele>353.4</ele>
<time>2024-05-07T14:12:18Z</time>
</trkpt>
<trkpt lat="49.160366021096706" lon="9.499442037194967">
<ele>352.8</ele>
<time>2024-05-07T14:12:19Z</time>
</trkpt>
<trkpt lat="49.16031640022993" lon="9.499335251748562">
<ele>352.2</ele>
<time>2024-05-07T14:12:20Z</time>
</trkpt>
<trkpt lat="49.16026686318219" lon="9.499230310320854">
<ele>351.8</ele>
<time>2024-05-07T14:12:21Z</time>
</trkpt>
<trkpt lat="49.16021724231541" lon="9.499123524874449">
<ele>351.2</ele>
<time>2024-05-07T14:12:22Z</time>
</trkpt>
<trkpt lat="49.160171477124095" lon="9.499014811590314">
<ele>350.8</ele>
<time>2024-05-07T14:12:23Z</time>
</trkpt>
<trkpt lat="49.160129483789206" lon="9.49890517629683">
<ele>350.2</ele>
<time>2024-05-07T14:12:24Z</time>
</trkpt>
<trkpt lat="49.16009897366166" lon="9.49878497980535">
<ele>349.6</ele>
<time>2024-05-07T14:12:25Z</time>
</trkpt>
<trkpt lat="49.16007994674146" lon="9.498662939295173">
<ele>349</ele>
<time>2024-05-07T14:12:26Z</time>
</trkpt>
<trkpt lat="49.16006846353412" lon="9.498537043109536">
<ele>348.4</ele>
<time>2024-05-07T14:12:27Z</time>
</trkpt>
<trkpt lat="49.16006846353412" lon="9.49841022491455">
<ele>347.8</ele>
<time>2024-05-07T14:12:28Z</time>
</trkpt>
<trkpt lat="49.16007994674146" lon="9.498285250738263">
<ele>347.2</ele>
<time>2024-05-07T14:12:29Z</time>
</trkpt>
<trkpt lat="49.16009897366166" lon="9.498165054246783">
<ele>346.4</ele>
<time>2024-05-07T14:12:30Z</time>
</trkpt>
<trkpt lat="49.160129483789206" lon="9.498049719259145">
<ele>345.8</ele>
<time>2024-05-07T14:12:31Z</time>
</trkpt>
<trkpt lat="49.16016384959221" lon="9.497941927984357">
<ele>345.4</ele>
<time>2024-05-07T14:12:32Z</time>
</trkpt>
<trkpt lat="49.160213470458984" lon="9.49783799238503">
<ele>344.8</ele>
<time>2024-05-07T14:12:33Z</time>
</trkpt>
<trkpt lat="49.16026300750673" lon="9.497746462002397">
<ele>344.2</ele>
<time>2024-05-07T14:12:34Z</time>
</trkpt>
<trkpt lat="49.16031640022993" lon="9.497668258845806">
<ele>343.6</ele>
<time>2024-05-07T14:12:35Z</time>
</trkpt>
<trkpt lat="49.16038127616048" lon="9.497605310752988">
<ele>343.2</ele>
<time>2024-05-07T14:12:36Z</time>
</trkpt>
<trkpt lat="49.160446152091026" lon="9.497548062354326">
<ele>342.6</ele>
<time>2024-05-07T14:12:37Z</time>
</trkpt>
<trkpt lat="49.160514799878" lon="9.49749844148755">
<ele>342</ele>
<time>2024-05-07T14:12:38Z</time>
</trkpt>
<trkpt lat="49.160583447664976" lon="9.497456531971691">
<ele>341.6</ele>
<time>2024-05-07T14:12:39Z</time>
</trkpt>
<trkpt lat="49.160644467920065" lon="9.49742317199707">
<ele>341</ele>
<time>2024-05-07T14:12:40Z</time>
</trkpt>
<trkpt lat="49.16070934385061" lon="9.49740121141076">
<ele>340.4</ele>
<time>2024-05-07T14:12:41Z</time>
</trkpt>
<trkpt lat="49.16077799163759" lon="9.497376400977371">
<ele>340</ele>
<time>2024-05-07T14:12:42Z</time>
</trkpt>
<trkpt lat="49.16085049510002" lon="9.497360223904252">
<ele>339.4</ele>
<time>2024-05-07T14:12:43Z</time>
</trkpt>
<trkpt lat="49.160922998562455" lon="9.497351590543984">
<ele>339</ele>
<time>2024-05-07T14:12:44Z</time>
</trkpt>
<trkpt lat="49.16099927388131" lon="9.497353518381717">
<ele>338.4</ele>
<time>2024-05-07T14:12:45Z</time>
</trkpt>
<trkpt lat="49.16107177734375" lon="9.497367851436138">
<ele>338</ele>
<time>2024-05-07T14:12:46Z</time>
</trkpt>
<trkpt lat="49.16115182451904" lon="9.497391656041144">
<ele>337.4</ele>
<time>2024-05-07T14:12:47Z</time>
</trkpt>
<trkpt lat="49.1612280998379" lon="9.49742317199707">
<ele>336.8</ele>
<time>2024-05-07T14:12:48Z</time>
</trkpt>
<trkpt lat="49.16130060330033" lon="9.497456531971691">
<ele>336.4</ele>
<time>2024-05-07T14:12:49Z</time>
</trkpt>
<trkpt lat="49.16137310676277" lon="9.497496597468851">
<ele>335.8</ele>
<time>2024-05-07T14:12:50Z</time>
</trkpt>
<trkpt lat="49.16144175454974" lon="9.497543284669518">
<ele>335.2</ele>
<time>2024-05-07T14:12:51Z</time>
</trkpt>
<trkpt lat="49.16151040233672" lon="9.497594833374023">
<ele>334.8</ele>
<time>2024-05-07T14:12:52Z</time>
</trkpt>
<trkpt lat="49.161575278267264" lon="9.497653003782034">
<ele>334.2</ele>
<time>2024-05-07T14:12:53Z</time>
</trkpt>
<trkpt lat="49.16164015419781" lon="9.4977168738842">
<ele>333.6</ele>
<time>2024-05-07T14:12:54Z</time>
</trkpt>
<trkpt lat="49.1617011744529" lon="9.4977998547256">
<ele>333.2</ele>
<time>2024-05-07T14:12:55Z</time>
</trkpt>
<trkpt lat="49.16175842285156" lon="9.497886607423425">
<ele>332.6</ele>
<time>2024-05-07T14:12:56Z</time>
</trkpt>
<trkpt lat="49.161811815574765" lon="9.497980065643787">
<ele>332</ele>
<time>2024-05-07T14:12:57Z</time>
</trkpt>
<trkpt lat="49.16186520829797" lon="9.498078301548958">
<ele>331.4</ele>
<time>2024-05-07T14:12:58Z</time>
</trkpt>
<trkpt lat="49.1619223728776" lon="9.4981746096164">
<ele>331</ele>
<time>2024-05-07T14:12:59Z</time>
</trkpt>
<trkpt lat="49.16197584941983" lon="9.498269995674493">
<ele>330.4</ele>
<time>2024-05-07T14:13:00Z</time>
</trkpt>
<trkpt lat="49.162029242143035" lon="9.498366303741932">
<ele>329.8</ele>
<time>2024-05-07T14:13:01Z</time>
</trkpt>
<trkpt lat="49.16207877919078" lon="9.498464539647102">
<ele>329.4</ele>
<time>2024-05-07T14:13:02Z</time>
</trkpt>
<trkpt lat="49.16213225573301" lon="9.498563697561622">
<ele>329</ele>
<time>2024-05-07T14:13:03Z</time>
</trkpt>
<trkpt lat="49.16218179278076" lon="9.498660005629064">
<ele>328.6</ele>
<time>2024-05-07T14:13:04Z</time>
</trkpt>
<trkpt lat="49.16223518550396" lon="9.498756397515535">
<ele>328</ele>
<time>2024-05-07T14:13:05Z</time>
</trkpt>
<trkpt lat="49.162288662046194" lon="9.498854633420706">
<ele>327.6</ele>
<time>2024-05-07T14:13:06Z</time>
</trkpt>
<trkpt lat="49.162345826625824" lon="9.498954713344574">
<ele>327.2</ele>
<time>2024-05-07T14:13:07Z</time>
</trkpt>
<trkpt lat="49.162403075024486" lon="9.499052949249744">
<ele>326.8</ele>
<time>2024-05-07T14:13:08Z</time>
</trkpt>
<trkpt lat="49.162464095279574" lon="9.499150263145566">
<ele>326.2</ele>
<time>2024-05-07T14:13:09Z</time>
</trkpt>
<trkpt lat="49.16253274306655" lon="9.4992417935282">
<ele>325.6</ele>
<time>2024-05-07T14:13:10Z</time>
</trkpt>
<trkpt lat="49.16260524652898" lon="9.499328546226025">
<ele>325.2</ele>
<time>2024-05-07T14:13:11Z</time>
</trkpt>
<trkpt lat="49.16267774999142" lon="9.499409599229692">
<ele>324.6</ele>
<time>2024-05-07T14:13:12Z</time>
</trkpt>
<trkpt lat="49.16275016963482" lon="9.499500207602978">
<ele>324</ele>
<time>2024-05-07T14:13:13Z</time>
</trkpt>
<trkpt lat="49.16282267309725" lon="9.499567011371257">
<ele>323.4</ele>
<time>2024-05-07T14:13:14Z</time>
</trkpt>
<trkpt lat="49.16290280409157" lon="9.499627109616997">
<ele>323</ele>
<time>2024-05-07T14:13:15Z</time>
</trkpt>
<trkpt lat="49.16298293508589" lon="9.499692907556891">
<ele>322.4</ele>
<time>2024-05-07T14:13:16Z</time>
</trkpt>
<trkpt lat="49.16306683793664" lon="9.499738672748208">
<ele>321.8</ele>
<time>2024-05-07T14:13:17Z</time>
</trkpt>
<trkpt lat="49.163154596462846" lon="9.499778738245368">
<ele>321.2</ele>
<time>2024-05-07T14:13:18Z</time>
</trkpt>
<trkpt lat="49.16324227117002" lon="9.49981017038226">
<ele>320.8</ele>
<time>2024-05-07T14:13:19Z</time>
</trkpt>
<trkpt lat="49.163330029696226" lon="9.49983020313084">
<ele>320.2</ele>
<time>2024-05-07T14:13:20Z</time>
</trkpt>
<trkpt lat="49.16341393254697" lon="9.499841686338186">
<ele>319.4</ele>
<time>2024-05-07T14:13:21Z</time>
</trkpt>
<trkpt lat="49.16350169107318" lon="9.499855013564227">
<ele>318.8</ele>
<time>2024-05-07T14:13:22Z</time>
</trkpt>
<trkpt lat="49.163589449599385" lon="9.499868340790272">
<ele>318.2</ele>
<time>2024-05-07T14:13:23Z</time>
</trkpt>
<trkpt lat="49.16367720812559" lon="9.499884601682425">
<ele>317.6</ele>
<time>2024-05-07T14:13:24Z</time>
</trkpt>
<trkpt lat="49.163764882832766" lon="9.499908406287432">
<ele>316.8</ele>
<time>2024-05-07T14:13:25Z</time>
</trkpt>
<trkpt lat="49.16385649703443" lon="9.499941766262054">
<ele>316.4</ele>
<time>2024-05-07T14:13:26Z</time>
</trkpt>
<trkpt lat="49.16394039988518" lon="9.499984681606293">
<ele>315.6</ele>
<time>2024-05-07T14:13:27Z</time>
</trkpt>
<trkpt lat="49.1640205308795" lon="9.500033296644688">
<ele>315</ele>
<time>2024-05-07T14:13:28Z</time>
</trkpt>
<trkpt lat="49.164100578054786" lon="9.500089623034">
<ele>314.6</ele>
<time>2024-05-07T14:13:29Z</time>
</trkpt>
<trkpt lat="49.16417308151722" lon="9.500142093747854">
<ele>314</ele>
<time>2024-05-07T14:13:30Z</time>
</trkpt>
<trkpt lat="49.16423795744777" lon="9.500200264155865">
<ele>313.4</ele>
<time>2024-05-07T14:13:31Z</time>
</trkpt>
<trkpt lat="49.16430274955928" lon="9.500254578888416">
<ele>312.8</ele>
<time>2024-05-07T14:13:32Z</time>
</trkpt>
<trkpt lat="49.16437148116529" lon="9.500303193926811">
<ele>312.2</ele>
<time>2024-05-07T14:13:33Z</time>
</trkpt>
<trkpt lat="49.16444390080869" lon="9.500341415405272">
<ele>311.6</ele>
<time>2024-05-07T14:13:34Z</time>
</trkpt>
<trkpt lat="49.16452403180301" lon="9.500358514487743">
<ele>311</ele>
<time>2024-05-07T14:13:35Z</time>
</trkpt>
<trkpt lat="49.16460416279733" lon="9.500349964946508">
<ele>310.4</ele>
<time>2024-05-07T14:13:36Z</time>
</trkpt>
<trkpt lat="49.164676666259766" lon="9.500320376828313">
<ele>309.8</ele>
<time>2024-05-07T14:13:37Z</time>
</trkpt>
<trkpt lat="49.16474145837128" lon="9.50026790611446">
<ele>309.2</ele>
<time>2024-05-07T14:13:38Z</time>
</trkpt>
<trkpt lat="49.16480633430183" lon="9.500183081254365">
<ele>308.6</ele>
<time>2024-05-07T14:13:39Z</time>
</trkpt>
<trkpt lat="49.164855955168605" lon="9.500081995502114">
<ele>308</ele>
<time>2024-05-07T14:13:40Z</time>
</trkpt>
<trkpt lat="49.16488646529615" lon="9.499963726848364">
<ele>307.4</ele>
<time>2024-05-07T14:13:41Z</time>
</trkpt>
<trkpt lat="49.16490172035992" lon="9.499836908653378">
<ele>306.8</ele>
<time>2024-05-07T14:13:42Z</time>
</trkpt>
<trkpt lat="49.16489786468446" lon="9.499705312773584">
<ele>306.2</ele>
<time>2024-05-07T14:13:43Z</time>
</trkpt>
<trkpt lat="49.16487121023238" lon="9.49957656674087">
<ele>305.6</ele>
<time>2024-05-07T14:13:44Z</time>
</trkpt>
<trkpt lat="49.16482536122203" lon="9.499455448240042">
<ele>305</ele>
<time>2024-05-07T14:13:45Z</time>
</trkpt>
<trkpt lat="49.1647681966424" lon="9.49931999668479">
<ele>304.6</ele>
<time>2024-05-07T14:13:46Z</time>
</trkpt>
<trkpt lat="49.164695693179965" lon="9.499211283400657">
<ele>304</ele>
<time>2024-05-07T14:13:47Z</time>
</trkpt>
<trkpt lat="49.1646384447813" lon="9.499111119657757">
<ele>303.4</ele>
<time>2024-05-07T14:13:48Z</time>
</trkpt>
<trkpt lat="49.16457365266979" lon="9.49902629479766">
<ele>303</ele>
<time>2024-05-07T14:13:49Z</time>
</trkpt>
<trkpt lat="49.164516404271126" lon="9.498933758586643">
<ele>302.4</ele>
<time>2024-05-07T14:13:50Z</time>
</trkpt>
<trkpt lat="49.16446301154792" lon="9.498831667006016">
<ele>301.8</ele>
<time>2024-05-07T14:13:51Z</time>
</trkpt>
<trkpt lat="49.16442487388849" lon="9.498716332018375">
<ele>301.2</ele>
<time>2024-05-07T14:13:52Z</time>
</trkpt>
<trkpt lat="49.164398135617375" lon="9.498595213517548">
<ele>300.6</ele>
<time>2024-05-07T14:13:53Z</time>
</trkpt>
<trkpt lat="49.164379108697176" lon="9.498476944863796">
<ele>300</ele>
<time>2024-05-07T14:13:54Z</time>
</trkpt>
<trkpt lat="49.16437525302172" lon="9.49835490435362">
<ele>299.4</ele>
<time>2024-05-07T14:13:55Z</time>
</trkpt>
<trkpt lat="49.16439050808549" lon="9.49823378585279">
<ele>298.8</ele>
<time>2024-05-07T14:13:56Z</time>
</trkpt>
<trkpt lat="49.16441724635661" lon="9.498118367046118">
<ele>298.2</ele>
<time>2024-05-07T14:13:57Z</time>
</trkpt>
<trkpt lat="49.164459155872464" lon="9.498009653761985">
<ele>297.8</ele>
<time>2024-05-07T14:13:58Z</time>
</trkpt>
<trkpt lat="49.16450877673924" lon="9.49791518971324">
<ele>297.2</ele>
<time>2024-05-07T14:13:59Z</time>
</trkpt>
<trkpt lat="49.16456979699433" lon="9.49783698655665">
<ele>296.6</ele>
<time>2024-05-07T14:14:00Z</time>
</trkpt>
<trkpt lat="49.1646384447813" lon="9.497773116454482">
<ele>296</ele>
<time>2024-05-07T14:14:01Z</time>
</trkpt>
<trkpt lat="49.16471094824374" lon="9.497728273272514">
<ele>295.4</ele>
<time>2024-05-07T14:14:02Z</time>
</trkpt>
<trkpt lat="49.16478345170617" lon="9.497703546658158">
<ele>294.8</ele>
<time>2024-05-07T14:14:03Z</time>
</trkpt>
<trkpt lat="49.16486735455692" lon="9.497706396505237">
<ele>294</ele>
<time>2024-05-07T14:14:04Z</time>
</trkpt>
<trkpt lat="49.16495888493955" lon="9.497731206938624">
<ele>293.4</ele>
<time>2024-05-07T14:14:05Z</time>
</trkpt>
<trkpt lat="49.16504664346576" lon="9.497764566913249">
<ele>292.8</ele>
<time>2024-05-07T14:14:06Z</time>
</trkpt>
<trkpt lat="49.165130546316504" lon="9.497803626582026">
<ele>292</ele>
<time>2024-05-07T14:14:07Z</time>
</trkpt>
<trkpt lat="49.16521453298628" lon="9.497879901900887">
<ele>291.4</ele>
<time>2024-05-07T14:14:08Z</time>
</trkpt>
<trkpt lat="49.16529843583703" lon="9.497908568009734">
<ele>290.8</ele>
<time>2024-05-07T14:14:09Z</time>
</trkpt>
<trkpt lat="49.165367083624005" lon="9.497940000146627">
<ele>290.2</ele>
<time>2024-05-07T14:14:10Z</time>
</trkpt>
<trkpt lat="49.16543958708644" lon="9.497961960732937">
<ele>289.8</ele>
<time>2024-05-07T14:14:11Z</time>
</trkpt>
<trkpt lat="49.16551200672984" lon="9.497964810580015">
<ele>289.2</ele>
<time>2024-05-07T14:14:12Z</time>
</trkpt>
<trkpt lat="49.165588365867734" lon="9.497953411191702">
<ele>288.6</ele>
<time>2024-05-07T14:14:13Z</time>
</trkpt>
<trkpt lat="49.165664641186595" lon="9.497926672920585">
<ele>288</ele>
<time>2024-05-07T14:14:14Z</time>
</trkpt>
<trkpt lat="49.16573714464903" lon="9.497888535261154">
<ele>287.4</ele>
<time>2024-05-07T14:14:15Z</time>
</trkpt>
<trkpt lat="49.16580956429243" lon="9.497841764241455">
<ele>286.8</ele>
<time>2024-05-07T14:14:16Z</time>
</trkpt>
<trkpt lat="49.165882067754865" lon="9.497791221365333">
<ele>286.2</ele>
<time>2024-05-07T14:14:17Z</time>
</trkpt>
<trkpt lat="49.1659545712173" lon="9.497741684317589">
<ele>285.8</ele>
<time>2024-05-07T14:14:18Z</time>
</trkpt>
<trkpt lat="49.16603084653616" lon="9.4976996909827">
<ele>285.2</ele>
<time>2024-05-07T14:14:19Z</time>
</trkpt>
<trkpt lat="49.16610712185502" lon="9.497674880549312">
<ele>284.8</ele>
<time>2024-05-07T14:14:20Z</time>
</trkpt>
<trkpt lat="49.16618725284934" lon="9.497661553323267">
<ele>284.2</ele>
<time>2024-05-07T14:14:21Z</time>
</trkpt>
<trkpt lat="49.1662635281682" lon="9.497665325179696">
<ele>283.6</ele>
<time>2024-05-07T14:14:22Z</time>
</trkpt>
<trkpt lat="49.16634365916252" lon="9.497683513909578">
<ele>283.2</ele>
<time>2024-05-07T14:14:23Z</time>
</trkpt>
<trkpt lat="49.16642379015684" lon="9.497711174190044">
<ele>282.6</ele>
<time>2024-05-07T14:14:24Z</time>
</trkpt>
<trkpt lat="49.1665000654757" lon="9.49773782864213">
<ele>282</ele>
<time>2024-05-07T14:14:25Z</time>
</trkpt>
<trkpt lat="49.16658019647002" lon="9.497766494750977">
<ele>281.4</ele>
<time>2024-05-07T14:14:26Z</time>
</trkpt>
<trkpt lat="49.166648844257" lon="9.497791221365333">
<ele>281</ele>
<time>2024-05-07T14:14:27Z</time>
</trkpt>
<trkpt lat="49.16671363636851" lon="9.497813181951642">
<ele>280.4</ele>
<time>2024-05-07T14:14:28Z</time>
</trkpt>
<trkpt lat="49.16678236797452" lon="9.497831286862493">
<ele>279.8</ele>
<time>2024-05-07T14:14:29Z</time>
</trkpt>
<trkpt lat="49.16685478761792" lon="9.497848469763994">
<ele>279.4</ele>
<time>2024-05-07T14:14:30Z</time>
</trkpt>
<trkpt lat="49.16692729108035" lon="9.49785701930523">
<ele>279</ele>
<time>2024-05-07T14:14:31Z</time>
</trkpt>
<trkpt lat="49.16700356639922" lon="9.497866574674845">
<ele>278.4</ele>
<time>2024-05-07T14:14:32Z</time>
</trkpt>
<trkpt lat="49.16708369739354" lon="9.49787805788219">
<ele>278</ele>
<time>2024-05-07T14:14:33Z</time>
</trkpt>
<trkpt lat="49.16716760024429" lon="9.497886607423425">
<ele>277.6</ele>
<time>2024-05-07T14:14:34Z</time>
</trkpt>
<trkpt lat="49.16724773123861" lon="9.497891385108232">
<ele>277</ele>
<time>2024-05-07T14:14:35Z</time>
</trkpt>
<trkpt lat="49.16733163408935" lon="9.497895240783691">
<ele>276.6</ele>
<time>2024-05-07T14:14:36Z</time>
</trkpt>
<trkpt lat="49.1674155369401" lon="9.497895240783691">
<ele>276</ele>
<time>2024-05-07T14:14:37Z</time>
</trkpt>
<trkpt lat="49.167503295466304" lon="9.49789616279304">
<ele>275.6</ele>
<time>2024-05-07T14:14:38Z</time>
</trkpt>
<trkpt lat="49.167583426460624" lon="9.497903790324926">
<ele>275</ele>
<time>2024-05-07T14:14:39Z</time>
</trkpt>
<trkpt lat="49.16766732931137" lon="9.497908568009734">
<ele>274.6</ele>
<time>2024-05-07T14:14:40Z</time>
</trkpt>
<trkpt lat="49.16775123216212" lon="9.497911417856812">
<ele>274.2</ele>
<time>2024-05-07T14:14:41Z</time>
</trkpt>
<trkpt lat="49.1678352188319" lon="9.497913345694542">
<ele>273.8</ele>
<time>2024-05-07T14:14:42Z</time>
</trkpt>
<trkpt lat="49.16791149415076" lon="9.497928600758314">
<ele>273.2</ele>
<time>2024-05-07T14:14:43Z</time>
</trkpt>
<trkpt lat="49.16799162514508" lon="9.497960032895207">
<ele>272.6</ele>
<time>2024-05-07T14:14:44Z</time>
</trkpt>
<trkpt lat="49.16806790046394" lon="9.498008647933602">
<ele>272.2</ele>
<time>2024-05-07T14:14:45Z</time>
</trkpt>
<trkpt lat="49.16814040392637" lon="9.498066902160645">
<ele>271.4</ele>
<time>2024-05-07T14:14:46Z</time>
</trkpt>
<trkpt lat="49.16821667924523" lon="9.49813454411924">
<ele>270.8</ele>
<time>2024-05-07T14:14:47Z</time>
</trkpt>
<trkpt lat="49.16828155517578" lon="9.49821375310421">
<ele>270.4</ele>
<time>2024-05-07T14:14:48Z</time>
</trkpt>
<trkpt lat="49.16834257543087" lon="9.49831291101873">
<ele>269.8</ele>
<time>2024-05-07T14:14:49Z</time>
</trkpt>
<trkpt lat="49.168407367542386" lon="9.498406369239092">
<ele>269.2</ele>
<time>2024-05-07T14:14:50Z</time>
</trkpt>
<trkpt lat="49.168472243472934" lon="9.498499827459456">
<ele>268.6</ele>
<time>2024-05-07T14:14:51Z</time>
</trkpt>
<trkpt lat="49.16853711940348" lon="9.498593285679815">
<ele>268.2</ele>
<time>2024-05-07T14:14:52Z</time>
</trkpt>
<trkpt lat="49.16859813965857" lon="9.49868674390018">
<ele>267.6</ele>
<time>2024-05-07T14:14:53Z</time>
</trkpt>
<trkpt lat="49.16866301558912" lon="9.498778274282811">
<ele>267.2</ele>
<time>2024-05-07T14:14:54Z</time>
</trkpt>
<trkpt lat="49.16872403584421" lon="9.498867960646749">
<ele>266.8</ele>
<time>2024-05-07T14:14:55Z</time>
</trkpt>
<trkpt lat="49.168785056099296" lon="9.498956641182303">
<ele>266.2</ele>
<time>2024-05-07T14:14:56Z</time>
</trkpt>
<trkpt lat="49.168846076354384" lon="9.499041549861431">
<ele>265.8</ele>
<time>2024-05-07T14:14:57Z</time>
</trkpt>
<trkpt lat="49.168903324753046" lon="9.499128302559257">
<ele>265.4</ele>
<time>2024-05-07T14:14:58Z</time>
</trkpt>
<trkpt lat="49.168964345008135" lon="9.499215055257082">
<ele>265</ele>
<time>2024-05-07T14:14:59Z</time>
</trkpt>
<trkpt lat="49.1690215934068" lon="9.49929803609848">
<ele>264.6</ele>
<time>2024-05-07T14:15:00Z</time>
</trkpt>
<trkpt lat="49.169082613661885" lon="9.499384872615336">
<ele>264.2</ele>
<time>2024-05-07T14:15:01Z</time>
</trkpt>
<trkpt lat="49.16913986206055" lon="9.499466847628357">
<ele>264</ele>
<time>2024-05-07T14:15:02Z</time>
</trkpt>
<trkpt lat="49.16919702664018" lon="9.499549828469751">
<ele>263.6</ele>
<time>2024-05-07T14:15:03Z</time>
</trkpt>
<trkpt lat="49.16925427503884" lon="9.499631803482773">
<ele>263.2</ele>
<time>2024-05-07T14:15:04Z</time>
</trkpt>
<trkpt lat="49.1693115234375" lon="9.49971193447709">
<ele>263</ele>
<time>2024-05-07T14:15:05Z</time>
</trkpt>
<trkpt lat="49.16937254369259" lon="9.499788209795952">
<ele>262.6</ele>
<time>2024-05-07T14:15:06Z</time>
</trkpt>
<trkpt lat="49.16943356394768" lon="9.499861635267736">
<ele>262.2</ele>
<time>2024-05-07T14:15:07Z</time>
</trkpt>
<trkpt lat="49.169498439878225" lon="9.499939838424323">
<ele>262</ele>
<time>2024-05-07T14:15:08Z</time>
</trkpt>
<trkpt lat="49.169559460133314" lon="9.500017119571568">
<ele>261.6</ele>
<time>2024-05-07T14:15:09Z</time>
</trkpt>
<trkpt lat="49.169616624712944" lon="9.500093394890428">
<ele>261.2</ele>
<time>2024-05-07T14:15:10Z</time>
</trkpt>
<trkpt lat="49.16968150064349" lon="9.500171598047018">
<ele>261</ele>
<time>2024-05-07T14:15:11Z</time>
</trkpt>
<trkpt lat="49.16974252089858" lon="9.50024787336588">
<ele>260.6</ele>
<time>2024-05-07T14:15:12Z</time>
</trkpt>
<trkpt lat="49.16980354115367" lon="9.50032708235085">
<ele>260.2</ele>
<time>2024-05-07T14:15:13Z</time>
</trkpt>
<trkpt lat="49.16986464522779" lon="9.500403357669711">
<ele>259.799</ele>
<time>2024-05-07T14:15:14Z</time>
</trkpt>
<trkpt lat="49.16992180980742" lon="9.500479632988572">
<ele>259.2</ele>
<time>2024-05-07T14:15:15Z</time>
</trkpt>
<trkpt lat="49.16998283006251" lon="9.500553058460357">
<ele>258.799</ele>
<time>2024-05-07T14:15:16Z</time>
</trkpt>
<trkpt lat="49.17004393413663" lon="9.500628411769869">
<ele>258.2</ele>
<time>2024-05-07T14:15:17Z</time>
</trkpt>
<trkpt lat="49.17010495439172" lon="9.500708542764189">
<ele>257.6</ele>
<time>2024-05-07T14:15:18Z</time>
</trkpt>
<trkpt lat="49.17016597464681" lon="9.500788673758509">
<ele>257</ele>
<time>2024-05-07T14:15:19Z</time>
</trkpt>
<trkpt lat="49.170226994901896" lon="9.500869726762176">
<ele>256.4</ele>
<time>2024-05-07T14:15:20Z</time>
</trkpt>
<trkpt lat="49.17029187083244" lon="9.50095647946">
<ele>256</ele>
<time>2024-05-07T14:15:21Z</time>
</trkpt>
<trkpt lat="49.17035674676299" lon="9.501033760607244">
<ele>255.4</ele>
<time>2024-05-07T14:15:22Z</time>
</trkpt>
<trkpt lat="49.17041776701808" lon="9.501106180250645">
<ele>254.8</ele>
<time>2024-05-07T14:15:23Z</time>
</trkpt>
<trkpt lat="49.17047878727317" lon="9.501170134171844">
<ele>254.2</ele>
<time>2024-05-07T14:15:24Z</time>
</trkpt>
<trkpt lat="49.17053980752826" lon="9.501233082264662">
<ele>253.6</ele>
<time>2024-05-07T14:15:25Z</time>
</trkpt>
<trkpt lat="49.170604683458805" lon="9.501288402825594">
<ele>253</ele>
<time>2024-05-07T14:15:26Z</time>
</trkpt>
<trkpt lat="49.170665703713894" lon="9.501337939873338">
<ele>252.4</ele>
<time>2024-05-07T14:15:27Z</time>
</trkpt>
<trkpt lat="49.17073057964444" lon="9.501384710893037">
<ele>251.6</ele>
<time>2024-05-07T14:15:28Z</time>
</trkpt>
<trkpt lat="49.17079537175596" lon="9.50143332593143">
<ele>251</ele>
<time>2024-05-07T14:15:29Z</time>
</trkpt>
<trkpt lat="49.17086410336197" lon="9.501482946798204">
<ele>250.4</ele>
<time>2024-05-07T14:15:30Z</time>
</trkpt>
<trkpt lat="49.17093275114894" lon="9.50152963399887">
<ele>249.8</ele>
<time>2024-05-07T14:15:31Z</time>
</trkpt>
<trkpt lat="49.17100517079234" lon="9.50157355517149">
<ele>249.2</ele>
<time>2024-05-07T14:15:32Z</time>
</trkpt>
<trkpt lat="49.171077674254775" lon="9.501618314534426">
<ele>248.8</ele>
<time>2024-05-07T14:15:33Z</time>
</trkpt>
<trkpt lat="49.17115017771721" lon="9.501663157716392">
<ele>248.2</ele>
<time>2024-05-07T14:15:34Z</time>
</trkpt>
<trkpt lat="49.171218825504184" lon="9.50170699506998">
<ele>247.6</ele>
<time>2024-05-07T14:15:35Z</time>
</trkpt>
<trkpt lat="49.17128747329116" lon="9.50174806639552">
<ele>247</ele>
<time>2024-05-07T14:15:36Z</time>
</trkpt>
<trkpt lat="49.171356121078134" lon="9.50178813189268">
<ele>246.4</ele>
<time>2024-05-07T14:15:37Z</time>
</trkpt>
<trkpt lat="49.17142862454057" lon="9.501825263723733">
<ele>246</ele>
<time>2024-05-07T14:15:38Z</time>
</trkpt>
<trkpt lat="49.17150489985943" lon="9.501856779679656">
<ele>245.4</ele>
<time>2024-05-07T14:15:39Z</time>
</trkpt>
<trkpt lat="49.17158125899732" lon="9.501881590113044">
<ele>244.8</ele>
<time>2024-05-07T14:15:40Z</time>
</trkpt>
<trkpt lat="49.17166516184807" lon="9.501901622861624">
<ele>244.2</ele>
<time>2024-05-07T14:15:41Z</time>
</trkpt>
<trkpt lat="49.171749064698815" lon="9.501916877925396">
<ele>243.6</ele>
<time>2024-05-07T14:15:42Z</time>
</trkpt>
<trkpt lat="49.17183296754956" lon="9.501934982836246">
<ele>243</ele>
<time>2024-05-07T14:15:43Z</time>
</trkpt>
<trkpt lat="49.17192072607577" lon="9.501951159909368">
<ele>242.4</ele>
<time>2024-05-07T14:15:44Z</time>
</trkpt>
<trkpt lat="49.172008484601974" lon="9.50196834281087">
<ele>241.8</ele>
<time>2024-05-07T14:15:45Z</time>
</trkpt>
<trkpt lat="49.172088615596294" lon="9.50199030339718">
<ele>241.2</ele>
<time>2024-05-07T14:15:46Z</time>
</trkpt>
<trkpt lat="49.17216866277158" lon="9.502019807696342">
<ele>240.8</ele>
<time>2024-05-07T14:15:47Z</time>
</trkpt>
<trkpt lat="49.17223739437759" lon="9.502058029174805">
<ele>240.4</ele>
<time>2024-05-07T14:15:48Z</time>
</trkpt>
<trkpt lat="49.17230981402099" lon="9.502101866528392">
<ele>239.8</ele>
<time>2024-05-07T14:15:49Z</time>
</trkpt>
<trkpt lat="49.17237468995154" lon="9.50214478187263">
<ele>239.4</ele>
<time>2024-05-07T14:15:50Z</time>
</trkpt>
<trkpt lat="49.17243956588209" lon="9.50218291953206">
<ele>239</ele>
<time>2024-05-07T14:15:51Z</time>
</trkpt>
<trkpt lat="49.17250821366906" lon="9.50222298502922">
<ele>238.4</ele>
<time>2024-05-07T14:15:52Z</time>
</trkpt>
<trkpt lat="49.17257308959961" lon="9.502260200679302">
<ele>238</ele>
<time>2024-05-07T14:15:53Z</time>
</trkpt>
<trkpt lat="49.1726341098547" lon="9.502294482663274">
<ele>237.6</ele>
<time>2024-05-07T14:15:54Z</time>
</trkpt>
<trkpt lat="49.17269513010979" lon="9.502329770475626">
<ele>237.2</ele>
<time>2024-05-07T14:15:55Z</time>
</trkpt>
<trkpt lat="49.172760006040335" lon="9.502365058287978">
<ele>236.8</ele>
<time>2024-05-07T14:15:56Z</time>
</trkpt>
<trkpt lat="49.17282102629542" lon="9.502396574243903">
<ele>236.6</ele>
<time>2024-05-07T14:15:57Z</time>
</trkpt>
<trkpt lat="49.17288581840694" lon="9.502431862056255">
<ele>236.2</ele>
<time>2024-05-07T14:15:58Z</time>
</trkpt>
<trkpt lat="49.17295069433749" lon="9.502469999715686">
<ele>236</ele>
<time>2024-05-07T14:15:59Z</time>
</trkpt>
<trkpt lat="49.173015570268035" lon="9.502511909231544">
<ele>235.6</ele>
<time>2024-05-07T14:16:00Z</time>
</trkpt>
<trkpt lat="49.17308421805501" lon="9.502551974728703">
<ele>235.4</ele>
<time>2024-05-07T14:16:01Z</time>
</trkpt>
<trkpt lat="49.17314909398556" lon="9.502596817910671">
<ele>235</ele>
<time>2024-05-07T14:16:02Z</time>
</trkpt>
<trkpt lat="49.173213886097074" lon="9.502650210633874">
<ele>234.8</ele>
<time>2024-05-07T14:16:03Z</time>
</trkpt>
<trkpt lat="49.17327876202762" lon="9.502703603357077">
<ele>234.6</ele>
<time>2024-05-07T14:16:04Z</time>
</trkpt>
<trkpt lat="49.17333978228271" lon="9.502755152061582">
<ele>234.2</ele>
<time>2024-05-07T14:16:05Z</time>
</trkpt>
<trkpt lat="49.17339703068137" lon="9.502803767099977">
<ele>234</ele>
<time>2024-05-07T14:16:06Z</time>
</trkpt>
<trkpt lat="49.17345805093646" lon="9.502851460129024">
<ele>233.6</ele>
<time>2024-05-07T14:16:07Z</time>
</trkpt>
<trkpt lat="49.17351529933512" lon="9.502902003005149">
<ele>233.2</ele>
<time>2024-05-07T14:16:08Z</time>
</trkpt>
<trkpt lat="49.17357246391475" lon="9.502946846187116">
<ele>232.8</ele>
<time>2024-05-07T14:16:09Z</time>
</trkpt>
<trkpt lat="49.173625940456986" lon="9.50299160555005">
<ele>232.6</ele>
<time>2024-05-07T14:16:10Z</time>
</trkpt>
<trkpt lat="49.17367933318019" lon="9.50303359888494">
<ele>232.2</ele>
<time>2024-05-07T14:16:11Z</time>
</trkpt>
<trkpt lat="49.17373272590339" lon="9.503078442066908">
<ele>232</ele>
<time>2024-05-07T14:16:12Z</time>
</trkpt>
<trkpt lat="49.173786118626595" lon="9.503127979114652">
<ele>231.8</ele>
<time>2024-05-07T14:16:13Z</time>
</trkpt>
<trkpt lat="49.1738395113498" lon="9.503178521990776">
<ele>231.6</ele>
<time>2024-05-07T14:16:14Z</time>
</trkpt>
<trkpt lat="49.173900531604886" lon="9.503226215019822">
<ele>231.4</ele>
<time>2024-05-07T14:16:15Z</time>
</trkpt>
<trkpt lat="49.17396163567901" lon="9.503276757895948">
<ele>231.2</ele>
<time>2024-05-07T14:16:16Z</time>
</trkpt>
<trkpt lat="49.174022655934095" lon="9.503326378762722">
<ele>231</ele>
<time>2024-05-07T14:16:17Z</time>
</trkpt>
<trkpt lat="49.174083676189184" lon="9.503379771485925">
<ele>231</ele>
<time>2024-05-07T14:16:18Z</time>
</trkpt>
<trkpt lat="49.17414855211973" lon="9.503433164209127">
<ele>230.8</ele>
<time>2024-05-07T14:16:19Z</time>
</trkpt>
<trkpt lat="49.17420571669936" lon="9.50348848477006">
<ele>230.4</ele>
<time>2024-05-07T14:16:20Z</time>
</trkpt>
<trkpt lat="49.17426673695445" lon="9.503541877493262">
<ele>230.2</ele>
<time>2024-05-07T14:16:21Z</time>
</trkpt>
<trkpt lat="49.174331612885" lon="9.503596276044846">
<ele>229.8</ele>
<time>2024-05-07T14:16:22Z</time>
</trkpt>
<trkpt lat="49.17439263314009" lon="9.503651596605778">
<ele>229.6</ele>
<time>2024-05-07T14:16:23Z</time>
</trkpt>
<trkpt lat="49.174453653395176" lon="9.503709767013788">
<ele>229.2</ele>
<time>2024-05-07T14:16:24Z</time>
</trkpt>
<trkpt lat="49.17451090179384" lon="9.503776486963034">
<ele>228.8</ele>
<time>2024-05-07T14:16:25Z</time>
</trkpt>
<trkpt lat="49.17456429451704" lon="9.503847062587738">
<ele>228.4</ele>
<time>2024-05-07T14:16:26Z</time>
</trkpt>
<trkpt lat="49.17461768724024" lon="9.503919566050172">
<ele>227.8</ele>
<time>2024-05-07T14:16:27Z</time>
</trkpt>
<trkpt lat="49.17465968057513" lon="9.504006318747996">
<ele>227.2</ele>
<time>2024-05-07T14:16:28Z</time>
</trkpt>
<trkpt lat="49.174694046378136" lon="9.50410170480609">
<ele>226.8</ele>
<time>2024-05-07T14:16:29Z</time>
</trkpt>
<trkpt lat="49.174732184037566" lon="9.50420186854899">
<ele>226.2</ele>
<time>2024-05-07T14:16:30Z</time>
</trkpt>
<trkpt lat="49.174770321697" lon="9.50429817661643">
<ele>225.6</ele>
<time>2024-05-07T14:16:31Z</time>
</trkpt>
<trkpt lat="49.17480845935643" lon="9.5043964125216">
<ele>225.2</ele>
<time>2024-05-07T14:16:32Z</time>
</trkpt>
<trkpt lat="49.17485045269132" lon="9.504498420283198">
<ele>224.6</ele>
<time>2024-05-07T14:16:33Z</time>
</trkpt>
<trkpt lat="49.17488473467529" lon="9.504596656188369">
<ele>224</ele>
<time>2024-05-07T14:16:34Z</time>
</trkpt>
<trkpt lat="49.17492672801018" lon="9.504683492705226">
<ele>223.4</ele>
<time>2024-05-07T14:16:35Z</time>
</trkpt>
<trkpt lat="49.17496486566961" lon="9.504763539880514">
<ele>223</ele>
<time>2024-05-07T14:16:36Z</time>
</trkpt>
<trkpt lat="49.17500300332904" lon="9.504844592884185">
<ele>222.4</ele>
<time>2024-05-07T14:16:37Z</time>
</trkpt>
<trkpt lat="49.17503736913204" lon="9.504921874031425">
<ele>221.8</ele>
<time>2024-05-07T14:16:38Z</time>
</trkpt>
<trkpt lat="49.17508313432336" lon="9.504981972277164">
<ele>221.4</ele>
<time>2024-05-07T14:16:39Z</time>
</trkpt>
<trkpt lat="49.17513652704656" lon="9.505026815459132">
<ele>221.2</ele>
<time>2024-05-07T14:16:40Z</time>
</trkpt>
<trkpt lat="49.17518991976976" lon="9.505056319758296">
<ele>220.8</ele>
<time>2024-05-07T14:16:41Z</time>
</trkpt>
<trkpt lat="49.17524331249297" lon="9.505075430497527">
<ele>220.4</ele>
<time>2024-05-07T14:16:42Z</time>
</trkpt>
<trkpt lat="49.17530056089163" lon="9.50508875772357">
<ele>220</ele>
<time>2024-05-07T14:16:43Z</time>
</trkpt>
<trkpt lat="49.17536158114672" lon="9.505091607570648">
<ele>219.8</ele>
<time>2024-05-07T14:16:44Z</time>
</trkpt>
<trkpt lat="49.17541882954538" lon="9.505096385255456">
<ele>219.6</ele>
<time>2024-05-07T14:16:45Z</time>
</trkpt>
<trkpt lat="49.17547984980047" lon="9.505084985867144">
<ele>219.4</ele>
<time>2024-05-07T14:16:46Z</time>
</trkpt>
<trkpt lat="49.17554087005555" lon="9.50506679713726">
<ele>219.2</ele>
<time>2024-05-07T14:16:47Z</time>
</trkpt>
<trkpt lat="49.17559811845422" lon="9.505031509324908">
<ele>219</ele>
<time>2024-05-07T14:16:48Z</time>
</trkpt>
<trkpt lat="49.17565528303385" lon="9.50498859398067">
<ele>218.8</ele>
<time>2024-05-07T14:16:49Z</time>
</trkpt>
<trkpt lat="49.17570490390062" lon="9.50493335723877">
<ele>218.6</ele>
<time>2024-05-07T14:16:50Z</time>
</trkpt>
<trkpt lat="49.1757545247674" lon="9.50487325899303">
<ele>218.4</ele>
<time>2024-05-07T14:16:51Z</time>
</trkpt>
<trkpt lat="49.17579643428326" lon="9.504804611206056">
<ele>218.2</ele>
<time>2024-05-07T14:16:52Z</time>
</trkpt>
<trkpt lat="49.175838427618146" lon="9.504736885428429">
<ele>218.2</ele>
<time>2024-05-07T14:16:53Z</time>
</trkpt>
<trkpt lat="49.175876565277576" lon="9.50467200949788">
<ele>218</ele>
<time>2024-05-07T14:16:54Z</time>
</trkpt>
<trkpt lat="49.17592233046889" lon="9.504626244306564">
<ele>217.8</ele>
<time>2024-05-07T14:16:55Z</time>
</trkpt>
<trkpt lat="49.17596432380378" lon="9.504581401124597">
<ele>217.6</ele>
<time>2024-05-07T14:16:56Z</time>
</trkpt>
<trkpt lat="49.17600631713867" lon="9.504538485780358">
<ele>217.4</ele>
<time>2024-05-07T14:16:57Z</time>
</trkpt>
<trkpt lat="49.17604059912264" lon="9.504500348120928">
<ele>217.4</ele>
<time>2024-05-07T14:16:58Z</time>
</trkpt>
<trkpt lat="49.17608259245753" lon="9.504465060308576">
<ele>217.4</ele>
<time>2024-05-07T14:16:59Z</time>
</trkpt>
<trkpt lat="49.17612073011696" lon="9.504427844658494">
<ele>217.4</ele>
<time>2024-05-07T14:17:00Z</time>
</trkpt>
<trkpt lat="49.176158867776394" lon="9.504391634836791">
<ele>217.4</ele>
<time>2024-05-07T14:17:01Z</time>
</trkpt>
<trkpt lat="49.176197005435824" lon="9.504353497177362">
<ele>217.4</ele>
<time>2024-05-07T14:17:02Z</time>
</trkpt>
<trkpt lat="49.176235143095255" lon="9.50431820936501">
<ele>217.4</ele>
<time>2024-05-07T14:17:03Z</time>
</trkpt>
<trkpt lat="49.176273280754685" lon="9.50427814386785">
<ele>217.4</ele>
<time>2024-05-07T14:17:04Z</time>
</trkpt>
<trkpt lat="49.17630764655769" lon="9.504231372848151">
<ele>217.4</ele>
<time>2024-05-07T14:17:05Z</time>
</trkpt>
<trkpt lat="49.17633815668523" lon="9.504186613485215">
<ele>217.6</ele>
<time>2024-05-07T14:17:06Z</time>
</trkpt>
<trkpt lat="49.17636489495635" lon="9.504144620150328">
<ele>217.6</ele>
<time>2024-05-07T14:17:07Z</time>
</trkpt>
<trkpt lat="49.17639917694032" lon="9.504111260175703">
<ele>217.8</ele>
<time>2024-05-07T14:17:08Z</time>
</trkpt>
<trkpt lat="49.17643731459975" lon="9.50408359989524">
<ele>217.8</ele>
<time>2024-05-07T14:17:09Z</time>
</trkpt>
<trkpt lat="49.17647545225918" lon="9.50406163930893">
<ele>218</ele>
<time>2024-05-07T14:17:10Z</time>
</trkpt>
<trkpt lat="49.17652130126953" lon="9.504048312082888">
<ele>218.2</ele>
<time>2024-05-07T14:17:11Z</time>
</trkpt>
<trkpt lat="49.17656321078539" lon="9.504039762541652">
<ele>218.2</ele>
<time>2024-05-07T14:17:12Z</time>
</trkpt>
<trkpt lat="49.17660520412028" lon="9.504032135009766">
<ele>218.4</ele>
<time>2024-05-07T14:17:13Z</time>
</trkpt>
<trkpt lat="49.176650969311595" lon="9.504019729793072">
<ele>218.6</ele>
<time>2024-05-07T14:17:14Z</time>
</trkpt>
<trkpt lat="49.17669673450291" lon="9.504008246585729">
<ele>218.6</ele>
<time>2024-05-07T14:17:15Z</time>
</trkpt>
<trkpt lat="49.1767387278378" lon="9.503999697044492">
<ele>218.6</ele>
<time>2024-05-07T14:17:16Z</time>
</trkpt>
<trkpt lat="49.17678449302912" lon="9.503990141674876">
<ele>218.6</ele>
<time>2024-05-07T14:17:17Z</time>
</trkpt>
<trkpt lat="49.176830258220434" lon="9.503970108926296">
<ele>218.6</ele>
<time>2024-05-07T14:17:18Z</time>
</trkpt>
<trkpt lat="49.17687987908721" lon="9.503954853862524">
<ele>218.6</ele>
<time>2024-05-07T14:17:19Z</time>
</trkpt>
<trkpt lat="49.176925644278526" lon="9.503945298492908">
<ele>218.8</ele>
<time>2024-05-07T14:17:20Z</time>
</trkpt>
<trkpt lat="49.17697903700173" lon="9.50394152663648">
<ele>218.8</ele>
<time>2024-05-07T14:17:21Z</time>
</trkpt>
<trkpt lat="49.17703628540039" lon="9.50394337065518">
<ele>218.8</ele>
<time>2024-05-07T14:17:22Z</time>
</trkpt>
<trkpt lat="49.17709344998002" lon="9.503950076177716">
<ele>218.8</ele>
<time>2024-05-07T14:17:23Z</time>
</trkpt>
<trkpt lat="49.17715447023511" lon="9.503968181088569">
<ele>218.6</ele>
<time>2024-05-07T14:17:24Z</time>
</trkpt>
<trkpt lat="49.17721171863377" lon="9.503994919359684">
<ele>218.6</ele>
<time>2024-05-07T14:17:25Z</time>
</trkpt>
<trkpt lat="49.177265111356974" lon="9.504030207172036">
<ele>218.4</ele>
<time>2024-05-07T14:17:26Z</time>
</trkpt>
<trkpt lat="49.17731473222375" lon="9.504066416993735">
<ele>218.4</ele>
<time>2024-05-07T14:17:27Z</time>
</trkpt>
<trkpt lat="49.17736426927149" lon="9.504104554653168">
<ele>218.2</ele>
<time>2024-05-07T14:17:28Z</time>
</trkpt>
<trkpt lat="49.17741774581373" lon="9.50413791462779">
<ele>218</ele>
<time>2024-05-07T14:17:29Z</time>
</trkpt>
<trkpt lat="49.17746351100504" lon="9.504184685647488">
<ele>218</ele>
<time>2024-05-07T14:17:30Z</time>
</trkpt>
<trkpt lat="49.17751304805279" lon="9.50421804562211">
<ele>217.8</ele>
<time>2024-05-07T14:17:31Z</time>
</trkpt>
<trkpt lat="49.177558897063136" lon="9.504249561578035">
<ele>217.4</ele>
<time>2024-05-07T14:17:32Z</time>
</trkpt>
<trkpt lat="49.17760466225445" lon="9.50427814386785">
<ele>217.2</ele>
<time>2024-05-07T14:17:33Z</time>
</trkpt>
<trkpt lat="49.17764657177031" lon="9.504315359517932">
<ele>217</ele>
<time>2024-05-07T14:17:34Z</time>
</trkpt>
<trkpt lat="49.17769233696163" lon="9.504355425015092">
<ele>216.8</ele>
<time>2024-05-07T14:17:35Z</time>
</trkpt>
<trkpt lat="49.177738185971975" lon="9.504394484683871">
<ele>216.6</ele>
<time>2024-05-07T14:17:36Z</time>
</trkpt>
<trkpt lat="49.17778395116329" lon="9.504431700333951">
<ele>216.4</ele>
<time>2024-05-07T14:17:37Z</time>
</trkpt>
<trkpt lat="49.17782586067915" lon="9.504466988146303">
<ele>216.2</ele>
<time>2024-05-07T14:17:38Z</time>
</trkpt>
<trkpt lat="49.177871625870466" lon="9.504498420283198">
<ele>216</ele>
<time>2024-05-07T14:17:39Z</time>
</trkpt>
<trkpt lat="49.17792124673724" lon="9.504527086392043">
<ele>215.8</ele>
<time>2024-05-07T14:17:40Z</time>
</trkpt>
<trkpt lat="49.17796324007213" lon="9.504556590691209">
<ele>215.6</ele>
<time>2024-05-07T14:17:41Z</time>
</trkpt>
<trkpt lat="49.17800900526345" lon="9.504588106647134">
<ele>215.2</ele>
<time>2024-05-07T14:17:42Z</time>
</trkpt>
<trkpt lat="49.178050914779305" lon="9.504616688936949">
<ele>215</ele>
<time>2024-05-07T14:17:43Z</time>
</trkpt>
<trkpt lat="49.178096763789654" lon="9.504646277055144">
<ele>214.8</ele>
<time>2024-05-07T14:17:44Z</time>
</trkpt>
<trkpt lat="49.17813867330551" lon="9.504678715020418">
<ele>214.6</ele>
<time>2024-05-07T14:17:45Z</time>
</trkpt>
<trkpt lat="49.17818443849683" lon="9.50471492484212">
<ele>214.4</ele>
<time>2024-05-07T14:17:46Z</time>
</trkpt>
<trkpt lat="49.17822643183172" lon="9.50475306250155">
<ele>214.4</ele>
<time>2024-05-07T14:17:47Z</time>
</trkpt>
<trkpt lat="49.17826842516661" lon="9.504797905683516">
<ele>214.2</ele>
<time>2024-05-07T14:17:48Z</time>
</trkpt>
<trkpt lat="49.178310334682465" lon="9.504850376397371">
<ele>214</ele>
<time>2024-05-07T14:17:49Z</time>
</trkpt>
<trkpt lat="49.17834470048547" lon="9.50490946881473">
<ele>214</ele>
<time>2024-05-07T14:17:50Z</time>
</trkpt>
<trkpt lat="49.17837521061301" lon="9.5049714948982">
<ele>213.8</ele>
<time>2024-05-07T14:17:51Z</time>
</trkpt>
<trkpt lat="49.1784018650651" lon="9.505042070522904">
<ele>213.6</ele>
<time>2024-05-07T14:17:52Z</time>
</trkpt>
<trkpt lat="49.178428603336215" lon="9.505113568156958">
<ele>213.6</ele>
<time>2024-05-07T14:17:53Z</time>
</trkpt>
<trkpt lat="49.17844385839999" lon="9.50518506579101">
<ele>213.4</ele>
<time>2024-05-07T14:17:54Z</time>
</trkpt>
<trkpt lat="49.17845148593187" lon="9.505258491262794">
<ele>213.4</ele>
<time>2024-05-07T14:17:55Z</time>
</trkpt>
<trkpt lat="49.17845534160733" lon="9.505334850400686">
<ele>213.2</ele>
<time>2024-05-07T14:17:56Z</time>
</trkpt>
<trkpt lat="49.17845911346376" lon="9.505410119891168">
<ele>213.2</ele>
<time>2024-05-07T14:17:57Z</time>
</trkpt>
<trkpt lat="49.178466740995646" lon="9.50548354536295">
<ele>213.2</ele>
<time>2024-05-07T14:17:58Z</time>
</trkpt>
<trkpt lat="49.17847822420299" lon="9.505559904500842">
<ele>213</ele>
<time>2024-05-07T14:17:59Z</time>
</trkpt>
<trkpt lat="49.17848199605942" lon="9.505638107657433">
<ele>213</ele>
<time>2024-05-07T14:18:00Z</time>
</trkpt>
<trkpt lat="49.178489623591304" lon="9.505711533129215">
<ele>213</ele>
<time>2024-05-07T14:18:01Z</time>
</trkpt>
<trkpt lat="49.17849725112319" lon="9.505783030763268">
<ele>213</ele>
<time>2024-05-07T14:18:02Z</time>
</trkpt>
<trkpt lat="49.17851250618696" lon="9.505849834531546">
<ele>213</ele>
<time>2024-05-07T14:18:03Z</time>
</trkpt>
<trkpt lat="49.17853161692619" lon="9.505923260003328">
<ele>213</ele>
<time>2024-05-07T14:18:04Z</time>
</trkpt>
<trkpt lat="49.17856212705374" lon="9.505988052114844">
<ele>213</ele>
<time>2024-05-07T14:18:05Z</time>
</trkpt>
<trkpt lat="49.17859649285674" lon="9.506043372675776">
<ele>213</ele>
<time>2024-05-07T14:18:06Z</time>
</trkpt>
<trkpt lat="49.1786384023726" lon="9.506092071533203">
<ele>213</ele>
<time>2024-05-07T14:18:07Z</time>
</trkpt>
<trkpt lat="49.17867654003203" lon="9.50613783672452">
<ele>213</ele>
<time>2024-05-07T14:18:08Z</time>
</trkpt>
<trkpt lat="49.17871467769146" lon="9.506183601915836">
<ele>213</ele>
<time>2024-05-07T14:18:09Z</time>
</trkpt>
<trkpt lat="49.17874904349446" lon="9.506221739575269">
<ele>213</ele>
<time>2024-05-07T14:18:10Z</time>
</trkpt>
<trkpt lat="49.17877955362201" lon="9.50625702738762">
<ele>213</ele>
<time>2024-05-07T14:18:11Z</time>
</trkpt>
<trkpt lat="49.17879866436124" lon="9.506283681839705">
<ele>213</ele>
<time>2024-05-07T14:18:12Z</time>
</trkpt>
<trkpt lat="49.1788215469569" lon="9.506309498101473">
<ele>213</ele>
<time>2024-05-07T14:18:13Z</time>
</trkpt>
<trkpt lat="49.178840573877096" lon="9.506344785913823">
<ele>213</ele>
<time>2024-05-07T14:18:14Z</time>
</trkpt>
<trkpt lat="49.178863456472754" lon="9.506382923573256">
<ele>213</ele>
<time>2024-05-07T14:18:15Z</time>
</trkpt>
<trkpt lat="49.17889019474387" lon="9.506420055404304">
<ele>213</ele>
<time>2024-05-07T14:18:16Z</time>
</trkpt>
<trkpt lat="49.178920704871416" lon="9.506455343216658">
<ele>213</ele>
<time>2024-05-07T14:18:17Z</time>
</trkpt>
<trkpt lat="49.17895507067442" lon="9.506483003497124">
<ele>213</ele>
<time>2024-05-07T14:18:18Z</time>
</trkpt>
<trkpt lat="49.17899320833385" lon="9.506500186398624">
<ele>213</ele>
<time>2024-05-07T14:18:19Z</time>
</trkpt>
<trkpt lat="49.17903897352517" lon="9.506518291309476">
<ele>213</ele>
<time>2024-05-07T14:18:20Z</time>
</trkpt>
<trkpt lat="49.179080883041024" lon="9.506540251895784">
<ele>213</ele>
<time>2024-05-07T14:18:21Z</time>
</trkpt>
<trkpt lat="49.17912673205137" lon="9.506565062329171">
<ele>213</ele>
<time>2024-05-07T14:18:22Z</time>
</trkpt>
<trkpt lat="49.17916864156723" lon="9.506585095077751">
<ele>213.2</ele>
<time>2024-05-07T14:18:23Z</time>
</trkpt>
<trkpt lat="49.17921440675855" lon="9.506596494466066">
<ele>213.2</ele>
<time>2024-05-07T14:18:24Z</time>
</trkpt>
<trkpt lat="49.17926017194986" lon="9.506603199988604">
<ele>213.2</ele>
<time>2024-05-07T14:18:25Z</time>
</trkpt>
<trkpt lat="49.17930602096021" lon="9.506618455052376">
<ele>213.2</ele>
<time>2024-05-07T14:18:26Z</time>
</trkpt>
<trkpt lat="49.17935178615153" lon="9.50662993825972">
<ele>213.2</ele>
<time>2024-05-07T14:18:27Z</time>
</trkpt>
<trkpt lat="49.179397551342845" lon="9.506634632125497">
<ele>213.2</ele>
<time>2024-05-07T14:18:28Z</time>
</trkpt>
<trkpt lat="49.17944331653416" lon="9.50663178227842">
<ele>213.2</ele>
<time>2024-05-07T14:18:29Z</time>
</trkpt>
<trkpt lat="49.17949293740094" lon="9.50662700459361">
<ele>213.2</ele>
<time>2024-05-07T14:18:30Z</time>
</trkpt>
<trkpt lat="49.17954247444868" lon="9.506616527214646">
<ele>213.4</ele>
<time>2024-05-07T14:18:31Z</time>
</trkpt>
<trkpt lat="49.179592095315456" lon="9.506607055664063">
<ele>213.4</ele>
<time>2024-05-07T14:18:32Z</time>
</trkpt>
<trkpt lat="49.17964171618223" lon="9.506598422303796">
<ele>213.4</ele>
<time>2024-05-07T14:18:33Z</time>
</trkpt>
<trkpt lat="49.179691253229976" lon="9.506585095077751">
<ele>213.2</ele>
<time>2024-05-07T14:18:34Z</time>
</trkpt>
<trkpt lat="49.17974087409675" lon="9.50656984001398">
<ele>213.2</ele>
<time>2024-05-07T14:18:35Z</time>
</trkpt>
<trkpt lat="49.17979049496353" lon="9.506554584950209">
<ele>213</ele>
<time>2024-05-07T14:18:36Z</time>
</trkpt>
<trkpt lat="49.17984003201127" lon="9.506538324058056">
<ele>213</ele>
<time>2024-05-07T14:18:37Z</time>
</trkpt>
<trkpt lat="49.179889652878046" lon="9.506526924669744">
<ele>212.8</ele>
<time>2024-05-07T14:18:38Z</time>
</trkpt>
<trkpt lat="49.17994304560125" lon="9.506520219147204">
<ele>212.8</ele>
<time>2024-05-07T14:18:39Z</time>
</trkpt>
<trkpt lat="49.179992666468024" lon="9.506515441462398">
<ele>212.8</ele>
<time>2024-05-07T14:18:40Z</time>
</trkpt>
<trkpt lat="49.18004220351577" lon="9.506507813930511">
<ele>212.8</ele>
<time>2024-05-07T14:18:41Z</time>
</trkpt>
<trkpt lat="49.180091824382544" lon="9.506506891921164">
<ele>212.8</ele>
<time>2024-05-07T14:18:42Z</time>
</trkpt>
<trkpt lat="49.18014144524932" lon="9.506507813930511">
<ele>212.8</ele>
<time>2024-05-07T14:18:43Z</time>
</trkpt>
<trkpt lat="49.18019098229706" lon="9.506503036245704">
<ele>212.8</ele>
<time>2024-05-07T14:18:44Z</time>
</trkpt>
<trkpt lat="49.18024060316384" lon="9.506502114236357">
<ele>212.8</ele>
<time>2024-05-07T14:18:45Z</time>
</trkpt>
<trkpt lat="49.18029399588704" lon="9.506503036245704">
<ele>212.8</ele>
<time>2024-05-07T14:18:46Z</time>
</trkpt>
<trkpt lat="49.18033976107836" lon="9.506503036245704">
<ele>212.8</ele>
<time>2024-05-07T14:18:47Z</time>
</trkpt>
<trkpt lat="49.18039315380156" lon="9.50650974176824">
<ele>212.6</ele>
<time>2024-05-07T14:18:48Z</time>
</trkpt>
<trkpt lat="49.18044654652476" lon="9.506518291309476">
<ele>212.6</ele>
<time>2024-05-07T14:18:49Z</time>
</trkpt>
<trkpt lat="49.180500023067" lon="9.506527846679091">
<ele>212.6</ele>
<time>2024-05-07T14:18:50Z</time>
</trkpt>
<trkpt lat="49.18054956011474" lon="9.506541173905134">
<ele>212.6</ele>
<time>2024-05-07T14:18:51Z</time>
</trkpt>
<trkpt lat="49.18059918098152" lon="9.50655173510313">
<ele>212.6</ele>
<time>2024-05-07T14:18:52Z</time>
</trkpt>
<trkpt lat="49.18064880184829" lon="9.506563134491444">
<ele>212.6</ele>
<time>2024-05-07T14:18:53Z</time>
</trkpt>
<trkpt lat="49.18069833889603" lon="9.506574617698789">
<ele>212.8</ele>
<time>2024-05-07T14:18:54Z</time>
</trkpt>
<trkpt lat="49.18075173161924" lon="9.506585095077751">
<ele>212.8</ele>
<time>2024-05-07T14:18:55Z</time>
</trkpt>
<trkpt lat="49.180801352486014" lon="9.50658987276256">
<ele>212.8</ele>
<time>2024-05-07T14:18:56Z</time>
</trkpt>
<trkpt lat="49.18085097335279" lon="9.506600350141523">
<ele>212.8</ele>
<time>2024-05-07T14:18:57Z</time>
</trkpt>
<trkpt lat="49.180900510400534" lon="9.506607977673411">
<ele>212.8</ele>
<time>2024-05-07T14:18:58Z</time>
</trkpt>
<trkpt lat="49.18095013126731" lon="9.506616527214646">
<ele>212.8</ele>
<time>2024-05-07T14:18:59Z</time>
</trkpt>
<trkpt lat="49.18100352399051" lon="9.506623232737184">
<ele>212.6</ele>
<time>2024-05-07T14:19:00Z</time>
</trkpt>
<trkpt lat="49.18106077238917" lon="9.50663178227842">
<ele>212.6</ele>
<time>2024-05-07T14:19:01Z</time>
</trkpt>
<trkpt lat="49.18111030943692" lon="9.506640415638683">
<ele>212.6</ele>
<time>2024-05-07T14:19:02Z</time>
</trkpt>
<trkpt lat="49.18116378597915" lon="9.506648043170571">
<ele>212.4</ele>
<time>2024-05-07T14:19:03Z</time>
</trkpt>
<trkpt lat="49.181213323026896" lon="9.506656592711806">
<ele>212.4</ele>
<time>2024-05-07T14:19:04Z</time>
</trkpt>
<trkpt lat="49.1812667157501" lon="9.506666148081422">
<ele>212.4</ele>
<time>2024-05-07T14:19:05Z</time>
</trkpt>
<trkpt lat="49.1813201084733" lon="9.506673775613308">
<ele>212.2</ele>
<time>2024-05-07T14:19:06Z</time>
</trkpt>
<trkpt lat="49.18137735687196" lon="9.506673775613308">
<ele>212.2</ele>
<time>2024-05-07T14:19:07Z</time>
</trkpt>
<trkpt lat="49.181430749595165" lon="9.506671847775578">
<ele>212.2</ele>
<time>2024-05-07T14:19:08Z</time>
</trkpt>
<trkpt lat="49.18148414231837" lon="9.506669919937847">
<ele>212.2</ele>
<time>2024-05-07T14:19:09Z</time>
</trkpt>
<trkpt lat="49.1815376188606" lon="9.506669919937847">
<ele>212.2</ele>
<time>2024-05-07T14:19:10Z</time>
</trkpt>
<trkpt lat="49.18159478344023" lon="9.506671847775578">
<ele>212.2</ele>
<time>2024-05-07T14:19:11Z</time>
</trkpt>
<trkpt lat="49.181648176163435" lon="9.506669919937847">
<ele>212.2</ele>
<time>2024-05-07T14:19:12Z</time>
</trkpt>
<trkpt lat="49.18170165270567" lon="9.506668075919151">
<ele>212.2</ele>
<time>2024-05-07T14:19:13Z</time>
</trkpt>
<trkpt lat="49.18175504542887" lon="9.506666148081422">
<ele>212.2</ele>
<time>2024-05-07T14:19:14Z</time>
</trkpt>
<trkpt lat="49.181808438152075" lon="9.506666148081422">
<ele>212.2</ele>
<time>2024-05-07T14:19:15Z</time>
</trkpt>
<trkpt lat="49.181865686550736" lon="9.506663298234344">
<ele>212.2</ele>
<time>2024-05-07T14:19:16Z</time>
</trkpt>
<trkpt lat="49.18191907927394" lon="9.506663298234344">
<ele>212</ele>
<time>2024-05-07T14:19:17Z</time>
</trkpt>
<trkpt lat="49.18197247199714" lon="9.506660448387263">
<ele>212</ele>
<time>2024-05-07T14:19:18Z</time>
</trkpt>
<trkpt lat="49.182025864720345" lon="9.506654664874077">
<ele>212</ele>
<time>2024-05-07T14:19:19Z</time>
</trkpt>
<trkpt lat="49.18207925744355" lon="9.506651815027">
<ele>212</ele>
<time>2024-05-07T14:19:20Z</time>
</trkpt>
<trkpt lat="49.18213265016675" lon="9.50664703734219">
<ele>212</ele>
<time>2024-05-07T14:19:21Z</time>
</trkpt>
<trkpt lat="49.18218989856541" lon="9.50664703734219">
<ele>212</ele>
<time>2024-05-07T14:19:22Z</time>
</trkpt>
<trkpt lat="49.18223566375673" lon="9.506661370396614">
<ele>211.8</ele>
<time>2024-05-07T14:19:23Z</time>
</trkpt>
<trkpt lat="49.182285284623504" lon="9.506674697622657">
<ele>211.8</ele>
<time>2024-05-07T14:19:24Z</time>
</trkpt>
<trkpt lat="49.182338677346706" lon="9.506688108667731">
<ele>211.8</ele>
<time>2024-05-07T14:19:25Z</time>
</trkpt>
<trkpt lat="49.18238829821348" lon="9.506694730371237">
<ele>211.8</ele>
<time>2024-05-07T14:19:26Z</time>
</trkpt>
<trkpt lat="49.182441690936685" lon="9.506689952686427">
<ele>211.6</ele>
<time>2024-05-07T14:19:27Z</time>
</trkpt>
<trkpt lat="49.18249122798443" lon="9.50668517500162">
<ele>211.6</ele>
<time>2024-05-07T14:19:28Z</time>
</trkpt>
<trkpt lat="49.18253707699478" lon="9.506681403145194">
<ele>211.6</ele>
<time>2024-05-07T14:19:29Z</time>
</trkpt>
<trkpt lat="49.18258661404252" lon="9.506679475307465">
<ele>211.6</ele>
<time>2024-05-07T14:19:30Z</time>
</trkpt>
<trkpt lat="49.18264000676572" lon="9.506673775613308">
<ele>211.6</ele>
<time>2024-05-07T14:19:31Z</time>
</trkpt>
<trkpt lat="49.1826896276325" lon="9.506660448387263">
<ele>211.6</ele>
<time>2024-05-07T14:19:32Z</time>
</trkpt>
<trkpt lat="49.182739248499274" lon="9.5066499710083">
<ele>211.6</ele>
<time>2024-05-07T14:19:33Z</time>
</trkpt>
<trkpt lat="49.18278501369059" lon="9.506634632125497">
<ele>211.6</ele>
<time>2024-05-07T14:19:34Z</time>
</trkpt>
<trkpt lat="49.182838406413794" lon="9.506623232737184">
<ele>211.6</ele>
<time>2024-05-07T14:19:35Z</time>
</trkpt>
<trkpt lat="49.18289179913699" lon="9.50661174952984">
<ele>211.6</ele>
<time>2024-05-07T14:19:36Z</time>
</trkpt>
<trkpt lat="49.18294142000377" lon="9.506600350141523">
<ele>211.6</ele>
<time>2024-05-07T14:19:37Z</time>
</trkpt>
<trkpt lat="49.18299095705152" lon="9.506587944924831">
<ele>211.6</ele>
<time>2024-05-07T14:19:38Z</time>
</trkpt>
<trkpt lat="49.18304057791829" lon="9.506576461717486">
<ele>211.6</ele>
<time>2024-05-07T14:19:39Z</time>
</trkpt>
<trkpt lat="49.18308634310961" lon="9.506563134491444">
<ele>211.6</ele>
<time>2024-05-07T14:19:40Z</time>
</trkpt>
<trkpt lat="49.18313596397638" lon="9.506543101742864">
<ele>211.6</ele>
<time>2024-05-07T14:19:41Z</time>
</trkpt>
<trkpt lat="49.1831817291677" lon="9.506526924669744">
<ele>211.4</ele>
<time>2024-05-07T14:19:42Z</time>
</trkpt>
<trkpt lat="49.183231350034475" lon="9.506513513624668">
<ele>211.4</ele>
<time>2024-05-07T14:19:43Z</time>
</trkpt>
<trkpt lat="49.18327711522579" lon="9.506502114236357">
<ele>211.4</ele>
<time>2024-05-07T14:19:44Z</time>
</trkpt>
<trkpt lat="49.18332288041711" lon="9.50649356469512">
<ele>211.4</ele>
<time>2024-05-07T14:19:45Z</time>
</trkpt>
<trkpt lat="49.183368645608425" lon="9.506480153650044">
<ele>211.6</ele>
<time>2024-05-07T14:19:46Z</time>
</trkpt>
<trkpt lat="49.183410638943315" lon="9.506468754261732">
<ele>211.6</ele>
<time>2024-05-07T14:19:47Z</time>
</trkpt>
<trkpt lat="49.183448776602745" lon="9.506455343216658">
<ele>211.6</ele>
<time>2024-05-07T14:19:48Z</time>
</trkpt>
<trkpt lat="49.18348305858672" lon="9.506438244134188">
<ele>211.6</ele>
<time>2024-05-07T14:19:49Z</time>
</trkpt>
<trkpt lat="49.18352119624615" lon="9.50641536153853">
<ele>211.6</ele>
<time>2024-05-07T14:19:50Z</time>
</trkpt>
<trkpt lat="49.18356318958104" lon="9.50638954527676">
<ele>211.6</ele>
<time>2024-05-07T14:19:51Z</time>
</trkpt>
<trkpt lat="49.183605182915926" lon="9.506368590518832">
<ele>211.6</ele>
<time>2024-05-07T14:19:52Z</time>
</trkpt>
<trkpt lat="49.18365471996367" lon="9.506344785913823">
<ele>211.6</ele>
<time>2024-05-07T14:19:53Z</time>
</trkpt>
<trkpt lat="49.183704340830445" lon="9.506318047642708">
<ele>211.4</ele>
<time>2024-05-07T14:19:54Z</time>
</trkpt>
<trkpt lat="49.18375773355365" lon="9.506284687668083">
<ele>211.4</ele>
<time>2024-05-07T14:19:55Z</time>
</trkpt>
<trkpt lat="49.18380735442042" lon="9.50625509954989">
<ele>211.2</ele>
<time>2024-05-07T14:19:56Z</time>
</trkpt>
<trkpt lat="49.183860747143626" lon="9.506221739575269">
<ele>211.2</ele>
<time>2024-05-07T14:19:57Z</time>
</trkpt>
<trkpt lat="49.18391413986683" lon="9.506188379600644">
<ele>211</ele>
<time>2024-05-07T14:19:58Z</time>
</trkpt>
<trkpt lat="49.18396753259003" lon="9.506151163950562">
<ele>210.8</ele>
<time>2024-05-07T14:19:59Z</time>
</trkpt>
<trkpt lat="49.184020925313234" lon="9.50611495412886">
<ele>210.8</ele>
<time>2024-05-07T14:20:00Z</time>
</trkpt>
<trkpt lat="49.18407440185547" lon="9.5060767326504">
<ele>210.6</ele>
<time>2024-05-07T14:20:01Z</time>
</trkpt>
<trkpt lat="49.18412393890321" lon="9.506038594990969">
<ele>210.4</ele>
<time>2024-05-07T14:20:02Z</time>
</trkpt>
<trkpt lat="49.18417355976999" lon="9.50600146315992">
<ele>210.2</ele>
<time>2024-05-07T14:20:03Z</time>
</trkpt>
<trkpt lat="49.18422695249319" lon="9.505966175347568">
<ele>210.2</ele>
<time>2024-05-07T14:20:04Z</time>
</trkpt>
<trkpt lat="49.18428034521639" lon="9.505929881706834">
<ele>210</ele>
<time>2024-05-07T14:20:05Z</time>
</trkpt>
<trkpt lat="49.18432996608317" lon="9.505889816209674">
<ele>209.8</ele>
<time>2024-05-07T14:20:06Z</time>
</trkpt>
<trkpt lat="49.18437950313091" lon="9.505849834531546">
<ele>209.6</ele>
<time>2024-05-07T14:20:07Z</time>
</trkpt>
<trkpt lat="49.18442912399769" lon="9.505815468728542">
<ele>209.4</ele>
<time>2024-05-07T14:20:08Z</time>
</trkpt>
<trkpt lat="49.18448251672089" lon="9.50578018091619">
<ele>209.2</ele>
<time>2024-05-07T14:20:09Z</time>
</trkpt>
<trkpt lat="49.18453213758767" lon="9.505744893103838">
<ele>209.2</ele>
<time>2024-05-07T14:20:10Z</time>
</trkpt>
<trkpt lat="49.18458553031087" lon="9.505706755444407">
<ele>209</ele>
<time>2024-05-07T14:20:11Z</time>
</trkpt>
<trkpt lat="49.18463892303407" lon="9.505675239488482">
<ele>209</ele>
<time>2024-05-07T14:20:12Z</time>
</trkpt>
<trkpt lat="49.184692315757275" lon="9.505651434883475">
<ele>209</ele>
<time>2024-05-07T14:20:13Z</time>
</trkpt>
<trkpt lat="49.18474570848048" lon="9.505638107657433">
<ele>209</ele>
<time>2024-05-07T14:20:14Z</time>
</trkpt>
<trkpt lat="49.18480295687914" lon="9.505626624450088">
<ele>209</ele>
<time>2024-05-07T14:20:15Z</time>
</trkpt>
<trkpt lat="49.184852577745914" lon="9.505620002746582">
<ele>209</ele>
<time>2024-05-07T14:20:16Z</time>
</trkpt>
<trkpt lat="49.18490211479366" lon="9.505615225061774">
<ele>209</ele>
<time>2024-05-07T14:20:17Z</time>
</trkpt>
<trkpt lat="49.18495559133589" lon="9.505606591701508">
<ele>209.2</ele>
<time>2024-05-07T14:20:18Z</time>
</trkpt>
<trkpt lat="49.18500512838364" lon="9.5056018140167">
<ele>209.2</ele>
<time>2024-05-07T14:20:19Z</time>
</trkpt>
<trkpt lat="49.185047121718526" lon="9.505591336637735">
<ele>209.2</ele>
<time>2024-05-07T14:20:20Z</time>
</trkpt>
<trkpt lat="49.18509288690984" lon="9.505573231726885">
<ele>209.2</ele>
<time>2024-05-07T14:20:21Z</time>
</trkpt>
<trkpt lat="49.18513488024473" lon="9.505555126816034">
<ele>209.4</ele>
<time>2024-05-07T14:20:22Z</time>
</trkpt>
<trkpt lat="49.185188272967935" lon="9.505526460707188">
<ele>209.4</ele>
<time>2024-05-07T14:20:23Z</time>
</trkpt>
<trkpt lat="49.18523781001568" lon="9.505496956408024">
<ele>209.4</ele>
<time>2024-05-07T14:20:24Z</time>
</trkpt>
<trkpt lat="49.185287430882454" lon="9.505473067983983">
<ele>209.4</ele>
<time>2024-05-07T14:20:25Z</time>
</trkpt>
<trkpt lat="49.18533319607377" lon="9.505450185388328">
<ele>209.2</ele>
<time>2024-05-07T14:20:26Z</time>
</trkpt>
<trkpt lat="49.18537518940866" lon="9.505419675260782">
<ele>209.2</ele>
<time>2024-05-07T14:20:27Z</time>
</trkpt>
<trkpt lat="49.1854247264564" lon="9.50538346543908">
<ele>209.2</ele>
<time>2024-05-07T14:20:28Z</time>
</trkpt>
<trkpt lat="49.18547057546675" lon="9.50534532777965">
<ele>209</ele>
<time>2024-05-07T14:20:29Z</time>
</trkpt>
<trkpt lat="49.18551248498261" lon="9.505292857065797">
<ele>209</ele>
<time>2024-05-07T14:20:30Z</time>
</trkpt>
<trkpt lat="49.1855544783175" lon="9.505236614495516">
<ele>209</ele>
<time>2024-05-07T14:20:31Z</time>
</trkpt>
<trkpt lat="49.18559261597693" lon="9.505176516249776">
<ele>208.8</ele>
<time>2024-05-07T14:20:32Z</time>
</trkpt>
<trkpt lat="49.18563460931182" lon="9.505114490166306">
<ele>208.8</ele>
<time>2024-05-07T14:20:33Z</time>
</trkpt>
<trkpt lat="49.18566889129579" lon="9.505051542073488">
<ele>208.8</ele>
<time>2024-05-07T14:20:34Z</time>
</trkpt>
<trkpt lat="49.185699401423335" lon="9.50499152764678">
<ele>209</ele>
<time>2024-05-07T14:20:35Z</time>
</trkpt>
<trkpt lat="49.18572613969445" lon="9.504935201257467">
<ele>209</ele>
<time>2024-05-07T14:20:36Z</time>
</trkpt>
<trkpt lat="49.18574902229011" lon="9.504877030849457">
<ele>209</ele>
<time>2024-05-07T14:20:37Z</time>
</trkpt>
<trkpt lat="49.18577190488577" lon="9.504810310900211">
<ele>209</ele>
<time>2024-05-07T14:20:38Z</time>
</trkpt>
<trkpt lat="49.185791015625" lon="9.504745434969664">
<ele>209</ele>
<time>2024-05-07T14:20:39Z</time>
</trkpt>
<trkpt lat="49.18581389822066" lon="9.504681564867496">
<ele>209</ele>
<time>2024-05-07T14:20:40Z</time>
</trkpt>
<trkpt lat="49.18583678081632" lon="9.504619538784029">
<ele>209</ele>
<time>2024-05-07T14:20:41Z</time>
</trkpt>
<trkpt lat="49.185859663411975" lon="9.504560446366668">
<ele>209</ele>
<time>2024-05-07T14:20:42Z</time>
</trkpt>
<trkpt lat="49.18588254600763" lon="9.504501270130277">
<ele>209</ele>
<time>2024-05-07T14:20:43Z</time>
</trkpt>
<trkpt lat="49.18590542860329" lon="9.504443099722266">
<ele>209</ele>
<time>2024-05-07T14:20:44Z</time>
</trkpt>
<trkpt lat="49.18593208305538" lon="9.504381157457829">
<ele>209</ele>
<time>2024-05-07T14:20:45Z</time>
</trkpt>
<trkpt lat="49.18596267700195" lon="9.50431820936501">
<ele>209</ele>
<time>2024-05-07T14:20:46Z</time>
</trkpt>
<trkpt lat="49.18598555959761" lon="9.504255261272192">
<ele>209</ele>
<time>2024-05-07T14:20:47Z</time>
</trkpt>
<trkpt lat="49.1860122140497" lon="9.504188457503917">
<ele>209</ele>
<time>2024-05-07T14:20:48Z</time>
</trkpt>
<trkpt lat="49.186035096645355" lon="9.504117965698242">
<ele>208.8</ele>
<time>2024-05-07T14:20:49Z</time>
</trkpt>
<trkpt lat="49.18606183491647" lon="9.504050239920616">
<ele>208.8</ele>
<time>2024-05-07T14:20:50Z</time>
</trkpt>
<trkpt lat="49.18608848936856" lon="9.503978658467531">
<ele>208.8</ele>
<time>2024-05-07T14:20:51Z</time>
</trkpt>
<trkpt lat="49.1861189994961" lon="9.50390338897705">
<ele>208.8</ele>
<time>2024-05-07T14:20:52Z</time>
</trkpt>
<trkpt lat="49.186153365299106" lon="9.503827029839158">
<ele>208.6</ele>
<time>2024-05-07T14:20:53Z</time>
</trkpt>
<trkpt lat="49.18618387542665" lon="9.503753604367375">
<ele>208.6</ele>
<time>2024-05-07T14:20:54Z</time>
</trkpt>
<trkpt lat="49.18621824122965" lon="9.503683028742673">
<ele>208.8</ele>
<time>2024-05-07T14:20:55Z</time>
</trkpt>
<trkpt lat="49.1862487513572" lon="9.503611531108618">
<ele>208.8</ele>
<time>2024-05-07T14:20:56Z</time>
</trkpt>
<trkpt lat="49.18628303334117" lon="9.503541877493262">
<ele>209</ele>
<time>2024-05-07T14:20:57Z</time>
</trkpt>
<trkpt lat="49.18632125481963" lon="9.503475157544017">
<ele>209.2</ele>
<time>2024-05-07T14:20:58Z</time>
</trkpt>
<trkpt lat="49.186351764947176" lon="9.503413131460547">
<ele>209.4</ele>
<time>2024-05-07T14:20:59Z</time>
</trkpt>
<trkpt lat="49.18638604693115" lon="9.50335311703384">
<ele>209.4</ele>
<time>2024-05-07T14:21:00Z</time>
</trkpt>
<trkpt lat="49.18642418459058" lon="9.503296790644526">
<ele>209.6</ele>
<time>2024-05-07T14:21:01Z</time>
</trkpt>
<trkpt lat="49.18646232225001" lon="9.503245325759051">
<ele>209.6</ele>
<time>2024-05-07T14:21:02Z</time>
</trkpt>
<trkpt lat="49.18650054372847" lon="9.5031928550452">
<ele>209.8</ele>
<time>2024-05-07T14:21:03Z</time>
</trkpt>
<trkpt lat="49.18653482571244" lon="9.503143234178424">
<ele>210</ele>
<time>2024-05-07T14:21:04Z</time>
</trkpt>
<trkpt lat="49.18657681904733" lon="9.503098474815488">
<ele>210.2</ele>
<time>2024-05-07T14:21:05Z</time>
</trkpt>
<trkpt lat="49.18661872856319" lon="9.503061259165406">
<ele>210.4</ele>
<time>2024-05-07T14:21:06Z</time>
</trkpt>
<trkpt lat="49.18666457757354" lon="9.503027899190784">
<ele>210.6</ele>
<time>2024-05-07T14:21:07Z</time>
</trkpt>
<trkpt lat="49.186706487089396" lon="9.503002166748049">
<ele>210.8</ele>
<time>2024-05-07T14:21:08Z</time>
</trkpt>
<trkpt lat="49.186744624748826" lon="9.5029735006392">
<ele>211</ele>
<time>2024-05-07T14:21:09Z</time>
</trkpt>
<trkpt lat="49.18677513487637" lon="9.502944918349383">
<ele>211.2</ele>
<time>2024-05-07T14:21:10Z</time>
</trkpt>
<trkpt lat="49.186805645003915" lon="9.502918180078268">
<ele>211.4</ele>
<time>2024-05-07T14:21:11Z</time>
</trkpt>
<trkpt lat="49.18684386648238" lon="9.502891525626184">
<ele>211.4</ele>
<time>2024-05-07T14:21:12Z</time>
</trkpt>
<trkpt lat="49.186885775998235" lon="9.502864787355064">
<ele>211.6</ele>
<time>2024-05-07T14:21:13Z</time>
</trkpt>
<trkpt lat="49.186923913657665" lon="9.502839976921678">
<ele>211.6</ele>
<time>2024-05-07T14:21:14Z</time>
</trkpt>
<trkpt lat="49.18695827946067" lon="9.502808544784784">
<ele>211.8</ele>
<time>2024-05-07T14:21:15Z</time>
</trkpt>
<trkpt lat="49.18700027279556" lon="9.502779878675938">
<ele>211.8</ele>
<time>2024-05-07T14:21:16Z</time>
</trkpt>
<trkpt lat="49.18703841045499" lon="9.502751296386124">
<ele>211.8</ele>
<time>2024-05-07T14:21:17Z</time>
</trkpt>
<trkpt lat="49.187080319970846" lon="9.502717014402153">
<ele>211.8</ele>
<time>2024-05-07T14:21:18Z</time>
</trkpt>
<trkpt lat="49.187122313305736" lon="9.50267787091434">
<ele>211.8</ele>
<time>2024-05-07T14:21:19Z</time>
</trkpt>
<trkpt lat="49.187160450965166" lon="9.502648282796144">
<ele>211.8</ele>
<time>2024-05-07T14:21:20Z</time>
</trkpt>
<trkpt lat="49.187202444300056" lon="9.50262162834406">
<ele>211.8</ele>
<time>2024-05-07T14:21:21Z</time>
</trkpt>
<trkpt lat="49.187240581959486" lon="9.502594890072942">
<ele>211.8</ele>
<time>2024-05-07T14:21:22Z</time>
</trkpt>
<trkpt lat="49.187282491475344" lon="9.502565301954746">
<ele>211.8</ele>
<time>2024-05-07T14:21:23Z</time>
</trkpt>
<trkpt lat="49.18731685727835" lon="9.502532947808504">
<ele>211.8</ele>
<time>2024-05-07T14:21:24Z</time>
</trkpt>
<trkpt lat="49.18735499493778" lon="9.502505287528038">
<ele>211.8</ele>
<time>2024-05-07T14:21:25Z</time>
</trkpt>
<trkpt lat="49.18738936074078" lon="9.502476621419191">
<ele>211.8</ele>
<time>2024-05-07T14:21:26Z</time>
</trkpt>
<trkpt lat="49.18742749840021" lon="9.502449966967106">
<ele>211.8</ele>
<time>2024-05-07T14:21:27Z</time>
</trkpt>
<trkpt lat="49.18746178038418" lon="9.502429934218526">
<ele>211.8</ele>
<time>2024-05-07T14:21:28Z</time>
</trkpt>
<trkpt lat="49.1874885186553" lon="9.502414679154754">
<ele>211.6</ele>
<time>2024-05-07T14:21:29Z</time>
</trkpt>
<trkpt lat="49.18751525692642" lon="9.5023984182626">
<ele>211.4</ele>
<time>2024-05-07T14:21:30Z</time>
</trkpt>
<trkpt lat="49.18753428384662" lon="9.502385091036558">
<ele>211.4</ele>
<time>2024-05-07T14:21:31Z</time>
</trkpt>
<trkpt lat="49.18754953891039" lon="9.502374613657594">
<ele>211.2</ele>
<time>2024-05-07T14:21:32Z</time>
</trkpt>
<trkpt lat="49.187557166442275" lon="9.502363130450249">
<ele>211</ele>
<time>2024-05-07T14:21:33Z</time>
</trkpt>
<trkpt lat="49.187561022117734" lon="9.502363130450249">
<ele>211</ele>
<time>2024-05-07T14:21:34Z</time>
</trkpt>
<trkpt lat="49.187561022117734" lon="9.502361286431553">
<ele>210.6</ele>
<time>2024-05-07T14:21:35Z</time>
</trkpt>
<trkpt lat="49.18756479397416" lon="9.502361286431553">
<ele>210.6</ele>
<time>2024-05-07T14:21:36Z</time>
</trkpt>
<trkpt lat="49.18756479397416" lon="9.50236028060317">
<ele>210.6</ele>
<time>2024-05-07T14:21:37Z</time>
</trkpt>
<trkpt lat="49.18756479397416" lon="9.502358436584473">
<ele>210.6</ele>
<time>2024-05-07T14:21:38Z</time>
</trkpt>
<trkpt lat="49.18756479397416" lon="9.502356508746743">
<ele>210.6</ele>
<time>2024-05-07T14:21:39Z</time>
</trkpt>
<trkpt lat="49.18756479397416" lon="9.502353658899665">
<ele>210.6</ele>
<time>2024-05-07T14:21:40Z</time>
</trkpt>
<trkpt lat="49.18756864964962" lon="9.502353658899665">
<ele>210.6</ele>
<time>2024-05-07T14:21:42Z</time>
</trkpt>
<trkpt lat="49.18756864964962" lon="9.502351731061935">
<ele>210.6</ele>
<time>2024-05-07T14:21:52Z</time>
</trkpt>
<trkpt lat="49.18756864964962" lon="9.502349803224206">
<ele>210.8</ele>
<time>2024-05-07T14:21:57Z</time>
</trkpt>
<trkpt lat="49.18756864964962" lon="9.502347875386477">
<ele>210.8</ele>
<time>2024-05-07T14:22:00Z</time>
</trkpt>
<trkpt lat="49.18756864964962" lon="9.502346953377128">
<ele>210.8</ele>
<time>2024-05-07T14:22:04Z</time>
</trkpt>
<trkpt lat="49.18756864964962" lon="9.502345025539398">
<ele>211</ele>
<time>2024-05-07T14:22:09Z</time>
</trkpt>
<trkpt lat="49.18757242150605" lon="9.502345025539398">
<ele>211</ele>
<time>2024-05-07T14:22:14Z</time>
</trkpt>
<trkpt lat="49.187576277181506" lon="9.502345025539398">
<ele>211</ele>
<time>2024-05-07T14:22:27Z</time>
</trkpt>
<trkpt lat="49.187576277181506" lon="9.502346953377128">
<ele>211</ele>
<time>2024-05-07T14:22:33Z</time>
</trkpt>
<trkpt lat="49.187576277181506" lon="9.502345025539398">
<ele>211</ele>
<time>2024-05-07T14:22:34Z</time>
</trkpt>
<trkpt lat="49.18758004903793" lon="9.502346953377128">
<ele>211</ele>
<time>2024-05-07T14:22:36Z</time>
</trkpt>
<trkpt lat="49.18758004903793" lon="9.502345025539398">
<ele>211</ele>
<time>2024-05-07T14:22:37Z</time>
</trkpt>
<trkpt lat="49.18758004903793" lon="9.502343097701669">
<ele>211</ele>
<time>2024-05-07T14:22:42Z</time>
</trkpt>
<trkpt lat="49.18758004903793" lon="9.502345025539398">
<ele>211.2</ele>
<time>2024-05-07T14:22:44Z</time>
</trkpt>
<trkpt lat="49.18758004903793" lon="9.502343097701669">
<ele>211.2</ele>
<time>2024-05-07T14:22:52Z</time>
</trkpt>
<trkpt lat="49.18758004903793" lon="9.502345025539398">
<ele>211.2</ele>
<time>2024-05-07T14:22:55Z</time>
</trkpt>
<trkpt lat="49.18758390471339" lon="9.502343097701669">
<ele>211.2</ele>
<time>2024-05-07T14:22:56Z</time>
</trkpt>
<trkpt lat="49.18758390471339" lon="9.502345025539398">
<ele>211</ele>
<time>2024-05-07T14:23:31Z</time>
</trkpt>
<trkpt lat="49.18758390471339" lon="9.502343097701669">
<ele>211</ele>
<time>2024-05-07T14:23:38Z</time>
</trkpt>
<trkpt lat="49.18758390471339" lon="9.502341253682973">
<ele>211</ele>
<time>2024-05-07T14:23:41Z</time>
</trkpt>
<trkpt lat="49.18758390471339" lon="9.50234024785459">
<ele>210.8</ele>
<time>2024-05-07T14:23:46Z</time>
</trkpt>
<trkpt lat="49.18758004903793" lon="9.50234024785459">
<ele>210.8</ele>
<time>2024-05-07T14:23:53Z</time>
</trkpt>
<trkpt lat="49.18758004903793" lon="9.502338403835893">
<ele>210.8</ele>
<time>2024-05-07T14:23:54Z</time>
</trkpt>
<trkpt lat="49.18758390471339" lon="9.502338403835893">
<ele>210.6</ele>
<time>2024-05-07T14:23:59Z</time>
</trkpt>
<trkpt lat="49.18758390471339" lon="9.502336475998163">
<ele>210.6</ele>
<time>2024-05-07T14:24:00Z</time>
</trkpt>
<trkpt lat="49.18758390471339" lon="9.502334548160434">
<ele>210.6</ele>
<time>2024-05-07T14:24:09Z</time>
</trkpt>
<trkpt lat="49.18758390471339" lon="9.502333626151083">
<ele>210.6</ele>
<time>2024-05-07T14:24:15Z</time>
</trkpt>
<trkpt lat="49.18758390471339" lon="9.502334548160434">
<ele>210.6</ele>
<time>2024-05-07T14:24:26Z</time>
</trkpt>
<trkpt lat="49.18758390471339" lon="9.502333626151083">
<ele>210.6</ele>
<time>2024-05-07T14:24:27Z</time>
</trkpt>
<trkpt lat="49.18758390471339" lon="9.502334548160434">
<ele>210.6</ele>
<time>2024-05-07T14:24:29Z</time>
</trkpt>
<trkpt lat="49.18758390471339" lon="9.502336475998163">
<ele>210.4</ele>
<time>2024-05-07T14:24:34Z</time>
</trkpt>
<trkpt lat="49.18758390471339" lon="9.502338403835893">
<ele>210.4</ele>
<time>2024-05-07T14:24:42Z</time>
</trkpt>
<trkpt lat="49.18758004903793" lon="9.50234024785459">
<ele>210.4</ele>
<time>2024-05-07T14:24:54Z</time>
</trkpt>
<trkpt lat="49.18758004903793" lon="9.502341253682973">
<ele>210.4</ele>
<time>2024-05-07T14:24:59Z</time>
</trkpt>
<trkpt lat="49.18758004903793" lon="9.50234024785459">
<ele>210.4</ele>
<time>2024-05-07T14:25:02Z</time>
</trkpt>
<trkpt lat="49.18758004903793" lon="9.502341253682973">
<ele>210.4</ele>
<time>2024-05-07T14:25:28Z</time>
</trkpt>
<trkpt lat="49.187576277181506" lon="9.502341253682973">
<ele>210.4</ele>
<time>2024-05-07T14:25:29Z</time>
</trkpt>
<trkpt lat="49.187576277181506" lon="9.502343097701669">
<ele>210.6</ele>
<time>2024-05-07T14:25:31Z</time>
</trkpt>
<trkpt lat="49.187576277181506" lon="9.502345025539398">
<ele>210.6</ele>
<time>2024-05-07T14:25:36Z</time>
</trkpt>
<trkpt lat="49.187576277181506" lon="9.502343097701669">
<ele>210.6</ele>
<time>2024-05-07T14:25:52Z</time>
</trkpt>
<trkpt lat="49.18757242150605" lon="9.502343097701669">
<ele>210.6</ele>
<time>2024-05-07T14:25:53Z</time>
</trkpt>
<trkpt lat="49.187576277181506" lon="9.502343097701669">
<ele>210.6</ele>
<time>2024-05-07T14:26:03Z</time>
</trkpt>
<trkpt lat="49.187576277181506" lon="9.502345025539398">
<ele>210.8</ele>
<time>2024-05-07T14:26:08Z</time>
</trkpt>
<trkpt lat="49.187576277181506" lon="9.502346953377128">
<ele>210.8</ele>
<time>2024-05-07T14:26:18Z</time>
</trkpt>
<trkpt lat="49.18758004903793" lon="9.502345025539398">
<ele>210.8</ele>
<time>2024-05-07T14:26:21Z</time>
</trkpt>
<trkpt lat="49.18758004903793" lon="9.502346953377128">
<ele>210.8</ele>
<time>2024-05-07T14:26:24Z</time>
</trkpt>
<trkpt lat="49.18758004903793" lon="9.502347875386477">
<ele>210.8</ele>
<time>2024-05-07T14:26:31Z</time>
</trkpt>
<trkpt lat="49.18758390471339" lon="9.502347875386477">
<ele>210.6</ele>
<time>2024-05-07T14:26:47Z</time>
</trkpt>
<trkpt lat="49.18758390471339" lon="9.502349803224206">
<ele>210.6</ele>
<time>2024-05-07T14:26:52Z</time>
</trkpt>
<trkpt lat="49.18758390471339" lon="9.502351731061935">
<ele>210.6</ele>
<time>2024-05-07T14:26:56Z</time>
</trkpt>
<trkpt lat="49.18758004903793" lon="9.502351731061935">
<ele>210.6</ele>
<time>2024-05-07T14:27:01Z</time>
</trkpt>
<trkpt lat="49.18758004903793" lon="9.502349803224206">
<ele>210.6</ele>
<time>2024-05-07T14:27:02Z</time>
</trkpt>
<trkpt lat="49.18758004903793" lon="9.502351731061935">
<ele>210.4</ele>
<time>2024-05-07T14:27:06Z</time>
</trkpt>
<trkpt lat="49.18758004903793" lon="9.502353658899665">
<ele>210.4</ele>
<time>2024-05-07T14:27:12Z</time>
</trkpt>
<trkpt lat="49.18758004903793" lon="9.502354580909014">
<ele>210.4</ele>
<time>2024-05-07T14:27:18Z</time>
</trkpt>
<trkpt lat="49.18758004903793" lon="9.502356508746743">
<ele>210.4</ele>
<time>2024-05-07T14:27:23Z</time>
</trkpt>
<trkpt lat="49.187576277181506" lon="9.502356508746743">
<ele>210.4</ele>
<time>2024-05-07T14:27:25Z</time>
</trkpt>
<trkpt lat="49.187576277181506" lon="9.502358436584473">
<ele>210.4</ele>
<time>2024-05-07T14:27:26Z</time>
</trkpt>
<trkpt lat="49.187576277181506" lon="9.50236028060317">
<ele>210.4</ele>
<time>2024-05-07T14:27:34Z</time>
</trkpt>
<trkpt lat="49.187576277181506" lon="9.502361286431553">
<ele>210.4</ele>
<time>2024-05-07T14:27:39Z</time>
</trkpt>
<trkpt lat="49.18757242150605" lon="9.502361286431553">
<ele>210.4</ele>
<time>2024-05-07T14:27:43Z</time>
</trkpt>
<trkpt lat="49.18757242150605" lon="9.502363130450249">
<ele>210.4</ele>
<time>2024-05-07T14:27:50Z</time>
</trkpt>
<trkpt lat="49.18757242150605" lon="9.502361286431553">
<ele>210.4</ele>
<time>2024-05-07T14:28:10Z</time>
</trkpt>
<trkpt lat="49.187576277181506" lon="9.502361286431553">
<ele>210.4</ele>
<time>2024-05-07T14:28:16Z</time>
</trkpt>
<trkpt lat="49.187576277181506" lon="9.50236028060317">
<ele>210.4</ele>
<time>2024-05-07T14:28:33Z</time>
</trkpt>
<trkpt lat="49.187576277181506" lon="9.502361286431553">
<ele>210.4</ele>
<time>2024-05-07T14:28:41Z</time>
</trkpt>
<trkpt lat="49.187576277181506" lon="9.502363130450249">
<ele>210.4</ele>
<time>2024-05-07T14:28:44Z</time>
</trkpt>
<trkpt lat="49.187576277181506" lon="9.502361286431553">
<ele>210.4</ele>
<time>2024-05-07T14:28:45Z</time>
</trkpt>
<trkpt lat="49.187576277181506" lon="9.502363130450249">
<ele>210.4</ele>
<time>2024-05-07T14:28:49Z</time>
</trkpt>
<trkpt lat="49.187576277181506" lon="9.502365058287978">
<ele>210.4</ele>
<time>2024-05-07T14:28:52Z</time>
</trkpt>
<trkpt lat="49.187576277181506" lon="9.502363130450249">
<ele>210.4</ele>
<time>2024-05-07T14:28:53Z</time>
</trkpt>
<trkpt lat="49.187576277181506" lon="9.502361286431553">
<ele>210.4</ele>
<time>2024-05-07T14:28:54Z</time>
</trkpt>
<trkpt lat="49.187576277181506" lon="9.50236028060317">
<ele>210.4</ele>
<time>2024-05-07T14:28:55Z</time>
</trkpt>
<trkpt lat="49.187576277181506" lon="9.502358436584473">
<ele>210.4</ele>
<time>2024-05-07T14:28:57Z</time>
</trkpt>
<trkpt lat="49.187576277181506" lon="9.50236028060317">
<ele>210.4</ele>
<time>2024-05-07T14:28:58Z</time>
</trkpt>
<trkpt lat="49.18758390471339" lon="9.502356508746743">
<ele>210.4</ele>
<time>2024-05-07T14:28:59Z</time>
</trkpt>
<trkpt lat="49.187595304101706" lon="9.502354580909014">
<ele>210.4</ele>
<time>2024-05-07T14:29:00Z</time>
</trkpt>
<trkpt lat="49.18761055916548" lon="9.502351731061935">
<ele>210.4</ele>
<time>2024-05-07T14:29:01Z</time>
</trkpt>
<trkpt lat="49.18762966990471" lon="9.502356508746743">
<ele>210.4</ele>
<time>2024-05-07T14:29:02Z</time>
</trkpt>
<trkpt lat="49.18765255250037" lon="9.502353658899665">
<ele>210.4</ele>
<time>2024-05-07T14:29:03Z</time>
</trkpt>
<trkpt lat="49.187675435096025" lon="9.50234024785459">
<ele>210.4</ele>
<time>2024-05-07T14:29:04Z</time>
</trkpt>
<trkpt lat="49.18770217336714" lon="9.502327842637897">
<ele>210.4</ele>
<time>2024-05-07T14:29:05Z</time>
</trkpt>
<trkpt lat="49.18773268349469" lon="9.502307809889317">
<ele>210.4</ele>
<time>2024-05-07T14:29:06Z</time>
</trkpt>
<trkpt lat="49.18775933794677" lon="9.502286855131388">
<ele>210.4</ele>
<time>2024-05-07T14:29:07Z</time>
</trkpt>
<trkpt lat="49.187793703749776" lon="9.502269672229886">
<ele>210.4</ele>
<time>2024-05-07T14:29:08Z</time>
</trkpt>
<trkpt lat="49.187831841409206" lon="9.502249639481306">
<ele>210.4</ele>
<time>2024-05-07T14:29:09Z</time>
</trkpt>
<trkpt lat="49.18786620721221" lon="9.502229690551758">
<ele>210.4</ele>
<time>2024-05-07T14:29:10Z</time>
</trkpt>
<trkpt lat="49.18790048919618" lon="9.502211501821876">
<ele>210.4</ele>
<time>2024-05-07T14:29:11Z</time>
</trkpt>
<trkpt lat="49.18793862685561" lon="9.502195324748756">
<ele>210.4</ele>
<time>2024-05-07T14:29:12Z</time>
</trkpt>
<trkpt lat="49.18797676451504" lon="9.502175292000176">
<ele>210.4</ele>
<time>2024-05-07T14:29:13Z</time>
</trkpt>
<trkpt lat="49.18801490217447" lon="9.502155259251596">
<ele>210.4</ele>
<time>2024-05-07T14:29:14Z</time>
</trkpt>
<trkpt lat="49.18805689550936" lon="9.502136148512363">
<ele>210.4</ele>
<time>2024-05-07T14:29:15Z</time>
</trkpt>
<trkpt lat="49.18809503316879" lon="9.502117121592164">
<ele>210.4</ele>
<time>2024-05-07T14:29:16Z</time>
</trkpt>
<trkpt lat="49.18813317082822" lon="9.502095161005856">
<ele>210.4</ele>
<time>2024-05-07T14:29:17Z</time>
</trkpt>
<trkpt lat="49.18817516416311" lon="9.502075128257276">
<ele>210.4</ele>
<time>2024-05-07T14:29:18Z</time>
</trkpt>
<trkpt lat="49.18821330182254" lon="9.502055095508696">
<ele>210.4</ele>
<time>2024-05-07T14:29:19Z</time>
</trkpt>
<trkpt lat="49.18825529515743" lon="9.502036990597844">
<ele>210.4</ele>
<time>2024-05-07T14:29:20Z</time>
</trkpt>
<trkpt lat="49.18829343281686" lon="9.502015113830566">
<ele>210.4</ele>
<time>2024-05-07T14:29:21Z</time>
</trkpt>
<trkpt lat="49.18833534233272" lon="9.501995081081986">
<ele>210.4</ele>
<time>2024-05-07T14:29:22Z</time>
</trkpt>
<trkpt lat="49.18837733566761" lon="9.501973120495675">
<ele>210.4</ele>
<time>2024-05-07T14:29:23Z</time>
</trkpt>
<trkpt lat="49.18842310085893" lon="9.501955015584826">
<ele>210.4</ele>
<time>2024-05-07T14:29:24Z</time>
</trkpt>
<trkpt lat="49.188465094193816" lon="9.501934982836246">
<ele>210.4</ele>
<time>2024-05-07T14:29:25Z</time>
</trkpt>
<trkpt lat="49.188507003709674" lon="9.501911094412208">
<ele>210.4</ele>
<time>2024-05-07T14:29:26Z</time>
</trkpt>
<trkpt lat="49.188545225188136" lon="9.501886367797852">
<ele>210.6</ele>
<time>2024-05-07T14:29:27Z</time>
</trkpt>
<trkpt lat="49.18859099037945" lon="9.501861557364464">
<ele>210.6</ele>
<time>2024-05-07T14:29:28Z</time>
</trkpt>
<trkpt lat="49.18863289989531" lon="9.501836746931076">
<ele>210.8</ele>
<time>2024-05-07T14:29:29Z</time>
</trkpt>
<trkpt lat="49.1886748932302" lon="9.501812858507035">
<ele>210.8</ele>
<time>2024-05-07T14:29:30Z</time>
</trkpt>
<trkpt lat="49.18872065842152" lon="9.50178997591138">
<ele>210.8</ele>
<time>2024-05-07T14:29:31Z</time>
</trkpt>
<trkpt lat="49.18876642361283" lon="9.5017680991441">
<ele>210.8</ele>
<time>2024-05-07T14:29:32Z</time>
</trkpt>
<trkpt lat="49.18881218880415" lon="9.501743288710712">
<ele>210.8</ele>
<time>2024-05-07T14:29:33Z</time>
</trkpt>
<trkpt lat="49.188857953995466" lon="9.501718478277326">
<ele>211</ele>
<time>2024-05-07T14:29:34Z</time>
</trkpt>
<trkpt lat="49.188903803005815" lon="9.501691740006208">
<ele>211</ele>
<time>2024-05-07T14:29:35Z</time>
</trkpt>
<trkpt lat="49.18894956819713" lon="9.5016679354012">
<ele>211</ele>
<time>2024-05-07T14:29:36Z</time>
</trkpt>
<trkpt lat="49.18899147771299" lon="9.501645052805545">
<ele>211</ele>
<time>2024-05-07T14:29:37Z</time>
</trkpt>
<trkpt lat="49.189037242904305" lon="9.501618314534426">
<ele>211</ele>
<time>2024-05-07T14:29:38Z</time>
</trkpt>
<trkpt lat="49.189083091914654" lon="9.50159358792007">
<ele>211</ele>
<time>2024-05-07T14:29:39Z</time>
</trkpt>
<trkpt lat="49.18912885710597" lon="9.501564921811225">
<ele>211</ele>
<time>2024-05-07T14:29:40Z</time>
</trkpt>
<trkpt lat="49.18917462229729" lon="9.5015315618366">
<ele>211</ele>
<time>2024-05-07T14:29:41Z</time>
</trkpt>
<trkpt lat="49.18922038748861" lon="9.501502979546784">
<ele>211</ele>
<time>2024-05-07T14:29:42Z</time>
</trkpt>
<trkpt lat="49.18926615267992" lon="9.501480096951129">
<ele>211</ele>
<time>2024-05-07T14:29:43Z</time>
</trkpt>
<trkpt lat="49.18931191787124" lon="9.50145335868001">
<ele>211</ele>
<time>2024-05-07T14:29:44Z</time>
</trkpt>
<trkpt lat="49.18935768306255" lon="9.501428548246622">
<ele>211</ele>
<time>2024-05-07T14:29:45Z</time>
</trkpt>
<trkpt lat="49.18939967639744" lon="9.501401893794537">
<ele>211</ele>
<time>2024-05-07T14:29:46Z</time>
</trkpt>
<trkpt lat="49.18944544158876" lon="9.501379933208227">
<ele>211</ele>
<time>2024-05-07T14:29:47Z</time>
</trkpt>
<trkpt lat="49.18949120678008" lon="9.501357050612569">
<ele>211</ele>
<time>2024-05-07T14:29:48Z</time>
</trkpt>
<trkpt lat="49.18953697197139" lon="9.50133509002626">
<ele>211</ele>
<time>2024-05-07T14:29:49Z</time>
</trkpt>
<trkpt lat="49.18958282098174" lon="9.50131312943995">
<ele>211</ele>
<time>2024-05-07T14:29:50Z</time>
</trkpt>
<trkpt lat="49.18962858617306" lon="9.501290246844292">
<ele>211</ele>
<time>2024-05-07T14:29:51Z</time>
</trkpt>
<trkpt lat="49.189670495688915" lon="9.501268370077014">
<ele>210.8</ele>
<time>2024-05-07T14:29:52Z</time>
</trkpt>
<trkpt lat="49.189712489023805" lon="9.501248337328434">
<ele>210.8</ele>
<time>2024-05-07T14:29:53Z</time>
</trkpt>
<trkpt lat="49.189754482358694" lon="9.501228304579854">
<ele>211</ele>
<time>2024-05-07T14:29:54Z</time>
</trkpt>
<trkpt lat="49.189792620018125" lon="9.501208271831274">
<ele>211</ele>
<time>2024-05-07T14:29:55Z</time>
</trkpt>
<trkpt lat="49.189830757677555" lon="9.501188239082694">
<ele>211.2</ele>
<time>2024-05-07T14:29:56Z</time>
</trkpt>
<trkpt lat="49.189868895336986" lon="9.501166278496385">
<ele>211.4</ele>
<time>2024-05-07T14:29:57Z</time>
</trkpt>
<trkpt lat="49.18990317732096" lon="9.501145323738456">
<ele>211.4</ele>
<time>2024-05-07T14:29:58Z</time>
</trkpt>
<trkpt lat="49.18993754312396" lon="9.501125290989876">
<ele>211.6</ele>
<time>2024-05-07T14:29:59Z</time>
</trkpt>
<trkpt lat="49.18997568078339" lon="9.501106180250645">
<ele>211.8</ele>
<time>2024-05-07T14:30:00Z</time>
</trkpt>
<trkpt lat="49.19001381844282" lon="9.501088075339794">
<ele>212</ele>
<time>2024-05-07T14:30:01Z</time>
</trkpt>
<trkpt lat="49.19005195610225" lon="9.501066198572516">
<ele>212</ele>
<time>2024-05-07T14:30:02Z</time>
</trkpt>
<trkpt lat="49.190090177580714" lon="9.501047087833284">
<ele>212.2</ele>
<time>2024-05-07T14:30:03Z</time>
</trkpt>
<trkpt lat="49.190128315240145" lon="9.501023283228278">
<ele>212.4</ele>
<time>2024-05-07T14:30:04Z</time>
</trkpt>
<trkpt lat="49.190166452899575" lon="9.501001322641969">
<ele>212.6</ele>
<time>2024-05-07T14:30:05Z</time>
</trkpt>
<trkpt lat="49.190204590559006" lon="9.500981289893389">
<ele>212.8</ele>
<time>2024-05-07T14:30:06Z</time>
</trkpt>
<trkpt lat="49.19024272821843" lon="9.500961257144809">
<ele>213</ele>
<time>2024-05-07T14:30:07Z</time>
</trkpt>
<trkpt lat="49.19027709402144" lon="9.50094030238688">
<ele>213.2</ele>
<time>2024-05-07T14:30:08Z</time>
</trkpt>
<trkpt lat="49.19031523168087" lon="9.5009202696383">
<ele>213.4</ele>
<time>2024-05-07T14:30:09Z</time>
</trkpt>
<trkpt lat="49.19034951366484" lon="9.50089638121426">
<ele>213.6</ele>
<time>2024-05-07T14:30:10Z</time>
</trkpt>
<trkpt lat="49.19038765132427" lon="9.500873498618605">
<ele>213.8</ele>
<time>2024-05-07T14:30:11Z</time>
</trkpt>
<trkpt lat="49.190425872802734" lon="9.500844916328788">
<ele>213.8</ele>
<time>2024-05-07T14:30:12Z</time>
</trkpt>
<trkpt lat="49.190460154786706" lon="9.50082203373313">
<ele>214</ele>
<time>2024-05-07T14:30:13Z</time>
</trkpt>
<trkpt lat="49.190502148121595" lon="9.50080007314682">
<ele>214</ele>
<time>2024-05-07T14:30:14Z</time>
</trkpt>
<trkpt lat="49.19054791331291" lon="9.500776268541811">
<ele>214</ele>
<time>2024-05-07T14:30:15Z</time>
</trkpt>
<trkpt lat="49.19059367850423" lon="9.500753385946156">
<ele>214</ele>
<time>2024-05-07T14:30:16Z</time>
</trkpt>
<trkpt lat="49.19063567183912" lon="9.500731425359843">
<ele>214</ele>
<time>2024-05-07T14:30:17Z</time>
</trkpt>
<trkpt lat="49.19068520888686" lon="9.500709464773536">
<ele>214</ele>
<time>2024-05-07T14:30:18Z</time>
</trkpt>
<trkpt lat="49.19073097407818" lon="9.50068180449307">
<ele>214</ele>
<time>2024-05-07T14:30:19Z</time>
</trkpt>
<trkpt lat="49.19077682308853" lon="9.500653222203256">
<ele>214</ele>
<time>2024-05-07T14:30:20Z</time>
</trkpt>
<trkpt lat="49.19083021581173" lon="9.500626483932136">
<ele>214</ele>
<time>2024-05-07T14:30:21Z</time>
</trkpt>
<trkpt lat="49.19088360853493" lon="9.500597901642324">
<ele>214</ele>
<time>2024-05-07T14:30:22Z</time>
</trkpt>
<trkpt lat="49.190937001258135" lon="9.500568313524129">
<ele>214</ele>
<time>2024-05-07T14:30:23Z</time>
</trkpt>
<trkpt lat="49.1909942496568" lon="9.500536881387234">
<ele>213.8</ele>
<time>2024-05-07T14:30:24Z</time>
</trkpt>
<trkpt lat="49.19104764238" lon="9.500505365431309">
<ele>213.8</ele>
<time>2024-05-07T14:30:25Z</time>
</trkpt>
<trkpt lat="49.19110480695963" lon="9.500473011285068">
<ele>213.8</ele>
<time>2024-05-07T14:30:26Z</time>
</trkpt>
<trkpt lat="49.19116205535829" lon="9.5004453510046">
<ele>213.6</ele>
<time>2024-05-07T14:30:27Z</time>
</trkpt>
<trkpt lat="49.19121930375695" lon="9.500418612733483">
<ele>213.6</ele>
<time>2024-05-07T14:30:28Z</time>
</trkpt>
<trkpt lat="49.191272696480155" lon="9.500394808128476">
<ele>213.4</ele>
<time>2024-05-07T14:30:29Z</time>
</trkpt>
<trkpt lat="49.19132994487882" lon="9.500369997695088">
<ele>213.4</ele>
<time>2024-05-07T14:30:30Z</time>
</trkpt>
<trkpt lat="49.19137948192656" lon="9.5003451872617">
<ele>213.2</ele>
<time>2024-05-07T14:30:31Z</time>
</trkpt>
<trkpt lat="49.19143287464976" lon="9.500316604971886">
<ele>213</ele>
<time>2024-05-07T14:30:32Z</time>
</trkpt>
<trkpt lat="49.19148249551654" lon="9.500289866700768">
<ele>212.8</ele>
<time>2024-05-07T14:30:33Z</time>
</trkpt>
<trkpt lat="49.19153588823974" lon="9.500261284410954">
<ele>212.6</ele>
<time>2024-05-07T14:30:34Z</time>
</trkpt>
<trkpt lat="49.191589280962944" lon="9.500236473977566">
<ele>212.4</ele>
<time>2024-05-07T14:30:35Z</time>
</trkpt>
<trkpt lat="49.19163512997329" lon="9.500213591381907">
<ele>212.4</ele>
<time>2024-05-07T14:30:36Z</time>
</trkpt>
<trkpt lat="49.19168466702104" lon="9.50018878094852">
<ele>212.2</ele>
<time>2024-05-07T14:30:37Z</time>
</trkpt>
<trkpt lat="49.19173043221235" lon="9.500162042677402">
<ele>212.2</ele>
<time>2024-05-07T14:30:38Z</time>
</trkpt>
<trkpt lat="49.19177619740367" lon="9.500138238072395">
<ele>212</ele>
<time>2024-05-07T14:30:39Z</time>
</trkpt>
<trkpt lat="49.19181819073856" lon="9.500115355476735">
<ele>212</ele>
<time>2024-05-07T14:30:40Z</time>
</trkpt>
<trkpt lat="49.19186018407345" lon="9.500093394890428">
<ele>212</ele>
<time>2024-05-07T14:30:41Z</time>
</trkpt>
<trkpt lat="49.191905949264765" lon="9.50006858445704">
<ele>212</ele>
<time>2024-05-07T14:30:42Z</time>
</trkpt>
<trkpt lat="49.19195171445608" lon="9.500040002167225">
<ele>211.8</ele>
<time>2024-05-07T14:30:43Z</time>
</trkpt>
<trkpt lat="49.1919974796474" lon="9.500015191733835">
<ele>211.8</ele>
<time>2024-05-07T14:30:44Z</time>
</trkpt>
<trkpt lat="49.192043244838715" lon="9.49999038130045">
<ele>211.6</ele>
<time>2024-05-07T14:30:45Z</time>
</trkpt>
<trkpt lat="49.19209286570549" lon="9.499963726848364">
<ele>211.4</ele>
<time>2024-05-07T14:30:46Z</time>
</trkpt>
<trkpt lat="49.19213477522135" lon="9.499937994405627">
<ele>211.4</ele>
<time>2024-05-07T14:30:47Z</time>
</trkpt>
<trkpt lat="49.19217676855624" lon="9.499917961657047">
<ele>211.2</ele>
<time>2024-05-07T14:30:48Z</time>
</trkpt>
<trkpt lat="49.19220727868378" lon="9.499899856746197">
<ele>211.2</ele>
<time>2024-05-07T14:30:49Z</time>
</trkpt>
<trkpt lat="49.192237788811326" lon="9.499877896159887">
<ele>211</ele>
<time>2024-05-07T14:30:50Z</time>
</trkpt>
<trkpt lat="49.19226829893887" lon="9.499859791249037">
<ele>210.8</ele>
<time>2024-05-07T14:30:51Z</time>
</trkpt>
<trkpt lat="49.19229503720999" lon="9.499848308041692">
<ele>210.8</ele>
<time>2024-05-07T14:30:52Z</time>
</trkpt>
<trkpt lat="49.192321775481105" lon="9.499843530356884">
<ele>210.6</ele>
<time>2024-05-07T14:30:53Z</time>
</trkpt>
<trkpt lat="49.19235228560865" lon="9.49983305297792">
<ele>210.4</ele>
<time>2024-05-07T14:30:54Z</time>
</trkpt>
<trkpt lat="49.192382795736194" lon="9.499823497608304">
<ele>210.2</ele>
<time>2024-05-07T14:30:55Z</time>
</trkpt>
<trkpt lat="49.19240945018828" lon="9.49981017038226">
<ele>210.2</ele>
<time>2024-05-07T14:30:56Z</time>
</trkpt>
<trkpt lat="49.19243233278394" lon="9.499803464859724">
<ele>210</ele>
<time>2024-05-07T14:30:57Z</time>
</trkpt>
<trkpt lat="49.19244758784771" lon="9.499798770993948">
<ele>209.8</ele>
<time>2024-05-07T14:30:58Z</time>
</trkpt>
<trkpt lat="49.19246669858694" lon="9.499783515930176">
<ele>209.8</ele>
<time>2024-05-07T14:30:59Z</time>
</trkpt>
<trkpt lat="49.19248195365071" lon="9.49975484982133">
<ele>209.8</ele>
<time>2024-05-07T14:31:00Z</time>
</trkpt>
<trkpt lat="49.192497208714485" lon="9.499723417684436">
<ele>209.8</ele>
<time>2024-05-07T14:31:01Z</time>
</trkpt>
<trkpt lat="49.19250869192183" lon="9.499685280025004">
<ele>209.8</ele>
<time>2024-05-07T14:31:02Z</time>
</trkpt>
<trkpt lat="49.19252009131014" lon="9.49963473714888">
<ele>209.8</ele>
<time>2024-05-07T14:31:03Z</time>
</trkpt>
<trkpt lat="49.19252771884203" lon="9.499587044119837">
<ele>209.6</ele>
<time>2024-05-07T14:31:04Z</time>
</trkpt>
<trkpt lat="49.19253157451749" lon="9.499541278928518">
<ele>209.6</ele>
<time>2024-05-07T14:31:05Z</time>
</trkpt>
<trkpt lat="49.192539202049375" lon="9.49949450790882">
<ele>209.6</ele>
<time>2024-05-07T14:31:06Z</time>
</trkpt>
<trkpt lat="49.1925429739058" lon="9.499449664726852">
<ele>209.6</ele>
<time>2024-05-07T14:31:07Z</time>
</trkpt>
<trkpt lat="49.19254682958126" lon="9.499408677220345">
<ele>209.6</ele>
<time>2024-05-07T14:31:08Z</time>
</trkpt>
<trkpt lat="49.19254682958126" lon="9.49937623925507">
<ele>209.6</ele>
<time>2024-05-07T14:31:09Z</time>
</trkpt>
<trkpt lat="49.192558228969574" lon="9.49934002943337">
<ele>209.6</ele>
<time>2024-05-07T14:31:10Z</time>
</trkpt>
<trkpt lat="49.19256971217692" lon="9.499308513477445">
<ele>209.6</ele>
<time>2024-05-07T14:31:11Z</time>
</trkpt>
<trkpt lat="49.19258873909712" lon="9.4992780033499">
<ele>209.6</ele>
<time>2024-05-07T14:31:12Z</time>
</trkpt>
<trkpt lat="49.19261547736824" lon="9.499257048591971">
<ele>209.6</ele>
<time>2024-05-07T14:31:13Z</time>
</trkpt>
<trkpt lat="49.192638359963894" lon="9.49923793785274">
<ele>209.6</ele>
<time>2024-05-07T14:31:14Z</time>
</trkpt>
<trkpt lat="49.19266124255955" lon="9.49921983294189">
<ele>209.6</ele>
<time>2024-05-07T14:31:15Z</time>
</trkpt>
<trkpt lat="49.19268412515521" lon="9.499204577878118">
<ele>209.6</ele>
<time>2024-05-07T14:31:16Z</time>
</trkpt>
<trkpt lat="49.19269938021898" lon="9.499195022508502">
<ele>209.6</ele>
<time>2024-05-07T14:31:17Z</time>
</trkpt>
<trkpt lat="49.192718490958214" lon="9.499190328642726">
<ele>209.6</ele>
<time>2024-05-07T14:31:18Z</time>
</trkpt>
<trkpt lat="49.192733746021986" lon="9.499190328642726">
<ele>209.8</ele>
<time>2024-05-07T14:31:19Z</time>
</trkpt>
<trkpt lat="49.192752772942185" lon="9.499188400804996">
<ele>209.8</ele>
<time>2024-05-07T14:31:20Z</time>
</trkpt>
<trkpt lat="49.19277188368142" lon="9.499186472967269">
<ele>209.8</ele>
<time>2024-05-07T14:31:21Z</time>
</trkpt>
<trkpt lat="49.192790910601616" lon="9.499184545129538">
<ele>209.8</ele>
<time>2024-05-07T14:31:22Z</time>
</trkpt>
<trkpt lat="49.192813793197274" lon="9.499186472967269">
<ele>210</ele>
<time>2024-05-07T14:31:23Z</time>
</trkpt>
<trkpt lat="49.19283675961197" lon="9.499184545129538">
<ele>210</ele>
<time>2024-05-07T14:31:24Z</time>
</trkpt>
<trkpt lat="49.19286726973951" lon="9.499184545129538">
<ele>210</ele>
<time>2024-05-07T14:31:25Z</time>
</trkpt>
<trkpt lat="49.192893924191594" lon="9.499188400804996">
<ele>210</ele>
<time>2024-05-07T14:31:26Z</time>
</trkpt>
<trkpt lat="49.19292443431914" lon="9.499195022508502">
<ele>210</ele>
<time>2024-05-07T14:31:27Z</time>
</trkpt>
<trkpt lat="49.19295880012214" lon="9.499204577878118">
<ele>210</ele>
<time>2024-05-07T14:31:28Z</time>
</trkpt>
<trkpt lat="49.19299308210611" lon="9.499216983094811">
<ele>210</ele>
<time>2024-05-07T14:31:29Z</time>
</trkpt>
<trkpt lat="49.19302744790912" lon="9.499230310320854">
<ele>210</ele>
<time>2024-05-07T14:31:30Z</time>
</trkpt>
<trkpt lat="49.19306181371212" lon="9.499246571213009">
<ele>210</ele>
<time>2024-05-07T14:31:31Z</time>
</trkpt>
<trkpt lat="49.19309609569609" lon="9.49925797060132">
<ele>210.2</ele>
<time>2024-05-07T14:31:32Z</time>
</trkpt>
<trkpt lat="49.19312660582363" lon="9.499277081340551">
<ele>210.2</ele>
<time>2024-05-07T14:31:33Z</time>
</trkpt>
<trkpt lat="49.19316474348307" lon="9.499284708872436">
<ele>210.2</ele>
<time>2024-05-07T14:31:34Z</time>
</trkpt>
<trkpt lat="49.19320673681795" lon="9.49929996393621">
<ele>210.2</ele>
<time>2024-05-07T14:31:35Z</time>
</trkpt>
<trkpt lat="49.193248730152845" lon="9.499313291162252">
<ele>210.2</ele>
<time>2024-05-07T14:31:36Z</time>
</trkpt>
<trkpt lat="49.19329449534416" lon="9.499328546226025">
<ele>210.2</ele>
<time>2024-05-07T14:31:37Z</time>
</trkpt>
<trkpt lat="49.19333640486002" lon="9.499344807118176">
<ele>210.2</ele>
<time>2024-05-07T14:31:38Z</time>
</trkpt>
<trkpt lat="49.19337839819491" lon="9.49935620650649">
<ele>210.2</ele>
<time>2024-05-07T14:31:39Z</time>
</trkpt>
<trkpt lat="49.193428019061685" lon="9.499371461570265">
<ele>210.2</ele>
<time>2024-05-07T14:31:40Z</time>
</trkpt>
<trkpt lat="49.193473784253" lon="9.499393422156572">
<ele>210.2</ele>
<time>2024-05-07T14:31:41Z</time>
</trkpt>
<trkpt lat="49.19351954944432" lon="9.499415382742882">
<ele>210.2</ele>
<time>2024-05-07T14:31:42Z</time>
</trkpt>
<trkpt lat="49.193565314635634" lon="9.499435415491462">
<ele>210.2</ele>
<time>2024-05-07T14:31:43Z</time>
</trkpt>
<trkpt lat="49.19361493550241" lon="9.499453520402312">
<ele>210.2</ele>
<time>2024-05-07T14:31:44Z</time>
</trkpt>
<trkpt lat="49.193664472550154" lon="9.499473553150892">
<ele>210.2</ele>
<time>2024-05-07T14:31:45Z</time>
</trkpt>
<trkpt lat="49.19371409341693" lon="9.49949450790882">
<ele>210</ele>
<time>2024-05-07T14:31:46Z</time>
</trkpt>
<trkpt lat="49.193763714283705" lon="9.4995145406574">
<ele>209.8</ele>
<time>2024-05-07T14:31:47Z</time>
</trkpt>
<trkpt lat="49.19381710700691" lon="9.49953457340598">
<ele>209.4</ele>
<time>2024-05-07T14:31:48Z</time>
</trkpt>
<trkpt lat="49.19386672787368" lon="9.49955460615456">
<ele>209.2</ele>
<time>2024-05-07T14:31:49Z</time>
</trkpt>
<trkpt lat="49.193920120596886" lon="9.499571789056064">
<ele>209</ele>
<time>2024-05-07T14:31:50Z</time>
</trkpt>
<trkpt lat="49.19396965764463" lon="9.499589893966911">
<ele>208.8</ele>
<time>2024-05-07T14:31:51Z</time>
</trkpt>
<trkpt lat="49.194019278511405" lon="9.499609926715491">
<ele>208.6</ele>
<time>2024-05-07T14:31:52Z</time>
</trkpt>
<trkpt lat="49.19406889937818" lon="9.499628031626344">
<ele>208.4</ele>
<time>2024-05-07T14:31:53Z</time>
</trkpt>
<trkpt lat="49.19412229210138" lon="9.499648064374924">
<ele>208.2</ele>
<time>2024-05-07T14:31:54Z</time>
</trkpt>
<trkpt lat="49.194175684824586" lon="9.49967186897993">
<ele>208</ele>
<time>2024-05-07T14:31:55Z</time>
</trkpt>
<trkpt lat="49.19423293322325" lon="9.49969667941332">
<ele>207.8</ele>
<time>2024-05-07T14:31:56Z</time>
</trkpt>
<trkpt lat="49.19428247027099" lon="9.499719562008975">
<ele>207.6</ele>
<time>2024-05-07T14:31:57Z</time>
</trkpt>
<trkpt lat="49.19433971866965" lon="9.499745294451714">
<ele>207.6</ele>
<time>2024-05-07T14:31:58Z</time>
</trkpt>
<trkpt lat="49.194393111392856" lon="9.49977295473218">
<ele>207.4</ele>
<time>2024-05-07T14:31:59Z</time>
</trkpt>
<trkpt lat="49.19444650411606" lon="9.499801620841026">
<ele>207.4</ele>
<time>2024-05-07T14:32:00Z</time>
</trkpt>
<trkpt lat="49.19449989683926" lon="9.49983020313084">
<ele>207.2</ele>
<time>2024-05-07T14:32:01Z</time>
</trkpt>
<trkpt lat="49.19455714523792" lon="9.4998530857265">
<ele>207.4</ele>
<time>2024-05-07T14:32:02Z</time>
</trkpt>
<trkpt lat="49.1946067661047" lon="9.499876974150538">
<ele>207.4</ele>
<time>2024-05-07T14:32:03Z</time>
</trkpt>
<trkpt lat="49.19465630315244" lon="9.499899856746197">
<ele>207.4</ele>
<time>2024-05-07T14:32:04Z</time>
</trkpt>
<trkpt lat="49.194709695875645" lon="9.499919889494777">
<ele>207.2</ele>
<time>2024-05-07T14:32:05Z</time>
</trkpt>
<trkpt lat="49.19475931674242" lon="9.499941766262054">
<ele>207.2</ele>
<time>2024-05-07T14:32:06Z</time>
</trkpt>
<trkpt lat="49.1948089376092" lon="9.499966576695442">
<ele>207</ele>
<time>2024-05-07T14:32:07Z</time>
</trkpt>
<trkpt lat="49.19485847465694" lon="9.49999138712883">
<ele>207</ele>
<time>2024-05-07T14:32:08Z</time>
</trkpt>
<trkpt lat="49.194911951199174" lon="9.50001334771514">
<ele>206.8</ele>
<time>2024-05-07T14:32:09Z</time>
</trkpt>
<trkpt lat="49.19496534392238" lon="9.500036230310798">
<ele>206.8</ele>
<time>2024-05-07T14:32:10Z</time>
</trkpt>
<trkpt lat="49.19501488097012" lon="9.500062884762883">
<ele>206.8</ele>
<time>2024-05-07T14:32:11Z</time>
</trkpt>
<trkpt lat="49.195068357512355" lon="9.50008861720562">
<ele>207</ele>
<time>2024-05-07T14:32:12Z</time>
</trkpt>
<trkpt lat="49.1951178945601" lon="9.500113427639008">
<ele>207</ele>
<time>2024-05-07T14:32:13Z</time>
</trkpt>
<trkpt lat="49.1951712872833" lon="9.500135388225315">
<ele>206.8</ele>
<time>2024-05-07T14:32:14Z</time>
</trkpt>
<trkpt lat="49.19522090815008" lon="9.500156342983246">
<ele>206.6</ele>
<time>2024-05-07T14:32:15Z</time>
</trkpt>
<trkpt lat="49.19527430087328" lon="9.500180231407285">
<ele>206.6</ele>
<time>2024-05-07T14:32:16Z</time>
</trkpt>
<trkpt lat="49.19532769359648" lon="9.500201186165214">
<ele>206.4</ele>
<time>2024-05-07T14:32:17Z</time>
</trkpt>
<trkpt lat="49.195384941995144" lon="9.500220296904445">
<ele>206.2</ele>
<time>2024-05-07T14:32:18Z</time>
</trkpt>
<trkpt lat="49.19543456286192" lon="9.500240245833991">
<ele>206</ele>
<time>2024-05-07T14:32:19Z</time>
</trkpt>
<trkpt lat="49.19548795558512" lon="9.500261284410954">
<ele>205.8</ele>
<time>2024-05-07T14:32:20Z</time>
</trkpt>
<trkpt lat="49.195537492632866" lon="9.500281317159534">
<ele>205.4</ele>
<time>2024-05-07T14:32:21Z</time>
</trkpt>
<trkpt lat="49.1955909691751" lon="9.500301349908112">
<ele>205.2</ele>
<time>2024-05-07T14:32:22Z</time>
</trkpt>
<trkpt lat="49.1956443618983" lon="9.500323226675391">
<ele>204.8</ele>
<time>2024-05-07T14:32:23Z</time>
</trkpt>
<trkpt lat="49.19569389894605" lon="9.5003451872617">
<ele>204.6</ele>
<time>2024-05-07T14:32:24Z</time>
</trkpt>
<trkpt lat="49.19574351981282" lon="9.500361364334822">
<ele>204.2</ele>
<time>2024-05-07T14:32:25Z</time>
</trkpt>
<trkpt lat="49.19578928500414" lon="9.500383324921131">
<ele>204</ele>
<time>2024-05-07T14:32:26Z</time>
</trkpt>
<trkpt lat="49.195835050195456" lon="9.500401429831982">
<ele>203.8</ele>
<time>2024-05-07T14:32:27Z</time>
</trkpt>
<trkpt lat="49.19588081538677" lon="9.500412913039328">
<ele>203.8</ele>
<time>2024-05-07T14:32:28Z</time>
</trkpt>
<trkpt lat="49.19593043625355" lon="9.50042531825602">
<ele>203.6</ele>
<time>2024-05-07T14:32:29Z</time>
</trkpt>
<trkpt lat="49.19598005712032" lon="9.500436717644334">
<ele>203.4</ele>
<time>2024-05-07T14:32:30Z</time>
</trkpt>
<trkpt lat="49.19602196663618" lon="9.500441495329142">
<ele>203.4</ele>
<time>2024-05-07T14:32:31Z</time>
</trkpt>
<trkpt lat="49.19606395997107" lon="9.50044627301395">
<ele>203.2</ele>
<time>2024-05-07T14:32:32Z</time>
</trkpt>
<trkpt lat="49.19610972516239" lon="9.50044627301395">
<ele>203.2</ele>
<time>2024-05-07T14:32:33Z</time>
</trkpt>
<trkpt lat="49.19615171849728" lon="9.500450128689408">
<ele>203.2</ele>
<time>2024-05-07T14:32:34Z</time>
</trkpt>
<trkpt lat="49.196193628013134" lon="9.500451972708106">
<ele>203.2</ele>
<time>2024-05-07T14:32:35Z</time>
</trkpt>
<trkpt lat="49.196231765672565" lon="9.500456750392914">
<ele>203.2</ele>
<time>2024-05-07T14:32:36Z</time>
</trkpt>
<trkpt lat="49.196273759007454" lon="9.500452978536488">
<ele>203.2</ele>
<time>2024-05-07T14:32:37Z</time>
</trkpt>
<trkpt lat="49.19631952419877" lon="9.500454822555184">
<ele>203.2</ele>
<time>2024-05-07T14:32:38Z</time>
</trkpt>
<trkpt lat="49.19636528939009" lon="9.500454822555184">
<ele>203.2</ele>
<time>2024-05-07T14:32:39Z</time>
</trkpt>
<trkpt lat="49.19641491025686" lon="9.500450128689408">
<ele>203.2</ele>
<time>2024-05-07T14:32:40Z</time>
</trkpt>
<trkpt lat="49.19645690359175" lon="9.500441495329142">
<ele>203.2</ele>
<time>2024-05-07T14:32:41Z</time>
</trkpt>
<trkpt lat="49.19649881310761" lon="9.500436717644334">
<ele>203.2</ele>
<time>2024-05-07T14:32:42Z</time>
</trkpt>
<trkpt lat="49.196544578298926" lon="9.500431939959526">
<ele>203.2</ele>
<time>2024-05-07T14:32:43Z</time>
</trkpt>
<trkpt lat="49.196586571633816" lon="9.500431939959526">
<ele>203.2</ele>
<time>2024-05-07T14:32:44Z</time>
</trkpt>
<trkpt lat="49.19663233682513" lon="9.500434873625636">
<ele>203.2</ele>
<time>2024-05-07T14:32:45Z</time>
</trkpt>
<trkpt lat="49.19667810201645" lon="9.500439567491412">
<ele>203.2</ele>
<time>2024-05-07T14:32:46Z</time>
</trkpt>
<trkpt lat="49.196723867207766" lon="9.500441495329142">
<ele>203.2</ele>
<time>2024-05-07T14:32:47Z</time>
</trkpt>
<trkpt lat="49.19677348807454" lon="9.500438645482063">
<ele>203.4</ele>
<time>2024-05-07T14:32:48Z</time>
</trkpt>
<trkpt lat="49.19681925326586" lon="9.500431939959526">
<ele>203.4</ele>
<time>2024-05-07T14:32:49Z</time>
</trkpt>
<trkpt lat="49.196865018457174" lon="9.500431939959526">
<ele>203.6</ele>
<time>2024-05-07T14:32:50Z</time>
</trkpt>
<trkpt lat="49.19691463932395" lon="9.500434873625636">
<ele>203.6</ele>
<time>2024-05-07T14:32:51Z</time>
</trkpt>
<trkpt lat="49.19695663265884" lon="9.500431939959526">
<ele>203.4</ele>
<time>2024-05-07T14:32:52Z</time>
</trkpt>
<trkpt lat="49.19700616970658" lon="9.5004281681031">
<ele>203.4</ele>
<time>2024-05-07T14:32:53Z</time>
</trkpt>
<trkpt lat="49.19705579057336" lon="9.50042531825602">
<ele>203.2</ele>
<time>2024-05-07T14:32:54Z</time>
</trkpt>
<trkpt lat="49.197101555764675" lon="9.500423390418293">
<ele>203.2</ele>
<time>2024-05-07T14:32:55Z</time>
</trkpt>
<trkpt lat="49.197143549099565" lon="9.500416684895754">
<ele>203</ele>
<time>2024-05-07T14:32:56Z</time>
</trkpt>
<trkpt lat="49.197181686758995" lon="9.500416684895754">
<ele>202.8</ele>
<time>2024-05-07T14:32:57Z</time>
</trkpt>
<trkpt lat="49.197219824418426" lon="9.500416684895754">
<ele>202.6</ele>
<time>2024-05-07T14:32:58Z</time>
</trkpt>
<trkpt lat="49.197257962077856" lon="9.500418612733483">
<ele>202.6</ele>
<time>2024-05-07T14:32:59Z</time>
</trkpt>
<trkpt lat="49.19729609973729" lon="9.500411907210946">
<ele>202.6</ele>
<time>2024-05-07T14:33:00Z</time>
</trkpt>
<trkpt lat="49.197338093072176" lon="9.500412913039328">
<ele>202.4</ele>
<time>2024-05-07T14:33:01Z</time>
</trkpt>
<trkpt lat="49.197380002588034" lon="9.500411907210946">
<ele>202.4</ele>
<time>2024-05-07T14:33:02Z</time>
</trkpt>
<trkpt lat="49.197418140247464" lon="9.50040813535452">
<ele>202.4</ele>
<time>2024-05-07T14:33:03Z</time>
</trkpt>
<trkpt lat="49.197460133582354" lon="9.50040813535452">
<ele>202.4</ele>
<time>2024-05-07T14:33:04Z</time>
</trkpt>
<trkpt lat="49.197498271241784" lon="9.500411907210946">
<ele>202.4</ele>
<time>2024-05-07T14:33:05Z</time>
</trkpt>
<trkpt lat="49.19753263704479" lon="9.500414840877056">
<ele>202.4</ele>
<time>2024-05-07T14:33:06Z</time>
</trkpt>
<trkpt lat="49.19756314717233" lon="9.50042624026537">
<ele>202.2</ele>
<time>2024-05-07T14:33:07Z</time>
</trkpt>
<trkpt lat="49.19759365729987" lon="9.500431939959526">
<ele>202.2</ele>
<time>2024-05-07T14:33:08Z</time>
</trkpt>
<trkpt lat="49.19762031175196" lon="9.500438645482063">
<ele>202.2</ele>
<time>2024-05-07T14:33:09Z</time>
</trkpt>
<trkpt lat="49.19764327816665" lon="9.50044627301395">
<ele>202</ele>
<time>2024-05-07T14:33:10Z</time>
</trkpt>
<trkpt lat="49.19766230508685" lon="9.500456750392914">
<ele>202</ele>
<time>2024-05-07T14:33:11Z</time>
</trkpt>
<trkpt lat="49.19768141582608" lon="9.500461528077722">
<ele>202</ele>
<time>2024-05-07T14:33:12Z</time>
</trkpt>
<trkpt lat="49.197696670889854" lon="9.50046630576253">
<ele>202</ele>
<time>2024-05-07T14:33:13Z</time>
</trkpt>
<trkpt lat="49.19770044274628" lon="9.50046538375318">
<ele>202</ele>
<time>2024-05-07T14:33:14Z</time>
</trkpt>
<trkpt lat="49.19770429842174" lon="9.50046538375318">
<ele>202</ele>
<time>2024-05-07T14:33:17Z</time>
</trkpt>
<trkpt lat="49.19770429842174" lon="9.50046630576253">
<ele>201.8</ele>
<time>2024-05-07T14:33:21Z</time>
</trkpt>
<trkpt lat="49.19770429842174" lon="9.50046823360026">
<ele>201.8</ele>
<time>2024-05-07T14:33:23Z</time>
</trkpt>
<trkpt lat="49.19770429842174" lon="9.500470161437988">
<ele>201.8</ele>
<time>2024-05-07T14:33:25Z</time>
</trkpt>
<trkpt lat="49.19770429842174" lon="9.500472005456686">
<ele>201.8</ele>
<time>2024-05-07T14:33:28Z</time>
</trkpt>
<trkpt lat="49.19770429842174" lon="9.500473011285068">
<ele>201.8</ele>
<time>2024-05-07T14:33:30Z</time>
</trkpt>
<trkpt lat="49.19770807027817" lon="9.500473011285068">
<ele>201.8</ele>
<time>2024-05-07T14:33:33Z</time>
</trkpt>
<trkpt lat="49.19770807027817" lon="9.500474855303764">
<ele>201.8</ele>
<time>2024-05-07T14:33:34Z</time>
</trkpt>
<trkpt lat="49.19770807027817" lon="9.500476783141494">
<ele>201.6</ele>
<time>2024-05-07T14:33:37Z</time>
</trkpt>
<trkpt lat="49.19770807027817" lon="9.500478710979223">
<ele>201.6</ele>
<time>2024-05-07T14:33:40Z</time>
</trkpt>
<trkpt lat="49.19771192595363" lon="9.500478710979223">
<ele>201.6</ele>
<time>2024-05-07T14:33:41Z</time>
</trkpt>
<trkpt lat="49.19771192595363" lon="9.500479632988572">
<ele>201.4</ele>
<time>2024-05-07T14:33:42Z</time>
</trkpt>
<trkpt lat="49.19771192595363" lon="9.500481560826302">
<ele>201.4</ele>
<time>2024-05-07T14:33:45Z</time>
</trkpt>
<trkpt lat="49.19771192595363" lon="9.500483488664033">
<ele>201.4</ele>
<time>2024-05-07T14:33:48Z</time>
</trkpt>
<trkpt lat="49.19770807027817" lon="9.500481560826302">
<ele>201.4</ele>
<time>2024-05-07T14:33:51Z</time>
</trkpt>
<trkpt lat="49.19771192595363" lon="9.500483488664033">
<ele>201.4</ele>
<time>2024-05-07T14:33:52Z</time>
</trkpt>
<trkpt lat="49.19771192595363" lon="9.500481560826302">
<ele>201.2</ele>
<time>2024-05-07T14:34:00Z</time>
</trkpt>
<trkpt lat="49.19770807027817" lon="9.500479632988572">
<ele>201.2</ele>
<time>2024-05-07T14:34:04Z</time>
</trkpt>
<trkpt lat="49.19771192595363" lon="9.500479632988572">
<ele>201.2</ele>
<time>2024-05-07T14:34:05Z</time>
</trkpt>
<trkpt lat="49.19771192595363" lon="9.500481560826302">
<ele>201.2</ele>
<time>2024-05-07T14:34:14Z</time>
</trkpt>
<trkpt lat="49.19771192595363" lon="9.500479632988572">
<ele>201.2</ele>
<time>2024-05-07T14:34:17Z</time>
</trkpt>
<trkpt lat="49.197715697810054" lon="9.500483488664033">
<ele>201.2</ele>
<time>2024-05-07T14:34:18Z</time>
</trkpt>
<trkpt lat="49.19771955348551" lon="9.50048826634884">
<ele>201.2</ele>
<time>2024-05-07T14:34:19Z</time>
</trkpt>
<trkpt lat="49.19774243608117" lon="9.500498743727803">
<ele>201.4</ele>
<time>2024-05-07T14:34:20Z</time>
</trkpt>
<trkpt lat="49.19777671806514" lon="9.50050637125969">
<ele>201.4</ele>
<time>2024-05-07T14:34:21Z</time>
</trkpt>
<trkpt lat="49.19781871140003" lon="9.50050829909742">
<ele>201.4</ele>
<time>2024-05-07T14:34:22Z</time>
</trkpt>
<trkpt lat="49.19785684905946" lon="9.500503521412613">
<ele>201.4</ele>
<time>2024-05-07T14:34:23Z</time>
</trkpt>
<trkpt lat="49.19790261425078" lon="9.500493044033648">
<ele>201.4</ele>
<time>2024-05-07T14:34:24Z</time>
</trkpt>
<trkpt lat="49.19794460758567" lon="9.500483488664033">
<ele>201.4</ele>
<time>2024-05-07T14:34:25Z</time>
</trkpt>
<trkpt lat="49.1979827452451" lon="9.500474855303764">
<ele>201.4</ele>
<time>2024-05-07T14:34:26Z</time>
</trkpt>
<trkpt lat="49.198028510436416" lon="9.500473011285068">
<ele>201.4</ele>
<time>2024-05-07T14:34:27Z</time>
</trkpt>
<trkpt lat="49.19806287623942" lon="9.500470161437988">
<ele>201.4</ele>
<time>2024-05-07T14:34:28Z</time>
</trkpt>
<trkpt lat="49.19809338636696" lon="9.50046823360026">
<ele>201.4</ele>
<time>2024-05-07T14:34:29Z</time>
</trkpt>
<trkpt lat="49.19812004081905" lon="9.50046630576253">
<ele>201.4</ele>
<time>2024-05-07T14:34:30Z</time>
</trkpt>
<trkpt lat="49.19815440662205" lon="9.500461528077722">
<ele>201.4</ele>
<time>2024-05-07T14:34:31Z</time>
</trkpt>
<trkpt lat="49.19819254428148" lon="9.500458678230643">
<ele>201.2</ele>
<time>2024-05-07T14:34:32Z</time>
</trkpt>
<trkpt lat="49.198226910084486" lon="9.500451972708106">
<ele>201.2</ele>
<time>2024-05-07T14:34:33Z</time>
</trkpt>
<trkpt lat="49.19826119206846" lon="9.5004453510046">
<ele>201.2</ele>
<time>2024-05-07T14:34:34Z</time>
</trkpt>
<trkpt lat="49.19829932972789" lon="9.500441495329142">
<ele>201.2</ele>
<time>2024-05-07T14:34:35Z</time>
</trkpt>
<trkpt lat="49.19833369553089" lon="9.500434873625636">
<ele>201.2</ele>
<time>2024-05-07T14:34:36Z</time>
</trkpt>
<trkpt lat="49.19837183319032" lon="9.50042531825602">
<ele>201</ele>
<time>2024-05-07T14:34:37Z</time>
</trkpt>
<trkpt lat="49.19840997084975" lon="9.50040813535452">
<ele>201</ele>
<time>2024-05-07T14:34:38Z</time>
</trkpt>
<trkpt lat="49.19845196418464" lon="9.500396652147174">
<ele>200.8</ele>
<time>2024-05-07T14:34:39Z</time>
</trkpt>
<trkpt lat="49.19849010184407" lon="9.50038525275886">
<ele>200.6</ele>
<time>2024-05-07T14:34:40Z</time>
</trkpt>
<trkpt lat="49.19853209517896" lon="9.500378547236323">
<ele>200.4</ele>
<time>2024-05-07T14:34:41Z</time>
</trkpt>
<trkpt lat="49.19857023283839" lon="9.50036806985736">
<ele>200.2</ele>
<time>2024-05-07T14:34:42Z</time>
</trkpt>
<trkpt lat="49.19860451482237" lon="9.500358514487743">
<ele>200.2</ele>
<time>2024-05-07T14:34:43Z</time>
</trkpt>
<trkpt lat="49.19863888062537" lon="9.50034803710878">
<ele>200</ele>
<time>2024-05-07T14:34:44Z</time>
</trkpt>
<trkpt lat="49.19867324642837" lon="9.500336637720466">
<ele>200</ele>
<time>2024-05-07T14:34:45Z</time>
</trkpt>
<trkpt lat="49.19870752841234" lon="9.50032515451312">
<ele>199.8</ele>
<time>2024-05-07T14:34:46Z</time>
</trkpt>
<trkpt lat="49.19874566607177" lon="9.500316604971886">
<ele>199.6</ele>
<time>2024-05-07T14:34:47Z</time>
</trkpt>
<trkpt lat="49.19878765940666" lon="9.50030704960227">
<ele>199.6</ele>
<time>2024-05-07T14:34:48Z</time>
</trkpt>
<trkpt lat="49.19882579706609" lon="9.50028793886304">
<ele>199.6</ele>
<time>2024-05-07T14:34:49Z</time>
</trkpt>
<trkpt lat="49.19886393472552" lon="9.50026698410511">
<ele>199.8</ele>
<time>2024-05-07T14:34:50Z</time>
</trkpt>
<trkpt lat="49.198898300528526" lon="9.500243179500105">
<ele>199.8</ele>
<time>2024-05-07T14:34:51Z</time>
</trkpt>
<trkpt lat="49.19893643818796" lon="9.500216441228986">
<ele>199.8</ele>
<time>2024-05-07T14:34:52Z</time>
</trkpt>
<trkpt lat="49.19897072017193" lon="9.500196408480406">
<ele>199.8</ele>
<time>2024-05-07T14:34:53Z</time>
</trkpt>
<trkpt lat="49.19900894165039" lon="9.500181153416634">
<ele>199.6</ele>
<time>2024-05-07T14:34:54Z</time>
</trkpt>
<trkpt lat="49.19904322363436" lon="9.500175453722475">
<ele>199.4</ele>
<time>2024-05-07T14:34:55Z</time>
</trkpt>
<trkpt lat="49.19907373376191" lon="9.500171598047018">
<ele>199.4</ele>
<time>2024-05-07T14:34:56Z</time>
</trkpt>
<trkpt lat="49.19910424388945" lon="9.500173525884748">
<ele>199.2</ele>
<time>2024-05-07T14:34:57Z</time>
</trkpt>
<trkpt lat="49.19913098216057" lon="9.500176375731826">
<ele>199</ele>
<time>2024-05-07T14:34:58Z</time>
</trkpt>
<trkpt lat="49.19916911982" lon="9.500171598047018">
<ele>199</ele>
<time>2024-05-07T14:34:59Z</time>
</trkpt>
<trkpt lat="49.19919962994754" lon="9.50016782619059">
<ele>198.8</ele>
<time>2024-05-07T14:35:00Z</time>
</trkpt>
<trkpt lat="49.19923014007509" lon="9.500173525884748">
<ele>198.6</ele>
<time>2024-05-07T14:35:01Z</time>
</trkpt>
<trkpt lat="49.199256878346205" lon="9.500181153416634">
<ele>198.6</ele>
<time>2024-05-07T14:35:02Z</time>
</trkpt>
<trkpt lat="49.19927976094186" lon="9.500193558633327">
<ele>198.6</ele>
<time>2024-05-07T14:35:03Z</time>
</trkpt>
<trkpt lat="49.19930264353752" lon="9.500196408480406">
<ele>198.6</ele>
<time>2024-05-07T14:35:04Z</time>
</trkpt>
<trkpt lat="49.199333153665066" lon="9.500185009092093">
<ele>198.8</ele>
<time>2024-05-07T14:35:05Z</time>
</trkpt>
<trkpt lat="49.19935603626072" lon="9.50018685311079">
<ele>198.8</ele>
<time>2024-05-07T14:35:06Z</time>
</trkpt>
<trkpt lat="49.199371291324496" lon="9.500194480642676">
<ele>198.8</ele>
<time>2024-05-07T14:35:07Z</time>
</trkpt>
<trkpt lat="49.19939040206373" lon="9.50020789168775">
<ele>199</ele>
<time>2024-05-07T14:35:08Z</time>
</trkpt>
<trkpt lat="49.19940942898393" lon="9.50020688585937">
<ele>199.2</ele>
<time>2024-05-07T14:35:09Z</time>
</trkpt>
<trkpt lat="49.19942853972316" lon="9.500223146751525">
<ele>199.2</ele>
<time>2024-05-07T14:35:10Z</time>
</trkpt>
<trkpt lat="49.19943616725504" lon="9.500236473977566">
<ele>199.4</ele>
<time>2024-05-07T14:35:11Z</time>
</trkpt>
<trkpt lat="49.199470449239016" lon="9.50026790611446">
<ele>199.6</ele>
<time>2024-05-07T14:35:12Z</time>
</trkpt>
<trkpt lat="49.199508586898446" lon="9.500289866700768">
<ele>199.8</ele>
<time>2024-05-07T14:35:13Z</time>
</trkpt>
<trkpt lat="49.19953532516956" lon="9.50030797161162">
<ele>200</ele>
<time>2024-05-07T14:35:14Z</time>
</trkpt>
<trkpt lat="49.19956583529711" lon="9.500323226675391">
<ele>200.2</ele>
<time>2024-05-07T14:35:15Z</time>
</trkpt>
<trkpt lat="49.19958494603634" lon="9.500334709882736">
<ele>200.2</ele>
<time>2024-05-07T14:35:16Z</time>
</trkpt>
<trkpt lat="49.199607828632" lon="9.50034711509943">
<ele>200.4</ele>
<time>2024-05-07T14:35:17Z</time>
</trkpt>
<trkpt lat="49.199630711227655" lon="9.500356670469046">
<ele>200.6</ele>
<time>2024-05-07T14:35:18Z</time>
</trkpt>
<trkpt lat="49.199649738147855" lon="9.50036614201963">
<ele>200.6</ele>
<time>2024-05-07T14:35:19Z</time>
</trkpt>
<trkpt lat="49.19967262074351" lon="9.500383324921131">
<ele>200.6</ele>
<time>2024-05-07T14:35:20Z</time>
</trkpt>
<trkpt lat="49.19970698654651" lon="9.500396652147174">
<ele>200.6</ele>
<time>2024-05-07T14:35:21Z</time>
</trkpt>
<trkpt lat="49.19974512420595" lon="9.500411907210946">
<ele>200.8</ele>
<time>2024-05-07T14:35:22Z</time>
</trkpt>
<trkpt lat="49.19977949000895" lon="9.500431939959526">
<ele>200.8</ele>
<time>2024-05-07T14:35:23Z</time>
</trkpt>
<trkpt lat="49.19981377199292" lon="9.500451972708106">
<ele>200.8</ele>
<time>2024-05-07T14:35:24Z</time>
</trkpt>
<trkpt lat="49.19984051026404" lon="9.50046823360026">
<ele>200.6</ele>
<time>2024-05-07T14:35:25Z</time>
</trkpt>
<trkpt lat="49.1998633928597" lon="9.50048633851111">
<ele>200.6</ele>
<time>2024-05-07T14:35:26Z</time>
</trkpt>
<trkpt lat="49.19988250359893" lon="9.50050637125969">
<ele>200.4</ele>
<time>2024-05-07T14:35:27Z</time>
</trkpt>
<trkpt lat="49.1998977586627" lon="9.500530175864697">
<ele>200.2</ele>
<time>2024-05-07T14:35:28Z</time>
</trkpt>
<trkpt lat="49.19990153051913" lon="9.500557836145164">
<ele>200.2</ele>
<time>2024-05-07T14:35:29Z</time>
</trkpt>
<trkpt lat="49.19990153051913" lon="9.50058650225401">
<ele>200</ele>
<time>2024-05-07T14:35:30Z</time>
</trkpt>
<trkpt lat="49.1998977586627" lon="9.500617934390904">
<ele>200</ele>
<time>2024-05-07T14:35:31Z</time>
</trkpt>
<trkpt lat="49.1998977586627" lon="9.500650372356176">
<ele>199.8</ele>
<time>2024-05-07T14:35:32Z</time>
</trkpt>
<trkpt lat="49.19990153051913" lon="9.500678032636642">
<ele>199.8</ele>
<time>2024-05-07T14:35:33Z</time>
</trkpt>
<trkpt lat="49.1998977586627" lon="9.500704687088728">
<ele>200</ele>
<time>2024-05-07T14:35:34Z</time>
</trkpt>
<trkpt lat="49.1998977586627" lon="9.500748608261349">
<ele>200</ele>
<time>2024-05-07T14:35:35Z</time>
</trkpt>
<trkpt lat="49.199890131130815" lon="9.500784818083048">
<ele>200</ele>
<time>2024-05-07T14:35:36Z</time>
</trkpt>
<trkpt lat="49.19988627545536" lon="9.500822955742478">
<ele>200</ele>
<time>2024-05-07T14:35:37Z</time>
</trkpt>
<trkpt lat="49.19987864792347" lon="9.500856399536133">
<ele>200</ele>
<time>2024-05-07T14:35:38Z</time>
</trkpt>
<trkpt lat="49.19987487606704" lon="9.500884981825948">
<ele>200</ele>
<time>2024-05-07T14:35:39Z</time>
</trkpt>
<trkpt lat="49.19987487606704" lon="9.500921191647649">
<ele>200</ele>
<time>2024-05-07T14:35:40Z</time>
</trkpt>
<trkpt lat="49.19987102039158" lon="9.500961257144809">
<ele>200</ele>
<time>2024-05-07T14:35:41Z</time>
</trkpt>
<trkpt lat="49.19986724853515" lon="9.501014649868011">
<ele>200</ele>
<time>2024-05-07T14:35:42Z</time>
</trkpt>
<trkpt lat="49.1998633928597" lon="9.5010566432029">
<ele>200</ele>
<time>2024-05-07T14:35:43Z</time>
</trkpt>
<trkpt lat="49.19987102039158" lon="9.501105258241296">
<ele>200.2</ele>
<time>2024-05-07T14:35:44Z</time>
</trkpt>
<trkpt lat="49.19987864792347" lon="9.501141468062997">
<ele>200.2</ele>
<time>2024-05-07T14:35:45Z</time>
</trkpt>
<trkpt lat="49.19987487606704" lon="9.501188239082694">
<ele>200.4</ele>
<time>2024-05-07T14:35:46Z</time>
</trkpt>
<trkpt lat="49.19987102039158" lon="9.501233082264662">
<ele>200.4</ele>
<time>2024-05-07T14:35:47Z</time>
</trkpt>
<trkpt lat="49.1998633928597" lon="9.501276919618247">
<ele>200.6</ele>
<time>2024-05-07T14:35:48Z</time>
</trkpt>
<trkpt lat="49.19985953718424" lon="9.501317907124758">
<ele>200.8</ele>
<time>2024-05-07T14:35:49Z</time>
</trkpt>
<trkpt lat="49.19985576532781" lon="9.501361828297377">
<ele>200.8</ele>
<time>2024-05-07T14:35:50Z</time>
</trkpt>
<trkpt lat="49.19985576532781" lon="9.501401893794537">
<ele>201</ele>
<time>2024-05-07T14:35:51Z</time>
</trkpt>
<trkpt lat="49.19985190965235" lon="9.501441875472665">
<ele>201</ele>
<time>2024-05-07T14:35:52Z</time>
</trkpt>
<trkpt lat="49.199844282120466" lon="9.501482946798204">
<ele>201.2</ele>
<time>2024-05-07T14:35:53Z</time>
</trkpt>
<trkpt lat="49.19984051026404" lon="9.501524856314065">
<ele>201.2</ele>
<time>2024-05-07T14:35:54Z</time>
</trkpt>
<trkpt lat="49.19984051026404" lon="9.501562993973494">
<ele>201.4</ele>
<time>2024-05-07T14:35:55Z</time>
</trkpt>
<trkpt lat="49.199844282120466" lon="9.501602137461305">
<ele>201.6</ele>
<time>2024-05-07T14:35:56Z</time>
</trkpt>
<trkpt lat="49.19985190965235" lon="9.501640275120735">
<ele>201.8</ele>
<time>2024-05-07T14:35:57Z</time>
</trkpt>
<trkpt lat="49.199848137795925" lon="9.501674640923738">
<ele>201.8</ele>
<time>2024-05-07T14:35:58Z</time>
</trkpt>
<trkpt lat="49.199844282120466" lon="9.501711772754788">
<ele>202</ele>
<time>2024-05-07T14:35:59Z</time>
</trkpt>
<trkpt lat="49.199848137795925" lon="9.501743288710712">
<ele>202.2</ele>
<time>2024-05-07T14:36:00Z</time>
</trkpt>
<trkpt lat="49.19985953718424" lon="9.501773798838258">
<ele>202.2</ele>
<time>2024-05-07T14:36:01Z</time>
</trkpt>
<trkpt lat="49.19987487606704" lon="9.501798609271646">
<ele>202.4</ele>
<time>2024-05-07T14:36:02Z</time>
</trkpt>
<trkpt lat="49.199890131130815" lon="9.501816714182496">
<ele>202.4</ele>
<time>2024-05-07T14:36:03Z</time>
</trkpt>
<trkpt lat="49.19990538619459" lon="9.501834819093348">
<ele>202.6</ele>
<time>2024-05-07T14:36:04Z</time>
</trkpt>
<trkpt lat="49.19992064125836" lon="9.501852924004195">
<ele>202.8</ele>
<time>2024-05-07T14:36:05Z</time>
</trkpt>
<trkpt lat="49.19994352385402" lon="9.5018701069057">
<ele>202.8</ele>
<time>2024-05-07T14:36:06Z</time>
</trkpt>
<trkpt lat="49.19996640644968" lon="9.501885361969473">
<ele>203</ele>
<time>2024-05-07T14:36:07Z</time>
</trkpt>
<trkpt lat="49.199989289045334" lon="9.5019063167274">
<ele>203</ele>
<time>2024-05-07T14:36:08Z</time>
</trkpt>
<trkpt lat="49.200004544109106" lon="9.50192827731371">
<ele>203.2</ele>
<time>2024-05-07T14:36:09Z</time>
</trkpt>
<trkpt lat="49.20001979917288" lon="9.501961637288332">
<ele>203.4</ele>
<time>2024-05-07T14:36:10Z</time>
</trkpt>
<trkpt lat="49.20003119856119" lon="9.501995081081986">
<ele>203.6</ele>
<time>2024-05-07T14:36:11Z</time>
</trkpt>
<trkpt lat="49.20003890991211" lon="9.50202844105661">
<ele>203.8</ele>
<time>2024-05-07T14:36:12Z</time>
</trkpt>
<trkpt lat="49.200046537443995" lon="9.502057023346424">
<ele>204</ele>
<time>2024-05-07T14:36:13Z</time>
</trkpt>
<trkpt lat="49.20005793683231" lon="9.502081833779812">
<ele>204.2</ele>
<time>2024-05-07T14:36:14Z</time>
</trkpt>
<trkpt lat="49.20005793683231" lon="9.502118043601511">
<ele>204.4</ele>
<time>2024-05-07T14:36:15Z</time>
</trkpt>
<trkpt lat="49.200065564364195" lon="9.502149559557438">
<ele>204.6</ele>
<time>2024-05-07T14:36:16Z</time>
</trkpt>
<trkpt lat="49.20008081942797" lon="9.502176214009523">
<ele>204.8</ele>
<time>2024-05-07T14:36:17Z</time>
</trkpt>
<trkpt lat="49.20009230263531" lon="9.502208651974795">
<ele>205</ele>
<time>2024-05-07T14:36:18Z</time>
</trkpt>
<trkpt lat="49.200103702023625" lon="9.502238240092993">
<ele>205</ele>
<time>2024-05-07T14:36:19Z</time>
</trkpt>
<trkpt lat="49.20012281276286" lon="9.502264894545078">
<ele>205</ele>
<time>2024-05-07T14:36:20Z</time>
</trkpt>
<trkpt lat="49.200141839683056" lon="9.502298338338733">
<ele>205.2</ele>
<time>2024-05-07T14:36:21Z</time>
</trkpt>
<trkpt lat="49.2001533228904" lon="9.502329770475626">
<ele>205.4</ele>
<time>2024-05-07T14:36:22Z</time>
</trkpt>
<trkpt lat="49.200164722278714" lon="9.50236028060317">
<ele>205.8</ele>
<time>2024-05-07T14:36:23Z</time>
</trkpt>
<trkpt lat="49.200179977342486" lon="9.502381319180133">
<ele>205.8</ele>
<time>2024-05-07T14:36:24Z</time>
</trkpt>
<trkpt lat="49.200179977342486" lon="9.502407973632216">
<ele>206</ele>
<time>2024-05-07T14:36:25Z</time>
</trkpt>
<trkpt lat="49.200183833017945" lon="9.502436555922031">
<ele>206.2</ele>
<time>2024-05-07T14:36:26Z</time>
</trkpt>
<trkpt lat="49.20018760487437" lon="9.502465222030878">
<ele>206.4</ele>
<time>2024-05-07T14:36:27Z</time>
</trkpt>
<trkpt lat="49.20019523240626" lon="9.502490032464266">
<ele>206.6</ele>
<time>2024-05-07T14:36:28Z</time>
</trkpt>
<trkpt lat="49.20021434314549" lon="9.502505287528038">
<ele>206.6</ele>
<time>2024-05-07T14:36:29Z</time>
</trkpt>
<trkpt lat="49.20022959820926" lon="9.502510065212846">
<ele>206.6</ele>
<time>2024-05-07T14:36:30Z</time>
</trkpt>
<trkpt lat="49.200244853273034" lon="9.502508137375116">
<ele>206.8</ele>
<time>2024-05-07T14:36:31Z</time>
</trkpt>
<trkpt lat="49.20025633648038" lon="9.5024985820055">
<ele>207</ele>
<time>2024-05-07T14:36:32Z</time>
</trkpt>
<trkpt lat="49.200260108336806" lon="9.502491876482964">
<ele>207</ele>
<time>2024-05-07T14:36:33Z</time>
</trkpt>
<trkpt lat="49.200263964012265" lon="9.502488104626536">
<ele>207.2</ele>
<time>2024-05-07T14:36:34Z</time>
</trkpt>
<trkpt lat="49.200263964012265" lon="9.502486176788809">
<ele>207.2</ele>
<time>2024-05-07T14:36:36Z</time>
</trkpt>
<trkpt lat="49.200260108336806" lon="9.502485254779458">
<ele>207.4</ele>
<time>2024-05-07T14:36:37Z</time>
</trkpt>
<trkpt lat="49.200260108336806" lon="9.502483326941729">
<ele>207.4</ele>
<time>2024-05-07T14:36:39Z</time>
</trkpt>
<trkpt lat="49.200260108336806" lon="9.502481399104">
<ele>207.4</ele>
<time>2024-05-07T14:36:40Z</time>
</trkpt>
<trkpt lat="49.200260108336806" lon="9.50247854925692">
<ele>207.6</ele>
<time>2024-05-07T14:36:43Z</time>
</trkpt>
<trkpt lat="49.200260108336806" lon="9.502476621419191">
<ele>207.6</ele>
<time>2024-05-07T14:36:44Z</time>
</trkpt>
<trkpt lat="49.200260108336806" lon="9.502474777400494">
<ele>207.6</ele>
<time>2024-05-07T14:36:45Z</time>
</trkpt>
<trkpt lat="49.20027159154415" lon="9.502473771572111">
<ele>207.6</ele>
<time>2024-05-07T14:36:46Z</time>
</trkpt>
<trkpt lat="49.20027536340058" lon="9.502466144040229">
<ele>207.6</ele>
<time>2024-05-07T14:36:47Z</time>
</trkpt>
<trkpt lat="49.200282990932465" lon="9.50245851650834">
<ele>207.6</ele>
<time>2024-05-07T14:36:48Z</time>
</trkpt>
<trkpt lat="49.20029824599624" lon="9.50244133360684">
<ele>207.6</ele>
<time>2024-05-07T14:36:49Z</time>
</trkpt>
<trkpt lat="49.20030587352812" lon="9.502414679154754">
<ele>207.6</ele>
<time>2024-05-07T14:36:50Z</time>
</trkpt>
<trkpt lat="49.20031350106001" lon="9.502389868721366">
<ele>207.8</ele>
<time>2024-05-07T14:36:51Z</time>
</trkpt>
<trkpt lat="49.200324984267354" lon="9.502367908135056">
<ele>207.6</ele>
<time>2024-05-07T14:36:52Z</time>
</trkpt>
<trkpt lat="49.20034401118755" lon="9.502351731061935">
<ele>207.6</ele>
<time>2024-05-07T14:36:53Z</time>
</trkpt>
<trkpt lat="49.20036689378321" lon="9.502333626151083">
<ele>207.4</ele>
<time>2024-05-07T14:36:54Z</time>
</trkpt>
<trkpt lat="49.2003898601979" lon="9.502316443249583">
<ele>207.4</ele>
<time>2024-05-07T14:36:55Z</time>
</trkpt>
<trkpt lat="49.20041651464999" lon="9.502304960042238">
<ele>207.4</ele>
<time>2024-05-07T14:36:56Z</time>
</trkpt>
<trkpt lat="49.200443252921104" lon="9.502298338338733">
<ele>207.2</ele>
<time>2024-05-07T14:36:57Z</time>
</trkpt>
<trkpt lat="49.20046613551676" lon="9.502296410501003">
<ele>207</ele>
<time>2024-05-07T14:36:58Z</time>
</trkpt>
<trkpt lat="49.20049664564431" lon="9.502296410501003">
<ele>207</ele>
<time>2024-05-07T14:36:59Z</time>
</trkpt>
<trkpt lat="49.20052330009639" lon="9.502294482663274">
<ele>206.8</ele>
<time>2024-05-07T14:37:00Z</time>
</trkpt>
<trkpt lat="49.20055003836751" lon="9.502304960042238">
<ele>206.8</ele>
<time>2024-05-07T14:37:01Z</time>
</trkpt>
<trkpt lat="49.20057677663863" lon="9.502314515411854">
<ele>206.8</ele>
<time>2024-05-07T14:37:02Z</time>
</trkpt>
<trkpt lat="49.200599659234285" lon="9.50232021510601">
<ele>206.8</ele>
<time>2024-05-07T14:37:03Z</time>
</trkpt>
<trkpt lat="49.20061491429806" lon="9.502321220934393">
<ele>206.8</ele>
<time>2024-05-07T14:37:04Z</time>
</trkpt>
<trkpt lat="49.20063016936183" lon="9.502318371087313">
<ele>206.8</ele>
<time>2024-05-07T14:37:05Z</time>
</trkpt>
<trkpt lat="49.2006454244256" lon="9.502304960042238">
<ele>206.6</ele>
<time>2024-05-07T14:37:06Z</time>
</trkpt>
<trkpt lat="49.20066830702126" lon="9.502281155437233">
<ele>206.6</ele>
<time>2024-05-07T14:37:07Z</time>
</trkpt>
<trkpt lat="49.200694961473346" lon="9.502255422994494">
<ele>206.6</ele>
<time>2024-05-07T14:37:08Z</time>
</trkpt>
<trkpt lat="49.20072932727635" lon="9.502228684723375">
<ele>206.4</ele>
<time>2024-05-07T14:37:09Z</time>
</trkpt>
<trkpt lat="49.200756065547466" lon="9.502200102433562">
<ele>206.4</ele>
<time>2024-05-07T14:37:10Z</time>
</trkpt>
<trkpt lat="49.20078657567501" lon="9.502169592306018">
<ele>206.4</ele>
<time>2024-05-07T14:37:11Z</time>
</trkpt>
<trkpt lat="49.200817085802555" lon="9.502141932025552">
<ele>206.4</ele>
<time>2024-05-07T14:37:12Z</time>
</trkpt>
<trkpt lat="49.20084374025464" lon="9.502115193754436">
<ele>206.6</ele>
<time>2024-05-07T14:37:13Z</time>
</trkpt>
<trkpt lat="49.20086285099387" lon="9.502088539302347">
<ele>206.6</ele>
<time>2024-05-07T14:37:14Z</time>
</trkpt>
<trkpt lat="49.20087810605765" lon="9.502058029174805">
<ele>206.8</ele>
<time>2024-05-07T14:37:15Z</time>
</trkpt>
<trkpt lat="49.200893361121416" lon="9.502035062760116">
<ele>206.8</ele>
<time>2024-05-07T14:37:16Z</time>
</trkpt>
<trkpt lat="49.20091247186065" lon="9.502011258155107">
<ele>207</ele>
<time>2024-05-07T14:37:17Z</time>
</trkpt>
<trkpt lat="49.20092009939253" lon="9.50198451988399">
<ele>207</ele>
<time>2024-05-07T14:37:18Z</time>
</trkpt>
<trkpt lat="49.20092009939253" lon="9.501955015584826">
<ele>207</ele>
<time>2024-05-07T14:37:19Z</time>
</trkpt>
<trkpt lat="49.20093149878085" lon="9.501918721944094">
<ele>207.2</ele>
<time>2024-05-07T14:37:20Z</time>
</trkpt>
<trkpt lat="49.20093912631273" lon="9.501885361969473">
<ele>207.2</ele>
<time>2024-05-07T14:37:21Z</time>
</trkpt>
<trkpt lat="49.20094675384462" lon="9.501856779679656">
<ele>207.2</ele>
<time>2024-05-07T14:37:22Z</time>
</trkpt>
<trkpt lat="49.200954381376505" lon="9.501834819093348">
<ele>207</ele>
<time>2024-05-07T14:37:23Z</time>
</trkpt>
<trkpt lat="49.20096586458385" lon="9.50182811357081">
<ele>206.8</ele>
<time>2024-05-07T14:37:24Z</time>
</trkpt>
<trkpt lat="49.20098489150405" lon="9.501831969246268">
<ele>206.8</ele>
<time>2024-05-07T14:37:25Z</time>
</trkpt>
<trkpt lat="49.20101162977517" lon="9.501834819093348">
<ele>206.8</ele>
<time>2024-05-07T14:37:26Z</time>
</trkpt>
<trkpt lat="49.201034512370825" lon="9.501846302300692">
<ele>206.8</ele>
<time>2024-05-07T14:37:27Z</time>
</trkpt>
<trkpt lat="49.20105739496648" lon="9.501859629526734">
<ele>206.8</ele>
<time>2024-05-07T14:37:28Z</time>
</trkpt>
<trkpt lat="49.201076505705714" lon="9.501872034743428">
<ele>206.8</ele>
<time>2024-05-07T14:37:29Z</time>
</trkpt>
<trkpt lat="49.201091760769486" lon="9.501881590113044">
<ele>207</ele>
<time>2024-05-07T14:37:30Z</time>
</trkpt>
<trkpt lat="49.20111841522157" lon="9.501881590113044">
<ele>207</ele>
<time>2024-05-07T14:37:31Z</time>
</trkpt>
<trkpt lat="49.2011375259608" lon="9.501883434131742">
<ele>207.2</ele>
<time>2024-05-07T14:37:32Z</time>
</trkpt>
<trkpt lat="49.20114515349269" lon="9.501879662275314">
<ele>207.4</ele>
<time>2024-05-07T14:37:33Z</time>
</trkpt>
<trkpt lat="49.20114892534912" lon="9.501878656446934">
<ele>207.4</ele>
<time>2024-05-07T14:37:34Z</time>
</trkpt>
<trkpt lat="49.201152781024575" lon="9.501876812428236">
<ele>207.6</ele>
<time>2024-05-07T14:37:35Z</time>
</trkpt>
<trkpt lat="49.201156552881" lon="9.501874884590508">
<ele>207.6</ele>
<time>2024-05-07T14:37:36Z</time>
</trkpt>
<trkpt lat="49.20116040855646" lon="9.501872034743428">
<ele>207.8</ele>
<time>2024-05-07T14:37:38Z</time>
</trkpt>
<trkpt lat="49.20116418041289" lon="9.5018701069057">
<ele>207.8</ele>
<time>2024-05-07T14:37:39Z</time>
</trkpt>
<trkpt lat="49.20116418041289" lon="9.50186817906797">
<ele>207.8</ele>
<time>2024-05-07T14:37:40Z</time>
</trkpt>
<trkpt lat="49.20116803608835" lon="9.5018701069057">
<ele>208</ele>
<time>2024-05-07T14:37:41Z</time>
</trkpt>
<trkpt lat="49.20116803608835" lon="9.501872034743428">
<ele>208</ele>
<time>2024-05-07T14:37:42Z</time>
</trkpt>
<trkpt lat="49.20116803608835" lon="9.5018701069057">
<ele>208</ele>
<time>2024-05-07T14:37:43Z</time>
</trkpt>
<trkpt lat="49.201171807944775" lon="9.5018701069057">
<ele>208</ele>
<time>2024-05-07T14:37:44Z</time>
</trkpt>
<trkpt lat="49.201171807944775" lon="9.501872034743428">
<ele>208</ele>
<time>2024-05-07T14:37:46Z</time>
</trkpt>
<trkpt lat="49.20116803608835" lon="9.501872956752775">
<ele>208</ele>
<time>2024-05-07T14:37:47Z</time>
</trkpt>
<trkpt lat="49.20116803608835" lon="9.501872034743428">
<ele>208</ele>
<time>2024-05-07T14:37:48Z</time>
</trkpt>
<trkpt lat="49.20116803608835" lon="9.5018701069057">
<ele>208</ele>
<time>2024-05-07T14:37:49Z</time>
</trkpt>
<trkpt lat="49.201171807944775" lon="9.501866335049272">
<ele>208</ele>
<time>2024-05-07T14:37:50Z</time>
</trkpt>
<trkpt lat="49.201171807944775" lon="9.501865329220893">
<ele>208</ele>
<time>2024-05-07T14:37:51Z</time>
</trkpt>
<trkpt lat="49.201171807944775" lon="9.501863401383162">
<ele>208</ele>
<time>2024-05-07T14:37:55Z</time>
</trkpt>
<trkpt lat="49.20117566362023" lon="9.501865329220893">
<ele>208</ele>
<time>2024-05-07T14:37:56Z</time>
</trkpt>
<trkpt lat="49.201171807944775" lon="9.50186817906797">
<ele>208</ele>
<time>2024-05-07T14:37:57Z</time>
</trkpt>
<trkpt lat="49.201171807944775" lon="9.501872034743428">
<ele>208</ele>
<time>2024-05-07T14:37:58Z</time>
</trkpt>
<trkpt lat="49.201171807944775" lon="9.501872956752775">
<ele>208</ele>
<time>2024-05-07T14:37:59Z</time>
</trkpt>
<trkpt lat="49.20117566362023" lon="9.501872956752775">
<ele>208</ele>
<time>2024-05-07T14:38:00Z</time>
</trkpt>
<trkpt lat="49.20117566362023" lon="9.501872034743428">
<ele>208</ele>
<time>2024-05-07T14:38:01Z</time>
</trkpt>
<trkpt lat="49.20117566362023" lon="9.501872956752775">
<ele>208</ele>
<time>2024-05-07T14:38:02Z</time>
</trkpt>
<trkpt lat="49.20117943547666" lon="9.501872034743428">
<ele>208</ele>
<time>2024-05-07T14:38:03Z</time>
</trkpt>
<trkpt lat="49.20117943547666" lon="9.5018701069057">
<ele>208</ele>
<time>2024-05-07T14:38:04Z</time>
</trkpt>
<trkpt lat="49.20117943547666" lon="9.501872956752775">
<ele>208</ele>
<time>2024-05-07T14:38:05Z</time>
</trkpt>
<trkpt lat="49.20117943547666" lon="9.501872034743428">
<ele>208</ele>
<time>2024-05-07T14:38:07Z</time>
</trkpt>
<trkpt lat="49.20118329115212" lon="9.5018701069057">
<ele>208</ele>
<time>2024-05-07T14:38:08Z</time>
</trkpt>
<trkpt lat="49.20118329115212" lon="9.501872034743428">
<ele>208</ele>
<time>2024-05-07T14:38:09Z</time>
</trkpt>
<trkpt lat="49.20118329115212" lon="9.5018701069057">
<ele>208</ele>
<time>2024-05-07T14:38:11Z</time>
</trkpt>
<trkpt lat="49.20118329115212" lon="9.501872034743428">
<ele>208</ele>
<time>2024-05-07T14:38:13Z</time>
</trkpt>
<trkpt lat="49.20118706300855" lon="9.501876812428236">
<ele>208</ele>
<time>2024-05-07T14:38:15Z</time>
</trkpt>
<trkpt lat="49.20118329115212" lon="9.501879662275314">
<ele>207.8</ele>
<time>2024-05-07T14:38:16Z</time>
</trkpt>
<trkpt lat="49.20118329115212" lon="9.501878656446934">
<ele>207.8</ele>
<time>2024-05-07T14:38:17Z</time>
</trkpt>
<trkpt lat="49.20118329115212" lon="9.501879662275314">
<ele>207.6</ele>
<time>2024-05-07T14:38:18Z</time>
</trkpt>
<trkpt lat="49.20118329115212" lon="9.501881590113044">
<ele>207.6</ele>
<time>2024-05-07T14:38:20Z</time>
</trkpt>
<trkpt lat="49.20118329115212" lon="9.501885361969473">
<ele>207.4</ele>
<time>2024-05-07T14:38:21Z</time>
</trkpt>
<trkpt lat="49.20118329115212" lon="9.501886367797852">
<ele>207.4</ele>
<time>2024-05-07T14:38:22Z</time>
</trkpt>
<trkpt lat="49.20118706300855" lon="9.50188821181655">
<ele>207.4</ele>
<time>2024-05-07T14:38:23Z</time>
</trkpt>
<trkpt lat="49.20118706300855" lon="9.50189013965428">
<ele>207.4</ele>
<time>2024-05-07T14:38:25Z</time>
</trkpt>
<trkpt lat="49.201190918684006" lon="9.50189013965428">
<ele>207.4</ele>
<time>2024-05-07T14:38:26Z</time>
</trkpt>
<trkpt lat="49.201190918684006" lon="9.501892067492008">
<ele>207.6</ele>
<time>2024-05-07T14:38:27Z</time>
</trkpt>
<trkpt lat="49.20118706300855" lon="9.50188821181655">
<ele>207.6</ele>
<time>2024-05-07T14:38:29Z</time>
</trkpt>
<trkpt lat="49.201190918684006" lon="9.50189013965428">
<ele>207.6</ele>
<time>2024-05-07T14:38:32Z</time>
</trkpt>
<trkpt lat="49.201190918684006" lon="9.501892067492008">
<ele>207.6</ele>
<time>2024-05-07T14:38:33Z</time>
</trkpt>
<trkpt lat="49.20119469054043" lon="9.501892989501355">
<ele>207.6</ele>
<time>2024-05-07T14:38:34Z</time>
</trkpt>
<trkpt lat="49.20119469054043" lon="9.501894917339088">
<ele>207.6</ele>
<time>2024-05-07T14:38:35Z</time>
</trkpt>
<trkpt lat="49.20119469054043" lon="9.501896845176816">
<ele>207.6</ele>
<time>2024-05-07T14:38:36Z</time>
</trkpt>
<trkpt lat="49.20119854621589" lon="9.501899695023894">
<ele>207.6</ele>
<time>2024-05-07T14:38:38Z</time>
</trkpt>
<trkpt lat="49.20119854621589" lon="9.501901622861624">
<ele>207.6</ele>
<time>2024-05-07T14:38:40Z</time>
</trkpt>
<trkpt lat="49.20119854621589" lon="9.501899695023894">
<ele>207.4</ele>
<time>2024-05-07T14:38:41Z</time>
</trkpt>
<trkpt lat="49.20119854621589" lon="9.501898689195514">
<ele>207.4</ele>
<time>2024-05-07T14:38:42Z</time>
</trkpt>
<trkpt lat="49.20119854621589" lon="9.501896845176816">
<ele>207.4</ele>
<time>2024-05-07T14:38:43Z</time>
</trkpt>
<trkpt lat="49.20119854621589" lon="9.501898689195514">
<ele>207.6</ele>
<time>2024-05-07T14:38:44Z</time>
</trkpt>
<trkpt lat="49.20119854621589" lon="9.501899695023894">
<ele>207.4</ele>
<time>2024-05-07T14:38:48Z</time>
</trkpt>
<trkpt lat="49.20119854621589" lon="9.501901622861624">
<ele>207.6</ele>
<time>2024-05-07T14:38:52Z</time>
</trkpt>
<trkpt lat="49.20119469054043" lon="9.5019063167274">
<ele>207.6</ele>
<time>2024-05-07T14:38:59Z</time>
</trkpt>
<trkpt lat="49.20119469054043" lon="9.50190824456513">
<ele>207.4</ele>
<time>2024-05-07T14:39:00Z</time>
</trkpt>
<trkpt lat="49.201190918684006" lon="9.501913022249935">
<ele>207.4</ele>
<time>2024-05-07T14:39:01Z</time>
</trkpt>
<trkpt lat="49.20118706300855" lon="9.501916877925396">
<ele>207.4</ele>
<time>2024-05-07T14:39:02Z</time>
</trkpt>
<trkpt lat="49.20118706300855" lon="9.501919727772474">
<ele>207.4</ele>
<time>2024-05-07T14:39:03Z</time>
</trkpt>
<trkpt lat="49.20118706300855" lon="9.501921571791172">
<ele>207.4</ele>
<time>2024-05-07T14:39:04Z</time>
</trkpt>
<trkpt lat="49.20118706300855" lon="9.501919727772474">
<ele>207.4</ele>
<time>2024-05-07T14:39:05Z</time>
</trkpt>
<trkpt lat="49.20118706300855" lon="9.501918721944094">
<ele>207.4</ele>
<time>2024-05-07T14:39:06Z</time>
</trkpt>
<trkpt lat="49.20118706300855" lon="9.501919727772474">
<ele>207.4</ele>
<time>2024-05-07T14:39:08Z</time>
</trkpt>
<trkpt lat="49.20118706300855" lon="9.501918721944094">
<ele>207.4</ele>
<time>2024-05-07T14:39:09Z</time>
</trkpt>
<trkpt lat="49.20118706300855" lon="9.501916877925396">
<ele>207.4</ele>
<time>2024-05-07T14:39:10Z</time>
</trkpt>
<trkpt lat="49.20118706300855" lon="9.501914950087668">
<ele>207.6</ele>
<time>2024-05-07T14:39:12Z</time>
</trkpt>
<trkpt lat="49.20118706300855" lon="9.501911094412208">
<ele>207.6</ele>
<time>2024-05-07T14:39:14Z</time>
</trkpt>
<trkpt lat="49.20118329115212" lon="9.5019063167274">
<ele>207.6</ele>
<time>2024-05-07T14:39:15Z</time>
</trkpt>
<trkpt lat="49.20118706300855" lon="9.5019063167274">
<ele>207.4</ele>
<time>2024-05-07T14:39:17Z</time>
</trkpt>
<trkpt lat="49.20118706300855" lon="9.501905394718053">
<ele>207.4</ele>
<time>2024-05-07T14:39:18Z</time>
</trkpt>
<trkpt lat="49.20118706300855" lon="9.501903466880322">
<ele>207.4</ele>
<time>2024-05-07T14:39:19Z</time>
</trkpt>
<trkpt lat="49.20118329115212" lon="9.501903466880322">
<ele>207.4</ele>
<time>2024-05-07T14:39:20Z</time>
</trkpt>
<trkpt lat="49.20118706300855" lon="9.501901622861624">
<ele>207.4</ele>
<time>2024-05-07T14:39:21Z</time>
</trkpt>
<trkpt lat="49.20118329115212" lon="9.501901622861624">
<ele>207.4</ele>
<time>2024-05-07T14:39:22Z</time>
</trkpt>
<trkpt lat="49.20118329115212" lon="9.501899695023894">
<ele>207.4</ele>
<time>2024-05-07T14:39:23Z</time>
</trkpt>
<trkpt lat="49.20118329115212" lon="9.501898689195514">
<ele>207.4</ele>
<time>2024-05-07T14:39:25Z</time>
</trkpt>
<trkpt lat="49.20117943547666" lon="9.501898689195514">
<ele>207.4</ele>
<time>2024-05-07T14:39:28Z</time>
</trkpt>
<trkpt lat="49.20117566362023" lon="9.501898689195514">
<ele>207.4</ele>
<time>2024-05-07T14:39:29Z</time>
</trkpt>
<trkpt lat="49.201171807944775" lon="9.501896845176816">
<ele>207.4</ele>
<time>2024-05-07T14:39:31Z</time>
</trkpt>
<trkpt lat="49.201171807944775" lon="9.501903466880322">
<ele>207.4</ele>
<time>2024-05-07T14:39:32Z</time>
</trkpt>
<trkpt lat="49.20116418041289" lon="9.501901622861624">
<ele>207.4</ele>
<time>2024-05-07T14:39:33Z</time>
</trkpt>
<trkpt lat="49.201156552881" lon="9.501899695023894">
<ele>207.6</ele>
<time>2024-05-07T14:39:34Z</time>
</trkpt>
<trkpt lat="49.20114892534912" lon="9.501896845176816">
<ele>207.6</ele>
<time>2024-05-07T14:39:35Z</time>
</trkpt>
<trkpt lat="49.20114129781723" lon="9.50189013965428">
<ele>207.6</ele>
<time>2024-05-07T14:39:36Z</time>
</trkpt>
<trkpt lat="49.201133670285344" lon="9.501883434131742">
<ele>207.6</ele>
<time>2024-05-07T14:39:37Z</time>
</trkpt>
<trkpt lat="49.20112604275346" lon="9.501874884590508">
<ele>207.6</ele>
<time>2024-05-07T14:39:38Z</time>
</trkpt>
<trkpt lat="49.20111841522157" lon="9.501865329220893">
<ele>207.6</ele>
<time>2024-05-07T14:39:39Z</time>
</trkpt>
<trkpt lat="49.201110787689686" lon="9.501858707517384">
<ele>207.4</ele>
<time>2024-05-07T14:39:40Z</time>
</trkpt>
<trkpt lat="49.2011031601578" lon="9.50185007415712">
<ele>207.4</ele>
<time>2024-05-07T14:39:41Z</time>
</trkpt>
<trkpt lat="49.201091760769486" lon="9.501846302300692">
<ele>207.4</ele>
<time>2024-05-07T14:39:42Z</time>
</trkpt>
<trkpt lat="49.20108790509403" lon="9.501843452453612">
<ele>207.4</ele>
<time>2024-05-07T14:39:43Z</time>
</trkpt>
<trkpt lat="49.20108790509403" lon="9.501846302300692">
<ele>207.4</ele>
<time>2024-05-07T14:39:44Z</time>
</trkpt>
<trkpt lat="49.20108790509403" lon="9.50185007415712">
<ele>207.2</ele>
<time>2024-05-07T14:39:45Z</time>
</trkpt>
<trkpt lat="49.2010841332376" lon="9.501846302300692">
<ele>207.2</ele>
<time>2024-05-07T14:39:46Z</time>
</trkpt>
<trkpt lat="49.2010841332376" lon="9.501845296472313">
<ele>207.2</ele>
<time>2024-05-07T14:39:47Z</time>
</trkpt>
<trkpt lat="49.20108790509403" lon="9.501845296472313">
<ele>207.4</ele>
<time>2024-05-07T14:39:48Z</time>
</trkpt>
<trkpt lat="49.20108790509403" lon="9.501843452453612">
<ele>207.4</ele>
<time>2024-05-07T14:39:49Z</time>
</trkpt>
<trkpt lat="49.20108790509403" lon="9.501845296472313">
<ele>207.4</ele>
<time>2024-05-07T14:39:53Z</time>
</trkpt>
<trkpt lat="49.2010841332376" lon="9.501846302300692">
<ele>207.6</ele>
<time>2024-05-07T14:39:55Z</time>
</trkpt>
<trkpt lat="49.2010841332376" lon="9.50184814631939">
<ele>207.6</ele>
<time>2024-05-07T14:39:57Z</time>
</trkpt>
<trkpt lat="49.201095532625914" lon="9.50182811357081">
<ele>207.8</ele>
<time>2024-05-07T14:39:58Z</time>
</trkpt>
<trkpt lat="49.201095532625914" lon="9.501826269552112">
<ele>207.8</ele>
<time>2024-05-07T14:40:02Z</time>
</trkpt>
<trkpt lat="49.20109938830137" lon="9.501826269552112">
<ele>207.8</ele>
<time>2024-05-07T14:40:03Z</time>
</trkpt>
<trkpt lat="49.20109938830137" lon="9.50183004140854">
<ele>207.8</ele>
<time>2024-05-07T14:40:04Z</time>
</trkpt>
<trkpt lat="49.20109938830137" lon="9.50182811357081">
<ele>207.8</ele>
<time>2024-05-07T14:40:06Z</time>
</trkpt>
<trkpt lat="49.20109938830137" lon="9.501826269552112">
<ele>207.8</ele>
<time>2024-05-07T14:40:08Z</time>
</trkpt>
<trkpt lat="49.20109938830137" lon="9.501823419705032">
<ele>207.8</ele>
<time>2024-05-07T14:40:09Z</time>
</trkpt>
<trkpt lat="49.2011031601578" lon="9.501819564029574">
<ele>207.8</ele>
<time>2024-05-07T14:40:10Z</time>
</trkpt>
<trkpt lat="49.2011031601578" lon="9.501814786344768">
<ele>207.8</ele>
<time>2024-05-07T14:40:11Z</time>
</trkpt>
<trkpt lat="49.2011031601578" lon="9.50180816464126">
<ele>207.8</ele>
<time>2024-05-07T14:40:12Z</time>
</trkpt>
<trkpt lat="49.20110701583326" lon="9.501801459118724">
<ele>207.8</ele>
<time>2024-05-07T14:40:13Z</time>
</trkpt>
<trkpt lat="49.201110787689686" lon="9.501798609271646">
<ele>207.8</ele>
<time>2024-05-07T14:40:14Z</time>
</trkpt>
<trkpt lat="49.201114643365145" lon="9.501796681433916">
<ele>207.8</ele>
<time>2024-05-07T14:40:16Z</time>
</trkpt>
<trkpt lat="49.201110787689686" lon="9.501798609271646">
<ele>207.8</ele>
<time>2024-05-07T14:40:17Z</time>
</trkpt>
<trkpt lat="49.201114643365145" lon="9.501798609271646">
<ele>207.8</ele>
<time>2024-05-07T14:40:20Z</time>
</trkpt>
<trkpt lat="49.201114643365145" lon="9.501796681433916">
<ele>207.8</ele>
<time>2024-05-07T14:40:22Z</time>
</trkpt>
<trkpt lat="49.201114643365145" lon="9.501794753596188">
<ele>207.8</ele>
<time>2024-05-07T14:40:23Z</time>
</trkpt>
<trkpt lat="49.201114643365145" lon="9.501796681433916">
<ele>207.8</ele>
<time>2024-05-07T14:40:27Z</time>
</trkpt>
<trkpt lat="49.201110787689686" lon="9.501798609271646">
<ele>207.8</ele>
<time>2024-05-07T14:40:28Z</time>
</trkpt>
<trkpt lat="49.201110787689686" lon="9.501799531280994">
<ele>207.8</ele>
<time>2024-05-07T14:40:29Z</time>
</trkpt>
<trkpt lat="49.201114643365145" lon="9.501799531280994">
<ele>207.8</ele>
<time>2024-05-07T14:40:32Z</time>
</trkpt>
<trkpt lat="49.201114643365145" lon="9.501798609271646">
<ele>207.8</ele>
<time>2024-05-07T14:40:35Z</time>
</trkpt>
<trkpt lat="49.201114643365145" lon="9.501799531280994">
<ele>207.8</ele>
<time>2024-05-07T14:40:36Z</time>
</trkpt>
<trkpt lat="49.201114643365145" lon="9.501801459118724">
<ele>207.8</ele>
<time>2024-05-07T14:40:39Z</time>
</trkpt>
<trkpt lat="49.201114643365145" lon="9.501803386956452">
<ele>207.8</ele>
<time>2024-05-07T14:40:42Z</time>
</trkpt>
<trkpt lat="49.201114643365145" lon="9.501805230975153">
<ele>207.8</ele>
<time>2024-05-07T14:40:46Z</time>
</trkpt>
<trkpt lat="49.201110787689686" lon="9.501805230975153">
<ele>207.8</ele>
<time>2024-05-07T14:40:47Z</time>
</trkpt>
<trkpt lat="49.201110787689686" lon="9.501806236803532">
<ele>207.8</ele>
<time>2024-05-07T14:40:48Z</time>
</trkpt>
<trkpt lat="49.201110787689686" lon="9.50180816464126">
<ele>207.8</ele>
<time>2024-05-07T14:40:54Z</time>
</trkpt>
<trkpt lat="49.201110787689686" lon="9.50181000865996">
<ele>207.8</ele>
<time>2024-05-07T14:40:56Z</time>
</trkpt>
<trkpt lat="49.201110787689686" lon="9.501811936497688">
<ele>207.8</ele>
<time>2024-05-07T14:41:01Z</time>
</trkpt>
<trkpt lat="49.201110787689686" lon="9.501812858507035">
<ele>207.8</ele>
<time>2024-05-07T14:41:02Z</time>
</trkpt>
<trkpt lat="49.201110787689686" lon="9.501814786344768">
<ele>207.8</ele>
<time>2024-05-07T14:41:03Z</time>
</trkpt>
<trkpt lat="49.20110701583326" lon="9.501814786344768">
<ele>207.8</ele>
<time>2024-05-07T14:41:04Z</time>
</trkpt>
<trkpt lat="49.20110701583326" lon="9.501816714182496">
<ele>207.8</ele>
<time>2024-05-07T14:41:05Z</time>
</trkpt>
<trkpt lat="49.20110701583326" lon="9.501818642020226">
<ele>207.8</ele>
<time>2024-05-07T14:41:11Z</time>
</trkpt>
<trkpt lat="49.20110701583326" lon="9.501819564029574">
<ele>207.8</ele>
<time>2024-05-07T14:41:13Z</time>
</trkpt>
<trkpt lat="49.20110701583326" lon="9.501821491867304">
<ele>207.8</ele>
<time>2024-05-07T14:41:17Z</time>
</trkpt>
<trkpt lat="49.20110701583326" lon="9.501823419705032">
<ele>207.8</ele>
<time>2024-05-07T14:41:19Z</time>
</trkpt>
<trkpt lat="49.20110701583326" lon="9.501821491867304">
<ele>207.8</ele>
<time>2024-05-07T14:41:23Z</time>
</trkpt>
<trkpt lat="49.20110701583326" lon="9.501823419705032">
<ele>207.8</ele>
<time>2024-05-07T14:41:24Z</time>
</trkpt>
<trkpt lat="49.201110787689686" lon="9.501823419705032">
<ele>207.8</ele>
<time>2024-05-07T14:41:34Z</time>
</trkpt>
<trkpt lat="49.20110701583326" lon="9.501823419705032">
<ele>207.8</ele>
<time>2024-05-07T14:41:36Z</time>
</trkpt>
<trkpt lat="49.201110787689686" lon="9.501823419705032">
<ele>207.8</ele>
<time>2024-05-07T14:41:37Z</time>
</trkpt>
<trkpt lat="49.201110787689686" lon="9.501825263723733">
<ele>207.8</ele>
<time>2024-05-07T14:41:38Z</time>
</trkpt>
<trkpt lat="49.201110787689686" lon="9.501823419705032">
<ele>207.8</ele>
<time>2024-05-07T14:41:41Z</time>
</trkpt>
<trkpt lat="49.201110787689686" lon="9.501821491867304">
<ele>207.8</ele>
<time>2024-05-07T14:41:43Z</time>
</trkpt>
<trkpt lat="49.201110787689686" lon="9.501819564029574">
<ele>207.8</ele>
<time>2024-05-07T14:41:47Z</time>
</trkpt>
<trkpt lat="49.201110787689686" lon="9.501821491867304">
<ele>207.8</ele>
<time>2024-05-07T14:41:55Z</time>
</trkpt>
<trkpt lat="49.201110787689686" lon="9.501823419705032">
<ele>207.8</ele>
<time>2024-05-07T14:42:01Z</time>
</trkpt>
<trkpt lat="49.201110787689686" lon="9.501826269552112">
<ele>207.8</ele>
<time>2024-05-07T14:42:13Z</time>
</trkpt>
<trkpt lat="49.20110701583326" lon="9.50182811357081">
<ele>207.8</ele>
<time>2024-05-07T14:42:14Z</time>
</trkpt>
<trkpt lat="49.201110787689686" lon="9.50182811357081">
<ele>207.8</ele>
<time>2024-05-07T14:42:15Z</time>
</trkpt>
<trkpt lat="49.201110787689686" lon="9.50183004140854">
<ele>207.8</ele>
<time>2024-05-07T14:42:16Z</time>
</trkpt>
<trkpt lat="49.201110787689686" lon="9.501832891255615">
<ele>207.8</ele>
<time>2024-05-07T14:42:17Z</time>
</trkpt>
<trkpt lat="49.201110787689686" lon="9.501834819093348">
<ele>207.8</ele>
<time>2024-05-07T14:42:19Z</time>
</trkpt>
<trkpt lat="49.201114643365145" lon="9.501832891255615">
<ele>207.8</ele>
<time>2024-05-07T14:42:21Z</time>
</trkpt>
<trkpt lat="49.201114643365145" lon="9.501831969246268">
<ele>207.8</ele>
<time>2024-05-07T14:42:23Z</time>
</trkpt>
<trkpt lat="49.201114643365145" lon="9.50183004140854">
<ele>207.8</ele>
<time>2024-05-07T14:42:24Z</time>
</trkpt>
<trkpt lat="49.201114643365145" lon="9.50182811357081">
<ele>207.8</ele>
<time>2024-05-07T14:42:25Z</time>
</trkpt>
<trkpt lat="49.201114643365145" lon="9.50183004140854">
<ele>207.8</ele>
<time>2024-05-07T14:42:27Z</time>
</trkpt>
<trkpt lat="49.20111841522157" lon="9.50183004140854">
<ele>207.8</ele>
<time>2024-05-07T14:42:28Z</time>
</trkpt>
<trkpt lat="49.20111841522157" lon="9.50182811357081">
<ele>207.8</ele>
<time>2024-05-07T14:42:29Z</time>
</trkpt>
<trkpt lat="49.20111841522157" lon="9.501826269552112">
<ele>207.8</ele>
<time>2024-05-07T14:42:30Z</time>
</trkpt>
<trkpt lat="49.20112989842892" lon="9.501832891255615">
<ele>207.8</ele>
<time>2024-05-07T14:42:32Z</time>
</trkpt>
<trkpt lat="49.201133670285344" lon="9.501834819093348">
<ele>207.8</ele>
<time>2024-05-07T14:42:33Z</time>
</trkpt>
<trkpt lat="49.2011375259608" lon="9.501836746931076">
<ele>207.8</ele>
<time>2024-05-07T14:42:35Z</time>
</trkpt>
<trkpt lat="49.201133670285344" lon="9.501838674768806">
<ele>207.8</ele>
<time>2024-05-07T14:42:36Z</time>
</trkpt>
<trkpt lat="49.201133670285344" lon="9.501841524615884">
<ele>207.8</ele>
<time>2024-05-07T14:42:37Z</time>
</trkpt>
<trkpt lat="49.2011375259608" lon="9.501843452453612">
<ele>207.8</ele>
<time>2024-05-07T14:42:38Z</time>
</trkpt>
<trkpt lat="49.2011375259608" lon="9.501845296472313">
<ele>207.8</ele>
<time>2024-05-07T14:42:39Z</time>
</trkpt>
<trkpt lat="49.201133670285344" lon="9.501845296472313">
<ele>207.8</ele>
<time>2024-05-07T14:42:41Z</time>
</trkpt>
<trkpt lat="49.201133670285344" lon="9.501841524615884">
<ele>207.8</ele>
<time>2024-05-07T14:42:42Z</time>
</trkpt>
<trkpt lat="49.201133670285344" lon="9.501838674768806">
<ele>207.8</ele>
<time>2024-05-07T14:42:43Z</time>
</trkpt>
<trkpt lat="49.201133670285344" lon="9.501834819093348">
<ele>207.8</ele>
<time>2024-05-07T14:42:44Z</time>
</trkpt>
<trkpt lat="49.20112989842892" lon="9.50183004140854">
<ele>207.8</ele>
<time>2024-05-07T14:42:47Z</time>
</trkpt>
<trkpt lat="49.20112989842892" lon="9.50182811357081">
<ele>207.8</ele>
<time>2024-05-07T14:42:48Z</time>
</trkpt>
<trkpt lat="49.20112989842892" lon="9.50183004140854">
<ele>207.8</ele>
<time>2024-05-07T14:42:49Z</time>
</trkpt>
<trkpt lat="49.20112989842892" lon="9.501831969246268">
<ele>207.8</ele>
<time>2024-05-07T14:42:50Z</time>
</trkpt>
<trkpt lat="49.20112989842892" lon="9.501834819093348">
<ele>207.8</ele>
<time>2024-05-07T14:42:51Z</time>
</trkpt>
<trkpt lat="49.20112989842892" lon="9.501836746931076">
<ele>207.8</ele>
<time>2024-05-07T14:42:52Z</time>
</trkpt>
<trkpt lat="49.20112989842892" lon="9.501832891255615">
<ele>207.8</ele>
<time>2024-05-07T14:42:53Z</time>
</trkpt>
<trkpt lat="49.20112604275346" lon="9.501832891255615">
<ele>207.8</ele>
<time>2024-05-07T14:42:54Z</time>
</trkpt>
<trkpt lat="49.20112604275346" lon="9.501836746931076">
<ele>207.8</ele>
<time>2024-05-07T14:42:57Z</time>
</trkpt>
<trkpt lat="49.20112227089703" lon="9.501836746931076">
<ele>207.8</ele>
<time>2024-05-07T14:42:59Z</time>
</trkpt>
<trkpt lat="49.20112227089703" lon="9.501838674768806">
<ele>207.8</ele>
<time>2024-05-07T14:43:01Z</time>
</trkpt>
<trkpt lat="49.20112227089703" lon="9.501839596778154">
<ele>207.8</ele>
<time>2024-05-07T14:43:03Z</time>
</trkpt>
<trkpt lat="49.20112604275346" lon="9.501841524615884">
<ele>207.8</ele>
<time>2024-05-07T14:43:04Z</time>
</trkpt>
<trkpt lat="49.20112604275346" lon="9.501843452453612">
<ele>207.8</ele>
<time>2024-05-07T14:43:05Z</time>
</trkpt>
<trkpt lat="49.20112604275346" lon="9.501841524615884">
<ele>207.8</ele>
<time>2024-05-07T14:43:06Z</time>
</trkpt>
<trkpt lat="49.20112227089703" lon="9.501841524615884">
<ele>207.8</ele>
<time>2024-05-07T14:43:07Z</time>
</trkpt>
<trkpt lat="49.20111841522157" lon="9.501843452453612">
<ele>207.8</ele>
<time>2024-05-07T14:43:12Z</time>
</trkpt>
<trkpt lat="49.20111841522157" lon="9.501845296472313">
<ele>207.8</ele>
<time>2024-05-07T14:43:13Z</time>
</trkpt>
<trkpt lat="49.20111841522157" lon="9.501843452453612">
<ele>207.8</ele>
<time>2024-05-07T14:43:14Z</time>
</trkpt>
<trkpt lat="49.20111841522157" lon="9.501845296472313">
<ele>207.8</ele>
<time>2024-05-07T14:43:15Z</time>
</trkpt>
<trkpt lat="49.20111841522157" lon="9.501846302300692">
<ele>207.8</ele>
<time>2024-05-07T14:43:16Z</time>
</trkpt>
<trkpt lat="49.20111841522157" lon="9.50185007415712">
<ele>207.8</ele>
<time>2024-05-07T14:43:17Z</time>
</trkpt>
<trkpt lat="49.20112227089703" lon="9.501854851841928">
<ele>207.8</ele>
<time>2024-05-07T14:43:18Z</time>
</trkpt>
<trkpt lat="49.20112604275346" lon="9.501858707517384">
<ele>207.8</ele>
<time>2024-05-07T14:43:19Z</time>
</trkpt>
<trkpt lat="49.20112989842892" lon="9.501859629526734">
<ele>207.8</ele>
<time>2024-05-07T14:43:20Z</time>
</trkpt>
<trkpt lat="49.2011375259608" lon="9.501858707517384">
<ele>207.8</ele>
<time>2024-05-07T14:43:21Z</time>
</trkpt>
<trkpt lat="49.20114515349269" lon="9.501861557364464">
<ele>207.8</ele>
<time>2024-05-07T14:43:22Z</time>
</trkpt>
<trkpt lat="49.20114892534912" lon="9.501865329220893">
<ele>207.8</ele>
<time>2024-05-07T14:43:23Z</time>
</trkpt>
<trkpt lat="49.201156552881" lon="9.501872034743428">
<ele>207.8</ele>
<time>2024-05-07T14:43:24Z</time>
</trkpt>
<trkpt lat="49.20116040855646" lon="9.501879662275314">
<ele>207.8</ele>
<time>2024-05-07T14:43:25Z</time>
</trkpt>
<trkpt lat="49.20116040855646" lon="9.501885361969473">
<ele>207.8</ele>
<time>2024-05-07T14:43:26Z</time>
</trkpt>
<trkpt lat="49.20116040855646" lon="9.501886367797852">
<ele>207.8</ele>
<time>2024-05-07T14:43:27Z</time>
</trkpt>
<trkpt lat="49.20116040855646" lon="9.501885361969473">
<ele>207.8</ele>
<time>2024-05-07T14:43:28Z</time>
</trkpt>
<trkpt lat="49.20116040855646" lon="9.501886367797852">
<ele>207.8</ele>
<time>2024-05-07T14:43:29Z</time>
</trkpt>
<trkpt lat="49.20116040855646" lon="9.501885361969473">
<ele>207.8</ele>
<time>2024-05-07T14:43:32Z</time>
</trkpt>
<trkpt lat="49.20116040855646" lon="9.501886367797852">
<ele>207.8</ele>
<time>2024-05-07T14:43:33Z</time>
</trkpt>
<trkpt lat="49.20116040855646" lon="9.50189013965428">
<ele>207.8</ele>
<time>2024-05-07T14:43:34Z</time>
</trkpt>
<trkpt lat="49.20116040855646" lon="9.501899695023894">
<ele>207.8</ele>
<time>2024-05-07T14:43:35Z</time>
</trkpt>
<trkpt lat="49.201156552881" lon="9.50190824456513">
<ele>207.8</ele>
<time>2024-05-07T14:43:36Z</time>
</trkpt>
<trkpt lat="49.201156552881" lon="9.501919727772474">
<ele>207.8</ele>
<time>2024-05-07T14:43:37Z</time>
</trkpt>
<trkpt lat="49.20114892534912" lon="9.501936910673976">
<ele>207.8</ele>
<time>2024-05-07T14:43:38Z</time>
</trkpt>
<trkpt lat="49.20114515349269" lon="9.501959793269634">
<ele>207.8</ele>
<time>2024-05-07T14:43:39Z</time>
</trkpt>
<trkpt lat="49.20112989842892" lon="9.501981670036912">
<ele>207.8</ele>
<time>2024-05-07T14:43:40Z</time>
</trkpt>
<trkpt lat="49.20112227089703" lon="9.50200455263257">
<ele>207.8</ele>
<time>2024-05-07T14:43:41Z</time>
</trkpt>
<trkpt lat="49.201114643365145" lon="9.502035062760116">
<ele>207.8</ele>
<time>2024-05-07T14:43:42Z</time>
</trkpt>
<trkpt lat="49.2011031601578" lon="9.502075128257276">
<ele>207.8</ele>
<time>2024-05-07T14:43:43Z</time>
</trkpt>
<trkpt lat="49.201091760769486" lon="9.502111421898007">
<ele>207.8</ele>
<time>2024-05-07T14:43:44Z</time>
</trkpt>
<trkpt lat="49.20108027756214" lon="9.50214670971036">
<ele>207.8</ele>
<time>2024-05-07T14:43:45Z</time>
</trkpt>
<trkpt lat="49.20106887817383" lon="9.50218291953206">
<ele>207.8</ele>
<time>2024-05-07T14:43:46Z</time>
</trkpt>
<trkpt lat="49.20105739496648" lon="9.502218207344413">
<ele>207.8</ele>
<time>2024-05-07T14:43:47Z</time>
</trkpt>
<trkpt lat="49.2010497674346" lon="9.502251567319036">
<ele>207.8</ele>
<time>2024-05-07T14:43:48Z</time>
</trkpt>
<trkpt lat="49.20103828422725" lon="9.502284927293658">
<ele>207.8</ele>
<time>2024-05-07T14:43:49Z</time>
</trkpt>
<trkpt lat="49.20103828422725" lon="9.50232021510601">
<ele>207.8</ele>
<time>2024-05-07T14:43:50Z</time>
</trkpt>
<trkpt lat="49.201034512370825" lon="9.502353658899665">
<ele>207.8</ele>
<time>2024-05-07T14:43:51Z</time>
</trkpt>
<trkpt lat="49.20102302916348" lon="9.502385091036558">
<ele>207.8</ele>
<time>2024-05-07T14:43:52Z</time>
</trkpt>
<trkpt lat="49.201015401631594" lon="9.502411829307675">
<ele>207.8</ele>
<time>2024-05-07T14:43:53Z</time>
</trkpt>
<trkpt lat="49.20101162977517" lon="9.50244133360684">
<ele>207.8</ele>
<time>2024-05-07T14:43:54Z</time>
</trkpt>
<trkpt lat="49.20100014656782" lon="9.502476621419191">
<ele>207.8</ele>
<time>2024-05-07T14:43:55Z</time>
</trkpt>
<trkpt lat="49.20098489150405" lon="9.502508137375116">
<ele>207.8</ele>
<time>2024-05-07T14:43:56Z</time>
</trkpt>
<trkpt lat="49.200973492115736" lon="9.502543425187469">
<ele>207.8</ele>
<time>2024-05-07T14:43:57Z</time>
</trkpt>
<trkpt lat="49.20096586458385" lon="9.502574857324362">
<ele>207.8</ele>
<time>2024-05-07T14:43:58Z</time>
</trkpt>
<trkpt lat="49.20095823705197" lon="9.502606373280289">
<ele>207.8</ele>
<time>2024-05-07T14:43:59Z</time>
</trkpt>
<trkpt lat="49.20094675384462" lon="9.502636883407831">
<ele>207.8</ele>
<time>2024-05-07T14:44:00Z</time>
</trkpt>
<trkpt lat="49.20094298198819" lon="9.502666471526029">
<ele>207.8</ele>
<time>2024-05-07T14:44:01Z</time>
</trkpt>
<trkpt lat="49.20094675384462" lon="9.502703603357077">
<ele>207.8</ele>
<time>2024-05-07T14:44:02Z</time>
</trkpt>
<trkpt lat="49.20094298198819" lon="9.502741741016507">
<ele>207.8</ele>
<time>2024-05-07T14:44:03Z</time>
</trkpt>
<trkpt lat="49.20094298198819" lon="9.50277803465724">
<ele>207.8</ele>
<time>2024-05-07T14:44:04Z</time>
</trkpt>
<trkpt lat="49.20094298198819" lon="9.5028181001544">
<ele>207.8</ele>
<time>2024-05-07T14:44:05Z</time>
</trkpt>
<trkpt lat="49.20094298198819" lon="9.502858081832528">
<ele>207.8</ele>
<time>2024-05-07T14:44:06Z</time>
</trkpt>
<trkpt lat="49.20094675384462" lon="9.50289630331099">
<ele>207.8</ele>
<time>2024-05-07T14:44:07Z</time>
</trkpt>
<trkpt lat="49.20094675384462" lon="9.50293343514204">
<ele>207.8</ele>
<time>2024-05-07T14:44:08Z</time>
</trkpt>
<trkpt lat="49.20094675384462" lon="9.502966878935696">
<ele>207.8</ele>
<time>2024-05-07T14:44:09Z</time>
</trkpt>
<trkpt lat="49.20094675384462" lon="9.503000238910316">
<ele>207.8</ele>
<time>2024-05-07T14:44:10Z</time>
</trkpt>
<trkpt lat="49.20094675384462" lon="9.50303359888494">
<ele>207.8</ele>
<time>2024-05-07T14:44:11Z</time>
</trkpt>
<trkpt lat="49.20094675384462" lon="9.50306980870664">
<ele>207.8</ele>
<time>2024-05-07T14:44:12Z</time>
</trkpt>
<trkpt lat="49.20095060952008" lon="9.503107946366072">
<ele>207.8</ele>
<time>2024-05-07T14:44:13Z</time>
</trkpt>
<trkpt lat="49.20095060952008" lon="9.50314993970096">
<ele>207.8</ele>
<time>2024-05-07T14:44:14Z</time>
</trkpt>
<trkpt lat="49.200954381376505" lon="9.50319000519812">
<ele>207.8</ele>
<time>2024-05-07T14:44:15Z</time>
</trkpt>
<trkpt lat="49.20096200890839" lon="9.503228142857552">
<ele>207.8</ele>
<time>2024-05-07T14:44:16Z</time>
</trkpt>
<trkpt lat="49.20096586458385" lon="9.50327013619244">
<ele>207.8</ele>
<time>2024-05-07T14:44:17Z</time>
</trkpt>
<trkpt lat="49.20096963644028" lon="9.503308273851871">
<ele>207.8</ele>
<time>2024-05-07T14:44:18Z</time>
</trkpt>
<trkpt lat="49.200973492115736" lon="9.503341633826494">
<ele>207.8</ele>
<time>2024-05-07T14:44:19Z</time>
</trkpt>
<trkpt lat="49.200973492115736" lon="9.503374993801115">
<ele>207.8</ele>
<time>2024-05-07T14:44:20Z</time>
</trkpt>
<trkpt lat="49.20097726397216" lon="9.503406509757042">
<ele>207.8</ele>
<time>2024-05-07T14:44:21Z</time>
</trkpt>
<trkpt lat="49.200973492115736" lon="9.503441797569394">
<ele>207.8</ele>
<time>2024-05-07T14:44:22Z</time>
</trkpt>
<trkpt lat="49.200973492115736" lon="9.503478007391095">
<ele>207.8</ele>
<time>2024-05-07T14:44:23Z</time>
</trkpt>
<trkpt lat="49.20096963644028" lon="9.503517150878906">
<ele>207.8</ele>
<time>2024-05-07T14:44:24Z</time>
</trkpt>
<trkpt lat="49.20096200890839" lon="9.503551432862878">
<ele>207.8</ele>
<time>2024-05-07T14:44:25Z</time>
</trkpt>
<trkpt lat="49.20095823705197" lon="9.50358672067523">
<ele>207.8</ele>
<time>2024-05-07T14:44:26Z</time>
</trkpt>
<trkpt lat="49.20095823705197" lon="9.503622008487582">
<ele>207.6</ele>
<time>2024-05-07T14:44:27Z</time>
</trkpt>
<trkpt lat="49.20095823705197" lon="9.503656374290586">
<ele>207.6</ele>
<time>2024-05-07T14:44:28Z</time>
</trkpt>
<trkpt lat="49.20095823705197" lon="9.503694511950016">
<ele>207.6</ele>
<time>2024-05-07T14:44:29Z</time>
</trkpt>
<trkpt lat="49.20095823705197" lon="9.503734577447176">
<ele>207.4</ele>
<time>2024-05-07T14:44:30Z</time>
</trkpt>
<trkpt lat="49.20096963644028" lon="9.503773637115955">
<ele>207.4</ele>
<time>2024-05-07T14:44:31Z</time>
</trkpt>
<trkpt lat="49.20097726397216" lon="9.503806997090578">
<ele>207.4</ele>
<time>2024-05-07T14:44:32Z</time>
</trkpt>
<trkpt lat="49.20098874717951" lon="9.503840440884233">
<ele>207.4</ele>
<time>2024-05-07T14:44:33Z</time>
</trkpt>
<trkpt lat="49.200996374711394" lon="9.503876650705934">
<ele>207.4</ele>
<time>2024-05-07T14:44:34Z</time>
</trkpt>
<trkpt lat="49.20100400224328" lon="9.503910010680556">
<ele>207.4</ele>
<time>2024-05-07T14:44:35Z</time>
</trkpt>
<trkpt lat="49.20101162977517" lon="9.503939598798752">
<ele>207.4</ele>
<time>2024-05-07T14:44:36Z</time>
</trkpt>
<trkpt lat="49.20101925730705" lon="9.503974886611104">
<ele>207.4</ele>
<time>2024-05-07T14:44:37Z</time>
</trkpt>
<trkpt lat="49.20102302916348" lon="9.504010174423456">
<ele>207.4</ele>
<time>2024-05-07T14:44:38Z</time>
</trkpt>
<trkpt lat="49.201030656695366" lon="9.504045462235808">
<ele>207.4</ele>
<time>2024-05-07T14:44:39Z</time>
</trkpt>
<trkpt lat="49.201034512370825" lon="9.504084521904588">
<ele>207.4</ele>
<time>2024-05-07T14:44:40Z</time>
</trkpt>
<trkpt lat="49.20104213990271" lon="9.504124587401748">
<ele>207.4</ele>
<time>2024-05-07T14:44:41Z</time>
</trkpt>
<trkpt lat="49.20104591175914" lon="9.504166580736635">
<ele>207.4</ele>
<time>2024-05-07T14:44:42Z</time>
</trkpt>
<trkpt lat="49.201053539291024" lon="9.50420379638672">
<ele>207.4</ele>
<time>2024-05-07T14:44:43Z</time>
</trkpt>
<trkpt lat="49.20106502249837" lon="9.50424000620842">
<ele>207.6</ele>
<time>2024-05-07T14:44:44Z</time>
</trkpt>
<trkpt lat="49.20108027756214" lon="9.504273366183044">
<ele>207.6</ele>
<time>2024-05-07T14:44:45Z</time>
</trkpt>
<trkpt lat="49.201091760769486" lon="9.504311503842471">
<ele>207.8</ele>
<time>2024-05-07T14:44:46Z</time>
</trkpt>
<trkpt lat="49.20110701583326" lon="9.504346791654823">
<ele>208</ele>
<time>2024-05-07T14:44:47Z</time>
</trkpt>
<trkpt lat="49.201114643365145" lon="9.504380151629448">
<ele>208</ele>
<time>2024-05-07T14:44:48Z</time>
</trkpt>
<trkpt lat="49.20111841522157" lon="9.504413595423102">
<ele>208</ele>
<time>2024-05-07T14:44:49Z</time>
</trkpt>
<trkpt lat="49.20111841522157" lon="9.504446955397723">
<ele>208.2</ele>
<time>2024-05-07T14:44:50Z</time>
</trkpt>
<trkpt lat="49.20112989842892" lon="9.50447654351592">
<ele>208.2</ele>
<time>2024-05-07T14:44:51Z</time>
</trkpt>
<trkpt lat="49.20114129781723" lon="9.504511831328273">
<ele>208.2</ele>
<time>2024-05-07T14:44:52Z</time>
</trkpt>
<trkpt lat="49.201156552881" lon="9.5045518130064">
<ele>208.2</ele>
<time>2024-05-07T14:44:53Z</time>
</trkpt>
<trkpt lat="49.201156552881" lon="9.504586178809404">
<ele>208.2</ele>
<time>2024-05-07T14:44:54Z</time>
</trkpt>
<trkpt lat="49.20116803608835" lon="9.504621466621757">
<ele>208.4</ele>
<time>2024-05-07T14:44:55Z</time>
</trkpt>
<trkpt lat="49.201171807944775" lon="9.504659604281189">
<ele>208.4</ele>
<time>2024-05-07T14:44:56Z</time>
</trkpt>
<trkpt lat="49.20118329115212" lon="9.50469204224646">
<ele>208.6</ele>
<time>2024-05-07T14:44:57Z</time>
</trkpt>
<trkpt lat="49.20118706300855" lon="9.504726408049464">
<ele>208.8</ele>
<time>2024-05-07T14:44:58Z</time>
</trkpt>
<trkpt lat="49.20119469054043" lon="9.504756918177009">
<ele>209</ele>
<time>2024-05-07T14:44:59Z</time>
</trkpt>
<trkpt lat="49.20120231807232" lon="9.504777872934936">
<ele>209</ele>
<time>2024-05-07T14:45:00Z</time>
</trkpt>
<trkpt lat="49.20120617374778" lon="9.504801677539945">
<ele>209.2</ele>
<time>2024-05-07T14:45:01Z</time>
</trkpt>
<trkpt lat="49.201209945604205" lon="9.50483319349587">
<ele>209.2</ele>
<time>2024-05-07T14:45:02Z</time>
</trkpt>
<trkpt lat="49.201213801279664" lon="9.504861775785685">
<ele>209.4</ele>
<time>2024-05-07T14:45:03Z</time>
</trkpt>
<trkpt lat="49.20122142881155" lon="9.50489329174161">
<ele>209.4</ele>
<time>2024-05-07T14:45:04Z</time>
</trkpt>
<trkpt lat="49.20122520066798" lon="9.50493042357266">
<ele>209.4</ele>
<time>2024-05-07T14:45:05Z</time>
</trkpt>
<trkpt lat="49.20122520066798" lon="9.504973338916898">
<ele>209.2</ele>
<time>2024-05-07T14:45:06Z</time>
</trkpt>
<trkpt lat="49.20123282819986" lon="9.505018182098866">
<ele>209.2</ele>
<time>2024-05-07T14:45:07Z</time>
</trkpt>
<trkpt lat="49.20123668387532" lon="9.505062103271484">
<ele>209</ele>
<time>2024-05-07T14:45:08Z</time>
</trkpt>
<trkpt lat="49.20124053955078" lon="9.505102084949613">
<ele>209</ele>
<time>2024-05-07T14:45:09Z</time>
</trkpt>
<trkpt lat="49.20124431140721" lon="9.505140222609043">
<ele>209</ele>
<time>2024-05-07T14:45:10Z</time>
</trkpt>
<trkpt lat="49.201251938939095" lon="9.505178444087504">
<ele>209</ele>
<time>2024-05-07T14:45:11Z</time>
</trkpt>
<trkpt lat="49.20125579461455" lon="9.505218425765634">
<ele>209</ele>
<time>2024-05-07T14:45:12Z</time>
</trkpt>
<trkpt lat="49.20125956647098" lon="9.505254719406366">
<ele>209</ele>
<time>2024-05-07T14:45:13Z</time>
</trkpt>
<trkpt lat="49.20126342214644" lon="9.505292857065797">
<ele>209</ele>
<time>2024-05-07T14:45:14Z</time>
</trkpt>
<trkpt lat="49.20126719400287" lon="9.50532529503107">
<ele>209</ele>
<time>2024-05-07T14:45:15Z</time>
</trkpt>
<trkpt lat="49.201271049678326" lon="9.5053634326905">
<ele>209</ele>
<time>2024-05-07T14:45:16Z</time>
</trkpt>
<trkpt lat="49.20127867721021" lon="9.50540349818766">
<ele>209</ele>
<time>2024-05-07T14:45:17Z</time>
</trkpt>
<trkpt lat="49.2012863047421" lon="9.50544356368482">
<ele>209.2</ele>
<time>2024-05-07T14:45:18Z</time>
</trkpt>
<trkpt lat="49.2012863047421" lon="9.505476923659444">
<ele>209.2</ele>
<time>2024-05-07T14:45:19Z</time>
</trkpt>
<trkpt lat="49.2012863047421" lon="9.505510283634068">
<ele>209.4</ele>
<time>2024-05-07T14:45:20Z</time>
</trkpt>
<trkpt lat="49.2012863047421" lon="9.505539871752262">
<ele>209.4</ele>
<time>2024-05-07T14:45:21Z</time>
</trkpt>
<trkpt lat="49.2012863047421" lon="9.505570381879808">
<ele>209.4</ele>
<time>2024-05-07T14:45:22Z</time>
</trkpt>
<trkpt lat="49.20128244906664" lon="9.505599969998002">
<ele>209.6</ele>
<time>2024-05-07T14:45:23Z</time>
</trkpt>
<trkpt lat="49.20128244906664" lon="9.505628552287815">
<ele>209.6</ele>
<time>2024-05-07T14:45:24Z</time>
</trkpt>
<trkpt lat="49.20128244906664" lon="9.505658140406013">
<ele>209.8</ele>
<time>2024-05-07T14:45:25Z</time>
</trkpt>
<trkpt lat="49.2012863047421" lon="9.50568194501102">
<ele>209.8</ele>
<time>2024-05-07T14:45:26Z</time>
</trkpt>
<trkpt lat="49.201290076598525" lon="9.505706755444407">
<ele>209.8</ele>
<time>2024-05-07T14:45:27Z</time>
</trkpt>
<trkpt lat="49.201293932273984" lon="9.505731565877795">
<ele>209.8</ele>
<time>2024-05-07T14:45:28Z</time>
</trkpt>
<trkpt lat="49.201293932273984" lon="9.505753442645071">
<ele>209.8</ele>
<time>2024-05-07T14:45:29Z</time>
</trkpt>
<trkpt lat="49.20129770413041" lon="9.505769703537226">
<ele>210</ele>
<time>2024-05-07T14:45:30Z</time>
</trkpt>
<trkpt lat="49.20129770413041" lon="9.50578018091619">
<ele>210</ele>
<time>2024-05-07T14:45:31Z</time>
</trkpt>
<trkpt lat="49.20130155980587" lon="9.505783030763268">
<ele>210</ele>
<time>2024-05-07T14:45:32Z</time>
</trkpt>
<trkpt lat="49.20130155980587" lon="9.505784958600998">
<ele>210</ele>
<time>2024-05-07T14:45:33Z</time>
</trkpt>
<trkpt lat="49.20130155980587" lon="9.505783030763268">
<ele>210</ele>
<time>2024-05-07T14:45:34Z</time>
</trkpt>
<trkpt lat="49.20130155980587" lon="9.505784958600998">
<ele>210</ele>
<time>2024-05-07T14:45:35Z</time>
</trkpt>
<trkpt lat="49.20130155980587" lon="9.505786886438727">
<ele>210</ele>
<time>2024-05-07T14:45:37Z</time>
</trkpt>
<trkpt lat="49.20130155980587" lon="9.505788730457423">
<ele>210</ele>
<time>2024-05-07T14:45:38Z</time>
</trkpt>
<trkpt lat="49.20130155980587" lon="9.505789736285806">
<ele>210</ele>
<time>2024-05-07T14:45:40Z</time>
</trkpt>
<trkpt lat="49.20130155980587" lon="9.505793508142231">
<ele>210</ele>
<time>2024-05-07T14:45:41Z</time>
</trkpt>
<trkpt lat="49.20130155980587" lon="9.505794513970612">
<ele>210</ele>
<time>2024-05-07T14:45:42Z</time>
</trkpt>
<trkpt lat="49.20130155980587" lon="9.505796357989311">
<ele>210</ele>
<time>2024-05-07T14:45:43Z</time>
</trkpt>
<trkpt lat="49.20130155980587" lon="9.50579828582704">
<ele>210</ele>
<time>2024-05-07T14:45:47Z</time>
</trkpt>
<trkpt lat="49.20130155980587" lon="9.50580021366477">
<ele>209.8</ele>
<time>2024-05-07T14:45:48Z</time>
</trkpt>
<trkpt lat="49.20130155980587" lon="9.50579828582704">
<ele>209.8</ele>
<time>2024-05-07T14:45:50Z</time>
</trkpt>
<trkpt lat="49.20130155980587" lon="9.50580021366477">
<ele>209.8</ele>
<time>2024-05-07T14:45:51Z</time>
</trkpt>
<trkpt lat="49.20130155980587" lon="9.5058021415025">
<ele>209.8</ele>
<time>2024-05-07T14:45:54Z</time>
</trkpt>
<trkpt lat="49.20130155980587" lon="9.50580021366477">
<ele>209.8</ele>
<time>2024-05-07T14:45:55Z</time>
</trkpt>
<trkpt lat="49.20130155980587" lon="9.505803063511848">
<ele>209.8</ele>
<time>2024-05-07T14:45:56Z</time>
</trkpt>
<trkpt lat="49.20130155980587" lon="9.505809769034386">
<ele>209.8</ele>
<time>2024-05-07T14:45:57Z</time>
</trkpt>
<trkpt lat="49.20130155980587" lon="9.50582024641335">
<ele>209.8</ele>
<time>2024-05-07T14:45:58Z</time>
</trkpt>
<trkpt lat="49.20130155980587" lon="9.50584027916193">
<ele>209.8</ele>
<time>2024-05-07T14:45:59Z</time>
</trkpt>
<trkpt lat="49.20129770413041" lon="9.50586031191051">
<ele>209.8</ele>
<time>2024-05-07T14:46:00Z</time>
</trkpt>
<trkpt lat="49.20129770413041" lon="9.505887972190976">
<ele>209.8</ele>
<time>2024-05-07T14:46:01Z</time>
</trkpt>
<trkpt lat="49.20129770413041" lon="9.505925104022026">
<ele>209.8</ele>
<time>2024-05-07T14:46:02Z</time>
</trkpt>
<trkpt lat="49.201293932273984" lon="9.505960391834378">
<ele>209.6</ele>
<time>2024-05-07T14:46:03Z</time>
</trkpt>
<trkpt lat="49.201293932273984" lon="9.506003307178617">
<ele>209.6</ele>
<time>2024-05-07T14:46:04Z</time>
</trkpt>
<trkpt lat="49.201290076598525" lon="9.506046222522857">
<ele>209.4</ele>
<time>2024-05-07T14:46:05Z</time>
</trkpt>
<trkpt lat="49.2012863047421" lon="9.506088215857744">
<ele>209.4</ele>
<time>2024-05-07T14:46:06Z</time>
</trkpt>
<trkpt lat="49.20128244906664" lon="9.50613498687744">
<ele>209.4</ele>
<time>2024-05-07T14:46:07Z</time>
</trkpt>
<trkpt lat="49.20128244906664" lon="9.506183601915836">
<ele>209.4</ele>
<time>2024-05-07T14:46:08Z</time>
</trkpt>
<trkpt lat="49.20128244906664" lon="9.506230289116502">
<ele>209.6</ele>
<time>2024-05-07T14:46:09Z</time>
</trkpt>
<trkpt lat="49.20127867721021" lon="9.5062770601362">
<ele>209.6</ele>
<time>2024-05-07T14:46:10Z</time>
</trkpt>
<trkpt lat="49.20127867721021" lon="9.506321903318169">
<ele>209.8</ele>
<time>2024-05-07T14:46:11Z</time>
</trkpt>
<trkpt lat="49.20127482153475" lon="9.506364818662403">
<ele>209.8</ele>
<time>2024-05-07T14:46:12Z</time>
</trkpt>
<trkpt lat="49.20127482153475" lon="9.506402956321836">
<ele>210</ele>
<time>2024-05-07T14:46:13Z</time>
</trkpt>
<trkpt lat="49.20127482153475" lon="9.506442015990617">
<ele>210.2</ele>
<time>2024-05-07T14:46:14Z</time>
</trkpt>
<trkpt lat="49.201271049678326" lon="9.506480153650044">
<ele>210.2</ele>
<time>2024-05-07T14:46:15Z</time>
</trkpt>
<trkpt lat="49.201271049678326" lon="9.506518291309476">
<ele>210.4</ele>
<time>2024-05-07T14:46:16Z</time>
</trkpt>
<trkpt lat="49.20126719400287" lon="9.506554584950209">
<ele>210.4</ele>
<time>2024-05-07T14:46:17Z</time>
</trkpt>
<trkpt lat="49.20126342214644" lon="9.50658987276256">
<ele>210.6</ele>
<time>2024-05-07T14:46:18Z</time>
</trkpt>
<trkpt lat="49.20125956647098" lon="9.506621304899454">
<ele>210.6</ele>
<time>2024-05-07T14:46:19Z</time>
</trkpt>
<trkpt lat="49.20125956647098" lon="9.506651815027">
<ele>210.6</ele>
<time>2024-05-07T14:46:20Z</time>
</trkpt>
<trkpt lat="49.20125579461455" lon="9.50668517500162">
<ele>210.6</ele>
<time>2024-05-07T14:46:21Z</time>
</trkpt>
<trkpt lat="49.201251938939095" lon="9.506721468642354">
<ele>210.6</ele>
<time>2024-05-07T14:46:22Z</time>
</trkpt>
<trkpt lat="49.201251938939095" lon="9.506758684292436">
<ele>210.4</ele>
<time>2024-05-07T14:46:23Z</time>
</trkpt>
<trkpt lat="49.20124816708267" lon="9.506796821951866">
<ele>210.4</ele>
<time>2024-05-07T14:46:24Z</time>
</trkpt>
<trkpt lat="49.20124816708267" lon="9.50682825408876">
<ele>210.4</ele>
<time>2024-05-07T14:46:25Z</time>
</trkpt>
<trkpt lat="49.20124816708267" lon="9.506858764216304">
<ele>210.4</ele>
<time>2024-05-07T14:46:26Z</time>
</trkpt>
<trkpt lat="49.20124816708267" lon="9.506883574649692">
<ele>210.4</ele>
<time>2024-05-07T14:46:27Z</time>
</trkpt>
<trkpt lat="49.20124816708267" lon="9.50690838508308">
<ele>210.4</ele>
<time>2024-05-07T14:46:28Z</time>
</trkpt>
<trkpt lat="49.20124816708267" lon="9.506930345669389">
<ele>210.4</ele>
<time>2024-05-07T14:46:29Z</time>
</trkpt>
<trkpt lat="49.20124816708267" lon="9.506950378417969">
<ele>210.4</ele>
<time>2024-05-07T14:46:30Z</time>
</trkpt>
<trkpt lat="49.20125579461455" lon="9.506977954879403">
<ele>210.4</ele>
<time>2024-05-07T14:46:31Z</time>
</trkpt>
<trkpt lat="49.20125579461455" lon="9.5069885160774">
<ele>210.4</ele>
<time>2024-05-07T14:46:32Z</time>
</trkpt>
<trkpt lat="49.20126342214644" lon="9.506995137780905">
<ele>210.6</ele>
<time>2024-05-07T14:46:33Z</time>
</trkpt>
<trkpt lat="49.20126342214644" lon="9.506997987627985">
<ele>210.6</ele>
<time>2024-05-07T14:46:34Z</time>
</trkpt>
<trkpt lat="49.20126342214644" lon="9.506997065618634">
<ele>210.6</ele>
<time>2024-05-07T14:46:35Z</time>
</trkpt>
<trkpt lat="49.20126719400287" lon="9.507011398673058">
<ele>210.6</ele>
<time>2024-05-07T14:46:39Z</time>
</trkpt>
<trkpt lat="49.20128244906664" lon="9.507021876052022">
<ele>210.4</ele>
<time>2024-05-07T14:46:40Z</time>
</trkpt>
<trkpt lat="49.20129770413041" lon="9.507019948214293">
<ele>210.4</ele>
<time>2024-05-07T14:46:41Z</time>
</trkpt>
<trkpt lat="49.20130918733776" lon="9.507011398673058">
<ele>210.2</ele>
<time>2024-05-07T14:46:42Z</time>
</trkpt>
<trkpt lat="49.201332069933414" lon="9.507001843303442">
<ele>210.2</ele>
<time>2024-05-07T14:46:43Z</time>
</trkpt>
<trkpt lat="49.201351096853614" lon="9.506977954879403">
<ele>210</ele>
<time>2024-05-07T14:46:44Z</time>
</trkpt>
<trkpt lat="49.2013587243855" lon="9.506933195516469">
<ele>210</ele>
<time>2024-05-07T14:46:45Z</time>
</trkpt>
<trkpt lat="49.201370207592845" lon="9.506883574649692">
<ele>209.8</ele>
<time>2024-05-07T14:46:46Z</time>
</trkpt>
<trkpt lat="49.2013930901885" lon="9.506833031773567">
<ele>209.8</ele>
<time>2024-05-07T14:46:47Z</time>
</trkpt>
<trkpt lat="49.20141982845962" lon="9.506786344572902">
<ele>209.6</ele>
<time>2024-05-07T14:46:48Z</time>
</trkpt>
<trkpt lat="49.201446482911706" lon="9.506739573553205">
<ele>209.6</ele>
<time>2024-05-07T14:46:49Z</time>
</trkpt>
<trkpt lat="49.20146559365094" lon="9.506691880524158">
<ele>209.6</ele>
<time>2024-05-07T14:46:50Z</time>
</trkpt>
<trkpt lat="49.20149224810302" lon="9.506643265485764">
<ele>209.6</ele>
<time>2024-05-07T14:46:51Z</time>
</trkpt>
<trkpt lat="49.20151898637414" lon="9.506598422303796">
<ele>209.8</ele>
<time>2024-05-07T14:46:52Z</time>
</trkpt>
<trkpt lat="49.201545640826225" lon="9.506556428968906">
<ele>209.8</ele>
<time>2024-05-07T14:46:53Z</time>
</trkpt>
<trkpt lat="49.20157615095377" lon="9.506516447290778">
<ele>209.8</ele>
<time>2024-05-07T14:46:54Z</time>
</trkpt>
<trkpt lat="49.201606744900346" lon="9.506483003497124">
<ele>209.8</ele>
<time>2024-05-07T14:46:55Z</time>
</trkpt>
<trkpt lat="49.20164102688432" lon="9.506456349045038">
<ele>210</ele>
<time>2024-05-07T14:46:56Z</time>
</trkpt>
<trkpt lat="49.20167153701186" lon="9.506443021818995">
<ele>210</ele>
<time>2024-05-07T14:46:57Z</time>
</trkpt>
<trkpt lat="49.20169441960752" lon="9.506428688764572">
<ele>210.2</ele>
<time>2024-05-07T14:46:58Z</time>
</trkpt>
<trkpt lat="49.20171730220318" lon="9.506418211385608">
<ele>210.2</ele>
<time>2024-05-07T14:46:59Z</time>
</trkpt>
<trkpt lat="49.20174018479884" lon="9.506416283547878">
<ele>210.4</ele>
<time>2024-05-07T14:47:00Z</time>
</trkpt>
<trkpt lat="49.20176315121353" lon="9.506420055404304">
<ele>210.4</ele>
<time>2024-05-07T14:47:01Z</time>
</trkpt>
<trkpt lat="49.201786033809185" lon="9.506428688764572">
<ele>210.4</ele>
<time>2024-05-07T14:47:02Z</time>
</trkpt>
<trkpt lat="49.201805060729384" lon="9.506442015990617">
<ele>210.6</ele>
<time>2024-05-07T14:47:03Z</time>
</trkpt>
<trkpt lat="49.2018317990005" lon="9.506464898586271">
<ele>210.6</ele>
<time>2024-05-07T14:47:04Z</time>
</trkpt>
<trkpt lat="49.2018508259207" lon="9.506496414542198">
<ele>210.6</ele>
<time>2024-05-07T14:47:05Z</time>
</trkpt>
<trkpt lat="49.20186993665993" lon="9.506538324058056">
<ele>210.6</ele>
<time>2024-05-07T14:47:06Z</time>
</trkpt>
<trkpt lat="49.20187756419182" lon="9.506585095077751">
<ele>210.6</ele>
<time>2024-05-07T14:47:07Z</time>
</trkpt>
<trkpt lat="49.201885191723704" lon="9.506628010421991">
<ele>210.8</ele>
<time>2024-05-07T14:47:08Z</time>
</trkpt>
<trkpt lat="49.201885191723704" lon="9.506673775613308">
<ele>210.8</ele>
<time>2024-05-07T14:47:09Z</time>
</trkpt>
<trkpt lat="49.201885191723704" lon="9.506716690957546">
<ele>211</ele>
<time>2024-05-07T14:47:10Z</time>
</trkpt>
<trkpt lat="49.20188896358013" lon="9.506759606301785">
<ele>211.2</ele>
<time>2024-05-07T14:47:11Z</time>
</trkpt>
<trkpt lat="49.20188896358013" lon="9.506803443655372">
<ele>211.2</ele>
<time>2024-05-07T14:47:12Z</time>
</trkpt>
<trkpt lat="49.20189281925559" lon="9.50684635899961">
<ele>211.4</ele>
<time>2024-05-07T14:47:13Z</time>
</trkpt>
<trkpt lat="49.20189659111202" lon="9.506890280172229">
<ele>211.4</ele>
<time>2024-05-07T14:47:14Z</time>
</trkpt>
<trkpt lat="49.201904218643904" lon="9.506933195516469">
<ele>211.6</ele>
<time>2024-05-07T14:47:15Z</time>
</trkpt>
<trkpt lat="49.20191184617579" lon="9.506979882717133">
<ele>211.6</ele>
<time>2024-05-07T14:47:16Z</time>
</trkpt>
<trkpt lat="49.20191947370768" lon="9.5070247258991">
<ele>211.8</ele>
<time>2024-05-07T14:47:17Z</time>
</trkpt>
<trkpt lat="49.20193095691502" lon="9.507069569081068">
<ele>212</ele>
<time>2024-05-07T14:47:18Z</time>
</trkpt>
<trkpt lat="49.20193858444691" lon="9.507113406434655">
<ele>212.2</ele>
<time>2024-05-07T14:47:19Z</time>
</trkpt>
<trkpt lat="49.20195006765425" lon="9.507158249616625">
<ele>212.4</ele>
<time>2024-05-07T14:47:20Z</time>
</trkpt>
<trkpt lat="49.201961467042565" lon="9.50720208697021">
<ele>212.6</ele>
<time>2024-05-07T14:47:21Z</time>
</trkpt>
<trkpt lat="49.201965322718024" lon="9.507251707836986">
<ele>212.8</ele>
<time>2024-05-07T14:47:22Z</time>
</trkpt>
<trkpt lat="49.201965322718024" lon="9.50730132870376">
<ele>213</ele>
<time>2024-05-07T14:47:23Z</time>
</trkpt>
<trkpt lat="49.201965322718024" lon="9.507348015904428">
<ele>213.2</ele>
<time>2024-05-07T14:47:24Z</time>
</trkpt>
<trkpt lat="49.201961467042565" lon="9.507392859086394">
<ele>213.4</ele>
<time>2024-05-07T14:47:25Z</time>
</trkpt>
<trkpt lat="49.20195769518614" lon="9.507438624277713">
<ele>213.6</ele>
<time>2024-05-07T14:47:26Z</time>
</trkpt>
<trkpt lat="49.201961467042565" lon="9.50748346745968">
<ele>214</ele>
<time>2024-05-07T14:47:27Z</time>
</trkpt>
<trkpt lat="49.20195769518614" lon="9.507528226822616">
<ele>214.2</ele>
<time>2024-05-07T14:47:28Z</time>
</trkpt>
<trkpt lat="49.20195006765425" lon="9.507571142166851">
<ele>214.4</ele>
<time>2024-05-07T14:47:29Z</time>
</trkpt>
<trkpt lat="49.20193858444691" lon="9.507611207664011">
<ele>214.8</ele>
<time>2024-05-07T14:47:30Z</time>
</trkpt>
<trkpt lat="49.20193095691502" lon="9.507655128836632">
<ele>215</ele>
<time>2024-05-07T14:47:31Z</time>
</trkpt>
<trkpt lat="49.20191947370768" lon="9.507695194333792">
<ele>215.2</ele>
<time>2024-05-07T14:47:32Z</time>
</trkpt>
<trkpt lat="49.20191184617579" lon="9.507739953696728">
<ele>215.4</ele>
<time>2024-05-07T14:47:33Z</time>
</trkpt>
<trkpt lat="49.201904218643904" lon="9.507782869040966">
<ele>215.6</ele>
<time>2024-05-07T14:47:34Z</time>
</trkpt>
<trkpt lat="49.20189659111202" lon="9.507826790213583">
<ele>215.8</ele>
<time>2024-05-07T14:47:35Z</time>
</trkpt>
<trkpt lat="49.20188896358013" lon="9.507869705557823">
<ele>216</ele>
<time>2024-05-07T14:47:36Z</time>
</trkpt>
<trkpt lat="49.20187756419182" lon="9.50791354291141">
<ele>216.2</ele>
<time>2024-05-07T14:47:37Z</time>
</trkpt>
<trkpt lat="49.20186608098447" lon="9.50795453041792">
<ele>216.4</ele>
<time>2024-05-07T14:47:38Z</time>
</trkpt>
<trkpt lat="49.20185468159616" lon="9.507996523752809">
<ele>216.4</ele>
<time>2024-05-07T14:47:39Z</time>
</trkpt>
<trkpt lat="49.201843198388815" lon="9.508036589249969">
<ele>216.6</ele>
<time>2024-05-07T14:47:40Z</time>
</trkpt>
<trkpt lat="49.20183942653239" lon="9.508076654747128">
<ele>216.8</ele>
<time>2024-05-07T14:47:41Z</time>
</trkpt>
<trkpt lat="49.2018317990005" lon="9.508116720244288">
<ele>216.8</ele>
<time>2024-05-07T14:47:42Z</time>
</trkpt>
<trkpt lat="49.20182031579316" lon="9.508158629760146">
<ele>217</ele>
<time>2024-05-07T14:47:43Z</time>
</trkpt>
<trkpt lat="49.20181654393673" lon="9.508198695257306">
<ele>217</ele>
<time>2024-05-07T14:47:44Z</time>
</trkpt>
<trkpt lat="49.201805060729384" lon="9.508236832916737">
<ele>217.2</ele>
<time>2024-05-07T14:47:45Z</time>
</trkpt>
<trkpt lat="49.20180128887296" lon="9.508274970576169">
<ele>217.4</ele>
<time>2024-05-07T14:47:46Z</time>
</trkpt>
<trkpt lat="49.20179366134107" lon="9.508315036073329">
<ele>217.6</ele>
<time>2024-05-07T14:47:47Z</time>
</trkpt>
<trkpt lat="49.201786033809185" lon="9.508357029408216">
<ele>217.8</ele>
<time>2024-05-07T14:47:48Z</time>
</trkpt>
<trkpt lat="49.2017784062773" lon="9.508398016914724">
<ele>217.8</ele>
<time>2024-05-07T14:47:49Z</time>
</trkpt>
<trkpt lat="49.20177455060184" lon="9.508441854268312">
<ele>218</ele>
<time>2024-05-07T14:47:50Z</time>
</trkpt>
<trkpt lat="49.20176315121353" lon="9.50848862528801">
<ele>218</ele>
<time>2024-05-07T14:47:51Z</time>
</trkpt>
<trkpt lat="49.20175929553807" lon="9.508533468469976">
<ele>218.2</ele>
<time>2024-05-07T14:47:52Z</time>
</trkpt>
<trkpt lat="49.20175166800618" lon="9.508578227832912">
<ele>218.4</ele>
<time>2024-05-07T14:47:53Z</time>
</trkpt>
<trkpt lat="49.20174781233072" lon="9.508621143177152">
<ele>218.6</ele>
<time>2024-05-07T14:47:54Z</time>
</trkpt>
<trkpt lat="49.201744040474296" lon="9.50866313651204">
<ele>218.8</ele>
<time>2024-05-07T14:47:55Z</time>
</trkpt>
<trkpt lat="49.20173641294241" lon="9.508706973865628">
<ele>218.8</ele>
<time>2024-05-07T14:47:56Z</time>
</trkpt>
<trkpt lat="49.20173641294241" lon="9.508749889209868">
<ele>219</ele>
<time>2024-05-07T14:47:57Z</time>
</trkpt>
<trkpt lat="49.20174018479884" lon="9.508794732391834">
<ele>219.2</ele>
<time>2024-05-07T14:47:58Z</time>
</trkpt>
<trkpt lat="49.20174018479884" lon="9.508839575573802">
<ele>219.2</ele>
<time>2024-05-07T14:47:59Z</time>
</trkpt>
<trkpt lat="49.20174018479884" lon="9.50888534076512">
<ele>219.4</ele>
<time>2024-05-07T14:48:00Z</time>
</trkpt>
<trkpt lat="49.201744040474296" lon="9.508932111784816">
<ele>219.6</ele>
<time>2024-05-07T14:48:01Z</time>
</trkpt>
<trkpt lat="49.20174781233072" lon="9.508973099291325">
<ele>219.8</ele>
<time>2024-05-07T14:48:02Z</time>
</trkpt>
<trkpt lat="49.20175552368164" lon="9.509015008807182">
<ele>219.8</ele>
<time>2024-05-07T14:48:03Z</time>
</trkpt>
<trkpt lat="49.20176315121353" lon="9.50905792415142">
<ele>220</ele>
<time>2024-05-07T14:48:04Z</time>
</trkpt>
<trkpt lat="49.201766923069954" lon="9.509111400693657">
<ele>220.2</ele>
<time>2024-05-07T14:48:05Z</time>
</trkpt>
<trkpt lat="49.2017784062773" lon="9.50916194356978">
<ele>220.4</ele>
<time>2024-05-07T14:48:06Z</time>
</trkpt>
<trkpt lat="49.20178980566561" lon="9.509209552779794">
<ele>220.6</ele>
<time>2024-05-07T14:48:07Z</time>
</trkpt>
<trkpt lat="49.20180128887296" lon="9.509256323799493">
<ele>220.6</ele>
<time>2024-05-07T14:48:08Z</time>
</trkpt>
<trkpt lat="49.20181654393673" lon="9.509306866675615">
<ele>220.8</ele>
<time>2024-05-07T14:48:09Z</time>
</trkpt>
<trkpt lat="49.2018317990005" lon="9.509351709857585">
<ele>220.8</ele>
<time>2024-05-07T14:48:10Z</time>
</trkpt>
<trkpt lat="49.20185468159616" lon="9.509389847517014">
<ele>221</ele>
<time>2024-05-07T14:48:11Z</time>
</trkpt>
<trkpt lat="49.20187370851636" lon="9.5094336848706">
<ele>221.2</ele>
<time>2024-05-07T14:48:12Z</time>
</trkpt>
<trkpt lat="49.20189659111202" lon="9.50947467237711">
<ele>221.2</ele>
<time>2024-05-07T14:48:13Z</time>
</trkpt>
<trkpt lat="49.20191947370768" lon="9.509512893855572">
<ele>221.4</ele>
<time>2024-05-07T14:48:14Z</time>
</trkpt>
<trkpt lat="49.201942440122366" lon="9.509548181667924">
<ele>221.4</ele>
<time>2024-05-07T14:48:15Z</time>
</trkpt>
<trkpt lat="49.20196909457445" lon="9.509581541642548">
<ele>221.6</ele>
<time>2024-05-07T14:48:16Z</time>
</trkpt>
<trkpt lat="49.20199583284557" lon="9.50961297377944">
<ele>221.8</ele>
<time>2024-05-07T14:48:17Z</time>
</trkpt>
<trkpt lat="49.20202634297311" lon="9.509643483906984">
<ele>221.8</ele>
<time>2024-05-07T14:48:18Z</time>
</trkpt>
<trkpt lat="49.20205685310066" lon="9.509672150015833">
<ele>222.2</ele>
<time>2024-05-07T14:48:19Z</time>
</trkpt>
<trkpt lat="49.20208350755274" lon="9.50969503261149">
<ele>222.4</ele>
<time>2024-05-07T14:48:20Z</time>
</trkpt>
<trkpt lat="49.20211410149932" lon="9.509716909378769">
<ele>222.4</ele>
<time>2024-05-07T14:48:21Z</time>
</trkpt>
<trkpt lat="49.202140755951405" lon="9.50973509810865">
<ele>222.6</ele>
<time>2024-05-07T14:48:22Z</time>
</trkpt>
<trkpt lat="49.20216749422252" lon="9.5097532030195">
<ele>222.8</ele>
<time>2024-05-07T14:48:23Z</time>
</trkpt>
<trkpt lat="49.202198004350066" lon="9.509770385921">
<ele>222.8</ele>
<time>2024-05-07T14:48:24Z</time>
</trkpt>
<trkpt lat="49.20222851447761" lon="9.509781785309317">
<ele>222.8</ele>
<time>2024-05-07T14:48:25Z</time>
</trkpt>
<trkpt lat="49.202259024605155" lon="9.50979134067893">
<ele>222.8</ele>
<time>2024-05-07T14:48:26Z</time>
</trkpt>
<trkpt lat="49.2022895347327" lon="9.509801818057896">
<ele>222.8</ele>
<time>2024-05-07T14:48:27Z</time>
</trkpt>
<trkpt lat="49.20232004486024" lon="9.50981330126524">
<ele>222.6</ele>
<time>2024-05-07T14:48:28Z</time>
</trkpt>
<trkpt lat="49.20235055498779" lon="9.509822772815824">
<ele>222.6</ele>
<time>2024-05-07T14:48:29Z</time>
</trkpt>
<trkpt lat="49.20238492079079" lon="9.50983333401382">
<ele>222.6</ele>
<time>2024-05-07T14:48:30Z</time>
</trkpt>
<trkpt lat="49.20242305845022" lon="9.509844733402131">
<ele>222.4</ele>
<time>2024-05-07T14:48:31Z</time>
</trkpt>
<trkpt lat="49.202457424253225" lon="9.50984951108694">
<ele>222.4</ele>
<time>2024-05-07T14:48:32Z</time>
</trkpt>
<trkpt lat="49.202495561912656" lon="9.509848589077592">
<ele>222.4</ele>
<time>2024-05-07T14:48:33Z</time>
</trkpt>
<trkpt lat="49.20252984389663" lon="9.50984951108694">
<ele>222.4</ele>
<time>2024-05-07T14:48:34Z</time>
</trkpt>
<trkpt lat="49.20256798155606" lon="9.509853282943368">
<ele>222.4</ele>
<time>2024-05-07T14:48:35Z</time>
</trkpt>
<trkpt lat="49.20260611921549" lon="9.509861916303636">
<ele>222.2</ele>
<time>2024-05-07T14:48:36Z</time>
</trkpt>
<trkpt lat="49.20264434069395" lon="9.509862838312984">
<ele>222.2</ele>
<time>2024-05-07T14:48:37Z</time>
</trkpt>
<trkpt lat="49.20268247835338" lon="9.509856216609478">
<ele>222.2</ele>
<time>2024-05-07T14:48:38Z</time>
</trkpt>
<trkpt lat="49.20271676033735" lon="9.509853282943368">
<ele>222.2</ele>
<time>2024-05-07T14:48:39Z</time>
</trkpt>
<trkpt lat="49.20275875367224" lon="9.509848589077592">
<ele>222.2</ele>
<time>2024-05-07T14:48:40Z</time>
</trkpt>
<trkpt lat="49.20279689133167" lon="9.509843811392784">
<ele>222.4</ele>
<time>2024-05-07T14:48:41Z</time>
</trkpt>
<trkpt lat="49.20283125713467" lon="9.509846661239862">
<ele>222.4</ele>
<time>2024-05-07T14:48:42Z</time>
</trkpt>
<trkpt lat="49.20286176726222" lon="9.509858060628176">
<ele>222.2</ele>
<time>2024-05-07T14:48:43Z</time>
</trkpt>
<trkpt lat="49.20289604924619" lon="9.50986954383552">
<ele>222.2</ele>
<time>2024-05-07T14:48:44Z</time>
</trkpt>
<trkpt lat="49.20293804258108" lon="9.509878093376756">
<ele>222.2</ele>
<time>2024-05-07T14:48:45Z</time>
</trkpt>
<trkpt lat="49.202972408384085" lon="9.50989150442183">
<ele>222.4</ele>
<time>2024-05-07T14:48:46Z</time>
</trkpt>
<trkpt lat="49.203006690368056" lon="9.5099086035043">
<ele>222.4</ele>
<time>2024-05-07T14:48:47Z</time>
</trkpt>
<trkpt lat="49.20304105617106" lon="9.509924864396451">
<ele>222.4</ele>
<time>2024-05-07T14:48:48Z</time>
</trkpt>
<trkpt lat="49.20307919383049" lon="9.509942969307303">
<ele>222.4</ele>
<time>2024-05-07T14:48:49Z</time>
</trkpt>
<trkpt lat="49.20311347581446" lon="9.50996677391231">
<ele>222.6</ele>
<time>2024-05-07T14:48:50Z</time>
</trkpt>
<trkpt lat="49.20313644222915" lon="9.509991584345698">
<ele>222.6</ele>
<time>2024-05-07T14:48:51Z</time>
</trkpt>
<trkpt lat="49.20317457988858" lon="9.510021172463894">
<ele>222.6</ele>
<time>2024-05-07T14:48:52Z</time>
</trkpt>
<trkpt lat="49.20320509001613" lon="9.510054532438517">
<ele>222.6</ele>
<time>2024-05-07T14:48:53Z</time>
</trkpt>
<trkpt lat="49.20324322767556" lon="9.51008504256606">
<ele>222.6</ele>
<time>2024-05-07T14:48:54Z</time>
</trkpt>
<trkpt lat="49.20326988212764" lon="9.510114630684257">
<ele>222.6</ele>
<time>2024-05-07T14:48:55Z</time>
</trkpt>
<trkpt lat="49.20329662039876" lon="9.510149918496609">
<ele>222.6</ele>
<time>2024-05-07T14:48:56Z</time>
</trkpt>
<trkpt lat="49.203327130526304" lon="9.51018713414669">
<ele>222.6</ele>
<time>2024-05-07T14:48:57Z</time>
</trkpt>
<trkpt lat="49.20335764065385" lon="9.51022619381547">
<ele>222.8</ele>
<time>2024-05-07T14:48:58Z</time>
</trkpt>
<trkpt lat="49.20338052324951" lon="9.51026625931263">
<ele>222.8</ele>
<time>2024-05-07T14:48:59Z</time>
</trkpt>
<trkpt lat="49.203403405845165" lon="9.510303474962711">
<ele>222.8</ele>
<time>2024-05-07T14:49:00Z</time>
</trkpt>
<trkpt lat="49.20343014411628" lon="9.510339684784412">
<ele>222.8</ele>
<time>2024-05-07T14:49:01Z</time>
</trkpt>
<trkpt lat="49.20345679856837" lon="9.510381678119302">
<ele>222.8</ele>
<time>2024-05-07T14:49:02Z</time>
</trkpt>
<trkpt lat="49.203483536839485" lon="9.510421743616462">
<ele>223</ele>
<time>2024-05-07T14:49:03Z</time>
</trkpt>
<trkpt lat="49.2035102751106" lon="9.51046172529459">
<ele>223.2</ele>
<time>2024-05-07T14:49:04Z</time>
</trkpt>
<trkpt lat="49.20353692956269" lon="9.51050179079175">
<ele>223.4</ele>
<time>2024-05-07T14:49:05Z</time>
</trkpt>
<trkpt lat="49.203563667833805" lon="9.51054185628891">
<ele>223.4</ele>
<time>2024-05-07T14:49:06Z</time>
</trkpt>
<trkpt lat="49.20359032228589" lon="9.51058192178607">
<ele>223.6</ele>
<time>2024-05-07T14:49:07Z</time>
</trkpt>
<trkpt lat="49.20361706055701" lon="9.51062290929258">
<ele>223.6</ele>
<time>2024-05-07T14:49:08Z</time>
</trkpt>
<trkpt lat="49.203639943152666" lon="9.510666830465198">
<ele>223.8</ele>
<time>2024-05-07T14:49:09Z</time>
</trkpt>
<trkpt lat="49.20366668142378" lon="9.510711589828134">
<ele>224</ele>
<time>2024-05-07T14:49:10Z</time>
</trkpt>
<trkpt lat="49.20368956401944" lon="9.510754505172372">
<ele>224</ele>
<time>2024-05-07T14:49:11Z</time>
</trkpt>
<trkpt lat="49.2037124466151" lon="9.510794570669532">
<ele>224</ele>
<time>2024-05-07T14:49:12Z</time>
</trkpt>
<trkpt lat="49.2037314735353" lon="9.51083849184215">
<ele>224.2</ele>
<time>2024-05-07T14:49:13Z</time>
</trkpt>
<trkpt lat="49.20375821180642" lon="9.51087855733931">
<ele>224.4</ele>
<time>2024-05-07T14:49:14Z</time>
</trkpt>
<trkpt lat="49.2037848662585" lon="9.51091853901744">
<ele>224.6</ele>
<time>2024-05-07T14:49:15Z</time>
</trkpt>
<trkpt lat="49.203800121322274" lon="9.5109586045146">
<ele>224.6</ele>
<time>2024-05-07T14:49:16Z</time>
</trkpt>
<trkpt lat="49.203819232061505" lon="9.51099867001176">
<ele>224.8</ele>
<time>2024-05-07T14:49:17Z</time>
</trkpt>
<trkpt lat="49.203838342800736" lon="9.51103873550892">
<ele>224.8</ele>
<time>2024-05-07T14:49:18Z</time>
</trkpt>
<trkpt lat="49.20385359786451" lon="9.51107787899673">
<ele>225</ele>
<time>2024-05-07T14:49:19Z</time>
</trkpt>
<trkpt lat="49.20387262478471" lon="9.51111693866551">
<ele>225.2</ele>
<time>2024-05-07T14:49:20Z</time>
</trkpt>
<trkpt lat="49.20389173552394" lon="9.51115314848721">
<ele>225.4</ele>
<time>2024-05-07T14:49:21Z</time>
</trkpt>
<trkpt lat="49.20391076244414" lon="9.51119128614664">
<ele>225.6</ele>
<time>2024-05-07T14:49:22Z</time>
</trkpt>
<trkpt lat="49.20392987318337" lon="9.511228501796722">
<ele>225.8</ele>
<time>2024-05-07T14:49:23Z</time>
</trkpt>
<trkpt lat="49.20395275577903" lon="9.511262867599726">
<ele>226</ele>
<time>2024-05-07T14:49:24Z</time>
</trkpt>
<trkpt lat="49.20397178269923" lon="9.511301927268503">
<ele>226.2</ele>
<time>2024-05-07T14:49:25Z</time>
</trkpt>
<trkpt lat="49.20399474911392" lon="9.511342998594046">
<ele>226.4</ele>
<time>2024-05-07T14:49:26Z</time>
</trkpt>
<trkpt lat="49.204017631709576" lon="9.511382980272174">
<ele>226.6</ele>
<time>2024-05-07T14:49:27Z</time>
</trkpt>
<trkpt lat="49.204040514305234" lon="9.511421201750636">
<ele>226.6</ele>
<time>2024-05-07T14:49:28Z</time>
</trkpt>
<trkpt lat="49.20406339690089" lon="9.511460261419415">
<ele>226.8</ele>
<time>2024-05-07T14:49:29Z</time>
</trkpt>
<trkpt lat="49.20408627949655" lon="9.511500326916575">
<ele>227</ele>
<time>2024-05-07T14:49:30Z</time>
</trkpt>
<trkpt lat="49.20410530641675" lon="9.511540392413735">
<ele>227.2</ele>
<time>2024-05-07T14:49:31Z</time>
</trkpt>
<trkpt lat="49.20412818901241" lon="9.511583307757974">
<ele>227.4</ele>
<time>2024-05-07T14:49:32Z</time>
</trkpt>
<trkpt lat="49.20414729975164" lon="9.511619517579676">
<ele>227.6</ele>
<time>2024-05-07T14:49:33Z</time>
</trkpt>
<trkpt lat="49.20416641049087" lon="9.511658661067486">
<ele>227.8</ele>
<time>2024-05-07T14:49:34Z</time>
</trkpt>
<trkpt lat="49.20418166555464" lon="9.511696798726916">
<ele>228.2</ele>
<time>2024-05-07T14:49:35Z</time>
</trkpt>
<trkpt lat="49.2042045481503" lon="9.511736864224076">
<ele>228.2</ele>
<time>2024-05-07T14:49:36Z</time>
</trkpt>
<trkpt lat="49.20422743074596" lon="9.511775001883509">
<ele>228.4</ele>
<time>2024-05-07T14:49:37Z</time>
</trkpt>
<trkpt lat="49.20424645766616" lon="9.511811211705208">
<ele>228.6</ele>
<time>2024-05-07T14:49:38Z</time>
</trkpt>
<trkpt lat="49.20426556840539" lon="9.51185035519302">
<ele>228.6</ele>
<time>2024-05-07T14:49:39Z</time>
</trkpt>
<trkpt lat="49.20428845100105" lon="9.51188656501472">
<ele>228.8</ele>
<time>2024-05-07T14:49:40Z</time>
</trkpt>
<trkpt lat="49.20430747792125" lon="9.51192277483642">
<ele>229</ele>
<time>2024-05-07T14:49:41Z</time>
</trkpt>
<trkpt lat="49.20432658866048" lon="9.511961918324232">
<ele>229</ele>
<time>2024-05-07T14:49:42Z</time>
</trkpt>
<trkpt lat="49.20434947125614" lon="9.511996200308204">
<ele>229.2</ele>
<time>2024-05-07T14:49:43Z</time>
</trkpt>
<trkpt lat="49.20436858199537" lon="9.512031488120556">
<ele>229.4</ele>
<time>2024-05-07T14:49:44Z</time>
</trkpt>
<trkpt lat="49.20438760891557" lon="9.512068703770638">
<ele>229.6</ele>
<time>2024-05-07T14:49:45Z</time>
</trkpt>
<trkpt lat="49.20440286397934" lon="9.51210491359234">
<ele>229.8</ele>
<time>2024-05-07T14:49:46Z</time>
</trkpt>
<trkpt lat="49.20441811904311" lon="9.51214020140469">
<ele>229.8</ele>
<time>2024-05-07T14:49:47Z</time>
</trkpt>
<trkpt lat="49.20443722978234" lon="9.512176495045424">
<ele>230</ele>
<time>2024-05-07T14:49:48Z</time>
</trkpt>
<trkpt lat="49.204452484846115" lon="9.512214632704854">
<ele>230</ele>
<time>2024-05-07T14:49:49Z</time>
</trkpt>
<trkpt lat="49.204471511766315" lon="9.512249920517206">
<ele>230.2</ele>
<time>2024-05-07T14:49:50Z</time>
</trkpt>
<trkpt lat="49.204490622505546" lon="9.512287136167288">
<ele>230.2</ele>
<time>2024-05-07T14:49:51Z</time>
</trkpt>
<trkpt lat="49.20450973324478" lon="9.51231949031353">
<ele>230.4</ele>
<time>2024-05-07T14:49:52Z</time>
</trkpt>
<trkpt lat="49.20452498830855" lon="9.512352934107184">
<ele>230.6</ele>
<time>2024-05-07T14:49:53Z</time>
</trkpt>
<trkpt lat="49.20454787090421" lon="9.512388221919537">
<ele>230.6</ele>
<time>2024-05-07T14:49:54Z</time>
</trkpt>
<trkpt lat="49.20456312596798" lon="9.51242158189416">
<ele>230.8</ele>
<time>2024-05-07T14:49:55Z</time>
</trkpt>
<trkpt lat="49.20458215288818" lon="9.512453014031053">
<ele>230.8</ele>
<time>2024-05-07T14:49:56Z</time>
</trkpt>
<trkpt lat="49.20460126362741" lon="9.512485451996326">
<ele>230.8</ele>
<time>2024-05-07T14:49:57Z</time>
</trkpt>
<trkpt lat="49.20461651869118" lon="9.512515040114522">
<ele>231</ele>
<time>2024-05-07T14:49:58Z</time>
</trkpt>
<trkpt lat="49.20463554561138" lon="9.512543622404335">
<ele>231.2</ele>
<time>2024-05-07T14:49:59Z</time>
</trkpt>
<trkpt lat="49.20465842820704" lon="9.512573210522532">
<ele>231.2</ele>
<time>2024-05-07T14:50:00Z</time>
</trkpt>
<trkpt lat="49.20467753894627" lon="9.512604642659426">
<ele>231.4</ele>
<time>2024-05-07T14:50:01Z</time>
</trkpt>
<trkpt lat="49.20469279401004" lon="9.51263515278697">
<ele>231.6</ele>
<time>2024-05-07T14:50:02Z</time>
</trkpt>
<trkpt lat="49.204708049073815" lon="9.512664740905166">
<ele>231.6</ele>
<time>2024-05-07T14:50:03Z</time>
</trkpt>
<trkpt lat="49.20472715981305" lon="9.51269525103271">
<ele>231.8</ele>
<time>2024-05-07T14:50:04Z</time>
</trkpt>
<trkpt lat="49.20474241487682" lon="9.512729616835712">
<ele>231.8</ele>
<time>2024-05-07T14:50:05Z</time>
</trkpt>
<trkpt lat="49.20476144179702" lon="9.512762976810336">
<ele>232</ele>
<time>2024-05-07T14:50:06Z</time>
</trkpt>
<trkpt lat="49.20478055253625" lon="9.512800192460418">
<ele>232</ele>
<time>2024-05-07T14:50:07Z</time>
</trkpt>
<trkpt lat="49.20480343513191" lon="9.51283640228212">
<ele>232</ele>
<time>2024-05-07T14:50:08Z</time>
</trkpt>
<trkpt lat="49.20482246205211" lon="9.5128736179322">
<ele>232</ele>
<time>2024-05-07T14:50:09Z</time>
</trkpt>
<trkpt lat="49.20484157279134" lon="9.512907899916172">
<ele>232</ele>
<time>2024-05-07T14:50:10Z</time>
</trkpt>
<trkpt lat="49.20486445538699" lon="9.512945115566254">
<ele>232.2</ele>
<time>2024-05-07T14:50:11Z</time>
</trkpt>
<trkpt lat="49.20488356612623" lon="9.512979481369255">
<ele>232.2</ele>
<time>2024-05-07T14:50:12Z</time>
</trkpt>
<trkpt lat="49.20490259304643" lon="9.51301669701934">
<ele>232.4</ele>
<time>2024-05-07T14:50:13Z</time>
</trkpt>
<trkpt lat="49.20492170378566" lon="9.513054834678767">
<ele>232.6</ele>
<time>2024-05-07T14:50:14Z</time>
</trkpt>
<trkpt lat="49.20493695884943" lon="9.5130929723382">
<ele>232.8</ele>
<time>2024-05-07T14:50:15Z</time>
</trkpt>
<trkpt lat="49.20495984144509" lon="9.513128260150552">
<ele>232.8</ele>
<time>2024-05-07T14:50:16Z</time>
</trkpt>
<trkpt lat="49.20497509650886" lon="9.513164469972253">
<ele>233</ele>
<time>2024-05-07T14:50:17Z</time>
</trkpt>
<trkpt lat="49.205001750960946" lon="9.513199757784603">
<ele>233.2</ele>
<time>2024-05-07T14:50:18Z</time>
</trkpt>
<trkpt lat="49.20502086170018" lon="9.513235045596955">
<ele>233.2</ele>
<time>2024-05-07T14:50:19Z</time>
</trkpt>
<trkpt lat="49.20503997243941" lon="9.513273183256388">
<ele>233.4</ele>
<time>2024-05-07T14:50:20Z</time>
</trkpt>
<trkpt lat="49.20505522750318" lon="9.51330847106874">
<ele>233.4</ele>
<time>2024-05-07T14:50:21Z</time>
</trkpt>
<trkpt lat="49.20507425442338" lon="9.513343758881092">
<ele>233.6</ele>
<time>2024-05-07T14:50:22Z</time>
</trkpt>
<trkpt lat="49.20509336516261" lon="9.513376196846366">
<ele>234</ele>
<time>2024-05-07T14:50:23Z</time>
</trkpt>
<trkpt lat="49.20511239208281" lon="9.513411484658718">
<ele>234.2</ele>
<time>2024-05-07T14:50:24Z</time>
</trkpt>
<trkpt lat="49.20513150282204" lon="9.51344484463334">
<ele>234.4</ele>
<time>2024-05-07T14:50:25Z</time>
</trkpt>
<trkpt lat="49.205146757885814" lon="9.513476360589266">
<ele>234.6</ele>
<time>2024-05-07T14:50:26Z</time>
</trkpt>
<trkpt lat="49.205162012949586" lon="9.513511648401618">
<ele>234.8</ele>
<time>2024-05-07T14:50:27Z</time>
</trkpt>
<trkpt lat="49.205181039869785" lon="9.51354500837624">
<ele>235</ele>
<time>2024-05-07T14:50:28Z</time>
</trkpt>
<trkpt lat="49.20519637875259" lon="9.513580296188591">
<ele>235.2</ele>
<time>2024-05-07T14:50:29Z</time>
</trkpt>
<trkpt lat="49.20521540567279" lon="9.513614578172565">
<ele>235.4</ele>
<time>2024-05-07T14:50:30Z</time>
</trkpt>
<trkpt lat="49.20523066073656" lon="9.513651793822646">
<ele>235.6</ele>
<time>2024-05-07T14:50:31Z</time>
</trkpt>
<trkpt lat="49.20524977147579" lon="9.513687081634998">
<ele>235.8</ele>
<time>2024-05-07T14:50:32Z</time>
</trkpt>
<trkpt lat="49.20526502653957" lon="9.513719519600272">
<ele>236</ele>
<time>2024-05-07T14:50:33Z</time>
</trkpt>
<trkpt lat="49.20528405345976" lon="9.513751957565546">
<ele>236.2</ele>
<time>2024-05-07T14:50:34Z</time>
</trkpt>
<trkpt lat="49.205299308523536" lon="9.513781545683742">
<ele>236.4</ele>
<time>2024-05-07T14:50:35Z</time>
</trkpt>
<trkpt lat="49.20531841926277" lon="9.513812977820637">
<ele>236.6</ele>
<time>2024-05-07T14:50:36Z</time>
</trkpt>
<trkpt lat="49.20533367432654" lon="9.513846337795258">
<ele>236.8</ele>
<time>2024-05-07T14:50:37Z</time>
</trkpt>
<trkpt lat="49.20534892939031" lon="9.51387969776988">
<ele>236.8</ele>
<time>2024-05-07T14:50:38Z</time>
</trkpt>
<trkpt lat="49.20536804012954" lon="9.513911213725804">
<ele>237</ele>
<time>2024-05-07T14:50:39Z</time>
</trkpt>
<trkpt lat="49.205383295193315" lon="9.51394365169108">
<ele>237</ele>
<time>2024-05-07T14:50:40Z</time>
</trkpt>
<trkpt lat="49.20539855025709" lon="9.513977011665702">
<ele>237.2</ele>
<time>2024-05-07T14:50:41Z</time>
</trkpt>
<trkpt lat="49.20541380532086" lon="9.514010371640325">
<ele>237.4</ele>
<time>2024-05-07T14:50:42Z</time>
</trkpt>
<trkpt lat="49.20543283224106" lon="9.51403995975852">
<ele>237.4</ele>
<time>2024-05-07T14:50:43Z</time>
</trkpt>
<trkpt lat="49.20544808730483" lon="9.514071391895412">
<ele>237.6</ele>
<time>2024-05-07T14:50:44Z</time>
</trkpt>
<trkpt lat="49.20546719804406" lon="9.514106679707766">
<ele>237.8</ele>
<time>2024-05-07T14:50:45Z</time>
</trkpt>
<trkpt lat="49.205482453107834" lon="9.51413819566369">
<ele>237.8</ele>
<time>2024-05-07T14:50:46Z</time>
</trkpt>
<trkpt lat="49.20550148002803" lon="9.514168705791237">
<ele>238</ele>
<time>2024-05-07T14:50:47Z</time>
</trkpt>
<trkpt lat="49.205516735091805" lon="9.514202065765858">
<ele>238.2</ele>
<time>2024-05-07T14:50:48Z</time>
</trkpt>
<trkpt lat="49.20553207397461" lon="9.51423827558756">
<ele>238.2</ele>
<time>2024-05-07T14:50:49Z</time>
</trkpt>
<trkpt lat="49.20555110089481" lon="9.51427649706602">
<ele>238.4</ele>
<time>2024-05-07T14:50:50Z</time>
</trkpt>
<trkpt lat="49.20557021163404" lon="9.514314634725451">
<ele>238.6</ele>
<time>2024-05-07T14:50:51Z</time>
</trkpt>
<trkpt lat="49.20558923855424" lon="9.51435369439423">
<ele>238.8</ele>
<time>2024-05-07T14:50:52Z</time>
</trkpt>
<trkpt lat="49.20560834929347" lon="9.51439183205366">
<ele>239</ele>
<time>2024-05-07T14:50:53Z</time>
</trkpt>
<trkpt lat="49.20562737621367" lon="9.514428125694394">
<ele>239.4</ele>
<time>2024-05-07T14:50:54Z</time>
</trkpt>
<trkpt lat="49.20565025880933" lon="9.514463413506746">
<ele>239.6</ele>
<time>2024-05-07T14:50:55Z</time>
</trkpt>
<trkpt lat="49.20566936954856" lon="9.514498701319098">
<ele>239.8</ele>
<time>2024-05-07T14:50:56Z</time>
</trkpt>
<trkpt lat="49.20568839646876" lon="9.514536838978527">
<ele>239.8</ele>
<time>2024-05-07T14:50:57Z</time>
</trkpt>
<trkpt lat="49.20570750720799" lon="9.51457304880023">
<ele>240</ele>
<time>2024-05-07T14:50:58Z</time>
</trkpt>
<trkpt lat="49.20572661794722" lon="9.514608336612582">
<ele>240.2</ele>
<time>2024-05-07T14:50:59Z</time>
</trkpt>
<trkpt lat="49.20574187301099" lon="9.514644546434283">
<ele>240.4</ele>
<time>2024-05-07T14:51:00Z</time>
</trkpt>
<trkpt lat="49.20576089993119" lon="9.514677990227938">
<ele>240.6</ele>
<time>2024-05-07T14:51:01Z</time>
</trkpt>
<trkpt lat="49.20578001067042" lon="9.51471135020256">
<ele>240.8</ele>
<time>2024-05-07T14:51:02Z</time>
</trkpt>
<trkpt lat="49.20579903759062" lon="9.514744710177183">
<ele>241</ele>
<time>2024-05-07T14:51:03Z</time>
</trkpt>
<trkpt lat="49.205818148329854" lon="9.514782847836614">
<ele>241.2</ele>
<time>2024-05-07T14:51:04Z</time>
</trkpt>
<trkpt lat="49.20583717525005" lon="9.514821991324425">
<ele>241.4</ele>
<time>2024-05-07T14:51:05Z</time>
</trkpt>
<trkpt lat="49.205852430313826" lon="9.514856273308396">
<ele>241.4</ele>
<time>2024-05-07T14:51:06Z</time>
</trkpt>
<trkpt lat="49.20587154105306" lon="9.514893488958478">
<ele>241.6</ele>
<time>2024-05-07T14:51:07Z</time>
</trkpt>
<trkpt lat="49.20589065179229" lon="9.51492969878018">
<ele>241.8</ele>
<time>2024-05-07T14:51:08Z</time>
</trkpt>
<trkpt lat="49.205913534387946" lon="9.514964986592531">
<ele>242</ele>
<time>2024-05-07T14:51:09Z</time>
</trkpt>
<trkpt lat="49.20592878945172" lon="9.514998430386186">
<ele>242.2</ele>
<time>2024-05-07T14:51:10Z</time>
</trkpt>
<trkpt lat="49.20594781637192" lon="9.515031790360808">
<ele>242.4</ele>
<time>2024-05-07T14:51:11Z</time>
</trkpt>
<trkpt lat="49.20596307143569" lon="9.515065150335433">
<ele>242.6</ele>
<time>2024-05-07T14:51:12Z</time>
</trkpt>
<trkpt lat="49.20597832649946" lon="9.515098510310054">
<ele>242.8</ele>
<time>2024-05-07T14:51:13Z</time>
</trkpt>
<trkpt lat="49.20599743723869" lon="9.51513002626598">
<ele>243</ele>
<time>2024-05-07T14:51:14Z</time>
</trkpt>
<trkpt lat="49.206012692302465" lon="9.515163386240602">
<ele>243.2</ele>
<time>2024-05-07T14:51:15Z</time>
</trkpt>
<trkpt lat="49.20602794736624" lon="9.515192974358795">
<ele>243.4</ele>
<time>2024-05-07T14:51:16Z</time>
</trkpt>
<trkpt lat="49.20604320243001" lon="9.51522348448634">
<ele>243.6</ele>
<time>2024-05-07T14:51:17Z</time>
</trkpt>
<trkpt lat="49.20605845749378" lon="9.515252066776156">
<ele>243.6</ele>
<time>2024-05-07T14:51:18Z</time>
</trkpt>
<trkpt lat="49.20607756823301" lon="9.515279727056624">
<ele>243.8</ele>
<time>2024-05-07T14:51:19Z</time>
</trkpt>
<trkpt lat="49.206092823296785" lon="9.515308309346436">
<ele>244</ele>
<time>2024-05-07T14:51:20Z</time>
</trkpt>
<trkpt lat="49.20610807836056" lon="9.515336975455284">
<ele>244.2</ele>
<time>2024-05-07T14:51:21Z</time>
</trkpt>
<trkpt lat="49.20612333342433" lon="9.51536362990737">
<ele>244.4</ele>
<time>2024-05-07T14:51:22Z</time>
</trkpt>
<trkpt lat="49.2061385884881" lon="9.515393218025563">
<ele>244.4</ele>
<time>2024-05-07T14:51:23Z</time>
</trkpt>
<trkpt lat="49.206153843551874" lon="9.51542372815311">
<ele>244.6</ele>
<time>2024-05-07T14:51:24Z</time>
</trkpt>
<trkpt lat="49.206169098615646" lon="9.515453316271303">
<ele>244.6</ele>
<time>2024-05-07T14:51:25Z</time>
</trkpt>
<trkpt lat="49.206188125535846" lon="9.515484748408198">
<ele>244.8</ele>
<time>2024-05-07T14:51:26Z</time>
</trkpt>
<trkpt lat="49.20620723627508" lon="9.515515258535745">
<ele>244.8</ele>
<time>2024-05-07T14:51:27Z</time>
</trkpt>
<trkpt lat="49.20622634701431" lon="9.515544846653938">
<ele>245</ele>
<time>2024-05-07T14:51:28Z</time>
</trkpt>
<trkpt lat="49.20624160207808" lon="9.515575356781484">
<ele>245</ele>
<time>2024-05-07T14:51:29Z</time>
</trkpt>
<trkpt lat="49.20626062899828" lon="9.515606872737408">
<ele>245.2</ele>
<time>2024-05-07T14:51:30Z</time>
</trkpt>
<trkpt lat="49.20627973973751" lon="9.515636377036572">
<ele>245.2</ele>
<time>2024-05-07T14:51:31Z</time>
</trkpt>
<trkpt lat="49.20629499480128" lon="9.515671664848924">
<ele>245.4</ele>
<time>2024-05-07T14:51:32Z</time>
</trkpt>
<trkpt lat="49.206310249865055" lon="9.515706952661276">
<ele>245.4</ele>
<time>2024-05-07T14:51:33Z</time>
</trkpt>
<trkpt lat="49.20632550492883" lon="9.515743246302009">
<ele>245.4</ele>
<time>2024-05-07T14:51:34Z</time>
</trkpt>
<trkpt lat="49.20634453184903" lon="9.51577853411436">
<ele>245.4</ele>
<time>2024-05-07T14:51:35Z</time>
</trkpt>
<trkpt lat="49.2063597869128" lon="9.515811894088984">
<ele>245.6</ele>
<time>2024-05-07T14:51:36Z</time>
</trkpt>
<trkpt lat="49.20637504197657" lon="9.515845254063606">
<ele>245.6</ele>
<time>2024-05-07T14:51:37Z</time>
</trkpt>
<trkpt lat="49.206390380859375" lon="9.51587961986661">
<ele>245.6</ele>
<time>2024-05-07T14:51:38Z</time>
</trkpt>
<trkpt lat="49.206409407779574" lon="9.515912979841232">
<ele>245.6</ele>
<time>2024-05-07T14:51:39Z</time>
</trkpt>
<trkpt lat="49.206428518518806" lon="9.515945417806506">
<ele>245.6</ele>
<time>2024-05-07T14:51:40Z</time>
</trkpt>
<trkpt lat="49.20644377358258" lon="9.5159768499434">
<ele>245.6</ele>
<time>2024-05-07T14:51:41Z</time>
</trkpt>
<trkpt lat="49.20646280050278" lon="9.516011215746405">
<ele>245.6</ele>
<time>2024-05-07T14:51:42Z</time>
</trkpt>
<trkpt lat="49.20647805556655" lon="9.516044575721024">
<ele>245.6</ele>
<time>2024-05-07T14:51:43Z</time>
</trkpt>
<trkpt lat="49.20649716630578" lon="9.516081791371109">
<ele>245.6</ele>
<time>2024-05-07T14:51:44Z</time>
</trkpt>
<trkpt lat="49.20652004890144" lon="9.51611515134573">
<ele>245.6</ele>
<time>2024-05-07T14:51:45Z</time>
</trkpt>
<trkpt lat="49.20653907582164" lon="9.51615136116743">
<ele>245.6</ele>
<time>2024-05-07T14:51:46Z</time>
</trkpt>
<trkpt lat="49.20655818656087" lon="9.51618949882686">
<ele>245.8</ele>
<time>2024-05-07T14:51:47Z</time>
</trkpt>
<trkpt lat="49.2065772973001" lon="9.516228642314672">
<ele>245.8</ele>
<time>2024-05-07T14:51:48Z</time>
</trkpt>
<trkpt lat="49.20659255236387" lon="9.516268707811832">
<ele>246</ele>
<time>2024-05-07T14:51:49Z</time>
</trkpt>
<trkpt lat="49.206603951752186" lon="9.516306845471265">
<ele>246</ele>
<time>2024-05-07T14:51:50Z</time>
</trkpt>
<trkpt lat="49.20661157928407" lon="9.516342133283615">
<ele>246</ele>
<time>2024-05-07T14:51:51Z</time>
</trkpt>
<trkpt lat="49.20661920681596" lon="9.516374571248887">
<ele>246.2</ele>
<time>2024-05-07T14:51:52Z</time>
</trkpt>
<trkpt lat="49.20662306249142" lon="9.516403153538704">
<ele>246.2</ele>
<time>2024-05-07T14:51:53Z</time>
</trkpt>
<trkpt lat="49.20662306249142" lon="9.51642989180982">
<ele>246.4</ele>
<time>2024-05-07T14:51:54Z</time>
</trkpt>
<trkpt lat="49.20661543495953" lon="9.5164499245584">
<ele>246.4</ele>
<time>2024-05-07T14:51:55Z</time>
</trkpt>
<trkpt lat="49.206607807427645" lon="9.516463251784444">
<ele>246.6</ele>
<time>2024-05-07T14:51:56Z</time>
</trkpt>
<trkpt lat="49.20660017989576" lon="9.516473729163408">
<ele>246.8</ele>
<time>2024-05-07T14:51:57Z</time>
</trkpt>
<trkpt lat="49.2065963242203" lon="9.516481356695294">
<ele>247</ele>
<time>2024-05-07T14:51:58Z</time>
</trkpt>
<trkpt lat="49.20660017989576" lon="9.516483284533024">
<ele>247</ele>
<time>2024-05-07T14:51:59Z</time>
</trkpt>
<trkpt lat="49.20660017989576" lon="9.516485212370752">
<ele>247</ele>
<time>2024-05-07T14:52:00Z</time>
</trkpt>
<trkpt lat="49.2065963242203" lon="9.516483284533024">
<ele>247</ele>
<time>2024-05-07T14:52:01Z</time>
</trkpt>
<trkpt lat="49.2065963242203" lon="9.516485212370752">
<ele>247</ele>
<time>2024-05-07T14:52:03Z</time>
</trkpt>
<trkpt lat="49.2065963242203" lon="9.516487056389453">
<ele>247</ele>
<time>2024-05-07T14:52:04Z</time>
</trkpt>
<trkpt lat="49.2065963242203" lon="9.516488062217832">
<ele>246.8</ele>
<time>2024-05-07T14:52:06Z</time>
</trkpt>
<trkpt lat="49.2065963242203" lon="9.516487056389453">
<ele>246.8</ele>
<time>2024-05-07T14:52:13Z</time>
</trkpt>
<trkpt lat="49.2065963242203" lon="9.516485212370752">
<ele>246.6</ele>
<time>2024-05-07T14:52:15Z</time>
</trkpt>
<trkpt lat="49.206588696688414" lon="9.516500467434524">
<ele>246.4</ele>
<time>2024-05-07T14:52:18Z</time>
</trkpt>
<trkpt lat="49.20658106915653" lon="9.516518572345376">
<ele>246.2</ele>
<time>2024-05-07T14:52:19Z</time>
</trkpt>
<trkpt lat="49.20657344162464" lon="9.51653189957142">
<ele>246.2</ele>
<time>2024-05-07T14:52:20Z</time>
</trkpt>
<trkpt lat="49.20656204223633" lon="9.516546232625842">
<ele>246</ele>
<time>2024-05-07T14:52:21Z</time>
</trkpt>
<trkpt lat="49.20654670335352" lon="9.51657196506858">
<ele>245.8</ele>
<time>2024-05-07T14:52:22Z</time>
</trkpt>
<trkpt lat="49.20653530396521" lon="9.516606330871582">
<ele>245.8</ele>
<time>2024-05-07T14:52:23Z</time>
</trkpt>
<trkpt lat="49.20652004890144" lon="9.516638685017824">
<ele>245.8</ele>
<time>2024-05-07T14:52:24Z</time>
</trkpt>
<trkpt lat="49.20650479383767" lon="9.51667020097375">
<ele>245.8</ele>
<time>2024-05-07T14:52:25Z</time>
</trkpt>
<trkpt lat="49.206489538773894" lon="9.516703560948372">
<ele>245.8</ele>
<time>2024-05-07T14:52:26Z</time>
</trkpt>
<trkpt lat="49.20647042803466" lon="9.516736920922996">
<ele>245.8</ele>
<time>2024-05-07T14:52:27Z</time>
</trkpt>
<trkpt lat="49.20645517297089" lon="9.516771286725998">
<ele>245.6</ele>
<time>2024-05-07T14:52:28Z</time>
</trkpt>
<trkpt lat="49.20643991790712" lon="9.516803724691272">
<ele>245.6</ele>
<time>2024-05-07T14:52:29Z</time>
</trkpt>
<trkpt lat="49.206428518518806" lon="9.516830379143356">
<ele>245.6</ele>
<time>2024-05-07T14:52:30Z</time>
</trkpt>
<trkpt lat="49.20641326345503" lon="9.516851417720318">
<ele>245.6</ele>
<time>2024-05-07T14:52:31Z</time>
</trkpt>
<trkpt lat="49.20640178024769" lon="9.516875222325323">
<ele>245.4</ele>
<time>2024-05-07T14:52:32Z</time>
</trkpt>
<trkpt lat="49.20638652518392" lon="9.516895255073903">
<ele>245.4</ele>
<time>2024-05-07T14:52:33Z</time>
</trkpt>
<trkpt lat="49.20637504197657" lon="9.516913359984756">
<ele>245.6</ele>
<time>2024-05-07T14:52:34Z</time>
</trkpt>
<trkpt lat="49.20636364258826" lon="9.516935320571063">
<ele>245.6</ele>
<time>2024-05-07T14:52:35Z</time>
</trkpt>
<trkpt lat="49.20635215938091" lon="9.516956275328994">
<ele>245.6</ele>
<time>2024-05-07T14:52:36Z</time>
</trkpt>
<trkpt lat="49.20634453184903" lon="9.516980163753033">
<ele>245.8</ele>
<time>2024-05-07T14:52:37Z</time>
</trkpt>
<trkpt lat="49.2063407599926" lon="9.517003046348693">
<ele>245.8</ele>
<time>2024-05-07T14:52:38Z</time>
</trkpt>
<trkpt lat="49.2063407599926" lon="9.517024923115969">
<ele>245.8</ele>
<time>2024-05-07T14:52:39Z</time>
</trkpt>
<trkpt lat="49.20634453184903" lon="9.517046883702278">
<ele>245.8</ele>
<time>2024-05-07T14:52:40Z</time>
</trkpt>
<trkpt lat="49.206348387524486" lon="9.517067838460209">
<ele>245.8</ele>
<time>2024-05-07T14:52:41Z</time>
</trkpt>
<trkpt lat="49.20635601505637" lon="9.517085021361709">
<ele>245.8</ele>
<time>2024-05-07T14:52:42Z</time>
</trkpt>
<trkpt lat="49.20636364258826" lon="9.51710128225386">
<ele>245.8</ele>
<time>2024-05-07T14:52:43Z</time>
</trkpt>
<trkpt lat="49.20637504197657" lon="9.517116537317634">
<ele>245.8</ele>
<time>2024-05-07T14:52:44Z</time>
</trkpt>
<trkpt lat="49.20637889765203" lon="9.517131792381406">
<ele>245.8</ele>
<time>2024-05-07T14:52:45Z</time>
</trkpt>
<trkpt lat="49.20638652518392" lon="9.517147047445178">
<ele>246</ele>
<time>2024-05-07T14:52:46Z</time>
</trkpt>
<trkpt lat="49.206390380859375" lon="9.5171632245183">
<ele>246</ele>
<time>2024-05-07T14:52:47Z</time>
</trkpt>
<trkpt lat="49.20639800839126" lon="9.517178479582071">
<ele>246</ele>
<time>2024-05-07T14:52:48Z</time>
</trkpt>
<trkpt lat="49.20639800839126" lon="9.517187112942338">
<ele>246.2</ele>
<time>2024-05-07T14:52:49Z</time>
</trkpt>
<trkpt lat="49.20640178024769" lon="9.517192812636496">
<ele>246</ele>
<time>2024-05-07T14:52:50Z</time>
</trkpt>
<trkpt lat="49.20640178024769" lon="9.517205217853189">
<ele>246</ele>
<time>2024-05-07T14:52:51Z</time>
</trkpt>
<trkpt lat="49.20640178024769" lon="9.517216617241502">
<ele>246</ele>
<time>2024-05-07T14:52:52Z</time>
</trkpt>
<trkpt lat="49.20640178024769" lon="9.517228100448849">
<ele>246</ele>
<time>2024-05-07T14:52:53Z</time>
</trkpt>
<trkpt lat="49.20640563592315" lon="9.51723949983716">
<ele>246</ele>
<time>2024-05-07T14:52:54Z</time>
</trkpt>
<trkpt lat="49.20640563592315" lon="9.517245283350348">
<ele>246</ele>
<time>2024-05-07T14:52:55Z</time>
</trkpt>
<trkpt lat="49.20640563592315" lon="9.517246205359696">
<ele>246</ele>
<time>2024-05-07T14:52:56Z</time>
</trkpt>
<trkpt lat="49.20640563592315" lon="9.517250061035156">
<ele>246.2</ele>
<time>2024-05-07T14:52:57Z</time>
</trkpt>
<trkpt lat="49.20640563592315" lon="9.517254754900932">
<ele>246.2</ele>
<time>2024-05-07T14:53:00Z</time>
</trkpt>
<trkpt lat="49.20640563592315" lon="9.517256682738662">
<ele>246.2</ele>
<time>2024-05-07T14:53:02Z</time>
</trkpt>
<trkpt lat="49.206409407779574" lon="9.517256682738662">
<ele>246.2</ele>
<time>2024-05-07T14:53:03Z</time>
</trkpt>
<trkpt lat="49.206409407779574" lon="9.51725953258574">
<ele>246.2</ele>
<time>2024-05-07T14:53:04Z</time>
</trkpt>
<trkpt lat="49.206409407779574" lon="9.5172633882612">
<ele>246.2</ele>
<time>2024-05-07T14:53:05Z</time>
</trkpt>
<trkpt lat="49.20641326345503" lon="9.51725953258574">
<ele>246.4</ele>
<time>2024-05-07T14:53:08Z</time>
</trkpt>
<trkpt lat="49.206409407779574" lon="9.517256682738662">
<ele>246.4</ele>
<time>2024-05-07T14:53:09Z</time>
</trkpt>
<trkpt lat="49.20641326345503" lon="9.517258610576391">
<ele>246.4</ele>
<time>2024-05-07T14:53:10Z</time>
</trkpt>
<trkpt lat="49.20641326345503" lon="9.517254754900932">
<ele>246.4</ele>
<time>2024-05-07T14:53:11Z</time>
</trkpt>
<trkpt lat="49.20641326345503" lon="9.517256682738662">
<ele>246.4</ele>
<time>2024-05-07T14:53:13Z</time>
</trkpt>
<trkpt lat="49.206409407779574" lon="9.517258610576391">
<ele>246.4</ele>
<time>2024-05-07T14:53:15Z</time>
</trkpt>
<trkpt lat="49.20640563592315" lon="9.517258610576391">
<ele>246.4</ele>
<time>2024-05-07T14:53:17Z</time>
</trkpt>
<trkpt lat="49.20640178024769" lon="9.517258610576391">
<ele>246.4</ele>
<time>2024-05-07T14:53:19Z</time>
</trkpt>
<trkpt lat="49.20640178024769" lon="9.51725953258574">
<ele>246.4</ele>
<time>2024-05-07T14:53:20Z</time>
</trkpt>
<trkpt lat="49.20640178024769" lon="9.51726146042347">
<ele>246.4</ele>
<time>2024-05-07T14:53:21Z</time>
</trkpt>
<trkpt lat="49.20640178024769" lon="9.5172633882612">
<ele>246.4</ele>
<time>2024-05-07T14:53:22Z</time>
</trkpt>
<trkpt lat="49.20640178024769" lon="9.517265316098928">
<ele>246.4</ele>
<time>2024-05-07T14:53:23Z</time>
</trkpt>
<trkpt lat="49.20640178024769" lon="9.517266238108276">
<ele>246.4</ele>
<time>2024-05-07T14:53:24Z</time>
</trkpt>
<trkpt lat="49.20640178024769" lon="9.517268165946009">
<ele>246.4</ele>
<time>2024-05-07T14:53:26Z</time>
</trkpt>
<trkpt lat="49.20639800839126" lon="9.517270009964705">
<ele>246.4</ele>
<time>2024-05-07T14:53:27Z</time>
</trkpt>
<trkpt lat="49.20639800839126" lon="9.517268165946009">
<ele>246.4</ele>
<time>2024-05-07T14:53:29Z</time>
</trkpt>
<trkpt lat="49.2063941527158" lon="9.517266238108276">
<ele>246.4</ele>
<time>2024-05-07T14:53:31Z</time>
</trkpt>
<trkpt lat="49.2063941527158" lon="9.517268165946009">
<ele>246.2</ele>
<time>2024-05-07T14:53:32Z</time>
</trkpt>
<trkpt lat="49.206390380859375" lon="9.517265316098928">
<ele>246.2</ele>
<time>2024-05-07T14:53:33Z</time>
</trkpt>
<trkpt lat="49.20638652518392" lon="9.5172633882612">
<ele>246.2</ele>
<time>2024-05-07T14:53:34Z</time>
</trkpt>
<trkpt lat="49.20638652518392" lon="9.517265316098928">
<ele>246.2</ele>
<time>2024-05-07T14:53:36Z</time>
</trkpt>
<trkpt lat="49.20638652518392" lon="9.517266238108276">
<ele>246.2</ele>
<time>2024-05-07T14:53:37Z</time>
</trkpt>
<trkpt lat="49.20638652518392" lon="9.517270009964705">
<ele>246.2</ele>
<time>2024-05-07T14:53:38Z</time>
</trkpt>
<trkpt lat="49.206390380859375" lon="9.517270009964705">
<ele>246.2</ele>
<time>2024-05-07T14:53:39Z</time>
</trkpt>
<trkpt lat="49.20638652518392" lon="9.517272943630816">
<ele>246.2</ele>
<time>2024-05-07T14:53:40Z</time>
</trkpt>
<trkpt lat="49.20638652518392" lon="9.517278643324971">
<ele>246.2</ele>
<time>2024-05-07T14:53:41Z</time>
</trkpt>
<trkpt lat="49.20638652518392" lon="9.51727956533432">
<ele>246.2</ele>
<time>2024-05-07T14:53:42Z</time>
</trkpt>
<trkpt lat="49.20638652518392" lon="9.51728149317205">
<ele>246.2</ele>
<time>2024-05-07T14:53:43Z</time>
</trkpt>
<trkpt lat="49.20637889765203" lon="9.51728149317205">
<ele>246.2</ele>
<time>2024-05-07T14:53:44Z</time>
</trkpt>
<trkpt lat="49.20637889765203" lon="9.51727956533432">
<ele>246.2</ele>
<time>2024-05-07T14:53:45Z</time>
</trkpt>
<trkpt lat="49.20637889765203" lon="9.51728149317205">
<ele>246.2</ele>
<time>2024-05-07T14:53:46Z</time>
</trkpt>
<trkpt lat="49.20637889765203" lon="9.51728342100978">
<ele>246</ele>
<time>2024-05-07T14:53:47Z</time>
</trkpt>
<trkpt lat="49.20637889765203" lon="9.517286270856856">
<ele>246</ele>
<time>2024-05-07T14:53:48Z</time>
</trkpt>
<trkpt lat="49.20637504197657" lon="9.517290042713284">
<ele>246</ele>
<time>2024-05-07T14:53:49Z</time>
</trkpt>
<trkpt lat="49.20637504197657" lon="9.517292976379396">
<ele>245.8</ele>
<time>2024-05-07T14:53:50Z</time>
</trkpt>
<trkpt lat="49.20637889765203" lon="9.517296748235822">
<ele>245.8</ele>
<time>2024-05-07T14:53:51Z</time>
</trkpt>
<trkpt lat="49.20637889765203" lon="9.5172995980829">
<ele>245.8</ele>
<time>2024-05-07T14:53:52Z</time>
</trkpt>
<trkpt lat="49.20638266950846" lon="9.517305297777057">
<ele>245.8</ele>
<time>2024-05-07T14:53:53Z</time>
</trkpt>
<trkpt lat="49.20638652518392" lon="9.517310075461864">
<ele>245.6</ele>
<time>2024-05-07T14:53:54Z</time>
</trkpt>
<trkpt lat="49.20638652518392" lon="9.517312003299594">
<ele>245.6</ele>
<time>2024-05-07T14:53:55Z</time>
</trkpt>
<trkpt lat="49.20638652518392" lon="9.517314853146672">
<ele>245.6</ele>
<time>2024-05-07T14:53:56Z</time>
</trkpt>
<trkpt lat="49.20638652518392" lon="9.517316780984402">
<ele>245.6</ele>
<time>2024-05-07T14:53:57Z</time>
</trkpt>
<trkpt lat="49.206390380859375" lon="9.517318708822131">
<ele>245.6</ele>
<time>2024-05-07T14:54:01Z</time>
</trkpt>
<trkpt lat="49.206390380859375" lon="9.51731963083148">
<ele>245.6</ele>
<time>2024-05-07T14:54:03Z</time>
</trkpt>
<trkpt lat="49.206390380859375" lon="9.51732155866921">
<ele>245.8</ele>
<time>2024-05-07T14:54:04Z</time>
</trkpt>
<trkpt lat="49.206390380859375" lon="9.51731963083148">
<ele>245.8</ele>
<time>2024-05-07T14:54:07Z</time>
</trkpt>
<trkpt lat="49.20638652518392" lon="9.51731963083148">
<ele>245.8</ele>
<time>2024-05-07T14:54:08Z</time>
</trkpt>
<trkpt lat="49.20638652518392" lon="9.51732155866921">
<ele>245.8</ele>
<time>2024-05-07T14:54:10Z</time>
</trkpt>
<trkpt lat="49.20638652518392" lon="9.51732348650694">
<ele>245.8</ele>
<time>2024-05-07T14:54:11Z</time>
</trkpt>
<trkpt lat="49.20638652518392" lon="9.517325330525637">
<ele>245.8</ele>
<time>2024-05-07T14:54:12Z</time>
</trkpt>
<trkpt lat="49.20638652518392" lon="9.51732348650694">
<ele>245.8</ele>
<time>2024-05-07T14:54:13Z</time>
</trkpt>
<trkpt lat="49.20638652518392" lon="9.51732155866921">
<ele>245.8</ele>
<time>2024-05-07T14:54:15Z</time>
</trkpt>
<trkpt lat="49.20638652518392" lon="9.51731963083148">
<ele>245.8</ele>
<time>2024-05-07T14:54:16Z</time>
</trkpt>
<trkpt lat="49.20638652518392" lon="9.517318708822131">
<ele>245.8</ele>
<time>2024-05-07T14:54:17Z</time>
</trkpt>
<trkpt lat="49.20638652518392" lon="9.517316780984402">
<ele>245.8</ele>
<time>2024-05-07T14:54:19Z</time>
</trkpt>
<trkpt lat="49.20638652518392" lon="9.517314853146672">
<ele>245.8</ele>
<time>2024-05-07T14:54:20Z</time>
</trkpt>
<trkpt lat="49.20638652518392" lon="9.517312925308945">
<ele>245.6</ele>
<time>2024-05-07T14:54:22Z</time>
</trkpt>
<trkpt lat="49.20638266950846" lon="9.517312925308945">
<ele>245.6</ele>
<time>2024-05-07T14:54:23Z</time>
</trkpt>
<trkpt lat="49.20638266950846" lon="9.517312003299594">
<ele>245.6</ele>
<time>2024-05-07T14:54:24Z</time>
</trkpt>
<trkpt lat="49.20638266950846" lon="9.517312925308945">
<ele>245.6</ele>
<time>2024-05-07T14:54:25Z</time>
</trkpt>
<trkpt lat="49.20638266950846" lon="9.517312003299594">
<ele>245.6</ele>
<time>2024-05-07T14:54:28Z</time>
</trkpt>
<trkpt lat="49.20638266950846" lon="9.517310075461864">
<ele>245.6</ele>
<time>2024-05-07T14:54:30Z</time>
</trkpt>
<trkpt lat="49.20638266950846" lon="9.517308231443169">
<ele>245.6</ele>
<time>2024-05-07T14:54:32Z</time>
</trkpt>
<trkpt lat="49.20638266950846" lon="9.517306303605436">
<ele>245.6</ele>
<time>2024-05-07T14:54:33Z</time>
</trkpt>
<trkpt lat="49.20638266950846" lon="9.517305297777057">
<ele>245.6</ele>
<time>2024-05-07T14:54:37Z</time>
</trkpt>
<trkpt lat="49.20638266950846" lon="9.51730345375836">
<ele>245.6</ele>
<time>2024-05-07T14:54:39Z</time>
</trkpt>
<trkpt lat="49.20638266950846" lon="9.51730152592063">
<ele>245.6</ele>
<time>2024-05-07T14:54:40Z</time>
</trkpt>
<trkpt lat="49.20638266950846" lon="9.517298676073551">
<ele>245.6</ele>
<time>2024-05-07T14:54:41Z</time>
</trkpt>
<trkpt lat="49.20638266950846" lon="9.517292976379396">
<ele>245.6</ele>
<time>2024-05-07T14:54:42Z</time>
</trkpt>
<trkpt lat="49.20638652518392" lon="9.517291970551014">
<ele>245.6</ele>
<time>2024-05-07T14:54:43Z</time>
</trkpt>
<trkpt lat="49.20638652518392" lon="9.517288198694589">
<ele>245.6</ele>
<time>2024-05-07T14:54:44Z</time>
</trkpt>
<trkpt lat="49.20638652518392" lon="9.517285265028477">
<ele>245.6</ele>
<time>2024-05-07T14:54:45Z</time>
</trkpt>
<trkpt lat="49.206390380859375" lon="9.51728342100978">
<ele>245.6</ele>
<time>2024-05-07T14:54:46Z</time>
</trkpt>
<trkpt lat="49.206390380859375" lon="9.51728149317205">
<ele>245.6</ele>
<time>2024-05-07T14:54:48Z</time>
</trkpt>
<trkpt lat="49.206390380859375" lon="9.51727956533432">
<ele>245.8</ele>
<time>2024-05-07T14:54:50Z</time>
</trkpt>
<trkpt lat="49.206390380859375" lon="9.517278643324971">
<ele>245.8</ele>
<time>2024-05-07T14:54:53Z</time>
</trkpt>
<trkpt lat="49.206390380859375" lon="9.517276715487242">
<ele>245.8</ele>
<time>2024-05-07T14:54:55Z</time>
</trkpt>
<trkpt lat="49.206390380859375" lon="9.517278643324971">
<ele>245.8</ele>
<time>2024-05-07T14:55:00Z</time>
</trkpt>
<trkpt lat="49.206390380859375" lon="9.517276715487242">
<ele>246</ele>
<time>2024-05-07T14:55:08Z</time>
</trkpt>
<trkpt lat="49.206390380859375" lon="9.517278643324971">
<ele>246</ele>
<time>2024-05-07T14:55:09Z</time>
</trkpt>
<trkpt lat="49.2063941527158" lon="9.517276715487242">
<ele>246.2</ele>
<time>2024-05-07T14:55:10Z</time>
</trkpt>
<trkpt lat="49.206390380859375" lon="9.517276715487242">
<ele>246.2</ele>
<time>2024-05-07T14:55:13Z</time>
</trkpt>
<trkpt lat="49.206390380859375" lon="9.517274787649512">
<ele>246.2</ele>
<time>2024-05-07T14:55:15Z</time>
</trkpt>
<trkpt lat="49.20638652518392" lon="9.517272943630816">
<ele>246.2</ele>
<time>2024-05-07T14:55:17Z</time>
</trkpt>
<trkpt lat="49.20638652518392" lon="9.517271937802434">
<ele>246.2</ele>
<time>2024-05-07T14:55:19Z</time>
</trkpt>
<trkpt lat="49.20638652518392" lon="9.517270009964705">
<ele>246.2</ele>
<time>2024-05-07T14:55:22Z</time>
</trkpt>
<trkpt lat="49.20638652518392" lon="9.517266238108276">
<ele>246.2</ele>
<time>2024-05-07T14:55:23Z</time>
</trkpt>
<trkpt lat="49.20638652518392" lon="9.517268165946009">
<ele>246.2</ele>
<time>2024-05-07T14:55:24Z</time>
</trkpt>
<trkpt lat="49.20638652518392" lon="9.517266238108276">
<ele>246.2</ele>
<time>2024-05-07T14:55:27Z</time>
</trkpt>
<trkpt lat="49.20638266950846" lon="9.517265316098928">
<ele>246</ele>
<time>2024-05-07T14:55:29Z</time>
</trkpt>
<trkpt lat="49.20638266950846" lon="9.517266238108276">
<ele>246</ele>
<time>2024-05-07T14:55:33Z</time>
</trkpt>
<trkpt lat="49.20637889765203" lon="9.5172633882612">
<ele>246</ele>
<time>2024-05-07T14:55:35Z</time>
</trkpt>
<trkpt lat="49.20637889765203" lon="9.51726146042347">
<ele>246</ele>
<time>2024-05-07T14:55:36Z</time>
</trkpt>
<trkpt lat="49.20637889765203" lon="9.51725953258574">
<ele>246</ele>
<time>2024-05-07T14:55:37Z</time>
</trkpt>
<trkpt lat="49.20637889765203" lon="9.51726146042347">
<ele>246</ele>
<time>2024-05-07T14:55:38Z</time>
</trkpt>
<trkpt lat="49.20638266950846" lon="9.5172633882612">
<ele>246</ele>
<time>2024-05-07T14:55:42Z</time>
</trkpt>
<trkpt lat="49.20638266950846" lon="9.517265316098928">
<ele>246</ele>
<time>2024-05-07T14:55:43Z</time>
</trkpt>
<trkpt lat="49.20638266950846" lon="9.5172633882612">
<ele>246</ele>
<time>2024-05-07T14:55:44Z</time>
</trkpt>
<trkpt lat="49.20637889765203" lon="9.5172633882612">
<ele>246</ele>
<time>2024-05-07T14:55:45Z</time>
</trkpt>
<trkpt lat="49.20637889765203" lon="9.51726146042347">
<ele>246</ele>
<time>2024-05-07T14:55:47Z</time>
</trkpt>
<trkpt lat="49.20637889765203" lon="9.51725953258574">
<ele>246</ele>
<time>2024-05-07T14:55:50Z</time>
</trkpt>
<trkpt lat="49.20637889765203" lon="9.517258610576391">
<ele>246</ele>
<time>2024-05-07T14:55:52Z</time>
</trkpt>
<trkpt lat="49.20637889765203" lon="9.517256682738662">
<ele>246</ele>
<time>2024-05-07T14:55:53Z</time>
</trkpt>
<trkpt lat="49.20637889765203" lon="9.517258610576391">
<ele>245.8</ele>
<time>2024-05-07T14:55:54Z</time>
</trkpt>
<trkpt lat="49.20638266950846" lon="9.51725953258574">
<ele>245.8</ele>
<time>2024-05-07T14:55:56Z</time>
</trkpt>
<trkpt lat="49.20637889765203" lon="9.51725953258574">
<ele>245.8</ele>
<time>2024-05-07T14:56:00Z</time>
</trkpt>
<trkpt lat="49.20637889765203" lon="9.517258610576391">
<ele>245.8</ele>
<time>2024-05-07T14:56:01Z</time>
</trkpt>
<trkpt lat="49.20637889765203" lon="9.517256682738662">
<ele>245.8</ele>
<time>2024-05-07T14:56:02Z</time>
</trkpt>
<trkpt lat="49.20637504197657" lon="9.517254754900932">
<ele>245.8</ele>
<time>2024-05-07T14:56:04Z</time>
</trkpt>
<trkpt lat="49.20637504197657" lon="9.517252910882236">
<ele>245.8</ele>
<time>2024-05-07T14:56:06Z</time>
</trkpt>
<trkpt lat="49.20637504197657" lon="9.517251905053854">
<ele>245.8</ele>
<time>2024-05-07T14:56:08Z</time>
</trkpt>
<trkpt lat="49.206371270120144" lon="9.517250061035156">
<ele>245.8</ele>
<time>2024-05-07T14:56:10Z</time>
</trkpt>
<trkpt lat="49.206371270120144" lon="9.517251905053854">
<ele>246</ele>
<time>2024-05-07T14:56:17Z</time>
</trkpt>
<trkpt lat="49.206371270120144" lon="9.517250061035156">
<ele>246</ele>
<time>2024-05-07T14:56:18Z</time>
</trkpt>
<trkpt lat="49.206371270120144" lon="9.517251905053854">
<ele>246.2</ele>
<time>2024-05-07T14:56:19Z</time>
</trkpt>
<trkpt lat="49.20637504197657" lon="9.517252910882236">
<ele>246.2</ele>
<time>2024-05-07T14:56:20Z</time>
</trkpt>
<trkpt lat="49.206371270120144" lon="9.517251905053854">
<ele>246.2</ele>
<time>2024-05-07T14:56:22Z</time>
</trkpt>
<trkpt lat="49.206371270120144" lon="9.517252910882236">
<ele>246.4</ele>
<time>2024-05-07T14:56:23Z</time>
</trkpt>
<trkpt lat="49.20637504197657" lon="9.517252910882236">
<ele>246.4</ele>
<time>2024-05-07T14:56:24Z</time>
</trkpt>
<trkpt lat="49.20637504197657" lon="9.517254754900932">
<ele>246.4</ele>
<time>2024-05-07T14:56:26Z</time>
</trkpt>
<trkpt lat="49.20637504197657" lon="9.517252910882236">
<ele>246.4</ele>
<time>2024-05-07T14:56:30Z</time>
</trkpt>
<trkpt lat="49.20637504197657" lon="9.517251905053854">
<ele>246.4</ele>
<time>2024-05-07T14:56:31Z</time>
</trkpt>
<trkpt lat="49.20637504197657" lon="9.517250061035156">
<ele>246.2</ele>
<time>2024-05-07T14:56:32Z</time>
</trkpt>
<trkpt lat="49.20637504197657" lon="9.517248133197429">
<ele>246.2</ele>
<time>2024-05-07T14:56:33Z</time>
</trkpt>
<trkpt lat="49.20637504197657" lon="9.517246205359696">
<ele>246.2</ele>
<time>2024-05-07T14:56:34Z</time>
</trkpt>
<trkpt lat="49.206371270120144" lon="9.517246205359696">
<ele>246</ele>
<time>2024-05-07T14:56:36Z</time>
</trkpt>
<trkpt lat="49.206371270120144" lon="9.517245283350348">
<ele>246</ele>
<time>2024-05-07T14:56:39Z</time>
</trkpt>
<trkpt lat="49.206371270120144" lon="9.51724335551262">
<ele>245.8</ele>
<time>2024-05-07T14:56:42Z</time>
</trkpt>
<trkpt lat="49.206371270120144" lon="9.51724142767489">
<ele>245.8</ele>
<time>2024-05-07T14:56:43Z</time>
</trkpt>
<trkpt lat="49.206367414444685" lon="9.51724335551262">
<ele>245.8</ele>
<time>2024-05-07T14:56:46Z</time>
</trkpt>
<trkpt lat="49.206367414444685" lon="9.517245283350348">
<ele>245.8</ele>
<time>2024-05-07T14:56:49Z</time>
</trkpt>
<trkpt lat="49.20636364258826" lon="9.51724335551262">
<ele>245.8</ele>
<time>2024-05-07T14:56:52Z</time>
</trkpt>
<trkpt lat="49.2063597869128" lon="9.51723949983716">
<ele>245.8</ele>
<time>2024-05-07T14:56:54Z</time>
</trkpt>
<trkpt lat="49.2063597869128" lon="9.51724142767489">
<ele>245.8</ele>
<time>2024-05-07T14:56:55Z</time>
</trkpt>
<trkpt lat="49.2063597869128" lon="9.51724335551262">
<ele>246</ele>
<time>2024-05-07T14:56:58Z</time>
</trkpt>
<trkpt lat="49.20636364258826" lon="9.517245283350348">
<ele>246</ele>
<time>2024-05-07T14:56:59Z</time>
</trkpt>
<trkpt lat="49.2063597869128" lon="9.517245283350348">
<ele>246</ele>
<time>2024-05-07T14:57:06Z</time>
</trkpt>
<trkpt lat="49.2063597869128" lon="9.51723949983716">
<ele>246</ele>
<time>2024-05-07T14:57:09Z</time>
</trkpt>
<trkpt lat="49.2063597869128" lon="9.51724142767489">
<ele>245.8</ele>
<time>2024-05-07T14:57:10Z</time>
</trkpt>
<trkpt lat="49.2063597869128" lon="9.51723949983716">
<ele>245.8</ele>
<time>2024-05-07T14:57:12Z</time>
</trkpt>
<trkpt lat="49.20635601505637" lon="9.517238577827811">
<ele>245.8</ele>
<time>2024-05-07T14:57:13Z</time>
</trkpt>
<trkpt lat="49.20635601505637" lon="9.517236649990082">
<ele>245.8</ele>
<time>2024-05-07T14:57:14Z</time>
</trkpt>
<trkpt lat="49.20635601505637" lon="9.517232878133656">
<ele>245.6</ele>
<time>2024-05-07T14:57:15Z</time>
</trkpt>
<trkpt lat="49.20635215938091" lon="9.517232878133656">
<ele>245.6</ele>
<time>2024-05-07T14:57:16Z</time>
</trkpt>
<trkpt lat="49.20635215938091" lon="9.517231872305274">
<ele>245.6</ele>
<time>2024-05-07T14:57:17Z</time>
</trkpt>
<trkpt lat="49.206348387524486" lon="9.517231872305274">
<ele>245.6</ele>
<time>2024-05-07T14:57:18Z</time>
</trkpt>
<trkpt lat="49.206348387524486" lon="9.517230028286576">
<ele>245.6</ele>
<time>2024-05-07T14:57:19Z</time>
</trkpt>
<trkpt lat="49.206348387524486" lon="9.517228100448849">
<ele>245.6</ele>
<time>2024-05-07T14:57:21Z</time>
</trkpt>
<trkpt lat="49.206348387524486" lon="9.517227094620466">
<ele>245.4</ele>
<time>2024-05-07T14:57:22Z</time>
</trkpt>
<trkpt lat="49.206348387524486" lon="9.51722332276404">
<ele>245.4</ele>
<time>2024-05-07T14:57:23Z</time>
</trkpt>
<trkpt lat="49.206348387524486" lon="9.517225250601768">
<ele>245.4</ele>
<time>2024-05-07T14:57:24Z</time>
</trkpt>
<trkpt lat="49.20634453184903" lon="9.51722332276404">
<ele>245.4</ele>
<time>2024-05-07T14:57:25Z</time>
</trkpt>
<trkpt lat="49.2063407599926" lon="9.51722332276404">
<ele>245.4</ele>
<time>2024-05-07T14:57:27Z</time>
</trkpt>
<trkpt lat="49.2063407599926" lon="9.51722139492631">
<ele>245.4</ele>
<time>2024-05-07T14:57:28Z</time>
</trkpt>
<trkpt lat="49.2063407599926" lon="9.51721946708858">
<ele>245.4</ele>
<time>2024-05-07T14:57:30Z</time>
</trkpt>
<trkpt lat="49.2063407599926" lon="9.517218545079231">
<ele>245.4</ele>
<time>2024-05-07T14:57:31Z</time>
</trkpt>
<trkpt lat="49.20633690431714" lon="9.517216617241502">
<ele>245.4</ele>
<time>2024-05-07T14:57:32Z</time>
</trkpt>
<trkpt lat="49.20633690431714" lon="9.517214773222804">
<ele>245.4</ele>
<time>2024-05-07T14:57:33Z</time>
</trkpt>
<trkpt lat="49.20633313246071" lon="9.517213767394423">
<ele>245.4</ele>
<time>2024-05-07T14:57:34Z</time>
</trkpt>
<trkpt lat="49.20633313246071" lon="9.517211839556694">
<ele>245.4</ele>
<time>2024-05-07T14:57:35Z</time>
</trkpt>
<trkpt lat="49.20633313246071" lon="9.517208067700269">
<ele>245.4</ele>
<time>2024-05-07T14:57:36Z</time>
</trkpt>
<trkpt lat="49.206329276785254" lon="9.517206139862536">
<ele>245.4</ele>
<time>2024-05-07T14:57:37Z</time>
</trkpt>
<trkpt lat="49.206329276785254" lon="9.517205217853189">
<ele>245.4</ele>
<time>2024-05-07T14:57:38Z</time>
</trkpt>
<trkpt lat="49.206329276785254" lon="9.51720136217773">
<ele>245.4</ele>
<time>2024-05-07T14:57:39Z</time>
</trkpt>
<trkpt lat="49.20633313246071" lon="9.51720044016838">
<ele>245.4</ele>
<time>2024-05-07T14:57:41Z</time>
</trkpt>
<trkpt lat="49.20633313246071" lon="9.51720136217773">
<ele>245.4</ele>
<time>2024-05-07T14:57:42Z</time>
</trkpt>
<trkpt lat="49.20633690431714" lon="9.51720136217773">
<ele>245.4</ele>
<time>2024-05-07T14:57:43Z</time>
</trkpt>
<trkpt lat="49.2063407599926" lon="9.51720329001546">
<ele>245.4</ele>
<time>2024-05-07T14:57:45Z</time>
</trkpt>
<trkpt lat="49.2063407599926" lon="9.51720136217773">
<ele>245.4</ele>
<time>2024-05-07T14:57:46Z</time>
</trkpt>
<trkpt lat="49.20634453184903" lon="9.51720136217773">
<ele>245.4</ele>
<time>2024-05-07T14:57:48Z</time>
</trkpt>
<trkpt lat="49.20634453184903" lon="9.51720329001546">
<ele>245.4</ele>
<time>2024-05-07T14:57:51Z</time>
</trkpt>
<trkpt lat="49.206348387524486" lon="9.517205217853189">
<ele>245.4</ele>
<time>2024-05-07T14:57:52Z</time>
</trkpt>
<trkpt lat="49.206348387524486" lon="9.517208067700269">
<ele>245.4</ele>
<time>2024-05-07T14:57:53Z</time>
</trkpt>
<trkpt lat="49.206348387524486" lon="9.517211839556694">
<ele>245.4</ele>
<time>2024-05-07T14:57:54Z</time>
</trkpt>
<trkpt lat="49.206348387524486" lon="9.517214773222804">
<ele>245.4</ele>
<time>2024-05-07T14:57:55Z</time>
</trkpt>
<trkpt lat="49.20634453184903" lon="9.517216617241502">
<ele>245.4</ele>
<time>2024-05-07T14:57:56Z</time>
</trkpt>
<trkpt lat="49.206348387524486" lon="9.517218545079231">
<ele>245.4</ele>
<time>2024-05-07T14:57:57Z</time>
</trkpt>
<trkpt lat="49.206348387524486" lon="9.51722139492631">
<ele>245.4</ele>
<time>2024-05-07T14:57:58Z</time>
</trkpt>
<trkpt lat="49.206348387524486" lon="9.51722332276404">
<ele>245.4</ele>
<time>2024-05-07T14:57:59Z</time>
</trkpt>
<trkpt lat="49.20634453184903" lon="9.517225250601768">
<ele>245.4</ele>
<time>2024-05-07T14:58:00Z</time>
</trkpt>
<trkpt lat="49.20634453184903" lon="9.517227094620466">
<ele>245.4</ele>
<time>2024-05-07T14:58:01Z</time>
</trkpt>
<trkpt lat="49.20634453184903" lon="9.517228100448849">
<ele>245.4</ele>
<time>2024-05-07T14:58:02Z</time>
</trkpt>
<trkpt lat="49.20634453184903" lon="9.517230028286576">
<ele>245.4</ele>
<time>2024-05-07T14:58:03Z</time>
</trkpt>
<trkpt lat="49.20634453184903" lon="9.517231872305274">
<ele>245.4</ele>
<time>2024-05-07T14:58:04Z</time>
</trkpt>
<trkpt lat="49.206348387524486" lon="9.517231872305274">
<ele>245.4</ele>
<time>2024-05-07T14:58:05Z</time>
</trkpt>
<trkpt lat="49.206348387524486" lon="9.517232878133656">
<ele>245.4</ele>
<time>2024-05-07T14:58:06Z</time>
</trkpt>
<trkpt lat="49.20634453184903" lon="9.517232878133656">
<ele>245.4</ele>
<time>2024-05-07T14:58:09Z</time>
</trkpt>
<trkpt lat="49.206348387524486" lon="9.517232878133656">
<ele>245.4</ele>
<time>2024-05-07T14:58:10Z</time>
</trkpt>
<trkpt lat="49.206348387524486" lon="9.517234722152352">
<ele>245.4</ele>
<time>2024-05-07T14:58:12Z</time>
</trkpt>
<trkpt lat="49.206348387524486" lon="9.517236649990082">
<ele>245.4</ele>
<time>2024-05-07T14:58:14Z</time>
</trkpt>
<trkpt lat="49.206348387524486" lon="9.517238577827811">
<ele>245.4</ele>
<time>2024-05-07T14:58:15Z</time>
</trkpt>
<trkpt lat="49.20635215938091" lon="9.51723949983716">
<ele>245.4</ele>
<time>2024-05-07T14:58:16Z</time>
</trkpt>
<trkpt lat="49.20635215938091" lon="9.51724142767489">
<ele>245.4</ele>
<time>2024-05-07T14:58:18Z</time>
</trkpt>
<trkpt lat="49.20635215938091" lon="9.51724335551262">
<ele>245.4</ele>
<time>2024-05-07T14:58:20Z</time>
</trkpt>
<trkpt lat="49.20635601505637" lon="9.51724335551262">
<ele>245.4</ele>
<time>2024-05-07T14:58:22Z</time>
</trkpt>
<trkpt lat="49.20635601505637" lon="9.517245283350348">
<ele>245.4</ele>
<time>2024-05-07T14:58:24Z</time>
</trkpt>
<trkpt lat="49.20635601505637" lon="9.517246205359696">
<ele>245.4</ele>
<time>2024-05-07T14:58:26Z</time>
</trkpt>
<trkpt lat="49.20635601505637" lon="9.517248133197429">
<ele>245.4</ele>
<time>2024-05-07T14:58:27Z</time>
</trkpt>
<trkpt lat="49.20635601505637" lon="9.517250061035156">
<ele>245.4</ele>
<time>2024-05-07T14:58:28Z</time>
</trkpt>
<trkpt lat="49.20635601505637" lon="9.517251905053854">
<ele>245.4</ele>
<time>2024-05-07T14:58:29Z</time>
</trkpt>
<trkpt lat="49.2063597869128" lon="9.517251905053854">
<ele>245.4</ele>
<time>2024-05-07T14:58:31Z</time>
</trkpt>
<trkpt lat="49.2063597869128" lon="9.517250061035156">
<ele>245.4</ele>
<time>2024-05-07T14:58:32Z</time>
</trkpt>
<trkpt lat="49.2063597869128" lon="9.517251905053854">
<ele>245.4</ele>
<time>2024-05-07T14:58:33Z</time>
</trkpt>
<trkpt lat="49.2063597869128" lon="9.517250061035156">
<ele>245.4</ele>
<time>2024-05-07T14:58:34Z</time>
</trkpt>
<trkpt lat="49.2063597869128" lon="9.517251905053854">
<ele>245.4</ele>
<time>2024-05-07T14:58:36Z</time>
</trkpt>
<trkpt lat="49.2063597869128" lon="9.517252910882236">
<ele>245.4</ele>
<time>2024-05-07T14:58:37Z</time>
</trkpt>
<trkpt lat="49.20636364258826" lon="9.517254754900932">
<ele>245.4</ele>
<time>2024-05-07T14:58:39Z</time>
</trkpt>
<trkpt lat="49.20636364258826" lon="9.517256682738662">
<ele>245.4</ele>
<time>2024-05-07T14:58:40Z</time>
</trkpt>
<trkpt lat="49.206367414444685" lon="9.517256682738662">
<ele>245.4</ele>
<time>2024-05-07T14:58:41Z</time>
</trkpt>
<trkpt lat="49.206367414444685" lon="9.517258610576391">
<ele>245.4</ele>
<time>2024-05-07T14:58:42Z</time>
</trkpt>
<trkpt lat="49.206371270120144" lon="9.517258610576391">
<ele>245.4</ele>
<time>2024-05-07T14:58:43Z</time>
</trkpt>
<trkpt lat="49.206371270120144" lon="9.51725953258574">
<ele>245.4</ele>
<time>2024-05-07T14:58:44Z</time>
</trkpt>
<trkpt lat="49.20637504197657" lon="9.51725953258574">
<ele>245.4</ele>
<time>2024-05-07T14:58:45Z</time>
</trkpt>
<trkpt lat="49.20637504197657" lon="9.51726146042347">
<ele>245.4</ele>
<time>2024-05-07T14:58:46Z</time>
</trkpt>
<trkpt lat="49.20637504197657" lon="9.5172633882612">
<ele>245.4</ele>
<time>2024-05-07T14:58:48Z</time>
</trkpt>
<trkpt lat="49.20637889765203" lon="9.51726146042347">
<ele>245.4</ele>
<time>2024-05-07T14:58:49Z</time>
</trkpt>
<trkpt lat="49.20637889765203" lon="9.5172633882612">
<ele>245.4</ele>
<time>2024-05-07T14:58:50Z</time>
</trkpt>
<trkpt lat="49.20637889765203" lon="9.51726146042347">
<ele>245.4</ele>
<time>2024-05-07T14:58:51Z</time>
</trkpt>
<trkpt lat="49.20637889765203" lon="9.51725953258574">
<ele>245.4</ele>
<time>2024-05-07T14:58:52Z</time>
</trkpt>
<trkpt lat="49.20638266950846" lon="9.51725953258574">
<ele>245.4</ele>
<time>2024-05-07T14:58:53Z</time>
</trkpt>
<trkpt lat="49.20638266950846" lon="9.517258610576391">
<ele>245.4</ele>
<time>2024-05-07T14:58:54Z</time>
</trkpt>
<trkpt lat="49.20638266950846" lon="9.517256682738662">
<ele>245.4</ele>
<time>2024-05-07T14:58:55Z</time>
</trkpt>
<trkpt lat="49.20638652518392" lon="9.517256682738662">
<ele>245.4</ele>
<time>2024-05-07T14:58:57Z</time>
</trkpt>
<trkpt lat="49.20638652518392" lon="9.517254754900932">
<ele>245.4</ele>
<time>2024-05-07T14:58:58Z</time>
</trkpt>
<trkpt lat="49.20638652518392" lon="9.517252910882236">
<ele>245.4</ele>
<time>2024-05-07T14:58:59Z</time>
</trkpt>
<trkpt lat="49.206390380859375" lon="9.517251905053854">
<ele>245.4</ele>
<time>2024-05-07T14:59:00Z</time>
</trkpt>
<trkpt lat="49.206390380859375" lon="9.517245283350348">
<ele>245.4</ele>
<time>2024-05-07T14:59:02Z</time>
</trkpt>
<trkpt lat="49.2063941527158" lon="9.51724335551262">
<ele>245.4</ele>
<time>2024-05-07T14:59:03Z</time>
</trkpt>
<trkpt lat="49.2063941527158" lon="9.51724142767489">
<ele>245.4</ele>
<time>2024-05-07T14:59:04Z</time>
</trkpt>
<trkpt lat="49.2063941527158" lon="9.51724335551262">
<ele>245.4</ele>
<time>2024-05-07T14:59:05Z</time>
</trkpt>
<trkpt lat="49.2063941527158" lon="9.51724142767489">
<ele>245.4</ele>
<time>2024-05-07T14:59:06Z</time>
</trkpt>
<trkpt lat="49.20639800839126" lon="9.51724335551262">
<ele>245.4</ele>
<time>2024-05-07T14:59:07Z</time>
</trkpt>
<trkpt lat="49.20639800839126" lon="9.517245283350348">
<ele>245.4</ele>
<time>2024-05-07T14:59:08Z</time>
</trkpt>
<trkpt lat="49.20640178024769" lon="9.51724335551262">
<ele>245.4</ele>
<time>2024-05-07T14:59:10Z</time>
</trkpt>
<trkpt lat="49.20640178024769" lon="9.51724142767489">
<ele>245.4</ele>
<time>2024-05-07T14:59:12Z</time>
</trkpt>
<trkpt lat="49.20640178024769" lon="9.51723949983716">
<ele>245.4</ele>
<time>2024-05-07T14:59:15Z</time>
</trkpt>
<trkpt lat="49.20640178024769" lon="9.51724142767489">
<ele>245.4</ele>
<time>2024-05-07T14:59:18Z</time>
</trkpt>
<trkpt lat="49.20640563592315" lon="9.51724142767489">
<ele>245.4</ele>
<time>2024-05-07T14:59:20Z</time>
</trkpt>
<trkpt lat="49.20640563592315" lon="9.51723949983716">
<ele>245.4</ele>
<time>2024-05-07T14:59:22Z</time>
</trkpt>
<trkpt lat="49.20640563592315" lon="9.517238577827811">
<ele>245.4</ele>
<time>2024-05-07T14:59:23Z</time>
</trkpt>
<trkpt lat="49.20640563592315" lon="9.51723949983716">
<ele>245.4</ele>
<time>2024-05-07T14:59:24Z</time>
</trkpt>
<trkpt lat="49.206409407779574" lon="9.51723949983716">
<ele>245.4</ele>
<time>2024-05-07T14:59:25Z</time>
</trkpt>
<trkpt lat="49.206409407779574" lon="9.517238577827811">
<ele>245.4</ele>
<time>2024-05-07T14:59:26Z</time>
</trkpt>
<trkpt lat="49.206409407779574" lon="9.517236649990082">
<ele>245.4</ele>
<time>2024-05-07T14:59:27Z</time>
</trkpt>
<trkpt lat="49.20640563592315" lon="9.517234722152352">
<ele>245.4</ele>
<time>2024-05-07T14:59:28Z</time>
</trkpt>
<trkpt lat="49.20640563592315" lon="9.517232878133656">
<ele>245.4</ele>
<time>2024-05-07T14:59:29Z</time>
</trkpt>
<trkpt lat="49.20640563592315" lon="9.517231872305274">
<ele>245.4</ele>
<time>2024-05-07T14:59:30Z</time>
</trkpt>
<trkpt lat="49.20640563592315" lon="9.517230028286576">
<ele>245.4</ele>
<time>2024-05-07T14:59:33Z</time>
</trkpt>
<trkpt lat="49.20640563592315" lon="9.517231872305274">
<ele>245.4</ele>
<time>2024-05-07T14:59:34Z</time>
</trkpt>
<trkpt lat="49.20640563592315" lon="9.517230028286576">
<ele>245.4</ele>
<time>2024-05-07T14:59:35Z</time>
</trkpt>
<trkpt lat="49.20640563592315" lon="9.517228100448849">
<ele>245.4</ele>
<time>2024-05-07T14:59:37Z</time>
</trkpt>
<trkpt lat="49.20640563592315" lon="9.517230028286576">
<ele>245.4</ele>
<time>2024-05-07T14:59:42Z</time>
</trkpt>
<trkpt lat="49.20640563592315" lon="9.517231872305274">
<ele>245.4</ele>
<time>2024-05-07T14:59:45Z</time>
</trkpt>
<trkpt lat="49.20640563592315" lon="9.517230028286576">
<ele>245.4</ele>
<time>2024-05-07T14:59:46Z</time>
</trkpt>
<trkpt lat="49.206409407779574" lon="9.517230028286576">
<ele>245.4</ele>
<time>2024-05-07T14:59:50Z</time>
</trkpt>
<trkpt lat="49.20640563592315" lon="9.517230028286576">
<ele>245.4</ele>
<time>2024-05-07T14:59:51Z</time>
</trkpt>
<trkpt lat="49.20640563592315" lon="9.517231872305274">
<ele>245.4</ele>
<time>2024-05-07T14:59:52Z</time>
</trkpt>
<trkpt lat="49.20640563592315" lon="9.517228100448849">
<ele>245.4</ele>
<time>2024-05-07T14:59:56Z</time>
</trkpt>
<trkpt lat="49.20640563592315" lon="9.517227094620466">
<ele>245.4</ele>
<time>2024-05-07T14:59:57Z</time>
</trkpt>
<trkpt lat="49.20640178024769" lon="9.517225250601768">
<ele>245.4</ele>
<time>2024-05-07T14:59:58Z</time>
</trkpt>
<trkpt lat="49.20640178024769" lon="9.51722332276404">
<ele>245.4</ele>
<time>2024-05-07T14:59:59Z</time>
</trkpt>
<trkpt lat="49.20640178024769" lon="9.517225250601768">
<ele>245.4</ele>
<time>2024-05-07T15:00:00Z</time>
</trkpt>
<trkpt lat="49.20640178024769" lon="9.517227094620466">
<ele>245.4</ele>
<time>2024-05-07T15:00:04Z</time>
</trkpt>
<trkpt lat="49.20640563592315" lon="9.517228100448849">
<ele>245.4</ele>
<time>2024-05-07T15:00:05Z</time>
</trkpt>
<trkpt lat="49.20640563592315" lon="9.517230028286576">
<ele>245.4</ele>
<time>2024-05-07T15:00:06Z</time>
</trkpt>
<trkpt lat="49.20640563592315" lon="9.517231872305274">
<ele>245.4</ele>
<time>2024-05-07T15:00:07Z</time>
</trkpt>
<trkpt lat="49.206409407779574" lon="9.517232878133656">
<ele>245.4</ele>
<time>2024-05-07T15:00:09Z</time>
</trkpt>
<trkpt lat="49.206409407779574" lon="9.517234722152352">
<ele>245.4</ele>
<time>2024-05-07T15:00:10Z</time>
</trkpt>
<trkpt lat="49.206409407779574" lon="9.517236649990082">
<ele>245.4</ele>
<time>2024-05-07T15:00:11Z</time>
</trkpt>
<trkpt lat="49.206409407779574" lon="9.517238577827811">
<ele>245.4</ele>
<time>2024-05-07T15:00:12Z</time>
</trkpt>
<trkpt lat="49.206409407779574" lon="9.51723949983716">
<ele>245.4</ele>
<time>2024-05-07T15:00:13Z</time>
</trkpt>
<trkpt lat="49.206409407779574" lon="9.517238577827811">
<ele>245.4</ele>
<time>2024-05-07T15:00:17Z</time>
</trkpt>
<trkpt lat="49.206409407779574" lon="9.51723949983716">
<ele>245.4</ele>
<time>2024-05-07T15:00:18Z</time>
</trkpt>
<trkpt lat="49.206409407779574" lon="9.517238577827811">
<ele>245.4</ele>
<time>2024-05-07T15:00:19Z</time>
</trkpt>
<trkpt lat="49.20640563592315" lon="9.517238577827811">
<ele>245.4</ele>
<time>2024-05-07T15:00:21Z</time>
</trkpt>
<trkpt lat="49.206409407779574" lon="9.517238577827811">
<ele>245.4</ele>
<time>2024-05-07T15:00:22Z</time>
</trkpt>
<trkpt lat="49.20640563592315" lon="9.517238577827811">
<ele>245.4</ele>
<time>2024-05-07T15:00:23Z</time>
</trkpt>
<trkpt lat="49.20640563592315" lon="9.51723949983716">
<ele>245.4</ele>
<time>2024-05-07T15:00:25Z</time>
</trkpt>
<trkpt lat="49.20640563592315" lon="9.517238577827811">
<ele>245.4</ele>
<time>2024-05-07T15:00:26Z</time>
</trkpt>
<trkpt lat="49.20640563592315" lon="9.517236649990082">
<ele>245.4</ele>
<time>2024-05-07T15:00:28Z</time>
</trkpt>
<trkpt lat="49.20640563592315" lon="9.517234722152352">
<ele>245.4</ele>
<time>2024-05-07T15:00:34Z</time>
</trkpt>
<trkpt lat="49.206409407779574" lon="9.517236649990082">
<ele>245.4</ele>
<time>2024-05-07T15:00:35Z</time>
</trkpt>
<trkpt lat="49.20640563592315" lon="9.517234722152352">
<ele>245.4</ele>
<time>2024-05-07T15:00:36Z</time>
</trkpt>
<trkpt lat="49.206409407779574" lon="9.517234722152352">
<ele>245.4</ele>
<time>2024-05-07T15:00:37Z</time>
</trkpt>
<trkpt lat="49.206409407779574" lon="9.517238577827811">
<ele>245.4</ele>
<time>2024-05-07T15:00:38Z</time>
</trkpt>
<trkpt lat="49.206409407779574" lon="9.517236649990082">
<ele>245.4</ele>
<time>2024-05-07T15:00:39Z</time>
</trkpt>
<trkpt lat="49.206409407779574" lon="9.517238577827811">
<ele>245.4</ele>
<time>2024-05-07T15:00:40Z</time>
</trkpt>
<trkpt lat="49.206409407779574" lon="9.51723949983716">
<ele>245.4</ele>
<time>2024-05-07T15:00:44Z</time>
</trkpt>
<trkpt lat="49.20641326345503" lon="9.51724142767489">
<ele>245.4</ele>
<time>2024-05-07T15:00:45Z</time>
</trkpt>
<trkpt lat="49.20641326345503" lon="9.51724335551262">
<ele>245.4</ele>
<time>2024-05-07T15:00:46Z</time>
</trkpt>
<trkpt lat="49.20641326345503" lon="9.51724142767489">
<ele>245.4</ele>
<time>2024-05-07T15:00:48Z</time>
</trkpt>
<trkpt lat="49.206409407779574" lon="9.51724142767489">
<ele>245.4</ele>
<time>2024-05-07T15:00:49Z</time>
</trkpt>
<trkpt lat="49.206409407779574" lon="9.51723949983716">
<ele>245.4</ele>
<time>2024-05-07T15:00:51Z</time>
</trkpt>
<trkpt lat="49.20640563592315" lon="9.51723949983716">
<ele>245.4</ele>
<time>2024-05-07T15:00:54Z</time>
</trkpt>
<trkpt lat="49.206409407779574" lon="9.51723949983716">
<ele>245.4</ele>
<time>2024-05-07T15:00:55Z</time>
</trkpt>
<trkpt lat="49.20640563592315" lon="9.517238577827811">
<ele>245.4</ele>
<time>2024-05-07T15:00:56Z</time>
</trkpt>
<trkpt lat="49.20640178024769" lon="9.517234722152352">
<ele>245.4</ele>
<time>2024-05-07T15:00:57Z</time>
</trkpt>
<trkpt lat="49.20640178024769" lon="9.517231872305274">
<ele>245.4</ele>
<time>2024-05-07T15:00:58Z</time>
</trkpt>
<trkpt lat="49.20640178024769" lon="9.517232878133656">
<ele>245.4</ele>
<time>2024-05-07T15:00:59Z</time>
</trkpt>
<trkpt lat="49.20640178024769" lon="9.517231872305274">
<ele>245.4</ele>
<time>2024-05-07T15:01:02Z</time>
</trkpt>
<trkpt lat="49.20639800839126" lon="9.517231872305274">
<ele>245.4</ele>
<time>2024-05-07T15:01:05Z</time>
</trkpt>
<trkpt lat="49.20639800839126" lon="9.517230028286576">
<ele>245.4</ele>
<time>2024-05-07T15:01:06Z</time>
</trkpt>
<trkpt lat="49.20639800839126" lon="9.517228100448849">
<ele>245.4</ele>
<time>2024-05-07T15:01:07Z</time>
</trkpt>
<trkpt lat="49.2063941527158" lon="9.517227094620466">
<ele>245.4</ele>
<time>2024-05-07T15:01:08Z</time>
</trkpt>
<trkpt lat="49.2063941527158" lon="9.517225250601768">
<ele>245.4</ele>
<time>2024-05-07T15:01:11Z</time>
</trkpt>
<trkpt lat="49.2063941527158" lon="9.517227094620466">
<ele>245.4</ele>
<time>2024-05-07T15:01:12Z</time>
</trkpt>
<trkpt lat="49.2063941527158" lon="9.517228100448849">
<ele>245.4</ele>
<time>2024-05-07T15:01:13Z</time>
</trkpt>
<trkpt lat="49.20639800839126" lon="9.517228100448849">
<ele>245.4</ele>
<time>2024-05-07T15:01:14Z</time>
</trkpt>
<trkpt lat="49.20639800839126" lon="9.517230028286576">
<ele>245.4</ele>
<time>2024-05-07T15:01:17Z</time>
</trkpt>
<trkpt lat="49.20639800839126" lon="9.517228100448849">
<ele>245.4</ele>
<time>2024-05-07T15:01:20Z</time>
</trkpt>
<trkpt lat="49.20639800839126" lon="9.517227094620466">
<ele>245.4</ele>
<time>2024-05-07T15:01:21Z</time>
</trkpt>
<trkpt lat="49.2063941527158" lon="9.517225250601768">
<ele>245.4</ele>
<time>2024-05-07T15:01:22Z</time>
</trkpt>
<trkpt lat="49.2063941527158" lon="9.51722332276404">
<ele>245.4</ele>
<time>2024-05-07T15:01:25Z</time>
</trkpt>
<trkpt lat="49.2063941527158" lon="9.51722139492631">
<ele>245.4</ele>
<time>2024-05-07T15:01:26Z</time>
</trkpt>
<trkpt lat="49.2063941527158" lon="9.51721946708858">
<ele>245.4</ele>
<time>2024-05-07T15:01:28Z</time>
</trkpt>
<trkpt lat="49.20639800839126" lon="9.51721946708858">
<ele>245.4</ele>
<time>2024-05-07T15:01:29Z</time>
</trkpt>
<trkpt lat="49.2063941527158" lon="9.51721946708858">
<ele>245.4</ele>
<time>2024-05-07T15:01:30Z</time>
</trkpt>
<trkpt lat="49.2063941527158" lon="9.517218545079231">
<ele>245.4</ele>
<time>2024-05-07T15:01:31Z</time>
</trkpt>
<trkpt lat="49.2063941527158" lon="9.517216617241502">
<ele>245.4</ele>
<time>2024-05-07T15:01:35Z</time>
</trkpt>
<trkpt lat="49.2063941527158" lon="9.517214773222804">
<ele>245.4</ele>
<time>2024-05-07T15:01:38Z</time>
</trkpt>
<trkpt lat="49.2063941527158" lon="9.517213767394423">
<ele>245.4</ele>
<time>2024-05-07T15:01:44Z</time>
</trkpt>
<trkpt lat="49.2063941527158" lon="9.517211839556694">
<ele>245.4</ele>
<time>2024-05-07T15:01:46Z</time>
</trkpt>
<trkpt lat="49.2063941527158" lon="9.517213767394423">
<ele>245.4</ele>
<time>2024-05-07T15:01:51Z</time>
</trkpt>
<trkpt lat="49.2063941527158" lon="9.517214773222804">
<ele>245.4</ele>
<time>2024-05-07T15:02:01Z</time>
</trkpt>
<trkpt lat="49.2063941527158" lon="9.517216617241502">
<ele>245.4</ele>
<time>2024-05-07T15:02:11Z</time>
</trkpt>
<trkpt lat="49.2063941527158" lon="9.517218545079231">
<ele>245.4</ele>
<time>2024-05-07T15:02:21Z</time>
</trkpt>
<trkpt lat="49.206390380859375" lon="9.517218545079231">
<ele>245.4</ele>
<time>2024-05-07T15:02:22Z</time>
</trkpt>
<trkpt lat="49.206390380859375" lon="9.517216617241502">
<ele>245.4</ele>
<time>2024-05-07T15:02:32Z</time>
</trkpt>
<trkpt lat="49.20638652518392" lon="9.517216617241502">
<ele>245.4</ele>
<time>2024-05-07T15:02:33Z</time>
</trkpt>
<trkpt lat="49.20638652518392" lon="9.517214773222804">
<ele>245.4</ele>
<time>2024-05-07T15:02:34Z</time>
</trkpt>
<trkpt lat="49.20638652518392" lon="9.517216617241502">
<ele>245.4</ele>
<time>2024-05-07T15:02:35Z</time>
</trkpt>
<trkpt lat="49.20638652518392" lon="9.517214773222804">
<ele>245.4</ele>
<time>2024-05-07T15:02:36Z</time>
</trkpt>
<trkpt lat="49.20638652518392" lon="9.517213767394423">
<ele>245.4</ele>
<time>2024-05-07T15:02:40Z</time>
</trkpt>
<trkpt lat="49.20638652518392" lon="9.517211839556694">
<ele>245.4</ele>
<time>2024-05-07T15:02:41Z</time>
</trkpt>
<trkpt lat="49.20638652518392" lon="9.517209995537996">
<ele>245.4</ele>
<time>2024-05-07T15:02:43Z</time>
</trkpt>
<trkpt lat="49.20638266950846" lon="9.517209995537996">
<ele>245.4</ele>
<time>2024-05-07T15:02:44Z</time>
</trkpt>
<trkpt lat="49.20638266950846" lon="9.517208067700269">
<ele>245.4</ele>
<time>2024-05-07T15:02:50Z</time>
</trkpt>
<trkpt lat="49.20638266950846" lon="9.517209995537996">
<ele>245.4</ele>
<time>2024-05-07T15:02:51Z</time>
</trkpt>
<trkpt lat="49.20638266950846" lon="9.517208067700269">
<ele>245.4</ele>
<time>2024-05-07T15:02:53Z</time>
</trkpt>
<trkpt lat="49.20638266950846" lon="9.517209995537996">
<ele>245.4</ele>
<time>2024-05-07T15:02:55Z</time>
</trkpt>
<trkpt lat="49.20638266950846" lon="9.517208067700269">
<ele>245.4</ele>
<time>2024-05-07T15:03:03Z</time>
</trkpt>
<trkpt lat="49.20638266950846" lon="9.517209995537996">
<ele>245.4</ele>
<time>2024-05-07T15:03:08Z</time>
</trkpt>
<trkpt lat="49.20638266950846" lon="9.517211839556694">
<ele>245.4</ele>
<time>2024-05-07T15:03:11Z</time>
</trkpt>
<trkpt lat="49.20638266950846" lon="9.517213767394423">
<ele>245.4</ele>
<time>2024-05-07T15:03:12Z</time>
</trkpt>
<trkpt lat="49.20638266950846" lon="9.517214773222804">
<ele>245.4</ele>
<time>2024-05-07T15:03:15Z</time>
</trkpt>
<trkpt lat="49.20638266950846" lon="9.517216617241502">
<ele>245.4</ele>
<time>2024-05-07T15:03:17Z</time>
</trkpt>
<trkpt lat="49.20638266950846" lon="9.517214773222804">
<ele>245.4</ele>
<time>2024-05-07T15:03:18Z</time>
</trkpt>
<trkpt lat="49.20638266950846" lon="9.517216617241502">
<ele>245.4</ele>
<time>2024-05-07T15:03:19Z</time>
</trkpt>
<trkpt lat="49.20638266950846" lon="9.517218545079231">
<ele>245.4</ele>
<time>2024-05-07T15:03:20Z</time>
</trkpt>
<trkpt lat="49.20638266950846" lon="9.51721946708858">
<ele>245.4</ele>
<time>2024-05-07T15:03:26Z</time>
</trkpt>
<trkpt lat="49.20638266950846" lon="9.517218545079231">
<ele>245.4</ele>
<time>2024-05-07T15:03:27Z</time>
</trkpt>
<trkpt lat="49.20638266950846" lon="9.51721946708858">
<ele>245.4</ele>
<time>2024-05-07T15:03:29Z</time>
</trkpt>
<trkpt lat="49.20638266950846" lon="9.51722139492631">
<ele>245.4</ele>
<time>2024-05-07T15:03:30Z</time>
</trkpt>
<trkpt lat="49.20638652518392" lon="9.51722139492631">
<ele>245.4</ele>
<time>2024-05-07T15:03:32Z</time>
</trkpt>
<trkpt lat="49.20638266950846" lon="9.51722139492631">
<ele>245.4</ele>
<time>2024-05-07T15:03:33Z</time>
</trkpt>
<trkpt lat="49.20638652518392" lon="9.51722332276404">
<ele>245.4</ele>
<time>2024-05-07T15:03:35Z</time>
</trkpt>
<trkpt lat="49.20638652518392" lon="9.51722139492631">
<ele>245.4</ele>
<time>2024-05-07T15:03:36Z</time>
</trkpt>
<trkpt lat="49.20638652518392" lon="9.51722332276404">
<ele>245.4</ele>
<time>2024-05-07T15:03:37Z</time>
</trkpt>
<trkpt lat="49.20638652518392" lon="9.517225250601768">
<ele>245.4</ele>
<time>2024-05-07T15:03:40Z</time>
</trkpt>
<trkpt lat="49.20638652518392" lon="9.517227094620466">
<ele>245.4</ele>
<time>2024-05-07T15:03:42Z</time>
</trkpt>
<trkpt lat="49.20638652518392" lon="9.517228100448849">
<ele>245.4</ele>
<time>2024-05-07T15:03:44Z</time>
</trkpt>
<trkpt lat="49.20638652518392" lon="9.517230028286576">
<ele>245.4</ele>
<time>2024-05-07T15:03:45Z</time>
</trkpt>
<trkpt lat="49.20638652518392" lon="9.517228100448849">
<ele>245.4</ele>
<time>2024-05-07T15:03:47Z</time>
</trkpt>
<trkpt lat="49.20638652518392" lon="9.517230028286576">
<ele>245.4</ele>
<time>2024-05-07T15:03:48Z</time>
</trkpt>
<trkpt lat="49.206390380859375" lon="9.517231872305274">
<ele>245.4</ele>
<time>2024-05-07T15:03:49Z</time>
</trkpt>
<trkpt lat="49.206390380859375" lon="9.517232878133656">
<ele>245.4</ele>
<time>2024-05-07T15:03:53Z</time>
</trkpt>
<trkpt lat="49.206390380859375" lon="9.517234722152352">
<ele>245.4</ele>
<time>2024-05-07T15:03:54Z</time>
</trkpt>
<trkpt lat="49.206390380859375" lon="9.517236649990082">
<ele>245.4</ele>
<time>2024-05-07T15:03:55Z</time>
</trkpt>
<trkpt lat="49.206390380859375" lon="9.517238577827811">
<ele>245.4</ele>
<time>2024-05-07T15:03:56Z</time>
</trkpt>
<trkpt lat="49.2063941527158" lon="9.517236649990082">
<ele>245.4</ele>
<time>2024-05-07T15:03:57Z</time>
</trkpt>
<trkpt lat="49.2063941527158" lon="9.517238577827811">
<ele>245.4</ele>
<time>2024-05-07T15:03:58Z</time>
</trkpt>
<trkpt lat="49.2063941527158" lon="9.517236649990082">
<ele>245.4</ele>
<time>2024-05-07T15:04:00Z</time>
</trkpt>
<trkpt lat="49.2063941527158" lon="9.517238577827811">
<ele>245.4</ele>
<time>2024-05-07T15:04:01Z</time>
</trkpt>
<trkpt lat="49.2063941527158" lon="9.51723949983716">
<ele>245.4</ele>
<time>2024-05-07T15:04:03Z</time>
</trkpt>
<trkpt lat="49.20639800839126" lon="9.51724142767489">
<ele>245.4</ele>
<time>2024-05-07T15:04:04Z</time>
</trkpt>
<trkpt lat="49.20639800839126" lon="9.51724335551262">
<ele>245.4</ele>
<time>2024-05-07T15:04:06Z</time>
</trkpt>
<trkpt lat="49.20640178024769" lon="9.51724335551262">
<ele>245.4</ele>
<time>2024-05-07T15:04:07Z</time>
</trkpt>
<trkpt lat="49.20640178024769" lon="9.517245283350348">
<ele>245.4</ele>
<time>2024-05-07T15:04:08Z</time>
</trkpt>
<trkpt lat="49.20640178024769" lon="9.517246205359696">
<ele>245.4</ele>
<time>2024-05-07T15:04:10Z</time>
</trkpt>
<trkpt lat="49.20640178024769" lon="9.517248133197429">
<ele>245.4</ele>
<time>2024-05-07T15:04:11Z</time>
</trkpt>
<trkpt lat="49.20640178024769" lon="9.517250061035156">
<ele>245.4</ele>
<time>2024-05-07T15:04:15Z</time>
</trkpt>
<trkpt lat="49.20640178024769" lon="9.517251905053854">
<ele>245.4</ele>
<time>2024-05-07T15:04:17Z</time>
</trkpt>
<trkpt lat="49.20640178024769" lon="9.517252910882236">
<ele>245.4</ele>
<time>2024-05-07T15:04:18Z</time>
</trkpt>
<trkpt lat="49.20640563592315" lon="9.517254754900932">
<ele>245.4</ele>
<time>2024-05-07T15:04:19Z</time>
</trkpt>
<trkpt lat="49.20640563592315" lon="9.517256682738662">
<ele>245.4</ele>
<time>2024-05-07T15:04:20Z</time>
</trkpt>
<trkpt lat="49.206409407779574" lon="9.517258610576391">
<ele>245.4</ele>
<time>2024-05-07T15:04:21Z</time>
</trkpt>
<trkpt lat="49.206409407779574" lon="9.51725953258574">
<ele>245.4</ele>
<time>2024-05-07T15:04:22Z</time>
</trkpt>
<trkpt lat="49.20640563592315" lon="9.51725953258574">
<ele>245.4</ele>
<time>2024-05-07T15:04:24Z</time>
</trkpt>
<trkpt lat="49.20640563592315" lon="9.51726146042347">
<ele>245.4</ele>
<time>2024-05-07T15:04:28Z</time>
</trkpt>
<trkpt lat="49.20640563592315" lon="9.5172633882612">
<ele>245.4</ele>
<time>2024-05-07T15:04:30Z</time>
</trkpt>
<trkpt lat="49.206409407779574" lon="9.517265316098928">
<ele>245.4</ele>
<time>2024-05-07T15:04:32Z</time>
</trkpt>
<trkpt lat="49.206409407779574" lon="9.517266238108276">
<ele>245.4</ele>
<time>2024-05-07T15:04:35Z</time>
</trkpt>
<trkpt lat="49.206409407779574" lon="9.517268165946009">
<ele>245.4</ele>
<time>2024-05-07T15:04:39Z</time>
</trkpt>
<trkpt lat="49.206409407779574" lon="9.517270009964705">
<ele>245.4</ele>
<time>2024-05-07T15:04:43Z</time>
</trkpt>
<trkpt lat="49.206409407779574" lon="9.517271937802434">
<ele>245.4</ele>
<time>2024-05-07T15:04:47Z</time>
</trkpt>
<trkpt lat="49.206409407779574" lon="9.517272943630816">
<ele>245.4</ele>
<time>2024-05-07T15:04:48Z</time>
</trkpt>
<trkpt lat="49.206409407779574" lon="9.517274787649512">
<ele>245.4</ele>
<time>2024-05-07T15:04:51Z</time>
</trkpt>
<trkpt lat="49.206409407779574" lon="9.517272943630816">
<ele>245.4</ele>
<time>2024-05-07T15:04:53Z</time>
</trkpt>
<trkpt lat="49.20640563592315" lon="9.517271937802434">
<ele>245.4</ele>
<time>2024-05-07T15:05:00Z</time>
</trkpt>
<trkpt lat="49.20640563592315" lon="9.517270009964705">
<ele>245.4</ele>
<time>2024-05-07T15:05:03Z</time>
</trkpt>
<trkpt lat="49.20640563592315" lon="9.517271937802434">
<ele>245.4</ele>
<time>2024-05-07T15:05:05Z</time>
</trkpt>
<trkpt lat="49.20640563592315" lon="9.517272943630816">
<ele>245.4</ele>
<time>2024-05-07T15:05:07Z</time>
</trkpt>
<trkpt lat="49.20640563592315" lon="9.517274787649512">
<ele>245.4</ele>
<time>2024-05-07T15:05:11Z</time>
</trkpt>
<trkpt lat="49.20640563592315" lon="9.517272943630816">
<ele>245.4</ele>
<time>2024-05-07T15:05:15Z</time>
</trkpt>
<trkpt lat="49.20640563592315" lon="9.517274787649512">
<ele>245.4</ele>
<time>2024-05-07T15:05:16Z</time>
</trkpt>
<trkpt lat="49.20640563592315" lon="9.517276715487242">
<ele>245.4</ele>
<time>2024-05-07T15:05:20Z</time>
</trkpt>
<trkpt lat="49.206409407779574" lon="9.517276715487242">
<ele>245.4</ele>
<time>2024-05-07T15:05:21Z</time>
</trkpt>
<trkpt lat="49.206409407779574" lon="9.517278643324971">
<ele>245.4</ele>
<time>2024-05-07T15:05:22Z</time>
</trkpt>
<trkpt lat="49.206409407779574" lon="9.51727956533432">
<ele>245.4</ele>
<time>2024-05-07T15:05:25Z</time>
</trkpt>
<trkpt lat="49.206409407779574" lon="9.517278643324971">
<ele>245.4</ele>
<time>2024-05-07T15:05:37Z</time>
</trkpt>
<trkpt lat="49.206409407779574" lon="9.51727956533432">
<ele>245.4</ele>
<time>2024-05-07T15:05:38Z</time>
</trkpt>
<trkpt lat="49.206409407779574" lon="9.517278643324971">
<ele>245.4</ele>
<time>2024-05-07T15:05:39Z</time>
</trkpt>
<trkpt lat="49.206409407779574" lon="9.51727956533432">
<ele>245.4</ele>
<time>2024-05-07T15:05:46Z</time>
</trkpt>
<trkpt lat="49.20641326345503" lon="9.51727956533432">
<ele>245.4</ele>
<time>2024-05-07T15:05:47Z</time>
</trkpt>
<trkpt lat="49.20641326345503" lon="9.51728149317205">
<ele>245.4</ele>
<time>2024-05-07T15:05:48Z</time>
</trkpt>
<trkpt lat="49.20641326345503" lon="9.51727956533432">
<ele>245.4</ele>
<time>2024-05-07T15:05:50Z</time>
</trkpt>
<trkpt lat="49.20641326345503" lon="9.517278643324971">
<ele>245.4</ele>
<time>2024-05-07T15:05:53Z</time>
</trkpt>
<trkpt lat="49.20641326345503" lon="9.517276715487242">
<ele>245.4</ele>
<time>2024-05-07T15:05:55Z</time>
</trkpt>
<trkpt lat="49.206409407779574" lon="9.517272943630816">
<ele>245.4</ele>
<time>2024-05-07T15:05:57Z</time>
</trkpt>
<trkpt lat="49.206409407779574" lon="9.517271937802434">
<ele>245.4</ele>
<time>2024-05-07T15:05:58Z</time>
</trkpt>
<trkpt lat="49.206409407779574" lon="9.517270009964705">
<ele>245.4</ele>
<time>2024-05-07T15:05:59Z</time>
</trkpt>
<trkpt lat="49.20641326345503" lon="9.517271937802434">
<ele>245.4</ele>
<time>2024-05-07T15:06:03Z</time>
</trkpt>
<trkpt lat="49.206409407779574" lon="9.517271937802434">
<ele>245.4</ele>
<time>2024-05-07T15:06:08Z</time>
</trkpt>
<trkpt lat="49.206409407779574" lon="9.517270009964705">
<ele>245.4</ele>
<time>2024-05-07T15:06:15Z</time>
</trkpt>
<trkpt lat="49.206409407779574" lon="9.517268165946009">
<ele>245.4</ele>
<time>2024-05-07T15:06:23Z</time>
</trkpt>
<trkpt lat="49.206409407779574" lon="9.517266238108276">
<ele>245.4</ele>
<time>2024-05-07T15:06:25Z</time>
</trkpt>
<trkpt lat="49.206409407779574" lon="9.517265316098928">
<ele>245.4</ele>
<time>2024-05-07T15:06:26Z</time>
</trkpt>
<trkpt lat="49.206409407779574" lon="9.5172633882612">
<ele>245.4</ele>
<time>2024-05-07T15:06:27Z</time>
</trkpt>
<trkpt lat="49.206409407779574" lon="9.517265316098928">
<ele>245.4</ele>
<time>2024-05-07T15:06:29Z</time>
</trkpt>
<trkpt lat="49.20641326345503" lon="9.517268165946009">
<ele>245.4</ele>
<time>2024-05-07T15:06:31Z</time>
</trkpt>
<trkpt lat="49.20641326345503" lon="9.517270009964705">
<ele>245.4</ele>
<time>2024-05-07T15:06:32Z</time>
</trkpt>
<trkpt lat="49.20641326345503" lon="9.517271937802434">
<ele>245.4</ele>
<time>2024-05-07T15:06:34Z</time>
</trkpt>
<trkpt lat="49.20641326345503" lon="9.517270009964705">
<ele>245.4</ele>
<time>2024-05-07T15:06:39Z</time>
</trkpt>
<trkpt lat="49.20641326345503" lon="9.517271937802434">
<ele>245.4</ele>
<time>2024-05-07T15:06:41Z</time>
</trkpt>
<trkpt lat="49.20641326345503" lon="9.517270009964705">
<ele>245.4</ele>
<time>2024-05-07T15:06:42Z</time>
</trkpt>
<trkpt lat="49.20641703531146" lon="9.517270009964705">
<ele>245.4</ele>
<time>2024-05-07T15:06:44Z</time>
</trkpt>
<trkpt lat="49.20641703531146" lon="9.517271937802434">
<ele>245.4</ele>
<time>2024-05-07T15:06:45Z</time>
</trkpt>
<trkpt lat="49.20642089098692" lon="9.517272943630816">
<ele>245.4</ele>
<time>2024-05-07T15:06:49Z</time>
</trkpt>
<trkpt lat="49.20642089098692" lon="9.517274787649512">
<ele>245.4</ele>
<time>2024-05-07T15:06:54Z</time>
</trkpt>
<trkpt lat="49.20642089098692" lon="9.517272943630816">
<ele>245.4</ele>
<time>2024-05-07T15:06:55Z</time>
</trkpt>
<trkpt lat="49.20641703531146" lon="9.517271937802434">
<ele>245.4</ele>
<time>2024-05-07T15:06:56Z</time>
</trkpt>
<trkpt lat="49.20641703531146" lon="9.517270009964705">
<ele>245.4</ele>
<time>2024-05-07T15:06:58Z</time>
</trkpt>
<trkpt lat="49.20641703531146" lon="9.517268165946009">
<ele>245.4</ele>
<time>2024-05-07T15:07:00Z</time>
</trkpt>
<trkpt lat="49.20641326345503" lon="9.517266238108276">
<ele>245.4</ele>
<time>2024-05-07T15:07:01Z</time>
</trkpt>
<trkpt lat="49.20641326345503" lon="9.517265316098928">
<ele>245.4</ele>
<time>2024-05-07T15:07:02Z</time>
</trkpt>
<trkpt lat="49.20641326345503" lon="9.5172633882612">
<ele>245.4</ele>
<time>2024-05-07T15:07:04Z</time>
</trkpt>
<trkpt lat="49.20641326345503" lon="9.51726146042347">
<ele>245.4</ele>
<time>2024-05-07T15:07:06Z</time>
</trkpt>
<trkpt lat="49.20641326345503" lon="9.51725953258574">
<ele>245.4</ele>
<time>2024-05-07T15:07:09Z</time>
</trkpt>
<trkpt lat="49.20641326345503" lon="9.517258610576391">
<ele>245.4</ele>
<time>2024-05-07T15:07:12Z</time>
</trkpt>
<trkpt lat="49.20641326345503" lon="9.517256682738662">
<ele>245.4</ele>
<time>2024-05-07T15:07:14Z</time>
</trkpt>
<trkpt lat="49.20641326345503" lon="9.517258610576391">
<ele>245.4</ele>
<time>2024-05-07T15:07:17Z</time>
</trkpt>
<trkpt lat="49.20641703531146" lon="9.517258610576391">
<ele>245.4</ele>
<time>2024-05-07T15:07:19Z</time>
</trkpt>
<trkpt lat="49.20641703531146" lon="9.51725953258574">
<ele>245.4</ele>
<time>2024-05-07T15:07:20Z</time>
</trkpt>
<trkpt lat="49.20642089098692" lon="9.51725953258574">
<ele>245.4</ele>
<time>2024-05-07T15:07:27Z</time>
</trkpt>
<trkpt lat="49.20641703531146" lon="9.517258610576391">
<ele>245.4</ele>
<time>2024-05-07T15:07:31Z</time>
</trkpt>
<trkpt lat="49.20642089098692" lon="9.517258610576391">
<ele>245.4</ele>
<time>2024-05-07T15:07:32Z</time>
</trkpt>
<trkpt lat="49.20641703531146" lon="9.517258610576391">
<ele>245.4</ele>
<time>2024-05-07T15:07:33Z</time>
</trkpt>
<trkpt lat="49.20641703531146" lon="9.517256682738662">
<ele>245.4</ele>
<time>2024-05-07T15:07:35Z</time>
</trkpt>
<trkpt lat="49.20641703531146" lon="9.517254754900932">
<ele>245.4</ele>
<time>2024-05-07T15:07:39Z</time>
</trkpt>
<trkpt lat="49.20641326345503" lon="9.517252910882236">
<ele>245.4</ele>
<time>2024-05-07T15:07:40Z</time>
</trkpt>
<trkpt lat="49.20641703531146" lon="9.517254754900932">
<ele>245.4</ele>
<time>2024-05-07T15:07:41Z</time>
</trkpt>
<trkpt lat="49.20641703531146" lon="9.517256682738662">
<ele>245.4</ele>
<time>2024-05-07T15:07:43Z</time>
</trkpt>
<trkpt lat="49.20641326345503" lon="9.517252910882236">
<ele>245.4</ele>
<time>2024-05-07T15:07:47Z</time>
</trkpt>
<trkpt lat="49.20641326345503" lon="9.517251905053854">
<ele>245.4</ele>
<time>2024-05-07T15:07:49Z</time>
</trkpt>
<trkpt lat="49.20641326345503" lon="9.517250061035156">
<ele>245.4</ele>
<time>2024-05-07T15:07:50Z</time>
</trkpt>
<trkpt lat="49.206409407779574" lon="9.517250061035156">
<ele>245.4</ele>
<time>2024-05-07T15:07:53Z</time>
</trkpt>
<trkpt lat="49.20641326345503" lon="9.517250061035156">
<ele>245.4</ele>
<time>2024-05-07T15:07:54Z</time>
</trkpt>
<trkpt lat="49.20641326345503" lon="9.517251905053854">
<ele>245.4</ele>
<time>2024-05-07T15:07:55Z</time>
</trkpt>
<trkpt lat="49.20641326345503" lon="9.517252910882236">
<ele>245.4</ele>
<time>2024-05-07T15:07:56Z</time>
</trkpt>
<trkpt lat="49.20641326345503" lon="9.517254754900932">
<ele>245.4</ele>
<time>2024-05-07T15:08:00Z</time>
</trkpt>
<trkpt lat="49.20641326345503" lon="9.517256682738662">
<ele>245.4</ele>
<time>2024-05-07T15:08:01Z</time>
</trkpt>
<trkpt lat="49.20641703531146" lon="9.517258610576391">
<ele>245.4</ele>
<time>2024-05-07T15:08:02Z</time>
</trkpt>
<trkpt lat="49.20641703531146" lon="9.51725953258574">
<ele>245.4</ele>
<time>2024-05-07T15:08:04Z</time>
</trkpt>
<trkpt lat="49.20641703531146" lon="9.51726146042347">
<ele>245.4</ele>
<time>2024-05-07T15:08:05Z</time>
</trkpt>
<trkpt lat="49.20642089098692" lon="9.51726146042347">
<ele>245.4</ele>
<time>2024-05-07T15:08:06Z</time>
</trkpt>
<trkpt lat="49.20641703531146" lon="9.51726146042347">
<ele>245.4</ele>
<time>2024-05-07T15:08:08Z</time>
</trkpt>
<trkpt lat="49.20641703531146" lon="9.51725953258574">
<ele>245.4</ele>
<time>2024-05-07T15:08:09Z</time>
</trkpt>
<trkpt lat="49.20642089098692" lon="9.5172633882612">
<ele>245.4</ele>
<time>2024-05-07T15:08:11Z</time>
</trkpt>
<trkpt lat="49.20641703531146" lon="9.5172633882612">
<ele>245.4</ele>
<time>2024-05-07T15:08:14Z</time>
</trkpt>
<trkpt lat="49.20642089098692" lon="9.5172633882612">
<ele>245.4</ele>
<time>2024-05-07T15:08:15Z</time>
</trkpt>
<trkpt lat="49.20642089098692" lon="9.517266238108276">
<ele>245.4</ele>
<time>2024-05-07T15:08:17Z</time>
</trkpt>
<trkpt lat="49.20642466284335" lon="9.517266238108276">
<ele>245.4</ele>
<time>2024-05-07T15:08:18Z</time>
</trkpt>
<trkpt lat="49.20642466284335" lon="9.517268165946009">
<ele>245.4</ele>
<time>2024-05-07T15:08:19Z</time>
</trkpt>
<trkpt lat="49.20642466284335" lon="9.517266238108276">
<ele>245.4</ele>
<time>2024-05-07T15:08:20Z</time>
</trkpt>
<trkpt lat="49.20642466284335" lon="9.517268165946009">
<ele>245.4</ele>
<time>2024-05-07T15:08:21Z</time>
</trkpt>
<trkpt lat="49.206428518518806" lon="9.517271937802434">
<ele>245.4</ele>
<time>2024-05-07T15:08:24Z</time>
</trkpt>
<trkpt lat="49.206428518518806" lon="9.517274787649512">
<ele>245.4</ele>
<time>2024-05-07T15:08:25Z</time>
</trkpt>
<trkpt lat="49.20643229037523" lon="9.517278643324971">
<ele>245.4</ele>
<time>2024-05-07T15:08:26Z</time>
</trkpt>
<trkpt lat="49.20643614605069" lon="9.51728342100978">
<ele>245.4</ele>
<time>2024-05-07T15:08:27Z</time>
</trkpt>
<trkpt lat="49.20643991790712" lon="9.517286270856856">
<ele>245.4</ele>
<time>2024-05-07T15:08:28Z</time>
</trkpt>
<trkpt lat="49.20643991790712" lon="9.517288198694589">
<ele>245.4</ele>
<time>2024-05-07T15:08:29Z</time>
</trkpt>
<trkpt lat="49.20644377358258" lon="9.517292976379396">
<ele>245.4</ele>
<time>2024-05-07T15:08:30Z</time>
</trkpt>
<trkpt lat="49.206447545439005" lon="9.517292976379396">
<ele>245.4</ele>
<time>2024-05-07T15:08:31Z</time>
</trkpt>
<trkpt lat="49.20644377358258" lon="9.517292976379396">
<ele>245.4</ele>
<time>2024-05-07T15:08:33Z</time>
</trkpt>
<trkpt lat="49.20644377358258" lon="9.517294820398092">
<ele>245.4</ele>
<time>2024-05-07T15:08:34Z</time>
</trkpt>
<trkpt lat="49.20644377358258" lon="9.517292976379396">
<ele>245.4</ele>
<time>2024-05-07T15:08:35Z</time>
</trkpt>
<trkpt lat="49.20643991790712" lon="9.517291970551014">
<ele>245.4</ele>
<time>2024-05-07T15:08:36Z</time>
</trkpt>
<trkpt lat="49.20643991790712" lon="9.517290042713284">
<ele>245.4</ele>
<time>2024-05-07T15:08:37Z</time>
</trkpt>
<trkpt lat="49.20643614605069" lon="9.517288198694589">
<ele>245.4</ele>
<time>2024-05-07T15:08:38Z</time>
</trkpt>
<trkpt lat="49.20643614605069" lon="9.517285265028477">
<ele>245.4</ele>
<time>2024-05-07T15:08:39Z</time>
</trkpt>
<trkpt lat="49.20643229037523" lon="9.51728342100978">
<ele>245.4</ele>
<time>2024-05-07T15:08:40Z</time>
</trkpt>
<trkpt lat="49.20643229037523" lon="9.51727956533432">
<ele>245.4</ele>
<time>2024-05-07T15:08:41Z</time>
</trkpt>
<trkpt lat="49.206428518518806" lon="9.51727956533432">
<ele>245.4</ele>
<time>2024-05-07T15:08:42Z</time>
</trkpt>
<trkpt lat="49.206428518518806" lon="9.517276715487242">
<ele>245.4</ele>
<time>2024-05-07T15:08:43Z</time>
</trkpt>
<trkpt lat="49.206428518518806" lon="9.517271937802434">
<ele>245.4</ele>
<time>2024-05-07T15:08:44Z</time>
</trkpt>
<trkpt lat="49.206428518518806" lon="9.517266238108276">
<ele>245.4</ele>
<time>2024-05-07T15:08:45Z</time>
</trkpt>
<trkpt lat="49.20642466284335" lon="9.517256682738662">
<ele>245.4</ele>
<time>2024-05-07T15:08:46Z</time>
</trkpt>
<trkpt lat="49.20641326345503" lon="9.51723949983716">
<ele>245.4</ele>
<time>2024-05-07T15:08:47Z</time>
</trkpt>
<trkpt lat="49.206409407779574" lon="9.517231872305274">
<ele>245.4</ele>
<time>2024-05-07T15:08:48Z</time>
</trkpt>
<trkpt lat="49.20640563592315" lon="9.517227094620466">
<ele>245.4</ele>
<time>2024-05-07T15:08:49Z</time>
</trkpt>
<trkpt lat="49.20639800839126" lon="9.517214773222804">
<ele>245.4</ele>
<time>2024-05-07T15:08:50Z</time>
</trkpt>
<trkpt lat="49.2063941527158" lon="9.517206139862536">
<ele>245.4</ele>
<time>2024-05-07T15:08:51Z</time>
</trkpt>
<trkpt lat="49.20638652518392" lon="9.517196584492922">
<ele>245.4</ele>
<time>2024-05-07T15:08:52Z</time>
</trkpt>
<trkpt lat="49.20638652518392" lon="9.517188034951689">
<ele>245.4</ele>
<time>2024-05-07T15:08:53Z</time>
</trkpt>
<trkpt lat="49.20637504197657" lon="9.517173701897264">
<ele>245.4</ele>
<time>2024-05-07T15:08:54Z</time>
</trkpt>
<trkpt lat="49.20636364258826" lon="9.517145119607449">
<ele>245.4</ele>
<time>2024-05-07T15:08:55Z</time>
</trkpt>
<trkpt lat="49.2063407599926" lon="9.517093654721975">
<ele>245.4</ele>
<time>2024-05-07T15:08:56Z</time>
</trkpt>
<trkpt lat="49.20633313246071" lon="9.517066916450858">
<ele>245.4</ele>
<time>2024-05-07T15:08:57Z</time>
</trkpt>
<trkpt lat="49.20632550492883" lon="9.517047805711629">
<ele>245.4</ele>
<time>2024-05-07T15:08:58Z</time>
</trkpt>
<trkpt lat="49.206329276785254" lon="9.517036406323314">
<ele>245.4</ele>
<time>2024-05-07T15:08:59Z</time>
</trkpt>
<trkpt lat="49.20632550492883" lon="9.5170078240335">
<ele>245.4</ele>
<time>2024-05-07T15:09:00Z</time>
</trkpt>
<trkpt lat="49.20633313246071" lon="9.516973458230495">
<ele>245.4</ele>
<time>2024-05-07T15:09:01Z</time>
</trkpt>
<trkpt lat="49.2063407599926" lon="9.516938170418143">
<ele>245.4</ele>
<time>2024-05-07T15:09:02Z</time>
</trkpt>
<trkpt lat="49.20635601505637" lon="9.516901960596442">
<ele>245.4</ele>
<time>2024-05-07T15:09:03Z</time>
</trkpt>
<trkpt lat="49.20637504197657" lon="9.516871450468898">
<ele>245.4</ele>
<time>2024-05-07T15:09:04Z</time>
</trkpt>
<trkpt lat="49.206390380859375" lon="9.516839934512973">
<ele>245.4</ele>
<time>2024-05-07T15:09:05Z</time>
</trkpt>
<trkpt lat="49.206409407779574" lon="9.516811352223158">
<ele>245.4</ele>
<time>2024-05-07T15:09:06Z</time>
</trkpt>
<trkpt lat="49.206428518518806" lon="9.516783691942692">
<ele>245.4</ele>
<time>2024-05-07T15:09:07Z</time>
</trkpt>
<trkpt lat="49.20643991790712" lon="9.516751253977418">
<ele>245.4</ele>
<time>2024-05-07T15:09:08Z</time>
</trkpt>
<trkpt lat="49.20645902864635" lon="9.516721665859222">
<ele>245.4</ele>
<time>2024-05-07T15:09:09Z</time>
</trkpt>
<trkpt lat="49.20647042803466" lon="9.516691155731678">
<ele>245.4</ele>
<time>2024-05-07T15:09:10Z</time>
</trkpt>
<trkpt lat="49.20648191124201" lon="9.516663495451212">
<ele>245.4</ele>
<time>2024-05-07T15:09:11Z</time>
</trkpt>
<trkpt lat="49.20649716630578" lon="9.516632985323668">
<ele>245.4</ele>
<time>2024-05-07T15:09:12Z</time>
</trkpt>
<trkpt lat="49.20651242136955" lon="9.5166053250432">
<ele>245.4</ele>
<time>2024-05-07T15:09:13Z</time>
</trkpt>
<trkpt lat="49.206523820757866" lon="9.516576742753386">
<ele>245.4</ele>
<time>2024-05-07T15:09:14Z</time>
</trkpt>
<trkpt lat="49.20653907582164" lon="9.516545226797462">
<ele>245.4</ele>
<time>2024-05-07T15:09:15Z</time>
</trkpt>
<trkpt lat="49.20655433088541" lon="9.516518572345376">
<ele>245.4</ele>
<time>2024-05-07T15:09:16Z</time>
</trkpt>
<trkpt lat="49.206569669768214" lon="9.516494683921335">
<ele>245.4</ele>
<time>2024-05-07T15:09:17Z</time>
</trkpt>
<trkpt lat="49.206584924831986" lon="9.51646987348795">
<ele>245.4</ele>
<time>2024-05-07T15:09:18Z</time>
</trkpt>
<trkpt lat="49.206603951752186" lon="9.516447996720672">
<ele>245.4</ele>
<time>2024-05-07T15:09:19Z</time>
</trkpt>
<trkpt lat="49.20661920681596" lon="9.51643173582852">
<ele>245.4</ele>
<time>2024-05-07T15:09:20Z</time>
</trkpt>
<trkpt lat="49.20663446187973" lon="9.516421258449554">
<ele>245.4</ele>
<time>2024-05-07T15:09:21Z</time>
</trkpt>
<trkpt lat="49.206645945087075" lon="9.51641170307994">
<ele>245.4</ele>
<time>2024-05-07T15:09:22Z</time>
</trkpt>
<trkpt lat="49.20665357261896" lon="9.516407009214165">
<ele>245.4</ele>
<time>2024-05-07T15:09:23Z</time>
</trkpt>
<trkpt lat="49.20666120015085" lon="9.516401225700974">
<ele>245.4</ele>
<time>2024-05-07T15:09:24Z</time>
</trkpt>
<trkpt lat="49.206664972007275" lon="9.516396448016168">
<ele>245.4</ele>
<time>2024-05-07T15:09:25Z</time>
</trkpt>
<trkpt lat="49.206664972007275" lon="9.516394603997467">
<ele>245.4</ele>
<time>2024-05-07T15:09:26Z</time>
</trkpt>
<trkpt lat="49.206664972007275" lon="9.516393598169088">
<ele>245.4</ele>
<time>2024-05-07T15:09:27Z</time>
</trkpt>
<trkpt lat="49.20666882768273" lon="9.516393598169088">
<ele>245.4</ele>
<time>2024-05-07T15:09:28Z</time>
</trkpt>
<trkpt lat="49.20666882768273" lon="9.51639175415039">
<ele>245.4</ele>
<time>2024-05-07T15:09:29Z</time>
</trkpt>
<trkpt lat="49.20667259953916" lon="9.51639175415039">
<ele>245.4</ele>
<time>2024-05-07T15:09:32Z</time>
</trkpt>
<trkpt lat="49.20667259953916" lon="9.51638982631266">
<ele>245.4</ele>
<time>2024-05-07T15:09:34Z</time>
</trkpt>
<trkpt lat="49.20667259953916" lon="9.51639175415039">
<ele>245.4</ele>
<time>2024-05-07T15:09:35Z</time>
</trkpt>
<trkpt lat="49.20667259953916" lon="9.51638982631266">
<ele>245.4</ele>
<time>2024-05-07T15:09:36Z</time>
</trkpt>
<trkpt lat="49.20667259953916" lon="9.516387898474932">
<ele>245.4</ele>
<time>2024-05-07T15:09:39Z</time>
</trkpt>
<trkpt lat="49.20667259953916" lon="9.516386976465585">
<ele>245.4</ele>
<time>2024-05-07T15:09:42Z</time>
</trkpt>
<trkpt lat="49.20667259953916" lon="9.516385048627852">
<ele>245.4</ele>
<time>2024-05-07T15:09:45Z</time>
</trkpt>
<trkpt lat="49.20667645521462" lon="9.516385048627852">
<ele>245.4</ele>
<time>2024-05-07T15:09:48Z</time>
</trkpt>
<trkpt lat="49.20667645521462" lon="9.516381192952394">
<ele>245.4</ele>
<time>2024-05-07T15:09:49Z</time>
</trkpt>
<trkpt lat="49.206684082746506" lon="9.516365015879272">
<ele>245.4</ele>
<time>2024-05-07T15:09:50Z</time>
</trkpt>
<trkpt lat="49.206684082746506" lon="9.516334505751727">
<ele>245.4</ele>
<time>2024-05-07T15:09:51Z</time>
</trkpt>
<trkpt lat="49.20667645521462" lon="9.51629159040749">
<ele>245.4</ele>
<time>2024-05-07T15:09:52Z</time>
</trkpt>
<trkpt lat="49.206664972007275" lon="9.516242975369096">
<ele>245.4</ele>
<time>2024-05-07T15:09:53Z</time>
</trkpt>
<trkpt lat="49.206642089411616" lon="9.51619528234005">
<ele>245.4</ele>
<time>2024-05-07T15:09:54Z</time>
</trkpt>
<trkpt lat="49.20661543495953" lon="9.516149517148731">
<ele>245.4</ele>
<time>2024-05-07T15:09:55Z</time>
</trkpt>
<trkpt lat="49.20659255236387" lon="9.516103668138385">
<ele>245.4</ele>
<time>2024-05-07T15:09:56Z</time>
</trkpt>
<trkpt lat="49.206565814092755" lon="9.51605505309999">
<ele>245.4</ele>
<time>2024-05-07T15:09:57Z</time>
</trkpt>
<trkpt lat="49.2065429314971" lon="9.516008365899324">
<ele>245.4</ele>
<time>2024-05-07T15:09:58Z</time>
</trkpt>
<trkpt lat="49.20651619322598" lon="9.515959667041898">
<ele>245.4</ele>
<time>2024-05-07T15:09:59Z</time>
</trkpt>
<trkpt lat="49.206489538773894" lon="9.515912979841232">
<ele>245.4</ele>
<time>2024-05-07T15:10:00Z</time>
</trkpt>
<trkpt lat="49.20646665617824" lon="9.515866208821537">
<ele>245.4</ele>
<time>2024-05-07T15:10:01Z</time>
</trkpt>
<trkpt lat="49.20643991790712" lon="9.515818515792487">
<ele>245.4</ele>
<time>2024-05-07T15:10:02Z</time>
</trkpt>
<trkpt lat="49.20641326345503" lon="9.515767972916365">
<ele>245.4</ele>
<time>2024-05-07T15:10:03Z</time>
</trkpt>
<trkpt lat="49.20638652518392" lon="9.51572036370635">
<ele>245.4</ele>
<time>2024-05-07T15:10:04Z</time>
</trkpt>
<trkpt lat="49.2063597869128" lon="9.515674514696002">
<ele>245.4</ele>
<time>2024-05-07T15:10:05Z</time>
</trkpt>
<trkpt lat="49.206329276785254" lon="9.515626905485988">
<ele>245.4</ele>
<time>2024-05-07T15:10:06Z</time>
</trkpt>
<trkpt lat="49.20630262233317" lon="9.515573428943751">
<ele>245.4</ele>
<time>2024-05-07T15:10:07Z</time>
</trkpt>
<trkpt lat="49.20627588406205" lon="9.51552003622055">
<ele>245.4</ele>
<time>2024-05-07T15:10:08Z</time>
</trkpt>
<trkpt lat="49.20625300146639" lon="9.515470499172809">
<ele>245.4</ele>
<time>2024-05-07T15:10:09Z</time>
</trkpt>
<trkpt lat="49.20622634701431" lon="9.515415178611876">
<ele>245.4</ele>
<time>2024-05-07T15:10:10Z</time>
</trkpt>
<trkpt lat="49.20619960874319" lon="9.515359858050942">
<ele>245.4</ele>
<time>2024-05-07T15:10:11Z</time>
</trkpt>
<trkpt lat="49.206172870472074" lon="9.51530646532774">
<ele>245.4</ele>
<time>2024-05-07T15:10:12Z</time>
</trkpt>
<trkpt lat="49.20614621601999" lon="9.515254916623237">
<ele>245.6</ele>
<time>2024-05-07T15:10:13Z</time>
</trkpt>
<trkpt lat="49.20611947774887" lon="9.51520345173776">
<ele>245.6</ele>
<time>2024-05-07T15:10:14Z</time>
</trkpt>
<trkpt lat="49.206092823296785" lon="9.515151903033257">
<ele>245.8</ele>
<time>2024-05-07T15:10:15Z</time>
</trkpt>
<trkpt lat="49.20606231316924" lon="9.515101360157132">
<ele>245.8</ele>
<time>2024-05-07T15:10:16Z</time>
</trkpt>
<trkpt lat="49.206031719222665" lon="9.515051823109388">
<ele>245.8</ele>
<time>2024-05-07T15:10:17Z</time>
</trkpt>
<trkpt lat="49.20600506477058" lon="9.514998430386186">
<ele>245.8</ele>
<time>2024-05-07T15:10:18Z</time>
</trkpt>
<trkpt lat="49.20597832649946" lon="9.514943109825252">
<ele>245.8</ele>
<time>2024-05-07T15:10:19Z</time>
</trkpt>
<trkpt lat="49.20595167204738" lon="9.514891561120749">
<ele>245.6</ele>
<time>2024-05-07T15:10:20Z</time>
</trkpt>
<trkpt lat="49.20592116191983" lon="9.514840096235275">
<ele>245.6</ele>
<time>2024-05-07T15:10:21Z</time>
</trkpt>
<trkpt lat="49.205894423648715" lon="9.51478955335915">
<ele>245.4</ele>
<time>2024-05-07T15:10:22Z</time>
</trkpt>
<trkpt lat="49.2058676853776" lon="9.514739932492375">
<ele>245.2</ele>
<time>2024-05-07T15:10:23Z</time>
</trkpt>
<trkpt lat="49.20583717525005" lon="9.514690395444632">
<ele>245</ele>
<time>2024-05-07T15:10:24Z</time>
</trkpt>
<trkpt lat="49.20581052079797" lon="9.514636918902395">
<ele>244.8</ele>
<time>2024-05-07T15:10:25Z</time>
</trkpt>
<trkpt lat="49.20578001067042" lon="9.514579754322767">
<ele>244.6</ele>
<time>2024-05-07T15:10:26Z</time>
</trkpt>
<trkpt lat="49.205753272399306" lon="9.514523427933456">
<ele>244.6</ele>
<time>2024-05-07T15:10:27Z</time>
</trkpt>
<trkpt lat="49.20572661794722" lon="9.514468191191554">
<ele>244</ele>
<time>2024-05-07T15:10:28Z</time>
</trkpt>
<trkpt lat="49.205699879676104" lon="9.514409936964512">
<ele>243.8</ele>
<time>2024-05-07T15:10:29Z</time>
</trkpt>
<trkpt lat="49.20566936954856" lon="9.514349922537804">
<ele>243.4</ele>
<time>2024-05-07T15:10:30Z</time>
</trkpt>
<trkpt lat="49.205638859421015" lon="9.514289824292064">
<ele>243.2</ele>
<time>2024-05-07T15:10:31Z</time>
</trkpt>
<trkpt lat="49.20560834929347" lon="9.514229726046324">
<ele>243</ele>
<time>2024-05-07T15:10:32Z</time>
</trkpt>
<trkpt lat="49.205577839165926" lon="9.514168705791237">
<ele>242.8</ele>
<time>2024-05-07T15:10:33Z</time>
</trkpt>
<trkpt lat="49.20554347336292" lon="9.514108607545497">
<ele>242.6</ele>
<time>2024-05-07T15:10:34Z</time>
</trkpt>
<trkpt lat="49.20551296323538" lon="9.514051359146832">
<ele>242.4</ele>
<time>2024-05-07T15:10:35Z</time>
</trkpt>
<trkpt lat="49.20548622496426" lon="9.513997044414282">
<ele>242.2</ele>
<time>2024-05-07T15:10:36Z</time>
</trkpt>
<trkpt lat="49.205459570512176" lon="9.51393979601562">
<ele>242</ele>
<time>2024-05-07T15:10:37Z</time>
</trkpt>
<trkpt lat="49.20542906038463" lon="9.51387969776988">
<ele>241.8</ele>
<time>2024-05-07T15:10:38Z</time>
</trkpt>
<trkpt lat="49.20539855025709" lon="9.513814905658364">
<ele>241.6</ele>
<time>2024-05-07T15:10:39Z</time>
</trkpt>
<trkpt lat="49.20537181198597" lon="9.513751957565546">
<ele>241.2</ele>
<time>2024-05-07T15:10:40Z</time>
</trkpt>
<trkpt lat="49.20534507371485" lon="9.513694709166884">
<ele>241</ele>
<time>2024-05-07T15:10:41Z</time>
</trkpt>
<trkpt lat="49.20531456358731" lon="9.513636538758874">
<ele>240.6</ele>
<time>2024-05-07T15:10:42Z</time>
</trkpt>
<trkpt lat="49.20528790913522" lon="9.513578368350863">
<ele>240.4</ele>
<time>2024-05-07T15:10:43Z</time>
</trkpt>
<trkpt lat="49.20525354333222" lon="9.513516426086426">
<ele>240.2</ele>
<time>2024-05-07T15:10:44Z</time>
</trkpt>
<trkpt lat="49.205223033204675" lon="9.513458171859384">
<ele>240</ele>
<time>2024-05-07T15:10:45Z</time>
</trkpt>
<trkpt lat="49.2051887512207" lon="9.513398157432675">
<ele>239.8</ele>
<time>2024-05-07T15:10:46Z</time>
</trkpt>
<trkpt lat="49.20515815727413" lon="9.513338059186935">
<ele>239.6</ele>
<time>2024-05-07T15:10:47Z</time>
</trkpt>
<trkpt lat="49.20512764714658" lon="9.513279888778923">
<ele>239.4</ele>
<time>2024-05-07T15:10:48Z</time>
</trkpt>
<trkpt lat="49.2051009926945" lon="9.513221718370914">
<ele>239.2</ele>
<time>2024-05-07T15:10:49Z</time>
</trkpt>
<trkpt lat="49.20507811009884" lon="9.51317209750414">
<ele>239</ele>
<time>2024-05-07T15:10:50Z</time>
</trkpt>
<trkpt lat="49.20505137182772" lon="9.513114849105476">
<ele>238.8</ele>
<time>2024-05-07T15:10:51Z</time>
</trkpt>
<trkpt lat="49.20502086170018" lon="9.513063384220004">
<ele>238.6</ele>
<time>2024-05-07T15:10:52Z</time>
</trkpt>
<trkpt lat="49.20499035157263" lon="9.513006135821342">
<ele>238.4</ele>
<time>2024-05-07T15:10:53Z</time>
</trkpt>
<trkpt lat="49.20495984144509" lon="9.512945115566254">
<ele>238.2</ele>
<time>2024-05-07T15:10:54Z</time>
</trkpt>
<trkpt lat="49.20493310317397" lon="9.51289365068078">
<ele>238</ele>
<time>2024-05-07T15:10:55Z</time>
</trkpt>
<trkpt lat="49.20491022057831" lon="9.512845035642384">
<ele>237.8</ele>
<time>2024-05-07T15:10:56Z</time>
</trkpt>
<trkpt lat="49.20489496551454" lon="9.512803042307496">
<ele>237.4</ele>
<time>2024-05-07T15:10:57Z</time>
</trkpt>
<trkpt lat="49.20487208291888" lon="9.512764904648066">
<ele>237.2</ele>
<time>2024-05-07T15:10:58Z</time>
</trkpt>
<trkpt lat="49.20485682785511" lon="9.512726766988637">
<ele>236.8</ele>
<time>2024-05-07T15:10:59Z</time>
</trkpt>
<trkpt lat="49.20484157279134" lon="9.512679995968938">
<ele>236.6</ele>
<time>2024-05-07T15:11:00Z</time>
</trkpt>
<trkpt lat="49.20483394525945" lon="9.512633308768272">
<ele>236.2</ele>
<time>2024-05-07T15:11:01Z</time>
</trkpt>
<trkpt lat="49.20482246205211" lon="9.51257798820734">
<ele>235.8</ele>
<time>2024-05-07T15:11:02Z</time>
</trkpt>
<trkpt lat="49.20481869019568" lon="9.512524595484138">
<ele>235.4</ele>
<time>2024-05-07T15:11:03Z</time>
</trkpt>
<trkpt lat="49.20481869019568" lon="9.512472124770284">
<ele>235.2</ele>
<time>2024-05-07T15:11:04Z</time>
</trkpt>
<trkpt lat="49.20483008958399" lon="9.51241965405643">
<ele>235</ele>
<time>2024-05-07T15:11:05Z</time>
</trkpt>
<trkpt lat="49.2048454284668" lon="9.512370033189654">
<ele>234.6</ele>
<time>2024-05-07T15:11:06Z</time>
</trkpt>
<trkpt lat="49.20485682785511" lon="9.512325273826718">
<ele>234.4</ele>
<time>2024-05-07T15:11:07Z</time>
</trkpt>
<trkpt lat="49.204868311062455" lon="9.512285208329558">
<ele>234.2</ele>
<time>2024-05-07T15:11:08Z</time>
</trkpt>
<trkpt lat="49.20487971045077" lon="9.512247070670128">
<ele>233.8</ele>
<time>2024-05-07T15:11:09Z</time>
</trkpt>
<trkpt lat="49.20489119365811" lon="9.512209855020046">
<ele>233.6</ele>
<time>2024-05-07T15:11:10Z</time>
</trkpt>
<trkpt lat="49.20489882119" lon="9.512169789522886">
<ele>233.4</ele>
<time>2024-05-07T15:11:11Z</time>
</trkpt>
<trkpt lat="49.204906448721886" lon="9.512128802016376">
<ele>233.2</ele>
<time>2024-05-07T15:11:12Z</time>
</trkpt>
<trkpt lat="49.204906448721886" lon="9.512076331302524">
<ele>233</ele>
<time>2024-05-07T15:11:13Z</time>
</trkpt>
<trkpt lat="49.20490259304643" lon="9.51202293857932">
<ele>232.6</ele>
<time>2024-05-07T15:11:14Z</time>
</trkpt>
<trkpt lat="49.20489496551454" lon="9.511961918324232">
<ele>232.4</ele>
<time>2024-05-07T15:11:15Z</time>
</trkpt>
<trkpt lat="49.20489119365811" lon="9.511899892240764">
<ele>232.2</ele>
<time>2024-05-07T15:11:16Z</time>
</trkpt>
<trkpt lat="49.20487971045077" lon="9.511831244453788">
<ele>232.2</ele>
<time>2024-05-07T15:11:17Z</time>
</trkpt>
<trkpt lat="49.20487208291888" lon="9.511763518676162">
<ele>232</ele>
<time>2024-05-07T15:11:18Z</time>
</trkpt>
<trkpt lat="49.20486445538699" lon="9.511692021042109">
<ele>231.6</ele>
<time>2024-05-07T15:11:19Z</time>
</trkpt>
<trkpt lat="49.20485682785511" lon="9.511625217273831">
<ele>231.4</ele>
<time>2024-05-07T15:11:20Z</time>
</trkpt>
<trkpt lat="49.20485305599868" lon="9.511565202847123">
<ele>231.2</ele>
<time>2024-05-07T15:11:21Z</time>
</trkpt>
<trkpt lat="49.20485305599868" lon="9.511513654142618">
<ele>231</ele>
<time>2024-05-07T15:11:22Z</time>
</trkpt>
<trkpt lat="49.20485682785511" lon="9.511467888951302">
<ele>230.6</ele>
<time>2024-05-07T15:11:23Z</time>
</trkpt>
<trkpt lat="49.20486445538699" lon="9.511426901444793">
<ele>230.4</ele>
<time>2024-05-07T15:11:24Z</time>
</trkpt>
<trkpt lat="49.20487971045077" lon="9.51139354147017">
<ele>230.2</ele>
<time>2024-05-07T15:11:25Z</time>
</trkpt>
<trkpt lat="49.20489882119" lon="9.511362947523594">
<ele>229.8</ele>
<time>2024-05-07T15:11:26Z</time>
</trkpt>
<trkpt lat="49.2049178481102" lon="9.51133537106216">
<ele>229.6</ele>
<time>2024-05-07T15:11:27Z</time>
</trkpt>
<trkpt lat="49.20493695884943" lon="9.51131533831358">
<ele>229.4</ele>
<time>2024-05-07T15:11:28Z</time>
</trkpt>
<trkpt lat="49.20496361330152" lon="9.511301927268503">
<ele>229.2</ele>
<time>2024-05-07T15:11:29Z</time>
</trkpt>
<trkpt lat="49.20499035157263" lon="9.511300083249807">
<ele>228.8</ele>
<time>2024-05-07T15:11:30Z</time>
</trkpt>
<trkpt lat="49.20502471737563" lon="9.511301927268503">
<ele>228.4</ele>
<time>2024-05-07T15:11:31Z</time>
</trkpt>
<trkpt lat="49.20505522750318" lon="9.511309554800391">
<ele>228</ele>
<time>2024-05-07T15:11:32Z</time>
</trkpt>
<trkpt lat="49.205085737630725" lon="9.511318188160658">
<ele>227.8</ele>
<time>2024-05-07T15:11:33Z</time>
</trkpt>
<trkpt lat="49.2051200196147" lon="9.511329587548971">
<ele>227.2</ele>
<time>2024-05-07T15:11:34Z</time>
</trkpt>
<trkpt lat="49.20515052974224" lon="9.511336293071508">
<ele>226.8</ele>
<time>2024-05-07T15:11:35Z</time>
</trkpt>
<trkpt lat="49.205181039869785" lon="9.511340064927936">
<ele>226.4</ele>
<time>2024-05-07T15:11:36Z</time>
</trkpt>
<trkpt lat="49.20521163381636" lon="9.511340064927936">
<ele>226</ele>
<time>2024-05-07T15:11:37Z</time>
</trkpt>
<trkpt lat="49.20523828826845" lon="9.511336293071508">
<ele>225.8</ele>
<time>2024-05-07T15:11:38Z</time>
</trkpt>
<trkpt lat="49.20526879839599" lon="9.51133344322443">
<ele>225.4</ele>
<time>2024-05-07T15:11:39Z</time>
</trkpt>
<trkpt lat="49.20529553666711" lon="9.511326737701893">
<ele>225</ele>
<time>2024-05-07T15:11:40Z</time>
</trkpt>
<trkpt lat="49.20531841926277" lon="9.511316260322928">
<ele>224.8</ele>
<time>2024-05-07T15:11:41Z</time>
</trkpt>
<trkpt lat="49.205341301858425" lon="9.511308632791042">
<ele>224.6</ele>
<time>2024-05-07T15:11:42Z</time>
</trkpt>
<trkpt lat="49.20536418445408" lon="9.511296227574348">
<ele>224.2</ele>
<time>2024-05-07T15:11:43Z</time>
</trkpt>
<trkpt lat="49.20539855025709" lon="9.511284828186035">
<ele>224</ele>
<time>2024-05-07T15:11:44Z</time>
</trkpt>
<trkpt lat="49.20542906038463" lon="9.511276194825768">
<ele>223.8</ele>
<time>2024-05-07T15:11:45Z</time>
</trkpt>
<trkpt lat="49.2054633423686" lon="9.511264795437455">
<ele>223.4</ele>
<time>2024-05-07T15:11:46Z</time>
</trkpt>
<trkpt lat="49.205497708171606" lon="9.511249540373685">
<ele>223.2</ele>
<time>2024-05-07T15:11:47Z</time>
</trkpt>
<trkpt lat="49.20553207397461" lon="9.511236129328609">
<ele>223</ele>
<time>2024-05-07T15:11:48Z</time>
</trkpt>
<trkpt lat="49.205562584102154" lon="9.511222802102566">
<ele>223</ele>
<time>2024-05-07T15:11:49Z</time>
</trkpt>
<trkpt lat="49.2055930942297" lon="9.511218024417758">
<ele>222.8</ele>
<time>2024-05-07T15:11:50Z</time>
</trkpt>
<trkpt lat="49.20562737621367" lon="9.51121324673295">
<ele>222.8</ele>
<time>2024-05-07T15:11:51Z</time>
</trkpt>
<trkpt lat="49.20566174201667" lon="9.511208469048142">
<ele>222.6</ele>
<time>2024-05-07T15:11:52Z</time>
</trkpt>
<trkpt lat="49.205696024000645" lon="9.511197991669178">
<ele>222.6</ele>
<time>2024-05-07T15:11:53Z</time>
</trkpt>
<trkpt lat="49.20573038980365" lon="9.511186592280865">
<ele>222.6</ele>
<time>2024-05-07T15:11:54Z</time>
</trkpt>
<trkpt lat="49.20576475560665" lon="9.51117318123579">
<ele>222.6</ele>
<time>2024-05-07T15:11:55Z</time>
</trkpt>
<trkpt lat="49.20579903759062" lon="9.511164631694555">
<ele>222.6</ele>
<time>2024-05-07T15:11:56Z</time>
</trkpt>
<trkpt lat="49.205833403393626" lon="9.51115700416267">
<ele>222.6</ele>
<time>2024-05-07T15:11:57Z</time>
</trkpt>
<trkpt lat="49.20586391352117" lon="9.511150298640132">
<ele>222.6</ele>
<time>2024-05-07T15:11:58Z</time>
</trkpt>
<trkpt lat="49.205898279324174" lon="9.511144598945975">
<ele>222.6</ele>
<time>2024-05-07T15:11:59Z</time>
</trkpt>
<trkpt lat="49.205932561308146" lon="9.51113697141409">
<ele>222.8</ele>
<time>2024-05-07T15:12:00Z</time>
</trkpt>
<trkpt lat="49.20596307143569" lon="9.51113697141409">
<ele>222.8</ele>
<time>2024-05-07T15:12:01Z</time>
</trkpt>
<trkpt lat="49.20599743723869" lon="9.511130265891552">
<ele>223</ele>
<time>2024-05-07T15:12:02Z</time>
</trkpt>
<trkpt lat="49.206031719222665" lon="9.511128421872854">
<ele>223.2</ele>
<time>2024-05-07T15:12:03Z</time>
</trkpt>
<trkpt lat="49.20606231316924" lon="9.511126494035125">
<ele>223.4</ele>
<time>2024-05-07T15:12:04Z</time>
</trkpt>
<trkpt lat="49.20609659515321" lon="9.511130265891552">
<ele>223.6</ele>
<time>2024-05-07T15:12:05Z</time>
</trkpt>
<trkpt lat="49.20612333342433" lon="9.51113504357636">
<ele>223.8</ele>
<time>2024-05-07T15:12:06Z</time>
</trkpt>
<trkpt lat="49.206153843551874" lon="9.51113697141409">
<ele>224</ele>
<time>2024-05-07T15:12:07Z</time>
</trkpt>
<trkpt lat="49.20618435367942" lon="9.511131271719933">
<ele>224.2</ele>
<time>2024-05-07T15:12:08Z</time>
</trkpt>
<trkpt lat="49.206211008131504" lon="9.511119788512588">
<ele>224.6</ele>
<time>2024-05-07T15:12:09Z</time>
</trkpt>
<trkpt lat="49.20624160207808" lon="9.511103611439466">
<ele>224.8</ele>
<time>2024-05-07T15:12:10Z</time>
</trkpt>
<trkpt lat="49.20626448467374" lon="9.511083578690886">
<ele>225</ele>
<time>2024-05-07T15:12:11Z</time>
</trkpt>
<trkpt lat="49.2062873672694" lon="9.51105684041977">
<ele>225.4</ele>
<time>2024-05-07T15:12:12Z</time>
</trkpt>
<trkpt lat="49.20629499480128" lon="9.511019624769688">
<ele>225.6</ele>
<time>2024-05-07T15:12:13Z</time>
</trkpt>
<trkpt lat="49.20629876665771" lon="9.51097964309156">
<ele>226</ele>
<time>2024-05-07T15:12:14Z</time>
</trkpt>
<trkpt lat="49.20629876665771" lon="9.5109395775944">
<ele>226.2</ele>
<time>2024-05-07T15:12:15Z</time>
</trkpt>
<trkpt lat="49.206291139125824" lon="9.510894734412432">
<ele>226.6</ele>
<time>2024-05-07T15:12:16Z</time>
</trkpt>
<trkpt lat="49.20628351159394" lon="9.510845113545656">
<ele>226.8</ele>
<time>2024-05-07T15:12:17Z</time>
</trkpt>
<trkpt lat="49.206268256530166" lon="9.51079649850726">
<ele>227</ele>
<time>2024-05-07T15:12:18Z</time>
</trkpt>
<trkpt lat="49.20625685714185" lon="9.51074117794633">
<ele>227.2</ele>
<time>2024-05-07T15:12:19Z</time>
</trkpt>
<trkpt lat="49.20624160207808" lon="9.510686863213778">
<ele>227.4</ele>
<time>2024-05-07T15:12:20Z</time>
</trkpt>
<trkpt lat="49.20622634701431" lon="9.510626764968038">
<ele>227.4</ele>
<time>2024-05-07T15:12:21Z</time>
</trkpt>
<trkpt lat="49.20620338059962" lon="9.510558117181064">
<ele>227.6</ele>
<time>2024-05-07T15:12:22Z</time>
</trkpt>
<trkpt lat="49.206188125535846" lon="9.510490391403437">
<ele>227.8</ele>
<time>2024-05-07T15:12:23Z</time>
</trkpt>
<trkpt lat="49.206169098615646" lon="9.51042358763516">
<ele>227.8</ele>
<time>2024-05-07T15:12:24Z</time>
</trkpt>
<trkpt lat="49.206149987876415" lon="9.510358795523643">
<ele>228</ele>
<time>2024-05-07T15:12:25Z</time>
</trkpt>
<trkpt lat="49.20613473281264" lon="9.510296769440174">
<ele>228.2</ele>
<time>2024-05-07T15:12:26Z</time>
</trkpt>
<trkpt lat="49.20612333342433" lon="9.510236671194434">
<ele>228.2</ele>
<time>2024-05-07T15:12:27Z</time>
</trkpt>
<trkpt lat="49.20610807836056" lon="9.510174728929996">
<ele>228.4</ele>
<time>2024-05-07T15:12:28Z</time>
</trkpt>
<trkpt lat="49.206092823296785" lon="9.510120330378411">
<ele>228.4</ele>
<time>2024-05-07T15:12:29Z</time>
</trkpt>
<trkpt lat="49.20607756823301" lon="9.510060232132671">
<ele>228.4</ele>
<time>2024-05-07T15:12:30Z</time>
</trkpt>
<trkpt lat="49.20606231316924" lon="9.510003067553043">
<ele>228.6</ele>
<time>2024-05-07T15:12:31Z</time>
</trkpt>
<trkpt lat="49.20604320243001" lon="9.509944897145033">
<ele>228.6</ele>
<time>2024-05-07T15:12:32Z</time>
</trkpt>
<trkpt lat="49.20602794736624" lon="9.50988857075572">
<ele>228.6</ele>
<time>2024-05-07T15:12:33Z</time>
</trkpt>
<trkpt lat="49.20600883662701" lon="9.50983040034771">
<ele>228.4</ele>
<time>2024-05-07T15:12:34Z</time>
</trkpt>
<trkpt lat="49.205993581563234" lon="9.50977130793035">
<ele>228.4</ele>
<time>2024-05-07T15:12:35Z</time>
</trkpt>
<trkpt lat="49.20597832649946" lon="9.50971506536007">
<ele>228.2</ele>
<time>2024-05-07T15:12:36Z</time>
</trkpt>
<trkpt lat="49.20596307143569" lon="9.509658738970757">
<ele>228.2</ele>
<time>2024-05-07T15:12:37Z</time>
</trkpt>
<trkpt lat="49.20594404451549" lon="9.509601574391128">
<ele>228.2</ele>
<time>2024-05-07T15:12:38Z</time>
</trkpt>
<trkpt lat="49.20592878945172" lon="9.509543403983116">
<ele>228</ele>
<time>2024-05-07T15:12:39Z</time>
</trkpt>
<trkpt lat="49.205913534387946" lon="9.509483305737376">
<ele>227.8</ele>
<time>2024-05-07T15:12:40Z</time>
</trkpt>
<trkpt lat="49.2059020511806" lon="9.509418429806828">
<ele>227.8</ele>
<time>2024-05-07T15:12:41Z</time>
</trkpt>
<trkpt lat="49.20588679611683" lon="9.509353637695313">
<ele>227.6</ele>
<time>2024-05-07T15:12:42Z</time>
</trkpt>
<trkpt lat="49.20587539672851" lon="9.509286833927035">
<ele>227.6</ele>
<time>2024-05-07T15:12:43Z</time>
</trkpt>
<trkpt lat="49.2058676853776" lon="9.50921818614006">
<ele>227.4</ele>
<time>2024-05-07T15:12:44Z</time>
</trkpt>
<trkpt lat="49.20586005784571" lon="9.509148532524703">
<ele>227.4</ele>
<time>2024-05-07T15:12:45Z</time>
</trkpt>
<trkpt lat="49.205856285989285" lon="9.509075107052922">
<ele>227.2</ele>
<time>2024-05-07T15:12:46Z</time>
</trkpt>
<trkpt lat="49.205852430313826" lon="9.50899975374341">
<ele>227.2</ele>
<time>2024-05-07T15:12:47Z</time>
</trkpt>
<trkpt lat="49.2058486584574" lon="9.508923478424547">
<ele>227.2</ele>
<time>2024-05-07T15:12:48Z</time>
</trkpt>
<trkpt lat="49.2058486584574" lon="9.508850052952766">
<ele>227.2</ele>
<time>2024-05-07T15:12:49Z</time>
</trkpt>
<trkpt lat="49.2058486584574" lon="9.508776627480984">
<ele>227</ele>
<time>2024-05-07T15:12:50Z</time>
</trkpt>
<trkpt lat="49.205856285989285" lon="9.50870512984693">
<ele>227</ele>
<time>2024-05-07T15:12:51Z</time>
</trkpt>
<trkpt lat="49.2058676853776" lon="9.508636398240924">
<ele>227</ele>
<time>2024-05-07T15:12:52Z</time>
</trkpt>
<trkpt lat="49.20587539672851" lon="9.50856875628233">
<ele>227</ele>
<time>2024-05-07T15:12:53Z</time>
</trkpt>
<trkpt lat="49.20588679611683" lon="9.508498180657623">
<ele>227</ele>
<time>2024-05-07T15:12:54Z</time>
</trkpt>
<trkpt lat="49.205894423648715" lon="9.50843045488">
<ele>227</ele>
<time>2024-05-07T15:12:55Z</time>
</trkpt>
<trkpt lat="49.2059020511806" lon="9.50837035663426">
<ele>227</ele>
<time>2024-05-07T15:12:56Z</time>
</trkpt>
<trkpt lat="49.20591730624437" lon="9.508315036073329">
<ele>227</ele>
<time>2024-05-07T15:12:57Z</time>
</trkpt>
<trkpt lat="49.20592878945172" lon="9.50825116597116">
<ele>227</ele>
<time>2024-05-07T15:12:58Z</time>
</trkpt>
<trkpt lat="49.2059364169836" lon="9.508179584518077">
<ele>227</ele>
<time>2024-05-07T15:12:59Z</time>
</trkpt>
<trkpt lat="49.20594018884003" lon="9.508105237036943">
<ele>227</ele>
<time>2024-05-07T15:13:00Z</time>
</trkpt>
<trkpt lat="49.20594404451549" lon="9.508025106042624">
<ele>227</ele>
<time>2024-05-07T15:13:01Z</time>
</trkpt>
<trkpt lat="49.20594781637192" lon="9.507946902886031">
<ele>227</ele>
<time>2024-05-07T15:13:02Z</time>
</trkpt>
<trkpt lat="49.20595167204738" lon="9.507868699729444">
<ele>227</ele>
<time>2024-05-07T15:13:03Z</time>
</trkpt>
<trkpt lat="49.20596307143569" lon="9.507801979780195">
<ele>227</ele>
<time>2024-05-07T15:13:04Z</time>
</trkpt>
<trkpt lat="49.20596692711115" lon="9.507731404155493">
<ele>227</ele>
<time>2024-05-07T15:13:05Z</time>
</trkpt>
<trkpt lat="49.205974554643035" lon="9.507666528224943">
<ele>227</ele>
<time>2024-05-07T15:13:06Z</time>
</trkpt>
<trkpt lat="49.20597832649946" lon="9.50759695842862">
<ele>227</ele>
<time>2024-05-07T15:13:07Z</time>
</trkpt>
<trkpt lat="49.20598218217492" lon="9.507530154660344">
<ele>227</ele>
<time>2024-05-07T15:13:08Z</time>
</trkpt>
<trkpt lat="49.20598595403135" lon="9.5074634347111">
<ele>227</ele>
<time>2024-05-07T15:13:09Z</time>
</trkpt>
<trkpt lat="49.20598980970681" lon="9.507394786924124">
<ele>227.2</ele>
<time>2024-05-07T15:13:10Z</time>
</trkpt>
<trkpt lat="49.205993581563234" lon="9.507327983155848">
<ele>227.2</ele>
<time>2024-05-07T15:13:11Z</time>
</trkpt>
<trkpt lat="49.20599743723869" lon="9.5072631072253">
<ele>227.4</ele>
<time>2024-05-07T15:13:12Z</time>
</trkpt>
<trkpt lat="49.20600120909512" lon="9.507196387276052">
<ele>227.4</ele>
<time>2024-05-07T15:13:13Z</time>
</trkpt>
<trkpt lat="49.20600506477058" lon="9.507129667326808">
<ele>227.4</ele>
<time>2024-05-07T15:13:14Z</time>
</trkpt>
<trkpt lat="49.20600506477058" lon="9.50706286355853">
<ele>227.4</ele>
<time>2024-05-07T15:13:15Z</time>
</trkpt>
<trkpt lat="49.20600883662701" lon="9.506997987627985">
<ele>227.6</ele>
<time>2024-05-07T15:13:16Z</time>
</trkpt>
<trkpt lat="49.20601646415889" lon="9.506937973201277">
<ele>227.8</ele>
<time>2024-05-07T15:13:17Z</time>
</trkpt>
<trkpt lat="49.20601646415889" lon="9.506871169432998">
<ele>227.8</ele>
<time>2024-05-07T15:13:18Z</time>
</trkpt>
<trkpt lat="49.20602409169078" lon="9.50680629350245">
<ele>228</ele>
<time>2024-05-07T15:13:19Z</time>
</trkpt>
<trkpt lat="49.20602794736624" lon="9.506741501390934">
<ele>228.2</ele>
<time>2024-05-07T15:13:20Z</time>
</trkpt>
<trkpt lat="49.206031719222665" lon="9.506676625460386">
<ele>228.2</ele>
<time>2024-05-07T15:13:21Z</time>
</trkpt>
<trkpt lat="49.20603557489813" lon="9.50660990551114">
<ele>228.4</ele>
<time>2024-05-07T15:13:22Z</time>
</trkpt>
<trkpt lat="49.20603934675455" lon="9.506545029580591">
<ele>228.4</ele>
<time>2024-05-07T15:13:23Z</time>
</trkpt>
<trkpt lat="49.20604320243001" lon="9.506480153650044">
<ele>228.6</ele>
<time>2024-05-07T15:13:24Z</time>
</trkpt>
<trkpt lat="49.20604320243001" lon="9.50641150586307">
<ele>228.6</ele>
<time>2024-05-07T15:13:25Z</time>
</trkpt>
<trkpt lat="49.20604705810547" lon="9.506344785913823">
<ele>228.6</ele>
<time>2024-05-07T15:13:26Z</time>
</trkpt>
<trkpt lat="49.206054685637355" lon="9.506277982145548">
<ele>228.6</ele>
<time>2024-05-07T15:13:27Z</time>
</trkpt>
<trkpt lat="49.20606231316924" lon="9.506208412349224">
<ele>228.8</ele>
<time>2024-05-07T15:13:28Z</time>
</trkpt>
<trkpt lat="49.20606608502567" lon="9.506124425679443">
<ele>228.8</ele>
<time>2024-05-07T15:13:29Z</time>
</trkpt>
<trkpt lat="49.20606994070113" lon="9.506041444838049">
<ele>228.8</ele>
<time>2024-05-07T15:13:30Z</time>
</trkpt>
<trkpt lat="49.20606994070113" lon="9.505956619977953">
<ele>228.8</ele>
<time>2024-05-07T15:13:31Z</time>
</trkpt>
<trkpt lat="49.206073712557554" lon="9.505866933614016">
<ele>228.6</ele>
<time>2024-05-07T15:13:32Z</time>
</trkpt>
<trkpt lat="49.20607756823301" lon="9.505776325240731">
<ele>228.6</ele>
<time>2024-05-07T15:13:33Z</time>
</trkpt>
<trkpt lat="49.20608134008944" lon="9.505689572542906">
<ele>228.4</ele>
<time>2024-05-07T15:13:34Z</time>
</trkpt>
<trkpt lat="49.206088967621326" lon="9.50560374185443">
<ele>228.2</ele>
<time>2024-05-07T15:13:35Z</time>
</trkpt>
<trkpt lat="49.20609659515321" lon="9.505516989156604">
<ele>228.2</ele>
<time>2024-05-07T15:13:36Z</time>
</trkpt>
<trkpt lat="49.2061042226851" lon="9.505428308621047">
<ele>228</ele>
<time>2024-05-07T15:13:37Z</time>
</trkpt>
<trkpt lat="49.206111850216985" lon="9.505339544266462">
<ele>227.8</ele>
<time>2024-05-07T15:13:38Z</time>
</trkpt>
<trkpt lat="49.20612333342433" lon="9.505254719406366">
<ele>227.6</ele>
<time>2024-05-07T15:13:39Z</time>
</trkpt>
<trkpt lat="49.2061385884881" lon="9.505180288106205">
<ele>227.4</ele>
<time>2024-05-07T15:13:40Z</time>
</trkpt>
<trkpt lat="49.2061576154083" lon="9.505102084949613">
<ele>227.2</ele>
<time>2024-05-07T15:13:41Z</time>
</trkpt>
<trkpt lat="49.206169098615646" lon="9.505022037774324">
<ele>227</ele>
<time>2024-05-07T15:13:42Z</time>
</trkpt>
<trkpt lat="49.206188125535846" lon="9.504944756627085">
<ele>226.8</ele>
<time>2024-05-07T15:13:43Z</time>
</trkpt>
<trkpt lat="49.20619575306773" lon="9.504856998100877">
<ele>226.6</ele>
<time>2024-05-07T15:13:44Z</time>
</trkpt>
<trkpt lat="49.20620723627508" lon="9.504766389727592">
<ele>226.6</ele>
<time>2024-05-07T15:13:45Z</time>
</trkpt>
<trkpt lat="49.20621486380696" lon="9.50467485934496">
<ele>226.4</ele>
<time>2024-05-07T15:13:46Z</time>
</trkpt>
<trkpt lat="49.20621871948242" lon="9.504581401124597">
<ele>226.2</ele>
<time>2024-05-07T15:13:47Z</time>
</trkpt>
<trkpt lat="49.20622634701431" lon="9.504491798579693">
<ele>226.2</ele>
<time>2024-05-07T15:13:48Z</time>
</trkpt>
<trkpt lat="49.206233974546194" lon="9.504409739747643">
<ele>226</ele>
<time>2024-05-07T15:13:49Z</time>
</trkpt>
<trkpt lat="49.20624160207808" lon="9.504331536591051">
<ele>225.8</ele>
<time>2024-05-07T15:13:50Z</time>
</trkpt>
<trkpt lat="49.20624160207808" lon="9.504264816641808">
<ele>225.8</ele>
<time>2024-05-07T15:13:51Z</time>
</trkpt>
<trkpt lat="49.20625685714185" lon="9.504208490252497">
<ele>225.6</ele>
<time>2024-05-07T15:13:52Z</time>
</trkpt>
<trkpt lat="49.20626448467374" lon="9.50416373088956">
<ele>225.6</ele>
<time>2024-05-07T15:13:53Z</time>
</trkpt>
<trkpt lat="49.20627973973751" lon="9.5041236653924">
<ele>225.4</ele>
<time>2024-05-07T15:13:54Z</time>
</trkpt>
<trkpt lat="49.206291139125824" lon="9.504088377580048">
<ele>225.2</ele>
<time>2024-05-07T15:13:55Z</time>
</trkpt>
<trkpt lat="49.2063063941896" lon="9.504045462235808">
<ele>225</ele>
<time>2024-05-07T15:13:56Z</time>
</trkpt>
<trkpt lat="49.20632164925337" lon="9.503994919359684">
<ele>224.8</ele>
<time>2024-05-07T15:13:57Z</time>
</trkpt>
<trkpt lat="49.20633690431714" lon="9.503939598798752">
<ele>224.6</ele>
<time>2024-05-07T15:13:58Z</time>
</trkpt>
<trkpt lat="49.20635601505637" lon="9.50388142839074">
<ele>224.4</ele>
<time>2024-05-07T15:13:59Z</time>
</trkpt>
<trkpt lat="49.206371270120144" lon="9.50382518582046">
<ele>224.4</ele>
<time>2024-05-07T15:14:00Z</time>
</trkpt>
<trkpt lat="49.20638652518392" lon="9.503766931593418">
<ele>224.2</ele>
<time>2024-05-07T15:14:01Z</time>
</trkpt>
<trkpt lat="49.20640563592315" lon="9.50370498932898">
<ele>224</ele>
<time>2024-05-07T15:14:02Z</time>
</trkpt>
<trkpt lat="49.20642089098692" lon="9.503642963245513">
<ele>224</ele>
<time>2024-05-07T15:14:03Z</time>
</trkpt>
<trkpt lat="49.20643614605069" lon="9.503582948818805">
<ele>224</ele>
<time>2024-05-07T15:14:04Z</time>
</trkpt>
<trkpt lat="49.206447545439005" lon="9.50352855026722">
<ele>223.8</ele>
<time>2024-05-07T15:14:05Z</time>
</trkpt>
<trkpt lat="49.20645517297089" lon="9.503479935228825">
<ele>223.8</ele>
<time>2024-05-07T15:14:06Z</time>
</trkpt>
<trkpt lat="49.20646665617824" lon="9.503437019884586">
<ele>223.8</ele>
<time>2024-05-07T15:14:07Z</time>
</trkpt>
<trkpt lat="49.20647805556655" lon="9.503393098711967">
<ele>223.8</ele>
<time>2024-05-07T15:14:08Z</time>
</trkpt>
<trkpt lat="49.20649331063032" lon="9.503348339349031">
<ele>223.8</ele>
<time>2024-05-07T15:14:09Z</time>
</trkpt>
<trkpt lat="49.206508565694094" lon="9.503299640491605">
<ele>223.8</ele>
<time>2024-05-07T15:14:10Z</time>
</trkpt>
<trkpt lat="49.206523820757866" lon="9.50325010344386">
<ele>223.6</ele>
<time>2024-05-07T15:14:11Z</time>
</trkpt>
<trkpt lat="49.2065429314971" lon="9.503198554739356">
<ele>223.6</ele>
<time>2024-05-07T15:14:12Z</time>
</trkpt>
<trkpt lat="49.20655055902898" lon="9.503147089853885">
<ele>223.4</ele>
<time>2024-05-07T15:14:13Z</time>
</trkpt>
<trkpt lat="49.20655818656087" lon="9.50309176929295">
<ele>223.4</ele>
<time>2024-05-07T15:14:14Z</time>
</trkpt>
<trkpt lat="49.206565814092755" lon="9.503036448732018">
<ele>223.2</ele>
<time>2024-05-07T15:14:15Z</time>
</trkpt>
<trkpt lat="49.2065772973001" lon="9.502981128171086">
<ele>223.2</ele>
<time>2024-05-07T15:14:16Z</time>
</trkpt>
<trkpt lat="49.20659255236387" lon="9.502929663285611">
<ele>223</ele>
<time>2024-05-07T15:14:17Z</time>
</trkpt>
<trkpt lat="49.206603951752186" lon="9.50287627056241">
<ele>222.8</ele>
<time>2024-05-07T15:14:18Z</time>
</trkpt>
<trkpt lat="49.20661543495953" lon="9.502826649695637">
<ele>222.6</ele>
<time>2024-05-07T15:14:19Z</time>
</trkpt>
<trkpt lat="49.20662683434784" lon="9.502779878675938">
<ele>222.4</ele>
<time>2024-05-07T15:14:20Z</time>
</trkpt>
<trkpt lat="49.20663831755519" lon="9.502731263637545">
<ele>222.2</ele>
<time>2024-05-07T15:14:21Z</time>
</trkpt>
<trkpt lat="49.2066497169435" lon="9.502688348293304">
<ele>222</ele>
<time>2024-05-07T15:14:22Z</time>
</trkpt>
<trkpt lat="49.20667645521462" lon="9.502654988318682">
<ele>221.6</ele>
<time>2024-05-07T15:14:23Z</time>
</trkpt>
<trkpt lat="49.20670696534216" lon="9.502632105723023">
<ele>221.2</ele>
<time>2024-05-07T15:14:24Z</time>
</trkpt>
<trkpt lat="49.20674133114517" lon="9.502623556181788">
<ele>221</ele>
<time>2024-05-07T15:14:25Z</time>
</trkpt>
<trkpt lat="49.2067794688046" lon="9.502628250047565">
<ele>220.6</ele>
<time>2024-05-07T15:14:26Z</time>
</trkpt>
<trkpt lat="49.20681760646403" lon="9.50263973325491">
<ele>220.4</ele>
<time>2024-05-07T15:14:27Z</time>
</trkpt>
<trkpt lat="49.20685574412346" lon="9.502648282796144">
<ele>220</ele>
<time>2024-05-07T15:14:28Z</time>
</trkpt>
<trkpt lat="49.20689388178289" lon="9.502651132643225">
<ele>220</ele>
<time>2024-05-07T15:14:29Z</time>
</trkpt>
<trkpt lat="49.20693587511778" lon="9.502653060480952">
<ele>219.8</ele>
<time>2024-05-07T15:14:30Z</time>
</trkpt>
<trkpt lat="49.20697015710175" lon="9.502651132643225">
<ele>219.6</ele>
<time>2024-05-07T15:14:31Z</time>
</trkpt>
<trkpt lat="49.20700829476118" lon="9.502656916156411">
<ele>219.6</ele>
<time>2024-05-07T15:14:32Z</time>
</trkpt>
<trkpt lat="49.207042660564184" lon="9.502663537859917">
<ele>219.4</ele>
<time>2024-05-07T15:14:33Z</time>
</trkpt>
<trkpt lat="49.20707702636719" lon="9.502668315544724">
<ele>219.4</ele>
<time>2024-05-07T15:14:34Z</time>
</trkpt>
<trkpt lat="49.20710753649473" lon="9.502671165391805">
<ele>219.4</ele>
<time>2024-05-07T15:14:35Z</time>
</trkpt>
<trkpt lat="49.2071418184787" lon="9.502675021067262">
<ele>219.4</ele>
<time>2024-05-07T15:14:36Z</time>
</trkpt>
<trkpt lat="49.20717232860625" lon="9.502676948904991">
<ele>219.4</ele>
<time>2024-05-07T15:14:37Z</time>
</trkpt>
<trkpt lat="49.20720669440925" lon="9.502676948904991">
<ele>219.6</ele>
<time>2024-05-07T15:14:38Z</time>
</trkpt>
<trkpt lat="49.20723334886134" lon="9.5026817265898">
<ele>219.6</ele>
<time>2024-05-07T15:14:39Z</time>
</trkpt>
<trkpt lat="49.20726771466434" lon="9.50267979875207">
<ele>219.6</ele>
<time>2024-05-07T15:14:40Z</time>
</trkpt>
<trkpt lat="49.20730208046734" lon="9.502670243382454">
<ele>219.8</ele>
<time>2024-05-07T15:14:41Z</time>
</trkpt>
<trkpt lat="49.20733259059489" lon="9.502653060480952">
<ele>219.8</ele>
<time>2024-05-07T15:14:42Z</time>
</trkpt>
<trkpt lat="49.20736310072243" lon="9.50263780541718">
<ele>219.8</ele>
<time>2024-05-07T15:14:43Z</time>
</trkpt>
<trkpt lat="49.20738975517452" lon="9.50262162834406">
<ele>220</ele>
<time>2024-05-07T15:14:44Z</time>
</trkpt>
<trkpt lat="49.20740886591375" lon="9.502606373280289">
<ele>220</ele>
<time>2024-05-07T15:14:45Z</time>
</trkpt>
<trkpt lat="49.207435604184866" lon="9.502588268369436">
<ele>220.2</ele>
<time>2024-05-07T15:14:46Z</time>
</trkpt>
<trkpt lat="49.20746611431241" lon="9.502570079639554">
<ele>220.4</ele>
<time>2024-05-07T15:14:47Z</time>
</trkpt>
<trkpt lat="49.20750425197184" lon="9.502551974728703">
<ele>220.4</ele>
<time>2024-05-07T15:14:48Z</time>
</trkpt>
<trkpt lat="49.20755001716316" lon="9.502531941980124">
<ele>220.4</ele>
<time>2024-05-07T15:14:49Z</time>
</trkpt>
<trkpt lat="49.207595782354474" lon="9.502508137375116">
<ele>220.4</ele>
<time>2024-05-07T15:14:50Z</time>
</trkpt>
<trkpt lat="49.20764154754579" lon="9.502486176788809">
<ele>220.6</ele>
<time>2024-05-07T15:14:51Z</time>
</trkpt>
<trkpt lat="49.20768731273711" lon="9.50246044434607">
<ele>220.6</ele>
<time>2024-05-07T15:14:52Z</time>
</trkpt>
<trkpt lat="49.20773693360388" lon="9.502434711903334">
<ele>220.4</ele>
<time>2024-05-07T15:14:53Z</time>
</trkpt>
<trkpt lat="49.2077826987952" lon="9.502411829307675">
<ele>220.4</ele>
<time>2024-05-07T15:14:54Z</time>
</trkpt>
<trkpt lat="49.20782846398651" lon="9.502387940883636">
<ele>220.2</ele>
<time>2024-05-07T15:14:55Z</time>
</trkpt>
<trkpt lat="49.20787808485329" lon="9.502363130450249">
<ele>220</ele>
<time>2024-05-07T15:14:56Z</time>
</trkpt>
<trkpt lat="49.20792385004461" lon="9.502336475998163">
<ele>219.8</ele>
<time>2024-05-07T15:14:57Z</time>
</trkpt>
<trkpt lat="49.2079658433795" lon="9.502309737727046">
<ele>219.6</ele>
<time>2024-05-07T15:14:58Z</time>
</trkpt>
<trkpt lat="49.208007752895355" lon="9.50228308327496">
<ele>219.4</ele>
<time>2024-05-07T15:14:59Z</time>
</trkpt>
<trkpt lat="49.208045890554786" lon="9.502262044698">
<ele>219.2</ele>
<time>2024-05-07T15:15:00Z</time>
</trkpt>
<trkpt lat="49.2080916557461" lon="9.502253495156763">
<ele>218.8</ele>
<time>2024-05-07T15:15:01Z</time>
</trkpt>
<trkpt lat="49.20813750475645" lon="9.502256345003843">
<ele>218.4</ele>
<time>2024-05-07T15:15:02Z</time>
</trkpt>
<trkpt lat="49.208187041804194" lon="9.502271600067616">
<ele>218.2</ele>
<time>2024-05-07T15:15:03Z</time>
</trkpt>
<trkpt lat="49.20823666267097" lon="9.502293560653923">
<ele>217.8</ele>
<time>2024-05-07T15:15:04Z</time>
</trkpt>
<trkpt lat="49.208286283537745" lon="9.502321220934393">
<ele>217.4</ele>
<time>2024-05-07T15:15:05Z</time>
</trkpt>
<trkpt lat="49.20833967626095" lon="9.502356508746743">
<ele>217</ele>
<time>2024-05-07T15:15:06Z</time>
</trkpt>
<trkpt lat="49.20839306898415" lon="9.5023984182626">
<ele>216.6</ele>
<time>2024-05-07T15:15:07Z</time>
</trkpt>
<trkpt lat="49.208446461707354" lon="9.50244133360684">
<ele>216.2</ele>
<time>2024-05-07T15:15:08Z</time>
</trkpt>
<trkpt lat="49.2085113376379" lon="9.502490032464266">
<ele>215.6</ele>
<time>2024-05-07T15:15:09Z</time>
</trkpt>
<trkpt lat="49.20857612974942" lon="9.502543425187469">
<ele>215</ele>
<time>2024-05-07T15:15:10Z</time>
</trkpt>
<trkpt lat="49.208644861355424" lon="9.502596817910671">
<ele>214.4</ele>
<time>2024-05-07T15:15:11Z</time>
</trkpt>
<trkpt lat="49.208721136674285" lon="9.502650210633874">
<ele>213.8</ele>
<time>2024-05-07T15:15:12Z</time>
</trkpt>
<trkpt lat="49.208797411993146" lon="9.50270175933838">
<ele>213.2</ele>
<time>2024-05-07T15:15:13Z</time>
</trkpt>
<trkpt lat="49.208877542987466" lon="9.502755152061582">
<ele>212.4</ele>
<time>2024-05-07T15:15:14Z</time>
</trkpt>
<trkpt lat="49.20895381830633" lon="9.502806616947057">
<ele>211.8</ele>
<time>2024-05-07T15:15:15Z</time>
</trkpt>
<trkpt lat="49.20903394930065" lon="9.502851460129024">
<ele>211.2</ele>
<time>2024-05-07T15:15:16Z</time>
</trkpt>
<trkpt lat="49.209117852151394" lon="9.502891525626184">
<ele>210.6</ele>
<time>2024-05-07T15:15:17Z</time>
</trkpt>
<trkpt lat="49.20919035561383" lon="9.502929663285611">
<ele>210.2</ele>
<time>2024-05-07T15:15:18Z</time>
</trkpt>
<trkpt lat="49.209255147725344" lon="9.502966878935696">
<ele>209.6</ele>
<time>2024-05-07T15:15:19Z</time>
</trkpt>
<trkpt lat="49.209316251799464" lon="9.503000238910316">
<ele>209.2</ele>
<time>2024-05-07T15:15:20Z</time>
</trkpt>
<trkpt lat="49.209373416379094" lon="9.50303167104721">
<ele>208.8</ele>
<time>2024-05-07T15:15:21Z</time>
</trkpt>
<trkpt lat="49.2094268091023" lon="9.503063187003136">
<ele>208.4</ele>
<time>2024-05-07T15:15:22Z</time>
</trkpt>
<trkpt lat="49.20948028564453" lon="9.503094619140027">
<ele>208.2</ele>
<time>2024-05-07T15:15:23Z</time>
</trkpt>
<trkpt lat="49.209533678367734" lon="9.503127057105305">
<ele>208</ele>
<time>2024-05-07T15:15:24Z</time>
</trkpt>
<trkpt lat="49.20958321541548" lon="9.503160417079926">
<ele>207.6</ele>
<time>2024-05-07T15:15:25Z</time>
</trkpt>
<trkpt lat="49.20963660813868" lon="9.503186149522662">
<ele>207.6</ele>
<time>2024-05-07T15:15:26Z</time>
</trkpt>
<trkpt lat="49.209690084680915" lon="9.5032100379467">
<ele>207.4</ele>
<time>2024-05-07T15:15:27Z</time>
</trkpt>
<trkpt lat="49.20973962172866" lon="9.503236692398788">
<ele>207.4</ele>
<time>2024-05-07T15:15:28Z</time>
</trkpt>
<trkpt lat="49.209789242595434" lon="9.503266280516982">
<ele>207.6</ele>
<time>2024-05-07T15:15:29Z</time>
</trkpt>
<trkpt lat="49.20983500778675" lon="9.503296790644526">
<ele>207.8</ele>
<time>2024-05-07T15:15:30Z</time>
</trkpt>
<trkpt lat="49.209884628653526" lon="9.503321601077914">
<ele>207.8</ele>
<time>2024-05-07T15:15:31Z</time>
</trkpt>
<trkpt lat="49.20993039384484" lon="9.503346411511302">
<ele>208</ele>
<time>2024-05-07T15:15:32Z</time>
</trkpt>
<trkpt lat="49.20997615903616" lon="9.503373065963387">
<ele>208</ele>
<time>2024-05-07T15:15:33Z</time>
</trkpt>
<trkpt lat="49.21002192422747" lon="9.503399804234505">
<ele>208</ele>
<time>2024-05-07T15:15:34Z</time>
</trkpt>
<trkpt lat="49.21006768941879" lon="9.50342838652432">
<ele>208</ele>
<time>2024-05-07T15:15:35Z</time>
</trkpt>
<trkpt lat="49.21011345461011" lon="9.503453196957707">
<ele>208</ele>
<time>2024-05-07T15:15:36Z</time>
</trkpt>
<trkpt lat="49.210159219801426" lon="9.503475157544017">
<ele>208</ele>
<time>2024-05-07T15:15:37Z</time>
</trkpt>
<trkpt lat="49.210205068811774" lon="9.503491334617138">
<ele>208</ele>
<time>2024-05-07T15:15:38Z</time>
</trkpt>
<trkpt lat="49.21025083400309" lon="9.503517150878906">
<ele>208</ele>
<time>2024-05-07T15:15:39Z</time>
</trkpt>
<trkpt lat="49.21029659919441" lon="9.503541877493262">
<ele>208</ele>
<time>2024-05-07T15:15:40Z</time>
</trkpt>
<trkpt lat="49.21034622006118" lon="9.50356668792665">
<ele>208</ele>
<time>2024-05-07T15:15:41Z</time>
</trkpt>
<trkpt lat="49.2103919852525" lon="9.50358672067523">
<ele>208</ele>
<time>2024-05-07T15:15:42Z</time>
</trkpt>
<trkpt lat="49.21044152230024" lon="9.50360482558608">
<ele>208</ele>
<time>2024-05-07T15:15:43Z</time>
</trkpt>
<trkpt lat="49.21048728749156" lon="9.503618236631157">
<ele>208</ele>
<time>2024-05-07T15:15:44Z</time>
</trkpt>
<trkpt lat="49.21053313650191" lon="9.50362678617239">
<ele>208</ele>
<time>2024-05-07T15:15:45Z</time>
</trkpt>
<trkpt lat="49.210575046017766" lon="9.503633491694927">
<ele>208</ele>
<time>2024-05-07T15:15:46Z</time>
</trkpt>
<trkpt lat="49.210617039352655" lon="9.503638185560703">
<ele>208</ele>
<time>2024-05-07T15:15:47Z</time>
</trkpt>
<trkpt lat="49.21065894886851" lon="9.503638185560703">
<ele>208</ele>
<time>2024-05-07T15:15:48Z</time>
</trkpt>
<trkpt lat="49.21069331467152" lon="9.503635335713623">
<ele>208.2</ele>
<time>2024-05-07T15:15:49Z</time>
</trkpt>
<trkpt lat="49.21073145233095" lon="9.503636341542006">
<ele>208.4</ele>
<time>2024-05-07T15:15:50Z</time>
</trkpt>
<trkpt lat="49.21076958999038" lon="9.503640113398433">
<ele>208.6</ele>
<time>2024-05-07T15:15:51Z</time>
</trkpt>
<trkpt lat="49.21080395579338" lon="9.50364489108324">
<ele>208.8</ele>
<time>2024-05-07T15:15:52Z</time>
</trkpt>
<trkpt lat="49.21083823777735" lon="9.503651596605778">
<ele>209</ele>
<time>2024-05-07T15:15:53Z</time>
</trkpt>
<trkpt lat="49.21086883172393" lon="9.503662073984742">
<ele>209.4</ele>
<time>2024-05-07T15:15:54Z</time>
</trkpt>
<trkpt lat="49.210910741239786" lon="9.50366685166955">
<ele>209.6</ele>
<time>2024-05-07T15:15:55Z</time>
</trkpt>
<trkpt lat="49.21094887889922" lon="9.50366492383182">
<ele>210</ele>
<time>2024-05-07T15:15:56Z</time>
</trkpt>
<trkpt lat="49.210990872234106" lon="9.503658218309283">
<ele>210.2</ele>
<time>2024-05-07T15:15:57Z</time>
</trkpt>
<trkpt lat="49.211032865568995" lon="9.503651596605778">
<ele>210.6</ele>
<time>2024-05-07T15:15:58Z</time>
</trkpt>
<trkpt lat="49.211071003228426" lon="9.503649668768048">
<ele>210.8</ele>
<time>2024-05-07T15:15:59Z</time>
</trkpt>
<trkpt lat="49.21110914088786" lon="9.5036487467587">
<ele>211.2</ele>
<time>2024-05-07T15:16:00Z</time>
</trkpt>
<trkpt lat="49.21114727854729" lon="9.5036487467587">
<ele>211.4</ele>
<time>2024-05-07T15:16:01Z</time>
</trkpt>
<trkpt lat="49.21118156053126" lon="9.50364489108324">
<ele>211.6</ele>
<time>2024-05-07T15:16:02Z</time>
</trkpt>
<trkpt lat="49.211212154477835" lon="9.50364681892097">
<ele>211.8</ele>
<time>2024-05-07T15:16:03Z</time>
</trkpt>
<trkpt lat="49.21124266460538" lon="9.503653524443507">
<ele>212</ele>
<time>2024-05-07T15:16:04Z</time>
</trkpt>
<trkpt lat="49.21127317473292" lon="9.503662073984742">
<ele>212.4</ele>
<time>2024-05-07T15:16:05Z</time>
</trkpt>
<trkpt lat="49.21129982918501" lon="9.503669701516628">
<ele>212.6</ele>
<time>2024-05-07T15:16:06Z</time>
</trkpt>
<trkpt lat="49.21133419498801" lon="9.50368881225586">
<ele>212.8</ele>
<time>2024-05-07T15:16:07Z</time>
</trkpt>
<trkpt lat="49.21138381585479" lon="9.503694511950016">
<ele>213</ele>
<time>2024-05-07T15:16:08Z</time>
</trkpt>
<trkpt lat="49.211486745625734" lon="9.503769865259528">
<ele>213.2</ele>
<time>2024-05-07T15:16:11Z</time>
</trkpt>
<trkpt lat="49.211505856364965" lon="9.50376508757472">
<ele>213.6</ele>
<time>2024-05-07T15:16:12Z</time>
</trkpt>
<trkpt lat="49.21154022216797" lon="9.50374119915068">
<ele>213.8</ele>
<time>2024-05-07T15:16:13Z</time>
</trkpt>
<trkpt lat="49.21157450415194" lon="9.50376508757472">
<ele>214</ele>
<time>2024-05-07T15:16:14Z</time>
</trkpt>
<trkpt lat="49.21163552440703" lon="9.503689734265208">
<ele>214.2</ele>
<time>2024-05-07T15:16:15Z</time>
</trkpt>
<trkpt lat="49.21171951107681" lon="9.503649668768048">
<ele>214.6</ele>
<time>2024-05-07T15:16:16Z</time>
</trkpt>
<trkpt lat="49.21177290380001" lon="9.503635335713623">
<ele>214.8</ele>
<time>2024-05-07T15:16:17Z</time>
</trkpt>
<trkpt lat="49.211822440847754" lon="9.503620080649853">
<ele>215</ele>
<time>2024-05-07T15:16:18Z</time>
</trkpt>
<trkpt lat="49.21185680665076" lon="9.503615302965043">
<ele>215.2</ele>
<time>2024-05-07T15:16:19Z</time>
</trkpt>
<trkpt lat="49.21189494431019" lon="9.50360675342381">
<ele>215.4</ele>
<time>2024-05-07T15:16:20Z</time>
</trkpt>
<trkpt lat="49.21193308196962" lon="9.503600047901273">
<ele>215.6</ele>
<time>2024-05-07T15:16:21Z</time>
</trkpt>
<trkpt lat="49.21197507530451" lon="9.503595270216463">
<ele>215.8</ele>
<time>2024-05-07T15:16:22Z</time>
</trkpt>
<trkpt lat="49.21200935728848" lon="9.50358864851296">
<ele>216</ele>
<time>2024-05-07T15:16:23Z</time>
</trkpt>
<trkpt lat="49.21204372309148" lon="9.503582948818805">
<ele>216.2</ele>
<time>2024-05-07T15:16:24Z</time>
</trkpt>
<trkpt lat="49.212078088894486" lon="9.503578171133997">
<ele>216.6</ele>
<time>2024-05-07T15:16:25Z</time>
</trkpt>
<trkpt lat="49.21210474334657" lon="9.503571465611458">
<ele>216.8</ele>
<time>2024-05-07T15:16:26Z</time>
</trkpt>
<trkpt lat="49.21212762594223" lon="9.503562916070225">
<ele>217</ele>
<time>2024-05-07T15:16:27Z</time>
</trkpt>
<trkpt lat="49.21215050853789" lon="9.503558138385417">
<ele>217.4</ele>
<time>2024-05-07T15:16:28Z</time>
</trkpt>
<trkpt lat="49.21217339113355" lon="9.503560066223145">
<ele>217.6</ele>
<time>2024-05-07T15:16:29Z</time>
</trkpt>
<trkpt lat="49.21219250187278" lon="9.50356476008892">
<ele>217.8</ele>
<time>2024-05-07T15:16:30Z</time>
</trkpt>
<trkpt lat="49.21222686767578" lon="9.50356668792665">
<ele>218</ele>
<time>2024-05-07T15:16:31Z</time>
</trkpt>
<trkpt lat="49.212257377803326" lon="9.503558138385417">
<ele>218.2</ele>
<time>2024-05-07T15:16:32Z</time>
</trkpt>
<trkpt lat="49.2122916597873" lon="9.5035485830158">
<ele>218.6</ele>
<time>2024-05-07T15:16:33Z</time>
</trkpt>
<trkpt lat="49.21232216991484" lon="9.503540033474565">
<ele>218.8</ele>
<time>2024-05-07T15:16:34Z</time>
</trkpt>
<trkpt lat="49.212356535717845" lon="9.503535255789757">
<ele>219</ele>
<time>2024-05-07T15:16:35Z</time>
</trkpt>
<trkpt lat="49.212394673377275" lon="9.503530478104947">
<ele>219.4</ele>
<time>2024-05-07T15:16:36Z</time>
</trkpt>
<trkpt lat="49.21242518350482" lon="9.50352855026722">
<ele>219.8</ele>
<time>2024-05-07T15:16:37Z</time>
</trkpt>
<trkpt lat="49.21245954930782" lon="9.503515223041177">
<ele>220</ele>
<time>2024-05-07T15:16:38Z</time>
</trkpt>
<trkpt lat="49.21248620375991" lon="9.503499967977405">
<ele>220.4</ele>
<time>2024-05-07T15:16:39Z</time>
</trkpt>
<trkpt lat="49.212512942031026" lon="9.50348848477006">
<ele>220.6</ele>
<time>2024-05-07T15:16:40Z</time>
</trkpt>
<trkpt lat="49.21253959648311" lon="9.503475157544017">
<ele>221</ele>
<time>2024-05-07T15:16:41Z</time>
</trkpt>
<trkpt lat="49.21256247907877" lon="9.503461830317974">
<ele>221.2</ele>
<time>2024-05-07T15:16:42Z</time>
</trkpt>
<trkpt lat="49.21258544549346" lon="9.503446575254202">
<ele>221.6</ele>
<time>2024-05-07T15:16:43Z</time>
</trkpt>
<trkpt lat="49.212612099945545" lon="9.503430314362047">
<ele>222</ele>
<time>2024-05-07T15:16:44Z</time>
</trkpt>
<trkpt lat="49.21264646574855" lon="9.50341028161347">
<ele>222.2</ele>
<time>2024-05-07T15:16:45Z</time>
</trkpt>
<trkpt lat="49.21267697587609" lon="9.503393098711967">
<ele>222.6</ele>
<time>2024-05-07T15:16:46Z</time>
</trkpt>
<trkpt lat="49.212711257860065" lon="9.503374993801115">
<ele>222.8</ele>
<time>2024-05-07T15:16:47Z</time>
</trkpt>
<trkpt lat="49.21274947933853" lon="9.503356888890266">
<ele>223.2</ele>
<time>2024-05-07T15:16:48Z</time>
</trkpt>
<trkpt lat="49.21277998946607" lon="9.503334928303955">
<ele>223.4</ele>
<time>2024-05-07T15:16:49Z</time>
</trkpt>
<trkpt lat="49.21280664391816" lon="9.503314895555375">
<ele>223.6</ele>
<time>2024-05-07T15:16:50Z</time>
</trkpt>
<trkpt lat="49.2128371540457" lon="9.50329016894102">
<ele>224</ele>
<time>2024-05-07T15:16:51Z</time>
</trkpt>
<trkpt lat="49.212867664173245" lon="9.503261502832174">
<ele>224.2</ele>
<time>2024-05-07T15:16:52Z</time>
</trkpt>
<trkpt lat="49.21289440244436" lon="9.50323007069528">
<ele>224.4</ele>
<time>2024-05-07T15:16:53Z</time>
</trkpt>
<trkpt lat="49.21291728504002" lon="9.503196710720658">
<ele>224.8</ele>
<time>2024-05-07T15:16:54Z</time>
</trkpt>
<trkpt lat="49.21294402331114" lon="9.503161422908306">
<ele>225</ele>
<time>2024-05-07T15:16:55Z</time>
</trkpt>
<trkpt lat="49.212970677763224" lon="9.503127979114652">
<ele>225.2</ele>
<time>2024-05-07T15:16:56Z</time>
</trkpt>
<trkpt lat="49.21299356035888" lon="9.503094619140027">
<ele>225.6</ele>
<time>2024-05-07T15:16:57Z</time>
</trkpt>
<trkpt lat="49.21301644295454" lon="9.503058409318328">
<ele>225.8</ele>
<time>2024-05-07T15:16:58Z</time>
</trkpt>
<trkpt lat="49.2130393255502" lon="9.503023121505976">
<ele>226</ele>
<time>2024-05-07T15:16:59Z</time>
</trkpt>
<trkpt lat="49.21306220814586" lon="9.502989761531351">
<ele>226.4</ele>
<time>2024-05-07T15:17:00Z</time>
</trkpt>
<trkpt lat="49.21308517456055" lon="9.502948690205812">
<ele>226.8</ele>
<time>2024-05-07T15:17:01Z</time>
</trkpt>
<trkpt lat="49.21311182901263" lon="9.502908624708652">
<ele>227</ele>
<time>2024-05-07T15:17:02Z</time>
</trkpt>
<trkpt lat="49.21313093975186" lon="9.502869565039871">
<ele>227.4</ele>
<time>2024-05-07T15:17:03Z</time>
</trkpt>
<trkpt lat="49.21314619481563" lon="9.502826649695637">
<ele>227.6</ele>
<time>2024-05-07T15:17:04Z</time>
</trkpt>
<trkpt lat="49.213165221735835" lon="9.502781806513669">
<ele>228</ele>
<time>2024-05-07T15:17:05Z</time>
</trkpt>
<trkpt lat="49.21318047679961" lon="9.50273796916008">
<ele>228.2</ele>
<time>2024-05-07T15:17:06Z</time>
</trkpt>
<trkpt lat="49.21319958753884" lon="9.502693125978112">
<ele>228.4</ele>
<time>2024-05-07T15:17:07Z</time>
</trkpt>
<trkpt lat="49.21321484260261" lon="9.502646438777449">
<ele>228.8</ele>
<time>2024-05-07T15:17:08Z</time>
</trkpt>
<trkpt lat="49.21323009766638" lon="9.50260159559548">
<ele>229</ele>
<time>2024-05-07T15:17:09Z</time>
</trkpt>
<trkpt lat="49.213241497054696" lon="9.502554824575782">
<ele>229.2</ele>
<time>2024-05-07T15:17:10Z</time>
</trkpt>
<trkpt lat="49.2132568359375" lon="9.502510065212846">
<ele>229.4</ele>
<time>2024-05-07T15:17:11Z</time>
</trkpt>
<trkpt lat="49.21327209100127" lon="9.502463294193149">
<ele>229.6</ele>
<time>2024-05-07T15:17:12Z</time>
</trkpt>
<trkpt lat="49.21329111792147" lon="9.50241845101118">
<ele>229.8</ele>
<time>2024-05-07T15:17:13Z</time>
</trkpt>
<trkpt lat="49.21330260112882" lon="9.502371763810515">
<ele>230</ele>
<time>2024-05-07T15:17:14Z</time>
</trkpt>
<trkpt lat="49.213321628049016" lon="9.502321220934393">
<ele>230.2</ele>
<time>2024-05-07T15:17:15Z</time>
</trkpt>
<trkpt lat="49.21333688311279" lon="9.502275455743074">
<ele>230.4</ele>
<time>2024-05-07T15:17:16Z</time>
</trkpt>
<trkpt lat="49.21335213817656" lon="9.502226756885648">
<ele>230.6</ele>
<time>2024-05-07T15:17:17Z</time>
</trkpt>
<trkpt lat="49.21336739324033" lon="9.502178141847253">
<ele>230.8</ele>
<time>2024-05-07T15:17:18Z</time>
</trkpt>
<trkpt lat="49.213382648304105" lon="9.502131454646587">
<ele>231.2</ele>
<time>2024-05-07T15:17:19Z</time>
</trkpt>
<trkpt lat="49.21339790336788" lon="9.50208468362689">
<ele>231.4</ele>
<time>2024-05-07T15:17:20Z</time>
</trkpt>
<trkpt lat="49.21341315843165" lon="9.502037996426225">
<ele>231.6</ele>
<time>2024-05-07T15:17:21Z</time>
</trkpt>
<trkpt lat="49.21342849731445" lon="9.501991225406528">
<ele>232</ele>
<time>2024-05-07T15:17:22Z</time>
</trkpt>
<trkpt lat="49.213443752378225" lon="9.501945460215213">
<ele>232.2</ele>
<time>2024-05-07T15:17:23Z</time>
</trkpt>
<trkpt lat="49.21345515176654" lon="9.501898689195514">
<ele>232.6</ele>
<time>2024-05-07T15:17:24Z</time>
</trkpt>
<trkpt lat="49.21347426250577" lon="9.501854851841928">
<ele>233</ele>
<time>2024-05-07T15:17:25Z</time>
</trkpt>
<trkpt lat="49.21348951756954" lon="9.50181000865996">
<ele>233.2</ele>
<time>2024-05-07T15:17:26Z</time>
</trkpt>
<trkpt lat="49.213504772633314" lon="9.501766171306372">
<ele>233.6</ele>
<time>2024-05-07T15:17:27Z</time>
</trkpt>
<trkpt lat="49.213520027697086" lon="9.501720406115057">
<ele>234</ele>
<time>2024-05-07T15:17:28Z</time>
</trkpt>
<trkpt lat="49.213539054617286" lon="9.501673635095358">
<ele>234.2</ele>
<time>2024-05-07T15:17:29Z</time>
</trkpt>
<trkpt lat="49.21355430968106" lon="9.501625020056965">
<ele>234.6</ele>
<time>2024-05-07T15:17:30Z</time>
</trkpt>
<trkpt lat="49.21357342042029" lon="9.501576405018568">
<ele>234.8</ele>
<time>2024-05-07T15:17:31Z</time>
</trkpt>
<trkpt lat="49.21359630301595" lon="9.501526784151793">
<ele>235.2</ele>
<time>2024-05-07T15:17:32Z</time>
</trkpt>
<trkpt lat="49.213619185611606" lon="9.501481940969825">
<ele>235.4</ele>
<time>2024-05-07T15:17:33Z</time>
</trkpt>
<trkpt lat="49.21363829635084" lon="9.501436175778508">
<ele>235.8</ele>
<time>2024-05-07T15:17:34Z</time>
</trkpt>
<trkpt lat="49.213661178946495" lon="9.50139326043427">
<ele>236</ele>
<time>2024-05-07T15:17:35Z</time>
</trkpt>
<trkpt lat="49.21368783339858" lon="9.50135512277484">
<ele>236.2</ele>
<time>2024-05-07T15:17:36Z</time>
</trkpt>
<trkpt lat="49.21371071599424" lon="9.501321762800217">
<ele>236.6</ele>
<time>2024-05-07T15:17:37Z</time>
</trkpt>
<trkpt lat="49.21372982673347" lon="9.501290246844292">
<ele>236.8</ele>
<time>2024-05-07T15:17:38Z</time>
</trkpt>
<trkpt lat="49.21377182006836" lon="9.501259736716747">
<ele>237</ele>
<time>2024-05-07T15:17:39Z</time>
</trkpt>
<trkpt lat="49.213802330195904" lon="9.50123207643628">
<ele>237.2</ele>
<time>2024-05-07T15:17:40Z</time>
</trkpt>
<trkpt lat="49.21383284032345" lon="9.501206343993545">
<ele>237.6</ele>
<time>2024-05-07T15:17:41Z</time>
</trkpt>
<trkpt lat="49.213859494775534" lon="9.501181533560157">
<ele>237.8</ele>
<time>2024-05-07T15:17:42Z</time>
</trkpt>
<trkpt lat="49.21389000490308" lon="9.50115965679288">
<ele>238</ele>
<time>2024-05-07T15:17:43Z</time>
</trkpt>
<trkpt lat="49.21392051503062" lon="9.5011396240443">
<ele>238.2</ele>
<time>2024-05-07T15:17:44Z</time>
</trkpt>
<trkpt lat="49.2139511089772" lon="9.50111959129572">
<ele>238.4</ele>
<time>2024-05-07T15:17:45Z</time>
</trkpt>
<trkpt lat="49.21398161910474" lon="9.501103330403566">
<ele>238.6</ele>
<time>2024-05-07T15:17:46Z</time>
</trkpt>
<trkpt lat="49.214015901088715" lon="9.501085225492716">
<ele>238.8</ele>
<time>2024-05-07T15:17:47Z</time>
</trkpt>
<trkpt lat="49.21405026689172" lon="9.501069970428944">
<ele>239</ele>
<time>2024-05-07T15:17:48Z</time>
</trkpt>
<trkpt lat="49.21408840455115" lon="9.501054715365171">
<ele>239.2</ele>
<time>2024-05-07T15:17:49Z</time>
</trkpt>
<trkpt lat="49.21412277035415" lon="9.501041388139129">
<ele>239.4</ele>
<time>2024-05-07T15:17:50Z</time>
</trkpt>
<trkpt lat="49.21415705233812" lon="9.501028060913086">
<ele>239.6</ele>
<time>2024-05-07T15:17:51Z</time>
</trkpt>
<trkpt lat="49.21419141814113" lon="9.501013727858664">
<ele>239.8</ele>
<time>2024-05-07T15:17:52Z</time>
</trkpt>
<trkpt lat="49.21422955580056" lon="9.501001322641969">
<ele>239.8</ele>
<time>2024-05-07T15:17:53Z</time>
</trkpt>
<trkpt lat="49.21426383778453" lon="9.500989839434624">
<ele>239.8</ele>
<time>2024-05-07T15:17:54Z</time>
</trkpt>
<trkpt lat="49.21429820358753" lon="9.50097844004631">
<ele>240</ele>
<time>2024-05-07T15:17:55Z</time>
</trkpt>
<trkpt lat="49.21433634124696" lon="9.500969806686044">
<ele>240</ele>
<time>2024-05-07T15:17:56Z</time>
</trkpt>
<trkpt lat="49.21437833458185" lon="9.50095647946">
<ele>240.2</ele>
<time>2024-05-07T15:17:57Z</time>
</trkpt>
<trkpt lat="49.214412616565824" lon="9.50093644671142">
<ele>240.4</ele>
<time>2024-05-07T15:17:58Z</time>
</trkpt>
<trkpt lat="49.21444698236883" lon="9.500921191647649">
<ele>240.4</ele>
<time>2024-05-07T15:17:59Z</time>
</trkpt>
<trkpt lat="49.21448134817183" lon="9.500907864421606">
<ele>240.6</ele>
<time>2024-05-07T15:18:00Z</time>
</trkpt>
<trkpt lat="49.2145156301558" lon="9.50089638121426">
<ele>240.8</ele>
<time>2024-05-07T15:18:01Z</time>
</trkpt>
<trkpt lat="49.214546140283346" lon="9.500884981825948">
<ele>241</ele>
<time>2024-05-07T15:18:02Z</time>
</trkpt>
<trkpt lat="49.21458427794278" lon="9.500873498618605">
<ele>241.2</ele>
<time>2024-05-07T15:18:03Z</time>
</trkpt>
<trkpt lat="49.21462241560221" lon="9.500863021239638">
<ele>241.4</ele>
<time>2024-05-07T15:18:04Z</time>
</trkpt>
<trkpt lat="49.21466063708067" lon="9.500855393707752">
<ele>241.6</ele>
<time>2024-05-07T15:18:05Z</time>
</trkpt>
<trkpt lat="49.2146987747401" lon="9.500848688185217">
<ele>241.8</ele>
<time>2024-05-07T15:18:06Z</time>
</trkpt>
<trkpt lat="49.21473305672407" lon="9.50084013864398">
<ele>242</ele>
<time>2024-05-07T15:18:07Z</time>
</trkpt>
<trkpt lat="49.2147711943835" lon="9.500831589102743">
<ele>242.2</ele>
<time>2024-05-07T15:18:08Z</time>
</trkpt>
<trkpt lat="49.214805560186505" lon="9.500822955742478">
<ele>242.4</ele>
<time>2024-05-07T15:18:09Z</time>
</trkpt>
<trkpt lat="49.21483992598951" lon="9.500813484191896">
<ele>242.6</ele>
<time>2024-05-07T15:18:10Z</time>
</trkpt>
<trkpt lat="49.21487806364894" lon="9.500802922993898">
<ele>242.6</ele>
<time>2024-05-07T15:18:11Z</time>
</trkpt>
<trkpt lat="49.21491234563291" lon="9.500795295462012">
<ele>242.8</ele>
<time>2024-05-07T15:18:12Z</time>
</trkpt>
<trkpt lat="49.214946711435914" lon="9.500784818083048">
<ele>243</ele>
<time>2024-05-07T15:18:13Z</time>
</trkpt>
<trkpt lat="49.21498107723892" lon="9.500775262713432">
<ele>243.2</ele>
<time>2024-05-07T15:18:14Z</time>
</trkpt>
<trkpt lat="49.21501921489835" lon="9.500766713172196">
<ele>243.4</ele>
<time>2024-05-07T15:18:15Z</time>
</trkpt>
<trkpt lat="49.21505735255778" lon="9.500756235793231">
<ele>243.6</ele>
<time>2024-05-07T15:18:16Z</time>
</trkpt>
<trkpt lat="49.21509549021721" lon="9.500746680423616">
<ele>243.6</ele>
<time>2024-05-07T15:18:17Z</time>
</trkpt>
<trkpt lat="49.21513362787664" lon="9.50073997490108">
<ele>243.8</ele>
<time>2024-05-07T15:18:18Z</time>
</trkpt>
<trkpt lat="49.21517562121153" lon="9.500733353197576">
<ele>244</ele>
<time>2024-05-07T15:18:19Z</time>
</trkpt>
<trkpt lat="49.2152099031955" lon="9.500726647675036">
<ele>244.2</ele>
<time>2024-05-07T15:18:20Z</time>
</trkpt>
<trkpt lat="49.21525189653039" lon="9.50072186999023">
<ele>244.4</ele>
<time>2024-05-07T15:18:21Z</time>
</trkpt>
<trkpt lat="49.21529380604625" lon="9.500717092305422">
<ele>244.6</ele>
<time>2024-05-07T15:18:22Z</time>
</trkpt>
<trkpt lat="49.21533202752471" lon="9.500709464773536">
<ele>244.6</ele>
<time>2024-05-07T15:18:23Z</time>
</trkpt>
<trkpt lat="49.21537016518414" lon="9.50070183724165">
<ele>244.8</ele>
<time>2024-05-07T15:18:24Z</time>
</trkpt>
<trkpt lat="49.21540830284357" lon="9.500691359862683">
<ele>244.8</ele>
<time>2024-05-07T15:18:25Z</time>
</trkpt>
<trkpt lat="49.215446440503" lon="9.500686582177876">
<ele>245</ele>
<time>2024-05-07T15:18:26Z</time>
</trkpt>
<trkpt lat="49.21548072248697" lon="9.500679960474372">
<ele>245.2</ele>
<time>2024-05-07T15:18:27Z</time>
</trkpt>
<trkpt lat="49.215515088289976" lon="9.500677026808262">
<ele>245.2</ele>
<time>2024-05-07T15:18:28Z</time>
</trkpt>
<trkpt lat="49.21554945409298" lon="9.500673254951836">
<ele>245.4</ele>
<time>2024-05-07T15:18:29Z</time>
</trkpt>
<trkpt lat="49.21558759175241" lon="9.500668477267029">
<ele>245.6</ele>
<time>2024-05-07T15:18:30Z</time>
</trkpt>
<trkpt lat="49.21562572941184" lon="9.50066369958222">
<ele>245.8</ele>
<time>2024-05-07T15:18:31Z</time>
</trkpt>
<trkpt lat="49.21566009521485" lon="9.500655150040984">
<ele>246</ele>
<time>2024-05-07T15:18:32Z</time>
</trkpt>
<trkpt lat="49.215694377198815" lon="9.500650372356176">
<ele>246.2</ele>
<time>2024-05-07T15:18:33Z</time>
</trkpt>
<trkpt lat="49.21572488732636" lon="9.500646516680716">
<ele>246.6</ele>
<time>2024-05-07T15:18:34Z</time>
</trkpt>
<trkpt lat="49.215755397453904" lon="9.50064182281494">
<ele>246.8</ele>
<time>2024-05-07T15:18:35Z</time>
</trkpt>
<trkpt lat="49.21578590758145" lon="9.500637045130134">
<ele>247</ele>
<time>2024-05-07T15:18:36Z</time>
</trkpt>
<trkpt lat="49.21581641770899" lon="9.500631261616943">
<ele>247.2</ele>
<time>2024-05-07T15:18:37Z</time>
</trkpt>
<trkpt lat="49.21584315598011" lon="9.500626483932136">
<ele>247.4</ele>
<time>2024-05-07T15:18:38Z</time>
</trkpt>
<trkpt lat="49.21587752178311" lon="9.500619862228632">
<ele>247.6</ele>
<time>2024-05-07T15:18:39Z</time>
</trkpt>
<trkpt lat="49.215911803767085" lon="9.500613156706097">
<ele>247.8</ele>
<time>2024-05-07T15:18:40Z</time>
</trkpt>
<trkpt lat="49.21594994142651" lon="9.50060653500259">
<ele>248</ele>
<time>2024-05-07T15:18:41Z</time>
</trkpt>
<trkpt lat="49.21598430722952" lon="9.500599829480052">
<ele>248.2</ele>
<time>2024-05-07T15:18:42Z</time>
</trkpt>
<trkpt lat="49.21602244488895" lon="9.500593123957517">
<ele>248.2</ele>
<time>2024-05-07T15:18:43Z</time>
</trkpt>
<trkpt lat="49.21605681069195" lon="9.5005835685879">
<ele>248.4</ele>
<time>2024-05-07T15:18:44Z</time>
</trkpt>
<trkpt lat="49.21609109267592" lon="9.500575019046664">
<ele>248.6</ele>
<time>2024-05-07T15:18:45Z</time>
</trkpt>
<trkpt lat="49.21612545847893" lon="9.50056646950543">
<ele>248.8</ele>
<time>2024-05-07T15:18:46Z</time>
</trkpt>
<trkpt lat="49.21616359613836" lon="9.500559763982892">
<ele>248.8</ele>
<time>2024-05-07T15:18:47Z</time>
</trkpt>
<trkpt lat="49.21619796194136" lon="9.500553058460357">
<ele>249</ele>
<time>2024-05-07T15:18:48Z</time>
</trkpt>
<trkpt lat="49.216228472068906" lon="9.500550208613276">
<ele>249.2</ele>
<time>2024-05-07T15:18:49Z</time>
</trkpt>
<trkpt lat="49.21626275405288" lon="9.500545430928469">
<ele>249.4</ele>
<time>2024-05-07T15:18:50Z</time>
</trkpt>
<trkpt lat="49.21633140183985" lon="9.500530175864697">
<ele>249.6</ele>
<time>2024-05-07T15:18:52Z</time>
</trkpt>
<trkpt lat="49.21636199578643" lon="9.50052447617054">
<ele>249.8</ele>
<time>2024-05-07T15:18:53Z</time>
</trkpt>
<trkpt lat="49.2163962777704" lon="9.500519698485732">
<ele>250</ele>
<time>2024-05-07T15:18:54Z</time>
</trkpt>
<trkpt lat="49.2164306435734" lon="9.500519698485732">
<ele>250.2</ele>
<time>2024-05-07T15:18:55Z</time>
</trkpt>
<trkpt lat="49.216468781232834" lon="9.500516848638654">
<ele>250.4</ele>
<time>2024-05-07T15:18:56Z</time>
</trkpt>
<trkpt lat="49.216503063216805" lon="9.500516848638654">
<ele>250.6</ele>
<time>2024-05-07T15:18:57Z</time>
</trkpt>
<trkpt lat="49.21654128469527" lon="9.500518776476383">
<ele>250.8</ele>
<time>2024-05-07T15:18:58Z</time>
</trkpt>
<trkpt lat="49.2165794223547" lon="9.50052640400827">
<ele>250.8</ele>
<time>2024-05-07T15:18:59Z</time>
</trkpt>
<trkpt lat="49.21661756001413" lon="9.500536881387234">
<ele>251</ele>
<time>2024-05-07T15:19:00Z</time>
</trkpt>
<trkpt lat="49.21665569767356" lon="9.500548280775549">
<ele>251</ele>
<time>2024-05-07T15:19:01Z</time>
</trkpt>
<trkpt lat="49.21669769100845" lon="9.500559763982892">
<ele>251</ele>
<time>2024-05-07T15:19:02Z</time>
</trkpt>
<trkpt lat="49.216739600524306" lon="9.500573091208937">
<ele>251</ele>
<time>2024-05-07T15:19:03Z</time>
</trkpt>
<trkpt lat="49.21678536571562" lon="9.500591196119784">
<ele>251</ele>
<time>2024-05-07T15:19:04Z</time>
</trkpt>
<trkpt lat="49.21682735905051" lon="9.500611228868364">
<ele>251</ele>
<time>2024-05-07T15:19:05Z</time>
</trkpt>
<trkpt lat="49.21687697991729" lon="9.500630339607596">
<ele>251</ele>
<time>2024-05-07T15:19:06Z</time>
</trkpt>
<trkpt lat="49.21692651696503" lon="9.500648444518449">
<ele>251</ele>
<time>2024-05-07T15:19:07Z</time>
</trkpt>
<trkpt lat="49.21697613783181" lon="9.500666549429296">
<ele>250.8</ele>
<time>2024-05-07T15:19:08Z</time>
</trkpt>
<trkpt lat="49.21702567487955" lon="9.50068473815918">
<ele>250.8</ele>
<time>2024-05-07T15:19:09Z</time>
</trkpt>
<trkpt lat="49.217079151421785" lon="9.500706614926456">
<ele>250.6</ele>
<time>2024-05-07T15:19:10Z</time>
</trkpt>
<trkpt lat="49.21713254414499" lon="9.500726647675036">
<ele>250.4</ele>
<time>2024-05-07T15:19:11Z</time>
</trkpt>
<trkpt lat="49.21718970872462" lon="9.500749530270696">
<ele>250.2</ele>
<time>2024-05-07T15:19:12Z</time>
</trkpt>
<trkpt lat="49.21724695712328" lon="9.500769563019276">
<ele>250.2</ele>
<time>2024-05-07T15:19:13Z</time>
</trkpt>
<trkpt lat="49.21730797737837" lon="9.500791523605583">
<ele>250</ele>
<time>2024-05-07T15:19:14Z</time>
</trkpt>
<trkpt lat="49.21736899763346" lon="9.500813484191896">
<ele>249.8</ele>
<time>2024-05-07T15:19:15Z</time>
</trkpt>
<trkpt lat="49.21743010170758" lon="9.50083821080625">
<ele>249.8</ele>
<time>2024-05-07T15:19:16Z</time>
</trkpt>
<trkpt lat="49.217494893819094" lon="9.500863021239638">
<ele>249.6</ele>
<time>2024-05-07T15:19:17Z</time>
</trkpt>
<trkpt lat="49.21755976974964" lon="9.500886909663675">
<ele>249.4</ele>
<time>2024-05-07T15:19:18Z</time>
</trkpt>
<trkpt lat="49.217628417536616" lon="9.500914569944143">
<ele>249.2</ele>
<time>2024-05-07T15:19:19Z</time>
</trkpt>
<trkpt lat="49.21769706532359" lon="9.500943152233958">
<ele>249</ele>
<time>2024-05-07T15:19:20Z</time>
</trkpt>
<trkpt lat="49.217769568786025" lon="9.500969806686044">
<ele>248.8</ele>
<time>2024-05-07T15:19:21Z</time>
</trkpt>
<trkpt lat="49.21784207224846" lon="9.50099847279489">
<ele>248.6</ele>
<time>2024-05-07T15:19:22Z</time>
</trkpt>
<trkpt lat="49.21791834756732" lon="9.501027055084704">
<ele>248.2</ele>
<time>2024-05-07T15:19:23Z</time>
</trkpt>
<trkpt lat="49.21799847856164" lon="9.5010566432029">
<ele>248</ele>
<time>2024-05-07T15:19:24Z</time>
</trkpt>
<trkpt lat="49.21808238141239" lon="9.501088075339794">
<ele>247.6</ele>
<time>2024-05-07T15:19:25Z</time>
</trkpt>
<trkpt lat="49.21817013993859" lon="9.501121519133449">
<ele>247.2</ele>
<time>2024-05-07T15:19:26Z</time>
</trkpt>
<trkpt lat="49.2182578984648" lon="9.501152951270342">
<ele>246.8</ele>
<time>2024-05-07T15:19:27Z</time>
</trkpt>
<trkpt lat="49.21835705637932" lon="9.50117968954146">
<ele>246.2</ele>
<time>2024-05-07T15:19:28Z</time>
</trkpt>
<trkpt lat="49.2184600699693" lon="9.501203494146466">
<ele>245.8</ele>
<time>2024-05-07T15:19:29Z</time>
</trkpt>
<trkpt lat="49.218559227883816" lon="9.501224448904397">
<ele>245.2</ele>
<time>2024-05-07T15:19:30Z</time>
</trkpt>
<trkpt lat="49.21866601333022" lon="9.501241631805897">
<ele>244.8</ele>
<time>2024-05-07T15:19:31Z</time>
</trkpt>
<trkpt lat="49.218776654452085" lon="9.501261664554477">
<ele>244.2</ele>
<time>2024-05-07T15:19:32Z</time>
</trkpt>
<trkpt lat="49.21888343989849" lon="9.501276919618247">
<ele>243.6</ele>
<time>2024-05-07T15:19:33Z</time>
</trkpt>
<trkpt lat="49.218994081020355" lon="9.501299802213907">
<ele>243</ele>
<time>2024-05-07T15:19:34Z</time>
</trkpt>
<trkpt lat="49.21910857781768" lon="9.501326540485024">
<ele>242.2</ele>
<time>2024-05-07T15:19:35Z</time>
</trkpt>
<trkpt lat="49.21922299079597" lon="9.501337017863989">
<ele>241.6</ele>
<time>2024-05-07T15:19:36Z</time>
</trkpt>
<trkpt lat="49.21930689364672" lon="9.50135512277484">
<ele>240.8</ele>
<time>2024-05-07T15:19:37Z</time>
</trkpt>
<trkpt lat="49.219428934156895" lon="9.501381861045957">
<ele>240</ele>
<time>2024-05-07T15:19:38Z</time>
</trkpt>
<trkpt lat="49.21951292082667" lon="9.501395188272">
<ele>239.2</ele>
<time>2024-05-07T15:19:39Z</time>
</trkpt>
<trkpt lat="49.219608306884766" lon="9.501409521326424">
<ele>238.6</ele>
<time>2024-05-07T15:19:40Z</time>
</trkpt>
<trkpt lat="49.21973797492683" lon="9.501418070867658">
<ele>237.8</ele>
<time>2024-05-07T15:19:41Z</time>
</trkpt>
<trkpt lat="49.21986001543701" lon="9.501448580995202">
<ele>237.2</ele>
<time>2024-05-07T15:19:42Z</time>
</trkpt>
<trkpt lat="49.219924891367555" lon="9.501422848552464">
<ele>236.4</ele>
<time>2024-05-07T15:19:43Z</time>
</trkpt>
<trkpt lat="49.219982139766216" lon="9.501388482749462">
<ele>235.8</ele>
<time>2024-05-07T15:19:44Z</time>
</trkpt>
<trkpt lat="49.22005078755319" lon="9.501378005370498">
<ele>235.4</ele>
<time>2024-05-07T15:19:45Z</time>
</trkpt>
<trkpt lat="49.22011180780828" lon="9.501370377838612">
<ele>235</ele>
<time>2024-05-07T15:19:46Z</time>
</trkpt>
<trkpt lat="49.22016520053148" lon="9.501357972621918">
<ele>234.6</ele>
<time>2024-05-07T15:19:47Z</time>
</trkpt>
<trkpt lat="49.22021482139826" lon="9.501350345090032">
<ele>234.4</ele>
<time>2024-05-07T15:19:48Z</time>
</trkpt>
<trkpt lat="49.220260586589575" lon="9.501341795548797">
<ele>234.2</ele>
<time>2024-05-07T15:19:49Z</time>
</trkpt>
<trkpt lat="49.22031020745635" lon="9.50133316218853">
<ele>234</ele>
<time>2024-05-07T15:19:50Z</time>
</trkpt>
<trkpt lat="49.22035597264767" lon="9.501328468322754">
<ele>233.8</ele>
<time>2024-05-07T15:19:51Z</time>
</trkpt>
<trkpt lat="49.22040550969541" lon="9.501324612647297">
<ele>233.8</ele>
<time>2024-05-07T15:19:52Z</time>
</trkpt>
<trkpt lat="49.220455130562186" lon="9.501319834962487">
<ele>233.6</ele>
<time>2024-05-07T15:19:53Z</time>
</trkpt>
<trkpt lat="49.22051237896085" lon="9.50131312943995">
<ele>233.6</ele>
<time>2024-05-07T15:19:54Z</time>
</trkpt>
<trkpt lat="49.22056577168405" lon="9.501303657889366">
<ele>233.6</ele>
<time>2024-05-07T15:19:55Z</time>
</trkpt>
<trkpt lat="49.22062293626368" lon="9.5012950245291">
<ele>233.6</ele>
<time>2024-05-07T15:19:56Z</time>
</trkpt>
<trkpt lat="49.220676412805915" lon="9.501284547150137">
<ele>233.4</ele>
<time>2024-05-07T15:19:57Z</time>
</trkpt>
<trkpt lat="49.22074506059289" lon="9.501273147761822">
<ele>233.4</ele>
<time>2024-05-07T15:19:58Z</time>
</trkpt>
<trkpt lat="49.22080993652344" lon="9.501263592392206">
<ele>233.2</ele>
<time>2024-05-07T15:19:59Z</time>
</trkpt>
<trkpt lat="49.22087858431041" lon="9.501256886869667">
<ele>233</ele>
<time>2024-05-07T15:20:00Z</time>
</trkpt>
<trkpt lat="49.22095485962927" lon="9.501246409490705">
<ele>233</ele>
<time>2024-05-07T15:20:01Z</time>
</trkpt>
<trkpt lat="49.22103876248002" lon="9.501236854121087">
<ele>232.8</ele>
<time>2024-05-07T15:20:02Z</time>
</trkpt>
<trkpt lat="49.22112652100623" lon="9.501228304579854">
<ele>232.4</ele>
<time>2024-05-07T15:20:03Z</time>
</trkpt>
<trkpt lat="49.22121427953243" lon="9.501219671219587">
<ele>232.2</ele>
<time>2024-05-07T15:20:04Z</time>
</trkpt>
<trkpt lat="49.221305809915066" lon="9.501210199669003">
<ele>231.8</ele>
<time>2024-05-07T15:20:05Z</time>
</trkpt>
<trkpt lat="49.22138971276581" lon="9.501206343993545">
<ele>231.4</ele>
<time>2024-05-07T15:20:06Z</time>
</trkpt>
<trkpt lat="49.22148887068033" lon="9.501201566308737">
<ele>230.8</ele>
<time>2024-05-07T15:20:07Z</time>
</trkpt>
<trkpt lat="49.221580484882" lon="9.501203494146466">
<ele>230.4</ele>
<time>2024-05-07T15:20:08Z</time>
</trkpt>
<trkpt lat="49.2216682434082" lon="9.501203494146466">
<ele>230</ele>
<time>2024-05-07T15:20:09Z</time>
</trkpt>
<trkpt lat="49.22174829058349" lon="9.501201566308737">
<ele>229.4</ele>
<time>2024-05-07T15:20:10Z</time>
</trkpt>
<trkpt lat="49.22183219343424" lon="9.50119972229004">
<ele>228.8</ele>
<time>2024-05-07T15:20:11Z</time>
</trkpt>
<trkpt lat="49.22191232442856" lon="9.501201566308737">
<ele>228.4</ele>
<time>2024-05-07T15:20:12Z</time>
</trkpt>
<trkpt lat="49.22198482789099" lon="9.501203494146466">
<ele>228</ele>
<time>2024-05-07T15:20:13Z</time>
</trkpt>
<trkpt lat="49.22206495888531" lon="9.501211121678352">
<ele>227.6</ele>
<time>2024-05-07T15:20:14Z</time>
</trkpt>
<trkpt lat="49.2221259791404" lon="9.501226376742125">
<ele>227.2</ele>
<time>2024-05-07T15:20:15Z</time>
</trkpt>
<trkpt lat="49.22219085507095" lon="9.501250265166163">
<ele>226.8</ele>
<time>2024-05-07T15:20:16Z</time>
</trkpt>
<trkpt lat="49.22225187532604" lon="9.501276919618247">
<ele>226.6</ele>
<time>2024-05-07T15:20:17Z</time>
</trkpt>
<trkpt lat="49.222312895581126" lon="9.501304579898717">
<ele>226.2</ele>
<time>2024-05-07T15:20:18Z</time>
</trkpt>
<trkpt lat="49.22236628830433" lon="9.501337939873338">
<ele>226</ele>
<time>2024-05-07T15:20:19Z</time>
</trkpt>
<trkpt lat="49.22242353670299" lon="9.501378005370498">
<ele>225.8</ele>
<time>2024-05-07T15:20:20Z</time>
</trkpt>
<trkpt lat="49.222473073750734" lon="9.50141522102058">
<ele>225.6</ele>
<time>2024-05-07T15:20:21Z</time>
</trkpt>
<trkpt lat="49.22252655029297" lon="9.501449503004553">
<ele>225.4</ele>
<time>2024-05-07T15:20:22Z</time>
</trkpt>
<trkpt lat="49.22257994301617" lon="9.501486718654633">
<ele>225.2</ele>
<time>2024-05-07T15:20:23Z</time>
</trkpt>
<trkpt lat="49.222629480063915" lon="9.501522006466985">
<ele>225.2</ele>
<time>2024-05-07T15:20:24Z</time>
</trkpt>
<trkpt lat="49.22267910093069" lon="9.501555366441607">
<ele>225</ele>
<time>2024-05-07T15:20:25Z</time>
</trkpt>
<trkpt lat="49.222728721797466" lon="9.50158973224461">
<ele>225</ele>
<time>2024-05-07T15:20:26Z</time>
</trkpt>
<trkpt lat="49.222827879711986" lon="9.50164790265262">
<ele>225</ele>
<time>2024-05-07T15:20:28Z</time>
</trkpt>
<trkpt lat="49.22287750057876" lon="9.501676484942436">
<ele>224.8</ele>
<time>2024-05-07T15:20:29Z</time>
</trkpt>
<trkpt lat="49.22293089330197" lon="9.501701295375824">
<ele>224.8</ele>
<time>2024-05-07T15:20:30Z</time>
</trkpt>
<trkpt lat="49.22298428602517" lon="9.501723255962132">
<ele>224.8</ele>
<time>2024-05-07T15:20:31Z</time>
</trkpt>
<trkpt lat="49.22303382307291" lon="9.501738511025906">
<ele>224.6</ele>
<time>2024-05-07T15:20:32Z</time>
</trkpt>
<trkpt lat="49.223087299615145" lon="9.50174806639552">
<ele>224.6</ele>
<time>2024-05-07T15:20:33Z</time>
</trkpt>
<trkpt lat="49.22314069233835" lon="9.501756615936756">
<ele>224.4</ele>
<time>2024-05-07T15:20:34Z</time>
</trkpt>
<trkpt lat="49.22319408506155" lon="9.501766171306372">
<ele>224.4</ele>
<time>2024-05-07T15:20:35Z</time>
</trkpt>
<trkpt lat="49.22324747778475" lon="9.501776648685336">
<ele>224.4</ele>
<time>2024-05-07T15:20:36Z</time>
</trkpt>
<trkpt lat="49.22329709865153" lon="9.501785198226573">
<ele>224.4</ele>
<time>2024-05-07T15:20:37Z</time>
</trkpt>
<trkpt lat="49.22335426323116" lon="9.501791903749108">
<ele>224.6</ele>
<time>2024-05-07T15:20:38Z</time>
</trkpt>
<trkpt lat="49.22340773977339" lon="9.501798609271646">
<ele>224.6</ele>
<time>2024-05-07T15:20:39Z</time>
</trkpt>
<trkpt lat="49.22346490435302" lon="9.501805230975153">
<ele>224.6</ele>
<time>2024-05-07T15:20:40Z</time>
</trkpt>
<trkpt lat="49.223518297076225" lon="9.501812858507035">
<ele>224.6</ele>
<time>2024-05-07T15:20:41Z</time>
</trkpt>
<trkpt lat="49.22357177361846" lon="9.501819564029574">
<ele>224.8</ele>
<time>2024-05-07T15:20:42Z</time>
</trkpt>
<trkpt lat="49.22362893819809" lon="9.501823419705032">
<ele>224.8</ele>
<time>2024-05-07T15:20:43Z</time>
</trkpt>
<trkpt lat="49.22368233092129" lon="9.50182811357081">
<ele>224.8</ele>
<time>2024-05-07T15:20:44Z</time>
</trkpt>
<trkpt lat="49.22373580746353" lon="9.50183004140854">
<ele>224.8</ele>
<time>2024-05-07T15:20:45Z</time>
</trkpt>
<trkpt lat="49.22379297204316" lon="9.50183004140854">
<ele>225</ele>
<time>2024-05-07T15:20:46Z</time>
</trkpt>
<trkpt lat="49.22384636476636" lon="9.501825263723733">
<ele>225</ele>
<time>2024-05-07T15:20:47Z</time>
</trkpt>
<trkpt lat="49.223895985633135" lon="9.501816714182496">
<ele>225</ele>
<time>2024-05-07T15:20:48Z</time>
</trkpt>
<trkpt lat="49.22394937835634" lon="9.501805230975153">
<ele>225</ele>
<time>2024-05-07T15:20:49Z</time>
</trkpt>
<trkpt lat="49.22399899922311" lon="9.501791903749108">
<ele>225.2</ele>
<time>2024-05-07T15:20:50Z</time>
</trkpt>
<trkpt lat="49.22404476441443" lon="9.501776648685336">
<ele>225.2</ele>
<time>2024-05-07T15:20:51Z</time>
</trkpt>
<trkpt lat="49.224094385281205" lon="9.501763321459292">
<ele>225.2</ele>
<time>2024-05-07T15:20:52Z</time>
</trkpt>
<trkpt lat="49.22414015047252" lon="9.501752844080327">
<ele>225.2</ele>
<time>2024-05-07T15:20:53Z</time>
</trkpt>
<trkpt lat="49.224189687520266" lon="9.50174806639552">
<ele>225.2</ele>
<time>2024-05-07T15:20:54Z</time>
</trkpt>
<trkpt lat="49.22423545271158" lon="9.50174991041422">
<ele>225.2</ele>
<time>2024-05-07T15:20:55Z</time>
</trkpt>
<trkpt lat="49.22427744604647" lon="9.5017699431628">
<ele>225.2</ele>
<time>2024-05-07T15:20:56Z</time>
</trkpt>
<trkpt lat="49.22431943938136" lon="9.501791903749108">
<ele>225.2</ele>
<time>2024-05-07T15:20:57Z</time>
</trkpt>
<trkpt lat="49.22436520457268" lon="9.501819564029574">
<ele>225.2</ele>
<time>2024-05-07T15:20:58Z</time>
</trkpt>
<trkpt lat="49.224407114088535" lon="9.501841524615884">
<ele>225.4</ele>
<time>2024-05-07T15:20:59Z</time>
</trkpt>
<trkpt lat="49.224445335567" lon="9.501859629526734">
<ele>225.4</ele>
<time>2024-05-07T15:21:00Z</time>
</trkpt>
<trkpt lat="49.22448347322643" lon="9.501865329220893">
<ele>225.6</ele>
<time>2024-05-07T15:21:01Z</time>
</trkpt>
<trkpt lat="49.2245177552104" lon="9.501852924004195">
<ele>225.6</ele>
<time>2024-05-07T15:21:02Z</time>
</trkpt>
<trkpt lat="49.2245521210134" lon="9.501836746931076">
<ele>225.6</ele>
<time>2024-05-07T15:21:03Z</time>
</trkpt>
<trkpt lat="49.224586486816406" lon="9.501812858507035">
<ele>225.6</ele>
<time>2024-05-07T15:21:04Z</time>
</trkpt>
<trkpt lat="49.224628396332264" lon="9.501791903749108">
<ele>225.8</ele>
<time>2024-05-07T15:21:05Z</time>
</trkpt>
<trkpt lat="49.224666533991694" lon="9.501766171306372">
<ele>225.8</ele>
<time>2024-05-07T15:21:06Z</time>
</trkpt>
<trkpt lat="49.224708527326584" lon="9.501743288710712">
<ele>225.8</ele>
<time>2024-05-07T15:21:07Z</time>
</trkpt>
<trkpt lat="49.224746664986014" lon="9.501716550439596">
<ele>226</ele>
<time>2024-05-07T15:21:08Z</time>
</trkpt>
<trkpt lat="49.224784802645445" lon="9.501685118302705">
<ele>226</ele>
<time>2024-05-07T15:21:09Z</time>
</trkpt>
<trkpt lat="49.22481916844845" lon="9.50164983049035">
<ele>226</ele>
<time>2024-05-07T15:21:10Z</time>
</trkpt>
<trkpt lat="49.224864933639765" lon="9.501616470515728">
<ele>226</ele>
<time>2024-05-07T15:21:11Z</time>
</trkpt>
<trkpt lat="49.224903071299195" lon="9.501578249037266">
<ele>226</ele>
<time>2024-05-07T15:21:12Z</time>
</trkpt>
<trkpt lat="49.224945064634085" lon="9.501544889062645">
<ele>226</ele>
<time>2024-05-07T15:21:13Z</time>
</trkpt>
<trkpt lat="49.22499460168183" lon="9.50151345692575">
<ele>226</ele>
<time>2024-05-07T15:21:14Z</time>
</trkpt>
<trkpt lat="49.22503659501672" lon="9.501482946798204">
<ele>226</ele>
<time>2024-05-07T15:21:15Z</time>
</trkpt>
<trkpt lat="49.22507473267615" lon="9.50145335868001">
<ele>226</ele>
<time>2024-05-07T15:21:16Z</time>
</trkpt>
<trkpt lat="49.22511672601104" lon="9.501428548246622">
<ele>226</ele>
<time>2024-05-07T15:21:17Z</time>
</trkpt>
<trkpt lat="49.225162491202354" lon="9.501403737813234">
<ele>225.8</ele>
<time>2024-05-07T15:21:18Z</time>
</trkpt>
<trkpt lat="49.22520440071821" lon="9.501378005370498">
<ele>225.8</ele>
<time>2024-05-07T15:21:19Z</time>
</trkpt>
<trkpt lat="49.22525016590953" lon="9.501351350918412">
<ele>225.8</ele>
<time>2024-05-07T15:21:20Z</time>
</trkpt>
<trkpt lat="49.22529601491988" lon="9.501321762800217">
<ele>225.8</ele>
<time>2024-05-07T15:21:21Z</time>
</trkpt>
<trkpt lat="49.225337924435735" lon="9.501291252672672">
<ele>225.8</ele>
<time>2024-05-07T15:21:22Z</time>
</trkpt>
<trkpt lat="49.225379917770624" lon="9.50125789269805">
<ele>225.8</ele>
<time>2024-05-07T15:21:23Z</time>
</trkpt>
<trkpt lat="49.225418055430055" lon="9.501223526895046">
<ele>225.8</ele>
<time>2024-05-07T15:21:24Z</time>
</trkpt>
<trkpt lat="49.225460048764944" lon="9.501186311244965">
<ele>225.8</ele>
<time>2024-05-07T15:21:25Z</time>
</trkpt>
<trkpt lat="49.225498186424375" lon="9.501148173585534">
<ele>225.8</ele>
<time>2024-05-07T15:21:26Z</time>
</trkpt>
<trkpt lat="49.22554009594023" lon="9.501112885773182">
<ele>225.8</ele>
<time>2024-05-07T15:21:27Z</time>
</trkpt>
<trkpt lat="49.22557060606778" lon="9.501073826104404">
<ele>225.8</ele>
<time>2024-05-07T15:21:28Z</time>
</trkpt>
<trkpt lat="49.225597344338894" lon="9.501027055084704">
<ele>225.8</ele>
<time>2024-05-07T15:21:29Z</time>
</trkpt>
<trkpt lat="49.22562408261001" lon="9.500973662361504">
<ele>225.8</ele>
<time>2024-05-07T15:21:30Z</time>
</trkpt>
<trkpt lat="49.2256507370621" lon="9.500921191647649">
<ele>226</ele>
<time>2024-05-07T15:21:31Z</time>
</trkpt>
<trkpt lat="49.225673619657755" lon="9.500875426456332">
<ele>226</ele>
<time>2024-05-07T15:21:32Z</time>
</trkpt>
<trkpt lat="49.22568887472153" lon="9.500831589102743">
<ele>226.2</ele>
<time>2024-05-07T15:21:33Z</time>
</trkpt>
<trkpt lat="49.22570798546076" lon="9.500788673758509">
<ele>226.2</ele>
<time>2024-05-07T15:21:34Z</time>
</trkpt>
<trkpt lat="49.2257384955883" lon="9.500758163630962">
<ele>226.4</ele>
<time>2024-05-07T15:21:35Z</time>
</trkpt>
<trkpt lat="49.22576900571585" lon="9.500733353197576">
<ele>226.6</ele>
<time>2024-05-07T15:21:36Z</time>
</trkpt>
<trkpt lat="49.225810999050736" lon="9.500711392611263">
<ele>226.8</ele>
<time>2024-05-07T15:21:37Z</time>
</trkpt>
<trkpt lat="49.22584913671017" lon="9.500696137547491">
<ele>227</ele>
<time>2024-05-07T15:21:38Z</time>
</trkpt>
<trkpt lat="49.225891046226025" lon="9.500686582177876">
<ele>227</ele>
<time>2024-05-07T15:21:39Z</time>
</trkpt>
<trkpt lat="49.225929183885455" lon="9.500678032636642">
<ele>227</ele>
<time>2024-05-07T15:21:40Z</time>
</trkpt>
<trkpt lat="49.22596740536392" lon="9.500670405104756">
<ele>227</ele>
<time>2024-05-07T15:21:41Z</time>
</trkpt>
<trkpt lat="49.226009314879775" lon="9.500659927725792">
<ele>227</ele>
<time>2024-05-07T15:21:42Z</time>
</trkpt>
<trkpt lat="49.22604368068278" lon="9.500653222203256">
<ele>227</ele>
<time>2024-05-07T15:21:43Z</time>
</trkpt>
<trkpt lat="49.22608559019864" lon="9.500646516680716">
<ele>227</ele>
<time>2024-05-07T15:21:44Z</time>
</trkpt>
<trkpt lat="49.22612372785807" lon="9.500637967139482">
<ele>227.2</ele>
<time>2024-05-07T15:21:45Z</time>
</trkpt>
<trkpt lat="49.22616194933653" lon="9.500626483932136">
<ele>227.2</ele>
<time>2024-05-07T15:21:46Z</time>
</trkpt>
<trkpt lat="49.22620008699596" lon="9.500613156706097">
<ele>227.4</ele>
<time>2024-05-07T15:21:47Z</time>
</trkpt>
<trkpt lat="49.22624199651182" lon="9.50060175731778">
<ele>227.4</ele>
<time>2024-05-07T15:21:48Z</time>
</trkpt>
<trkpt lat="49.22628013417125" lon="9.500588346272709">
<ele>227.6</ele>
<time>2024-05-07T15:21:49Z</time>
</trkpt>
<trkpt lat="49.22632212750614" lon="9.500573091208937">
<ele>227.6</ele>
<time>2024-05-07T15:21:50Z</time>
</trkpt>
<trkpt lat="49.22636026516557" lon="9.500554986298084">
<ele>227.6</ele>
<time>2024-05-07T15:21:51Z</time>
</trkpt>
<trkpt lat="49.22640225850046" lon="9.500536881387234">
<ele>227.8</ele>
<time>2024-05-07T15:21:52Z</time>
</trkpt>
<trkpt lat="49.22644039615989" lon="9.500519698485732">
<ele>227.8</ele>
<time>2024-05-07T15:21:53Z</time>
</trkpt>
<trkpt lat="49.22648238949478" lon="9.500503521412613">
<ele>228</ele>
<time>2024-05-07T15:21:54Z</time>
</trkpt>
<trkpt lat="49.22652052715421" lon="9.50048633851111">
<ele>228</ele>
<time>2024-05-07T15:21:55Z</time>
</trkpt>
<trkpt lat="49.226562436670065" lon="9.500472005456686">
<ele>228.2</ele>
<time>2024-05-07T15:21:56Z</time>
</trkpt>
<trkpt lat="49.226600574329495" lon="9.500452978536488">
<ele>228.4</ele>
<time>2024-05-07T15:21:57Z</time>
</trkpt>
<trkpt lat="49.226638711988926" lon="9.500436717644334">
<ele>228.4</ele>
<time>2024-05-07T15:21:58Z</time>
</trkpt>
<trkpt lat="49.22667693346739" lon="9.500419534742832">
<ele>228.6</ele>
<time>2024-05-07T15:21:59Z</time>
</trkpt>
<trkpt lat="49.22671507112682" lon="9.50040528550744">
<ele>228.6</ele>
<time>2024-05-07T15:22:00Z</time>
</trkpt>
<trkpt lat="49.22675320878625" lon="9.50038525275886">
<ele>228.6</ele>
<time>2024-05-07T15:22:01Z</time>
</trkpt>
<trkpt lat="49.22679134644568" lon="9.500363292172551">
<ele>228.8</ele>
<time>2024-05-07T15:22:02Z</time>
</trkpt>
<trkpt lat="49.22682571224868" lon="9.500339487567544">
<ele>228.8</ele>
<time>2024-05-07T15:22:03Z</time>
</trkpt>
<trkpt lat="49.22686384990811" lon="9.500316604971886">
<ele>228.8</ele>
<time>2024-05-07T15:22:04Z</time>
</trkpt>
<trkpt lat="49.226901987567544" lon="9.500293722376227">
<ele>228.8</ele>
<time>2024-05-07T15:22:05Z</time>
</trkpt>
<trkpt lat="49.226940125226974" lon="9.500269833952188">
<ele>228.8</ele>
<time>2024-05-07T15:22:06Z</time>
</trkpt>
<trkpt lat="49.22698203474283" lon="9.5002450235188">
<ele>228.8</ele>
<time>2024-05-07T15:22:07Z</time>
</trkpt>
<trkpt lat="49.227020256221294" lon="9.500216441228986">
<ele>228.8</ele>
<time>2024-05-07T15:22:08Z</time>
</trkpt>
<trkpt lat="49.227058393880725" lon="9.500191630795598">
<ele>228.8</ele>
<time>2024-05-07T15:22:09Z</time>
</trkpt>
<trkpt lat="49.227096531540155" lon="9.50016782619059">
<ele>229</ele>
<time>2024-05-07T15:22:10Z</time>
</trkpt>
<trkpt lat="49.227134669199586" lon="9.50014678761363">
<ele>229</ele>
<time>2024-05-07T15:22:11Z</time>
</trkpt>
<trkpt lat="49.227172806859016" lon="9.500122060999274">
<ele>229.2</ele>
<time>2024-05-07T15:22:12Z</time>
</trkpt>
<trkpt lat="49.22721094451845" lon="9.500095322728155">
<ele>229.2</ele>
<time>2024-05-07T15:22:13Z</time>
</trkpt>
<trkpt lat="49.227252937853336" lon="9.500064812600613">
<ele>229.2</ele>
<time>2024-05-07T15:22:14Z</time>
</trkpt>
<trkpt lat="49.227294847369194" lon="9.500035224482415">
<ele>229.4</ele>
<time>2024-05-07T15:22:15Z</time>
</trkpt>
<trkpt lat="49.227333068847656" lon="9.500003792345524">
<ele>229.4</ele>
<time>2024-05-07T15:22:16Z</time>
</trkpt>
<trkpt lat="49.227374978363514" lon="9.499968504533172">
<ele>229.6</ele>
<time>2024-05-07T15:22:17Z</time>
</trkpt>
<trkpt lat="49.227413116022944" lon="9.499943694099784">
<ele>229.6</ele>
<time>2024-05-07T15:22:18Z</time>
</trkpt>
<trkpt lat="49.227455109357834" lon="9.499919889494777">
<ele>229.6</ele>
<time>2024-05-07T15:22:19Z</time>
</trkpt>
<trkpt lat="49.22749701887369" lon="9.49989315122366">
<ele>229.6</ele>
<time>2024-05-07T15:22:20Z</time>
</trkpt>
<trkpt lat="49.227535240352154" lon="9.499863563105464">
<ele>229.8</ele>
<time>2024-05-07T15:22:21Z</time>
</trkpt>
<trkpt lat="49.227573378011584" lon="9.49983213096857">
<ele>229.8</ele>
<time>2024-05-07T15:22:22Z</time>
</trkpt>
<trkpt lat="49.227611515671015" lon="9.49979684315622">
<ele>229.8</ele>
<time>2024-05-07T15:22:23Z</time>
</trkpt>
<trkpt lat="49.227649653330445" lon="9.499758705496788">
<ele>229.8</ele>
<time>2024-05-07T15:22:24Z</time>
</trkpt>
<trkpt lat="49.22768779098987" lon="9.499719562008975">
<ele>229.8</ele>
<time>2024-05-07T15:22:25Z</time>
</trkpt>
<trkpt lat="49.227725928649306" lon="9.499685280025004">
<ele>229.8</ele>
<time>2024-05-07T15:22:26Z</time>
</trkpt>
<trkpt lat="49.22776406630874" lon="9.499651836231353">
<ele>229.8</ele>
<time>2024-05-07T15:22:27Z</time>
</trkpt>
<trkpt lat="49.22780220396817" lon="9.499623253941536">
<ele>229.8</ele>
<time>2024-05-07T15:22:28Z</time>
</trkpt>
<trkpt lat="49.2278403416276" lon="9.49959366582334">
<ele>229.8</ele>
<time>2024-05-07T15:22:29Z</time>
</trkpt>
<trkpt lat="49.22788233496249" lon="9.499560305848718">
<ele>229.8</ele>
<time>2024-05-07T15:22:30Z</time>
</trkpt>
<trkpt lat="49.22792047262192" lon="9.499525018036366">
<ele>229.8</ele>
<time>2024-05-07T15:22:31Z</time>
</trkpt>
<trkpt lat="49.22795483842492" lon="9.499489730224012">
<ele>229.8</ele>
<time>2024-05-07T15:22:32Z</time>
</trkpt>
<trkpt lat="49.22799297608435" lon="9.499453520402312">
<ele>229.8</ele>
<time>2024-05-07T15:22:33Z</time>
</trkpt>
<trkpt lat="49.228027341887355" lon="9.49941630475223">
<ele>229.8</ele>
<time>2024-05-07T15:22:34Z</time>
</trkpt>
<trkpt lat="49.228065479546785" lon="9.49938009493053">
<ele>229.8</ele>
<time>2024-05-07T15:22:35Z</time>
</trkpt>
<trkpt lat="49.228103617206216" lon="9.499342879280448">
<ele>229.8</ele>
<time>2024-05-07T15:22:36Z</time>
</trkpt>
<trkpt lat="49.22813789919019" lon="9.499306669458749">
<ele>229.8</ele>
<time>2024-05-07T15:22:37Z</time>
</trkpt>
<trkpt lat="49.22817603684962" lon="9.499268531799316">
<ele>229.8</ele>
<time>2024-05-07T15:22:38Z</time>
</trkpt>
<trkpt lat="49.22821425832808" lon="9.499231316149237">
<ele>229.8</ele>
<time>2024-05-07T15:22:39Z</time>
</trkpt>
<trkpt lat="49.22824854031205" lon="9.499195022508502">
<ele>229.8</ele>
<time>2024-05-07T15:22:40Z</time>
</trkpt>
<trkpt lat="49.22828667797148" lon="9.49915973469615">
<ele>229.8</ele>
<time>2024-05-07T15:22:41Z</time>
</trkpt>
<trkpt lat="49.228321043774486" lon="9.499124446883798">
<ele>230</ele>
<time>2024-05-07T15:22:42Z</time>
</trkpt>
<trkpt lat="49.22835918143392" lon="9.499088237062097">
<ele>230.2</ele>
<time>2024-05-07T15:22:43Z</time>
</trkpt>
<trkpt lat="49.22839354723692" lon="9.499052027240396">
<ele>230.4</ele>
<time>2024-05-07T15:22:44Z</time>
</trkpt>
<trkpt lat="49.22843168489635" lon="9.499014811590314">
<ele>230.4</ele>
<time>2024-05-07T15:22:45Z</time>
</trkpt>
<trkpt lat="49.22846596688032" lon="9.498979523777962">
<ele>230.6</ele>
<time>2024-05-07T15:22:46Z</time>
</trkpt>
<trkpt lat="49.22850410453975" lon="9.49894331395626">
<ele>230.6</ele>
<time>2024-05-07T15:22:47Z</time>
</trkpt>
<trkpt lat="49.228542326018214" lon="9.498908026143909">
<ele>230.8</ele>
<time>2024-05-07T15:22:48Z</time>
</trkpt>
<trkpt lat="49.228576608002186" lon="9.498871732503176">
<ele>230.8</ele>
<time>2024-05-07T15:22:49Z</time>
</trkpt>
<trkpt lat="49.228614745661616" lon="9.498834600672126">
<ele>231</ele>
<time>2024-05-07T15:22:50Z</time>
</trkpt>
<trkpt lat="49.22865288332105" lon="9.498798307031391">
<ele>231</ele>
<time>2024-05-07T15:22:51Z</time>
</trkpt>
<trkpt lat="49.22869102098048" lon="9.498760169371964">
<ele>231</ele>
<time>2024-05-07T15:22:52Z</time>
</trkpt>
<trkpt lat="49.22872924245894" lon="9.49872295372188">
<ele>231</ele>
<time>2024-05-07T15:22:53Z</time>
</trkpt>
<trkpt lat="49.22876352444291" lon="9.49868481606245">
<ele>231.2</ele>
<time>2024-05-07T15:22:54Z</time>
</trkpt>
<trkpt lat="49.22880166210234" lon="9.49864860624075">
<ele>231.2</ele>
<time>2024-05-07T15:22:55Z</time>
</trkpt>
<trkpt lat="49.22883979976177" lon="9.498613318428395">
<ele>231.2</ele>
<time>2024-05-07T15:22:56Z</time>
</trkpt>
<trkpt lat="49.228874165564775" lon="9.498579958453774">
<ele>231.2</ele>
<time>2024-05-07T15:22:57Z</time>
</trkpt>
<trkpt lat="49.22890853136778" lon="9.498544670641422">
<ele>231.2</ele>
<time>2024-05-07T15:22:58Z</time>
</trkpt>
<trkpt lat="49.22894666902721" lon="9.49851030483842">
<ele>231.2</ele>
<time>2024-05-07T15:22:59Z</time>
</trkpt>
<trkpt lat="49.22898480668664" lon="9.498475017026069">
<ele>231.2</ele>
<time>2024-05-07T15:23:00Z</time>
</trkpt>
<trkpt lat="49.22901908867061" lon="9.498439729213716">
<ele>231.2</ele>
<time>2024-05-07T15:23:01Z</time>
</trkpt>
<trkpt lat="49.229053454473615" lon="9.498403519392014">
<ele>231.4</ele>
<time>2024-05-07T15:23:02Z</time>
</trkpt>
<trkpt lat="49.229091592133045" lon="9.49836823157966">
<ele>231.4</ele>
<time>2024-05-07T15:23:03Z</time>
</trkpt>
<trkpt lat="49.22912972979248" lon="9.49833487160504">
<ele>231.4</ele>
<time>2024-05-07T15:23:04Z</time>
</trkpt>
<trkpt lat="49.22916409559548" lon="9.498299583792686">
<ele>231.6</ele>
<time>2024-05-07T15:23:05Z</time>
</trkpt>
<trkpt lat="49.22920223325491" lon="9.498263290151954">
<ele>231.6</ele>
<time>2024-05-07T15:23:06Z</time>
</trkpt>
<trkpt lat="49.22923659905791" lon="9.498229930177333">
<ele>231.6</ele>
<time>2024-05-07T15:23:07Z</time>
</trkpt>
<trkpt lat="49.22927473671734" lon="9.49819464236498">
<ele>231.6</ele>
<time>2024-05-07T15:23:08Z</time>
</trkpt>
<trkpt lat="49.229309018701315" lon="9.498158432543278">
<ele>231.6</ele>
<time>2024-05-07T15:23:09Z</time>
</trkpt>
<trkpt lat="49.229347156360745" lon="9.498123144730926">
<ele>231.6</ele>
<time>2024-05-07T15:23:10Z</time>
</trkpt>
<trkpt lat="49.229385294020176" lon="9.498086851090193">
<ele>231.6</ele>
<time>2024-05-07T15:23:11Z</time>
</trkpt>
<trkpt lat="49.22942351549864" lon="9.498049719259145">
<ele>231.6</ele>
<time>2024-05-07T15:23:12Z</time>
</trkpt>
<trkpt lat="49.22945779748261" lon="9.498016275465488">
<ele>231.8</ele>
<time>2024-05-07T15:23:13Z</time>
</trkpt>
<trkpt lat="49.22949593514204" lon="9.497984843328595">
<ele>231.8</ele>
<time>2024-05-07T15:23:14Z</time>
</trkpt>
<trkpt lat="49.22953030094504" lon="9.497949555516245">
<ele>232</ele>
<time>2024-05-07T15:23:15Z</time>
</trkpt>
<trkpt lat="49.229568438604474" lon="9.49791518971324">
<ele>232</ele>
<time>2024-05-07T15:23:16Z</time>
</trkpt>
<trkpt lat="49.229606576263905" lon="9.49787805788219">
<ele>232</ele>
<time>2024-05-07T15:23:17Z</time>
</trkpt>
<trkpt lat="49.229644713923335" lon="9.497843692079186">
<ele>232.2</ele>
<time>2024-05-07T15:23:18Z</time>
</trkpt>
<trkpt lat="49.229686707258224" lon="9.497808404266834">
<ele>232.2</ele>
<time>2024-05-07T15:23:19Z</time>
</trkpt>
<trkpt lat="49.22972098924219" lon="9.497773116454482">
<ele>232.4</ele>
<time>2024-05-07T15:23:20Z</time>
</trkpt>
<trkpt lat="49.2297553550452" lon="9.49773690663278">
<ele>232.4</ele>
<time>2024-05-07T15:23:21Z</time>
</trkpt>
<trkpt lat="49.22979349270463" lon="9.4976996909827">
<ele>232.6</ele>
<time>2024-05-07T15:23:22Z</time>
</trkpt>
<trkpt lat="49.22982785850763" lon="9.497666331008077">
<ele>232.8</ele>
<time>2024-05-07T15:23:23Z</time>
</trkpt>
<trkpt lat="49.229862140491605" lon="9.497631965205072">
<ele>232.8</ele>
<time>2024-05-07T15:23:24Z</time>
</trkpt>
<trkpt lat="49.22989650629461" lon="9.49759860523045">
<ele>232.8</ele>
<time>2024-05-07T15:23:25Z</time>
</trkpt>
<trkpt lat="49.22993087209761" lon="9.497563317418098">
<ele>232.8</ele>
<time>2024-05-07T15:23:26Z</time>
</trkpt>
<trkpt lat="49.22996515408158" lon="9.497529957443476">
<ele>233</ele>
<time>2024-05-07T15:23:27Z</time>
</trkpt>
<trkpt lat="49.229999519884586" lon="9.49749844148755">
<ele>233</ele>
<time>2024-05-07T15:23:28Z</time>
</trkpt>
<trkpt lat="49.23003765754402" lon="9.497467931360006">
<ele>233</ele>
<time>2024-05-07T15:23:29Z</time>
</trkpt>
<trkpt lat="49.23007579520345" lon="9.497438427060844">
<ele>233.2</ele>
<time>2024-05-07T15:23:30Z</time>
</trkpt>
<trkpt lat="49.23011393286288" lon="9.497409760951996">
<ele>233.2</ele>
<time>2024-05-07T15:23:31Z</time>
</trkpt>
<trkpt lat="49.23014829866588" lon="9.497380256652832">
<ele>233.4</ele>
<time>2024-05-07T15:23:32Z</time>
</trkpt>
<trkpt lat="49.23018643632531" lon="9.497351590543984">
<ele>233.6</ele>
<time>2024-05-07T15:23:33Z</time>
</trkpt>
<trkpt lat="49.23022457398474" lon="9.49732300825417">
<ele>233.6</ele>
<time>2024-05-07T15:23:34Z</time>
</trkpt>
<trkpt lat="49.230258939787745" lon="9.497296269983051">
<ele>233.6</ele>
<time>2024-05-07T15:23:35Z</time>
</trkpt>
<trkpt lat="49.23029322177172" lon="9.497268609702587">
<ele>233.8</ele>
<time>2024-05-07T15:23:36Z</time>
</trkpt>
<trkpt lat="49.23033135943115" lon="9.49724287725985">
<ele>234</ele>
<time>2024-05-07T15:23:37Z</time>
</trkpt>
<trkpt lat="49.23036949709058" lon="9.497216222807763">
<ele>234.2</ele>
<time>2024-05-07T15:23:38Z</time>
</trkpt>
<trkpt lat="49.23040763475001" lon="9.497190406545997">
<ele>234.4</ele>
<time>2024-05-07T15:23:39Z</time>
</trkpt>
<trkpt lat="49.23044585622847" lon="9.49716467410326">
<ele>234.6</ele>
<time>2024-05-07T15:23:40Z</time>
</trkpt>
<trkpt lat="49.2304839938879" lon="9.497138019651176">
<ele>234.8</ele>
<time>2024-05-07T15:23:41Z</time>
</trkpt>
<trkpt lat="49.23052213154733" lon="9.497116981074214">
<ele>234.8</ele>
<time>2024-05-07T15:23:42Z</time>
</trkpt>
<trkpt lat="49.23056026920676" lon="9.497096948325634">
<ele>235</ele>
<time>2024-05-07T15:23:43Z</time>
</trkpt>
<trkpt lat="49.23059840686619" lon="9.497076915577054">
<ele>235</ele>
<time>2024-05-07T15:23:44Z</time>
</trkpt>
<trkpt lat="49.23063654452562" lon="9.497055038809776">
<ele>235.2</ele>
<time>2024-05-07T15:23:45Z</time>
</trkpt>
<trkpt lat="49.23067853786051" lon="9.497039783746004">
<ele>235.2</ele>
<time>2024-05-07T15:23:46Z</time>
</trkpt>
<trkpt lat="49.23071667551994" lon="9.497023522853851">
<ele>235.2</ele>
<time>2024-05-07T15:23:47Z</time>
</trkpt>
<trkpt lat="49.230754813179374" lon="9.497003490105271">
<ele>235.4</ele>
<time>2024-05-07T15:23:48Z</time>
</trkpt>
<trkpt lat="49.23079680651426" lon="9.49698630720377">
<ele>235.4</ele>
<time>2024-05-07T15:23:49Z</time>
</trkpt>
<trkpt lat="49.23084257170558" lon="9.496970130130649">
<ele>235.4</ele>
<time>2024-05-07T15:23:50Z</time>
</trkpt>
<trkpt lat="49.23088448122144" lon="9.496952947229149">
<ele>235.6</ele>
<time>2024-05-07T15:23:51Z</time>
</trkpt>
<trkpt lat="49.23092647455633" lon="9.496938697993755">
<ele>235.6</ele>
<time>2024-05-07T15:23:52Z</time>
</trkpt>
<trkpt lat="49.23097223974764" lon="9.496921515092254">
<ele>235.8</ele>
<time>2024-05-07T15:23:53Z</time>
</trkpt>
<trkpt lat="49.23101423308253" lon="9.4969052542001">
<ele>236</ele>
<time>2024-05-07T15:23:54Z</time>
</trkpt>
<trkpt lat="49.23105614259839" lon="9.496888155117633">
<ele>236.2</ele>
<time>2024-05-07T15:23:55Z</time>
</trkpt>
<trkpt lat="49.23109813593328" lon="9.496869966387749">
<ele>236.4</ele>
<time>2024-05-07T15:23:56Z</time>
</trkpt>
<trkpt lat="49.23114012926817" lon="9.49685286730528">
<ele>236.4</ele>
<time>2024-05-07T15:23:57Z</time>
</trkpt>
<trkpt lat="49.23118203878403" lon="9.496839456260204">
<ele>236.6</ele>
<time>2024-05-07T15:23:58Z</time>
</trkpt>
<trkpt lat="49.23122403211892" lon="9.496828056871893">
<ele>236.6</ele>
<time>2024-05-07T15:23:59Z</time>
</trkpt>
<trkpt lat="49.23126216977835" lon="9.496811795979738">
<ele>236.6</ele>
<time>2024-05-07T15:24:00Z</time>
</trkpt>
<trkpt lat="49.23130416311323" lon="9.496794696897268">
<ele>236.8</ele>
<time>2024-05-07T15:24:01Z</time>
</trkpt>
<trkpt lat="49.231346072629094" lon="9.496778436005116">
<ele>236.8</ele>
<time>2024-05-07T15:24:02Z</time>
</trkpt>
<trkpt lat="49.231384210288525" lon="9.496763180941343">
<ele>237</ele>
<time>2024-05-07T15:24:03Z</time>
</trkpt>
<trkpt lat="49.23142997547984" lon="9.496747925877573">
<ele>237</ele>
<time>2024-05-07T15:24:04Z</time>
</trkpt>
<trkpt lat="49.2314681969583" lon="9.496733592823148">
<ele>237.2</ele>
<time>2024-05-07T15:24:05Z</time>
</trkpt>
<trkpt lat="49.23151010647416" lon="9.496716493740678">
<ele>237.2</ele>
<time>2024-05-07T15:24:06Z</time>
</trkpt>
<trkpt lat="49.23154824413359" lon="9.496700232848523">
<ele>237.4</ele>
<time>2024-05-07T15:24:07Z</time>
</trkpt>
<trkpt lat="49.23159023746848" lon="9.496684977784753">
<ele>237.6</ele>
<time>2024-05-07T15:24:08Z</time>
</trkpt>
<trkpt lat="49.23163223080337" lon="9.496666872873902">
<ele>237.6</ele>
<time>2024-05-07T15:24:09Z</time>
</trkpt>
<trkpt lat="49.2316703684628" lon="9.4966496899724">
<ele>237.6</ele>
<time>2024-05-07T15:24:10Z</time>
</trkpt>
<trkpt lat="49.23171227797866" lon="9.49663351289928">
<ele>237.8</ele>
<time>2024-05-07T15:24:11Z</time>
</trkpt>
<trkpt lat="49.23175427131355" lon="9.496618257835507">
<ele>238</ele>
<time>2024-05-07T15:24:12Z</time>
</trkpt>
<trkpt lat="49.23179240897298" lon="9.496603002771735">
<ele>238.2</ele>
<time>2024-05-07T15:24:13Z</time>
</trkpt>
<trkpt lat="49.23183054663241" lon="9.49658959172666">
<ele>238.4</ele>
<time>2024-05-07T15:24:14Z</time>
</trkpt>
<trkpt lat="49.23186868429184" lon="9.496575342491267">
<ele>238.6</ele>
<time>2024-05-07T15:24:15Z</time>
</trkpt>
<trkpt lat="49.23190682195127" lon="9.496561931446196">
<ele>238.8</ele>
<time>2024-05-07T15:24:16Z</time>
</trkpt>
<trkpt lat="49.23194881528616" lon="9.496546676382422">
<ele>239</ele>
<time>2024-05-07T15:24:17Z</time>
</trkpt>
<trkpt lat="49.23198695294559" lon="9.49653142131865">
<ele>239.2</ele>
<time>2024-05-07T15:24:18Z</time>
</trkpt>
<trkpt lat="49.23202509060502" lon="9.496520021930335">
<ele>239.4</ele>
<time>2024-05-07T15:24:19Z</time>
</trkpt>
<trkpt lat="49.23206708393991" lon="9.496506610885262">
<ele>239.6</ele>
<time>2024-05-07T15:24:20Z</time>
</trkpt>
<trkpt lat="49.23210899345577" lon="9.49649328365922">
<ele>239.6</ele>
<time>2024-05-07T15:24:21Z</time>
</trkpt>
<trkpt lat="49.23215484246611" lon="9.496478028595448">
<ele>239.8</ele>
<time>2024-05-07T15:24:22Z</time>
</trkpt>
<trkpt lat="49.232196751981974" lon="9.496468473225832">
<ele>239.8</ele>
<time>2024-05-07T15:24:23Z</time>
</trkpt>
<trkpt lat="49.23223874531686" lon="9.496457995846868">
<ele>239.8</ele>
<time>2024-05-07T15:24:24Z</time>
</trkpt>
<trkpt lat="49.23228451050818" lon="9.49645321816206">
<ele>240</ele>
<time>2024-05-07T15:24:25Z</time>
</trkpt>
<trkpt lat="49.23232650384307" lon="9.496448440477252">
<ele>240</ele>
<time>2024-05-07T15:24:26Z</time>
</trkpt>
<trkpt lat="49.2323646415025" lon="9.496443746611476">
<ele>240.2</ele>
<time>2024-05-07T15:24:27Z</time>
</trkpt>
<trkpt lat="49.23240655101836" lon="9.496441818773746">
<ele>240.2</ele>
<time>2024-05-07T15:24:28Z</time>
</trkpt>
<trkpt lat="49.23244854435325" lon="9.496439890936015">
<ele>240.4</ele>
<time>2024-05-07T15:24:29Z</time>
</trkpt>
<trkpt lat="49.23249430954456" lon="9.496437963098288">
<ele>240.4</ele>
<time>2024-05-07T15:24:30Z</time>
</trkpt>
<trkpt lat="49.23253630287945" lon="9.49643318541348">
<ele>240.6</ele>
<time>2024-05-07T15:24:31Z</time>
</trkpt>
<trkpt lat="49.23258206807077" lon="9.49643318541348">
<ele>240.6</ele>
<time>2024-05-07T15:24:32Z</time>
</trkpt>
<trkpt lat="49.23262397758663" lon="9.49643318541348">
<ele>240.6</ele>
<time>2024-05-07T15:24:33Z</time>
</trkpt>
<trkpt lat="49.232669826596975" lon="9.49643704108894">
<ele>240.8</ele>
<time>2024-05-07T15:24:34Z</time>
</trkpt>
<trkpt lat="49.23271173611283" lon="9.496439890936015">
<ele>240.8</ele>
<time>2024-05-07T15:24:35Z</time>
</trkpt>
<trkpt lat="49.23275372944772" lon="9.496444668620825">
<ele>241</ele>
<time>2024-05-07T15:24:36Z</time>
</trkpt>
<trkpt lat="49.23279563896358" lon="9.496444668620825">
<ele>241</ele>
<time>2024-05-07T15:24:37Z</time>
</trkpt>
<trkpt lat="49.23284148797393" lon="9.496446596458554">
<ele>241</ele>
<time>2024-05-07T15:24:38Z</time>
</trkpt>
<trkpt lat="49.232883397489786" lon="9.496448440477252">
<ele>241</ele>
<time>2024-05-07T15:24:39Z</time>
</trkpt>
<trkpt lat="49.2329291626811" lon="9.49645514599979">
<ele>241.2</ele>
<time>2024-05-07T15:24:40Z</time>
</trkpt>
<trkpt lat="49.23297115601599" lon="9.496459923684595">
<ele>241.2</ele>
<time>2024-05-07T15:24:41Z</time>
</trkpt>
<trkpt lat="49.23301692120731" lon="9.496464701369405">
<ele>241.4</ele>
<time>2024-05-07T15:24:42Z</time>
</trkpt>
<trkpt lat="49.233062686398625" lon="9.49647132307291">
<ele>241.6</ele>
<time>2024-05-07T15:24:43Z</time>
</trkpt>
<trkpt lat="49.23310845158994" lon="9.496479956433175">
<ele>241.6</ele>
<time>2024-05-07T15:24:44Z</time>
</trkpt>
<trkpt lat="49.23315421678126" lon="9.496486661955714">
<ele>241.8</ele>
<time>2024-05-07T15:24:45Z</time>
</trkpt>
<trkpt lat="49.23320006579161" lon="9.49649135582149">
<ele>241.8</ele>
<time>2024-05-07T15:24:46Z</time>
</trkpt>
<trkpt lat="49.233241975307465" lon="9.49649328365922">
<ele>241.8</ele>
<time>2024-05-07T15:24:47Z</time>
</trkpt>
<trkpt lat="49.233283968642354" lon="9.496498061344028">
<ele>242</ele>
<time>2024-05-07T15:24:48Z</time>
</trkpt>
<trkpt lat="49.23332973383367" lon="9.496506610885262">
<ele>242</ele>
<time>2024-05-07T15:24:49Z</time>
</trkpt>
<trkpt lat="49.23337549902499" lon="9.496516166254878">
<ele>242</ele>
<time>2024-05-07T15:24:50Z</time>
</trkpt>
<trkpt lat="49.233421264216304" lon="9.496528571471572">
<ele>242</ele>
<time>2024-05-07T15:24:51Z</time>
</trkpt>
<trkpt lat="49.23346702940762" lon="9.496541898697616">
<ele>242</ele>
<time>2024-05-07T15:24:52Z</time>
</trkpt>
<trkpt lat="49.2335166502744" lon="9.496556231752038">
<ele>242.2</ele>
<time>2024-05-07T15:24:53Z</time>
</trkpt>
<trkpt lat="49.23356241546571" lon="9.496575342491267">
<ele>242.2</ele>
<time>2024-05-07T15:24:54Z</time>
</trkpt>
<trkpt lat="49.23360818065703" lon="9.49659344740212">
<ele>242.2</ele>
<time>2024-05-07T15:24:55Z</time>
</trkpt>
<trkpt lat="49.233653945848346" lon="9.49661155231297">
<ele>242.2</ele>
<time>2024-05-07T15:24:56Z</time>
</trkpt>
<trkpt lat="49.233699794858694" lon="9.49663158506155">
<ele>242.2</ele>
<time>2024-05-07T15:24:57Z</time>
</trkpt>
<trkpt lat="49.23374556005001" lon="9.496654467657208">
<ele>242.2</ele>
<time>2024-05-07T15:24:58Z</time>
</trkpt>
<trkpt lat="49.23379132524133" lon="9.496678272262216">
<ele>242.2</ele>
<time>2024-05-07T15:24:59Z</time>
</trkpt>
<trkpt lat="49.233833234757185" lon="9.496703082695603">
<ele>242.2</ele>
<time>2024-05-07T15:25:00Z</time>
</trkpt>
<trkpt lat="49.23388285562396" lon="9.496727893128991">
<ele>242.2</ele>
<time>2024-05-07T15:25:01Z</time>
</trkpt>
<trkpt lat="49.23392484895885" lon="9.4967498537153">
<ele>242.2</ele>
<time>2024-05-07T15:25:02Z</time>
</trkpt>
<trkpt lat="49.23397061415017" lon="9.496773658320308">
<ele>242.2</ele>
<time>2024-05-07T15:25:03Z</time>
</trkpt>
<trkpt lat="49.23401637934148" lon="9.496801318600774">
<ele>242.4</ele>
<time>2024-05-07T15:25:04Z</time>
</trkpt>
<trkpt lat="49.23405837267637" lon="9.496831828728318">
<ele>242.4</ele>
<time>2024-05-07T15:25:05Z</time>
</trkpt>
<trkpt lat="49.23410028219223" lon="9.496861416846514">
<ele>242.8</ele>
<time>2024-05-07T15:25:06Z</time>
</trkpt>
<trkpt lat="49.23414227552712" lon="9.496894776821136">
<ele>243</ele>
<time>2024-05-07T15:25:07Z</time>
</trkpt>
<trkpt lat="49.23418418504298" lon="9.49692813679576">
<ele>243.2</ele>
<time>2024-05-07T15:25:08Z</time>
</trkpt>
<trkpt lat="49.23422240652144" lon="9.496961580589414">
<ele>243.4</ele>
<time>2024-05-07T15:25:09Z</time>
</trkpt>
<trkpt lat="49.23426054418087" lon="9.496996868401766">
<ele>243.4</ele>
<time>2024-05-07T15:25:10Z</time>
</trkpt>
<trkpt lat="49.23430245369673" lon="9.497031150385736">
<ele>243.6</ele>
<time>2024-05-07T15:25:11Z</time>
</trkpt>
<trkpt lat="49.23434059135616" lon="9.49706451036036">
<ele>243.6</ele>
<time>2024-05-07T15:25:12Z</time>
</trkpt>
<trkpt lat="49.23438258469105" lon="9.497101726010442">
<ele>243.6</ele>
<time>2024-05-07T15:25:13Z</time>
</trkpt>
<trkpt lat="49.23442457802594" lon="9.497133241966369">
<ele>243.8</ele>
<time>2024-05-07T15:25:14Z</time>
</trkpt>
<trkpt lat="49.23446271568537" lon="9.49716467410326">
<ele>244</ele>
<time>2024-05-07T15:25:15Z</time>
</trkpt>
<trkpt lat="49.2345008533448" lon="9.497196190059183">
<ele>244</ele>
<time>2024-05-07T15:25:16Z</time>
</trkpt>
<trkpt lat="49.23454284667969" lon="9.497228544205427">
<ele>244.2</ele>
<time>2024-05-07T15:25:17Z</time>
</trkpt>
<trkpt lat="49.23458098433912" lon="9.497261987999082">
<ele>244.4</ele>
<time>2024-05-07T15:25:18Z</time>
</trkpt>
<trkpt lat="49.23461912199855" lon="9.497293420135977">
<ele>244.4</ele>
<time>2024-05-07T15:25:19Z</time>
</trkpt>
<trkpt lat="49.23465725965798" lon="9.49732300825417">
<ele>244.6</ele>
<time>2024-05-07T15:25:20Z</time>
</trkpt>
<trkpt lat="49.23469154164195" lon="9.497355446219444">
<ele>245</ele>
<time>2024-05-07T15:25:21Z</time>
</trkpt>
<trkpt lat="49.23472976312041" lon="9.497387884184718">
<ele>245.2</ele>
<time>2024-05-07T15:25:22Z</time>
</trkpt>
<trkpt lat="49.23477167263627" lon="9.49742317199707">
<ele>245.4</ele>
<time>2024-05-07T15:25:23Z</time>
</trkpt>
<trkpt lat="49.2348098102957" lon="9.497454604133964">
<ele>245.6</ele>
<time>2024-05-07T15:25:24Z</time>
</trkpt>
<trkpt lat="49.23484794795513" lon="9.497487964108586">
<ele>245.8</ele>
<time>2024-05-07T15:25:25Z</time>
</trkpt>
<trkpt lat="49.234882313758135" lon="9.49752040207386">
<ele>246</ele>
<time>2024-05-07T15:25:26Z</time>
</trkpt>
<trkpt lat="49.234920451417565" lon="9.497551918029783">
<ele>246</ele>
<time>2024-05-07T15:25:27Z</time>
</trkpt>
<trkpt lat="49.23495858907699" lon="9.497583350166678">
<ele>246.2</ele>
<time>2024-05-07T15:25:28Z</time>
</trkpt>
<trkpt lat="49.234996726736426" lon="9.497612938284874">
<ele>246.2</ele>
<time>2024-05-07T15:25:29Z</time>
</trkpt>
<trkpt lat="49.23503486439586" lon="9.497646298259497">
<ele>246.4</ele>
<time>2024-05-07T15:25:30Z</time>
</trkpt>
<trkpt lat="49.235076857730746" lon="9.49767965823412">
<ele>246.6</ele>
<time>2024-05-07T15:25:31Z</time>
</trkpt>
<trkpt lat="49.23511499539018" lon="9.497713018208742">
<ele>246.8</ele>
<time>2024-05-07T15:25:32Z</time>
</trkpt>
<trkpt lat="49.23515313304961" lon="9.497748306021094">
<ele>247</ele>
<time>2024-05-07T15:25:33Z</time>
</trkpt>
<trkpt lat="49.23519127070904" lon="9.497781749814749">
<ele>247.2</ele>
<time>2024-05-07T15:25:34Z</time>
</trkpt>
<trkpt lat="49.23522563651204" lon="9.497811254113913">
<ele>247.6</ele>
<time>2024-05-07T15:25:35Z</time>
</trkpt>
<trkpt lat="49.23526000231504" lon="9.497841764241455">
<ele>247.8</ele>
<time>2024-05-07T15:25:36Z</time>
</trkpt>
<trkpt lat="49.235294284299016" lon="9.497871352359653">
<ele>248.2</ele>
<time>2024-05-07T15:25:37Z</time>
</trkpt>
<trkpt lat="49.23532865010202" lon="9.497903790324926">
<ele>248.4</ele>
<time>2024-05-07T15:25:38Z</time>
</trkpt>
<trkpt lat="49.23536678776145" lon="9.497933378443122">
<ele>248.8</ele>
<time>2024-05-07T15:25:39Z</time>
</trkpt>
<trkpt lat="49.23540492542088" lon="9.497962882742286">
<ele>249</ele>
<time>2024-05-07T15:25:40Z</time>
</trkpt>
<trkpt lat="49.23543929122389" lon="9.49799339286983">
<ele>249.2</ele>
<time>2024-05-07T15:25:41Z</time>
</trkpt>
<trkpt lat="49.23546980135143" lon="9.498022058978677">
<ele>249.4</ele>
<time>2024-05-07T15:25:42Z</time>
</trkpt>
<trkpt lat="49.23550793901086" lon="9.49805156327784">
<ele>249.6</ele>
<time>2024-05-07T15:25:43Z</time>
</trkpt>
<trkpt lat="49.23554222099483" lon="9.498081151396036">
<ele>249.8</ele>
<time>2024-05-07T15:25:44Z</time>
</trkpt>
<trkpt lat="49.23557658679783" lon="9.49811358936131">
<ele>250</ele>
<time>2024-05-07T15:25:45Z</time>
</trkpt>
<trkpt lat="49.23561095260084" lon="9.498143177479506">
<ele>250.2</ele>
<time>2024-05-07T15:25:46Z</time>
</trkpt>
<trkpt lat="49.23564146272838" lon="9.49817368760705">
<ele>250.4</ele>
<time>2024-05-07T15:25:47Z</time>
</trkpt>
<trkpt lat="49.23567574471235" lon="9.498203275725244">
<ele>250.6</ele>
<time>2024-05-07T15:25:48Z</time>
</trkpt>
<trkpt lat="49.23571011051536" lon="9.49823470786214">
<ele>250.8</ele>
<time>2024-05-07T15:25:49Z</time>
</trkpt>
<trkpt lat="49.23574824817479" lon="9.498263290151954">
<ele>251</ele>
<time>2024-05-07T15:25:50Z</time>
</trkpt>
<trkpt lat="49.23578638583422" lon="9.4982919562608">
<ele>251.2</ele>
<time>2024-05-07T15:25:51Z</time>
</trkpt>
<trkpt lat="49.23582452349365" lon="9.498318610712886">
<ele>251.4</ele>
<time>2024-05-07T15:25:52Z</time>
</trkpt>
<trkpt lat="49.23585888929665" lon="9.498346270993352">
<ele>251.6</ele>
<time>2024-05-07T15:25:53Z</time>
</trkpt>
<trkpt lat="49.23589702695608" lon="9.4983749371022">
<ele>251.8</ele>
<time>2024-05-07T15:25:54Z</time>
</trkpt>
<trkpt lat="49.23593516461551" lon="9.498399663716556">
<ele>252</ele>
<time>2024-05-07T15:25:55Z</time>
</trkpt>
<trkpt lat="49.23597330227494" lon="9.498423552140594">
<ele>252.2</ele>
<time>2024-05-07T15:25:56Z</time>
</trkpt>
<trkpt lat="49.23601143993437" lon="9.498444506898522">
<ele>252.2</ele>
<time>2024-05-07T15:25:57Z</time>
</trkpt>
<trkpt lat="49.2360495775938" lon="9.498464539647102">
<ele>252.4</ele>
<time>2024-05-07T15:25:58Z</time>
</trkpt>
<trkpt lat="49.23609157092869" lon="9.498483650386332">
<ele>252.6</ele>
<time>2024-05-07T15:25:59Z</time>
</trkpt>
<trkpt lat="49.23612970858812" lon="9.498496977612376">
<ele>252.8</ele>
<time>2024-05-07T15:26:00Z</time>
</trkpt>
<trkpt lat="49.23617170192301" lon="9.49851030483842">
<ele>253</ele>
<time>2024-05-07T15:26:01Z</time>
</trkpt>
<trkpt lat="49.23621361143887" lon="9.498521788045764">
<ele>253.2</ele>
<time>2024-05-07T15:26:02Z</time>
</trkpt>
<trkpt lat="49.23625560477376" lon="9.498533187434075">
<ele>253.2</ele>
<time>2024-05-07T15:26:03Z</time>
</trkpt>
<trkpt lat="49.23629759810865" lon="9.498541820794344">
<ele>253.4</ele>
<time>2024-05-07T15:26:04Z</time>
</trkpt>
<trkpt lat="49.23633950762451" lon="9.49854844249785">
<ele>253.6</ele>
<time>2024-05-07T15:26:05Z</time>
</trkpt>
<trkpt lat="49.23638150095939" lon="9.498551292344928">
<ele>253.6</ele>
<time>2024-05-07T15:26:06Z</time>
</trkpt>
<trkpt lat="49.236423410475254" lon="9.498555148020388">
<ele>253.6</ele>
<time>2024-05-07T15:26:07Z</time>
</trkpt>
<trkpt lat="49.23646540381014" lon="9.498557997867463">
<ele>253.8</ele>
<time>2024-05-07T15:26:08Z</time>
</trkpt>
<trkpt lat="49.23651116900146" lon="9.498561853542924">
<ele>253.8</ele>
<time>2024-05-07T15:26:09Z</time>
</trkpt>
<trkpt lat="49.23655316233635" lon="9.498561853542924">
<ele>253.8</ele>
<time>2024-05-07T15:26:10Z</time>
</trkpt>
<trkpt lat="49.23659507185221" lon="9.498559925705194">
<ele>253.8</ele>
<time>2024-05-07T15:26:11Z</time>
</trkpt>
<trkpt lat="49.2366370651871" lon="9.498563697561622">
<ele>253.8</ele>
<time>2024-05-07T15:26:12Z</time>
</trkpt>
<trkpt lat="49.236679058521986" lon="9.498564703390002">
<ele>253.8</ele>
<time>2024-05-07T15:26:13Z</time>
</trkpt>
<trkpt lat="49.23672096803784" lon="9.498564703390002">
<ele>253.8</ele>
<time>2024-05-07T15:26:14Z</time>
</trkpt>
<trkpt lat="49.23676296137273" lon="9.498563697561622">
<ele>253.8</ele>
<time>2024-05-07T15:26:15Z</time>
</trkpt>
<trkpt lat="49.23680495470762" lon="9.498561853542924">
<ele>253.8</ele>
<time>2024-05-07T15:26:16Z</time>
</trkpt>
<trkpt lat="49.23685071989894" lon="9.498563697561622">
<ele>254</ele>
<time>2024-05-07T15:26:17Z</time>
</trkpt>
<trkpt lat="49.2368926294148" lon="9.498563697561622">
<ele>254.2</ele>
<time>2024-05-07T15:26:18Z</time>
</trkpt>
<trkpt lat="49.236934622749686" lon="9.498563697561622">
<ele>254.2</ele>
<time>2024-05-07T15:26:19Z</time>
</trkpt>
<trkpt lat="49.236976616084576" lon="9.498563697561622">
<ele>254.4</ele>
<time>2024-05-07T15:26:20Z</time>
</trkpt>
<trkpt lat="49.23701852560043" lon="9.498563697561622">
<ele>254.6</ele>
<time>2024-05-07T15:26:21Z</time>
</trkpt>
<trkpt lat="49.23706429079175" lon="9.498563697561622">
<ele>254.6</ele>
<time>2024-05-07T15:26:22Z</time>
</trkpt>
<trkpt lat="49.23710628412664" lon="9.498564703390002">
<ele>254.8</ele>
<time>2024-05-07T15:26:23Z</time>
</trkpt>
<trkpt lat="49.23714827746153" lon="9.498563697561622">
<ele>255</ele>
<time>2024-05-07T15:26:24Z</time>
</trkpt>
<trkpt lat="49.23719018697739" lon="9.498561853542924">
<ele>255</ele>
<time>2024-05-07T15:26:25Z</time>
</trkpt>
<trkpt lat="49.23723218031227" lon="9.498561853542924">
<ele>255.2</ele>
<time>2024-05-07T15:26:26Z</time>
</trkpt>
<trkpt lat="49.237274089828134" lon="9.498561853542924">
<ele>255.2</ele>
<time>2024-05-07T15:26:27Z</time>
</trkpt>
<trkpt lat="49.23731608316302" lon="9.498561853542924">
<ele>255.2</ele>
<time>2024-05-07T15:26:28Z</time>
</trkpt>
<trkpt lat="49.23735807649791" lon="9.498563697561622">
<ele>255.4</ele>
<time>2024-05-07T15:26:29Z</time>
</trkpt>
<trkpt lat="49.23740384168923" lon="9.498563697561622">
<ele>255.4</ele>
<time>2024-05-07T15:26:30Z</time>
</trkpt>
<trkpt lat="49.23744575120509" lon="9.498564703390002">
<ele>255.6</ele>
<time>2024-05-07T15:26:31Z</time>
</trkpt>
<trkpt lat="49.237491600215435" lon="9.498564703390002">
<ele>255.6</ele>
<time>2024-05-07T15:26:32Z</time>
</trkpt>
<trkpt lat="49.23753350973129" lon="9.498563697561622">
<ele>255.8</ele>
<time>2024-05-07T15:26:33Z</time>
</trkpt>
<trkpt lat="49.23757164739072" lon="9.498561853542924">
<ele>255.8</ele>
<time>2024-05-07T15:26:34Z</time>
</trkpt>
<trkpt lat="49.23761364072561" lon="9.498561853542924">
<ele>256</ele>
<time>2024-05-07T15:26:35Z</time>
</trkpt>
<trkpt lat="49.23765940591693" lon="9.498561853542924">
<ele>256.2</ele>
<time>2024-05-07T15:26:36Z</time>
</trkpt>
<trkpt lat="49.23770139925182" lon="9.498561853542924">
<ele>256.2</ele>
<time>2024-05-07T15:26:37Z</time>
</trkpt>
<trkpt lat="49.23774330876768" lon="9.498564703390002">
<ele>256.4</ele>
<time>2024-05-07T15:26:38Z</time>
</trkpt>
<trkpt lat="49.237785302102566" lon="9.49856847524643">
<ele>256.6</ele>
<time>2024-05-07T15:26:39Z</time>
</trkpt>
<trkpt lat="49.23783106729388" lon="9.49857040308416">
<ele>256.799</ele>
<time>2024-05-07T15:26:40Z</time>
</trkpt>
<trkpt lat="49.23787306062877" lon="9.498573252931235">
<ele>256.799</ele>
<time>2024-05-07T15:26:41Z</time>
</trkpt>
<trkpt lat="49.23791497014463" lon="9.498577108606696">
<ele>257</ele>
<time>2024-05-07T15:26:42Z</time>
</trkpt>
<trkpt lat="49.237960735335946" lon="9.498579958453774">
<ele>257.2</ele>
<time>2024-05-07T15:26:43Z</time>
</trkpt>
<trkpt lat="49.238002728670835" lon="9.498583730310202">
<ele>257.2</ele>
<time>2024-05-07T15:26:44Z</time>
</trkpt>
<trkpt lat="49.23804849386215" lon="9.49859043583274">
<ele>257.4</ele>
<time>2024-05-07T15:26:45Z</time>
</trkpt>
<trkpt lat="49.23809048719704" lon="9.498598063364623">
<ele>257.4</ele>
<time>2024-05-07T15:26:46Z</time>
</trkpt>
<trkpt lat="49.2381323967129" lon="9.498604768887162">
<ele>257.6</ele>
<time>2024-05-07T15:26:47Z</time>
</trkpt>
<trkpt lat="49.23817061819136" lon="9.498615246266128">
<ele>257.799</ele>
<time>2024-05-07T15:26:48Z</time>
</trkpt>
<trkpt lat="49.23821252770722" lon="9.49862664565444">
<ele>258</ele>
<time>2024-05-07T15:26:49Z</time>
</trkpt>
<trkpt lat="49.23825066536665" lon="9.498636201024055">
<ele>258.2</ele>
<time>2024-05-07T15:26:50Z</time>
</trkpt>
<trkpt lat="49.23829265870154" lon="9.49864860624075">
<ele>258.2</ele>
<time>2024-05-07T15:26:51Z</time>
</trkpt>
<trkpt lat="49.23833079636097" lon="9.49866478331387">
<ele>258.4</ele>
<time>2024-05-07T15:26:52Z</time>
</trkpt>
<trkpt lat="49.2383689340204" lon="9.498682972043753">
<ele>258.6</ele>
<time>2024-05-07T15:26:53Z</time>
</trkpt>
<trkpt lat="49.2384032998234" lon="9.4987029209733">
<ele>258.799</ele>
<time>2024-05-07T15:26:54Z</time>
</trkpt>
<trkpt lat="49.238441437482834" lon="9.498722031712532">
<ele>259</ele>
<time>2024-05-07T15:26:55Z</time>
</trkpt>
<trkpt lat="49.238479575142264" lon="9.498742064461112">
<ele>259</ele>
<time>2024-05-07T15:26:56Z</time>
</trkpt>
<trkpt lat="49.23851394094527" lon="9.49876301921904">
<ele>259.2</ele>
<time>2024-05-07T15:26:57Z</time>
</trkpt>
<trkpt lat="49.23854822292924" lon="9.49878497980535">
<ele>259.4</ele>
<time>2024-05-07T15:26:58Z</time>
</trkpt>
<trkpt lat="49.23858636058867" lon="9.49880694039166">
<ele>259.6</ele>
<time>2024-05-07T15:26:59Z</time>
</trkpt>
<trkpt lat="49.23862072639167" lon="9.498829822987318">
<ele>259.799</ele>
<time>2024-05-07T15:27:00Z</time>
</trkpt>
<trkpt lat="49.238655008375645" lon="9.498856477439404">
<ele>260</ele>
<time>2024-05-07T15:27:01Z</time>
</trkpt>
<trkpt lat="49.23869322985411" lon="9.49888321571052">
<ele>260.4</ele>
<time>2024-05-07T15:27:02Z</time>
</trkpt>
<trkpt lat="49.23872373998165" lon="9.498911798000336">
<ele>260.6</ele>
<time>2024-05-07T15:27:03Z</time>
</trkpt>
<trkpt lat="49.23875802196562" lon="9.498939458280802">
<ele>260.799</ele>
<time>2024-05-07T15:27:04Z</time>
</trkpt>
<trkpt lat="49.238792387768626" lon="9.498969968408346">
<ele>261.2</ele>
<time>2024-05-07T15:27:05Z</time>
</trkpt>
<trkpt lat="49.23882289789617" lon="9.499003328382967">
<ele>261.4</ele>
<time>2024-05-07T15:27:06Z</time>
</trkpt>
<trkpt lat="49.238853408023715" lon="9.49903861619532">
<ele>261.6</ele>
<time>2024-05-07T15:27:07Z</time>
</trkpt>
<trkpt lat="49.23888777382672" lon="9.499072981998324">
<ele>261.6</ele>
<time>2024-05-07T15:27:08Z</time>
</trkpt>
<trkpt lat="49.23891828395426" lon="9.499106341972947">
<ele>261.799</ele>
<time>2024-05-07T15:27:09Z</time>
</trkpt>
<trkpt lat="49.23894879408181" lon="9.4991416297853">
<ele>262</ele>
<time>2024-05-07T15:27:10Z</time>
</trkpt>
<trkpt lat="49.23897930420935" lon="9.49917976744473">
<ele>262.2</ele>
<time>2024-05-07T15:27:11Z</time>
</trkpt>
<trkpt lat="49.239009814336896" lon="9.49921790510416">
<ele>262.4</ele>
<time>2024-05-07T15:27:12Z</time>
</trkpt>
<trkpt lat="49.23904032446444" lon="9.499257048591971">
<ele>262.6</ele>
<time>2024-05-07T15:27:13Z</time>
</trkpt>
<trkpt lat="49.23906706273556" lon="9.49929610826075">
<ele>262.8</ele>
<time>2024-05-07T15:27:14Z</time>
</trkpt>
<trkpt lat="49.2390975728631" lon="9.49933617375791">
<ele>263</ele>
<time>2024-05-07T15:27:15Z</time>
</trkpt>
<trkpt lat="49.23912422731519" lon="9.499375317245722">
<ele>263.4</ele>
<time>2024-05-07T15:27:16Z</time>
</trkpt>
<trkpt lat="49.239150965586305" lon="9.49941630475223">
<ele>263.6</ele>
<time>2024-05-07T15:27:17Z</time>
</trkpt>
<trkpt lat="49.23917770385742" lon="9.49945637024939">
<ele>263.8</ele>
<time>2024-05-07T15:27:18Z</time>
</trkpt>
<trkpt lat="49.23920435830951" lon="9.49949836358428">
<ele>264.2</ele>
<time>2024-05-07T15:27:19Z</time>
</trkpt>
<trkpt lat="49.239227240905166" lon="9.499543122947216">
<ele>264.4</ele>
<time>2024-05-07T15:27:20Z</time>
</trkpt>
<trkpt lat="49.23925397917628" lon="9.499587044119837">
<ele>264.8</ele>
<time>2024-05-07T15:27:21Z</time>
</trkpt>
<trkpt lat="49.23927686177194" lon="9.499629959464071">
<ele>265</ele>
<time>2024-05-07T15:27:22Z</time>
</trkpt>
<trkpt lat="49.2392997443676" lon="9.49967471882701">
<ele>265.2</ele>
<time>2024-05-07T15:27:23Z</time>
</trkpt>
<trkpt lat="49.23932262696326" lon="9.499719562008975">
<ele>265.6</ele>
<time>2024-05-07T15:27:24Z</time>
</trkpt>
<trkpt lat="49.23934165388346" lon="9.499766333028674">
<ele>265.8</ele>
<time>2024-05-07T15:27:25Z</time>
</trkpt>
<trkpt lat="49.23936462029815" lon="9.49981302022934">
<ele>266</ele>
<time>2024-05-07T15:27:26Z</time>
</trkpt>
<trkpt lat="49.239387502893806" lon="9.499861635267736">
<ele>266.4</ele>
<time>2024-05-07T15:27:27Z</time>
</trkpt>
<trkpt lat="49.239406529814005" lon="9.49991033412516">
<ele>266.8</ele>
<time>2024-05-07T15:27:28Z</time>
</trkpt>
<trkpt lat="49.23943326808512" lon="9.499958027154207">
<ele>267</ele>
<time>2024-05-07T15:27:29Z</time>
</trkpt>
<trkpt lat="49.23945229500532" lon="9.500006642192602">
<ele>267.4</ele>
<time>2024-05-07T15:27:30Z</time>
</trkpt>
<trkpt lat="49.23947140574455" lon="9.500055257230995">
<ele>267.6</ele>
<time>2024-05-07T15:27:31Z</time>
</trkpt>
<trkpt lat="49.23949428834021" lon="9.500102950260043">
<ele>268</ele>
<time>2024-05-07T15:27:32Z</time>
</trkpt>
<trkpt lat="49.23951331526041" lon="9.500151565298438">
<ele>268.2</ele>
<time>2024-05-07T15:27:33Z</time>
</trkpt>
<trkpt lat="49.2395362816751" lon="9.500198336318135">
<ele>268.6</ele>
<time>2024-05-07T15:27:34Z</time>
</trkpt>
<trkpt lat="49.2395553085953" lon="9.50024787336588">
<ele>268.8</ele>
<time>2024-05-07T15:27:35Z</time>
</trkpt>
<trkpt lat="49.23957819119096" lon="9.500298500061035">
<ele>269</ele>
<time>2024-05-07T15:27:36Z</time>
</trkpt>
<trkpt lat="49.23959730193019" lon="9.5003451872617">
<ele>269.2</ele>
<time>2024-05-07T15:27:37Z</time>
</trkpt>
<trkpt lat="49.23961632885039" lon="9.500392880290748">
<ele>269.6</ele>
<time>2024-05-07T15:27:38Z</time>
</trkpt>
<trkpt lat="49.23963921144605" lon="9.500441495329142">
<ele>269.8</ele>
<time>2024-05-07T15:27:39Z</time>
</trkpt>
<trkpt lat="49.23965832218528" lon="9.50048826634884">
<ele>270</ele>
<time>2024-05-07T15:27:40Z</time>
</trkpt>
<trkpt lat="49.23968497663736" lon="9.500534953549504">
<ele>270.4</ele>
<time>2024-05-07T15:27:41Z</time>
</trkpt>
<trkpt lat="49.239704087376595" lon="9.5005835685879">
<ele>270.6</ele>
<time>2024-05-07T15:27:42Z</time>
</trkpt>
<trkpt lat="49.23972696997225" lon="9.500633189454676">
<ele>270.8</ele>
<time>2024-05-07T15:27:43Z</time>
</trkpt>
<trkpt lat="49.23974985256791" lon="9.50068473815918">
<ele>271.2</ele>
<time>2024-05-07T15:27:44Z</time>
</trkpt>
<trkpt lat="49.23977273516357" lon="9.500735281035304">
<ele>271.6</ele>
<time>2024-05-07T15:27:45Z</time>
</trkpt>
<trkpt lat="49.23979561775923" lon="9.500782890245318">
<ele>271.8</ele>
<time>2024-05-07T15:27:46Z</time>
</trkpt>
<trkpt lat="49.239818500354886" lon="9.500831589102743">
<ele>272.2</ele>
<time>2024-05-07T15:27:47Z</time>
</trkpt>
<trkpt lat="49.239841382950544" lon="9.500881126150489">
<ele>272.6</ele>
<time>2024-05-07T15:27:48Z</time>
</trkpt>
<trkpt lat="49.239864349365234" lon="9.500927897170186">
<ele>272.8</ele>
<time>2024-05-07T15:27:49Z</time>
</trkpt>
<trkpt lat="49.23989100381732" lon="9.500974584370852">
<ele>273.2</ele>
<time>2024-05-07T15:27:50Z</time>
</trkpt>
<trkpt lat="49.23991388641298" lon="9.50101850554347">
<ele>273.6</ele>
<time>2024-05-07T15:27:51Z</time>
</trkpt>
<trkpt lat="49.239940624684095" lon="9.501061420887709">
<ele>274</ele>
<time>2024-05-07T15:27:52Z</time>
</trkpt>
<trkpt lat="49.239963507279754" lon="9.501106180250645">
<ele>274.2</ele>
<time>2024-05-07T15:27:53Z</time>
</trkpt>
<trkpt lat="49.23999016173184" lon="9.501150101423264">
<ele>274.6</ele>
<time>2024-05-07T15:27:54Z</time>
</trkpt>
<trkpt lat="49.24001690000296" lon="9.50119201093912">
<ele>274.8</ele>
<time>2024-05-07T15:27:55Z</time>
</trkpt>
<trkpt lat="49.2400474101305" lon="9.50123492628336">
<ele>275.2</ele>
<time>2024-05-07T15:27:56Z</time>
</trkpt>
<trkpt lat="49.24007414840162" lon="9.501277841627598">
<ele>275.4</ele>
<time>2024-05-07T15:27:57Z</time>
</trkpt>
<trkpt lat="49.2401008028537" lon="9.501324612647297">
<ele>275.8</ele>
<time>2024-05-07T15:27:58Z</time>
</trkpt>
<trkpt lat="49.24013131298125" lon="9.501366605982184">
<ele>276.2</ele>
<time>2024-05-07T15:27:59Z</time>
</trkpt>
<trkpt lat="49.24016182310879" lon="9.501404743641617">
<ele>276.4</ele>
<time>2024-05-07T15:28:00Z</time>
</trkpt>
<trkpt lat="49.24019233323634" lon="9.501441875472665">
<ele>276.8</ele>
<time>2024-05-07T15:28:01Z</time>
</trkpt>
<trkpt lat="49.24022292718291" lon="9.50147531926632">
<ele>277</ele>
<time>2024-05-07T15:28:02Z</time>
</trkpt>
<trkpt lat="49.24025343731046" lon="9.501508679240942">
<ele>277.2</ele>
<time>2024-05-07T15:28:03Z</time>
</trkpt>
<trkpt lat="49.240283947438" lon="9.501543045043944">
<ele>277.4</ele>
<time>2024-05-07T15:28:04Z</time>
</trkpt>
<trkpt lat="49.24031060189009" lon="9.501576405018568">
<ele>277.6</ele>
<time>2024-05-07T15:28:05Z</time>
</trkpt>
<trkpt lat="49.24034111201763" lon="9.50160976499319">
<ele>277.8</ele>
<time>2024-05-07T15:28:06Z</time>
</trkpt>
<trkpt lat="49.240371622145176" lon="9.501641197130084">
<ele>278</ele>
<time>2024-05-07T15:28:07Z</time>
</trkpt>
<trkpt lat="49.24039836041629" lon="9.50166986323893">
<ele>278.2</ele>
<time>2024-05-07T15:28:08Z</time>
</trkpt>
<trkpt lat="49.2404327262193" lon="9.501698445528746">
<ele>278.4</ele>
<time>2024-05-07T15:28:09Z</time>
</trkpt>
<trkpt lat="49.24046323634684" lon="9.501725183799865">
<ele>278.6</ele>
<time>2024-05-07T15:28:10Z</time>
</trkpt>
<trkpt lat="49.240489890798926" lon="9.50174991041422">
<ele>279</ele>
<time>2024-05-07T15:28:11Z</time>
</trkpt>
<trkpt lat="49.24052040092647" lon="9.501776648685336">
<ele>279.2</ele>
<time>2024-05-07T15:28:12Z</time>
</trkpt>
<trkpt lat="49.24055099487305" lon="9.501799531280994">
<ele>279.4</ele>
<time>2024-05-07T15:28:13Z</time>
</trkpt>
<trkpt lat="49.24058150500059" lon="9.501823419705032">
<ele>279.8</ele>
<time>2024-05-07T15:28:14Z</time>
</trkpt>
<trkpt lat="49.24061578698456" lon="9.50185007415712">
<ele>280</ele>
<time>2024-05-07T15:28:15Z</time>
</trkpt>
<trkpt lat="49.240650152787566" lon="9.501874884590508">
<ele>280.2</ele>
<time>2024-05-07T15:28:16Z</time>
</trkpt>
<trkpt lat="49.24068066291511" lon="9.501894917339088">
<ele>280.4</ele>
<time>2024-05-07T15:28:17Z</time>
</trkpt>
<trkpt lat="49.240711173042655" lon="9.501916877925396">
<ele>280.8</ele>
<time>2024-05-07T15:28:18Z</time>
</trkpt>
<trkpt lat="49.24074553884566" lon="9.501936910673976">
<ele>281</ele>
<time>2024-05-07T15:28:19Z</time>
</trkpt>
<trkpt lat="49.2407760489732" lon="9.501957865431905">
<ele>281.4</ele>
<time>2024-05-07T15:28:20Z</time>
</trkpt>
<trkpt lat="49.240810330957174" lon="9.501977898180485">
<ele>281.6</ele>
<time>2024-05-07T15:28:21Z</time>
</trkpt>
<trkpt lat="49.24084084108472" lon="9.501995081081986">
<ele>281.8</ele>
<time>2024-05-07T15:28:22Z</time>
</trkpt>
<trkpt lat="49.24087520688772" lon="9.502015113830566">
<ele>282.2</ele>
<time>2024-05-07T15:28:23Z</time>
</trkpt>
<trkpt lat="49.240909572690725" lon="9.502035062760116">
<ele>282.6</ele>
<time>2024-05-07T15:28:24Z</time>
</trkpt>
<trkpt lat="49.24094008281827" lon="9.502059873193502">
<ele>282.8</ele>
<time>2024-05-07T15:28:25Z</time>
</trkpt>
<trkpt lat="49.2409782204777" lon="9.502079905942082">
<ele>283</ele>
<time>2024-05-07T15:28:26Z</time>
</trkpt>
<trkpt lat="49.241008730605245" lon="9.502101866528392">
<ele>283.2</ele>
<time>2024-05-07T15:28:27Z</time>
</trkpt>
<trkpt lat="49.241043012589216" lon="9.502118043601511">
<ele>283.4</ele>
<time>2024-05-07T15:28:28Z</time>
</trkpt>
<trkpt lat="49.24108123406768" lon="9.502135226503016">
<ele>283.4</ele>
<time>2024-05-07T15:28:29Z</time>
</trkpt>
<trkpt lat="49.24111551605165" lon="9.502149559557438">
<ele>283.6</ele>
<time>2024-05-07T15:28:30Z</time>
</trkpt>
<trkpt lat="49.24114988185465" lon="9.50216674245894">
<ele>283.8</ele>
<time>2024-05-07T15:28:31Z</time>
</trkpt>
<trkpt lat="49.241184163838625" lon="9.50218484736979">
<ele>284</ele>
<time>2024-05-07T15:28:32Z</time>
</trkpt>
<trkpt lat="49.24121852964163" lon="9.50220295228064">
<ele>284.2</ele>
<time>2024-05-07T15:28:33Z</time>
</trkpt>
<trkpt lat="49.24125289544463" lon="9.502220135182142">
<ele>284.6</ele>
<time>2024-05-07T15:28:34Z</time>
</trkpt>
<trkpt lat="49.2412871774286" lon="9.502236312255263">
<ele>284.8</ele>
<time>2024-05-07T15:28:35Z</time>
</trkpt>
<trkpt lat="49.24132154323161" lon="9.502253495156763">
<ele>285</ele>
<time>2024-05-07T15:28:36Z</time>
</trkpt>
<trkpt lat="49.24135582521558" lon="9.502269672229886">
<ele>285.4</ele>
<time>2024-05-07T15:28:37Z</time>
</trkpt>
<trkpt lat="49.24139019101858" lon="9.502288782969115">
<ele>285.6</ele>
<time>2024-05-07T15:28:38Z</time>
</trkpt>
<trkpt lat="49.241420701146126" lon="9.502304960042238">
<ele>285.8</ele>
<time>2024-05-07T15:28:39Z</time>
</trkpt>
<trkpt lat="49.24145506694913" lon="9.50232314877212">
<ele>286</ele>
<time>2024-05-07T15:28:40Z</time>
</trkpt>
<trkpt lat="49.2414893489331" lon="9.502338403835893">
<ele>286.2</ele>
<time>2024-05-07T15:28:41Z</time>
</trkpt>
<trkpt lat="49.241519859060645" lon="9.502353658899665">
<ele>286.4</ele>
<time>2024-05-07T15:28:42Z</time>
</trkpt>
<trkpt lat="49.24155422486365" lon="9.502367908135056">
<ele>286.6</ele>
<time>2024-05-07T15:28:43Z</time>
</trkpt>
<trkpt lat="49.24158473499119" lon="9.502383163198829">
<ele>286.8</ele>
<time>2024-05-07T15:28:44Z</time>
</trkpt>
<trkpt lat="49.24161910079419" lon="9.50240034610033">
<ele>287</ele>
<time>2024-05-07T15:28:45Z</time>
</trkpt>
<trkpt lat="49.24165338277817" lon="9.50241845101118">
<ele>287.2</ele>
<time>2024-05-07T15:28:46Z</time>
</trkpt>
<trkpt lat="49.24168774858117" lon="9.502436555922031">
<ele>287.4</ele>
<time>2024-05-07T15:28:47Z</time>
</trkpt>
<trkpt lat="49.24172203056514" lon="9.502452816814184">
<ele>287.6</ele>
<time>2024-05-07T15:28:48Z</time>
</trkpt>
<trkpt lat="49.241756396368146" lon="9.502469999715686">
<ele>287.8</ele>
<time>2024-05-07T15:28:49Z</time>
</trkpt>
<trkpt lat="49.24178690649569" lon="9.502481399104">
<ele>288.2</ele>
<time>2024-05-07T15:28:50Z</time>
</trkpt>
<trkpt lat="49.241821272298694" lon="9.5024985820055">
<ele>288.4</ele>
<time>2024-05-07T15:28:51Z</time>
</trkpt>
<trkpt lat="49.24185178242624" lon="9.50251861475408">
<ele>288.6</ele>
<time>2024-05-07T15:28:52Z</time>
</trkpt>
<trkpt lat="49.24188606441021" lon="9.50253956951201">
<ele>288.8</ele>
<time>2024-05-07T15:28:53Z</time>
</trkpt>
<trkpt lat="49.241916574537754" lon="9.50255868025124">
<ele>289.2</ele>
<time>2024-05-07T15:28:54Z</time>
</trkpt>
<trkpt lat="49.24195094034076" lon="9.502576785162091">
<ele>289.4</ele>
<time>2024-05-07T15:28:55Z</time>
</trkpt>
<trkpt lat="49.2419814504683" lon="9.502590112388134">
<ele>289.8</ele>
<time>2024-05-07T15:28:56Z</time>
</trkpt>
<trkpt lat="49.242011960595846" lon="9.502603523433208">
<ele>290</ele>
<time>2024-05-07T15:28:57Z</time>
</trkpt>
<trkpt lat="49.24204632639885" lon="9.50261877849698">
<ele>290.2</ele>
<time>2024-05-07T15:28:58Z</time>
</trkpt>
<trkpt lat="49.242076836526394" lon="9.502633027732372">
<ele>290.4</ele>
<time>2024-05-07T15:28:59Z</time>
</trkpt>
<trkpt lat="49.24210734665394" lon="9.502650210633874">
<ele>290.6</ele>
<time>2024-05-07T15:29:00Z</time>
</trkpt>
<trkpt lat="49.24213785678148" lon="9.502666471526029">
<ele>290.8</ele>
<time>2024-05-07T15:29:01Z</time>
</trkpt>
<trkpt lat="49.242172222584486" lon="9.5026817265898">
<ele>291</ele>
<time>2024-05-07T15:29:02Z</time>
</trkpt>
<trkpt lat="49.24220273271203" lon="9.502696981653571">
<ele>291.4</ele>
<time>2024-05-07T15:29:03Z</time>
</trkpt>
<trkpt lat="49.242237014696" lon="9.502711230888965">
<ele>291.6</ele>
<time>2024-05-07T15:29:04Z</time>
</trkpt>
<trkpt lat="49.24226760864258" lon="9.502726485952737">
<ele>291.8</ele>
<time>2024-05-07T15:29:05Z</time>
</trkpt>
<trkpt lat="49.24229811877012" lon="9.50273989699781">
<ele>292</ele>
<time>2024-05-07T15:29:06Z</time>
</trkpt>
<trkpt lat="49.242332400754094" lon="9.50275699608028">
<ele>292.2</ele>
<time>2024-05-07T15:29:07Z</time>
</trkpt>
<trkpt lat="49.2423667665571" lon="9.502773256972432">
<ele>292.6</ele>
<time>2024-05-07T15:29:08Z</time>
</trkpt>
<trkpt lat="49.24239727668464" lon="9.502788512036204">
<ele>292.8</ele>
<time>2024-05-07T15:29:09Z</time>
</trkpt>
<trkpt lat="49.24243155866861" lon="9.502808544784784">
<ele>293.2</ele>
<time>2024-05-07T15:29:10Z</time>
</trkpt>
<trkpt lat="49.24246592447162" lon="9.502826649695637">
<ele>293.4</ele>
<time>2024-05-07T15:29:11Z</time>
</trkpt>
<trkpt lat="49.24249643459916" lon="9.502844754606484">
<ele>293.6</ele>
<time>2024-05-07T15:29:12Z</time>
</trkpt>
<trkpt lat="49.24253457225859" lon="9.502861937507989">
<ele>293.8</ele>
<time>2024-05-07T15:29:13Z</time>
</trkpt>
<trkpt lat="49.242565082386136" lon="9.50287627056241">
<ele>294</ele>
<time>2024-05-07T15:29:14Z</time>
</trkpt>
<trkpt lat="49.24260322004557" lon="9.50289336964488">
<ele>294.2</ele>
<time>2024-05-07T15:29:15Z</time>
</trkpt>
<trkpt lat="49.24263758584857" lon="9.502911558374764">
<ele>294.4</ele>
<time>2024-05-07T15:29:16Z</time>
</trkpt>
<trkpt lat="49.242668095976114" lon="9.502931591123344">
<ele>294.6</ele>
<time>2024-05-07T15:29:17Z</time>
</trkpt>
<trkpt lat="49.24270246177912" lon="9.502949696034191">
<ele>294.6</ele>
<time>2024-05-07T15:29:18Z</time>
</trkpt>
<trkpt lat="49.24273674376309" lon="9.502967800945044">
<ele>294.8</ele>
<time>2024-05-07T15:29:19Z</time>
</trkpt>
<trkpt lat="49.24277110956609" lon="9.502984983846543">
<ele>294.8</ele>
<time>2024-05-07T15:29:20Z</time>
</trkpt>
<trkpt lat="49.24280924722552" lon="9.503000238910316">
<ele>294.8</ele>
<time>2024-05-07T15:29:21Z</time>
</trkpt>
<trkpt lat="49.242843613028526" lon="9.503018343821168">
<ele>295</ele>
<time>2024-05-07T15:29:22Z</time>
</trkpt>
<trkpt lat="49.24288175068796" lon="9.503038376569748">
<ele>295</ele>
<time>2024-05-07T15:29:23Z</time>
</trkpt>
<trkpt lat="49.24291988834739" lon="9.503058409318328">
<ele>295</ele>
<time>2024-05-07T15:29:24Z</time>
</trkpt>
<trkpt lat="49.24295802600682" lon="9.5030736643821">
<ele>295.2</ele>
<time>2024-05-07T15:29:25Z</time>
</trkpt>
<trkpt lat="49.24299616366625" lon="9.50309176929295">
<ele>295.2</ele>
<time>2024-05-07T15:29:26Z</time>
</trkpt>
<trkpt lat="49.24303052946925" lon="9.5031098742038">
<ele>295.4</ele>
<time>2024-05-07T15:29:27Z</time>
</trkpt>
<trkpt lat="49.24306866712868" lon="9.503127057105305">
<ele>295.6</ele>
<time>2024-05-07T15:29:28Z</time>
</trkpt>
<trkpt lat="49.24311057664454" lon="9.503145162016152">
<ele>295.8</ele>
<time>2024-05-07T15:29:29Z</time>
</trkpt>
<trkpt lat="49.243148798123" lon="9.503161422908306">
<ele>296</ele>
<time>2024-05-07T15:29:30Z</time>
</trkpt>
<trkpt lat="49.243183080106974" lon="9.503179527819157">
<ele>296.2</ele>
<time>2024-05-07T15:29:31Z</time>
</trkpt>
<trkpt lat="49.24322507344186" lon="9.503198554739356">
<ele>296.4</ele>
<time>2024-05-07T15:29:32Z</time>
</trkpt>
<trkpt lat="49.243263211101294" lon="9.503218587487936">
<ele>296.6</ele>
<time>2024-05-07T15:29:33Z</time>
</trkpt>
<trkpt lat="49.24330134876072" lon="9.503236692398788">
<ele>296.8</ele>
<time>2024-05-07T15:29:34Z</time>
</trkpt>
<trkpt lat="49.243339486420155" lon="9.50325194746256">
<ele>297</ele>
<time>2024-05-07T15:29:35Z</time>
</trkpt>
<trkpt lat="49.243377624079585" lon="9.503265358507631">
<ele>297.2</ele>
<time>2024-05-07T15:29:36Z</time>
</trkpt>
<trkpt lat="49.243415761739016" lon="9.503276757895948">
<ele>297.2</ele>
<time>2024-05-07T15:29:37Z</time>
</trkpt>
<trkpt lat="49.24345012754202" lon="9.503288241103292">
<ele>297.4</ele>
<time>2024-05-07T15:29:38Z</time>
</trkpt>
<trkpt lat="49.24348826520145" lon="9.503298718482256">
<ele>297.4</ele>
<time>2024-05-07T15:29:39Z</time>
</trkpt>
<trkpt lat="49.243518775328994" lon="9.503306346014142">
<ele>297.4</ele>
<time>2024-05-07T15:29:40Z</time>
</trkpt>
<trkpt lat="49.243553141132" lon="9.5033120457083">
<ele>297.6</ele>
<time>2024-05-07T15:29:41Z</time>
</trkpt>
<trkpt lat="49.24358365125954" lon="9.503314895555375">
<ele>297.6</ele>
<time>2024-05-07T15:29:42Z</time>
</trkpt>
<trkpt lat="49.243614161387086" lon="9.503321601077914">
<ele>297.6</ele>
<time>2024-05-07T15:29:43Z</time>
</trkpt>
<trkpt lat="49.24364467151463" lon="9.503328306600451">
<ele>297.6</ele>
<time>2024-05-07T15:29:44Z</time>
</trkpt>
<trkpt lat="49.243675181642175" lon="9.503334928303955">
<ele>297.6</ele>
<time>2024-05-07T15:29:45Z</time>
</trkpt>
<trkpt lat="49.24370954744518" lon="9.503339705988765">
<ele>297.6</ele>
<time>2024-05-07T15:29:46Z</time>
</trkpt>
<trkpt lat="49.24374382942915" lon="9.503341633826494">
<ele>297.4</ele>
<time>2024-05-07T15:29:47Z</time>
</trkpt>
<trkpt lat="49.24377819523215" lon="9.503343561664224">
<ele>297.4</ele>
<time>2024-05-07T15:29:48Z</time>
</trkpt>
<trkpt lat="49.24381256103515" lon="9.503343561664224">
<ele>297.4</ele>
<time>2024-05-07T15:29:49Z</time>
</trkpt>
<trkpt lat="49.24384684301913" lon="9.503343561664224">
<ele>297.2</ele>
<time>2024-05-07T15:29:50Z</time>
</trkpt>
<trkpt lat="49.24388498067856" lon="9.503339705988765">
<ele>297.2</ele>
<time>2024-05-07T15:29:51Z</time>
</trkpt>
<trkpt lat="49.24392311833799" lon="9.50333308428526">
<ele>297.2</ele>
<time>2024-05-07T15:29:52Z</time>
</trkpt>
<trkpt lat="49.24395748414099" lon="9.503321601077914">
<ele>297.2</ele>
<time>2024-05-07T15:29:53Z</time>
</trkpt>
<trkpt lat="49.24399562180042" lon="9.5033120457083">
<ele>297.2</ele>
<time>2024-05-07T15:29:54Z</time>
</trkpt>
<trkpt lat="49.24403375945985" lon="9.503303496167064">
<ele>297.2</ele>
<time>2024-05-07T15:29:55Z</time>
</trkpt>
<trkpt lat="49.24407189711928" lon="9.5032930187881">
<ele>297.2</ele>
<time>2024-05-07T15:29:56Z</time>
</trkpt>
<trkpt lat="49.24411389045417" lon="9.503281535580754">
<ele>297.2</ele>
<time>2024-05-07T15:29:57Z</time>
</trkpt>
<trkpt lat="49.24415588378906" lon="9.503263430669904">
<ele>297.2</ele>
<time>2024-05-07T15:29:58Z</time>
</trkpt>
<trkpt lat="49.24419779330492" lon="9.503245325759051">
<ele>297</ele>
<time>2024-05-07T15:29:59Z</time>
</trkpt>
<trkpt lat="49.24424355849624" lon="9.503228142857552">
<ele>297</ele>
<time>2024-05-07T15:30:00Z</time>
</trkpt>
<trkpt lat="49.24429317936301" lon="9.503206182271242">
<ele>296.8</ele>
<time>2024-05-07T15:30:01Z</time>
</trkpt>
<trkpt lat="49.24434280022979" lon="9.503181455656886">
<ele>296.6</ele>
<time>2024-05-07T15:30:02Z</time>
</trkpt>
<trkpt lat="49.24439619295299" lon="9.503154717385767">
<ele>296.6</ele>
<time>2024-05-07T15:30:03Z</time>
</trkpt>
<trkpt lat="49.24444958567619" lon="9.503125129267572">
<ele>296.4</ele>
<time>2024-05-07T15:30:04Z</time>
</trkpt>
<trkpt lat="49.244506834074855" lon="9.50309176929295">
<ele>296.4</ele>
<time>2024-05-07T15:30:05Z</time>
</trkpt>
<trkpt lat="49.24456022679806" lon="9.50305363163352">
<ele>296.2</ele>
<time>2024-05-07T15:30:06Z</time>
</trkpt>
<trkpt lat="49.244621247053146" lon="9.503016415983438">
<ele>296</ele>
<time>2024-05-07T15:30:07Z</time>
</trkpt>
<trkpt lat="49.24467849545181" lon="9.502981128171086">
<ele>295.8</ele>
<time>2024-05-07T15:30:08Z</time>
</trkpt>
<trkpt lat="49.2447395157069" lon="9.502942068502309">
<ele>295.6</ele>
<time>2024-05-07T15:30:09Z</time>
</trkpt>
<trkpt lat="49.24480430781841" lon="9.502898147329688">
<ele>295.2</ele>
<time>2024-05-07T15:30:10Z</time>
</trkpt>
<trkpt lat="49.24487303942442" lon="9.502853387966752">
<ele>295</ele>
<time>2024-05-07T15:30:11Z</time>
</trkpt>
<trkpt lat="49.244941687211394" lon="9.502809466794131">
<ele>294.6</ele>
<time>2024-05-07T15:30:12Z</time>
</trkpt>
<trkpt lat="49.24501033499837" lon="9.502768479287624">
<ele>294.2</ele>
<time>2024-05-07T15:30:13Z</time>
</trkpt>
<trkpt lat="49.2450828384608" lon="9.502726485952737">
<ele>293.8</ele>
<time>2024-05-07T15:30:14Z</time>
</trkpt>
<trkpt lat="49.245155258104205" lon="9.5026817265898">
<ele>293.4</ele>
<time>2024-05-07T15:30:15Z</time>
</trkpt>
<trkpt lat="49.2452316172421" lon="9.502633027732372">
<ele>293</ele>
<time>2024-05-07T15:30:16Z</time>
</trkpt>
<trkpt lat="49.245311664417386" lon="9.5025815628469">
<ele>292.6</ele>
<time>2024-05-07T15:30:17Z</time>
</trkpt>
<trkpt lat="49.245395651087165" lon="9.502530097961426">
<ele>292.2</ele>
<time>2024-05-07T15:30:18Z</time>
</trkpt>
<trkpt lat="49.24548332579434" lon="9.502476621419191">
<ele>291.8</ele>
<time>2024-05-07T15:30:19Z</time>
</trkpt>
<trkpt lat="49.24556731246412" lon="9.50242037884891">
<ele>291.2</ele>
<time>2024-05-07T15:30:20Z</time>
</trkpt>
<trkpt lat="49.24565498717129" lon="9.502365058287978">
<ele>290.8</ele>
<time>2024-05-07T15:30:21Z</time>
</trkpt>
<trkpt lat="49.2457427456975" lon="9.502309737727046">
<ele>290.4</ele>
<time>2024-05-07T15:30:22Z</time>
</trkpt>
<trkpt lat="49.245830504223704" lon="9.502255422994494">
<ele>289.8</ele>
<time>2024-05-07T15:30:23Z</time>
</trkpt>
<trkpt lat="49.24593351781368" lon="9.50218291953206">
<ele>289.4</ele>
<time>2024-05-07T15:30:24Z</time>
</trkpt>
<trkpt lat="49.24602119252086" lon="9.50212282128632">
<ele>289.2</ele>
<time>2024-05-07T15:30:25Z</time>
</trkpt>
<trkpt lat="49.24610517919064" lon="9.50206372886896">
<ele>288.8</ele>
<time>2024-05-07T15:30:26Z</time>
</trkpt>
<trkpt lat="49.246204337105155" lon="9.50200840830803">
<ele>288.6</ele>
<time>2024-05-07T15:30:27Z</time>
</trkpt>
<trkpt lat="49.24627684056759" lon="9.50196356512606">
<ele>288.2</ele>
<time>2024-05-07T15:30:28Z</time>
</trkpt>
<trkpt lat="49.246360743418336" lon="9.5019063167274">
<ele>287.8</ele>
<time>2024-05-07T15:30:29Z</time>
</trkpt>
<trkpt lat="49.24644850194454" lon="9.50184814631939">
<ele>287.4</ele>
<time>2024-05-07T15:30:30Z</time>
</trkpt>
<trkpt lat="49.2465247772634" lon="9.50178997591138">
<ele>287</ele>
<time>2024-05-07T15:30:31Z</time>
</trkpt>
<trkpt lat="49.24659728072584" lon="9.50172803364694">
<ele>286.6</ele>
<time>2024-05-07T15:30:32Z</time>
</trkpt>
<trkpt lat="49.24666970036924" lon="9.501667013391852">
<ele>286.2</ele>
<time>2024-05-07T15:30:33Z</time>
</trkpt>
<trkpt lat="49.246738431975245" lon="9.501598281785846">
<ele>285.8</ele>
<time>2024-05-07T15:30:34Z</time>
</trkpt>
<trkpt lat="49.24680707976222" lon="9.50152963399887">
<ele>285.4</ele>
<time>2024-05-07T15:30:35Z</time>
</trkpt>
<trkpt lat="49.246871871873736" lon="9.501458136364818">
<ele>285</ele>
<time>2024-05-07T15:30:36Z</time>
</trkpt>
<trkpt lat="49.24693674780429" lon="9.501382783055304">
<ele>284.8</ele>
<time>2024-05-07T15:30:37Z</time>
</trkpt>
<trkpt lat="49.246993996202946" lon="9.501304579898717">
<ele>284.4</ele>
<time>2024-05-07T15:30:38Z</time>
</trkpt>
<trkpt lat="49.247055016458035" lon="9.501223526895046">
<ele>284.2</ele>
<time>2024-05-07T15:30:39Z</time>
</trkpt>
<trkpt lat="49.247112264856696" lon="9.50113677419722">
<ele>284</ele>
<time>2024-05-07T15:30:40Z</time>
</trkpt>
<trkpt lat="49.2471656575799" lon="9.501049937680364">
<ele>283.8</ele>
<time>2024-05-07T15:30:41Z</time>
</trkpt>
<trkpt lat="49.2472190503031" lon="9.50096033513546">
<ele>283.6</ele>
<time>2024-05-07T15:30:42Z</time>
</trkpt>
<trkpt lat="49.24726867116988" lon="9.500866876915095">
<ele>283.4</ele>
<time>2024-05-07T15:30:43Z</time>
</trkpt>
<trkpt lat="49.24731820821762" lon="9.500771490857003">
<ele>283.4</ele>
<time>2024-05-07T15:30:44Z</time>
</trkpt>
<trkpt lat="49.24736397340894" lon="9.500675182789564">
<ele>283.2</ele>
<time>2024-05-07T15:30:45Z</time>
</trkpt>
<trkpt lat="49.247409738600254" lon="9.500571247190235">
<ele>283.2</ele>
<time>2024-05-07T15:30:46Z</time>
</trkpt>
<trkpt lat="49.24744796007872" lon="9.500463455915453">
<ele>283</ele>
<time>2024-05-07T15:30:47Z</time>
</trkpt>
<trkpt lat="49.24748609773815" lon="9.500352814793589">
<ele>282.6</ele>
<time>2024-05-07T15:30:48Z</time>
</trkpt>
<trkpt lat="49.24751660786569" lon="9.500240245833991">
<ele>282.4</ele>
<time>2024-05-07T15:30:49Z</time>
</trkpt>
<trkpt lat="49.24754711799323" lon="9.500126838684082">
<ele>282.2</ele>
<time>2024-05-07T15:30:50Z</time>
</trkpt>
<trkpt lat="49.24757377244532" lon="9.50001334771514">
<ele>282</ele>
<time>2024-05-07T15:30:51Z</time>
</trkpt>
<trkpt lat="49.2476043663919" lon="9.499895079061387">
<ele>281.6</ele>
<time>2024-05-07T15:30:52Z</time>
</trkpt>
<trkpt lat="49.24763487651944" lon="9.49977681040764">
<ele>281.4</ele>
<time>2024-05-07T15:30:53Z</time>
</trkpt>
<trkpt lat="49.24766153097153" lon="9.499658541753888">
<ele>281.2</ele>
<time>2024-05-07T15:30:54Z</time>
</trkpt>
<trkpt lat="49.24769204109907" lon="9.49953650124371">
<ele>280.8</ele>
<time>2024-05-07T15:30:55Z</time>
</trkpt>
<trkpt lat="49.24771877937019" lon="9.49941630475223">
<ele>280.6</ele>
<time>2024-05-07T15:30:56Z</time>
</trkpt>
<trkpt lat="49.24774928949773" lon="9.49929610826075">
<ele>280.2</ele>
<time>2024-05-07T15:30:57Z</time>
</trkpt>
<trkpt lat="49.24777602776885" lon="9.499176917597651">
<ele>279.8</ele>
<time>2024-05-07T15:30:58Z</time>
</trkpt>
<trkpt lat="49.247806537896395" lon="9.499054877087474">
<ele>279.4</ele>
<time>2024-05-07T15:30:59Z</time>
</trkpt>
<trkpt lat="49.24783704802394" lon="9.498936608433723">
<ele>279</ele>
<time>2024-05-07T15:31:00Z</time>
</trkpt>
<trkpt lat="49.24787518568337" lon="9.498816411942244">
<ele>278.6</ele>
<time>2024-05-07T15:31:01Z</time>
</trkpt>
<trkpt lat="49.24790946766734" lon="9.498698227107525">
<ele>278.2</ele>
<time>2024-05-07T15:31:02Z</time>
</trkpt>
<trkpt lat="49.2479476891458" lon="9.498583730310202">
<ele>277.6</ele>
<time>2024-05-07T15:31:03Z</time>
</trkpt>
<trkpt lat="49.24799345433712" lon="9.49847023934126">
<ele>277.2</ele>
<time>2024-05-07T15:31:04Z</time>
</trkpt>
<trkpt lat="49.248042991384864" lon="9.498359598219396">
<ele>276.8</ele>
<time>2024-05-07T15:31:05Z</time>
</trkpt>
<trkpt lat="49.24809638410807" lon="9.49825281277299">
<ele>276.2</ele>
<time>2024-05-07T15:31:06Z</time>
</trkpt>
<trkpt lat="49.2481498606503" lon="9.498149799183013">
<ele>275.8</ele>
<time>2024-05-07T15:31:07Z</time>
</trkpt>
<trkpt lat="49.24821088090539" lon="9.498049719259145">
<ele>275.4</ele>
<time>2024-05-07T15:31:08Z</time>
</trkpt>
<trkpt lat="49.248260417953134" lon="9.49795626103878">
<ele>274.8</ele>
<time>2024-05-07T15:31:09Z</time>
</trkpt>
<trkpt lat="49.24832529388368" lon="9.497870430350304">
<ele>274.2</ele>
<time>2024-05-07T15:31:10Z</time>
</trkpt>
<trkpt lat="49.24837491475046" lon="9.497793149203062">
<ele>273.6</ele>
<time>2024-05-07T15:31:11Z</time>
</trkpt>
<trkpt lat="49.24846644513309" lon="9.497686363756657">
<ele>273.2</ele>
<time>2024-05-07T15:31:12Z</time>
</trkpt>
<trkpt lat="49.24856560304761" lon="9.497645376250148">
<ele>272.6</ele>
<time>2024-05-07T15:31:13Z</time>
</trkpt>
<trkpt lat="49.24866484478116" lon="9.497581422328947">
<ele>272</ele>
<time>2024-05-07T15:31:14Z</time>
</trkpt>
<trkpt lat="49.24874874763191" lon="9.497525179758668">
<ele>271.4</ele>
<time>2024-05-07T15:31:15Z</time>
</trkpt>
<trkpt lat="49.248851761221886" lon="9.497489891946316">
<ele>270.8</ele>
<time>2024-05-07T15:31:16Z</time>
</trkpt>
<trkpt lat="49.24894329160452" lon="9.497454604133964">
<ele>270.4</ele>
<time>2024-05-07T15:31:17Z</time>
</trkpt>
<trkpt lat="49.24901579506695" lon="9.497438427060844">
<ele>269.8</ele>
<time>2024-05-07T15:31:18Z</time>
</trkpt>
<trkpt lat="49.249126352369785" lon="9.497427865862846">
<ele>269.4</ele>
<time>2024-05-07T15:31:19Z</time>
</trkpt>
<trkpt lat="49.249267503619194" lon="9.49744027107954">
<ele>268.8</ele>
<time>2024-05-07T15:31:20Z</time>
</trkpt>
<trkpt lat="49.24935911782086" lon="9.497445048764348">
<ele>268.2</ele>
<time>2024-05-07T15:31:21Z</time>
</trkpt>
<trkpt lat="49.249443020671606" lon="9.4974613096565">
<ele>267.6</ele>
<time>2024-05-07T15:31:22Z</time>
</trkpt>
<trkpt lat="49.24953077919781" lon="9.497513696551325">
<ele>267</ele>
<time>2024-05-07T15:31:23Z</time>
</trkpt>
<trkpt lat="49.249622309580445" lon="9.497551918029783">
<ele>266.4</ele>
<time>2024-05-07T15:31:24Z</time>
</trkpt>
<trkpt lat="49.24972532317042" lon="9.497591899707912">
<ele>265.6</ele>
<time>2024-05-07T15:31:25Z</time>
</trkpt>
<trkpt lat="49.2498283367604" lon="9.497630037367344">
<ele>265</ele>
<time>2024-05-07T15:31:26Z</time>
</trkpt>
<trkpt lat="49.24992363899946" lon="9.497694913297892">
<ele>264.2</ele>
<time>2024-05-07T15:31:27Z</time>
</trkpt>
<trkpt lat="49.25000762566924" lon="9.497763561084868">
<ele>263.6</ele>
<time>2024-05-07T15:31:28Z</time>
</trkpt>
<trkpt lat="49.25010678358376" lon="9.49783698655665">
<ele>262.8</ele>
<time>2024-05-07T15:31:29Z</time>
</trkpt>
<trkpt lat="49.25018691457808" lon="9.497908568009734">
<ele>262.2</ele>
<time>2024-05-07T15:31:30Z</time>
</trkpt>
<trkpt lat="49.25026696175337" lon="9.497984843328595">
<ele>261.4</ele>
<time>2024-05-07T15:31:31Z</time>
</trkpt>
<trkpt lat="49.250354720279574" lon="9.498048713430762">
<ele>260.799</ele>
<time>2024-05-07T15:31:32Z</time>
</trkpt>
<trkpt lat="49.250434851273894" lon="9.498100262135267">
<ele>260</ele>
<time>2024-05-07T15:31:33Z</time>
</trkpt>
<trkpt lat="49.2505416367203" lon="9.498167987912892">
<ele>259.2</ele>
<time>2024-05-07T15:31:34Z</time>
</trkpt>
<trkpt lat="49.25065604969859" lon="9.498218530789018">
<ele>258.2</ele>
<time>2024-05-07T15:31:35Z</time>
</trkpt>
<trkpt lat="49.25075143575668" lon="9.49825474061072">
<ele>257.4</ele>
<time>2024-05-07T15:31:36Z</time>
</trkpt>
<trkpt lat="49.250827711075544" lon="9.49829480610788">
<ele>256.6</ele>
<time>2024-05-07T15:31:37Z</time>
</trkpt>
<trkpt lat="49.25091169774532" lon="9.4982919562608">
<ele>255.8</ele>
<time>2024-05-07T15:31:38Z</time>
</trkpt>
<trkpt lat="49.25100322812795" lon="9.498296733945608">
<ele>255</ele>
<time>2024-05-07T15:31:39Z</time>
</trkpt>
<trkpt lat="49.2510871309787" lon="9.49829287827015">
<ele>254.2</ele>
<time>2024-05-07T15:31:40Z</time>
</trkpt>
<trkpt lat="49.25118628889322" lon="9.498278545215726">
<ele>253.4</ele>
<time>2024-05-07T15:31:41Z</time>
</trkpt>
<trkpt lat="49.25129315815866" lon="9.49825189076364">
<ele>252.4</ele>
<time>2024-05-07T15:31:42Z</time>
</trkpt>
<trkpt lat="49.25137328915298" lon="9.498201347887516">
<ele>251.6</ele>
<time>2024-05-07T15:31:43Z</time>
</trkpt>
<trkpt lat="49.25145719200373" lon="9.498163210228086">
<ele>250.8</ele>
<time>2024-05-07T15:31:44Z</time>
</trkpt>
<trkpt lat="49.25156397745013" lon="9.498109817504885">
<ele>250</ele>
<time>2024-05-07T15:31:45Z</time>
</trkpt>
<trkpt lat="49.251655507832766" lon="9.498069752007725">
<ele>249.4</ele>
<time>2024-05-07T15:31:46Z</time>
</trkpt>
<trkpt lat="49.25173186697066" lon="9.49803538620472">
<ele>248.8</ele>
<time>2024-05-07T15:31:47Z</time>
</trkpt>
<trkpt lat="49.25180814228952" lon="9.498009653761985">
<ele>248.2</ele>
<time>2024-05-07T15:31:48Z</time>
</trkpt>
<trkpt lat="49.25188064575195" lon="9.497981993481517">
<ele>247.8</ele>
<time>2024-05-07T15:31:49Z</time>
</trkpt>
<trkpt lat="49.25194543786347" lon="9.497951483353972">
<ele>247.4</ele>
<time>2024-05-07T15:31:50Z</time>
</trkpt>
<trkpt lat="49.25200645811856" lon="9.497921895235775">
<ele>247</ele>
<time>2024-05-07T15:31:51Z</time>
</trkpt>
<trkpt lat="49.25205993466079" lon="9.497895240783691">
<ele>246.8</ele>
<time>2024-05-07T15:31:52Z</time>
</trkpt>
<trkpt lat="49.252109471708536" lon="9.497868502512574">
<ele>246.6</ele>
<time>2024-05-07T15:31:53Z</time>
</trkpt>
<trkpt lat="49.25215523689985" lon="9.497846541926265">
<ele>246.4</ele>
<time>2024-05-07T15:31:54Z</time>
</trkpt>
<trkpt lat="49.25219723023474" lon="9.497828437015414">
<ele>246.4</ele>
<time>2024-05-07T15:31:55Z</time>
</trkpt>
<trkpt lat="49.25223922356963" lon="9.497808404266834">
<ele>246.4</ele>
<time>2024-05-07T15:31:56Z</time>
</trkpt>
<trkpt lat="49.25228113308549" lon="9.497788371518254">
<ele>246.6</ele>
<time>2024-05-07T15:31:57Z</time>
</trkpt>
<trkpt lat="49.25231927074492" lon="9.497771188616753">
<ele>246.8</ele>
<time>2024-05-07T15:31:58Z</time>
</trkpt>
<trkpt lat="49.25235740840435" lon="9.497755011543632">
<ele>247</ele>
<time>2024-05-07T15:31:59Z</time>
</trkpt>
<trkpt lat="49.25239940173924" lon="9.497734978795052">
<ele>247.2</ele>
<time>2024-05-07T15:32:00Z</time>
</trkpt>
<trkpt lat="49.25243753939867" lon="9.4977168738842">
<ele>247.4</ele>
<time>2024-05-07T15:32:01Z</time>
</trkpt>
<trkpt lat="49.2524756770581" lon="9.497703546658158">
<ele>247.6</ele>
<time>2024-05-07T15:32:02Z</time>
</trkpt>
<trkpt lat="49.25251381471753" lon="9.497694913297892">
<ele>248</ele>
<time>2024-05-07T15:32:03Z</time>
</trkpt>
<trkpt lat="49.25255195237696" lon="9.497681586071849">
<ele>248.2</ele>
<time>2024-05-07T15:32:04Z</time>
</trkpt>
<trkpt lat="49.252590173855424" lon="9.497665325179696">
<ele>248.6</ele>
<time>2024-05-07T15:32:05Z</time>
</trkpt>
<trkpt lat="49.252624455839396" lon="9.49763867072761">
<ele>248.8</ele>
<time>2024-05-07T15:32:06Z</time>
</trkpt>
<trkpt lat="49.252662593498826" lon="9.497606232762337">
<ele>249.2</ele>
<time>2024-05-07T15:32:07Z</time>
</trkpt>
<trkpt lat="49.25269695930183" lon="9.49757664464414">
<ele>249.4</ele>
<time>2024-05-07T15:32:08Z</time>
</trkpt>
<trkpt lat="49.25273509696126" lon="9.497554767876863">
<ele>249.6</ele>
<time>2024-05-07T15:32:09Z</time>
</trkpt>
<trkpt lat="49.25276946276426" lon="9.49753657914698">
<ele>250</ele>
<time>2024-05-07T15:32:10Z</time>
</trkpt>
<trkpt lat="49.252803744748235" lon="9.49752040207386">
<ele>250.2</ele>
<time>2024-05-07T15:32:11Z</time>
</trkpt>
<trkpt lat="49.252841882407665" lon="9.497505147010088">
<ele>250.6</ele>
<time>2024-05-07T15:32:12Z</time>
</trkpt>
<trkpt lat="49.252880020067096" lon="9.497491819784043">
<ele>251</ele>
<time>2024-05-07T15:32:13Z</time>
</trkpt>
<trkpt lat="49.25291824154556" lon="9.49748134240508">
<ele>251.4</ele>
<time>2024-05-07T15:32:14Z</time>
</trkpt>
<trkpt lat="49.25295637920499" lon="9.497469859197736">
<ele>251.8</ele>
<time>2024-05-07T15:32:15Z</time>
</trkpt>
<trkpt lat="49.25299066118896" lon="9.497456531971691">
<ele>252.4</ele>
<time>2024-05-07T15:32:16Z</time>
</trkpt>
<trkpt lat="49.25302502699196" lon="9.497445048764348">
<ele>252.8</ele>
<time>2024-05-07T15:32:17Z</time>
</trkpt>
<trkpt lat="49.253063164651394" lon="9.497434571385384">
<ele>253.2</ele>
<time>2024-05-07T15:32:18Z</time>
</trkpt>
<trkpt lat="49.25309367477894" lon="9.49742317199707">
<ele>253.6</ele>
<time>2024-05-07T15:32:19Z</time>
</trkpt>
<trkpt lat="49.25312418490648" lon="9.497413616627457">
<ele>254</ele>
<time>2024-05-07T15:32:20Z</time>
</trkpt>
<trkpt lat="49.25315469503403" lon="9.49740121141076">
<ele>254.4</ele>
<time>2024-05-07T15:32:21Z</time>
</trkpt>
<trkpt lat="49.253181433305144" lon="9.497393583878877">
<ele>254.8</ele>
<time>2024-05-07T15:32:22Z</time>
</trkpt>
<trkpt lat="49.25321194343269" lon="9.497384950518608">
<ele>255.4</ele>
<time>2024-05-07T15:32:23Z</time>
</trkpt>
<trkpt lat="49.253238597884774" lon="9.497376400977371">
<ele>255.8</ele>
<time>2024-05-07T15:32:24Z</time>
</trkpt>
<trkpt lat="49.25326919183135" lon="9.497367851436138">
<ele>256.2</ele>
<time>2024-05-07T15:32:25Z</time>
</trkpt>
<trkpt lat="49.25330347381532" lon="9.497356368228791">
<ele>256.6</ele>
<time>2024-05-07T15:32:26Z</time>
</trkpt>
<trkpt lat="49.25333021208644" lon="9.497348740696909">
<ele>257</ele>
<time>2024-05-07T15:32:27Z</time>
</trkpt>
<trkpt lat="49.25336449407041" lon="9.497338263317944">
<ele>257.4</ele>
<time>2024-05-07T15:32:28Z</time>
</trkpt>
<trkpt lat="49.253398859873414" lon="9.497331557795404">
<ele>258</ele>
<time>2024-05-07T15:32:29Z</time>
</trkpt>
<trkpt lat="49.25343322567642" lon="9.497320158407092">
<ele>258.4</ele>
<time>2024-05-07T15:32:30Z</time>
</trkpt>
<trkpt lat="49.25346373580396" lon="9.497309681028128">
<ele>258.799</ele>
<time>2024-05-07T15:32:31Z</time>
</trkpt>
<trkpt lat="49.25349801778793" lon="9.49730297550559">
<ele>259.2</ele>
<time>2024-05-07T15:32:32Z</time>
</trkpt>
<trkpt lat="49.25352852791548" lon="9.497298197820784">
<ele>259.6</ele>
<time>2024-05-07T15:32:33Z</time>
</trkpt>
<trkpt lat="49.25356289371848" lon="9.497293420135977">
<ele>260</ele>
<time>2024-05-07T15:32:34Z</time>
</trkpt>
<trkpt lat="49.253593403846025" lon="9.497286714613438">
<ele>260.4</ele>
<time>2024-05-07T15:32:35Z</time>
</trkpt>
<trkpt lat="49.25362776964903" lon="9.497275315225124">
<ele>260.799</ele>
<time>2024-05-07T15:32:36Z</time>
</trkpt>
<trkpt lat="49.25365827977657" lon="9.497261987999082">
<ele>261.2</ele>
<time>2024-05-07T15:32:37Z</time>
</trkpt>
<trkpt lat="49.25368493422866" lon="9.497249582782388">
<ele>261.6</ele>
<time>2024-05-07T15:32:38Z</time>
</trkpt>
<trkpt lat="49.2537154443562" lon="9.497236171737311">
<ele>261.799</ele>
<time>2024-05-07T15:32:39Z</time>
</trkpt>
<trkpt lat="49.25374595448375" lon="9.49722670018673">
<ele>262.2</ele>
<time>2024-05-07T15:32:40Z</time>
</trkpt>
<trkpt lat="49.25377654843032" lon="9.497213289141657">
<ele>262.6</ele>
<time>2024-05-07T15:32:41Z</time>
</trkpt>
<trkpt lat="49.25380320288241" lon="9.497199961915612">
<ele>263</ele>
<time>2024-05-07T15:32:42Z</time>
</trkpt>
<trkpt lat="49.253829941153526" lon="9.4971885625273">
<ele>263.4</ele>
<time>2024-05-07T15:32:43Z</time>
</trkpt>
<trkpt lat="49.25385659560561" lon="9.497173307463529">
<ele>263.6</ele>
<time>2024-05-07T15:32:44Z</time>
</trkpt>
<trkpt lat="49.25388710573315" lon="9.497159896418452">
<ele>264</ele>
<time>2024-05-07T15:32:45Z</time>
</trkpt>
<trkpt lat="49.2539176158607" lon="9.497151346877216">
<ele>264.4</ele>
<time>2024-05-07T15:32:46Z</time>
</trkpt>
<trkpt lat="49.25394820980728" lon="9.497141791507602">
<ele>264.6</ele>
<time>2024-05-07T15:32:47Z</time>
</trkpt>
<trkpt lat="49.25397871993482" lon="9.497131314128636">
<ele>265</ele>
<time>2024-05-07T15:32:48Z</time>
</trkpt>
<trkpt lat="49.254009230062366" lon="9.497117986902596">
<ele>265.4</ele>
<time>2024-05-07T15:32:49Z</time>
</trkpt>
<trkpt lat="49.25403974018991" lon="9.497103653848171">
<ele>265.6</ele>
<time>2024-05-07T15:32:50Z</time>
</trkpt>
<trkpt lat="49.254066394641995" lon="9.4970883987844">
<ele>266</ele>
<time>2024-05-07T15:32:51Z</time>
</trkpt>
<trkpt lat="49.25409313291311" lon="9.497071215882896">
<ele>266.2</ele>
<time>2024-05-07T15:32:52Z</time>
</trkpt>
<trkpt lat="49.25412364304066" lon="9.497056882828474">
<ele>266.6</ele>
<time>2024-05-07T15:32:53Z</time>
</trkpt>
<trkpt lat="49.25415800884366" lon="9.497037855908276">
<ele>266.8</ele>
<time>2024-05-07T15:32:54Z</time>
</trkpt>
<trkpt lat="49.254188518971205" lon="9.497023522853851">
<ele>267.2</ele>
<time>2024-05-07T15:32:55Z</time>
</trkpt>
<trkpt lat="49.25421902909875" lon="9.49700826779008">
<ele>267.4</ele>
<time>2024-05-07T15:32:56Z</time>
</trkpt>
<trkpt lat="49.25425331108272" lon="9.496994940564036">
<ele>267.6</ele>
<time>2024-05-07T15:32:57Z</time>
</trkpt>
<trkpt lat="49.25428767688573" lon="9.496979685500264">
<ele>268</ele>
<time>2024-05-07T15:32:58Z</time>
</trkpt>
<trkpt lat="49.25431818701327" lon="9.49696535244584">
<ele>268.2</ele>
<time>2024-05-07T15:32:59Z</time>
</trkpt>
<trkpt lat="49.25434869714081" lon="9.496950097382069">
<ele>268.6</ele>
<time>2024-05-07T15:33:00Z</time>
</trkpt>
<trkpt lat="49.25437920726836" lon="9.496938697993755">
<ele>269</ele>
<time>2024-05-07T15:33:01Z</time>
</trkpt>
<trkpt lat="49.2544097173959" lon="9.49692528694868">
<ele>269.2</ele>
<time>2024-05-07T15:33:02Z</time>
</trkpt>
<trkpt lat="49.254444083198905" lon="9.496914809569716">
<ele>269.6</ele>
<time>2024-05-07T15:33:03Z</time>
</trkpt>
<trkpt lat="49.25447844900191" lon="9.496899554505944">
<ele>269.8</ele>
<time>2024-05-07T15:33:04Z</time>
</trkpt>
<trkpt lat="49.25450895912945" lon="9.496886227279902">
<ele>270</ele>
<time>2024-05-07T15:33:05Z</time>
</trkpt>
<trkpt lat="49.254543241113424" lon="9.496874744072556">
<ele>270.2</ele>
<time>2024-05-07T15:33:06Z</time>
</trkpt>
<trkpt lat="49.25456997938454" lon="9.496865272521973">
<ele>270.4</ele>
<time>2024-05-07T15:33:07Z</time>
</trkpt>
<trkpt lat="49.25460426136851" lon="9.496854711323977">
<ele>270.8</ele>
<time>2024-05-07T15:33:08Z</time>
</trkpt>
<trkpt lat="49.25463485531509" lon="9.496843311935663">
<ele>271</ele>
<time>2024-05-07T15:33:09Z</time>
</trkpt>
<trkpt lat="49.25466913729906" lon="9.496833756566048">
<ele>271.4</ele>
<time>2024-05-07T15:33:10Z</time>
</trkpt>
<trkpt lat="49.254703503102064" lon="9.496821351349354">
<ele>271.6</ele>
<time>2024-05-07T15:33:11Z</time>
</trkpt>
<trkpt lat="49.25473015755415" lon="9.49680995196104">
<ele>271.8</ele>
<time>2024-05-07T15:33:12Z</time>
</trkpt>
<trkpt lat="49.254760667681694" lon="9.496800396591423">
<ele>272</ele>
<time>2024-05-07T15:33:13Z</time>
</trkpt>
<trkpt lat="49.2547950334847" lon="9.496791763231158">
<ele>272.2</ele>
<time>2024-05-07T15:33:14Z</time>
</trkpt>
<trkpt lat="49.25482554361224" lon="9.496781285852194">
<ele>272.4</ele>
<time>2024-05-07T15:33:15Z</time>
</trkpt>
<trkpt lat="49.254856053739786" lon="9.496771730482578">
<ele>272.6</ele>
<time>2024-05-07T15:33:16Z</time>
</trkpt>
<trkpt lat="49.25488656386733" lon="9.496763180941343">
<ele>272.8</ele>
<time>2024-05-07T15:33:17Z</time>
</trkpt>
<trkpt lat="49.254920929670334" lon="9.496753625571728">
<ele>273.2</ele>
<time>2024-05-07T15:33:18Z</time>
</trkpt>
<trkpt lat="49.25495143979788" lon="9.496743148192763">
<ele>273.4</ele>
<time>2024-05-07T15:33:19Z</time>
</trkpt>
<trkpt lat="49.25498957745731" lon="9.49673174880445">
<ele>273.8</ele>
<time>2024-05-07T15:33:20Z</time>
</trkpt>
<trkpt lat="49.25502008758485" lon="9.496723115444183">
<ele>274</ele>
<time>2024-05-07T15:33:21Z</time>
</trkpt>
<trkpt lat="49.25505822524429" lon="9.496707860380411">
<ele>274.2</ele>
<time>2024-05-07T15:33:22Z</time>
</trkpt>
<trkpt lat="49.25509259104729" lon="9.496698305010796">
<ele>274.4</ele>
<time>2024-05-07T15:33:23Z</time>
</trkpt>
<trkpt lat="49.25512310117483" lon="9.49668975546956">
<ele>274.8</ele>
<time>2024-05-07T15:33:24Z</time>
</trkpt>
<trkpt lat="49.255153611302376" lon="9.496684977784753">
<ele>275</ele>
<time>2024-05-07T15:33:25Z</time>
</trkpt>
<trkpt lat="49.25518797710538" lon="9.496676428243518">
<ele>275.4</ele>
<time>2024-05-07T15:33:26Z</time>
</trkpt>
<trkpt lat="49.25521848723292" lon="9.496664945036173">
<ele>275.6</ele>
<time>2024-05-07T15:33:27Z</time>
</trkpt>
<trkpt lat="49.255252769216895" lon="9.49665354564786">
<ele>276</ele>
<time>2024-05-07T15:33:28Z</time>
</trkpt>
<trkpt lat="49.25528327934444" lon="9.496646840125322">
<ele>276.2</ele>
<time>2024-05-07T15:33:29Z</time>
</trkpt>
<trkpt lat="49.255313873291016" lon="9.496640134602783">
<ele>276.4</ele>
<time>2024-05-07T15:33:30Z</time>
</trkpt>
<trkpt lat="49.2553405277431" lon="9.496623035520315">
<ele>276.6</ele>
<time>2024-05-07T15:33:31Z</time>
</trkpt>
<trkpt lat="49.255371037870646" lon="9.49660962447524">
<ele>277</ele>
<time>2024-05-07T15:33:32Z</time>
</trkpt>
<trkpt lat="49.25540154799819" lon="9.49659344740212">
<ele>277.2</ele>
<time>2024-05-07T15:33:33Z</time>
</trkpt>
<trkpt lat="49.25543968565762" lon="9.496578192338347">
<ele>277.4</ele>
<time>2024-05-07T15:33:34Z</time>
</trkpt>
<trkpt lat="49.25547782331705" lon="9.496560087427495">
<ele>277.6</ele>
<time>2024-05-07T15:33:35Z</time>
</trkpt>
<trkpt lat="49.25551604479551" lon="9.496544832363725">
<ele>278</ele>
<time>2024-05-07T15:33:36Z</time>
</trkpt>
<trkpt lat="49.25554655492306" lon="9.496529577299953">
<ele>278.2</ele>
<time>2024-05-07T15:33:37Z</time>
</trkpt>
<trkpt lat="49.25558469258249" lon="9.496518094092607">
<ele>278.4</ele>
<time>2024-05-07T15:33:38Z</time>
</trkpt>
<trkpt lat="49.25561520271003" lon="9.496508538722992">
<ele>278.8</ele>
<time>2024-05-07T15:33:39Z</time>
</trkpt>
<trkpt lat="49.25565334036946" lon="9.496498061344028">
<ele>279</ele>
<time>2024-05-07T15:33:40Z</time>
</trkpt>
<trkpt lat="49.25568385049701" lon="9.496486661955714">
<ele>279.2</ele>
<time>2024-05-07T15:33:41Z</time>
</trkpt>
<trkpt lat="49.25571436062455" lon="9.49647517874837">
<ele>279.6</ele>
<time>2024-05-07T15:33:42Z</time>
</trkpt>
<trkpt lat="49.255748726427555" lon="9.496461851522326">
<ele>279.8</ele>
<time>2024-05-07T15:33:43Z</time>
</trkpt>
<trkpt lat="49.25578300841153" lon="9.49645036831498">
<ele>280</ele>
<time>2024-05-07T15:33:44Z</time>
</trkpt>
<trkpt lat="49.25581737421453" lon="9.496439890936015">
<ele>280.4</ele>
<time>2024-05-07T15:33:45Z</time>
</trkpt>
<trkpt lat="49.25585174001753" lon="9.496431341394782">
<ele>280.6</ele>
<time>2024-05-07T15:33:46Z</time>
</trkpt>
<trkpt lat="49.255886022001505" lon="9.496423713862896">
<ele>281</ele>
<time>2024-05-07T15:33:47Z</time>
</trkpt>
<trkpt lat="49.25591653212905" lon="9.49641508050263">
<ele>281.2</ele>
<time>2024-05-07T15:33:48Z</time>
</trkpt>
<trkpt lat="49.255947042256594" lon="9.496406530961394">
<ele>281.6</ele>
<time>2024-05-07T15:33:49Z</time>
</trkpt>
<trkpt lat="49.2559814080596" lon="9.496403681114316">
<ele>281.8</ele>
<time>2024-05-07T15:33:50Z</time>
</trkpt>
<trkpt lat="49.256008146330714" lon="9.49639697559178">
<ele>282.2</ele>
<time>2024-05-07T15:33:51Z</time>
</trkpt>
<trkpt lat="49.256042428314686" lon="9.496388426050544">
<ele>282.6</ele>
<time>2024-05-07T15:33:52Z</time>
</trkpt>
<trkpt lat="49.25607293844223" lon="9.496377864852548">
<ele>282.8</ele>
<time>2024-05-07T15:33:53Z</time>
</trkpt>
<trkpt lat="49.256103448569775" lon="9.496373170986772">
<ele>283</ele>
<time>2024-05-07T15:33:54Z</time>
</trkpt>
<trkpt lat="49.25613018684089" lon="9.496368393301964">
<ele>283.4</ele>
<time>2024-05-07T15:33:55Z</time>
</trkpt>
<trkpt lat="49.25615306943655" lon="9.496368393301964">
<ele>283.6</ele>
<time>2024-05-07T15:33:56Z</time>
</trkpt>
<trkpt lat="49.25617980770767" lon="9.496364537626503">
<ele>284</ele>
<time>2024-05-07T15:33:57Z</time>
</trkpt>
<trkpt lat="49.25621031783521" lon="9.496363615617156">
<ele>284.2</ele>
<time>2024-05-07T15:33:58Z</time>
</trkpt>
<trkpt lat="49.25624082796275" lon="9.496357915923">
<ele>284.4</ele>
<time>2024-05-07T15:33:59Z</time>
</trkpt>
<trkpt lat="49.25627510994673" lon="9.496353138238192">
<ele>284.8</ele>
<time>2024-05-07T15:34:00Z</time>
</trkpt>
<trkpt lat="49.256301848217845" lon="9.496346432715654">
<ele>285</ele>
<time>2024-05-07T15:34:01Z</time>
</trkpt>
<trkpt lat="49.25633613020182" lon="9.496339727193115">
<ele>285.2</ele>
<time>2024-05-07T15:34:02Z</time>
</trkpt>
<trkpt lat="49.25636672414839" lon="9.496333105489612">
<ele>285.4</ele>
<time>2024-05-07T15:34:03Z</time>
</trkpt>
<trkpt lat="49.25640100613237" lon="9.496328327804804">
<ele>285.6</ele>
<time>2024-05-07T15:34:04Z</time>
</trkpt>
<trkpt lat="49.25643537193537" lon="9.496324472129343">
<ele>285.8</ele>
<time>2024-05-07T15:34:05Z</time>
</trkpt>
<trkpt lat="49.2564735095948" lon="9.496319694444535">
<ele>285.8</ele>
<time>2024-05-07T15:34:06Z</time>
</trkpt>
<trkpt lat="49.25651164725423" lon="9.49631500057876">
<ele>286</ele>
<time>2024-05-07T15:34:07Z</time>
</trkpt>
<trkpt lat="49.25655364058912" lon="9.496306367218494">
<ele>286</ele>
<time>2024-05-07T15:34:08Z</time>
</trkpt>
<trkpt lat="49.25659177824855" lon="9.496303517371416">
<ele>286.2</ele>
<time>2024-05-07T15:34:09Z</time>
</trkpt>
<trkpt lat="49.25662991590798" lon="9.496298739686608">
<ele>286.2</ele>
<time>2024-05-07T15:34:10Z</time>
</trkpt>
<trkpt lat="49.25667182542384" lon="9.496292034164073">
<ele>286.4</ele>
<time>2024-05-07T15:34:11Z</time>
</trkpt>
<trkpt lat="49.256713818758726" lon="9.496286334469914">
<ele>286.6</ele>
<time>2024-05-07T15:34:12Z</time>
</trkpt>
<trkpt lat="49.256755812093616" lon="9.496281556785108">
<ele>286.6</ele>
<time>2024-05-07T15:34:13Z</time>
</trkpt>
<trkpt lat="49.25679772160947" lon="9.496279712766407">
<ele>286.8</ele>
<time>2024-05-07T15:34:14Z</time>
</trkpt>
<trkpt lat="49.25684348680079" lon="9.4962767791003">
<ele>286.8</ele>
<time>2024-05-07T15:34:15Z</time>
</trkpt>
<trkpt lat="49.25688548013568" lon="9.496273007243872">
<ele>287</ele>
<time>2024-05-07T15:34:16Z</time>
</trkpt>
<trkpt lat="49.25692747347057" lon="9.496270157396792">
<ele>287</ele>
<time>2024-05-07T15:34:17Z</time>
</trkpt>
<trkpt lat="49.256973238661885" lon="9.496268229559064">
<ele>287</ele>
<time>2024-05-07T15:34:18Z</time>
</trkpt>
<trkpt lat="49.25701514817774" lon="9.496261524036528">
<ele>287.2</ele>
<time>2024-05-07T15:34:19Z</time>
</trkpt>
<trkpt lat="49.25705714151263" lon="9.49625490233302">
<ele>287.2</ele>
<time>2024-05-07T15:34:20Z</time>
</trkpt>
<trkpt lat="49.25710676237941" lon="9.496246268972754">
<ele>287.2</ele>
<time>2024-05-07T15:34:21Z</time>
</trkpt>
<trkpt lat="49.25715252757072" lon="9.496243419125676">
<ele>287.2</ele>
<time>2024-05-07T15:34:22Z</time>
</trkpt>
<trkpt lat="49.25719829276204" lon="9.496241491287948">
<ele>287.2</ele>
<time>2024-05-07T15:34:23Z</time>
</trkpt>
<trkpt lat="49.25724791362882" lon="9.49623486958444">
<ele>287.2</ele>
<time>2024-05-07T15:34:24Z</time>
</trkpt>
<trkpt lat="49.25729367882013" lon="9.496228164061904">
<ele>287.2</ele>
<time>2024-05-07T15:34:25Z</time>
</trkpt>
<trkpt lat="49.25734321586788" lon="9.496223386377096">
<ele>287.2</ele>
<time>2024-05-07T15:34:26Z</time>
</trkpt>
<trkpt lat="49.257389064878225" lon="9.49621676467359">
<ele>287.2</ele>
<time>2024-05-07T15:34:27Z</time>
</trkpt>
<trkpt lat="49.25743483006954" lon="9.496210059151052">
<ele>287.2</ele>
<time>2024-05-07T15:34:28Z</time>
</trkpt>
<trkpt lat="49.257484367117286" lon="9.496201509609818">
<ele>287.2</ele>
<time>2024-05-07T15:34:29Z</time>
</trkpt>
<trkpt lat="49.2575301323086" lon="9.496190026402472">
<ele>287.2</ele>
<time>2024-05-07T15:34:30Z</time>
</trkpt>
<trkpt lat="49.25757212564349" lon="9.496179549023507">
<ele>287.2</ele>
<time>2024-05-07T15:34:31Z</time>
</trkpt>
<trkpt lat="49.25761789083481" lon="9.496171921491625">
<ele>287</ele>
<time>2024-05-07T15:34:32Z</time>
</trkpt>
<trkpt lat="49.2576598841697" lon="9.496163288131356">
<ele>287</ele>
<time>2024-05-07T15:34:33Z</time>
</trkpt>
<trkpt lat="49.257705649361014" lon="9.496152810752392">
<ele>287</ele>
<time>2024-05-07T15:34:34Z</time>
</trkpt>
<trkpt lat="49.25775141455233" lon="9.496143339201808">
<ele>287</ele>
<time>2024-05-07T15:34:35Z</time>
</trkpt>
<trkpt lat="49.25779340788722" lon="9.496129928156734">
<ele>287</ele>
<time>2024-05-07T15:34:36Z</time>
</trkpt>
<trkpt lat="49.25783917307854" lon="9.49611467309296">
<ele>287</ele>
<time>2024-05-07T15:34:37Z</time>
</trkpt>
<trkpt lat="49.257884938269854" lon="9.49610134586692">
<ele>287</ele>
<time>2024-05-07T15:34:38Z</time>
</trkpt>
<trkpt lat="49.25793070346117" lon="9.496089862659574">
<ele>287</ele>
<time>2024-05-07T15:34:39Z</time>
</trkpt>
<trkpt lat="49.25797269679606" lon="9.49607653543353">
<ele>287</ele>
<time>2024-05-07T15:34:40Z</time>
</trkpt>
<trkpt lat="49.258018461987376" lon="9.49606128036976">
<ele>287.2</ele>
<time>2024-05-07T15:34:41Z</time>
</trkpt>
<trkpt lat="49.258060455322266" lon="9.496047953143716">
<ele>287.2</ele>
<time>2024-05-07T15:34:42Z</time>
</trkpt>
<trkpt lat="49.25810622051358" lon="9.4960383977741">
<ele>287.2</ele>
<time>2024-05-07T15:34:43Z</time>
</trkpt>
<trkpt lat="49.25814813002944" lon="9.496025070548058">
<ele>287.2</ele>
<time>2024-05-07T15:34:44Z</time>
</trkpt>
<trkpt lat="49.25819012336433" lon="9.496009815484284">
<ele>287.4</ele>
<time>2024-05-07T15:34:45Z</time>
</trkpt>
<trkpt lat="49.25823211669922" lon="9.495994560420511">
<ele>287.4</ele>
<time>2024-05-07T15:34:46Z</time>
</trkpt>
<trkpt lat="49.258277881890535" lon="9.49598022736609">
<ele>287.6</ele>
<time>2024-05-07T15:34:47Z</time>
</trkpt>
<trkpt lat="49.25831979140639" lon="9.495964972302318">
<ele>287.8</ele>
<time>2024-05-07T15:34:48Z</time>
</trkpt>
<trkpt lat="49.25836178474128" lon="9.495956338942053">
<ele>288</ele>
<time>2024-05-07T15:34:49Z</time>
</trkpt>
<trkpt lat="49.25840377807617" lon="9.495943011716008">
<ele>288.2</ele>
<time>2024-05-07T15:34:50Z</time>
</trkpt>
<trkpt lat="49.25844568759203" lon="9.495928762480617">
<ele>288.4</ele>
<time>2024-05-07T15:34:51Z</time>
</trkpt>
<trkpt lat="49.25848382525146" lon="9.495911579579117">
<ele>288.6</ele>
<time>2024-05-07T15:34:52Z</time>
</trkpt>
<trkpt lat="49.25852581858635" lon="9.495896324515344">
<ele>288.6</ele>
<time>2024-05-07T15:34:53Z</time>
</trkpt>
<trkpt lat="49.25856772810221" lon="9.49588199146092">
<ele>289</ele>
<time>2024-05-07T15:34:54Z</time>
</trkpt>
<trkpt lat="49.25860594958067" lon="9.495868664234877">
<ele>289.2</ele>
<time>2024-05-07T15:34:55Z</time>
</trkpt>
<trkpt lat="49.25864785909653" lon="9.495853409171104">
<ele>289.4</ele>
<time>2024-05-07T15:34:56Z</time>
</trkpt>
<trkpt lat="49.25868985243142" lon="9.495838154107332">
<ele>289.6</ele>
<time>2024-05-07T15:34:57Z</time>
</trkpt>
<trkpt lat="49.25872799009085" lon="9.495824743062258">
<ele>289.8</ele>
<time>2024-05-07T15:34:58Z</time>
</trkpt>
<trkpt lat="49.25876612775028" lon="9.495808565989137">
<ele>290.2</ele>
<time>2024-05-07T15:34:59Z</time>
</trkpt>
<trkpt lat="49.25880812108517" lon="9.495791383087637">
<ele>290.4</ele>
<time>2024-05-07T15:35:00Z</time>
</trkpt>
<trkpt lat="49.2588462587446" lon="9.495775206014514">
<ele>290.6</ele>
<time>2024-05-07T15:35:01Z</time>
</trkpt>
<trkpt lat="49.25888054072857" lon="9.495759950950742">
<ele>291</ele>
<time>2024-05-07T15:35:02Z</time>
</trkpt>
<trkpt lat="49.25891876220703" lon="9.495743690058587">
<ele>291.2</ele>
<time>2024-05-07T15:35:03Z</time>
</trkpt>
<trkpt lat="49.25895689986646" lon="9.49572466313839">
<ele>291.6</ele>
<time>2024-05-07T15:35:04Z</time>
</trkpt>
<trkpt lat="49.25899503752589" lon="9.49570655822754">
<ele>291.8</ele>
<time>2024-05-07T15:35:05Z</time>
</trkpt>
<trkpt lat="49.25903317518532" lon="9.49568459764123">
<ele>292</ele>
<time>2024-05-07T15:35:06Z</time>
</trkpt>
<trkpt lat="49.259067457169294" lon="9.4956636428833">
<ele>292.2</ele>
<time>2024-05-07T15:35:07Z</time>
</trkpt>
<trkpt lat="49.25910567864776" lon="9.495639754459262">
<ele>292.6</ele>
<time>2024-05-07T15:35:08Z</time>
</trkpt>
<trkpt lat="49.25913996063173" lon="9.495618799701331">
<ele>292.8</ele>
<time>2024-05-07T15:35:09Z</time>
</trkpt>
<trkpt lat="49.25917809829116" lon="9.495594911277294">
<ele>293.2</ele>
<time>2024-05-07T15:35:10Z</time>
</trkpt>
<trkpt lat="49.25921246409416" lon="9.495573034510016">
<ele>293.4</ele>
<time>2024-05-07T15:35:11Z</time>
</trkpt>
<trkpt lat="49.259246746078134" lon="9.495556773617864">
<ele>293.6</ele>
<time>2024-05-07T15:35:12Z</time>
</trkpt>
<trkpt lat="49.25928111188114" lon="9.495541518554091">
<ele>293.8</ele>
<time>2024-05-07T15:35:13Z</time>
</trkpt>
<trkpt lat="49.25931547768414" lon="9.49552341364324">
<ele>294</ele>
<time>2024-05-07T15:35:14Z</time>
</trkpt>
<trkpt lat="49.25934975966811" lon="9.495501453056931">
<ele>294.4</ele>
<time>2024-05-07T15:35:15Z</time>
</trkpt>
<trkpt lat="49.259380269795656" lon="9.495479576289654">
<ele>294.6</ele>
<time>2024-05-07T15:35:16Z</time>
</trkpt>
<trkpt lat="49.25941463559866" lon="9.495458537712691">
<ele>294.8</ele>
<time>2024-05-07T15:35:17Z</time>
</trkpt>
<trkpt lat="49.25944514572621" lon="9.495438504964111">
<ele>295.2</ele>
<time>2024-05-07T15:35:18Z</time>
</trkpt>
<trkpt lat="49.25947951152921" lon="9.495416628196836">
<ele>295.4</ele>
<time>2024-05-07T15:35:19Z</time>
</trkpt>
<trkpt lat="49.25951379351318" lon="9.495396595448256">
<ele>295.6</ele>
<time>2024-05-07T15:35:20Z</time>
</trkpt>
<trkpt lat="49.25954430364072" lon="9.495373712852595">
<ele>295.8</ele>
<time>2024-05-07T15:35:21Z</time>
</trkpt>
<trkpt lat="49.25957481376827" lon="9.495351752266288">
<ele>296</ele>
<time>2024-05-07T15:35:22Z</time>
</trkpt>
<trkpt lat="49.25960540771485" lon="9.495331719517708">
<ele>296.4</ele>
<time>2024-05-07T15:35:23Z</time>
</trkpt>
<trkpt lat="49.25963591784239" lon="9.495313614606856">
<ele>296.6</ele>
<time>2024-05-07T15:35:24Z</time>
</trkpt>
<trkpt lat="49.25966642796993" lon="9.495291654020548">
<ele>296.8</ele>
<time>2024-05-07T15:35:25Z</time>
</trkpt>
<trkpt lat="49.25969693809748" lon="9.495271621271968">
<ele>297</ele>
<time>2024-05-07T15:35:26Z</time>
</trkpt>
<trkpt lat="49.25973122008145" lon="9.495251588523388">
<ele>297.4</ele>
<time>2024-05-07T15:35:27Z</time>
</trkpt>
<trkpt lat="49.25976173020899" lon="9.49522971175611">
<ele>297.6</ele>
<time>2024-05-07T15:35:28Z</time>
</trkpt>
<trkpt lat="49.25978846848011" lon="9.49520867317915">
<ele>297.8</ele>
<time>2024-05-07T15:35:29Z</time>
</trkpt>
<trkpt lat="49.25981135107577" lon="9.495178163051603">
<ele>298</ele>
<time>2024-05-07T15:35:30Z</time>
</trkpt>
<trkpt lat="49.25983423367143" lon="9.495156286284328">
<ele>298.4</ele>
<time>2024-05-07T15:35:31Z</time>
</trkpt>
<trkpt lat="49.25985334441066" lon="9.495135247707369">
<ele>298.6</ele>
<time>2024-05-07T15:35:32Z</time>
</trkpt>
<trkpt lat="49.25986859947443" lon="9.495115214958789">
<ele>298.8</ele>
<time>2024-05-07T15:35:33Z</time>
</trkpt>
<trkpt lat="49.25988762639463" lon="9.495098032057284">
<ele>299</ele>
<time>2024-05-07T15:35:34Z</time>
</trkpt>
<trkpt lat="49.25990673713386" lon="9.495086632668972">
<ele>299.2</ele>
<time>2024-05-07T15:35:35Z</time>
</trkpt>
<trkpt lat="49.25992576405406" lon="9.495077077299356">
<ele>299.4</ele>
<time>2024-05-07T15:35:36Z</time>
</trkpt>
<trkpt lat="49.25994487479329" lon="9.4950713776052">
<ele>299.6</ele>
<time>2024-05-07T15:35:37Z</time>
</trkpt>
<trkpt lat="49.25996012985706" lon="9.495064672082664">
<ele>299.6</ele>
<time>2024-05-07T15:35:38Z</time>
</trkpt>
<trkpt lat="49.25997161306441" lon="9.495058050379155">
<ele>299.6</ele>
<time>2024-05-07T15:35:39Z</time>
</trkpt>
<trkpt lat="49.259979240596294" lon="9.49505134485662">
<ele>299.8</ele>
<time>2024-05-07T15:35:40Z</time>
</trkpt>
<trkpt lat="49.259979240596294" lon="9.495048495009542">
<ele>299.8</ele>
<time>2024-05-07T15:35:41Z</time>
</trkpt>
<trkpt lat="49.25998301245272" lon="9.495044639334084">
<ele>300</ele>
<time>2024-05-07T15:35:42Z</time>
</trkpt>
<trkpt lat="49.25998301245272" lon="9.495041789487004">
<ele>300.2</ele>
<time>2024-05-07T15:35:43Z</time>
</trkpt>
<trkpt lat="49.25998686812818" lon="9.495038017630575">
<ele>300.2</ele>
<time>2024-05-07T15:35:44Z</time>
</trkpt>
<trkpt lat="49.25998301245272" lon="9.495039861649277">
<ele>300.2</ele>
<time>2024-05-07T15:35:46Z</time>
</trkpt>
<trkpt lat="49.25998301245272" lon="9.495038017630575">
<ele>300.4</ele>
<time>2024-05-07T15:35:48Z</time>
</trkpt>
<trkpt lat="49.25998301245272" lon="9.495039861649277">
<ele>300.4</ele>
<time>2024-05-07T15:35:50Z</time>
</trkpt>
<trkpt lat="49.25998686812818" lon="9.495039861649277">
<ele>300.4</ele>
<time>2024-05-07T15:35:54Z</time>
</trkpt>
<trkpt lat="49.25998686812818" lon="9.495038017630575">
<ele>300.4</ele>
<time>2024-05-07T15:35:56Z</time>
</trkpt>
<trkpt lat="49.25998686812818" lon="9.495039861649277">
<ele>300.6</ele>
<time>2024-05-07T15:35:58Z</time>
</trkpt>
<trkpt lat="49.25998686812818" lon="9.495041789487004">
<ele>300.6</ele>
<time>2024-05-07T15:36:19Z</time>
</trkpt>
<trkpt lat="49.25998686812818" lon="9.495043717324734">
<ele>300.6</ele>
<time>2024-05-07T15:36:30Z</time>
</trkpt>
<trkpt lat="49.25998686812818" lon="9.495044639334084">
<ele>300.6</ele>
<time>2024-05-07T15:36:32Z</time>
</trkpt>
<trkpt lat="49.25998686812818" lon="9.495046567171812">
<ele>300.6</ele>
<time>2024-05-07T15:36:39Z</time>
</trkpt>
<trkpt lat="49.25998686812818" lon="9.495044639334084">
<ele>300.6</ele>
<time>2024-05-07T15:36:40Z</time>
</trkpt>
<trkpt lat="49.25998686812818" lon="9.495046567171812">
<ele>300.6</ele>
<time>2024-05-07T15:36:48Z</time>
</trkpt>
<trkpt lat="49.25998686812818" lon="9.495044639334084">
<ele>300.6</ele>
<time>2024-05-07T15:36:49Z</time>
</trkpt>
<trkpt lat="49.25999063998461" lon="9.495044639334084">
<ele>300.6</ele>
<time>2024-05-07T15:36:51Z</time>
</trkpt>
<trkpt lat="49.25999063998461" lon="9.495046567171812">
<ele>300.4</ele>
<time>2024-05-07T15:37:01Z</time>
</trkpt>
<trkpt lat="49.25999063998461" lon="9.495048495009542">
<ele>300.4</ele>
<time>2024-05-07T15:37:03Z</time>
</trkpt>
<trkpt lat="49.25999063998461" lon="9.495050422847273">
<ele>300.4</ele>
<time>2024-05-07T15:37:13Z</time>
</trkpt>
<trkpt lat="49.25999449566007" lon="9.495050422847273">
<ele>300.4</ele>
<time>2024-05-07T15:37:14Z</time>
</trkpt>
<trkpt lat="49.25999063998461" lon="9.495050422847273">
<ele>300.4</ele>
<time>2024-05-07T15:37:15Z</time>
</trkpt>
<trkpt lat="49.25999063998461" lon="9.495048495009542">
<ele>300.4</ele>
<time>2024-05-07T15:37:21Z</time>
</trkpt>
<trkpt lat="49.25999063998461" lon="9.495046567171812">
<ele>300.4</ele>
<time>2024-05-07T15:37:24Z</time>
</trkpt>
<trkpt lat="49.25999063998461" lon="9.495048495009542">
<ele>300.4</ele>
<time>2024-05-07T15:37:25Z</time>
</trkpt>
<trkpt lat="49.25999063998461" lon="9.495050422847273">
<ele>300.2</ele>
<time>2024-05-07T15:37:30Z</time>
</trkpt>
<trkpt lat="49.25999449566007" lon="9.495050422847273">
<ele>300</ele>
<time>2024-05-07T15:37:37Z</time>
</trkpt>
<trkpt lat="49.25999449566007" lon="9.49505134485662">
<ele>300</ele>
<time>2024-05-07T15:37:39Z</time>
</trkpt>
<trkpt lat="49.25999449566007" lon="9.49505327269435">
<ele>300</ele>
<time>2024-05-07T15:37:47Z</time>
</trkpt>
<trkpt lat="49.25999449566007" lon="9.49505134485662">
<ele>300</ele>
<time>2024-05-07T15:37:48Z</time>
</trkpt>
<trkpt lat="49.25999449566007" lon="9.49505327269435">
<ele>299.8</ele>
<time>2024-05-07T15:37:49Z</time>
</trkpt>
<trkpt lat="49.259998267516494" lon="9.495055116713049">
<ele>299.8</ele>
<time>2024-05-07T15:37:53Z</time>
</trkpt>
<trkpt lat="49.259998267516494" lon="9.49505327269435">
<ele>299.8</ele>
<time>2024-05-07T15:37:54Z</time>
</trkpt>
<trkpt lat="49.259998267516494" lon="9.49505134485662">
<ele>300</ele>
<time>2024-05-07T15:37:55Z</time>
</trkpt>
<trkpt lat="49.259998267516494" lon="9.495050422847273">
<ele>300</ele>
<time>2024-05-07T15:37:56Z</time>
</trkpt>
<trkpt lat="49.259998267516494" lon="9.495048495009542">
<ele>300</ele>
<time>2024-05-07T15:37:57Z</time>
</trkpt>
<trkpt lat="49.259998267516494" lon="9.495046567171812">
<ele>300</ele>
<time>2024-05-07T15:37:58Z</time>
</trkpt>
<trkpt lat="49.25999449566007" lon="9.495041789487004">
<ele>300</ele>
<time>2024-05-07T15:37:59Z</time>
</trkpt>
<trkpt lat="49.25999449566007" lon="9.4950351677835">
<ele>300.2</ele>
<time>2024-05-07T15:38:00Z</time>
</trkpt>
<trkpt lat="49.25999449566007" lon="9.49503131210804">
<ele>300.2</ele>
<time>2024-05-07T15:38:01Z</time>
</trkpt>
<trkpt lat="49.25999063998461" lon="9.4950351677835">
<ele>300.2</ele>
<time>2024-05-07T15:38:02Z</time>
</trkpt>
<trkpt lat="49.25999063998461" lon="9.49503131210804">
<ele>300.2</ele>
<time>2024-05-07T15:38:03Z</time>
</trkpt>
<trkpt lat="49.25999063998461" lon="9.495030390098693">
<ele>300.2</ele>
<time>2024-05-07T15:38:04Z</time>
</trkpt>
<trkpt lat="49.25999449566007" lon="9.495028462260962">
<ele>300.2</ele>
<time>2024-05-07T15:38:07Z</time>
</trkpt>
<trkpt lat="49.25999449566007" lon="9.495026534423232">
<ele>300.2</ele>
<time>2024-05-07T15:38:10Z</time>
</trkpt>
<trkpt lat="49.25999449566007" lon="9.495028462260962">
<ele>300.4</ele>
<time>2024-05-07T15:38:11Z</time>
</trkpt>
<trkpt lat="49.25999449566007" lon="9.495030390098693">
<ele>300.4</ele>
<time>2024-05-07T15:38:15Z</time>
</trkpt>
<trkpt lat="49.259998267516494" lon="9.495030390098693">
<ele>300.6</ele>
<time>2024-05-07T15:38:16Z</time>
</trkpt>
<trkpt lat="49.259998267516494" lon="9.49503131210804">
<ele>300.6</ele>
<time>2024-05-07T15:38:19Z</time>
</trkpt>
<trkpt lat="49.259998267516494" lon="9.49503323994577">
<ele>300.6</ele>
<time>2024-05-07T15:38:23Z</time>
</trkpt>
<trkpt lat="49.259998267516494" lon="9.49503131210804">
<ele>300.6</ele>
<time>2024-05-07T15:38:29Z</time>
</trkpt>
<trkpt lat="49.26000212319195" lon="9.495030390098693">
<ele>300.4</ele>
<time>2024-05-07T15:38:30Z</time>
</trkpt>
<trkpt lat="49.26000589504838" lon="9.495030390098693">
<ele>300.4</ele>
<time>2024-05-07T15:38:31Z</time>
</trkpt>
<trkpt lat="49.26000975072384" lon="9.495028462260962">
<ele>300.4</ele>
<time>2024-05-07T15:38:32Z</time>
</trkpt>
<trkpt lat="49.260017378255725" lon="9.495024606585504">
<ele>300.4</ele>
<time>2024-05-07T15:38:33Z</time>
</trkpt>
<trkpt lat="49.26002115011215" lon="9.495023684576154">
<ele>300.2</ele>
<time>2024-05-07T15:38:34Z</time>
</trkpt>
<trkpt lat="49.26002500578761" lon="9.495024606585504">
<ele>300.2</ele>
<time>2024-05-07T15:38:35Z</time>
</trkpt>
<trkpt lat="49.26002877764404" lon="9.495026534423232">
<ele>300.2</ele>
<time>2024-05-07T15:38:36Z</time>
</trkpt>
<trkpt lat="49.26002500578761" lon="9.495026534423232">
<ele>300.2</ele>
<time>2024-05-07T15:38:37Z</time>
</trkpt>
<trkpt lat="49.26002500578761" lon="9.495030390098693">
<ele>300</ele>
<time>2024-05-07T15:38:38Z</time>
</trkpt>
<trkpt lat="49.26002500578761" lon="9.49503131210804">
<ele>300</ele>
<time>2024-05-07T15:38:40Z</time>
</trkpt>
<trkpt lat="49.26002500578761" lon="9.495039861649277">
<ele>300</ele>
<time>2024-05-07T15:38:41Z</time>
</trkpt>
<trkpt lat="49.26002877764404" lon="9.495048495009542">
<ele>300</ele>
<time>2024-05-07T15:38:42Z</time>
</trkpt>
<trkpt lat="49.2600326333195" lon="9.495055116713049">
<ele>300</ele>
<time>2024-05-07T15:38:43Z</time>
</trkpt>
<trkpt lat="49.26003640517592" lon="9.495061822235584">
<ele>300</ele>
<time>2024-05-07T15:38:44Z</time>
</trkpt>
<trkpt lat="49.26004403270781" lon="9.495064672082664">
<ele>300</ele>
<time>2024-05-07T15:38:45Z</time>
</trkpt>
<trkpt lat="49.26005928777158" lon="9.495064672082664">
<ele>300</ele>
<time>2024-05-07T15:38:46Z</time>
</trkpt>
<trkpt lat="49.26007077097893" lon="9.495063750073314">
<ele>300</ele>
<time>2024-05-07T15:38:47Z</time>
</trkpt>
<trkpt lat="49.26008979789913" lon="9.49505134485662">
<ele>300</ele>
<time>2024-05-07T15:38:48Z</time>
</trkpt>
<trkpt lat="49.2601050529629" lon="9.495038017630575">
<ele>300</ele>
<time>2024-05-07T15:38:49Z</time>
</trkpt>
<trkpt lat="49.26012416370213" lon="9.495019912719728">
<ele>300</ele>
<time>2024-05-07T15:38:50Z</time>
</trkpt>
<trkpt lat="49.26014327444136" lon="9.49501127935946">
<ele>300</ele>
<time>2024-05-07T15:38:51Z</time>
</trkpt>
<trkpt lat="49.260158529505134" lon="9.495003651827574">
<ele>300</ele>
<time>2024-05-07T15:38:52Z</time>
</trkpt>
<trkpt lat="49.26017755642533" lon="9.49499510228634">
<ele>300</ele>
<time>2024-05-07T15:38:53Z</time>
</trkpt>
<trkpt lat="49.260192811489105" lon="9.494996946305037">
<ele>300</ele>
<time>2024-05-07T15:38:54Z</time>
</trkpt>
<trkpt lat="49.26020806655288" lon="9.49499317444861">
<ele>300.2</ele>
<time>2024-05-07T15:38:55Z</time>
</trkpt>
<trkpt lat="49.26022717729211" lon="9.49499317444861">
<ele>300.2</ele>
<time>2024-05-07T15:38:56Z</time>
</trkpt>
<trkpt lat="49.26024620421231" lon="9.494986468926072">
<ele>300.4</ele>
<time>2024-05-07T15:38:57Z</time>
</trkpt>
<trkpt lat="49.26026531495154" lon="9.494976997375488">
<ele>300.6</ele>
<time>2024-05-07T15:38:58Z</time>
</trkpt>
<trkpt lat="49.26028434187174" lon="9.494957886636255">
<ele>300.6</ele>
<time>2024-05-07T15:38:59Z</time>
</trkpt>
<trkpt lat="49.26030345261097" lon="9.494941709563136">
<ele>300.8</ele>
<time>2024-05-07T15:39:00Z</time>
</trkpt>
<trkpt lat="49.26032633520663" lon="9.494924526661634">
<ele>301</ele>
<time>2024-05-07T15:39:01Z</time>
</trkpt>
<trkpt lat="49.260349217802286" lon="9.494910193607211">
<ele>301.2</ele>
<time>2024-05-07T15:39:02Z</time>
</trkpt>
<trkpt lat="49.2603759560734" lon="9.49489301070571">
<ele>301.4</ele>
<time>2024-05-07T15:39:03Z</time>
</trkpt>
<trkpt lat="49.26039883866906" lon="9.494878761470318">
<ele>301.6</ele>
<time>2024-05-07T15:39:04Z</time>
</trkpt>
<trkpt lat="49.26042172126472" lon="9.494866356253624">
<ele>301.8</ele>
<time>2024-05-07T15:39:05Z</time>
</trkpt>
<trkpt lat="49.260448375716805" lon="9.494856800884008">
<ele>301.8</ele>
<time>2024-05-07T15:39:06Z</time>
</trkpt>
<trkpt lat="49.260471342131495" lon="9.494848251342772">
<ele>302</ele>
<time>2024-05-07T15:39:07Z</time>
</trkpt>
<trkpt lat="49.26049799658358" lon="9.494838695973158">
<ele>302.2</ele>
<time>2024-05-07T15:39:08Z</time>
</trkpt>
<trkpt lat="49.2605247348547" lon="9.494823440909386">
<ele>302.2</ele>
<time>2024-05-07T15:39:09Z</time>
</trkpt>
<trkpt lat="49.260551389306784" lon="9.494808185845612">
<ele>302.4</ele>
<time>2024-05-07T15:39:10Z</time>
</trkpt>
<trkpt lat="49.2605781275779" lon="9.49479293078184">
<ele>302.4</ele>
<time>2024-05-07T15:39:11Z</time>
</trkpt>
<trkpt lat="49.260604782029986" lon="9.494778597727418">
<ele>302.4</ele>
<time>2024-05-07T15:39:12Z</time>
</trkpt>
<trkpt lat="49.260627664625645" lon="9.494763342663646">
<ele>302.6</ele>
<time>2024-05-07T15:39:13Z</time>
</trkpt>
<trkpt lat="49.26065440289676" lon="9.494746159762144">
<ele>303</ele>
<time>2024-05-07T15:39:14Z</time>
</trkpt>
<trkpt lat="49.26067728549242" lon="9.494728054851294">
<ele>303.2</ele>
<time>2024-05-07T15:39:15Z</time>
</trkpt>
<trkpt lat="49.26070016808808" lon="9.49471472762525">
<ele>303.4</ele>
<time>2024-05-07T15:39:16Z</time>
</trkpt>
<trkpt lat="49.26071927882731" lon="9.494698466733098">
<ele>303.8</ele>
<time>2024-05-07T15:39:17Z</time>
</trkpt>
<trkpt lat="49.26074216142297" lon="9.494683211669326">
<ele>304</ele>
<time>2024-05-07T15:39:18Z</time>
</trkpt>
<trkpt lat="49.260765044018626" lon="9.494667956605554">
<ele>304.2</ele>
<time>2024-05-07T15:39:19Z</time>
</trkpt>
<trkpt lat="49.26079169847071" lon="9.49465655721724">
<ele>304.4</ele>
<time>2024-05-07T15:39:20Z</time>
</trkpt>
<trkpt lat="49.260826064273715" lon="9.494645074009895">
<ele>304.4</ele>
<time>2024-05-07T15:39:21Z</time>
</trkpt>
<trkpt lat="49.26085657440126" lon="9.494629818946123">
<ele>304.8</ele>
<time>2024-05-07T15:39:22Z</time>
</trkpt>
<trkpt lat="49.26088331267238" lon="9.494618335738778">
<ele>305</ele>
<time>2024-05-07T15:39:23Z</time>
</trkpt>
<trkpt lat="49.26091382279992" lon="9.494609786197543">
<ele>305.2</ele>
<time>2024-05-07T15:39:24Z</time>
</trkpt>
<trkpt lat="49.26093670539558" lon="9.494603080675006">
<ele>305.4</ele>
<time>2024-05-07T15:39:25Z</time>
</trkpt>
<trkpt lat="49.26095573231578" lon="9.494600230827928">
<ele>305.8</ele>
<time>2024-05-07T15:39:26Z</time>
</trkpt>
<trkpt lat="49.26097484305501" lon="9.49459838680923">
<ele>306</ele>
<time>2024-05-07T15:39:27Z</time>
</trkpt>
<trkpt lat="49.26100158132613" lon="9.49459838680923">
<ele>306.2</ele>
<time>2024-05-07T15:39:28Z</time>
</trkpt>
<trkpt lat="49.26102823577821" lon="9.494591681286693">
<ele>306.4</ele>
<time>2024-05-07T15:39:29Z</time>
</trkpt>
<trkpt lat="49.26105111837387" lon="9.494584975764155">
<ele>306.6</ele>
<time>2024-05-07T15:39:30Z</time>
</trkpt>
<trkpt lat="49.26107400096953" lon="9.494581203907728">
<ele>306.8</ele>
<time>2024-05-07T15:39:31Z</time>
</trkpt>
<trkpt lat="49.261104511097074" lon="9.494574498385193">
<ele>307.2</ele>
<time>2024-05-07T15:39:32Z</time>
</trkpt>
<trkpt lat="49.26112739369273" lon="9.494569720700383">
<ele>307.4</ele>
<time>2024-05-07T15:39:33Z</time>
</trkpt>
<trkpt lat="49.26115798763931" lon="9.494574498385193">
<ele>307.8</ele>
<time>2024-05-07T15:39:34Z</time>
</trkpt>
<trkpt lat="49.26119612529874" lon="9.494566870853305">
<ele>308</ele>
<time>2024-05-07T15:39:35Z</time>
</trkpt>
<trkpt lat="49.26123040728271" lon="9.494553543627262">
<ele>308.2</ele>
<time>2024-05-07T15:39:36Z</time>
</trkpt>
<trkpt lat="49.26126477308571" lon="9.494540132582188">
<ele>308.6</ele>
<time>2024-05-07T15:39:37Z</time>
</trkpt>
<trkpt lat="49.261299055069685" lon="9.494531583040953">
<ele>308.8</ele>
<time>2024-05-07T15:39:38Z</time>
</trkpt>
<trkpt lat="49.26132964901626" lon="9.494526805356143">
<ele>309.2</ele>
<time>2024-05-07T15:39:39Z</time>
</trkpt>
<trkpt lat="49.261360159143806" lon="9.494513478130102">
<ele>309.4</ele>
<time>2024-05-07T15:39:40Z</time>
</trkpt>
<trkpt lat="49.26139066927135" lon="9.49449822306633">
<ele>309.6</ele>
<time>2024-05-07T15:39:41Z</time>
</trkpt>
<trkpt lat="49.261417323723435" lon="9.494488667696714">
<ele>309.8</ele>
<time>2024-05-07T15:39:42Z</time>
</trkpt>
<trkpt lat="49.26144406199455" lon="9.494484895840287">
<ele>310</ele>
<time>2024-05-07T15:39:43Z</time>
</trkpt>
<trkpt lat="49.26147834397853" lon="9.494469640776517">
<ele>310.2</ele>
<time>2024-05-07T15:39:44Z</time>
</trkpt>
<trkpt lat="49.26150508224964" lon="9.494453379884362">
<ele>310.4</ele>
<time>2024-05-07T15:39:45Z</time>
</trkpt>
<trkpt lat="49.261535592377186" lon="9.49443619698286">
<ele>310.4</ele>
<time>2024-05-07T15:39:46Z</time>
</trkpt>
<trkpt lat="49.2615623306483" lon="9.494421947747467">
<ele>310.6</ele>
<time>2024-05-07T15:39:47Z</time>
</trkpt>
<trkpt lat="49.261596612632275" lon="9.494408536702394">
<ele>310.8</ele>
<time>2024-05-07T15:39:48Z</time>
</trkpt>
<trkpt lat="49.26161949522793" lon="9.494395209476352">
<ele>310.8</ele>
<time>2024-05-07T15:39:49Z</time>
</trkpt>
<trkpt lat="49.26164623349905" lon="9.49437802657485">
<ele>311</ele>
<time>2024-05-07T15:39:50Z</time>
</trkpt>
<trkpt lat="49.26167297177017" lon="9.494364699348807">
<ele>311</ele>
<time>2024-05-07T15:39:51Z</time>
</trkpt>
<trkpt lat="49.26169199869037" lon="9.494350366294384">
<ele>311.2</ele>
<time>2024-05-07T15:39:52Z</time>
</trkpt>
<trkpt lat="49.26172250881791" lon="9.494335111230612">
<ele>311.4</ele>
<time>2024-05-07T15:39:53Z</time>
</trkpt>
<trkpt lat="49.26174924708903" lon="9.494306528940797">
<ele>311.6</ele>
<time>2024-05-07T15:39:54Z</time>
</trkpt>
<trkpt lat="49.26177975721657" lon="9.494273168966174">
<ele>311.8</ele>
<time>2024-05-07T15:39:55Z</time>
</trkpt>
<trkpt lat="49.26180641166866" lon="9.494246430695055">
<ele>312</ele>
<time>2024-05-07T15:39:56Z</time>
</trkpt>
<trkpt lat="49.261837005615234" lon="9.494228325784206">
<ele>312.2</ele>
<time>2024-05-07T15:39:57Z</time>
</trkpt>
<trkpt lat="49.26186751574278" lon="9.494211142882705">
<ele>312.4</ele>
<time>2024-05-07T15:39:58Z</time>
</trkpt>
<trkpt lat="49.26189802587032" lon="9.494192115962504">
<ele>312.4</ele>
<time>2024-05-07T15:39:59Z</time>
</trkpt>
<trkpt lat="49.261932307854295" lon="9.49417870491743">
<ele>312.6</ele>
<time>2024-05-07T15:40:00Z</time>
</trkpt>
<trkpt lat="49.2619666736573" lon="9.49416344985366">
<ele>312.6</ele>
<time>2024-05-07T15:40:01Z</time>
</trkpt>
<trkpt lat="49.26200866699219" lon="9.49414157308638">
<ele>312.8</ele>
<time>2024-05-07T15:40:02Z</time>
</trkpt>
<trkpt lat="49.26204680465162" lon="9.4941215403378">
<ele>312.8</ele>
<time>2024-05-07T15:40:03Z</time>
</trkpt>
<trkpt lat="49.262092569842935" lon="9.494098657742144">
<ele>312.8</ele>
<time>2024-05-07T15:40:04Z</time>
</trkpt>
<trkpt lat="49.26213833503425" lon="9.494076697155831">
<ele>312.8</ele>
<time>2024-05-07T15:40:05Z</time>
</trkpt>
<trkpt lat="49.26218410022557" lon="9.494056664407251">
<ele>313</ele>
<time>2024-05-07T15:40:06Z</time>
</trkpt>
<trkpt lat="49.26223372109234" lon="9.494036631658672">
<ele>313</ele>
<time>2024-05-07T15:40:07Z</time>
</trkpt>
<trkpt lat="49.262287113815546" lon="9.494020454585552">
<ele>313.2</ele>
<time>2024-05-07T15:40:08Z</time>
</trkpt>
<trkpt lat="49.26233665086329" lon="9.493996566161512">
<ele>313.2</ele>
<time>2024-05-07T15:40:09Z</time>
</trkpt>
<trkpt lat="49.26239012740552" lon="9.493976533412932">
<ele>313.4</ele>
<time>2024-05-07T15:40:10Z</time>
</trkpt>
<trkpt lat="49.26244352012873" lon="9.493949878960848">
<ele>313.6</ele>
<time>2024-05-07T15:40:11Z</time>
</trkpt>
<trkpt lat="49.262504540383816" lon="9.49392314068973">
<ele>313.6</ele>
<time>2024-05-07T15:40:12Z</time>
</trkpt>
<trkpt lat="49.26256178878248" lon="9.493894558399916">
<ele>313.6</ele>
<time>2024-05-07T15:40:13Z</time>
</trkpt>
<trkpt lat="49.262622809037566" lon="9.49386689811945">
<ele>313.6</ele>
<time>2024-05-07T15:40:14Z</time>
</trkpt>
<trkpt lat="49.2626799736172" lon="9.49384300969541">
<ele>313.4</ele>
<time>2024-05-07T15:40:15Z</time>
</trkpt>
<trkpt lat="49.26273722201586" lon="9.49382297694683">
<ele>313.2</ele>
<time>2024-05-07T15:40:16Z</time>
</trkpt>
<trkpt lat="49.26279061473906" lon="9.493811577558516">
<ele>313.2</ele>
<time>2024-05-07T15:40:17Z</time>
</trkpt>
<trkpt lat="49.26284400746226" lon="9.493793472647669">
<ele>313</ele>
<time>2024-05-07T15:40:18Z</time>
</trkpt>
<trkpt lat="49.2628974840045" lon="9.493782995268704">
<ele>312.8</ele>
<time>2024-05-07T15:40:19Z</time>
</trkpt>
<trkpt lat="49.2629508767277" lon="9.49376866221428">
<ele>312.8</ele>
<time>2024-05-07T15:40:20Z</time>
</trkpt>
<trkpt lat="49.2630042694509" lon="9.493749551475048">
<ele>312.6</ele>
<time>2024-05-07T15:40:21Z</time>
</trkpt>
<trkpt lat="49.263061517849565" lon="9.493729518726468">
<ele>312.6</ele>
<time>2024-05-07T15:40:22Z</time>
</trkpt>
<trkpt lat="49.26311105489731" lon="9.493711413815618">
<ele>312.4</ele>
<time>2024-05-07T15:40:23Z</time>
</trkpt>
<trkpt lat="49.26316444762051" lon="9.493695236742496">
<ele>312.4</ele>
<time>2024-05-07T15:40:24Z</time>
</trkpt>
<trkpt lat="49.263217924162745" lon="9.493677131831646">
<ele>312.2</ele>
<time>2024-05-07T15:40:25Z</time>
</trkpt>
<trkpt lat="49.26326746121049" lon="9.493663720786572">
<ele>312</ele>
<time>2024-05-07T15:40:26Z</time>
</trkpt>
<trkpt lat="49.26332470960915" lon="9.493651315569878">
<ele>311.8</ele>
<time>2024-05-07T15:40:27Z</time>
</trkpt>
<trkpt lat="49.263378102332354" lon="9.493639916181564">
<ele>311.8</ele>
<time>2024-05-07T15:40:28Z</time>
</trkpt>
<trkpt lat="49.26343149505555" lon="9.493624661117792">
<ele>311.6</ele>
<time>2024-05-07T15:40:29Z</time>
</trkpt>
<trkpt lat="49.26348488777876" lon="9.493610328063369">
<ele>311.4</ele>
<time>2024-05-07T15:40:30Z</time>
</trkpt>
<trkpt lat="49.26353828050196" lon="9.493599850684404">
<ele>311.4</ele>
<time>2024-05-07T15:40:31Z</time>
</trkpt>
<trkpt lat="49.26359175704419" lon="9.493593145161867">
<ele>311.2</ele>
<time>2024-05-07T15:40:32Z</time>
</trkpt>
<trkpt lat="49.2636451497674" lon="9.493590295314789">
<ele>311.2</ele>
<time>2024-05-07T15:40:33Z</time>
</trkpt>
<trkpt lat="49.2636985424906" lon="9.493584595620632">
<ele>311.2</ele>
<time>2024-05-07T15:40:34Z</time>
</trkpt>
<trkpt lat="49.26374816335738" lon="9.493579817935824">
<ele>311.2</ele>
<time>2024-05-07T15:40:35Z</time>
</trkpt>
<trkpt lat="49.26380155608058" lon="9.493575040251017">
<ele>311.2</ele>
<time>2024-05-07T15:40:36Z</time>
</trkpt>
<trkpt lat="49.26385109312832" lon="9.493575040251017">
<ele>311.4</ele>
<time>2024-05-07T15:40:37Z</time>
</trkpt>
<trkpt lat="49.26389694213867" lon="9.493575040251017">
<ele>311.6</ele>
<time>2024-05-07T15:40:38Z</time>
</trkpt>
<trkpt lat="49.26394270732999" lon="9.493573112413287">
<ele>311.8</ele>
<time>2024-05-07T15:40:39Z</time>
</trkpt>
<trkpt lat="49.263988472521305" lon="9.493568418547513">
<ele>312</ele>
<time>2024-05-07T15:40:40Z</time>
</trkpt>
<trkpt lat="49.264026610180736" lon="9.493559785187244">
<ele>312.4</ele>
<time>2024-05-07T15:40:41Z</time>
</trkpt>
<trkpt lat="49.264068603515625" lon="9.493556935340166">
<ele>312.6</ele>
<time>2024-05-07T15:40:42Z</time>
</trkpt>
<trkpt lat="49.26411436870694" lon="9.493555007502437">
<ele>313</ele>
<time>2024-05-07T15:40:43Z</time>
</trkpt>
<trkpt lat="49.2641562782228" lon="9.493556935340166">
<ele>313.2</ele>
<time>2024-05-07T15:40:44Z</time>
</trkpt>
<trkpt lat="49.26420204341411" lon="9.493556935340166">
<ele>313.6</ele>
<time>2024-05-07T15:40:45Z</time>
</trkpt>
<trkpt lat="49.264244036749005" lon="9.493559785187244">
<ele>314</ele>
<time>2024-05-07T15:40:46Z</time>
</trkpt>
<trkpt lat="49.26428980194032" lon="9.493561713024974">
<ele>314.4</ele>
<time>2024-05-07T15:40:47Z</time>
</trkpt>
<trkpt lat="49.26433179527521" lon="9.493566490709782">
<ele>314.6</ele>
<time>2024-05-07T15:40:48Z</time>
</trkpt>
<trkpt lat="49.26437370479107" lon="9.493570262566209">
<ele>315</ele>
<time>2024-05-07T15:40:49Z</time>
</trkpt>
<trkpt lat="49.26441569812596" lon="9.493577890098097">
<ele>315.2</ele>
<time>2024-05-07T15:40:50Z</time>
</trkpt>
<trkpt lat="49.26445769146085" lon="9.493583673611283">
<ele>315.4</ele>
<time>2024-05-07T15:40:51Z</time>
</trkpt>
<trkpt lat="49.264499600976706" lon="9.493584595620632">
<ele>315.8</ele>
<time>2024-05-07T15:40:52Z</time>
</trkpt>
<trkpt lat="49.264537738636136" lon="9.49358836747706">
<ele>316</ele>
<time>2024-05-07T15:40:53Z</time>
</trkpt>
<trkpt lat="49.26456824876368" lon="9.493583673611283">
<ele>316.4</ele>
<time>2024-05-07T15:40:54Z</time>
</trkpt>
<trkpt lat="49.26459884271026" lon="9.493577890098097">
<ele>316.6</ele>
<time>2024-05-07T15:40:55Z</time>
</trkpt>
<trkpt lat="49.26463312469423" lon="9.493564562872052">
<ele>316.8</ele>
<time>2024-05-07T15:40:56Z</time>
</trkpt>
<trkpt lat="49.26467126235366" lon="9.493553079664707">
<ele>316.8</ele>
<time>2024-05-07T15:40:57Z</time>
</trkpt>
<trkpt lat="49.26470940001309" lon="9.49353313073516">
<ele>317</ele>
<time>2024-05-07T15:40:58Z</time>
</trkpt>
<trkpt lat="49.26474753767252" lon="9.493516869843006">
<ele>317.2</ele>
<time>2024-05-07T15:40:59Z</time>
</trkpt>
<trkpt lat="49.26478953100741" lon="9.493499686941504">
<ele>317.2</ele>
<time>2024-05-07T15:41:00Z</time>
</trkpt>
<trkpt lat="49.2648315243423" lon="9.493481582030654">
<ele>317.4</ele>
<time>2024-05-07T15:41:01Z</time>
</trkpt>
<trkpt lat="49.26488106139004" lon="9.493458699434996">
<ele>317.6</ele>
<time>2024-05-07T15:41:02Z</time>
</trkpt>
<trkpt lat="49.26493453793228" lon="9.493434894829988">
<ele>317.6</ele>
<time>2024-05-07T15:41:03Z</time>
</trkpt>
<trkpt lat="49.26498407498002" lon="9.493414862081409">
<ele>317.8</ele>
<time>2024-05-07T15:41:04Z</time>
</trkpt>
<trkpt lat="49.26503746770322" lon="9.49339197948575">
<ele>317.8</ele>
<time>2024-05-07T15:41:05Z</time>
</trkpt>
<trkpt lat="49.26508708857" lon="9.49337001889944">
<ele>317.8</ele>
<time>2024-05-07T15:41:06Z</time>
</trkpt>
<trkpt lat="49.265132853761315" lon="9.493346214294434">
<ele>317.8</ele>
<time>2024-05-07T15:41:07Z</time>
</trkpt>
<trkpt lat="49.26518247462809" lon="9.493323247879744">
<ele>317.6</ele>
<time>2024-05-07T15:41:08Z</time>
</trkpt>
<trkpt lat="49.26522823981941" lon="9.493300365284083">
<ele>317.6</ele>
<time>2024-05-07T15:41:09Z</time>
</trkpt>
<trkpt lat="49.26527400501072" lon="9.493278488516808">
<ele>317.4</ele>
<time>2024-05-07T15:41:10Z</time>
</trkpt>
<trkpt lat="49.26531977020204" lon="9.49325367808342">
<ele>317.2</ele>
<time>2024-05-07T15:41:11Z</time>
</trkpt>
<trkpt lat="49.26536553539336" lon="9.493223167955875">
<ele>317</ele>
<time>2024-05-07T15:41:12Z</time>
</trkpt>
<trkpt lat="49.26540752872825" lon="9.493196429684758">
<ele>316.8</ele>
<time>2024-05-07T15:41:13Z</time>
</trkpt>
<trkpt lat="49.265449522063136" lon="9.493178324773908">
<ele>316.4</ele>
<time>2024-05-07T15:41:14Z</time>
</trkpt>
<trkpt lat="49.265491431578994" lon="9.493160219863055">
<ele>316.2</ele>
<time>2024-05-07T15:41:15Z</time>
</trkpt>
<trkpt lat="49.265529569238424" lon="9.493136331439018">
<ele>316</ele>
<time>2024-05-07T15:41:16Z</time>
</trkpt>
<trkpt lat="49.265567706897855" lon="9.49311537668109">
<ele>315.8</ele>
<time>2024-05-07T15:41:17Z</time>
</trkpt>
<trkpt lat="49.2655982170254" lon="9.493091572076082">
<ele>315.4</ele>
<time>2024-05-07T15:41:18Z</time>
</trkpt>
<trkpt lat="49.265628810971975" lon="9.493069611489773">
<ele>315</ele>
<time>2024-05-07T15:41:19Z</time>
</trkpt>
<trkpt lat="49.26566309295595" lon="9.493049578741193">
<ele>314.8</ele>
<time>2024-05-07T15:41:20Z</time>
</trkpt>
<trkpt lat="49.26569745875895" lon="9.49303524568677">
<ele>314.4</ele>
<time>2024-05-07T15:41:21Z</time>
</trkpt>
<trkpt lat="49.26573174074292" lon="9.493022840470076">
<ele>314</ele>
<time>2024-05-07T15:41:22Z</time>
</trkpt>
<trkpt lat="49.265766106545925" lon="9.493004735559223">
<ele>313.8</ele>
<time>2024-05-07T15:41:23Z</time>
</trkpt>
<trkpt lat="49.26580047234893" lon="9.492984702810643">
<ele>313.4</ele>
<time>2024-05-07T15:41:24Z</time>
</trkpt>
<trkpt lat="49.2658347543329" lon="9.492963748052716">
<ele>313.2</ele>
<time>2024-05-07T15:41:25Z</time>
</trkpt>
<trkpt lat="49.2658691201359" lon="9.492944637313483">
<ele>313</ele>
<time>2024-05-07T15:41:26Z</time>
</trkpt>
<trkpt lat="49.26591488532722" lon="9.492930388078094">
<ele>312.8</ele>
<time>2024-05-07T15:41:27Z</time>
</trkpt>
<trkpt lat="49.26595687866211" lon="9.49291706085205">
<ele>312.8</ele>
<time>2024-05-07T15:41:28Z</time>
</trkpt>
<trkpt lat="49.266002643853426" lon="9.492901721969249">
<ele>312.6</ele>
<time>2024-05-07T15:41:29Z</time>
</trkpt>
<trkpt lat="49.26604840904474" lon="9.492886466905476">
<ele>312.6</ele>
<time>2024-05-07T15:41:30Z</time>
</trkpt>
<trkpt lat="49.2660903185606" lon="9.49287506751716">
<ele>312.6</ele>
<time>2024-05-07T15:41:31Z</time>
</trkpt>
<trkpt lat="49.26613231189549" lon="9.492864590138195">
<ele>312.6</ele>
<time>2024-05-07T15:41:32Z</time>
</trkpt>
<trkpt lat="49.266178077086806" lon="9.49285696260631">
<ele>312.6</ele>
<time>2024-05-07T15:41:33Z</time>
</trkpt>
<trkpt lat="49.266220070421696" lon="9.492848329246044">
<ele>312.6</ele>
<time>2024-05-07T15:41:34Z</time>
</trkpt>
<trkpt lat="49.26626197993755" lon="9.49283785186708">
<ele>312.8</ele>
<time>2024-05-07T15:41:35Z</time>
</trkpt>
<trkpt lat="49.2663078289479" lon="9.492824524641035">
<ele>312.8</ele>
<time>2024-05-07T15:41:36Z</time>
</trkpt>
<trkpt lat="49.26634973846376" lon="9.492813041433692">
<ele>312.8</ele>
<time>2024-05-07T15:41:37Z</time>
</trkpt>
<trkpt lat="49.26639173179865" lon="9.49279971420765">
<ele>312.8</ele>
<time>2024-05-07T15:41:38Z</time>
</trkpt>
<trkpt lat="49.26643364131451" lon="9.492786386981606">
<ele>312.8</ele>
<time>2024-05-07T15:41:39Z</time>
</trkpt>
<trkpt lat="49.26647563464939" lon="9.492772975936532">
<ele>312.8</ele>
<time>2024-05-07T15:41:40Z</time>
</trkpt>
<trkpt lat="49.266513772308826" lon="9.492756798863413">
<ele>312.8</ele>
<time>2024-05-07T15:41:41Z</time>
</trkpt>
<trkpt lat="49.26655576564371" lon="9.49273961596191">
<ele>313</ele>
<time>2024-05-07T15:41:42Z</time>
</trkpt>
<trkpt lat="49.266593903303146" lon="9.492723438888788">
<ele>313</ele>
<time>2024-05-07T15:41:43Z</time>
</trkpt>
<trkpt lat="49.26662818528712" lon="9.492706255987288">
<ele>313</ele>
<time>2024-05-07T15:41:44Z</time>
</trkpt>
<trkpt lat="49.26667017862201" lon="9.492686223238708">
<ele>313</ele>
<time>2024-05-07T15:41:45Z</time>
</trkpt>
<trkpt lat="49.26670831628144" lon="9.492674823850392">
<ele>313</ele>
<time>2024-05-07T15:41:46Z</time>
</trkpt>
<trkpt lat="49.26675030961633" lon="9.49265856295824">
<ele>313</ele>
<time>2024-05-07T15:41:47Z</time>
</trkpt>
<trkpt lat="49.26679607480765" lon="9.492633752524853">
<ele>313.2</ele>
<time>2024-05-07T15:41:48Z</time>
</trkpt>
<trkpt lat="49.26684183999896" lon="9.492609947919846">
<ele>313.4</ele>
<time>2024-05-07T15:41:49Z</time>
</trkpt>
<trkpt lat="49.26688383333385" lon="9.492587065324187">
<ele>313.4</ele>
<time>2024-05-07T15:41:50Z</time>
</trkpt>
<trkpt lat="49.26692197099328" lon="9.492556555196645">
<ele>313.6</ele>
<time>2024-05-07T15:41:51Z</time>
</trkpt>
<trkpt lat="49.26696388050914" lon="9.492526967078447">
<ele>313.8</ele>
<time>2024-05-07T15:41:52Z</time>
</trkpt>
<trkpt lat="49.2670021019876" lon="9.492496456950905">
<ele>313.8</ele>
<time>2024-05-07T15:41:53Z</time>
</trkpt>
<trkpt lat="49.26704023964703" lon="9.49246309697628">
<ele>314</ele>
<time>2024-05-07T15:41:54Z</time>
</trkpt>
<trkpt lat="49.26707837730646" lon="9.49242202565074">
<ele>314.2</ele>
<time>2024-05-07T15:41:55Z</time>
</trkpt>
<trkpt lat="49.26712028682232" lon="9.492380116134882">
<ele>314.2</ele>
<time>2024-05-07T15:41:56Z</time>
</trkpt>
<trkpt lat="49.26715850830078" lon="9.492336194962265">
<ele>314.4</ele>
<time>2024-05-07T15:41:57Z</time>
</trkpt>
<trkpt lat="49.26720041781664" lon="9.492298057302833">
<ele>314.6</ele>
<time>2024-05-07T15:41:58Z</time>
</trkpt>
<trkpt lat="49.26724241115153" lon="9.492257991805673">
<ele>314.8</ele>
<time>2024-05-07T15:41:59Z</time>
</trkpt>
<trkpt lat="49.26728054881096" lon="9.492217004299164">
<ele>315</ele>
<time>2024-05-07T15:42:00Z</time>
</trkpt>
<trkpt lat="49.26731868647039" lon="9.492173166945577">
<ele>315</ele>
<time>2024-05-07T15:42:01Z</time>
</trkpt>
<trkpt lat="49.26735305227339" lon="9.49212639592588">
<ele>315</ele>
<time>2024-05-07T15:42:02Z</time>
</trkpt>
<trkpt lat="49.26738733425736" lon="9.492079708725214">
<ele>315.2</ele>
<time>2024-05-07T15:42:03Z</time>
</trkpt>
<trkpt lat="49.26741407252848" lon="9.492032937705517">
<ele>315.2</ele>
<time>2024-05-07T15:42:04Z</time>
</trkpt>
<trkpt lat="49.267444582656026" lon="9.49198817834258">
<ele>315.2</ele>
<time>2024-05-07T15:42:05Z</time>
</trkpt>
<trkpt lat="49.26747509278357" lon="9.49194811284542">
<ele>315.4</ele>
<time>2024-05-07T15:42:06Z</time>
</trkpt>
<trkpt lat="49.267509458586574" lon="9.491912825033069">
<ele>315.6</ele>
<time>2024-05-07T15:42:07Z</time>
</trkpt>
<trkpt lat="49.267547596246" lon="9.491885164752604">
<ele>315.6</ele>
<time>2024-05-07T15:42:08Z</time>
</trkpt>
<trkpt lat="49.267581878229976" lon="9.49185180477798">
<ele>315.8</ele>
<time>2024-05-07T15:42:09Z</time>
</trkpt>
<trkpt lat="49.267620015889406" lon="9.491818360984324">
<ele>315.8</ele>
<time>2024-05-07T15:42:10Z</time>
</trkpt>
<trkpt lat="49.26765815354884" lon="9.49178977869451">
<ele>315.8</ele>
<time>2024-05-07T15:42:11Z</time>
</trkpt>
<trkpt lat="49.267704002559185" lon="9.491754490882158">
<ele>316</ele>
<time>2024-05-07T15:42:12Z</time>
</trkpt>
<trkpt lat="49.26775353960693" lon="9.491723058745263">
<ele>316</ele>
<time>2024-05-07T15:42:13Z</time>
</trkpt>
<trkpt lat="49.26781078800559" lon="9.491688692942262">
<ele>316</ele>
<time>2024-05-07T15:42:14Z</time>
</trkpt>
<trkpt lat="49.26786803640425" lon="9.49165340512991">
<ele>316</ele>
<time>2024-05-07T15:42:15Z</time>
</trkpt>
<trkpt lat="49.267917573452" lon="9.491620045155289">
<ele>316</ele>
<time>2024-05-07T15:42:16Z</time>
</trkpt>
<trkpt lat="49.2679709661752" lon="9.491581907495856">
<ele>316</ele>
<time>2024-05-07T15:42:17Z</time>
</trkpt>
<trkpt lat="49.26802821457386" lon="9.491537064313889">
<ele>316</ele>
<time>2024-05-07T15:42:18Z</time>
</trkpt>
<trkpt lat="49.26808160729706" lon="9.491495070979">
<ele>315.8</ele>
<time>2024-05-07T15:42:19Z</time>
</trkpt>
<trkpt lat="49.26814262755215" lon="9.491466488689184">
<ele>315.6</ele>
<time>2024-05-07T15:42:20Z</time>
</trkpt>
<trkpt lat="49.26819987595081" lon="9.491436900570989">
<ele>315.4</ele>
<time>2024-05-07T15:42:21Z</time>
</trkpt>
<trkpt lat="49.26826852373779" lon="9.491405468434095">
<ele>315.2</ele>
<time>2024-05-07T15:42:22Z</time>
</trkpt>
<trkpt lat="49.268333399668336" lon="9.491376802325249">
<ele>315</ele>
<time>2024-05-07T15:42:23Z</time>
</trkpt>
<trkpt lat="49.26840204745531" lon="9.491348220035434">
<ele>314.6</ele>
<time>2024-05-07T15:42:24Z</time>
</trkpt>
<trkpt lat="49.26847832277417" lon="9.491314860060813">
<ele>314.4</ele>
<time>2024-05-07T15:42:25Z</time>
</trkpt>
<trkpt lat="49.26856608130038" lon="9.49127957224846">
<ele>314.2</ele>
<time>2024-05-07T15:42:26Z</time>
</trkpt>
<trkpt lat="49.26866146735847" lon="9.491241434589028">
<ele>313.8</ele>
<time>2024-05-07T15:42:27Z</time>
</trkpt>
<trkpt lat="49.26875685341656" lon="9.491207068786023">
<ele>313.2</ele>
<time>2024-05-07T15:42:28Z</time>
</trkpt>
<trkpt lat="49.26885601133108" lon="9.491163231432438">
<ele>312.8</ele>
<time>2024-05-07T15:42:29Z</time>
</trkpt>
<trkpt lat="49.268966652452946" lon="9.491114616394045">
<ele>312.2</ele>
<time>2024-05-07T15:42:30Z</time>
</trkpt>
<trkpt lat="49.26908106543124" lon="9.491053512319922">
<ele>311.4</ele>
<time>2024-05-07T15:42:31Z</time>
</trkpt>
<trkpt lat="49.26918785087764" lon="9.490991570055485">
<ele>310.8</ele>
<time>2024-05-07T15:42:32Z</time>
</trkpt>
<trkpt lat="49.26929849199951" lon="9.490908589214088">
<ele>310</ele>
<time>2024-05-07T15:42:33Z</time>
</trkpt>
<trkpt lat="49.26940913312137" lon="9.490808425471188">
<ele>309.2</ele>
<time>2024-05-07T15:42:34Z</time>
</trkpt>
<trkpt lat="49.26953502930701" lon="9.490699712187052">
<ele>308.2</ele>
<time>2024-05-07T15:42:35Z</time>
</trkpt>
<trkpt lat="49.26965329796076" lon="9.49058814905584">
<ele>307.2</ele>
<time>2024-05-07T15:42:36Z</time>
</trkpt>
<trkpt lat="49.26977156661451" lon="9.490483207628133">
<ele>306</ele>
<time>2024-05-07T15:42:37Z</time>
</trkpt>
<trkpt lat="49.26990123465657" lon="9.490373572334647">
<ele>304.8</ele>
<time>2024-05-07T15:42:38Z</time>
</trkpt>
<trkpt lat="49.27002327516675" lon="9.49026863090694">
<ele>303.8</ele>
<time>2024-05-07T15:42:39Z</time>
</trkpt>
<trkpt lat="49.270133916288614" lon="9.4901532959193">
<ele>302.6</ele>
<time>2024-05-07T15:42:40Z</time>
</trkpt>
<trkpt lat="49.27024841308594" lon="9.490035027265549">
<ele>301.4</ele>
<time>2024-05-07T15:42:41Z</time>
</trkpt>
<trkpt lat="49.27035519853234" lon="9.489928241819143">
<ele>300.2</ele>
<time>2024-05-07T15:42:42Z</time>
</trkpt>
<trkpt lat="49.27046583965421" lon="9.48983184993267">
<ele>299.2</ele>
<time>2024-05-07T15:42:43Z</time>
</trkpt>
<trkpt lat="49.27056499756873" lon="9.489738391712308">
<ele>298</ele>
<time>2024-05-07T15:42:44Z</time>
</trkpt>
<trkpt lat="49.27066038362682" lon="9.489649711176751">
<ele>296.8</ele>
<time>2024-05-07T15:42:45Z</time>
</trkpt>
<trkpt lat="49.27075191400945" lon="9.489562958478928">
<ele>295.8</ele>
<time>2024-05-07T15:42:46Z</time>
</trkpt>
<trkpt lat="49.270847300067544" lon="9.489464722573755">
<ele>294.8</ele>
<time>2024-05-07T15:42:47Z</time>
</trkpt>
<trkpt lat="49.27091594785452" lon="9.489390291273594">
<ele>294</ele>
<time>2024-05-07T15:42:48Z</time>
</trkpt>
<trkpt lat="49.271003706380725" lon="9.489306388422849">
<ele>293.2</ele>
<time>2024-05-07T15:42:49Z</time>
</trkpt>
<trkpt lat="49.27108375355601" lon="9.48922634124756">
<ele>292.6</ele>
<time>2024-05-07T15:42:50Z</time>
</trkpt>
<trkpt lat="49.27116388455033" lon="9.489138582721353">
<ele>291.8</ele>
<time>2024-05-07T15:42:51Z</time>
</trkpt>
<trkpt lat="49.27125164307654" lon="9.489047974348068">
<ele>291.2</ele>
<time>2024-05-07T15:42:52Z</time>
</trkpt>
<trkpt lat="49.27134702913463" lon="9.488974548876286">
<ele>290.6</ele>
<time>2024-05-07T15:42:53Z</time>
</trkpt>
<trkpt lat="49.271438559517264" lon="9.488883018493652">
<ele>290.2</ele>
<time>2024-05-07T15:42:54Z</time>
</trkpt>
<trkpt lat="49.2715300898999" lon="9.488793332129717">
<ele>289.6</ele>
<time>2024-05-07T15:42:55Z</time>
</trkpt>
<trkpt lat="49.27162170410156" lon="9.488704651594162">
<ele>289</ele>
<time>2024-05-07T15:42:56Z</time>
</trkpt>
<trkpt lat="49.27169797942042" lon="9.488617815077305">
<ele>288.4</ele>
<time>2024-05-07T15:42:57Z</time>
</trkpt>
<trkpt lat="49.2717856541276" lon="9.488531984388828">
<ele>287.8</ele>
<time>2024-05-07T15:42:58Z</time>
</trkpt>
<trkpt lat="49.27187341265381" lon="9.488426204770803">
<ele>287.2</ele>
<time>2024-05-07T15:42:59Z</time>
</trkpt>
<trkpt lat="49.271930661052465" lon="9.48833459056914">
<ele>286.6</ele>
<time>2024-05-07T15:43:00Z</time>
</trkpt>
<trkpt lat="49.271991681307554" lon="9.48823350481689">
<ele>286</ele>
<time>2024-05-07T15:43:01Z</time>
</trkpt>
<trkpt lat="49.272048929706216" lon="9.488131497055292">
<ele>285.6</ele>
<time>2024-05-07T15:43:02Z</time>
</trkpt>
<trkpt lat="49.272109949961305" lon="9.488033261150122">
<ele>285.2</ele>
<time>2024-05-07T15:43:03Z</time>
</trkpt>
<trkpt lat="49.27215957082808" lon="9.48793695308268">
<ele>284.8</ele>
<time>2024-05-07T15:43:04Z</time>
</trkpt>
<trkpt lat="49.2722053360194" lon="9.487845338881016">
<ele>284.4</ele>
<time>2024-05-07T15:43:05Z</time>
</trkpt>
<trkpt lat="49.27225110121071" lon="9.48775858618319">
<ele>284</ele>
<time>2024-05-07T15:43:06Z</time>
</trkpt>
<trkpt lat="49.272289238870144" lon="9.4876803830266">
<ele>283.6</ele>
<time>2024-05-07T15:43:07Z</time>
</trkpt>
<trkpt lat="49.27232360467315" lon="9.487607879564166">
<ele>283</ele>
<time>2024-05-07T15:43:08Z</time>
</trkpt>
<trkpt lat="49.27235788665712" lon="9.487551636993883">
<ele>282.6</ele>
<time>2024-05-07T15:43:09Z</time>
</trkpt>
<trkpt lat="49.27239225246012" lon="9.487489694729447">
<ele>282</ele>
<time>2024-05-07T15:43:10Z</time>
</trkpt>
<trkpt lat="49.272426534444094" lon="9.48742289096117">
<ele>281.6</ele>
<time>2024-05-07T15:43:11Z</time>
</trkpt>
<trkpt lat="49.2724609002471" lon="9.487356171011925">
<ele>281</ele>
<time>2024-05-07T15:43:12Z</time>
</trkpt>
<trkpt lat="49.272487638518214" lon="9.487295150756836">
<ele>280.6</ele>
<time>2024-05-07T15:43:13Z</time>
</trkpt>
<trkpt lat="49.27251052111387" lon="9.487235052511096">
<ele>280</ele>
<time>2024-05-07T15:43:14Z</time>
</trkpt>
<trkpt lat="49.27253717556596" lon="9.487178726121783">
<ele>279.6</ele>
<time>2024-05-07T15:43:15Z</time>
</trkpt>
<trkpt lat="49.272563913837075" lon="9.487118711695077">
<ele>279</ele>
<time>2024-05-07T15:43:16Z</time>
</trkpt>
<trkpt lat="49.27259442396462" lon="9.487056685611606">
<ele>278.6</ele>
<time>2024-05-07T15:43:17Z</time>
</trkpt>
<trkpt lat="49.272621078416705" lon="9.486996587365866">
<ele>278</ele>
<time>2024-05-07T15:43:18Z</time>
</trkpt>
<trkpt lat="49.27264781668782" lon="9.486940344795585">
<ele>277.4</ele>
<time>2024-05-07T15:43:19Z</time>
</trkpt>
<trkpt lat="49.27267069928348" lon="9.486886952072382">
<ele>277</ele>
<time>2024-05-07T15:43:20Z</time>
</trkpt>
<trkpt lat="49.272701209411025" lon="9.486826853826642">
<ele>276.6</ele>
<time>2024-05-07T15:43:21Z</time>
</trkpt>
<trkpt lat="49.27273171953857" lon="9.486764827743173">
<ele>276.2</ele>
<time>2024-05-07T15:43:22Z</time>
</trkpt>
<trkpt lat="49.27275845780969" lon="9.486702885478737">
<ele>275.6</ele>
<time>2024-05-07T15:43:23Z</time>
</trkpt>
<trkpt lat="49.27278511226177" lon="9.486641865223646">
<ele>275.2</ele>
<time>2024-05-07T15:43:24Z</time>
</trkpt>
<trkpt lat="49.27281185053289" lon="9.486579839140177">
<ele>275</ele>
<time>2024-05-07T15:43:25Z</time>
</trkpt>
<trkpt lat="49.27283858880401" lon="9.48651789687574">
<ele>274.6</ele>
<time>2024-05-07T15:43:26Z</time>
</trkpt>
<trkpt lat="49.27286909893155" lon="9.48645679280162">
<ele>274.2</ele>
<time>2024-05-07T15:43:27Z</time>
</trkpt>
<trkpt lat="49.27289575338364" lon="9.48639485053718">
<ele>274</ele>
<time>2024-05-07T15:43:28Z</time>
</trkpt>
<trkpt lat="49.27293011918664" lon="9.486331902444364">
<ele>273.6</ele>
<time>2024-05-07T15:43:29Z</time>
</trkpt>
<trkpt lat="49.272960629314184" lon="9.486263254657388">
<ele>273.2</ele>
<time>2024-05-07T15:43:30Z</time>
</trkpt>
<trkpt lat="49.27298728376627" lon="9.486194606870413">
<ele>272.8</ele>
<time>2024-05-07T15:43:31Z</time>
</trkpt>
<trkpt lat="49.27301402203739" lon="9.486135430634022">
<ele>272.4</ele>
<time>2024-05-07T15:43:32Z</time>
</trkpt>
<trkpt lat="49.273040760308504" lon="9.48607818223536">
<ele>272.2</ele>
<time>2024-05-07T15:43:33Z</time>
</trkpt>
<trkpt lat="49.27306364290416" lon="9.48602001182735">
<ele>271.8</ele>
<time>2024-05-07T15:43:34Z</time>
</trkpt>
<trkpt lat="49.27308652549982" lon="9.48596184141934">
<ele>271.4</ele>
<time>2024-05-07T15:43:35Z</time>
</trkpt>
<trkpt lat="49.273113179951906" lon="9.485903671011329">
<ele>271</ele>
<time>2024-05-07T15:43:36Z</time>
</trkpt>
<trkpt lat="49.27313229069114" lon="9.48584457859397">
<ele>270.8</ele>
<time>2024-05-07T15:43:37Z</time>
</trkpt>
<trkpt lat="49.2731551732868" lon="9.485790180042386">
<ele>270.4</ele>
<time>2024-05-07T15:43:38Z</time>
</trkpt>
<trkpt lat="49.273178055882454" lon="9.485728237777948">
<ele>270</ele>
<time>2024-05-07T15:43:39Z</time>
</trkpt>
<trkpt lat="49.27320479415357" lon="9.485668139532208">
<ele>269.6</ele>
<time>2024-05-07T15:43:40Z</time>
</trkpt>
<trkpt lat="49.27322767674923" lon="9.485608041286469">
<ele>269.2</ele>
<time>2024-05-07T15:43:41Z</time>
</trkpt>
<trkpt lat="49.273254331201315" lon="9.48554509319365">
<ele>268.8</ele>
<time>2024-05-07T15:43:42Z</time>
</trkpt>
<trkpt lat="49.27328106947243" lon="9.485481223091483">
<ele>268.4</ele>
<time>2024-05-07T15:43:43Z</time>
</trkpt>
<trkpt lat="49.27330772392452" lon="9.485413497313855">
<ele>268</ele>
<time>2024-05-07T15:43:44Z</time>
</trkpt>
<trkpt lat="49.27332683466375" lon="9.485333366319535">
<ele>267.8</ele>
<time>2024-05-07T15:43:45Z</time>
</trkpt>
<trkpt lat="49.27334208972752" lon="9.48525139130652">
<ele>267.2</ele>
<time>2024-05-07T15:43:46Z</time>
</trkpt>
<trkpt lat="49.273353572934866" lon="9.485163632780312">
<ele>266.6</ele>
<time>2024-05-07T15:43:47Z</time>
</trkpt>
<trkpt lat="49.27336497232318" lon="9.485076880082488">
<ele>266</ele>
<time>2024-05-07T15:43:48Z</time>
</trkpt>
<trkpt lat="49.27339933812618" lon="9.484990043565633">
<ele>265.4</ele>
<time>2024-05-07T15:43:49Z</time>
</trkpt>
<trkpt lat="49.27342222072184" lon="9.484901363030076">
<ele>264.6</ele>
<time>2024-05-07T15:43:50Z</time>
</trkpt>
<trkpt lat="49.2734641302377" lon="9.48481461033225">
<ele>264</ele>
<time>2024-05-07T15:43:51Z</time>
</trkpt>
<trkpt lat="49.27350226789713" lon="9.484713524580002">
<ele>263</ele>
<time>2024-05-07T15:43:52Z</time>
</trkpt>
<trkpt lat="49.27354426123202" lon="9.484608583152294">
<ele>262.2</ele>
<time>2024-05-07T15:43:53Z</time>
</trkpt>
<trkpt lat="49.27361290901899" lon="9.48449702002108">
<ele>261.4</ele>
<time>2024-05-07T15:43:54Z</time>
</trkpt>
<trkpt lat="49.27368541248143" lon="9.484374979510903">
<ele>260.6</ele>
<time>2024-05-07T15:43:55Z</time>
</trkpt>
<trkpt lat="49.27377317100763" lon="9.484236678108571">
<ele>259.799</ele>
<time>2024-05-07T15:43:56Z</time>
</trkpt>
<trkpt lat="49.27385330200195" lon="9.4840850494802">
<ele>258.799</ele>
<time>2024-05-07T15:43:57Z</time>
</trkpt>
<trkpt lat="49.27393334917724" lon="9.483935348689556">
<ele>257.799</ele>
<time>2024-05-07T15:43:58Z</time>
</trkpt>
<trkpt lat="49.27401348017156" lon="9.483803668990731">
<ele>256.6</ele>
<time>2024-05-07T15:43:59Z</time>
</trkpt>
<trkpt lat="49.27408975549042" lon="9.483663523569705">
<ele>255.4</ele>
<time>2024-05-07T15:44:00Z</time>
</trkpt>
<trkpt lat="49.27416988648474" lon="9.48351281695068">
<ele>254.2</ele>
<time>2024-05-07T15:44:01Z</time>
</trkpt>
<trkpt lat="49.27425001747906" lon="9.483381221070886">
<ele>253</ele>
<time>2024-05-07T15:44:02Z</time>
</trkpt>
<trkpt lat="49.27432629279792" lon="9.48325633071363">
<ele>251.8</ele>
<time>2024-05-07T15:44:03Z</time>
</trkpt>
<trkpt lat="49.274402568116784" lon="9.48313806205988">
<ele>250.8</ele>
<time>2024-05-07T15:44:04Z</time>
</trkpt>
<trkpt lat="49.27447507157922" lon="9.483026498928666">
<ele>249.8</ele>
<time>2024-05-07T15:44:05Z</time>
</trkpt>
<trkpt lat="49.27454371936619" lon="9.482910074293612">
<ele>248.6</ele>
<time>2024-05-07T15:44:06Z</time>
</trkpt>
<trkpt lat="49.27461236715317" lon="9.482763223350048">
<ele>247.6</ele>
<time>2024-05-07T15:44:07Z</time>
</trkpt>
<trkpt lat="49.274677243083715" lon="9.482673620805144">
<ele>246.6</ele>
<time>2024-05-07T15:44:08Z</time>
</trkpt>
<trkpt lat="49.274753518402576" lon="9.482476226985456">
<ele>245.6</ele>
<time>2024-05-07T15:44:09Z</time>
</trkpt>
<trkpt lat="49.27481076680124" lon="9.48236650787294">
<ele>244.6</ele>
<time>2024-05-07T15:44:10Z</time>
</trkpt>
<trkpt lat="49.27486415952444" lon="9.482257794588804">
<ele>243.6</ele>
<time>2024-05-07T15:44:11Z</time>
</trkpt>
<trkpt lat="49.27492517977953" lon="9.48214815929532">
<ele>242.6</ele>
<time>2024-05-07T15:44:12Z</time>
</trkpt>
<trkpt lat="49.27498242817819" lon="9.48204992339015">
<ele>241.6</ele>
<time>2024-05-07T15:44:13Z</time>
</trkpt>
<trkpt lat="49.275031965225935" lon="9.48194975964725">
<ele>240.4</ele>
<time>2024-05-07T15:44:14Z</time>
</trkpt>
<trkpt lat="49.27508158609271" lon="9.48185345157981">
<ele>239.4</ele>
<time>2024-05-07T15:44:15Z</time>
</trkpt>
<trkpt lat="49.27512735128403" lon="9.481756137683988">
<ele>238.6</ele>
<time>2024-05-07T15:44:16Z</time>
</trkpt>
<trkpt lat="49.275173116475344" lon="9.481648430228232">
<ele>237.8</ele>
<time>2024-05-07T15:44:17Z</time>
</trkpt>
<trkpt lat="49.27521888166666" lon="9.48153493925929">
<ele>236.8</ele>
<time>2024-05-07T15:44:18Z</time>
</trkpt>
<trkpt lat="49.275272358208895" lon="9.481423376128078">
<ele>235.8</ele>
<time>2024-05-07T15:44:19Z</time>
</trkpt>
<trkpt lat="49.2753447778523" lon="9.481325140222909">
<ele>234.6</ele>
<time>2024-05-07T15:44:20Z</time>
</trkpt>
<trkpt lat="49.27540588192642" lon="9.481211649253964">
<ele>233.4</ele>
<time>2024-05-07T15:44:21Z</time>
</trkpt>
<trkpt lat="49.27546304650605" lon="9.481093380600214">
<ele>232.2</ele>
<time>2024-05-07T15:44:22Z</time>
</trkpt>
<trkpt lat="49.27551643922925" lon="9.4809646345675">
<ele>230.8</ele>
<time>2024-05-07T15:44:23Z</time>
</trkpt>
<trkpt lat="49.27556991577149" lon="9.48086547665298">
<ele>229.4</ele>
<time>2024-05-07T15:44:24Z</time>
</trkpt>
<trkpt lat="49.27561182528734" lon="9.48074335232377">
<ele>227.8</ele>
<time>2024-05-07T15:44:25Z</time>
</trkpt>
<trkpt lat="49.27564996294677" lon="9.480627933517098">
<ele>226.2</ele>
<time>2024-05-07T15:44:26Z</time>
</trkpt>
<trkpt lat="49.2756881006062" lon="9.480520226061344">
<ele>225</ele>
<time>2024-05-07T15:44:27Z</time>
</trkpt>
<trkpt lat="49.27573009394109" lon="9.480422912165524">
<ele>223.6</ele>
<time>2024-05-07T15:44:28Z</time>
</trkpt>
<trkpt lat="49.275764459744096" lon="9.480328531935813">
<ele>222.4</ele>
<time>2024-05-07T15:44:29Z</time>
</trkpt>
<trkpt lat="49.27579874172807" lon="9.480217890813949">
<ele>221.2</ele>
<time>2024-05-07T15:44:30Z</time>
</trkpt>
<trkpt lat="49.27583310753107" lon="9.48011009953916">
<ele>220</ele>
<time>2024-05-07T15:44:31Z</time>
</trkpt>
<trkpt lat="49.27588650025427" lon="9.480005241930485">
<ele>218.6</ele>
<time>2024-05-07T15:44:32Z</time>
</trkpt>
<trkpt lat="49.27593989297747" lon="9.479905078187585">
<ele>217.2</ele>
<time>2024-05-07T15:44:33Z</time>
</trkpt>
<trkpt lat="49.276004768908024" lon="9.47981639765203">
<ele>215.8</ele>
<time>2024-05-07T15:44:34Z</time>
</trkpt>
<trkpt lat="49.276073416695" lon="9.47973819449544">
<ele>214.4</ele>
<time>2024-05-07T15:44:35Z</time>
</trkpt>
<trkpt lat="49.276161175221205" lon="9.479659991338847">
<ele>212.8</ele>
<time>2024-05-07T15:44:36Z</time>
</trkpt>
<trkpt lat="49.27622596733272" lon="9.47959796525538">
<ele>211.6</ele>
<time>2024-05-07T15:44:37Z</time>
</trkpt>
<trkpt lat="49.27630232647061" lon="9.4795417226851">
<ele>210</ele>
<time>2024-05-07T15:44:38Z</time>
</trkpt>
<trkpt lat="49.2763823736459" lon="9.479477852582932">
<ele>209</ele>
<time>2024-05-07T15:44:39Z</time>
</trkpt>
<trkpt lat="49.276458732783794" lon="9.479412054643037">
<ele>207.6</ele>
<time>2024-05-07T15:44:40Z</time>
</trkpt>
<trkpt lat="49.27652738057077" lon="9.479338629171252">
<ele>206.2</ele>
<time>2024-05-07T15:44:41Z</time>
</trkpt>
<trkpt lat="49.276592172682285" lon="9.479267047718167">
<ele>204.8</ele>
<time>2024-05-07T15:44:42Z</time>
</trkpt>
<trkpt lat="49.27664942108095" lon="9.479193622246385">
<ele>203.2</ele>
<time>2024-05-07T15:44:43Z</time>
</trkpt>
<trkpt lat="49.27670666947961" lon="9.47912304662168">
<ele>201.4</ele>
<time>2024-05-07T15:44:44Z</time>
</trkpt>
<trkpt lat="49.27675620652735" lon="9.479051548987629">
<ele>200</ele>
<time>2024-05-07T15:44:45Z</time>
</trkpt>
<trkpt lat="49.27680582739413" lon="9.478981895372272">
<ele>198.4</ele>
<time>2024-05-07T15:44:46Z</time>
</trkpt>
<trkpt lat="49.2768554482609" lon="9.478908469900489">
<ele>197</ele>
<time>2024-05-07T15:44:47Z</time>
</trkpt>
<trkpt lat="49.276893585920334" lon="9.47883127257228">
<ele>195.6</ele>
<time>2024-05-07T15:44:48Z</time>
</trkpt>
<trkpt lat="49.27693549543619" lon="9.47874829173088">
<ele>194.4</ele>
<time>2024-05-07T15:44:49Z</time>
</trkpt>
<trkpt lat="49.27698511630297" lon="9.478654833510518">
<ele>193.2</ele>
<time>2024-05-07T15:44:50Z</time>
</trkpt>
<trkpt lat="49.27703088149429" lon="9.478560369461777">
<ele>192.2</ele>
<time>2024-05-07T15:44:51Z</time>
</trkpt>
<trkpt lat="49.27708050236106" lon="9.478461211547256">
<ele>191.2</ele>
<time>2024-05-07T15:44:52Z</time>
</trkpt>
<trkpt lat="49.277126267552376" lon="9.478360125795009">
<ele>190.2</ele>
<time>2024-05-07T15:44:53Z</time>
</trkpt>
<trkpt lat="49.277164405211806" lon="9.478259962052109">
<ele>189.2</ele>
<time>2024-05-07T15:44:54Z</time>
</trkpt>
<trkpt lat="49.27719491533935" lon="9.478164659813046">
<ele>188</ele>
<time>2024-05-07T15:44:55Z</time>
</trkpt>
<trkpt lat="49.277225425466895" lon="9.478071201592684">
<ele>186.8</ele>
<time>2024-05-07T15:44:56Z</time>
</trkpt>
<trkpt lat="49.2772597912699" lon="9.47797866538167">
<ele>185.4</ele>
<time>2024-05-07T15:44:57Z</time>
</trkpt>
<trkpt lat="49.27729030139744" lon="9.477881351485848">
<ele>184.2</ele>
<time>2024-05-07T15:44:58Z</time>
</trkpt>
<trkpt lat="49.27732843905687" lon="9.477793676778674">
<ele>183</ele>
<time>2024-05-07T15:44:59Z</time>
</trkpt>
<trkpt lat="49.277366576716304" lon="9.477709690108895">
<ele>181.8</ele>
<time>2024-05-07T15:45:00Z</time>
</trkpt>
<trkpt lat="49.27740857005119" lon="9.477635342627764">
<ele>180.6</ele>
<time>2024-05-07T15:45:01Z</time>
</trkpt>
<trkpt lat="49.27745047956705" lon="9.477569544687867">
<ele>179.6</ele>
<time>2024-05-07T15:45:02Z</time>
</trkpt>
<trkpt lat="49.27749247290194" lon="9.477510452270508">
<ele>178.6</ele>
<time>2024-05-07T15:45:03Z</time>
</trkpt>
<trkpt lat="49.27753446623683" lon="9.477450354024768">
<ele>177.6</ele>
<time>2024-05-07T15:45:04Z</time>
</trkpt>
<trkpt lat="49.27757260389626" lon="9.477386400103567">
<ele>176.8</ele>
<time>2024-05-07T15:45:05Z</time>
</trkpt>
<trkpt lat="49.27761451341212" lon="9.477319680154324">
<ele>175.8</ele>
<time>2024-05-07T15:45:06Z</time>
</trkpt>
<trkpt lat="49.27765650674701" lon="9.47724625468254">
<ele>175</ele>
<time>2024-05-07T15:45:07Z</time>
</trkpt>
<trkpt lat="49.27769464440644" lon="9.47716805152595">
<ele>174.2</ele>
<time>2024-05-07T15:45:08Z</time>
</trkpt>
<trkpt lat="49.27773663774133" lon="9.477083142846825">
<ele>173.4</ele>
<time>2024-05-07T15:45:09Z</time>
</trkpt>
<trkpt lat="49.27777477540076" lon="9.476995468139648">
<ele>172.6</ele>
<time>2024-05-07T15:45:10Z</time>
</trkpt>
<trkpt lat="49.27781291306019" lon="9.476909637451172">
<ele>171.8</ele>
<time>2024-05-07T15:45:11Z</time>
</trkpt>
<trkpt lat="49.27784727886319" lon="9.476826656609774">
<ele>171</ele>
<time>2024-05-07T15:45:12Z</time>
</trkpt>
<trkpt lat="49.27788156084716" lon="9.476746525615454">
<ele>170.2</ele>
<time>2024-05-07T15:45:13Z</time>
</trkpt>
<trkpt lat="49.27791592665017" lon="9.476670250296593">
<ele>169.4</ele>
<time>2024-05-07T15:45:14Z</time>
</trkpt>
<trkpt lat="49.2779540643096" lon="9.476592969149351">
<ele>168.8</ele>
<time>2024-05-07T15:45:15Z</time>
</trkpt>
<trkpt lat="49.2779884301126" lon="9.476519543677568">
<ele>168.2</ele>
<time>2024-05-07T15:45:16Z</time>
</trkpt>
<trkpt lat="49.278015084564686" lon="9.476449890062211">
<ele>167.4</ele>
<time>2024-05-07T15:45:17Z</time>
</trkpt>
<trkpt lat="49.2780418228358" lon="9.476393647491932">
<ele>166.8</ele>
<time>2024-05-07T15:45:18Z</time>
</trkpt>
<trkpt lat="49.27806847728789" lon="9.476341176778078">
<ele>166.4</ele>
<time>2024-05-07T15:45:19Z</time>
</trkpt>
<trkpt lat="49.27809135988355" lon="9.476291639730334">
<ele>166</ele>
<time>2024-05-07T15:45:20Z</time>
</trkpt>
<trkpt lat="49.278118098154664" lon="9.476255346089602">
<ele>165.6</ele>
<time>2024-05-07T15:45:21Z</time>
</trkpt>
<trkpt lat="49.27814483642578" lon="9.476224835962055">
<ele>165.2</ele>
<time>2024-05-07T15:45:22Z</time>
</trkpt>
<trkpt lat="49.27817149087787" lon="9.476206731051208">
<ele>165</ele>
<time>2024-05-07T15:45:23Z</time>
</trkpt>
<trkpt lat="49.278194373473525" lon="9.476191475987434">
<ele>164.6</ele>
<time>2024-05-07T15:45:24Z</time>
</trkpt>
<trkpt lat="49.27820200100541" lon="9.476189548149703">
<ele>164.4</ele>
<time>2024-05-07T15:45:25Z</time>
</trkpt>
<trkpt lat="49.27821348421275" lon="9.47618007659912">
<ele>164.2</ele>
<time>2024-05-07T15:45:26Z</time>
</trkpt>
<trkpt lat="49.27822111174464" lon="9.476176220923662">
<ele>164.2</ele>
<time>2024-05-07T15:45:27Z</time>
</trkpt>
<trkpt lat="49.27822873927653" lon="9.476173371076584">
<ele>164</ele>
<time>2024-05-07T15:45:28Z</time>
</trkpt>
<trkpt lat="49.27825162187219" lon="9.47616004385054">
<ele>163.8</ele>
<time>2024-05-07T15:45:29Z</time>
</trkpt>
<trkpt lat="49.27827827632427" lon="9.476151410490274">
<ele>163.6</ele>
<time>2024-05-07T15:45:30Z</time>
</trkpt>
<trkpt lat="49.27830501459539" lon="9.47614001110196">
<ele>163.6</ele>
<time>2024-05-07T15:45:31Z</time>
</trkpt>
<trkpt lat="49.27833175286651" lon="9.476118050515652">
<ele>163.4</ele>
<time>2024-05-07T15:45:32Z</time>
</trkpt>
<trkpt lat="49.27836226299405" lon="9.476090390235186">
<ele>163.4</ele>
<time>2024-05-07T15:45:33Z</time>
</trkpt>
<trkpt lat="49.278392773121595" lon="9.476050324738026">
<ele>163.2</ele>
<time>2024-05-07T15:45:34Z</time>
</trkpt>
<trkpt lat="49.27842705510557" lon="9.476004559546707">
<ele>163.2</ele>
<time>2024-05-07T15:45:35Z</time>
</trkpt>
<trkpt lat="49.27845756523311" lon="9.475956866517665">
<ele>163</ele>
<time>2024-05-07T15:45:36Z</time>
</trkpt>
<trkpt lat="49.27848430350423" lon="9.475908251479268">
<ele>163</ele>
<time>2024-05-07T15:45:37Z</time>
</trkpt>
<trkpt lat="49.27851481363177" lon="9.475856702774765">
<ele>162.8</ele>
<time>2024-05-07T15:45:38Z</time>
</trkpt>
<trkpt lat="49.27854155190289" lon="9.47580615989864">
<ele>162.8</ele>
<time>2024-05-07T15:45:39Z</time>
</trkpt>
<trkpt lat="49.278572062030435" lon="9.475754695013164">
<ele>162.6</ele>
<time>2024-05-07T15:45:40Z</time>
</trkpt>
<trkpt lat="49.278606344014406" lon="9.475701302289965">
<ele>162.4</ele>
<time>2024-05-07T15:45:41Z</time>
</trkpt>
<trkpt lat="49.27864070981741" lon="9.47564690373838">
<ele>162.2</ele>
<time>2024-05-07T15:45:42Z</time>
</trkpt>
<trkpt lat="49.27867507562041" lon="9.475586889311671">
<ele>162.2</ele>
<time>2024-05-07T15:45:43Z</time>
</trkpt>
<trkpt lat="49.278709357604384" lon="9.475526791065931">
<ele>162</ele>
<time>2024-05-07T15:45:44Z</time>
</trkpt>
<trkpt lat="49.278747495263815" lon="9.475462837144732">
<ele>161.8</ele>
<time>2024-05-07T15:45:45Z</time>
</trkpt>
<trkpt lat="49.278789488598704" lon="9.475397039204836">
<ele>161.6</ele>
<time>2024-05-07T15:45:46Z</time>
</trkpt>
<trkpt lat="49.278827626258135" lon="9.47533031925559">
<ele>161.4</ele>
<time>2024-05-07T15:45:47Z</time>
</trkpt>
<trkpt lat="49.278869619593024" lon="9.475261671468616">
<ele>161.4</ele>
<time>2024-05-07T15:45:48Z</time>
</trkpt>
<trkpt lat="49.27891152910888" lon="9.47519302368164">
<ele>161.2</ele>
<time>2024-05-07T15:45:49Z</time>
</trkpt>
<trkpt lat="49.27895352244377" lon="9.475123370066283">
<ele>161.2</ele>
<time>2024-05-07T15:45:50Z</time>
</trkpt>
<trkpt lat="49.27899928763509" lon="9.475049944594502">
<ele>161.2</ele>
<time>2024-05-07T15:45:51Z</time>
</trkpt>
<trkpt lat="49.27904128096998" lon="9.47497366927564">
<ele>161</ele>
<time>2024-05-07T15:45:52Z</time>
</trkpt>
<trkpt lat="49.279083190485835" lon="9.4748963881284">
<ele>161</ele>
<time>2024-05-07T15:45:53Z</time>
</trkpt>
<trkpt lat="49.27912518382072" lon="9.47482011280954">
<ele>161</ele>
<time>2024-05-07T15:45:54Z</time>
</trkpt>
<trkpt lat="49.27916709333658" lon="9.474742831662295">
<ele>160.8</ele>
<time>2024-05-07T15:45:55Z</time>
</trkpt>
<trkpt lat="49.27920908667147" lon="9.474670328199863">
<ele>160.8</ele>
<time>2024-05-07T15:45:56Z</time>
</trkpt>
<trkpt lat="49.27925485186279" lon="9.474593130871654">
<ele>160.6</ele>
<time>2024-05-07T15:45:57Z</time>
</trkpt>
<trkpt lat="49.27929684519768" lon="9.47451869957149">
<ele>160.4</ele>
<time>2024-05-07T15:45:58Z</time>
</trkpt>
<trkpt lat="49.27933498285711" lon="9.47444343008101">
<ele>160.4</ele>
<time>2024-05-07T15:45:59Z</time>
</trkpt>
<trkpt lat="49.279376976192" lon="9.474371848627923">
<ele>160.2</ele>
<time>2024-05-07T15:46:00Z</time>
</trkpt>
<trkpt lat="49.27941511385143" lon="9.47430320084095">
<ele>160.2</ele>
<time>2024-05-07T15:46:01Z</time>
</trkpt>
<trkpt lat="49.279457023367286" lon="9.474238324910402">
<ele>160</ele>
<time>2024-05-07T15:46:02Z</time>
</trkpt>
<trkpt lat="49.27949516102672" lon="9.47418208234012">
<ele>159.8</ele>
<time>2024-05-07T15:46:03Z</time>
</trkpt>
<trkpt lat="49.27953338250518" lon="9.474136317148805">
<ele>159.8</ele>
<time>2024-05-07T15:46:04Z</time>
</trkpt>
<trkpt lat="49.27956766448915" lon="9.47412198409438">
<ele>159.6</ele>
<time>2024-05-07T15:46:05Z</time>
</trkpt>
<trkpt lat="49.27960965782404" lon="9.474113434553146">
<ele>159.6</ele>
<time>2024-05-07T15:46:06Z</time>
</trkpt>
<trkpt lat="49.279640167951584" lon="9.474131539463997">
<ele>159.6</ele>
<time>2024-05-07T15:46:07Z</time>
</trkpt>
<trkpt lat="49.279678305611014" lon="9.474146794527767">
<ele>159.6</ele>
<time>2024-05-07T15:46:08Z</time>
</trkpt>
<trkpt lat="49.2797393258661" lon="9.474191637709737">
<ele>159.6</ele>
<time>2024-05-07T15:46:10Z</time>
</trkpt>
<trkpt lat="49.27977369166911" lon="9.474216448143125">
<ele>159.4</ele>
<time>2024-05-07T15:46:11Z</time>
</trkpt>
<trkpt lat="49.27980797365308" lon="9.47424503043294">
<ele>159.4</ele>
<time>2024-05-07T15:46:12Z</time>
</trkpt>
<trkpt lat="49.27983848378062" lon="9.474276462569833">
<ele>159.2</ele>
<time>2024-05-07T15:46:13Z</time>
</trkpt>
<trkpt lat="49.279872849583626" lon="9.47430320084095">
<ele>159.2</ele>
<time>2024-05-07T15:46:14Z</time>
</trkpt>
<trkpt lat="49.27990335971117" lon="9.474340416491032">
<ele>159</ele>
<time>2024-05-07T15:46:15Z</time>
</trkpt>
<trkpt lat="49.279933869838715" lon="9.474378554150462">
<ele>159</ele>
<time>2024-05-07T15:46:16Z</time>
</trkpt>
<trkpt lat="49.27995675243437" lon="9.4744214694947">
<ele>158.8</ele>
<time>2024-05-07T15:46:17Z</time>
</trkpt>
<trkpt lat="49.27997963503003" lon="9.47446346282959">
<ele>158.8</ele>
<time>2024-05-07T15:46:18Z</time>
</trkpt>
<trkpt lat="49.27999874576926" lon="9.47450160048902">
<ele>158.8</ele>
<time>2024-05-07T15:46:19Z</time>
</trkpt>
<trkpt lat="49.280014000833035" lon="9.474536888301373">
<ele>158.8</ele>
<time>2024-05-07T15:46:20Z</time>
</trkpt>
<trkpt lat="49.28002925589681" lon="9.474575025960805">
<ele>158.8</ele>
<time>2024-05-07T15:46:21Z</time>
</trkpt>
<trkpt lat="49.28004073910415" lon="9.474621713161469">
<ele>158.8</ele>
<time>2024-05-07T15:46:22Z</time>
</trkpt>
<trkpt lat="49.280052138492465" lon="9.474671334028244">
<ele>158.8</ele>
<time>2024-05-07T15:46:23Z</time>
</trkpt>
<trkpt lat="49.28005976602435" lon="9.474733276292682">
<ele>158.8</ele>
<time>2024-05-07T15:46:24Z</time>
</trkpt>
<trkpt lat="49.28007502108812" lon="9.474791446700692">
<ele>159</ele>
<time>2024-05-07T15:46:25Z</time>
</trkpt>
<trkpt lat="49.28007887676358" lon="9.474851544946432">
<ele>159</ele>
<time>2024-05-07T15:46:26Z</time>
</trkpt>
<trkpt lat="49.28008264862001" lon="9.474907871335745">
<ele>159</ele>
<time>2024-05-07T15:46:27Z</time>
</trkpt>
<trkpt lat="49.28008650429547" lon="9.474966963753104">
<ele>159</ele>
<time>2024-05-07T15:46:28Z</time>
</trkpt>
<trkpt lat="49.280090276151896" lon="9.475025134161116">
<ele>159</ele>
<time>2024-05-07T15:46:29Z</time>
</trkpt>
<trkpt lat="49.28009790368378" lon="9.475080454722049">
<ele>159.2</ele>
<time>2024-05-07T15:46:30Z</time>
</trkpt>
<trkpt lat="49.28010175935924" lon="9.475141474977136">
<ele>159.2</ele>
<time>2024-05-07T15:46:31Z</time>
</trkpt>
<trkpt lat="49.28010553121567" lon="9.475201573222876">
<ele>159.4</ele>
<time>2024-05-07T15:46:32Z</time>
</trkpt>
<trkpt lat="49.280113158747554" lon="9.475259743630886">
<ele>159.4</ele>
<time>2024-05-07T15:46:33Z</time>
</trkpt>
<trkpt lat="49.28011701442301" lon="9.475321769714355">
<ele>159.6</ele>
<time>2024-05-07T15:46:34Z</time>
</trkpt>
<trkpt lat="49.28012078627944" lon="9.475383711978791">
<ele>159.6</ele>
<time>2024-05-07T15:46:35Z</time>
</trkpt>
<trkpt lat="49.28012078627944" lon="9.475442804396152">
<ele>159.8</ele>
<time>2024-05-07T15:46:36Z</time>
</trkpt>
<trkpt lat="49.2801246419549" lon="9.475502902641892">
<ele>159.8</ele>
<time>2024-05-07T15:46:37Z</time>
</trkpt>
<trkpt lat="49.280128413811326" lon="9.475562078878284">
<ele>159.8</ele>
<time>2024-05-07T15:46:38Z</time>
</trkpt>
<trkpt lat="49.280132269486785" lon="9.475620249286294">
<ele>160</ele>
<time>2024-05-07T15:46:39Z</time>
</trkpt>
<trkpt lat="49.28013989701867" lon="9.475676491856577">
<ele>160</ele>
<time>2024-05-07T15:46:40Z</time>
</trkpt>
<trkpt lat="49.28013989701867" lon="9.475734662264584">
<ele>160</ele>
<time>2024-05-07T15:46:41Z</time>
</trkpt>
<trkpt lat="49.28014752455056" lon="9.475792832672596">
<ele>160</ele>
<time>2024-05-07T15:46:42Z</time>
</trkpt>
<trkpt lat="49.280151296406984" lon="9.475848153233528">
<ele>160</ele>
<time>2024-05-07T15:46:43Z</time>
</trkpt>
<trkpt lat="49.28015515208244" lon="9.47590540163219">
<ele>160.2</ele>
<time>2024-05-07T15:46:44Z</time>
</trkpt>
<trkpt lat="49.28015892393887" lon="9.475964494049547">
<ele>160.2</ele>
<time>2024-05-07T15:46:45Z</time>
</trkpt>
<trkpt lat="49.28016655147076" lon="9.476024592295287">
<ele>160.2</ele>
<time>2024-05-07T15:46:46Z</time>
</trkpt>
<trkpt lat="49.28016655147076" lon="9.476086534559728">
<ele>160.4</ele>
<time>2024-05-07T15:46:47Z</time>
</trkpt>
<trkpt lat="49.28017417900264" lon="9.476146632805468">
<ele>160.4</ele>
<time>2024-05-07T15:46:48Z</time>
</trkpt>
<trkpt lat="49.2801780346781" lon="9.476208658888936">
<ele>160.6</ele>
<time>2024-05-07T15:46:49Z</time>
</trkpt>
<trkpt lat="49.28018180653453" lon="9.476269679144025">
<ele>160.6</ele>
<time>2024-05-07T15:46:50Z</time>
</trkpt>
<trkpt lat="49.280189434066415" lon="9.476326927542686">
<ele>160.6</ele>
<time>2024-05-07T15:46:51Z</time>
</trkpt>
<trkpt lat="49.280193289741874" lon="9.476385097950695">
<ele>160.6</ele>
<time>2024-05-07T15:46:52Z</time>
</trkpt>
<trkpt lat="49.28020477294922" lon="9.476440418511627">
<ele>160.6</ele>
<time>2024-05-07T15:46:53Z</time>
</trkpt>
<trkpt lat="49.280212400481105" lon="9.476489955559371">
<ele>160.6</ele>
<time>2024-05-07T15:46:54Z</time>
</trkpt>
<trkpt lat="49.28022379986942" lon="9.47653479874134">
<ele>160.6</ele>
<time>2024-05-07T15:46:55Z</time>
</trkpt>
<trkpt lat="49.28022765554488" lon="9.476572936400771">
<ele>160.8</ele>
<time>2024-05-07T15:46:56Z</time>
</trkpt>
<trkpt lat="49.28022765554488" lon="9.476605374366043">
<ele>160.8</ele>
<time>2024-05-07T15:46:57Z</time>
</trkpt>
<trkpt lat="49.28022002801299" lon="9.476626329123974">
<ele>160.8</ele>
<time>2024-05-07T15:46:58Z</time>
</trkpt>
<trkpt lat="49.280212400481105" lon="9.476636806502938">
<ele>160.8</ele>
<time>2024-05-07T15:46:59Z</time>
</trkpt>
<trkpt lat="49.280212400481105" lon="9.476641584187746">
<ele>160.8</ele>
<time>2024-05-07T15:47:00Z</time>
</trkpt>
<trkpt lat="49.280208544805646" lon="9.476639740169048">
<ele>160.6</ele>
<time>2024-05-07T15:47:01Z</time>
</trkpt>
<trkpt lat="49.280208544805646" lon="9.476641584187746">
<ele>160.6</ele>
<time>2024-05-07T15:47:02Z</time>
</trkpt>
<trkpt lat="49.28020477294922" lon="9.476641584187746">
<ele>160.4</ele>
<time>2024-05-07T15:47:03Z</time>
</trkpt>
<trkpt lat="49.28020477294922" lon="9.476639740169048">
<ele>160.4</ele>
<time>2024-05-07T15:47:05Z</time>
</trkpt>
<trkpt lat="49.28020477294922" lon="9.476638734340668">
<ele>160.2</ele>
<time>2024-05-07T15:47:06Z</time>
</trkpt>
<trkpt lat="49.28020091727376" lon="9.47663496248424">
<ele>160.2</ele>
<time>2024-05-07T15:47:09Z</time>
</trkpt>
<trkpt lat="49.280189434066415" lon="9.476633034646513">
<ele>160</ele>
<time>2024-05-07T15:47:10Z</time>
</trkpt>
<trkpt lat="49.28018180653453" lon="9.476632112637162">
<ele>160</ele>
<time>2024-05-07T15:47:11Z</time>
</trkpt>
<trkpt lat="49.280170407146215" lon="9.476639740169048">
<ele>159.8</ele>
<time>2024-05-07T15:47:12Z</time>
</trkpt>
<trkpt lat="49.280170407146215" lon="9.476644434034824">
<ele>159.8</ele>
<time>2024-05-07T15:47:13Z</time>
</trkpt>
<trkpt lat="49.280170407146215" lon="9.476648289710283">
<ele>159.6</ele>
<time>2024-05-07T15:47:14Z</time>
</trkpt>
<trkpt lat="49.28016655147076" lon="9.476646361872554">
<ele>159.6</ele>
<time>2024-05-07T15:47:15Z</time>
</trkpt>
<trkpt lat="49.28016655147076" lon="9.476648289710283">
<ele>159.2</ele>
<time>2024-05-07T15:47:16Z</time>
</trkpt>
<trkpt lat="49.28016277961433" lon="9.476652145385742">
<ele>158.8</ele>
<time>2024-05-07T15:47:17Z</time>
</trkpt>
<trkpt lat="49.28016277961433" lon="9.47665499523282">
<ele>158.6</ele>
<time>2024-05-07T15:47:18Z</time>
</trkpt>
<trkpt lat="49.28015892393887" lon="9.4766578450799">
<ele>158.6</ele>
<time>2024-05-07T15:47:19Z</time>
</trkpt>
<trkpt lat="49.28015892393887" lon="9.476659772917628">
<ele>158.4</ele>
<time>2024-05-07T15:47:20Z</time>
</trkpt>
<trkpt lat="49.28015892393887" lon="9.476661616936326">
<ele>158.4</ele>
<time>2024-05-07T15:47:21Z</time>
</trkpt>
<trkpt lat="49.28015892393887" lon="9.476663544774055">
<ele>158.6</ele>
<time>2024-05-07T15:47:22Z</time>
</trkpt>
<trkpt lat="49.28015515208244" lon="9.476663544774055">
<ele>158.6</ele>
<time>2024-05-07T15:47:23Z</time>
</trkpt>
<trkpt lat="49.28015515208244" lon="9.476664466783404">
<ele>158.6</ele>
<time>2024-05-07T15:47:24Z</time>
</trkpt>
<trkpt lat="49.28015515208244" lon="9.476666394621134">
<ele>158.6</ele>
<time>2024-05-07T15:47:26Z</time>
</trkpt>
<trkpt lat="49.28015515208244" lon="9.476668322458863">
<ele>158.8</ele>
<time>2024-05-07T15:47:28Z</time>
</trkpt>
<trkpt lat="49.28015515208244" lon="9.476670250296593">
<ele>158.8</ele>
<time>2024-05-07T15:47:30Z</time>
</trkpt>
<trkpt lat="49.28015515208244" lon="9.476671172305942">
<ele>158.8</ele>
<time>2024-05-07T15:47:31Z</time>
</trkpt>
<trkpt lat="49.28015515208244" lon="9.476673100143673">
<ele>159</ele>
<time>2024-05-07T15:47:32Z</time>
</trkpt>
<trkpt lat="49.28015515208244" lon="9.476673100143673">
<ele>159</ele>
</trkpt>
</trkseg>
</trk>
</gpx>